<?xml version="1.0" encoding="UTF-8" standalone="no" ?>
<gpx xmlns="http://www.topografix.com/GPX/1/1" creator="MapSource 6.16.3" version="1.1" xmlns:xsi="http://www.w3.org/2001/XMLSchema-instance" xsi:schemaLocation="http://www.topografix.com/GPX/1/1 http://www.topografix.com/GPX/1/1/gpx.xsd">

  <metadata>
    <link href="http://www.garmin.com">
      <text>Garmin International</text>
    </link>
    <time>2026-04-26T10:33:39Z</time>
    <bounds maxlat="40.700759002938867" maxlon="-2.563070990145207" minlat="40.639989031478763" minlon="-2.601694967597723"/>
  </metadata>

  <wpt lat="40.640059942379594" lon="-2.588774431496859">
    <time>2026-04-26T10:32:16Z</time>
    <name>Avituallamiento de La Puerta (Km 10,2)</name>
    <cmt>Senda</cmt>
    <desc>Senda</desc>
    <sym>Flag, Blue</sym>
    <extensions>
      <gpxx:WaypointExtension xmlns:gpxx="http://www.garmin.com/xmlschemas/GpxExtensions/v3">
        <gpxx:DisplayMode>SymbolAndName</gpxx:DisplayMode>
      </gpxx:WaypointExtension>
    </extensions>
  </wpt>

  <wpt lat="40.678376723080873" lon="-2.594052515923977">
    <time>2026-04-26T10:33:13Z</time>
    <name>Avituallamiento de los Meandros del Tajo (Km 18)</name>
    <cmt>Camino Del Vivero</cmt>
    <desc>Camino Del Vivero</desc>
    <sym>Flag, Blue</sym>
    <extensions>
      <gpxx:WaypointExtension xmlns:gpxx="http://www.garmin.com/xmlschemas/GpxExtensions/v3">
        <gpxx:DisplayMode>SymbolAndName</gpxx:DisplayMode>
      </gpxx:WaypointExtension>
    </extensions>
  </wpt>

  <trk>
    <name>Desafío X- Trail Trillo 2026</name>
    <desc>Carrera de montaña Desafío X-Trail Trillo 2026 (labores de escoba y desbalizado)</desc>
    <trkseg>
      <trkpt lat="40.700656995177269" lon="-2.592911990359426">
        <ele>735.077</ele>
        <time>2026-04-25T08:38:19Z</time>
      </trkpt>
      <trkpt lat="40.700667975470424" lon="-2.592890029773116">
        <ele>735.06100000000004</ele>
        <time>2026-04-25T08:38:20Z</time>
      </trkpt>
      <trkpt lat="40.700684990733862" lon="-2.592854993417859">
        <ele>735.02700000000004</ele>
        <time>2026-04-25T08:38:22Z</time>
      </trkpt>
      <trkpt lat="40.700693037360907" lon="-2.592817023396492">
        <ele>735.00900000000001</ele>
        <time>2026-04-25T08:38:24Z</time>
      </trkpt>
      <trkpt lat="40.700697982683778" lon="-2.592777963727713">
        <ele>735.08900000000006</ele>
        <time>2026-04-25T08:38:26Z</time>
      </trkpt>
      <trkpt lat="40.700708040967584" lon="-2.592745022848249">
        <ele>735.07299999999998</ele>
        <time>2026-04-25T08:38:28Z</time>
      </trkpt>
      <trkpt lat="40.700713992118835" lon="-2.592717027291656">
        <ele>735.01800000000003</ele>
        <time>2026-04-25T08:38:30Z</time>
      </trkpt>
      <trkpt lat="40.7007210329175" lon="-2.592681990936399">
        <ele>735.06799999999998</ele>
        <time>2026-04-25T08:38:32Z</time>
      </trkpt>
      <trkpt lat="40.700727989897132" lon="-2.59266103617847">
        <ele>735.07399999999996</ele>
        <time>2026-04-25T08:38:33Z</time>
      </trkpt>
      <trkpt lat="40.700735030695796" lon="-2.592633040621877">
        <ele>735.07600000000002</ele>
        <time>2026-04-25T08:38:34Z</time>
      </trkpt>
      <trkpt lat="40.700736036524177" lon="-2.592606972903013">
        <ele>735.04499999999996</ele>
        <time>2026-04-25T08:38:35Z</time>
      </trkpt>
      <trkpt lat="40.700742993503809" lon="-2.592584006488323">
        <ele>735.26599999999996</ele>
        <time>2026-04-25T08:38:36Z</time>
      </trkpt>
      <trkpt lat="40.700749028474092" lon="-2.592558022588491">
        <ele>735.26099999999997</ele>
        <time>2026-04-25T08:38:37Z</time>
      </trkpt>
      <trkpt lat="40.700756991282105" lon="-2.592532960698009">
        <ele>735.45899999999995</ele>
        <time>2026-04-25T08:38:38Z</time>
      </trkpt>
      <trkpt lat="40.700759002938867" lon="-2.592501025646925">
        <ele>735.60299999999995</ele>
        <time>2026-04-25T08:38:39Z</time>
      </trkpt>
      <trkpt lat="40.700759002938867" lon="-2.592471018433571">
        <ele>735.62300000000005</ele>
        <time>2026-04-25T08:38:40Z</time>
      </trkpt>
      <trkpt lat="40.700754979625344" lon="-2.592434976249933">
        <ele>735.60900000000004</ele>
        <time>2026-04-25T08:38:41Z</time>
      </trkpt>
      <trkpt lat="40.700751040130854" lon="-2.592393988743424">
        <ele>735.827</ele>
        <time>2026-04-25T08:38:42Z</time>
      </trkpt>
      <trkpt lat="40.700748022645712" lon="-2.592354007065296">
        <ele>736.06100000000004</ele>
        <time>2026-04-25T08:38:43Z</time>
      </trkpt>
      <trkpt lat="40.70074399933219" lon="-2.592302039265633">
        <ele>736.08600000000001</ele>
        <time>2026-04-25T08:38:44Z</time>
      </trkpt>
      <trkpt lat="40.70074399933219" lon="-2.592250993475318">
        <ele>736.43600000000004</ele>
        <time>2026-04-25T08:38:45Z</time>
      </trkpt>
      <trkpt lat="40.700737964361906" lon="-2.592198019847274">
        <ele>736.41200000000003</ele>
        <time>2026-04-25T08:38:46Z</time>
      </trkpt>
      <trkpt lat="40.700731007382274" lon="-2.592144962400198">
        <ele>736.85400000000004</ele>
        <time>2026-04-25T08:38:47Z</time>
      </trkpt>
      <trkpt lat="40.700699994340539" lon="-2.592048989608884">
        <ele>736.86300000000006</ele>
        <time>2026-04-25T08:38:49Z</time>
      </trkpt>
      <trkpt lat="40.700665963813663" lon="-2.592020994052291">
        <ele>737.04399999999998</ele>
        <time>2026-04-25T08:38:50Z</time>
      </trkpt>
      <trkpt lat="40.700623970478773" lon="-2.592004984617233">
        <ele>736.87900000000002</ele>
        <time>2026-04-25T08:38:51Z</time>
      </trkpt>
      <trkpt lat="40.700535960495472" lon="-2.591983024030924">
        <ele>736.87400000000002</ele>
        <time>2026-04-25T08:38:53Z</time>
      </trkpt>
      <trkpt lat="40.700448034331203" lon="-2.591951005160809">
        <ele>736.85599999999999</ele>
        <time>2026-04-25T08:38:55Z</time>
      </trkpt>
      <trkpt lat="40.700319036841393" lon="-2.591916974633932">
        <ele>737.221</ele>
        <time>2026-04-25T08:38:58Z</time>
      </trkpt>
      <trkpt lat="40.700192973017693" lon="-2.59188998490572">
        <ele>737.40899999999999</ele>
        <time>2026-04-25T08:39:01Z</time>
      </trkpt>
      <trkpt lat="40.700074033811688" lon="-2.591861989349127">
        <ele>738.61900000000003</ele>
        <time>2026-04-25T08:39:04Z</time>
      </trkpt>
      <trkpt lat="40.699956016615033" lon="-2.591827036812902">
        <ele>739.03300000000002</ele>
        <time>2026-04-25T08:39:07Z</time>
      </trkpt>
      <trkpt lat="40.699882004410028" lon="-2.591812033206224">
        <ele>739.41800000000001</ele>
        <time>2026-04-25T08:39:09Z</time>
      </trkpt>
      <trkpt lat="40.6998420227319" lon="-2.591811027377844">
        <ele>739.83799999999997</ele>
        <time>2026-04-25T08:39:10Z</time>
      </trkpt>
      <trkpt lat="40.699804974719882" lon="-2.591805998235941">
        <ele>739.82399999999996</ele>
        <time>2026-04-25T08:39:11Z</time>
      </trkpt>
      <trkpt lat="40.699701961129904" lon="-2.591775991022587">
        <ele>740.68600000000004</ele>
        <time>2026-04-25T08:39:14Z</time>
      </trkpt>
      <trkpt lat="40.699630966410041" lon="-2.591754030436277">
        <ele>741.21500000000003</ele>
        <time>2026-04-25T08:39:16Z</time>
      </trkpt>
      <trkpt lat="40.699517978355289" lon="-2.591728968545795">
        <ele>742.28599999999994</ele>
        <time>2026-04-25T08:39:19Z</time>
      </trkpt>
      <trkpt lat="40.69947699084878" lon="-2.591724023222923">
        <ele>742.27099999999996</ele>
        <time>2026-04-25T08:39:20Z</time>
      </trkpt>
      <trkpt lat="40.699436003342271" lon="-2.59171798825264">
        <ele>742.86400000000003</ele>
        <time>2026-04-25T08:39:21Z</time>
      </trkpt>
      <trkpt lat="40.699399039149284" lon="-2.591712037101388">
        <ele>743.00599999999997</ele>
        <time>2026-04-25T08:39:22Z</time>
      </trkpt>
      <trkpt lat="40.699362996965647" lon="-2.591714970767498">
        <ele>743.81600000000003</ele>
        <time>2026-04-25T08:39:23Z</time>
      </trkpt>
      <trkpt lat="40.699332989752293" lon="-2.591713964939117">
        <ele>743.80899999999997</ele>
        <time>2026-04-25T08:39:24Z</time>
      </trkpt>
      <trkpt lat="40.699300970882177" lon="-2.59171798825264">
        <ele>744.43799999999999</ele>
        <time>2026-04-25T08:39:25Z</time>
      </trkpt>
      <trkpt lat="40.699270963668823" lon="-2.591715976595879">
        <ele>744.452</ele>
        <time>2026-04-25T08:39:26Z</time>
      </trkpt>
      <trkpt lat="40.69923902861774" lon="-2.591712959110737">
        <ele>744.47699999999998</ele>
        <time>2026-04-25T08:39:27Z</time>
      </trkpt>
      <trkpt lat="40.699207009747624" lon="-2.591710025444627">
        <ele>745.03700000000003</ele>
        <time>2026-04-25T08:39:28Z</time>
      </trkpt>
      <trkpt lat="40.69917599670589" lon="-2.591710025444627">
        <ele>745.06299999999999</ele>
        <time>2026-04-25T08:39:29Z</time>
      </trkpt>
      <trkpt lat="40.699152024462819" lon="-2.591706002131105">
        <ele>745.61500000000001</ele>
        <time>2026-04-25T08:39:30Z</time>
      </trkpt>
      <trkpt lat="40.699127968400717" lon="-2.591707007959485">
        <ele>745.83399999999995</ele>
        <time>2026-04-25T08:39:31Z</time>
      </trkpt>
      <trkpt lat="40.699097961187363" lon="-2.591707007959485">
        <ele>746.68499999999995</ele>
        <time>2026-04-25T08:39:32Z</time>
      </trkpt>
      <trkpt lat="40.699066026136279" lon="-2.591702984645963">
        <ele>746.65999999999997</ele>
        <time>2026-04-25T08:39:33Z</time>
      </trkpt>
      <trkpt lat="40.699035013094544" lon="-2.591706002131105">
        <ele>747.28499999999997</ele>
        <time>2026-04-25T08:39:34Z</time>
      </trkpt>
      <trkpt lat="40.699007017537951" lon="-2.591703990474343">
        <ele>747.68899999999996</ele>
        <time>2026-04-25T08:39:35Z</time>
      </trkpt>
      <trkpt lat="40.698979021981359" lon="-2.591697033494711">
        <ele>747.81700000000001</ele>
        <time>2026-04-25T08:39:36Z</time>
      </trkpt>
      <trkpt lat="40.698947003111243" lon="-2.591686975210905">
        <ele>748.40899999999999</ele>
        <time>2026-04-25T08:39:37Z</time>
      </trkpt>
      <trkpt lat="40.698915990069509" lon="-2.591681024059653">
        <ele>748.42999999999995</ele>
        <time>2026-04-25T08:39:38Z</time>
      </trkpt>
      <trkpt lat="40.698880031704903" lon="-2.591679012402892">
        <ele>749.09400000000005</ele>
        <time>2026-04-25T08:39:39Z</time>
      </trkpt>
      <trkpt lat="40.698843989521265" lon="-2.591679012402892">
        <ele>749.47900000000004</ele>
        <time>2026-04-25T08:39:40Z</time>
      </trkpt>
      <trkpt lat="40.698814988136292" lon="-2.591677000746131">
        <ele>749.649</ele>
        <time>2026-04-25T08:39:41Z</time>
      </trkpt>
      <trkpt lat="40.698782969266176" lon="-2.59167599491775">
        <ele>750.44500000000005</ele>
        <time>2026-04-25T08:39:42Z</time>
      </trkpt>
      <trkpt lat="40.698754973709583" lon="-2.59167599491775">
        <ele>750.49699999999996</ele>
        <time>2026-04-25T08:39:43Z</time>
      </trkpt>
      <trkpt lat="40.69872597232461" lon="-2.59167498908937">
        <ele>751.27599999999995</ele>
        <time>2026-04-25T08:39:44Z</time>
      </trkpt>
      <trkpt lat="40.698698982596397" lon="-2.591670965775847">
        <ele>751.47699999999998</ele>
        <time>2026-04-25T08:39:45Z</time>
      </trkpt>
      <trkpt lat="40.698674004524946" lon="-2.591669037938118">
        <ele>752.05200000000002</ele>
        <time>2026-04-25T08:39:46Z</time>
      </trkpt>
      <trkpt lat="40.698650032281876" lon="-2.591670965775847">
        <ele>752.053</ele>
        <time>2026-04-25T08:39:47Z</time>
      </trkpt>
      <trkpt lat="40.698631005361676" lon="-2.591671971604228">
        <ele>752.20399999999995</ele>
        <time>2026-04-25T08:39:48Z</time>
      </trkpt>
      <trkpt lat="40.698602003976703" lon="-2.59167599491775">
        <ele>753.01400000000001</ele>
        <time>2026-04-25T08:39:49Z</time>
      </trkpt>
      <trkpt lat="40.698578031733632" lon="-2.591673983260989">
        <ele>753.20899999999995</ele>
        <time>2026-04-25T08:39:50Z</time>
      </trkpt>
      <trkpt lat="40.698557998985052" lon="-2.591668032109737">
        <ele>753.45699999999999</ele>
        <time>2026-04-25T08:39:51Z</time>
      </trkpt>
      <trkpt lat="40.698539977893233" lon="-2.591661997139454">
        <ele>753.65099999999995</ele>
        <time>2026-04-25T08:39:52Z</time>
      </trkpt>
      <trkpt lat="40.698518017306924" lon="-2.591657973825932">
        <ele>754.08600000000001</ele>
        <time>2026-04-25T08:39:53Z</time>
      </trkpt>
      <trkpt lat="40.698497984558344" lon="-2.591647999361157">
        <ele>754.26599999999996</ele>
        <time>2026-04-25T08:39:54Z</time>
      </trkpt>
      <trkpt lat="40.698478035628796" lon="-2.591639030724764">
        <ele>754.49199999999996</ele>
        <time>2026-04-25T08:39:55Z</time>
      </trkpt>
      <trkpt lat="40.698455991223454" lon="-2.591626960784197">
        <ele>754.67399999999998</ele>
        <time>2026-04-25T08:39:56Z</time>
      </trkpt>
      <trkpt lat="40.698437970131636" lon="-2.591623021289706">
        <ele>754.81299999999999</ele>
        <time>2026-04-25T08:39:57Z</time>
      </trkpt>
      <trkpt lat="40.698420032858849" lon="-2.591613968834281">
        <ele>755.08399999999995</ele>
        <time>2026-04-25T08:39:58Z</time>
      </trkpt>
      <trkpt lat="40.698383990675211" lon="-2.591602988541126">
        <ele>755.42899999999997</ele>
        <time>2026-04-25T08:40:00Z</time>
      </trkpt>
      <trkpt lat="40.698364963755012" lon="-2.591598965227604">
        <ele>755.68700000000001</ele>
        <time>2026-04-25T08:40:01Z</time>
      </trkpt>
      <trkpt lat="40.698330011218786" lon="-2.591594019904733">
        <ele>756.04200000000003</ele>
        <time>2026-04-25T08:40:03Z</time>
      </trkpt>
      <trkpt lat="40.698310984298587" lon="-2.591598965227604">
        <ele>756.42600000000004</ele>
        <time>2026-04-25T08:40:04Z</time>
      </trkpt>
      <trkpt lat="40.698289023712277" lon="-2.591606006026268">
        <ele>756.40899999999999</ele>
        <time>2026-04-25T08:40:05Z</time>
      </trkpt>
      <trkpt lat="40.698265973478556" lon="-2.591614974662662">
        <ele>756.45000000000005</ele>
        <time>2026-04-25T08:40:06Z</time>
      </trkpt>
      <trkpt lat="40.698238983750343" lon="-2.5916319899261">
        <ele>756.81399999999996</ele>
        <time>2026-04-25T08:40:07Z</time>
      </trkpt>
      <trkpt lat="40.698214005678892" lon="-2.591650011017919">
        <ele>757.05899999999997</ele>
        <time>2026-04-25T08:40:08Z</time>
      </trkpt>
      <trkpt lat="40.69818701595068" lon="-2.591672977432609">
        <ele>757.21900000000005</ele>
        <time>2026-04-25T08:40:09Z</time>
      </trkpt>
      <trkpt lat="40.698157008737326" lon="-2.59169502183795">
        <ele>757.41499999999996</ele>
        <time>2026-04-25T08:40:10Z</time>
      </trkpt>
      <trkpt lat="40.698129013180733" lon="-2.591710025444627">
        <ele>757.49699999999996</ele>
        <time>2026-04-25T08:40:11Z</time>
      </trkpt>
      <trkpt lat="40.698105962947011" lon="-2.591721005737782">
        <ele>757.88599999999997</ele>
        <time>2026-04-25T08:40:12Z</time>
      </trkpt>
      <trkpt lat="40.698055000975728" lon="-2.591726034879684">
        <ele>758.46699999999998</ele>
        <time>2026-04-25T08:40:15Z</time>
      </trkpt>
      <trkpt lat="40.698035974055529" lon="-2.591729974374175">
        <ele>758.61199999999997</ele>
        <time>2026-04-25T08:40:16Z</time>
      </trkpt>
      <trkpt lat="40.698005966842175" lon="-2.591729974374175">
        <ele>759.01800000000003</ele>
        <time>2026-04-25T08:40:18Z</time>
      </trkpt>
      <trkpt lat="40.69797202013433" lon="-2.591740032657981">
        <ele>759.49800000000005</ele>
        <time>2026-04-25T08:40:20Z</time>
      </trkpt>
      <trkpt lat="40.697941007092595" lon="-2.591749001294375">
        <ele>759.81700000000001</ele>
        <time>2026-04-25T08:40:22Z</time>
      </trkpt>
      <trkpt lat="40.697916029021144" lon="-2.591755036264658">
        <ele>760.40899999999999</ele>
        <time>2026-04-25T08:40:24Z</time>
      </trkpt>
      <trkpt lat="40.697888033464551" lon="-2.591758975759149">
        <ele>761.01300000000003</ele>
        <time>2026-04-25T08:40:26Z</time>
      </trkpt>
      <trkpt lat="40.697860037907958" lon="-2.59176199324429">
        <ele>761.49699999999996</ele>
        <time>2026-04-25T08:40:28Z</time>
      </trkpt>
      <trkpt lat="40.697831036522985" lon="-2.591765010729432">
        <ele>761.88199999999995</ele>
        <time>2026-04-25T08:40:30Z</time>
      </trkpt>
      <trkpt lat="40.69780396297574" lon="-2.591764004901052">
        <ele>762.22199999999998</ele>
        <time>2026-04-25T08:40:32Z</time>
      </trkpt>
      <trkpt lat="40.697775967419147" lon="-2.59176199324429">
        <ele>762.84799999999996</ele>
        <time>2026-04-25T08:40:34Z</time>
      </trkpt>
      <trkpt lat="40.697745960205793" lon="-2.591757969930768">
        <ele>763.25999999999999</ele>
        <time>2026-04-25T08:40:36Z</time>
      </trkpt>
      <trkpt lat="40.697716036811471" lon="-2.591755036264658">
        <ele>763.67899999999997</ele>
        <time>2026-04-25T08:40:38Z</time>
      </trkpt>
      <trkpt lat="40.697686029598117" lon="-2.591756964102387">
        <ele>764.46000000000004</ele>
        <time>2026-04-25T08:40:40Z</time>
      </trkpt>
      <trkpt lat="40.697654010728002" lon="-2.591755958274007">
        <ele>764.89499999999998</ele>
        <time>2026-04-25T08:40:42Z</time>
      </trkpt>
      <trkpt lat="40.697625009343028" lon="-2.591754030436277">
        <ele>765.25400000000002</ele>
        <time>2026-04-25T08:40:44Z</time>
      </trkpt>
      <trkpt lat="40.69758896715939" lon="-2.591758975759149">
        <ele>765.25599999999997</ele>
        <time>2026-04-25T08:40:46Z</time>
      </trkpt>
      <trkpt lat="40.697552002966404" lon="-2.591767022386193">
        <ele>765.81100000000004</ele>
        <time>2026-04-25T08:40:48Z</time>
      </trkpt>
      <trkpt lat="40.697530964389443" lon="-2.591768028214574">
        <ele>766.20899999999995</ele>
        <time>2026-04-25T08:40:49Z</time>
      </trkpt>
      <trkpt lat="40.697509003803134" lon="-2.591771967709065">
        <ele>766.46699999999998</ele>
        <time>2026-04-25T08:40:50Z</time>
      </trkpt>
      <trkpt lat="40.697484025731683" lon="-2.591779008507729">
        <ele>766.41099999999994</ele>
        <time>2026-04-25T08:40:51Z</time>
      </trkpt>
      <trkpt lat="40.697460975497961" lon="-2.59178495965898">
        <ele>767.06600000000003</ele>
        <time>2026-04-25T08:40:52Z</time>
      </trkpt>
      <trkpt lat="40.697439014911652" lon="-2.59178202599287">
        <ele>767.02599999999995</ele>
        <time>2026-04-25T08:40:53Z</time>
      </trkpt>
      <trkpt lat="40.697414958849549" lon="-2.591776996850967">
        <ele>766.69200000000001</ele>
        <time>2026-04-25T08:40:54Z</time>
      </trkpt>
      <trkpt lat="40.697391992434859" lon="-2.591771967709065">
        <ele>767.03399999999999</ele>
        <time>2026-04-25T08:40:55Z</time>
      </trkpt>
      <trkpt lat="40.69737103767693" lon="-2.591771967709065">
        <ele>767.23299999999995</ele>
        <time>2026-04-25T08:40:56Z</time>
      </trkpt>
      <trkpt lat="40.697348993271589" lon="-2.591774985194206">
        <ele>767.42399999999998</ele>
        <time>2026-04-25T08:40:57Z</time>
      </trkpt>
      <trkpt lat="40.697325021028519" lon="-2.591778002679348">
        <ele>767.649</ele>
        <time>2026-04-25T08:40:58Z</time>
      </trkpt>
      <trkpt lat="40.697226030752063" lon="-2.591779008507729">
        <ele>768.44799999999998</ele>
        <time>2026-04-25T08:41:02Z</time>
      </trkpt>
      <trkpt lat="40.697169033810496" lon="-2.591775991022587">
        <ele>769.06100000000004</ele>
        <time>2026-04-25T08:41:04Z</time>
      </trkpt>
      <trkpt lat="40.697136009112" lon="-2.59178102016449">
        <ele>769.01700000000005</ele>
        <time>2026-04-25T08:41:05Z</time>
      </trkpt>
      <trkpt lat="40.697110025212169" lon="-2.591778002679348">
        <ele>769.80899999999997</ele>
        <time>2026-04-25T08:41:06Z</time>
      </trkpt>
      <trkpt lat="40.697085969150066" lon="-2.591769034042954">
        <ele>770.03599999999994</ele>
        <time>2026-04-25T08:41:07Z</time>
      </trkpt>
      <trkpt lat="40.69704900495708" lon="-2.591752018779516">
        <ele>770.47000000000003</ele>
        <time>2026-04-25T08:41:09Z</time>
      </trkpt>
      <trkpt lat="40.697024026885629" lon="-2.591731986030936">
        <ele>770.88499999999999</ele>
        <time>2026-04-25T08:41:11Z</time>
      </trkpt>
      <trkpt lat="40.696992008015513" lon="-2.591712037101388">
        <ele>771.84500000000003</ele>
        <time>2026-04-25T08:41:13Z</time>
      </trkpt>
      <trkpt lat="40.696973986923695" lon="-2.591710025444627">
        <ele>772.04100000000005</ele>
        <time>2026-04-25T08:41:14Z</time>
      </trkpt>
      <trkpt lat="40.696951020509005" lon="-2.591697033494711">
        <ele>772.83299999999997</ele>
        <time>2026-04-25T08:41:16Z</time>
      </trkpt>
      <trkpt lat="40.696925958618522" lon="-2.591672977432609">
        <ele>773.452</ele>
        <time>2026-04-25T08:41:18Z</time>
      </trkpt>
      <trkpt lat="40.696901986375451" lon="-2.59165202267468">
        <ele>774.06299999999999</ele>
        <time>2026-04-25T08:41:20Z</time>
      </trkpt>
      <trkpt lat="40.696881031617522" lon="-2.591626960784197">
        <ele>774.09799999999996</ele>
        <time>2026-04-25T08:41:22Z</time>
      </trkpt>
      <trkpt lat="40.696862004697323" lon="-2.591593014076352">
        <ele>774.03300000000002</ele>
        <time>2026-04-25T08:41:24Z</time>
      </trkpt>
      <trkpt lat="40.696841971948743" lon="-2.591562001034617">
        <ele>774.62300000000005</ele>
        <time>2026-04-25T08:41:26Z</time>
      </trkpt>
      <trkpt lat="40.696816993877292" lon="-2.591535011306405">
        <ele>775.01499999999999</ele>
        <time>2026-04-25T08:41:28Z</time>
      </trkpt>
      <trkpt lat="40.696796961128712" lon="-2.591505004093051">
        <ele>775.20899999999995</ele>
        <time>2026-04-25T08:41:30Z</time>
      </trkpt>
      <trkpt lat="40.696779023855925" lon="-2.591470973566175">
        <ele>775.495</ele>
        <time>2026-04-25T08:41:32Z</time>
      </trkpt>
      <trkpt lat="40.696766031906009" lon="-2.591443983837962">
        <ele>775.86900000000003</ele>
        <time>2026-04-25T08:41:34Z</time>
      </trkpt>
      <trkpt lat="40.69674901664257" lon="-2.591414982452989">
        <ele>776.09400000000005</ele>
        <time>2026-04-25T08:41:36Z</time>
      </trkpt>
      <trkpt lat="40.696723032742739" lon="-2.591380029916763">
        <ele>776.61400000000003</ele>
        <time>2026-04-25T08:41:38Z</time>
      </trkpt>
      <trkpt lat="40.69670501165092" lon="-2.591358991339803">
        <ele>777.28999999999996</ele>
        <time>2026-04-25T08:41:39Z</time>
      </trkpt>
      <trkpt lat="40.696685984730721" lon="-2.591336024925113">
        <ele>777.26199999999994</ele>
        <time>2026-04-25T08:41:40Z</time>
      </trkpt>
      <trkpt lat="40.696670981124043" lon="-2.59130802936852">
        <ele>777.66099999999994</ele>
        <time>2026-04-25T08:41:41Z</time>
      </trkpt>
      <trkpt lat="40.696653965860605" lon="-2.591280033811927">
        <ele>777.62199999999996</ele>
        <time>2026-04-25T08:41:42Z</time>
      </trkpt>
      <trkpt lat="40.696636028587818" lon="-2.591251032426953">
        <ele>777.25699999999995</ele>
        <time>2026-04-25T08:41:43Z</time>
      </trkpt>
      <trkpt lat="40.696612978354096" lon="-2.591217001900077">
        <ele>777.64700000000005</ele>
        <time>2026-04-25T08:41:44Z</time>
      </trkpt>
      <trkpt lat="40.696590011939406" lon="-2.59118196554482">
        <ele>777.82899999999995</ele>
        <time>2026-04-25T08:41:45Z</time>
      </trkpt>
      <trkpt lat="40.696552963927388" lon="-2.591121029108763">
        <ele>778.42100000000005</ele>
        <time>2026-04-25T08:41:47Z</time>
      </trkpt>
      <trkpt lat="40.696494039148092" lon="-2.591032013297081">
        <ele>779.00900000000001</ele>
        <time>2026-04-25T08:41:50Z</time>
      </trkpt>
      <trkpt lat="40.696476018056273" lon="-2.59100804105401">
        <ele>779.096</ele>
        <time>2026-04-25T08:41:51Z</time>
      </trkpt>
      <trkpt lat="40.696456991136074" lon="-2.590984990820289">
        <ele>779.63</ele>
        <time>2026-04-25T08:41:52Z</time>
      </trkpt>
      <trkpt lat="40.696442993357778" lon="-2.59096403606236">
        <ele>779.69500000000005</ele>
        <time>2026-04-25T08:41:53Z</time>
      </trkpt>
      <trkpt lat="40.696425978094339" lon="-2.590936962515116">
        <ele>780.09500000000003</ele>
        <time>2026-04-25T08:41:54Z</time>
      </trkpt>
      <trkpt lat="40.696408962830901" lon="-2.590911984443665">
        <ele>780.02099999999996</ele>
        <time>2026-04-25T08:41:55Z</time>
      </trkpt>
      <trkpt lat="40.696395970880985" lon="-2.590891029685736">
        <ele>780.03300000000002</ele>
        <time>2026-04-25T08:41:56Z</time>
      </trkpt>
      <trkpt lat="40.696381973102689" lon="-2.590867979452014">
        <ele>780.29200000000003</ele>
        <time>2026-04-25T08:41:57Z</time>
      </trkpt>
      <trkpt lat="40.696304021403193" lon="-2.590787010267377">
        <ele>781.053</ele>
        <time>2026-04-25T08:42:01Z</time>
      </trkpt>
      <trkpt lat="40.696224980056286" lon="-2.590709980577231">
        <ele>782.26800000000003</ele>
        <time>2026-04-25T08:42:06Z</time>
      </trkpt>
      <trkpt lat="40.69614602252841" lon="-2.590642003342509">
        <ele>782.654</ele>
        <time>2026-04-25T08:42:10Z</time>
      </trkpt>
      <trkpt lat="40.696094976738095" lon="-2.590599004179239">
        <ele>783.05600000000004</ele>
        <time>2026-04-25T08:42:13Z</time>
      </trkpt>
      <trkpt lat="40.696053989231586" lon="-2.590559022501111">
        <ele>783.41099999999994</ele>
        <time>2026-04-25T08:42:16Z</time>
      </trkpt>
      <trkpt lat="40.696029011160135" lon="-2.590541001409292">
        <ele>783.60900000000004</ele>
        <time>2026-04-25T08:42:18Z</time>
      </trkpt>
      <trkpt lat="40.696000009775162" lon="-2.590530021116138">
        <ele>783.81700000000001</ele>
        <time>2026-04-25T08:42:20Z</time>
      </trkpt>
      <trkpt lat="40.695952987298369" lon="-2.590520968660712">
        <ele>784.61099999999999</ele>
        <time>2026-04-25T08:42:23Z</time>
      </trkpt>
      <trkpt lat="40.695935972034931" lon="-2.590530021116138">
        <ele>785.48599999999999</ele>
        <time>2026-04-25T08:42:41Z</time>
      </trkpt>
      <trkpt lat="40.695919040590525" lon="-2.590513005852699">
        <ele>785.29600000000005</ele>
        <time>2026-04-25T08:42:43Z</time>
      </trkpt>
      <trkpt lat="40.695892972871661" lon="-2.590478975325823">
        <ele>785.22199999999998</ele>
        <time>2026-04-25T08:42:45Z</time>
      </trkpt>
      <trkpt lat="40.695869000628591" lon="-2.590455003082752">
        <ele>785.22400000000005</ele>
        <time>2026-04-25T08:42:47Z</time>
      </trkpt>
      <trkpt lat="40.695839999243617" lon="-2.590431030839682">
        <ele>785.82299999999998</ele>
        <time>2026-04-25T08:42:49Z</time>
      </trkpt>
      <trkpt lat="40.695816027000546" lon="-2.590417033061385">
        <ele>786.01400000000001</ele>
        <time>2026-04-25T08:42:51Z</time>
      </trkpt>
      <trkpt lat="40.695793982595205" lon="-2.59040798060596">
        <ele>786.69899999999996</ele>
        <time>2026-04-25T08:42:53Z</time>
      </trkpt>
      <trkpt lat="40.695766992866993" lon="-2.590390965342522">
        <ele>787.09100000000001</ele>
        <time>2026-04-25T08:42:55Z</time>
      </trkpt>
      <trkpt lat="40.695734973996878" lon="-2.590370010584593">
        <ele>787.68100000000004</ele>
        <time>2026-04-25T08:42:57Z</time>
      </trkpt>
      <trkpt lat="40.695707984268665" lon="-2.590351989492774">
        <ele>788.01900000000001</ele>
        <time>2026-04-25T08:42:59Z</time>
      </trkpt>
      <trkpt lat="40.695679988712072" lon="-2.590332040563226">
        <ele>788.80899999999997</ele>
        <time>2026-04-25T08:43:01Z</time>
      </trkpt>
      <trkpt lat="40.695656016469002" lon="-2.590315025299788">
        <ele>789.41099999999994</ele>
        <time>2026-04-25T08:43:03Z</time>
      </trkpt>
      <trkpt lat="40.695631960406899" lon="-2.590297004207969">
        <ele>789.85500000000002</ele>
        <time>2026-04-25T08:43:05Z</time>
      </trkpt>
      <trkpt lat="40.695602037012577" lon="-2.59027898311615">
        <ele>790.25999999999999</ele>
        <time>2026-04-25T08:43:07Z</time>
      </trkpt>
      <trkpt lat="40.695582004263997" lon="-2.590272026136518">
        <ele>790.82000000000005</ele>
        <time>2026-04-25T08:43:08Z</time>
      </trkpt>
      <trkpt lat="40.695556020364165" lon="-2.590259034186602">
        <ele>791.096</ele>
        <time>2026-04-25T08:43:09Z</time>
      </trkpt>
      <trkpt lat="40.695531964302063" lon="-2.590241013094783">
        <ele>791.62800000000004</ele>
        <time>2026-04-25T08:43:10Z</time>
      </trkpt>
      <trkpt lat="40.695502962917089" lon="-2.590226009488106">
        <ele>792.29700000000003</ele>
        <time>2026-04-25T08:43:11Z</time>
      </trkpt>
      <trkpt lat="40.695403972640634" lon="-2.590187033638358">
        <ele>793.06799999999998</ele>
        <time>2026-04-25T08:43:14Z</time>
      </trkpt>
      <trkpt lat="40.695371031761169" lon="-2.590174963697791">
        <ele>793.47299999999996</ele>
        <time>2026-04-25T08:43:15Z</time>
      </trkpt>
      <trkpt lat="40.695339012891054" lon="-2.590161971747875">
        <ele>793.65200000000004</ele>
        <time>2026-04-25T08:43:16Z</time>
      </trkpt>
      <trkpt lat="40.6953090056777" lon="-2.590153003111482">
        <ele>793.45299999999997</ele>
        <time>2026-04-25T08:43:17Z</time>
      </trkpt>
      <trkpt lat="40.695277992635965" lon="-2.590142022818327">
        <ele>793.80799999999999</ele>
        <time>2026-04-25T08:43:18Z</time>
      </trkpt>
      <trkpt lat="40.695214038714767" lon="-2.590107992291451">
        <ele>794.40899999999999</ele>
        <time>2026-04-25T08:43:20Z</time>
      </trkpt>
      <trkpt lat="40.695182019844651" lon="-2.590098017826676">
        <ele>794.43700000000001</ele>
        <time>2026-04-25T08:43:21Z</time>
      </trkpt>
      <trkpt lat="40.69511697627604" lon="-2.590077985078096">
        <ele>794.88099999999997</ele>
        <time>2026-04-25T08:43:23Z</time>
      </trkpt>
      <trkpt lat="40.695084035396576" lon="-2.590067004784942">
        <ele>794.83600000000001</ele>
        <time>2026-04-25T08:43:24Z</time>
      </trkpt>
      <trkpt lat="40.695047993212938" lon="-2.590054012835026">
        <ele>795.29600000000005</ele>
        <time>2026-04-25T08:43:25Z</time>
      </trkpt>
      <trkpt lat="40.695014968514442" lon="-2.590044960379601">
        <ele>795.072</ele>
        <time>2026-04-25T08:43:26Z</time>
      </trkpt>
      <trkpt lat="40.694983033463359" lon="-2.590038003399968">
        <ele>795.08399999999995</ele>
        <time>2026-04-25T08:43:27Z</time>
      </trkpt>
      <trkpt lat="40.69494497962296" lon="-2.590028028935194">
        <ele>795.01300000000003</ele>
        <time>2026-04-25T08:43:28Z</time>
      </trkpt>
      <trkpt lat="40.694908015429974" lon="-2.590015958994627">
        <ele>794.66399999999999</ele>
        <time>2026-04-25T08:43:29Z</time>
      </trkpt>
      <trkpt lat="40.694837020710111" lon="-2.590004978701472">
        <ele>795.21900000000005</ele>
        <time>2026-04-25T08:43:31Z</time>
      </trkpt>
      <trkpt lat="40.694802990183234" lon="-2.589991986751556">
        <ele>795.67700000000002</ele>
        <time>2026-04-25T08:43:32Z</time>
      </trkpt>
      <trkpt lat="40.694767031818628" lon="-2.589983018115163">
        <ele>795.66099999999994</ele>
        <time>2026-04-25T08:43:33Z</time>
      </trkpt>
      <trkpt lat="40.694730989634991" lon="-2.589971031993628">
        <ele>795.02700000000004</ele>
        <time>2026-04-25T08:43:34Z</time>
      </trkpt>
      <trkpt lat="40.694699976593256" lon="-2.589962985366583">
        <ele>795.40899999999999</ele>
        <time>2026-04-25T08:43:35Z</time>
      </trkpt>
      <trkpt lat="40.694668963551521" lon="-2.589959967881441">
        <ele>795.43899999999996</ele>
        <time>2026-04-25T08:43:36Z</time>
      </trkpt>
      <trkpt lat="40.694637028500438" lon="-2.589954016730189">
        <ele>795.87300000000005</ele>
        <time>2026-04-25T08:43:37Z</time>
      </trkpt>
      <trkpt lat="40.694607021287084" lon="-2.589949993416667">
        <ele>796.048</ele>
        <time>2026-04-25T08:43:38Z</time>
      </trkpt>
      <trkpt lat="40.694579025730491" lon="-2.589940018951893">
        <ele>796.298</ele>
        <time>2026-04-25T08:43:39Z</time>
      </trkpt>
      <trkpt lat="40.694552036002278" lon="-2.589933983981609">
        <ele>796.47400000000005</ele>
        <time>2026-04-25T08:43:40Z</time>
      </trkpt>
      <trkpt lat="40.694520017132163" lon="-2.589927027001977">
        <ele>796.65599999999995</ele>
        <time>2026-04-25T08:43:41Z</time>
      </trkpt>
      <trkpt lat="40.694489004090428" lon="-2.589924009516835">
        <ele>797.07500000000005</ele>
        <time>2026-04-25T08:43:42Z</time>
      </trkpt>
      <trkpt lat="40.694461008533835" lon="-2.589920992031694">
        <ele>797.096</ele>
        <time>2026-04-25T08:43:43Z</time>
      </trkpt>
      <trkpt lat="40.694442987442017" lon="-2.589915040880442">
        <ele>797.02099999999996</ele>
        <time>2026-04-25T08:43:44Z</time>
      </trkpt>
      <trkpt lat="40.694414991885424" lon="-2.589903976768255">
        <ele>797.625</ele>
        <time>2026-04-25T08:43:46Z</time>
      </trkpt>
      <trkpt lat="40.69438498467207" lon="-2.589899031445384">
        <ele>797.82600000000002</ele>
        <time>2026-04-25T08:43:48Z</time>
      </trkpt>
      <trkpt lat="40.694366963580251" lon="-2.58989199064672">
        <ele>798.20799999999997</ele>
        <time>2026-04-25T08:43:50Z</time>
      </trkpt>
      <trkpt lat="40.694340979680419" lon="-2.589887967333198">
        <ele>798.60900000000004</ele>
        <time>2026-04-25T08:43:52Z</time>
      </trkpt>
      <trkpt lat="40.694321030750871" lon="-2.589894002303481">
        <ele>799.25400000000002</ele>
        <time>2026-04-25T08:43:54Z</time>
      </trkpt>
      <trkpt lat="40.694292029365897" lon="-2.589895008131862">
        <ele>800.26800000000003</ele>
        <time>2026-04-25T08:43:56Z</time>
      </trkpt>
      <trkpt lat="40.694266967475414" lon="-2.589889978989959">
        <ele>800.45299999999997</ele>
        <time>2026-04-25T08:43:58Z</time>
      </trkpt>
      <trkpt lat="40.694242995232344" lon="-2.589886961504817">
        <ele>800.673</ele>
        <time>2026-04-25T08:44:00Z</time>
      </trkpt>
      <trkpt lat="40.694222040474415" lon="-2.589880004525185">
        <ele>801.09900000000005</ele>
        <time>2026-04-25T08:44:02Z</time>
      </trkpt>
      <trkpt lat="40.694197984412313" lon="-2.589862989261746">
        <ele>801.25099999999998</ele>
        <time>2026-04-25T08:44:04Z</time>
      </trkpt>
      <trkpt lat="40.694174012169242" lon="-2.58984899148345">
        <ele>801.67999999999995</ele>
        <time>2026-04-25T08:44:06Z</time>
      </trkpt>
      <trkpt lat="40.694146016612649" lon="-2.589837005361915">
        <ele>802.27099999999996</ele>
        <time>2026-04-25T08:44:08Z</time>
      </trkpt>
      <trkpt lat="40.694124978035688" lon="-2.589822001755238">
        <ele>802.62599999999998</ele>
        <time>2026-04-25T08:44:10Z</time>
      </trkpt>
      <trkpt lat="40.694102011620998" lon="-2.589803980663419">
        <ele>803.22799999999995</ele>
        <time>2026-04-25T08:44:12Z</time>
      </trkpt>
      <trkpt lat="40.694080973044038" lon="-2.589790988713503">
        <ele>803.68899999999996</ele>
        <time>2026-04-25T08:44:14Z</time>
      </trkpt>
      <trkpt lat="40.694065969437361" lon="-2.589777996763587">
        <ele>803.81700000000001</ele>
        <time>2026-04-25T08:44:16Z</time>
      </trkpt>
      <trkpt lat="40.694051971659064" lon="-2.589753018692136">
        <ele>804.20899999999995</ele>
        <time>2026-04-25T08:44:18Z</time>
      </trkpt>
      <trkpt lat="40.694034034386277" lon="-2.589726028963924">
        <ele>804.69399999999996</ele>
        <time>2026-04-25T08:44:20Z</time>
      </trkpt>
      <trkpt lat="40.694017019122839" lon="-2.589701972901821">
        <ele>805.23800000000006</ele>
        <time>2026-04-25T08:44:22Z</time>
      </trkpt>
      <trkpt lat="40.69399899803102" lon="-2.589671965688467">
        <ele>805.86300000000006</ele>
        <time>2026-04-25T08:44:24Z</time>
      </trkpt>
      <trkpt lat="40.693982988595963" lon="-2.589641958475113">
        <ele>806.27300000000002</ele>
        <time>2026-04-25T08:44:26Z</time>
      </trkpt>
      <trkpt lat="40.693972008302808" lon="-2.58961102925241">
        <ele>806.66899999999998</ele>
        <time>2026-04-25T08:44:28Z</time>
      </trkpt>
      <trkpt lat="40.693959016352892" lon="-2.589581022039056">
        <ele>807.02099999999996</ele>
        <time>2026-04-25T08:44:30Z</time>
      </trkpt>
      <trkpt lat="40.693944012746215" lon="-2.589551014825702">
        <ele>807.49000000000001</ele>
        <time>2026-04-25T08:44:32Z</time>
      </trkpt>
      <trkpt lat="40.69393202662468" lon="-2.589517990127206">
        <ele>808.09100000000001</ele>
        <time>2026-04-25T08:44:34Z</time>
      </trkpt>
      <trkpt lat="40.693919034674764" lon="-2.589488988742232">
        <ele>808.26599999999996</ele>
        <time>2026-04-25T08:44:36Z</time>
      </trkpt>
      <trkpt lat="40.693904031068087" lon="-2.589458981528878">
        <ele>808.85699999999997</ele>
        <time>2026-04-25T08:44:38Z</time>
      </trkpt>
      <trkpt lat="40.693887015804648" lon="-2.589426962658763">
        <ele>809.39999999999998</ele>
        <time>2026-04-25T08:44:40Z</time>
      </trkpt>
      <trkpt lat="40.693865977227688" lon="-2.589400978758931">
        <ele>809.82000000000005</ele>
        <time>2026-04-25T08:44:42Z</time>
      </trkpt>
      <trkpt lat="40.69384602829814" lon="-2.589372983202338">
        <ele>810.20899999999995</ele>
        <time>2026-04-25T08:44:44Z</time>
      </trkpt>
      <trkpt lat="40.693824989721179" lon="-2.589349010959268">
        <ele>810.66700000000003</ele>
        <time>2026-04-25T08:44:46Z</time>
      </trkpt>
      <trkpt lat="40.693801017478108" lon="-2.589326966553927">
        <ele>811.04100000000005</ele>
        <time>2026-04-25T08:44:48Z</time>
      </trkpt>
      <trkpt lat="40.693773021921515" lon="-2.589314980432391">
        <ele>811.28599999999994</ele>
        <time>2026-04-25T08:44:50Z</time>
      </trkpt>
      <trkpt lat="40.693742008879781" lon="-2.589309029281139">
        <ele>811.64599999999996</ele>
        <time>2026-04-25T08:44:52Z</time>
      </trkpt>
      <trkpt lat="40.693712001666427" lon="-2.589297965168953">
        <ele>811.84199999999998</ele>
        <time>2026-04-25T08:44:54Z</time>
      </trkpt>
      <trkpt lat="40.693686017766595" lon="-2.589287990704179">
        <ele>812.06399999999996</ele>
        <time>2026-04-25T08:44:56Z</time>
      </trkpt>
      <trkpt lat="40.69365399889648" lon="-2.589284973219037">
        <ele>812.44299999999998</ele>
        <time>2026-04-25T08:44:58Z</time>
      </trkpt>
      <trkpt lat="40.693621980026364" lon="-2.589283967390657">
        <ele>812.64400000000001</ele>
        <time>2026-04-25T08:45:00Z</time>
      </trkpt>
      <trkpt lat="40.69359197281301" lon="-2.589282961562276">
        <ele>813.04899999999998</ele>
        <time>2026-04-25T08:45:02Z</time>
      </trkpt>
      <trkpt lat="40.693559031933546" lon="-2.589285979047418">
        <ele>813.46799999999996</ele>
        <time>2026-04-25T08:45:04Z</time>
      </trkpt>
      <trkpt lat="40.693528018891811" lon="-2.589295031502843">
        <ele>813.64200000000005</ele>
        <time>2026-04-25T08:45:06Z</time>
      </trkpt>
      <trkpt lat="40.693496000021696" lon="-2.589302994310856">
        <ele>813.82600000000002</ele>
        <time>2026-04-25T08:45:08Z</time>
      </trkpt>
      <trkpt lat="40.693465992808342" lon="-2.589311040937901">
        <ele>814.20899999999995</ele>
        <time>2026-04-25T08:45:10Z</time>
      </trkpt>
      <trkpt lat="40.693435985594988" lon="-2.589321015402675">
        <ele>814.44799999999998</ele>
        <time>2026-04-25T08:45:12Z</time>
      </trkpt>
      <trkpt lat="40.693406984210014" lon="-2.589325038716197">
        <ele>814.69200000000001</ele>
        <time>2026-04-25T08:45:14Z</time>
      </trkpt>
      <trkpt lat="40.693372031673789" lon="-2.589331995695829">
        <ele>815.01700000000005</ele>
        <time>2026-04-25T08:45:16Z</time>
      </trkpt>
      <trkpt lat="40.69335401058197" lon="-2.589335013180971">
        <ele>814.84699999999998</ele>
        <time>2026-04-25T08:45:17Z</time>
      </trkpt>
      <trkpt lat="40.693324003368616" lon="-2.589341970160604">
        <ele>815.07299999999998</ele>
        <time>2026-04-25T08:45:19Z</time>
      </trkpt>
      <trkpt lat="40.693299025297165" lon="-2.589348005130887">
        <ele>815.48500000000001</ele>
        <time>2026-04-25T08:45:21Z</time>
      </trkpt>
      <trkpt lat="40.69326801225543" lon="-2.589354040101171">
        <ele>815.49400000000003</ele>
        <time>2026-04-25T08:45:23Z</time>
      </trkpt>
      <trkpt lat="40.693234987556934" lon="-2.589360997080803">
        <ele>815.69500000000005</ele>
        <time>2026-04-25T08:45:25Z</time>
      </trkpt>
      <trkpt lat="40.693201962858438" lon="-2.589363008737564">
        <ele>815.88999999999999</ele>
        <time>2026-04-25T08:45:27Z</time>
      </trkpt>
      <trkpt lat="40.693172961473465" lon="-2.589365020394325">
        <ele>816.07899999999995</ele>
        <time>2026-04-25T08:45:29Z</time>
      </trkpt>
      <trkpt lat="40.693143960088491" lon="-2.589371977373958">
        <ele>816.20500000000004</ele>
        <time>2026-04-25T08:45:31Z</time>
      </trkpt>
      <trkpt lat="40.693113030865788" lon="-2.589380024001002">
        <ele>816.625</ele>
        <time>2026-04-25T08:45:33Z</time>
      </trkpt>
      <trkpt lat="40.693086041137576" lon="-2.589383963495493">
        <ele>816.80899999999997</ele>
        <time>2026-04-25T08:45:35Z</time>
      </trkpt>
      <trkpt lat="40.693062990903854" lon="-2.589379018172622">
        <ele>817.29899999999998</ele>
        <time>2026-04-25T08:45:37Z</time>
      </trkpt>
      <trkpt lat="40.693045975640416" lon="-2.589373989030719">
        <ele>817.21299999999997</ele>
        <time>2026-04-25T08:45:38Z</time>
      </trkpt>
      <trkpt lat="40.693012028932571" lon="-2.589371977373958">
        <ele>817.03800000000001</ele>
        <time>2026-04-25T08:45:40Z</time>
      </trkpt>
      <trkpt lat="40.692986967042089" lon="-2.589378012344241">
        <ele>817.07799999999997</ele>
        <time>2026-04-25T08:45:41Z</time>
      </trkpt>
      <trkpt lat="40.692958971485496" lon="-2.589381029829383">
        <ele>817.23400000000004</ele>
        <time>2026-04-25T08:45:42Z</time>
      </trkpt>
      <trkpt lat="40.692927958443761" lon="-2.589383041486144">
        <ele>817.25599999999997</ele>
        <time>2026-04-25T08:45:43Z</time>
      </trkpt>
      <trkpt lat="40.692896023392677" lon="-2.589386980980635">
        <ele>817.06500000000005</ele>
        <time>2026-04-25T08:45:44Z</time>
      </trkpt>
      <trkpt lat="40.692861992865801" lon="-2.589392010122538">
        <ele>817.64599999999996</ele>
        <time>2026-04-25T08:45:45Z</time>
      </trkpt>
      <trkpt lat="40.692829973995686" lon="-2.589397039264441">
        <ele>817.62099999999998</ele>
        <time>2026-04-25T08:45:46Z</time>
      </trkpt>
      <trkpt lat="40.692798960953951" lon="-2.589397039264441">
        <ele>817.827</ele>
        <time>2026-04-25T08:45:47Z</time>
      </trkpt>
      <trkpt lat="40.692767025902867" lon="-2.589401984587312">
        <ele>818.06799999999998</ele>
        <time>2026-04-25T08:45:48Z</time>
      </trkpt>
      <trkpt lat="40.692735007032752" lon="-2.589406007900834">
        <ele>818.01400000000001</ele>
        <time>2026-04-25T08:45:49Z</time>
      </trkpt>
      <trkpt lat="40.692703993991017" lon="-2.589411037042737">
        <ele>818.40899999999999</ele>
        <time>2026-04-25T08:45:50Z</time>
      </trkpt>
      <trkpt lat="40.692671975120902" lon="-2.589411959052086">
        <ele>818.45399999999995</ele>
        <time>2026-04-25T08:45:51Z</time>
      </trkpt>
      <trkpt lat="40.692641967907548" lon="-2.589412964880467">
        <ele>818.64800000000002</ele>
        <time>2026-04-25T08:45:52Z</time>
      </trkpt>
      <trkpt lat="40.692611960694194" lon="-2.589422017335892">
        <ele>818.82299999999998</ele>
        <time>2026-04-25T08:45:53Z</time>
      </trkpt>
      <trkpt lat="40.692583965137601" lon="-2.589426962658763">
        <ele>818.83299999999997</ele>
        <time>2026-04-25T08:45:54Z</time>
      </trkpt>
      <trkpt lat="40.692554963752627" lon="-2.589432997629046">
        <ele>819.25900000000001</ele>
        <time>2026-04-25T08:45:55Z</time>
      </trkpt>
      <trkpt lat="40.692526968196034" lon="-2.589440038427711">
        <ele>819.05100000000004</ele>
        <time>2026-04-25T08:45:56Z</time>
      </trkpt>
      <trkpt lat="40.692498972639441" lon="-2.58944196626544">
        <ele>818.65999999999997</ele>
        <time>2026-04-25T08:45:57Z</time>
      </trkpt>
      <trkpt lat="40.692470977082849" lon="-2.589449007064104">
        <ele>819.27099999999996</ele>
        <time>2026-04-25T08:45:58Z</time>
      </trkpt>
      <trkpt lat="40.692443987354636" lon="-2.589452024549246">
        <ele>819.29600000000005</ele>
        <time>2026-04-25T08:45:59Z</time>
      </trkpt>
      <trkpt lat="40.692418003454804" lon="-2.589458981528878">
        <ele>819.65800000000002</ele>
        <time>2026-04-25T08:46:00Z</time>
      </trkpt>
      <trkpt lat="40.692390007898211" lon="-2.589469961822033">
        <ele>819.452</ele>
        <time>2026-04-25T08:46:01Z</time>
      </trkpt>
      <trkpt lat="40.69236502982676" lon="-2.589481025934219">
        <ele>819.41700000000003</ele>
        <time>2026-04-25T08:46:02Z</time>
      </trkpt>
      <trkpt lat="40.692338040098548" lon="-2.589492006227374">
        <ele>820.00900000000001</ele>
        <time>2026-04-25T08:46:03Z</time>
      </trkpt>
      <trkpt lat="40.692312978208065" lon="-2.589500974863768">
        <ele>820.43700000000001</ele>
        <time>2026-04-25T08:46:04Z</time>
      </trkpt>
      <trkpt lat="40.692292023450136" lon="-2.589511033147574">
        <ele>820.41099999999994</ele>
        <time>2026-04-25T08:46:05Z</time>
      </trkpt>
      <trkpt lat="40.692263022065163" lon="-2.589524025097489">
        <ele>821.24599999999998</ele>
        <time>2026-04-25T08:46:06Z</time>
      </trkpt>
      <trkpt lat="40.692240977659822" lon="-2.589536011219025">
        <ele>821.29600000000005</ele>
        <time>2026-04-25T08:46:07Z</time>
      </trkpt>
      <trkpt lat="40.692218011245131" lon="-2.589546991512179">
        <ele>821.61199999999997</ele>
        <time>2026-04-25T08:46:08Z</time>
      </trkpt>
      <trkpt lat="40.69219596683979" lon="-2.589554032310844">
        <ele>821.69399999999996</ele>
        <time>2026-04-25T08:46:09Z</time>
      </trkpt>
      <trkpt lat="40.692175012081861" lon="-2.589564006775618">
        <ele>821.88300000000004</ele>
        <time>2026-04-25T08:46:10Z</time>
      </trkpt>
      <trkpt lat="40.692153973504901" lon="-2.589573981240392">
        <ele>822.43399999999997</ele>
        <time>2026-04-25T08:46:11Z</time>
      </trkpt>
      <trkpt lat="40.692136958241463" lon="-2.589582027867436">
        <ele>822.84900000000005</ele>
        <time>2026-04-25T08:46:12Z</time>
      </trkpt>
      <trkpt lat="40.692110974341631" lon="-2.589583033695817">
        <ele>822.83500000000004</ele>
        <time>2026-04-25T08:46:14Z</time>
      </trkpt>
      <trkpt lat="40.692093037068844" lon="-2.589584961533546">
        <ele>823.28599999999994</ele>
        <time>2026-04-25T08:46:15Z</time>
      </trkpt>
      <trkpt lat="40.692070992663503" lon="-2.589586973190308">
        <ele>823.41399999999999</ele>
        <time>2026-04-25T08:46:16Z</time>
      </trkpt>
      <trkpt lat="40.692049032077193" lon="-2.58959099650383">
        <ele>823.80899999999997</ele>
        <time>2026-04-25T08:46:17Z</time>
      </trkpt>
      <trkpt lat="40.69202397018671" lon="-2.589586973190308">
        <ele>823.82500000000005</ele>
        <time>2026-04-25T08:46:18Z</time>
      </trkpt>
      <trkpt lat="40.69199999794364" lon="-2.589584039524198">
        <ele>824.25900000000001</ele>
        <time>2026-04-25T08:46:19Z</time>
      </trkpt>
      <trkpt lat="40.691976025700569" lon="-2.589584039524198">
        <ele>824.64400000000001</ele>
        <time>2026-04-25T08:46:20Z</time>
      </trkpt>
      <trkpt lat="40.69195699878037" lon="-2.589575992897153">
        <ele>825.06399999999996</ele>
        <time>2026-04-25T08:46:21Z</time>
      </trkpt>
      <trkpt lat="40.69193696603179" lon="-2.589561995118856">
        <ele>825.42999999999995</ele>
        <time>2026-04-25T08:46:22Z</time>
      </trkpt>
      <trkpt lat="40.691917017102242" lon="-2.589546991512179">
        <ele>825.89200000000005</ele>
        <time>2026-04-25T08:46:23Z</time>
      </trkpt>
      <trkpt lat="40.69189103320241" lon="-2.589531987905502">
        <ele>826.04100000000005</ele>
        <time>2026-04-25T08:46:24Z</time>
      </trkpt>
      <trkpt lat="40.691838981583714" lon="-2.589465016499162">
        <ele>826.43200000000002</ele>
        <time>2026-04-25T08:46:27Z</time>
      </trkpt>
      <trkpt lat="40.691819032654166" lon="-2.589440038427711">
        <ele>827.06700000000001</ele>
        <time>2026-04-25T08:46:28Z</time>
      </trkpt>
      <trkpt lat="40.691796988248825" lon="-2.589415982365608">
        <ele>827.096</ele>
        <time>2026-04-25T08:46:29Z</time>
      </trkpt>
      <trkpt lat="40.691778967157006" lon="-2.589395027607679">
        <ele>827.23099999999999</ele>
        <time>2026-04-25T08:46:30Z</time>
      </trkpt>
      <trkpt lat="40.691756000742316" lon="-2.589368959888816">
        <ele>827.62400000000002</ele>
        <time>2026-04-25T08:46:31Z</time>
      </trkpt>
      <trkpt lat="40.691734040156007" lon="-2.589348005130887">
        <ele>827.40899999999999</ele>
        <time>2026-04-25T08:46:32Z</time>
      </trkpt>
      <trkpt lat="40.691715013235807" lon="-2.589326966553927">
        <ele>827.86099999999999</ele>
        <time>2026-04-25T08:46:33Z</time>
      </trkpt>
      <trkpt lat="40.691694980487227" lon="-2.589300982654095">
        <ele>828.09500000000003</ele>
        <time>2026-04-25T08:46:34Z</time>
      </trkpt>
      <trkpt lat="40.691671008244157" lon="-2.589270975440741">
        <ele>828.00999999999999</ele>
        <time>2026-04-25T08:46:35Z</time>
      </trkpt>
      <trkpt lat="40.691646030172706" lon="-2.589243985712528">
        <ele>828.46000000000004</ele>
        <time>2026-04-25T08:46:36Z</time>
      </trkpt>
      <trkpt lat="40.691561037674546" lon="-2.589171985164285">
        <ele>828.45600000000002</ele>
        <time>2026-04-25T08:46:40Z</time>
      </trkpt>
      <trkpt lat="40.691460035741329" lon="-2.58911800570786">
        <ele>828.06799999999998</ele>
        <time>2026-04-25T08:46:44Z</time>
      </trkpt>
      <trkpt lat="40.691380994394422" lon="-2.589070983231068">
        <ele>828.25699999999995</ele>
        <time>2026-04-25T08:46:48Z</time>
      </trkpt>
      <trkpt lat="40.691359033808112" lon="-2.589047010987997">
        <ele>828.428</ele>
        <time>2026-04-25T08:46:50Z</time>
      </trkpt>
      <trkpt lat="40.691345036029816" lon="-2.589020021259785">
        <ele>828.43299999999999</ele>
        <time>2026-04-25T08:46:52Z</time>
      </trkpt>
      <trkpt lat="40.691319974139333" lon="-2.588994037359953">
        <ele>828.22900000000004</ele>
        <time>2026-04-25T08:46:54Z</time>
      </trkpt>
      <trkpt lat="40.691289966925979" lon="-2.588980961591005">
        <ele>828</ele>
        <time>2026-04-25T08:46:56Z</time>
      </trkpt>
      <trkpt lat="40.69126901216805" lon="-2.588965035974979">
        <ele>828.22000000000003</ele>
        <time>2026-04-25T08:46:58Z</time>
      </trkpt>
      <trkpt lat="40.69124998524785" lon="-2.588963024318218">
        <ele>828.40899999999999</ele>
        <time>2026-04-25T08:46:59Z</time>
      </trkpt>
      <trkpt lat="40.691228024661541" lon="-2.588957995176315">
        <ele>828.41399999999999</ele>
        <time>2026-04-25T08:47:00Z</time>
      </trkpt>
      <trkpt lat="40.6912059802562" lon="-2.588947014883161">
        <ele>828.48800000000006</ele>
        <time>2026-04-25T08:47:01Z</time>
      </trkpt>
      <trkpt lat="40.691186031326652" lon="-2.588932011276484">
        <ele>828.83299999999997</ele>
        <time>2026-04-25T08:47:02Z</time>
      </trkpt>
      <trkpt lat="40.69116398692131" lon="-2.588917007669807">
        <ele>828.86300000000006</ele>
        <time>2026-04-25T08:47:03Z</time>
      </trkpt>
      <trkpt lat="40.691135991364717" lon="-2.588908039033413">
        <ele>828.44899999999996</ele>
        <time>2026-04-25T08:47:04Z</time>
      </trkpt>
      <trkpt lat="40.691109001636505" lon="-2.588893035426736">
        <ele>828.83100000000002</ele>
        <time>2026-04-25T08:47:05Z</time>
      </trkpt>
      <trkpt lat="40.691087041050196" lon="-2.588881971314549">
        <ele>828.85000000000002</ele>
        <time>2026-04-25T08:47:06Z</time>
      </trkpt>
      <trkpt lat="40.691067008301616" lon="-2.588865039870143">
        <ele>829.41099999999994</ele>
        <time>2026-04-25T08:47:07Z</time>
      </trkpt>
      <trkpt lat="40.691047981381416" lon="-2.588845007121563">
        <ele>829.846</ele>
        <time>2026-04-25T08:47:08Z</time>
      </trkpt>
      <trkpt lat="40.691027026623487" lon="-2.588822962716222">
        <ele>829.85599999999999</ele>
        <time>2026-04-25T08:47:09Z</time>
      </trkpt>
      <trkpt lat="40.691007999703288" lon="-2.58879697881639">
        <ele>830.45899999999995</ele>
        <time>2026-04-25T08:47:10Z</time>
      </trkpt>
      <trkpt lat="40.69099199026823" lon="-2.588764959946275">
        <ele>830.41399999999999</ele>
        <time>2026-04-25T08:47:11Z</time>
      </trkpt>
      <trkpt lat="40.690975980833173" lon="-2.588734030723572">
        <ele>830.00900000000001</ele>
        <time>2026-04-25T08:47:12Z</time>
      </trkpt>
      <trkpt lat="40.690960977226496" lon="-2.588703017681837">
        <ele>830.49699999999996</ele>
        <time>2026-04-25T08:47:13Z</time>
      </trkpt>
      <trkpt lat="40.69094798527658" lon="-2.588672004640102">
        <ele>830.64099999999996</ele>
        <time>2026-04-25T08:47:14Z</time>
      </trkpt>
      <trkpt lat="40.690939016640186" lon="-2.588644009083509">
        <ele>830.29600000000005</ele>
        <time>2026-04-25T08:47:15Z</time>
      </trkpt>
      <trkpt lat="40.69092602469027" lon="-2.588618025183678">
        <ele>830.86599999999999</ele>
        <time>2026-04-25T08:47:16Z</time>
      </trkpt>
      <trkpt lat="40.69090599194169" lon="-2.588592963293195">
        <ele>831.09199999999998</ele>
        <time>2026-04-25T08:47:17Z</time>
      </trkpt>
      <trkpt lat="40.69088595919311" lon="-2.588571002706885">
        <ele>831.08399999999995</ele>
        <time>2026-04-25T08:47:18Z</time>
      </trkpt>
      <trkpt lat="40.69086299277842" lon="-2.588552981615067">
        <ele>831.65300000000002</ele>
        <time>2026-04-25T08:47:19Z</time>
      </trkpt>
      <trkpt lat="40.69084296002984" lon="-2.588542001321912">
        <ele>831.87400000000002</ele>
        <time>2026-04-25T08:47:20Z</time>
      </trkpt>
      <trkpt lat="40.690820999443531" lon="-2.588524986058474">
        <ele>832.26900000000001</ele>
        <time>2026-04-25T08:47:21Z</time>
      </trkpt>
      <trkpt lat="40.69079602137208" lon="-2.588510988280177">
        <ele>832.65599999999995</ele>
        <time>2026-04-25T08:47:22Z</time>
      </trkpt>
      <trkpt lat="40.690773976966739" lon="-2.588501013815403">
        <ele>832.65899999999999</ele>
        <time>2026-04-25T08:47:23Z</time>
      </trkpt>
      <trkpt lat="40.690755033865571" lon="-2.588488021865487">
        <ele>832.61400000000003</ele>
        <time>2026-04-25T08:47:24Z</time>
      </trkpt>
      <trkpt lat="40.690735001116991" lon="-2.588477041572332">
        <ele>833.00900000000001</ele>
        <time>2026-04-25T08:47:25Z</time>
      </trkpt>
      <trkpt lat="40.690714968368411" lon="-2.588458014652133">
        <ele>833.04700000000003</ele>
        <time>2026-04-25T08:47:26Z</time>
      </trkpt>
      <trkpt lat="40.690696025267243" lon="-2.588445022702217">
        <ele>833.45100000000002</ele>
        <time>2026-04-25T08:47:27Z</time>
      </trkpt>
      <trkpt lat="40.690682027488947" lon="-2.588422978296876">
        <ele>833.81600000000003</ele>
        <time>2026-04-25T08:47:28Z</time>
      </trkpt>
      <trkpt lat="40.690657971426845" lon="-2.588389031589031">
        <ele>833.86599999999999</ele>
        <time>2026-04-25T08:47:30Z</time>
      </trkpt>
      <trkpt lat="40.690642967820168" lon="-2.588360030204058">
        <ele>834.06200000000001</ele>
        <time>2026-04-25T08:47:32Z</time>
      </trkpt>
      <trkpt lat="40.690633999183774" lon="-2.58832298219204">
        <ele>834.47400000000005</ele>
        <time>2026-04-25T08:47:34Z</time>
      </trkpt>
      <trkpt lat="40.690623018890619" lon="-2.588291969150305">
        <ele>834.81299999999999</ele>
        <time>2026-04-25T08:47:36Z</time>
      </trkpt>
      <trkpt lat="40.690612038597465" lon="-2.588256010785699">
        <ele>835.08399999999995</ele>
        <time>2026-04-25T08:47:38Z</time>
      </trkpt>
      <trkpt lat="40.690610026940703" lon="-2.588221980258822">
        <ele>835.29899999999998</ele>
        <time>2026-04-25T08:47:40Z</time>
      </trkpt>
      <trkpt lat="40.690599968656898" lon="-2.588191973045468">
        <ele>835.87400000000002</ele>
        <time>2026-04-25T08:47:42Z</time>
      </trkpt>
      <trkpt lat="40.69058395922184" lon="-2.588161965832114">
        <ele>835.65599999999995</ele>
        <time>2026-04-25T08:47:44Z</time>
      </trkpt>
      <trkpt lat="40.690558981150389" lon="-2.58812801912427">
        <ele>836.221</ele>
        <time>2026-04-25T08:47:46Z</time>
      </trkpt>
      <trkpt lat="40.690534003078938" lon="-2.588098011910915">
        <ele>836.80899999999997</ele>
        <time>2026-04-25T08:47:48Z</time>
      </trkpt>
      <trkpt lat="40.690513970330358" lon="-2.588072028011084">
        <ele>837.22900000000004</ele>
        <time>2026-04-25T08:47:50Z</time>
      </trkpt>
      <trkpt lat="40.69049502722919" lon="-2.588045038282871">
        <ele>837.49300000000005</ele>
        <time>2026-04-25T08:47:52Z</time>
      </trkpt>
      <trkpt lat="40.69047499448061" lon="-2.588017964735627">
        <ele>837.45799999999997</ele>
        <time>2026-04-25T08:47:54Z</time>
      </trkpt>
      <trkpt lat="40.6904530338943" lon="-2.587988041341305">
        <ele>837.69799999999998</ele>
        <time>2026-04-25T08:47:56Z</time>
      </trkpt>
      <trkpt lat="40.690439036116004" lon="-2.587959039956331">
        <ele>837.82399999999996</ele>
        <time>2026-04-25T08:47:58Z</time>
      </trkpt>
      <trkpt lat="40.690423026680946" lon="-2.587929032742977">
        <ele>838.24599999999998</ele>
        <time>2026-04-25T08:48:00Z</time>
      </trkpt>
      <trkpt lat="40.690411040559411" lon="-2.587905982509255">
        <ele>838.45500000000004</ele>
        <time>2026-04-25T08:48:02Z</time>
      </trkpt>
      <trkpt lat="40.690391007810831" lon="-2.587883016094565">
        <ele>838.66600000000005</ele>
        <time>2026-04-25T08:48:04Z</time>
      </trkpt>
      <trkpt lat="40.690368041396141" lon="-2.587861977517605">
        <ele>838.88099999999997</ele>
        <time>2026-04-25T08:48:06Z</time>
      </trkpt>
      <trkpt lat="40.6903459969908" lon="-2.587839011102915">
        <ele>839.42200000000003</ele>
        <time>2026-04-25T08:48:08Z</time>
      </trkpt>
      <trkpt lat="40.690324958413839" lon="-2.587812021374703">
        <ele>839.86199999999997</ele>
        <time>2026-04-25T08:48:10Z</time>
      </trkpt>
      <trkpt lat="40.69030400365591" lon="-2.58778402581811">
        <ele>840.20799999999997</ele>
        <time>2026-04-25T08:48:12Z</time>
      </trkpt>
      <trkpt lat="40.69028103724122" lon="-2.587753012776375">
        <ele>840.40899999999999</ele>
        <time>2026-04-25T08:48:14Z</time>
      </trkpt>
      <trkpt lat="40.69025999866426" lon="-2.587724011391401">
        <ele>840.67399999999998</ele>
        <time>2026-04-25T08:48:16Z</time>
      </trkpt>
      <trkpt lat="40.69023803807795" lon="-2.587696015834808">
        <ele>841.01800000000003</ele>
        <time>2026-04-25T08:48:18Z</time>
      </trkpt>
      <trkpt lat="40.690213982015848" lon="-2.587681012228131">
        <ele>841.24300000000005</ele>
        <time>2026-04-25T08:48:20Z</time>
      </trkpt>
      <trkpt lat="40.690191015601158" lon="-2.587667014449835">
        <ele>841.64300000000003</ele>
        <time>2026-04-25T08:48:22Z</time>
      </trkpt>
      <trkpt lat="40.690165031701326" lon="-2.587647987529635">
        <ele>842.07899999999995</ele>
        <time>2026-04-25T08:48:24Z</time>
      </trkpt>
      <trkpt lat="40.690146004781127" lon="-2.587622003629804">
        <ele>842.64099999999996</ele>
        <time>2026-04-25T08:48:26Z</time>
      </trkpt>
      <trkpt lat="40.690136030316353" lon="-2.587589984759688">
        <ele>842.41999999999996</ele>
        <time>2026-04-25T08:48:28Z</time>
      </trkpt>
      <trkpt lat="40.690125972032547" lon="-2.587556960061193">
        <ele>842.84100000000001</ele>
        <time>2026-04-25T08:48:30Z</time>
      </trkpt>
      <trkpt lat="40.690112980082631" lon="-2.587524019181728">
        <ele>843.25599999999997</ele>
        <time>2026-04-25T08:48:32Z</time>
      </trkpt>
      <trkpt lat="40.690097976475954" lon="-2.587490994483233">
        <ele>843.47400000000005</ele>
        <time>2026-04-25T08:48:34Z</time>
      </trkpt>
      <trkpt lat="40.690077021718025" lon="-2.587461993098259">
        <ele>843.85599999999999</ele>
        <time>2026-04-25T08:48:36Z</time>
      </trkpt>
      <trkpt lat="40.690061012282968" lon="-2.587435003370047">
        <ele>844.221</ele>
        <time>2026-04-25T08:48:38Z</time>
      </trkpt>
      <trkpt lat="40.690046008676291" lon="-2.587407007813454">
        <ele>844.60900000000004</ele>
        <time>2026-04-25T08:48:40Z</time>
      </trkpt>
      <trkpt lat="40.690029999241233" lon="-2.587384041398764">
        <ele>845.01900000000001</ele>
        <time>2026-04-25T08:48:42Z</time>
      </trkpt>
      <trkpt lat="40.690014995634556" lon="-2.587355962023139">
        <ele>845.48299999999995</ele>
        <time>2026-04-25T08:48:44Z</time>
      </trkpt>
      <trkpt lat="40.690005021169782" lon="-2.587325032800436">
        <ele>845.65800000000002</ele>
        <time>2026-04-25T08:48:46Z</time>
      </trkpt>
      <trkpt lat="40.689985994249582" lon="-2.587289996445179">
        <ele>846.02800000000002</ele>
        <time>2026-04-25T08:48:48Z</time>
      </trkpt>
      <trkpt lat="40.689975013956428" lon="-2.587257977575064">
        <ele>846.41399999999999</ele>
        <time>2026-04-25T08:48:50Z</time>
      </trkpt>
      <trkpt lat="40.689963027834892" lon="-2.587221013382077">
        <ele>846.86599999999999</ele>
        <time>2026-04-25T08:48:52Z</time>
      </trkpt>
      <trkpt lat="40.689950035884976" lon="-2.587193017825484">
        <ele>847.04499999999996</ele>
        <time>2026-04-25T08:48:54Z</time>
      </trkpt>
      <trkpt lat="40.689935032278299" lon="-2.587159993126988">
        <ele>847.43600000000004</ele>
        <time>2026-04-25T08:48:56Z</time>
      </trkpt>
      <trkpt lat="40.689922040328383" lon="-2.587128980085254">
        <ele>848.01099999999997</ele>
        <time>2026-04-25T08:48:58Z</time>
      </trkpt>
      <trkpt lat="40.689901001751423" lon="-2.587100984528661">
        <ele>848.476</ele>
        <time>2026-04-25T08:49:00Z</time>
      </trkpt>
      <trkpt lat="40.689881974831223" lon="-2.587084975093603">
        <ele>848.88999999999999</ele>
        <time>2026-04-25T08:49:02Z</time>
      </trkpt>
      <trkpt lat="40.689864959567785" lon="-2.587069971486926">
        <ele>849.41899999999998</ele>
        <time>2026-04-25T08:49:04Z</time>
      </trkpt>
      <trkpt lat="40.689846016466618" lon="-2.587050022557378">
        <ele>850.00900000000001</ele>
        <time>2026-04-25T08:49:07Z</time>
      </trkpt>
      <trkpt lat="40.689826989546418" lon="-2.587030995637178">
        <ele>850.63900000000001</ele>
        <time>2026-04-25T08:49:09Z</time>
      </trkpt>
      <trkpt lat="40.68980997428298" lon="-2.587007023394108">
        <ele>850.84299999999996</ele>
        <time>2026-04-25T08:49:11Z</time>
      </trkpt>
      <trkpt lat="40.689794970676303" lon="-2.586977016180754">
        <ele>851.678</ele>
        <time>2026-04-25T08:49:13Z</time>
      </trkpt>
      <trkpt lat="40.689782984554768" lon="-2.586951032280922">
        <ele>852.06799999999998</ele>
        <time>2026-04-25T08:49:15Z</time>
      </trkpt>
      <trkpt lat="40.689764963462949" lon="-2.586920019239187">
        <ele>852.46400000000006</ele>
        <time>2026-04-25T08:49:17Z</time>
      </trkpt>
      <trkpt lat="40.689749959856272" lon="-2.586897974833846">
        <ele>853.06600000000003</ele>
        <time>2026-04-25T08:49:19Z</time>
      </trkpt>
      <trkpt lat="40.689738979563117" lon="-2.586869979277253">
        <ele>853.42499999999995</ele>
        <time>2026-04-25T08:49:21Z</time>
      </trkpt>
      <trkpt lat="40.689717018976808" lon="-2.586839972063899">
        <ele>854.05600000000004</ele>
        <time>2026-04-25T08:49:23Z</time>
      </trkpt>
      <trkpt lat="40.689696986228228" lon="-2.586808037012816">
        <ele>854.221</ele>
        <time>2026-04-25T08:49:25Z</time>
      </trkpt>
      <trkpt lat="40.689677037298679" lon="-2.586773000657558">
        <ele>854.89800000000002</ele>
        <time>2026-04-25T08:49:27Z</time>
      </trkpt>
      <trkpt lat="40.689652981236577" lon="-2.586740981787443">
        <ele>855.01499999999999</ele>
        <time>2026-04-25T08:49:29Z</time>
      </trkpt>
      <trkpt lat="40.689632026478648" lon="-2.586722038686276">
        <ele>855.02599999999995</ele>
        <time>2026-04-25T08:49:31Z</time>
      </trkpt>
      <trkpt lat="40.689605958759785" lon="-2.586697982624173">
        <ele>855.40899999999999</ele>
        <time>2026-04-25T08:49:33Z</time>
      </trkpt>
      <trkpt lat="40.689590033143759" lon="-2.586676022037864">
        <ele>855.68100000000004</ele>
        <time>2026-04-25T08:49:35Z</time>
      </trkpt>
      <trkpt lat="40.689562959596515" lon="-2.58664702065289">
        <ele>856.21500000000003</ele>
        <time>2026-04-25T08:49:37Z</time>
      </trkpt>
      <trkpt lat="40.689543010666966" lon="-2.586633022874594">
        <ele>856.44000000000005</ele>
        <time>2026-04-25T08:49:39Z</time>
      </trkpt>
      <trkpt lat="40.689519038423896" lon="-2.586628999561071">
        <ele>856.25</ele>
        <time>2026-04-25T08:49:41Z</time>
      </trkpt>
      <trkpt lat="40.689489031210542" lon="-2.586620030924678">
        <ele>856.42600000000004</ele>
        <time>2026-04-25T08:49:43Z</time>
      </trkpt>
      <trkpt lat="40.689450977370143" lon="-2.586601004004479">
        <ele>856.68799999999999</ele>
        <time>2026-04-25T08:49:45Z</time>
      </trkpt>
      <trkpt lat="40.689424993470311" lon="-2.586593963205814">
        <ele>856.84699999999998</ele>
        <time>2026-04-25T08:49:46Z</time>
      </trkpt>
      <trkpt lat="40.689401021227241" lon="-2.586592035368085">
        <ele>856.81799999999998</ele>
        <time>2026-04-25T08:49:47Z</time>
      </trkpt>
      <trkpt lat="40.68937998265028" lon="-2.586590023711324">
        <ele>857.053</ele>
        <time>2026-04-25T08:49:48Z</time>
      </trkpt>
      <trkpt lat="40.689355004578829" lon="-2.586587006226182">
        <ele>857.48500000000001</ele>
        <time>2026-04-25T08:49:49Z</time>
      </trkpt>
      <trkpt lat="40.689331032335758" lon="-2.586578037589788">
        <ele>857.28899999999999</ele>
        <time>2026-04-25T08:49:50Z</time>
      </trkpt>
      <trkpt lat="40.689303036779165" lon="-2.586566973477602">
        <ele>857.41700000000003</ele>
        <time>2026-04-25T08:49:51Z</time>
      </trkpt>
      <trkpt lat="40.689276969060302" lon="-2.586553981527686">
        <ele>857.20899999999995</ele>
        <time>2026-04-25T08:49:52Z</time>
      </trkpt>
      <trkpt lat="40.689249979332089" lon="-2.586546018719673">
        <ele>857.23000000000002</ele>
        <time>2026-04-25T08:49:53Z</time>
      </trkpt>
      <trkpt lat="40.689221983775496" lon="-2.586537972092629">
        <ele>857.43399999999997</ele>
        <time>2026-04-25T08:49:54Z</time>
      </trkpt>
      <trkpt lat="40.689191976562142" lon="-2.586534032598138">
        <ele>857.279</ele>
        <time>2026-04-25T08:49:55Z</time>
      </trkpt>
      <trkpt lat="40.689163981005549" lon="-2.586531015112996">
        <ele>857.48900000000003</ele>
        <time>2026-04-25T08:49:56Z</time>
      </trkpt>
      <trkpt lat="40.689132967963815" lon="-2.586529003456235">
        <ele>857.625</ele>
        <time>2026-04-25T08:49:57Z</time>
      </trkpt>
      <trkpt lat="40.689104972407222" lon="-2.586521040648222">
        <ele>857.447</ele>
        <time>2026-04-25T08:49:58Z</time>
      </trkpt>
      <trkpt lat="40.689076976850629" lon="-2.586515005677939">
        <ele>857.63599999999997</ele>
        <time>2026-04-25T08:49:59Z</time>
      </trkpt>
      <trkpt lat="40.689050992950797" lon="-2.586500002071261">
        <ele>857.46699999999998</ele>
        <time>2026-04-25T08:50:00Z</time>
      </trkpt>
      <trkpt lat="40.689029032364488" lon="-2.586478963494301">
        <ele>857.69200000000001</ele>
        <time>2026-04-25T08:50:01Z</time>
      </trkpt>
      <trkpt lat="40.689001036807895" lon="-2.586460020393133">
        <ele>857.41600000000005</ele>
        <time>2026-04-25T08:50:02Z</time>
      </trkpt>
      <trkpt lat="40.688967006281018" lon="-2.586437975987792">
        <ele>857.27599999999995</ele>
        <time>2026-04-25T08:50:03Z</time>
      </trkpt>
      <trkpt lat="40.688938004896045" lon="-2.586416015401483">
        <ele>857.61300000000006</ele>
        <time>2026-04-25T08:50:04Z</time>
      </trkpt>
      <trkpt lat="40.688915960490704" lon="-2.58638801984489">
        <ele>857.60900000000004</ele>
        <time>2026-04-25T08:50:05Z</time>
      </trkpt>
      <trkpt lat="40.688900034874678" lon="-2.586352983489633">
        <ele>857.65300000000002</ele>
        <time>2026-04-25T08:50:06Z</time>
      </trkpt>
      <trkpt lat="40.68888402543962" lon="-2.586319036781788">
        <ele>857.86699999999996</ele>
        <time>2026-04-25T08:50:07Z</time>
      </trkpt>
      <trkpt lat="40.688870027661324" lon="-2.586280982941389">
        <ele>857.88199999999995</ele>
        <time>2026-04-25T08:50:08Z</time>
      </trkpt>
      <trkpt lat="40.688856029883027" lon="-2.586244018748403">
        <ele>858.02200000000005</ele>
        <time>2026-04-25T08:50:09Z</time>
      </trkpt>
      <trkpt lat="40.688846977427602" lon="-2.586210994049907">
        <ele>858.26800000000003</ele>
        <time>2026-04-25T08:50:10Z</time>
      </trkpt>
      <trkpt lat="40.688840020447969" lon="-2.586180986836553">
        <ele>858.23000000000002</ele>
        <time>2026-04-25T08:50:11Z</time>
      </trkpt>
      <trkpt lat="40.688835997134447" lon="-2.586150979623199">
        <ele>858.279</ele>
        <time>2026-04-25T08:50:12Z</time>
      </trkpt>
      <trkpt lat="40.688829040154815" lon="-2.586117032915354">
        <ele>858.23000000000002</ele>
        <time>2026-04-25T08:50:13Z</time>
      </trkpt>
      <trkpt lat="40.688817976042628" lon="-2.586081996560097">
        <ele>858.47500000000002</ele>
        <time>2026-04-25T08:50:14Z</time>
      </trkpt>
      <trkpt lat="40.688804984092712" lon="-2.586054001003504">
        <ele>858.63800000000003</ele>
        <time>2026-04-25T08:50:15Z</time>
      </trkpt>
      <trkpt lat="40.688791992142797" lon="-2.586030028760433">
        <ele>859.07000000000005</ele>
        <time>2026-04-25T08:50:16Z</time>
      </trkpt>
      <trkpt lat="40.688772965222597" lon="-2.586003039032221">
        <ele>859.01700000000005</ele>
        <time>2026-04-25T08:50:17Z</time>
      </trkpt>
      <trkpt lat="40.688754022121429" lon="-2.58598200045526">
        <ele>859.00900000000001</ele>
        <time>2026-04-25T08:50:18Z</time>
      </trkpt>
      <trkpt lat="40.688736001029611" lon="-2.585963979363442">
        <ele>859.21500000000003</ele>
        <time>2026-04-25T08:50:19Z</time>
      </trkpt>
      <trkpt lat="40.688714040443301" lon="-2.58593900129199">
        <ele>858.88900000000001</ele>
        <time>2026-04-25T08:50:20Z</time>
      </trkpt>
      <trkpt lat="40.688695013523102" lon="-2.5859160348773">
        <ele>858.61400000000003</ele>
        <time>2026-04-25T08:50:21Z</time>
      </trkpt>
      <trkpt lat="40.688673974946141" lon="-2.585890972986817">
        <ele>858.654</ele>
        <time>2026-04-25T08:50:22Z</time>
      </trkpt>
      <trkpt lat="40.688652014359832" lon="-2.585869012400508">
        <ele>858.82000000000005</ele>
        <time>2026-04-25T08:50:23Z</time>
      </trkpt>
      <trkpt lat="40.68862896412611" lon="-2.585850991308689">
        <ele>858.23199999999997</ele>
        <time>2026-04-25T08:50:24Z</time>
      </trkpt>
      <trkpt lat="40.68860599771142" lon="-2.585840011015534">
        <ele>858.09100000000001</ele>
        <time>2026-04-25T08:50:25Z</time>
      </trkpt>
      <trkpt lat="40.688570039346814" lon="-2.58583297021687">
        <ele>857.47199999999998</ele>
        <time>2026-04-25T08:50:26Z</time>
      </trkpt>
      <trkpt lat="40.688511030748487" lon="-2.585816960781813">
        <ele>856.89700000000005</ele>
        <time>2026-04-25T08:50:28Z</time>
      </trkpt>
      <trkpt lat="40.688484963029623" lon="-2.585814027115703">
        <ele>856.423</ele>
        <time>2026-04-25T08:50:29Z</time>
      </trkpt>
      <trkpt lat="40.68845696747303" lon="-2.585811009630561">
        <ele>855.68299999999999</ele>
        <time>2026-04-25T08:50:30Z</time>
      </trkpt>
      <trkpt lat="40.688426960259676" lon="-2.585802040994167">
        <ele>855.61099999999999</ele>
        <time>2026-04-25T08:50:31Z</time>
      </trkpt>
      <trkpt lat="40.688402988016605" lon="-2.58578703738749">
        <ele>855.20899999999995</ele>
        <time>2026-04-25T08:50:32Z</time>
      </trkpt>
      <trkpt lat="40.688373986631632" lon="-2.58576599881053">
        <ele>855.21400000000006</ele>
        <time>2026-04-25T08:50:33Z</time>
      </trkpt>
      <trkpt lat="40.688346996903419" lon="-2.58574303239584">
        <ele>855.09799999999996</ele>
        <time>2026-04-25T08:50:34Z</time>
      </trkpt>
      <trkpt lat="40.688325958326459" lon="-2.585712019354105">
        <ele>854.41300000000001</ele>
        <time>2026-04-25T08:50:35Z</time>
      </trkpt>
      <trkpt lat="40.688303997740149" lon="-2.585674971342087">
        <ele>854.47299999999996</ele>
        <time>2026-04-25T08:50:36Z</time>
      </trkpt>
      <trkpt lat="40.688287988305092" lon="-2.585630966350436">
        <ele>853.87900000000002</ele>
        <time>2026-04-25T08:50:37Z</time>
      </trkpt>
      <trkpt lat="40.688266027718782" lon="-2.585537005215883">
        <ele>853.04100000000005</ele>
        <time>2026-04-25T08:50:39Z</time>
      </trkpt>
      <trkpt lat="40.6882409658283" lon="-2.58539903908968">
        <ele>851.88</ele>
        <time>2026-04-25T08:50:42Z</time>
      </trkpt>
      <trkpt lat="40.688259992748499" lon="-2.58525000885129">
        <ele>852.27099999999996</ele>
        <time>2026-04-25T08:50:46Z</time>
      </trkpt>
      <trkpt lat="40.688251024112105" lon="-2.585110031068325">
        <ele>852.61599999999999</ele>
        <time>2026-04-25T08:50:50Z</time>
      </trkpt>
      <trkpt lat="40.688239959999919" lon="-2.584980027750135">
        <ele>853.47699999999998</ele>
        <time>2026-04-25T08:50:54Z</time>
      </trkpt>
      <trkpt lat="40.688229985535145" lon="-2.584841977804899">
        <ele>854.86099999999999</ele>
        <time>2026-04-25T08:50:59Z</time>
      </trkpt>
      <trkpt lat="40.688212970271707" lon="-2.584694037213922">
        <ele>855.22699999999998</ele>
        <time>2026-04-25T08:51:05Z</time>
      </trkpt>
      <trkpt lat="40.688205007463694" lon="-2.584663024172187">
        <ele>854.80899999999997</ele>
        <time>2026-04-25T08:51:06Z</time>
      </trkpt>
      <trkpt lat="40.688199978321791" lon="-2.584636034443975">
        <ele>854.88900000000001</ele>
        <time>2026-04-25T08:51:07Z</time>
      </trkpt>
      <trkpt lat="40.688184974715114" lon="-2.58460896089673">
        <ele>854.25300000000004</ele>
        <time>2026-04-25T08:51:08Z</time>
      </trkpt>
      <trkpt lat="40.688167037442327" lon="-2.584581971168518">
        <ele>853.63800000000003</ele>
        <time>2026-04-25T08:51:09Z</time>
      </trkpt>
      <trkpt lat="40.688150022178888" lon="-2.584552969783545">
        <ele>853.678</ele>
        <time>2026-04-25T08:51:10Z</time>
      </trkpt>
      <trkpt lat="40.688126971945167" lon="-2.584514999762178">
        <ele>853.09400000000005</ele>
        <time>2026-04-25T08:51:11Z</time>
      </trkpt>
      <trkpt lat="40.688106017187238" lon="-2.58447996340692">
        <ele>852.67600000000004</ele>
        <time>2026-04-25T08:51:12Z</time>
      </trkpt>
      <trkpt lat="40.688084978610277" lon="-2.584447022527456">
        <ele>852.22500000000002</ele>
        <time>2026-04-25T08:51:13Z</time>
      </trkpt>
      <trkpt lat="40.68806704133749" lon="-2.58441399782896">
        <ele>851.86599999999999</ele>
        <time>2026-04-25T08:51:14Z</time>
      </trkpt>
      <trkpt lat="40.688048014417291" lon="-2.584387008100748">
        <ele>851.471</ele>
        <time>2026-04-25T08:51:15Z</time>
      </trkpt>
      <trkpt lat="40.68802597001195" lon="-2.584363035857678">
        <ele>851.029</ele>
        <time>2026-04-25T08:51:16Z</time>
      </trkpt>
      <trkpt lat="40.68800300359726" lon="-2.584341997280717">
        <ele>850.60000000000002</ele>
        <time>2026-04-25T08:51:17Z</time>
      </trkpt>
      <trkpt lat="40.687974002212286" lon="-2.584315007552505">
        <ele>850.22000000000003</ele>
        <time>2026-04-25T08:51:18Z</time>
      </trkpt>
      <trkpt lat="40.687943994998932" lon="-2.584282988682389">
        <ele>850.00900000000001</ele>
        <time>2026-04-25T08:51:19Z</time>
      </trkpt>
      <trkpt lat="40.687914993613958" lon="-2.584257004782558">
        <ele>849.654</ele>
        <time>2026-04-25T08:51:20Z</time>
      </trkpt>
      <trkpt lat="40.687888003885746" lon="-2.584223980084062">
        <ele>849.46799999999996</ele>
        <time>2026-04-25T08:51:21Z</time>
      </trkpt>
      <trkpt lat="40.687867971137166" lon="-2.584193972870708">
        <ele>849.26300000000003</ele>
        <time>2026-04-25T08:51:22Z</time>
      </trkpt>
      <trkpt lat="40.687848022207618" lon="-2.584166983142495">
        <ele>848.68299999999999</ele>
        <time>2026-04-25T08:51:23Z</time>
      </trkpt>
      <trkpt lat="40.687830001115799" lon="-2.584142005071044">
        <ele>848.67899999999997</ele>
        <time>2026-04-25T08:51:24Z</time>
      </trkpt>
      <trkpt lat="40.687807034701109" lon="-2.58411300368607">
        <ele>848.28099999999995</ele>
        <time>2026-04-25T08:51:25Z</time>
      </trkpt>
      <trkpt lat="40.687785996124148" lon="-2.584082996472716">
        <ele>848.00999999999999</ele>
        <time>2026-04-25T08:51:26Z</time>
      </trkpt>
      <trkpt lat="40.687774010002613" lon="-2.584059024229646">
        <ele>847.61099999999999</ele>
        <time>2026-04-25T08:51:27Z</time>
      </trkpt>
      <trkpt lat="40.68776797503233" lon="-2.584035973995924">
        <ele>847.41600000000005</ele>
        <time>2026-04-25T08:51:28Z</time>
      </trkpt>
      <trkpt lat="40.687756994739175" lon="-2.584004960954189">
        <ele>847.41300000000001</ele>
        <time>2026-04-25T08:51:29Z</time>
      </trkpt>
      <trkpt lat="40.687740985304117" lon="-2.583975037559867">
        <ele>846.84299999999996</ele>
        <time>2026-04-25T08:51:30Z</time>
      </trkpt>
      <trkpt lat="40.687723970040679" lon="-2.583951987326145">
        <ele>846.20699999999999</ele>
        <time>2026-04-25T08:51:31Z</time>
      </trkpt>
      <trkpt lat="40.687705026939511" lon="-2.583924997597933">
        <ele>846.20899999999995</ele>
        <time>2026-04-25T08:51:32Z</time>
      </trkpt>
      <trkpt lat="40.687687005847692" lon="-2.583900019526482">
        <ele>846.06299999999999</ele>
        <time>2026-04-25T08:51:33Z</time>
      </trkpt>
      <trkpt lat="40.687665967270732" lon="-2.58387504145503">
        <ele>846.02700000000004</ele>
        <time>2026-04-25T08:51:34Z</time>
      </trkpt>
      <trkpt lat="40.687649035826325" lon="-2.583860037848353">
        <ele>846.01199999999994</ele>
        <time>2026-04-25T08:51:35Z</time>
      </trkpt>
      <trkpt lat="40.687631014734507" lon="-2.583837993443012">
        <ele>845.83199999999999</ele>
        <time>2026-04-25T08:51:36Z</time>
      </trkpt>
      <trkpt lat="40.687610981985927" lon="-2.583817038685083">
        <ele>846.298</ele>
        <time>2026-04-25T08:51:37Z</time>
      </trkpt>
      <trkpt lat="40.687583992257714" lon="-2.583791976794601">
        <ele>846.27999999999997</ele>
        <time>2026-04-25T08:51:38Z</time>
      </trkpt>
      <trkpt lat="40.687558008357882" lon="-2.583763981238008">
        <ele>846.01900000000001</ele>
        <time>2026-04-25T08:51:39Z</time>
      </trkpt>
      <trkpt lat="40.68753001280129" lon="-2.583742020651698">
        <ele>846.65999999999997</ele>
        <time>2026-04-25T08:51:40Z</time>
      </trkpt>
      <trkpt lat="40.687505034729838" lon="-2.583716958761215">
        <ele>846.48500000000001</ele>
        <time>2026-04-25T08:51:41Z</time>
      </trkpt>
      <trkpt lat="40.687482990324497" lon="-2.583690974861383">
        <ele>846.61199999999997</ele>
        <time>2026-04-25T08:51:42Z</time>
      </trkpt>
      <trkpt lat="40.687461029738188" lon="-2.583670020103455">
        <ele>846.63199999999995</ele>
        <time>2026-04-25T08:51:43Z</time>
      </trkpt>
      <trkpt lat="40.687442002817988" lon="-2.583654010668397">
        <ele>846.60500000000002</ele>
        <time>2026-04-25T08:51:44Z</time>
      </trkpt>
      <trkpt lat="40.68742398172617" lon="-2.583641018718481">
        <ele>847.00900000000001</ele>
        <time>2026-04-25T08:51:45Z</time>
      </trkpt>
      <trkpt lat="40.687406966462731" lon="-2.583628026768565">
        <ele>847.02300000000002</ele>
        <time>2026-04-25T08:51:46Z</time>
      </trkpt>
      <trkpt lat="40.687390035018325" lon="-2.583611011505127">
        <ele>847.23699999999997</ele>
        <time>2026-04-25T08:51:47Z</time>
      </trkpt>
      <trkpt lat="40.687371008098125" lon="-2.583591984584928">
        <ele>847.22199999999998</ele>
        <time>2026-04-25T08:51:48Z</time>
      </trkpt>
      <trkpt lat="40.687354998663068" lon="-2.583573963493109">
        <ele>847.27200000000005</ele>
        <time>2026-04-25T08:51:49Z</time>
      </trkpt>
      <trkpt lat="40.687341000884771" lon="-2.58355300873518">
        <ele>847.61800000000005</ele>
        <time>2026-04-25T08:51:50Z</time>
      </trkpt>
      <trkpt lat="40.687329014763236" lon="-2.583533981814981">
        <ele>847.41999999999996</ele>
        <time>2026-04-25T08:51:51Z</time>
      </trkpt>
      <trkpt lat="40.68725198507309" lon="-2.583442032337189">
        <ele>848.04899999999998</ele>
        <time>2026-04-25T08:51:55Z</time>
      </trkpt>
      <trkpt lat="40.687237987294793" lon="-2.583421999588609">
        <ele>848.02999999999997</ele>
        <time>2026-04-25T08:51:56Z</time>
      </trkpt>
      <trkpt lat="40.687164980918169" lon="-2.58331798017025">
        <ele>848.44500000000005</ele>
        <time>2026-04-25T08:52:00Z</time>
      </trkpt>
      <trkpt lat="40.687073031440377" lon="-2.583243967965245">
        <ele>848.44799999999998</ele>
        <time>2026-04-25T08:52:03Z</time>
      </trkpt>
      <trkpt lat="40.686988960951567" lon="-2.583175990730524">
        <ele>848.26099999999997</ele>
        <time>2026-04-25T08:52:06Z</time>
      </trkpt>
      <trkpt lat="40.686901034787297" lon="-2.583139026537538">
        <ele>848.61699999999996</ele>
        <time>2026-04-25T08:52:09Z</time>
      </trkpt>
      <trkpt lat="40.686839008703828" lon="-2.583127962425351">
        <ele>848.40899999999999</ele>
        <time>2026-04-25T08:52:11Z</time>
      </trkpt>
      <trkpt lat="40.686811013147235" lon="-2.583122011274099">
        <ele>848.65599999999995</ele>
        <time>2026-04-25T08:52:12Z</time>
      </trkpt>
      <trkpt lat="40.686698025092483" lon="-2.583065014332533">
        <ele>849.28999999999996</ele>
        <time>2026-04-25T08:52:16Z</time>
      </trkpt>
      <trkpt lat="40.686603980138898" lon="-2.583024026826024">
        <ele>849.86500000000001</ele>
        <time>2026-04-25T08:52:19Z</time>
      </trkpt>
      <trkpt lat="40.686511024832726" lon="-2.583012040704489">
        <ele>849.82500000000005</ele>
        <time>2026-04-25T08:52:22Z</time>
      </trkpt>
      <trkpt lat="40.686484035104513" lon="-2.583012040704489">
        <ele>849.82100000000003</ele>
        <time>2026-04-25T08:52:23Z</time>
      </trkpt>
      <trkpt lat="40.686462996527553" lon="-2.583025032654405">
        <ele>850.49300000000005</ele>
        <time>2026-04-25T08:52:25Z</time>
      </trkpt>
      <trkpt lat="40.686427960172296" lon="-2.583026038482785">
        <ele>851.072</ele>
        <time>2026-04-25T08:52:27Z</time>
      </trkpt>
      <trkpt lat="40.686409017071128" lon="-2.583026038482785">
        <ele>851.23299999999995</ele>
        <time>2026-04-25T08:52:28Z</time>
      </trkpt>
      <trkpt lat="40.686389990150928" lon="-2.583026038482785">
        <ele>851.48800000000006</ele>
        <time>2026-04-25T08:52:29Z</time>
      </trkpt>
      <trkpt lat="40.686357971280813" lon="-2.583026038482785">
        <ele>851.64400000000001</ele>
        <time>2026-04-25T08:52:31Z</time>
      </trkpt>
      <trkpt lat="40.68632997572422" lon="-2.583026960492134">
        <ele>851.60500000000002</ele>
        <time>2026-04-25T08:52:33Z</time>
      </trkpt>
      <trkpt lat="40.686302985996008" lon="-2.583026038482785">
        <ele>851.61500000000001</ele>
        <time>2026-04-25T08:52:35Z</time>
      </trkpt>
      <trkpt lat="40.686275996267796" lon="-2.583025032654405">
        <ele>852.00900000000001</ele>
        <time>2026-04-25T08:52:37Z</time>
      </trkpt>
      <trkpt lat="40.686254035681486" lon="-2.583018997684121">
        <ele>852.26599999999996</ele>
        <time>2026-04-25T08:52:39Z</time>
      </trkpt>
      <trkpt lat="40.686231991276145" lon="-2.583012040704489">
        <ele>852.82000000000005</ele>
        <time>2026-04-25T08:52:41Z</time>
      </trkpt>
      <trkpt lat="40.686202989891171" lon="-2.583000976592302">
        <ele>853.43499999999995</ele>
        <time>2026-04-25T08:52:43Z</time>
      </trkpt>
      <trkpt lat="40.686169965192676" lon="-2.582996031269431">
        <ele>853.81500000000005</ele>
        <time>2026-04-25T08:52:45Z</time>
      </trkpt>
      <trkpt lat="40.686146998777986" lon="-2.582985972985625">
        <ele>854.02099999999996</ele>
        <time>2026-04-25T08:52:47Z</time>
      </trkpt>
      <trkpt lat="40.686125960201025" lon="-2.582987984642386">
        <ele>854.673</ele>
        <time>2026-04-25T08:52:49Z</time>
      </trkpt>
      <trkpt lat="40.686107017099857" lon="-2.582981027662754">
        <ele>855.02200000000005</ele>
        <time>2026-04-25T08:52:51Z</time>
      </trkpt>
      <trkpt lat="40.686076004058123" lon="-2.58297398686409">
        <ele>855.46299999999997</ele>
        <time>2026-04-25T08:52:53Z</time>
      </trkpt>
      <trkpt lat="40.686058988794684" lon="-2.582967029884458">
        <ele>855.65800000000002</ele>
        <time>2026-04-25T08:52:54Z</time>
      </trkpt>
      <trkpt lat="40.68602898158133" lon="-2.582946997135878">
        <ele>855.851</ele>
        <time>2026-04-25T08:52:56Z</time>
      </trkpt>
      <trkpt lat="40.686010960489511" lon="-2.582937022671104">
        <ele>856.00099999999998</ele>
        <time>2026-04-25T08:52:57Z</time>
      </trkpt>
      <trkpt lat="40.685987994074821" lon="-2.582925958558917">
        <ele>856.41099999999994</ele>
        <time>2026-04-25T08:52:58Z</time>
      </trkpt>
      <trkpt lat="40.685965027660131" lon="-2.582911960780621">
        <ele>856.60900000000004</ele>
        <time>2026-04-25T08:52:59Z</time>
      </trkpt>
      <trkpt lat="40.68594197742641" lon="-2.582900980487466">
        <ele>857.02700000000004</ele>
        <time>2026-04-25T08:53:00Z</time>
      </trkpt>
      <trkpt lat="40.685912976041436" lon="-2.582891006022692">
        <ele>857.03099999999995</ele>
        <time>2026-04-25T08:53:01Z</time>
      </trkpt>
      <trkpt lat="40.685889003798366" lon="-2.582882037386298">
        <ele>857.27599999999995</ele>
        <time>2026-04-25T08:53:02Z</time>
      </trkpt>
      <trkpt lat="40.685858996585011" lon="-2.582870973274112">
        <ele>857.226</ele>
        <time>2026-04-25T08:53:03Z</time>
      </trkpt>
      <trkpt lat="40.685826977714896" lon="-2.582854963839054">
        <ele>857.26199999999994</ele>
        <time>2026-04-25T08:53:04Z</time>
      </trkpt>
      <trkpt lat="40.685797976329923" lon="-2.582837026566267">
        <ele>857.03399999999999</ele>
        <time>2026-04-25T08:53:05Z</time>
      </trkpt>
      <trkpt lat="40.685764029622078" lon="-2.582820011302829">
        <ele>857.21299999999997</ele>
        <time>2026-04-25T08:53:06Z</time>
      </trkpt>
      <trkpt lat="40.685732010751963" lon="-2.582798972725868">
        <ele>856.81399999999996</ele>
        <time>2026-04-25T08:53:07Z</time>
      </trkpt>
      <trkpt lat="40.685697980225086" lon="-2.582781035453081">
        <ele>856.68899999999996</ele>
        <time>2026-04-25T08:53:08Z</time>
      </trkpt>
      <trkpt lat="40.685667973011732" lon="-2.582756979390979">
        <ele>856.66800000000001</ele>
        <time>2026-04-25T08:53:09Z</time>
      </trkpt>
      <trkpt lat="40.68564098328352" lon="-2.582729989662767">
        <ele>856.24199999999996</ele>
        <time>2026-04-25T08:53:10Z</time>
      </trkpt>
      <trkpt lat="40.685607036575675" lon="-2.582700988277793">
        <ele>856.42600000000004</ele>
        <time>2026-04-25T08:53:11Z</time>
      </trkpt>
      <trkpt lat="40.685579963028431" lon="-2.582676010206342">
        <ele>856.20899999999995</ele>
        <time>2026-04-25T08:53:12Z</time>
      </trkpt>
      <trkpt lat="40.685549033805728" lon="-2.582647008821368">
        <ele>856.07799999999997</ele>
        <time>2026-04-25T08:53:13Z</time>
      </trkpt>
      <trkpt lat="40.685516009107232" lon="-2.582617001608014">
        <ele>855.66200000000003</ele>
        <time>2026-04-25T08:53:14Z</time>
      </trkpt>
      <trkpt lat="40.685483990237117" lon="-2.582584982737899">
        <ele>855.06700000000001</ele>
        <time>2026-04-25T08:53:15Z</time>
      </trkpt>
      <trkpt lat="40.685450965538621" lon="-2.582551036030054">
        <ele>855.06700000000001</ele>
        <time>2026-04-25T08:53:16Z</time>
      </trkpt>
      <trkpt lat="40.685421964153647" lon="-2.582522034645081">
        <ele>854.66300000000001</ele>
        <time>2026-04-25T08:53:17Z</time>
      </trkpt>
      <trkpt lat="40.685393968597054" lon="-2.582489009946585">
        <ele>854.45500000000004</ele>
        <time>2026-04-25T08:53:18Z</time>
      </trkpt>
      <trkpt lat="40.685368990525603" lon="-2.582449028268457">
        <ele>854.07399999999996</ele>
        <time>2026-04-25T08:53:19Z</time>
      </trkpt>
      <trkpt lat="40.685349041596055" lon="-2.582406029105187">
        <ele>853.61500000000001</ele>
        <time>2026-04-25T08:53:20Z</time>
      </trkpt>
      <trkpt lat="40.685331020504236" lon="-2.582361018285155">
        <ele>853.67999999999995</ele>
        <time>2026-04-25T08:53:21Z</time>
      </trkpt>
      <trkpt lat="40.685311993584037" lon="-2.582321958616376">
        <ele>853.42700000000002</ele>
        <time>2026-04-25T08:53:22Z</time>
      </trkpt>
      <trkpt lat="40.685292966663837" lon="-2.582283988595009">
        <ele>853.66800000000001</ele>
        <time>2026-04-25T08:53:23Z</time>
      </trkpt>
      <trkpt lat="40.685270000249147" lon="-2.582244006916881">
        <ele>853.21400000000006</ele>
        <time>2026-04-25T08:53:24Z</time>
      </trkpt>
      <trkpt lat="40.685248039662838" lon="-2.582203019410372">
        <ele>853.00900000000001</ele>
        <time>2026-04-25T08:53:25Z</time>
      </trkpt>
      <trkpt lat="40.685224989429116" lon="-2.582164965569973">
        <ele>853.03399999999999</ele>
        <time>2026-04-25T08:53:26Z</time>
      </trkpt>
      <trkpt lat="40.685200011357665" lon="-2.582128001376987">
        <ele>852.83799999999997</ele>
        <time>2026-04-25T08:53:27Z</time>
      </trkpt>
      <trkpt lat="40.685176039114594" lon="-2.582096988335252">
        <ele>853.02300000000002</ele>
        <time>2026-04-25T08:53:28Z</time>
      </trkpt>
      <trkpt lat="40.68514896556735" lon="-2.58206999860704">
        <ele>852.45299999999997</ele>
        <time>2026-04-25T08:53:29Z</time>
      </trkpt>
      <trkpt lat="40.685118958353996" lon="-2.582045020535588">
        <ele>852.28899999999999</ele>
        <time>2026-04-25T08:53:30Z</time>
      </trkpt>
      <trkpt lat="40.685085011646152" lon="-2.582021970301867">
        <ele>852.221</ele>
        <time>2026-04-25T08:53:31Z</time>
      </trkpt>
      <trkpt lat="40.685051986947656" lon="-2.58200797252357">
        <ele>851.86000000000001</ele>
        <time>2026-04-25T08:53:32Z</time>
      </trkpt>
      <trkpt lat="40.685015022754669" lon="-2.581990035250783">
        <ele>851.88099999999997</ele>
        <time>2026-04-25T08:53:33Z</time>
      </trkpt>
      <trkpt lat="40.684978980571032" lon="-2.581976959481835">
        <ele>851.49599999999998</ele>
        <time>2026-04-25T08:53:34Z</time>
      </trkpt>
      <trkpt lat="40.684944028034806" lon="-2.581961033865809">
        <ele>850.86500000000001</ele>
        <time>2026-04-25T08:53:35Z</time>
      </trkpt>
      <trkpt lat="40.684907985851169" lon="-2.581947036087513">
        <ele>850.66800000000001</ele>
        <time>2026-04-25T08:53:36Z</time>
      </trkpt>
      <trkpt lat="40.684879990294576" lon="-2.581927003338933">
        <ele>850.41399999999999</ele>
        <time>2026-04-25T08:53:37Z</time>
      </trkpt>
      <trkpt lat="40.684855012223125" lon="-2.581902025267482">
        <ele>850.40899999999999</ele>
        <time>2026-04-25T08:53:38Z</time>
      </trkpt>
      <trkpt lat="40.684832967817783" lon="-2.581872018054128">
        <ele>850.08799999999997</ele>
        <time>2026-04-25T08:53:39Z</time>
      </trkpt>
      <trkpt lat="40.684814024716616" lon="-2.58183597587049">
        <ele>849.61199999999997</ele>
        <time>2026-04-25T08:53:40Z</time>
      </trkpt>
      <trkpt lat="40.684792986139655" lon="-2.581798005849123">
        <ele>849.46699999999998</ele>
        <time>2026-04-25T08:53:41Z</time>
      </trkpt>
      <trkpt lat="40.684773959219456" lon="-2.581758024170995">
        <ele>849.09699999999998</ele>
        <time>2026-04-25T08:53:42Z</time>
      </trkpt>
      <trkpt lat="40.68476197309792" lon="-2.581717036664486">
        <ele>848.84299999999996</ele>
        <time>2026-04-25T08:53:43Z</time>
      </trkpt>
      <trkpt lat="40.684749986976385" lon="-2.581674959510565">
        <ele>848.46500000000003</ele>
        <time>2026-04-25T08:53:44Z</time>
      </trkpt>
      <trkpt lat="40.684740012511611" lon="-2.581634977832437">
        <ele>848.03399999999999</ele>
        <time>2026-04-25T08:53:45Z</time>
      </trkpt>
      <trkpt lat="40.684725008904934" lon="-2.581594996154308">
        <ele>848.05499999999995</ele>
        <time>2026-04-25T08:53:46Z</time>
      </trkpt>
      <trkpt lat="40.684704976156354" lon="-2.581558031961322">
        <ele>847.87</ele>
        <time>2026-04-25T08:53:47Z</time>
      </trkpt>
      <trkpt lat="40.684679998084903" lon="-2.581517966464162">
        <ele>847.68100000000004</ele>
        <time>2026-04-25T08:53:48Z</time>
      </trkpt>
      <trkpt lat="40.684648985043168" lon="-2.581479996442795">
        <ele>847.46100000000001</ele>
        <time>2026-04-25T08:53:49Z</time>
      </trkpt>
      <trkpt lat="40.684626018628478" lon="-2.581444960087538">
        <ele>847.21699999999998</ele>
        <time>2026-04-25T08:53:50Z</time>
      </trkpt>
      <trkpt lat="40.684599028900266" lon="-2.581409001722932">
        <ele>847.40899999999999</ele>
        <time>2026-04-25T08:53:51Z</time>
      </trkpt>
      <trkpt lat="40.684581007808447" lon="-2.5813830178231">
        <ele>847.26999999999998</ele>
        <time>2026-04-25T08:53:52Z</time>
      </trkpt>
      <trkpt lat="40.684557035565376" lon="-2.581353010609746">
        <ele>847.45399999999995</ele>
        <time>2026-04-25T08:53:53Z</time>
      </trkpt>
      <trkpt lat="40.684532979503274" lon="-2.581329960376024">
        <ele>847.07899999999995</ele>
        <time>2026-04-25T08:53:54Z</time>
      </trkpt>
      <trkpt lat="40.684508001431823" lon="-2.581304982304573">
        <ele>847.03899999999999</ele>
        <time>2026-04-25T08:53:55Z</time>
      </trkpt>
      <trkpt lat="40.684475982561707" lon="-2.581285033375025">
        <ele>847.04499999999996</ele>
        <time>2026-04-25T08:53:56Z</time>
      </trkpt>
      <trkpt lat="40.684453016147017" lon="-2.581268018111587">
        <ele>846.86699999999996</ele>
        <time>2026-04-25T08:53:57Z</time>
      </trkpt>
      <trkpt lat="40.684428960084915" lon="-2.581256031990051">
        <ele>846.81600000000003</ele>
        <time>2026-04-25T08:53:58Z</time>
      </trkpt>
      <trkpt lat="40.684405993670225" lon="-2.581245973706245">
        <ele>846.64700000000005</ele>
        <time>2026-04-25T08:53:59Z</time>
      </trkpt>
      <trkpt lat="40.684389984235168" lon="-2.58123298175633">
        <ele>846.69200000000001</ele>
        <time>2026-04-25T08:54:00Z</time>
      </trkpt>
      <trkpt lat="40.684377998113632" lon="-2.581212026998401">
        <ele>846.62400000000002</ele>
        <time>2026-04-25T08:54:03Z</time>
      </trkpt>
      <trkpt lat="40.6843520142138" lon="-2.581194005906582">
        <ele>846.404</ele>
        <time>2026-04-25T08:54:05Z</time>
      </trkpt>
      <trkpt lat="40.684332987293601" lon="-2.581185959279537">
        <ele>846.41399999999999</ele>
        <time>2026-04-25T08:54:08Z</time>
      </trkpt>
      <trkpt lat="40.684312032535672" lon="-2.581170033663511">
        <ele>846.60900000000004</ele>
        <time>2026-04-25T08:54:11Z</time>
      </trkpt>
      <trkpt lat="40.684294011443853" lon="-2.581163998693228">
        <ele>846.28399999999999</ele>
        <time>2026-04-25T08:54:23Z</time>
      </trkpt>
      <trkpt lat="40.684271967038512" lon="-2.581150000914931">
        <ele>846.09799999999996</ele>
        <time>2026-04-25T08:54:25Z</time>
      </trkpt>
      <trkpt lat="40.684250006452203" lon="-2.581134997308254">
        <ele>846.08299999999997</ele>
        <time>2026-04-25T08:54:27Z</time>
      </trkpt>
      <trkpt lat="40.684224022552371" lon="-2.581122005358338">
        <ele>846.02300000000002</ele>
        <time>2026-04-25T08:54:29Z</time>
      </trkpt>
      <trkpt lat="40.68420298397541" lon="-2.581115970388055">
        <ele>846.43899999999996</ele>
        <time>2026-04-25T08:54:31Z</time>
      </trkpt>
      <trkpt lat="40.684186974540353" lon="-2.581127034500241">
        <ele>845.61099999999999</ele>
        <time>2026-04-25T08:54:43Z</time>
      </trkpt>
      <trkpt lat="40.68415897898376" lon="-2.581122005358338">
        <ele>845.42999999999995</ele>
        <time>2026-04-25T08:54:47Z</time>
      </trkpt>
      <trkpt lat="40.684142969548702" lon="-2.581133991479874">
        <ele>845.65099999999995</ele>
        <time>2026-04-25T08:54:52Z</time>
      </trkpt>
      <trkpt lat="40.684125032275915" lon="-2.58112502284348">
        <ele>845.63599999999997</ele>
        <time>2026-04-25T08:55:07Z</time>
      </trkpt>
      <trkpt lat="40.684097958728671" lon="-2.581115970388055">
        <ele>845.69200000000001</ele>
        <time>2026-04-25T08:55:09Z</time>
      </trkpt>
      <trkpt lat="40.684077003970742" lon="-2.581113958731294">
        <ele>845.673</ele>
        <time>2026-04-25T08:55:10Z</time>
      </trkpt>
      <trkpt lat="40.684054037556052" lon="-2.581105995923281">
        <ele>845.62</ele>
        <time>2026-04-25T08:55:11Z</time>
      </trkpt>
      <trkpt lat="40.684035010635853" lon="-2.581100966781378">
        <ele>845.80899999999997</ele>
        <time>2026-04-25T08:55:12Z</time>
      </trkpt>
      <trkpt lat="40.684015983715653" lon="-2.581094009801745">
        <ele>845.64099999999996</ele>
        <time>2026-04-25T08:55:13Z</time>
      </trkpt>
      <trkpt lat="40.683992011472583" lon="-2.581079006195068">
        <ele>846.09500000000003</ele>
        <time>2026-04-25T08:55:15Z</time>
      </trkpt>
      <trkpt lat="40.683972984552383" lon="-2.581067020073533">
        <ele>846.05999999999995</ele>
        <time>2026-04-25T08:55:16Z</time>
      </trkpt>
      <trkpt lat="40.683942977339029" lon="-2.581047993153334">
        <ele>846.04999999999995</ele>
        <time>2026-04-25T08:55:17Z</time>
      </trkpt>
      <trkpt lat="40.6839220225811" lon="-2.581027960404754">
        <ele>845.86599999999999</ele>
        <time>2026-04-25T08:55:18Z</time>
      </trkpt>
      <trkpt lat="40.683904001489282" lon="-2.581019997596741">
        <ele>845.69799999999998</ele>
        <time>2026-04-25T08:55:19Z</time>
      </trkpt>
      <trkpt lat="40.683876005932689" lon="-2.581012034788728">
        <ele>845.66700000000003</ele>
        <time>2026-04-25T08:55:20Z</time>
      </trkpt>
      <trkpt lat="40.683849016204476" lon="-2.581005999818444">
        <ele>845.68799999999999</ele>
        <time>2026-04-25T08:55:21Z</time>
      </trkpt>
      <trkpt lat="40.683825965970755" lon="-2.580999964848161">
        <ele>845.88300000000004</ele>
        <time>2026-04-25T08:55:22Z</time>
      </trkpt>
      <trkpt lat="40.683802999556065" lon="-2.580990996211767">
        <ele>845.89800000000002</ele>
        <time>2026-04-25T08:55:23Z</time>
      </trkpt>
      <trkpt lat="40.683777015656233" lon="-2.580976998433471">
        <ele>845.81500000000005</ele>
        <time>2026-04-25T08:55:24Z</time>
      </trkpt>
      <trkpt lat="40.68374902009964" lon="-2.580959983170033">
        <ele>846.02599999999995</ele>
        <time>2026-04-25T08:55:25Z</time>
      </trkpt>
      <trkpt lat="40.683722030371428" lon="-2.580946991220117">
        <ele>845.80899999999997</ele>
        <time>2026-04-25T08:55:26Z</time>
      </trkpt>
      <trkpt lat="40.683696968480945" lon="-2.58093198761344">
        <ele>845.81100000000004</ele>
        <time>2026-04-25T08:55:27Z</time>
      </trkpt>
      <trkpt lat="40.683667967095971" lon="-2.580918995663524">
        <ele>846.06500000000005</ele>
        <time>2026-04-25T08:55:28Z</time>
      </trkpt>
      <trkpt lat="40.683634020388126" lon="-2.58091002702713">
        <ele>845.82000000000005</ele>
        <time>2026-04-25T08:55:29Z</time>
      </trkpt>
      <trkpt lat="40.683607030659914" lon="-2.580897035077214">
        <ele>846.01999999999998</ele>
        <time>2026-04-25T08:55:30Z</time>
      </trkpt>
      <trkpt lat="40.683581968769431" lon="-2.580882031470537">
        <ele>845.87599999999998</ele>
        <time>2026-04-25T08:55:31Z</time>
      </trkpt>
      <trkpt lat="40.683563025668263" lon="-2.580869039520621">
        <ele>846.08799999999997</ele>
        <time>2026-04-25T08:55:32Z</time>
      </trkpt>
      <trkpt lat="40.683539975434542" lon="-2.580844983458519">
        <ele>846.47699999999998</ele>
        <time>2026-04-25T08:55:34Z</time>
      </trkpt>
      <trkpt lat="40.683483984321356" lon="-2.580821011215448">
        <ele>846.298</ele>
        <time>2026-04-25T08:55:37Z</time>
      </trkpt>
      <trkpt lat="40.683421036228538" lon="-2.580774994567037">
        <ele>846.28300000000002</ele>
        <time>2026-04-25T08:55:40Z</time>
      </trkpt>
      <trkpt lat="40.683397985994816" lon="-2.580755967646837">
        <ele>846.23699999999997</ele>
        <time>2026-04-25T08:55:41Z</time>
      </trkpt>
      <trkpt lat="40.683382982388139" lon="-2.58073702454567">
        <ele>846.24900000000002</ele>
        <time>2026-04-25T08:55:42Z</time>
      </trkpt>
      <trkpt lat="40.683295978233218" lon="-2.580663012340665">
        <ele>846.41300000000001</ele>
        <time>2026-04-25T08:55:46Z</time>
      </trkpt>
      <trkpt lat="40.683214003220201" lon="-2.580605009570718">
        <ele>847.00900000000001</ele>
        <time>2026-04-25T08:55:50Z</time>
      </trkpt>
      <trkpt lat="40.683151977136731" lon="-2.580511970445514">
        <ele>847.245</ele>
        <time>2026-04-25T08:55:54Z</time>
      </trkpt>
      <trkpt lat="40.683065978810191" lon="-2.580434018746018">
        <ele>848.09900000000005</ele>
        <time>2026-04-25T08:55:57Z</time>
      </trkpt>
      <trkpt lat="40.682976040989161" lon="-2.580351959913969">
        <ele>848.42399999999998</ele>
        <time>2026-04-25T08:56:01Z</time>
      </trkpt>
      <trkpt lat="40.682894987985492" lon="-2.580289011821151">
        <ele>848.88400000000001</ele>
        <time>2026-04-25T08:56:05Z</time>
      </trkpt>
      <trkpt lat="40.682829022407532" lon="-2.580207036808133">
        <ele>849.40999999999997</ele>
        <time>2026-04-25T08:56:09Z</time>
      </trkpt>
      <trkpt lat="40.682843020185828" lon="-2.580086002126336">
        <ele>850.22199999999998</ele>
        <time>2026-04-25T08:56:15Z</time>
      </trkpt>
      <trkpt lat="40.682834973558784" lon="-2.580054989084601">
        <ele>850.29100000000005</ele>
        <time>2026-04-25T08:56:16Z</time>
      </trkpt>
      <trkpt lat="40.68280597217381" lon="-2.580017019063234">
        <ele>850.21199999999999</ele>
        <time>2026-04-25T08:56:18Z</time>
      </trkpt>
      <trkpt lat="40.682785017415881" lon="-2.579992963001132">
        <ele>850.46699999999998</ele>
        <time>2026-04-25T08:56:19Z</time>
      </trkpt>
      <trkpt lat="40.682769007980824" lon="-2.579974019899964">
        <ele>850.69799999999998</ele>
        <time>2026-04-25T08:56:20Z</time>
      </trkpt>
      <trkpt lat="40.682750986889005" lon="-2.579962033778429">
        <ele>851.01499999999999</ele>
        <time>2026-04-25T08:56:21Z</time>
      </trkpt>
      <trkpt lat="40.682729026302695" lon="-2.579954992979765">
        <ele>851.02599999999995</ele>
        <time>2026-04-25T08:56:22Z</time>
      </trkpt>
      <trkpt lat="40.682705976068974" lon="-2.579959016293287">
        <ele>851.00900000000001</ele>
        <time>2026-04-25T08:56:23Z</time>
      </trkpt>
      <trkpt lat="40.682678986340761" lon="-2.579962033778429">
        <ele>850.82100000000003</ele>
        <time>2026-04-25T08:56:24Z</time>
      </trkpt>
      <trkpt lat="40.682658031582832" lon="-2.579964967444539">
        <ele>851.04499999999996</ele>
        <time>2026-04-25T08:56:25Z</time>
      </trkpt>
      <trkpt lat="40.68263397552073" lon="-2.579964967444539">
        <ele>851.07000000000005</ele>
        <time>2026-04-25T08:56:26Z</time>
      </trkpt>
      <trkpt lat="40.682606985792518" lon="-2.579963961616159">
        <ele>851.42999999999995</ele>
        <time>2026-04-25T08:56:27Z</time>
      </trkpt>
      <trkpt lat="40.682501038536429" lon="-2.579971002414823">
        <ele>851.81600000000003</ele>
        <time>2026-04-25T08:56:32Z</time>
      </trkpt>
      <trkpt lat="40.682403976097703" lon="-2.579977959394455">
        <ele>852.46799999999996</ele>
        <time>2026-04-25T08:56:37Z</time>
      </trkpt>
      <trkpt lat="40.682296017184854" lon="-2.579961027950048">
        <ele>853.45699999999999</ele>
        <time>2026-04-25T08:56:42Z</time>
      </trkpt>
      <trkpt lat="40.682202978059649" lon="-2.579926997423172">
        <ele>854.41800000000001</ele>
        <time>2026-04-25T08:56:47Z</time>
      </trkpt>
      <trkpt lat="40.682183029130101" lon="-2.579891961067915">
        <ele>854.82299999999998</ele>
        <time>2026-04-25T08:56:49Z</time>
      </trkpt>
      <trkpt lat="40.682158973067999" lon="-2.579865977168083">
        <ele>855.29300000000001</ele>
        <time>2026-04-25T08:56:51Z</time>
      </trkpt>
      <trkpt lat="40.682140029966831" lon="-2.579867988824844">
        <ele>855.46500000000003</ele>
        <time>2026-04-25T08:56:52Z</time>
      </trkpt>
      <trkpt lat="40.682115973904729" lon="-2.579873017966747">
        <ele>855.82100000000003</ele>
        <time>2026-04-25T08:56:54Z</time>
      </trkpt>
      <trkpt lat="40.682085966691375" lon="-2.579870000481606">
        <ele>856.00900000000001</ele>
        <time>2026-04-25T08:56:56Z</time>
      </trkpt>
      <trkpt lat="40.681998962536454" lon="-2.579825995489955">
        <ele>856.66099999999994</ele>
        <time>2026-04-25T08:57:03Z</time>
      </trkpt>
      <trkpt lat="40.681941965594888" lon="-2.579727005213499">
        <ele>858.08500000000004</ele>
        <time>2026-04-25T08:57:11Z</time>
      </trkpt>
      <trkpt lat="40.681900978088379" lon="-2.579620974138379">
        <ele>859.08000000000004</ele>
        <time>2026-04-25T08:57:18Z</time>
      </trkpt>
      <trkpt lat="40.681907013058662" lon="-2.579511003568769">
        <ele>860.63</ele>
        <time>2026-04-25T08:57:25Z</time>
      </trkpt>
      <trkpt lat="40.681889997795224" lon="-2.579436991363764">
        <ele>861.46600000000001</ele>
        <time>2026-04-25T08:57:29Z</time>
      </trkpt>
      <trkpt lat="40.681869965046644" lon="-2.579393992200494">
        <ele>861.87800000000004</ele>
        <time>2026-04-25T08:57:31Z</time>
      </trkpt>
      <trkpt lat="40.681856973096728" lon="-2.579353004693985">
        <ele>862.05700000000002</ele>
        <time>2026-04-25T08:57:33Z</time>
      </trkpt>
      <trkpt lat="40.681850016117096" lon="-2.579330038279295">
        <ele>862.06799999999998</ele>
        <time>2026-04-25T08:57:34Z</time>
      </trkpt>
      <trkpt lat="40.681842975318432" lon="-2.579303970560432">
        <ele>862.673</ele>
        <time>2026-04-25T08:57:35Z</time>
      </trkpt>
      <trkpt lat="40.681833000853658" lon="-2.579276980832219">
        <ele>862.85500000000002</ele>
        <time>2026-04-25T08:57:36Z</time>
      </trkpt>
      <trkpt lat="40.681822020560503" lon="-2.579244961962104">
        <ele>862.80700000000002</ele>
        <time>2026-04-25T08:57:37Z</time>
      </trkpt>
      <trkpt lat="40.681791007518768" lon="-2.579199029132724">
        <ele>863.41700000000003</ele>
        <time>2026-04-25T08:57:39Z</time>
      </trkpt>
      <trkpt lat="40.681778015568852" lon="-2.579176984727383">
        <ele>863.40899999999999</ele>
        <time>2026-04-25T08:57:40Z</time>
      </trkpt>
      <trkpt lat="40.681764017790556" lon="-2.579155024141073">
        <ele>863.697</ele>
        <time>2026-04-25T08:57:41Z</time>
      </trkpt>
      <trkpt lat="40.681747002527118" lon="-2.579131973907352">
        <ele>863.851</ele>
        <time>2026-04-25T08:57:42Z</time>
      </trkpt>
      <trkpt lat="40.68172998726368" lon="-2.579113030806184">
        <ele>863.68600000000004</ele>
        <time>2026-04-25T08:57:43Z</time>
      </trkpt>
      <trkpt lat="40.681715989485383" lon="-2.579096015542746">
        <ele>863.85599999999999</ele>
        <time>2026-04-25T08:57:44Z</time>
      </trkpt>
      <trkpt lat="40.681700985878706" lon="-2.579081011936069">
        <ele>863.89200000000005</ele>
        <time>2026-04-25T08:57:45Z</time>
      </trkpt>
      <trkpt lat="40.681683970615268" lon="-2.579065002501011">
        <ele>864.05399999999997</ele>
        <time>2026-04-25T08:57:46Z</time>
      </trkpt>
      <trkpt lat="40.681666033342481" lon="-2.579049998894334">
        <ele>864.01300000000003</ele>
        <time>2026-04-25T08:57:47Z</time>
      </trkpt>
      <trkpt lat="40.681648012250662" lon="-2.579034995287657">
        <ele>864.06399999999996</ele>
        <time>2026-04-25T08:57:48Z</time>
      </trkpt>
      <trkpt lat="40.681625967845321" lon="-2.579028960317373">
        <ele>864.28899999999999</ele>
        <time>2026-04-25T08:57:49Z</time>
      </trkpt>
      <trkpt lat="40.681605013087392" lon="-2.579017980024219">
        <ele>864.27200000000005</ele>
        <time>2026-04-25T08:57:50Z</time>
      </trkpt>
      <trkpt lat="40.681582968682051" lon="-2.579003982245922">
        <ele>864.21299999999997</ele>
        <time>2026-04-25T08:57:51Z</time>
      </trkpt>
      <trkpt lat="40.681560002267361" lon="-2.578991996124387">
        <ele>864.21400000000006</ele>
        <time>2026-04-25T08:57:52Z</time>
      </trkpt>
      <trkpt lat="40.6815389636904" lon="-2.57897699251771">
        <ele>864.40899999999999</ele>
        <time>2026-04-25T08:57:53Z</time>
      </trkpt>
      <trkpt lat="40.681521026417613" lon="-2.578960983082652">
        <ele>864.66899999999998</ele>
        <time>2026-04-25T08:57:54Z</time>
      </trkpt>
      <trkpt lat="40.681503005325794" lon="-2.578944973647595">
        <ele>864.85299999999995</ele>
        <time>2026-04-25T08:57:55Z</time>
      </trkpt>
      <trkpt lat="40.681488001719117" lon="-2.578928964212537">
        <ele>864.61800000000005</ele>
        <time>2026-04-25T08:57:56Z</time>
      </trkpt>
      <trkpt lat="40.681467968970537" lon="-2.578918989747763">
        <ele>865.05799999999999</ele>
        <time>2026-04-25T08:57:57Z</time>
      </trkpt>
      <trkpt lat="40.68145003169775" lon="-2.578910021111369">
        <ele>865.09400000000005</ele>
        <time>2026-04-25T08:57:58Z</time>
      </trkpt>
      <trkpt lat="40.681433016434312" lon="-2.578896023333073">
        <ele>865.24599999999998</ele>
        <time>2026-04-25T08:57:59Z</time>
      </trkpt>
      <trkpt lat="40.681412983685732" lon="-2.578882025554776">
        <ele>865.43499999999995</ele>
        <time>2026-04-25T08:58:00Z</time>
      </trkpt>
      <trkpt lat="40.681394962593913" lon="-2.578866016119719">
        <ele>865.48599999999999</ele>
        <time>2026-04-25T08:58:01Z</time>
      </trkpt>
      <trkpt lat="40.681378031149507" lon="-2.578851012513042">
        <ele>865.48099999999999</ele>
        <time>2026-04-25T08:58:02Z</time>
      </trkpt>
      <trkpt lat="40.681362021714449" lon="-2.578831985592842">
        <ele>865.61699999999996</ele>
        <time>2026-04-25T08:58:03Z</time>
      </trkpt>
      <trkpt lat="40.681346012279391" lon="-2.578815976157785">
        <ele>865.88699999999994</ele>
        <time>2026-04-25T08:58:04Z</time>
      </trkpt>
      <trkpt lat="40.681314999237657" lon="-2.578793009743094">
        <ele>866.01499999999999</ele>
        <time>2026-04-25T08:58:06Z</time>
      </trkpt>
      <trkpt lat="40.681284992024302" lon="-2.578768031671643">
        <ele>866.00900000000001</ele>
        <time>2026-04-25T08:58:08Z</time>
      </trkpt>
      <trkpt lat="40.681267976760864" lon="-2.578755961731076">
        <ele>866.46299999999997</ele>
        <time>2026-04-25T08:58:09Z</time>
      </trkpt>
      <trkpt lat="40.681248027831316" lon="-2.57873903028667">
        <ele>866.66700000000003</ele>
        <time>2026-04-25T08:58:10Z</time>
      </trkpt>
      <trkpt lat="40.681229000911117" lon="-2.578722015023232">
        <ele>866.68200000000002</ele>
        <time>2026-04-25T08:58:11Z</time>
      </trkpt>
      <trkpt lat="40.681211985647678" lon="-2.578706005588174">
        <ele>866.86199999999997</ele>
        <time>2026-04-25T08:58:12Z</time>
      </trkpt>
      <trkpt lat="40.68119203671813" lon="-2.578685972839594">
        <ele>866.85799999999995</ele>
        <time>2026-04-25T08:58:13Z</time>
      </trkpt>
      <trkpt lat="40.681175021454692" lon="-2.578669963404536">
        <ele>866.88</ele>
        <time>2026-04-25T08:58:14Z</time>
      </trkpt>
      <trkpt lat="40.681158006191254" lon="-2.578657977283001">
        <ele>867.08900000000006</ele>
        <time>2026-04-25T08:58:15Z</time>
      </trkpt>
      <trkpt lat="40.681138979271054" lon="-2.578645991161466">
        <ele>867.25999999999999</ele>
        <time>2026-04-25T08:58:16Z</time>
      </trkpt>
      <trkpt lat="40.681121964007616" lon="-2.578636016696692">
        <ele>867.23500000000001</ele>
        <time>2026-04-25T08:58:17Z</time>
      </trkpt>
      <trkpt lat="40.681104026734829" lon="-2.578625036403537">
        <ele>867.23800000000006</ele>
        <time>2026-04-25T08:58:18Z</time>
      </trkpt>
      <trkpt lat="40.681083993986249" lon="-2.57861003279686">
        <ele>867.47000000000003</ele>
        <time>2026-04-25T08:58:19Z</time>
      </trkpt>
      <trkpt lat="40.68106496706605" lon="-2.578597040846944">
        <ele>867.41700000000003</ele>
        <time>2026-04-25T08:58:20Z</time>
      </trkpt>
      <trkpt lat="40.681050969287753" lon="-2.578581031411886">
        <ele>867.60900000000004</ele>
        <time>2026-04-25T08:58:21Z</time>
      </trkpt>
      <trkpt lat="40.681034959852695" lon="-2.578566027805209">
        <ele>867.66499999999996</ele>
        <time>2026-04-25T08:58:22Z</time>
      </trkpt>
      <trkpt lat="40.681012999266386" lon="-2.578543983399868">
        <ele>867.83900000000006</ele>
        <time>2026-04-25T08:58:24Z</time>
      </trkpt>
      <trkpt lat="40.680994978174567" lon="-2.578514982014895">
        <ele>868.654</ele>
        <time>2026-04-25T08:58:26Z</time>
      </trkpt>
      <trkpt lat="40.680965976789594" lon="-2.57848497480154">
        <ele>868.85400000000004</ele>
        <time>2026-04-25T08:58:28Z</time>
      </trkpt>
      <trkpt lat="40.680946027860045" lon="-2.578456979244947">
        <ele>869.23000000000002</ele>
        <time>2026-04-25T08:58:30Z</time>
      </trkpt>
      <trkpt lat="40.680922977626324" lon="-2.578429989516735">
        <ele>869.46199999999999</ele>
        <time>2026-04-25T08:58:32Z</time>
      </trkpt>
      <trkpt lat="40.680895987898111" lon="-2.578410040587187">
        <ele>869.88099999999997</ele>
        <time>2026-04-25T08:58:34Z</time>
      </trkpt>
      <trkpt lat="40.68087000399828" lon="-2.578384978696704">
        <ele>869.822</ele>
        <time>2026-04-25T08:58:36Z</time>
      </trkpt>
      <trkpt lat="40.68084703758359" lon="-2.57835497148335">
        <ele>870.09699999999998</ele>
        <time>2026-04-25T08:58:38Z</time>
      </trkpt>
      <trkpt lat="40.680824993178248" lon="-2.578309960663319">
        <ele>870.41200000000003</ele>
        <time>2026-04-25T08:58:40Z</time>
      </trkpt>
      <trkpt lat="40.680813007056713" lon="-2.578292023390532">
        <ele>870.23199999999997</ele>
        <time>2026-04-25T08:58:41Z</time>
      </trkpt>
      <trkpt lat="40.680791968479753" lon="-2.578265033662319">
        <ele>870.40499999999997</ele>
        <time>2026-04-25T08:58:43Z</time>
      </trkpt>
      <trkpt lat="40.680775037035346" lon="-2.578238965943456">
        <ele>870.40899999999999</ele>
        <time>2026-04-25T08:58:45Z</time>
      </trkpt>
      <trkpt lat="40.680760033428669" lon="-2.578222034499049">
        <ele>870.48299999999995</ele>
        <time>2026-04-25T08:58:46Z</time>
      </trkpt>
      <trkpt lat="40.68074201233685" lon="-2.578205019235611">
        <ele>870.81700000000001</ele>
        <time>2026-04-25T08:58:48Z</time>
      </trkpt>
      <trkpt lat="40.68072097375989" lon="-2.578190015628934">
        <ele>871.08199999999999</ele>
        <time>2026-04-25T08:58:50Z</time>
      </trkpt>
      <trkpt lat="40.680693984031677" lon="-2.578177023679018">
        <ele>871.28200000000004</ele>
        <time>2026-04-25T08:58:52Z</time>
      </trkpt>
      <trkpt lat="40.680665988475084" lon="-2.578159002587199">
        <ele>871.23800000000006</ele>
        <time>2026-04-25T08:58:54Z</time>
      </trkpt>
      <trkpt lat="40.680642016232014" lon="-2.578143998980522">
        <ele>871.63</ele>
        <time>2026-04-25T08:58:56Z</time>
      </trkpt>
      <trkpt lat="40.680616032332182" lon="-2.578132012858987">
        <ele>871.66899999999998</ele>
        <time>2026-04-25T08:58:58Z</time>
      </trkpt>
      <trkpt lat="40.680593987926841" lon="-2.578107034787536">
        <ele>871.44000000000005</ele>
        <time>2026-04-25T08:59:00Z</time>
      </trkpt>
      <trkpt lat="40.680573033168912" lon="-2.578077027574182">
        <ele>871.65499999999997</ele>
        <time>2026-04-25T08:59:02Z</time>
      </trkpt>
      <trkpt lat="40.680551994591951" lon="-2.578050037845969">
        <ele>871.63499999999999</ele>
        <time>2026-04-25T08:59:04Z</time>
      </trkpt>
      <trkpt lat="40.680523999035358" lon="-2.578025981783867">
        <ele>871.88599999999997</ele>
        <time>2026-04-25T08:59:06Z</time>
      </trkpt>
      <trkpt lat="40.680510001257062" lon="-2.578007960692048">
        <ele>872.21400000000006</ele>
        <time>2026-04-25T08:59:08Z</time>
      </trkpt>
      <trkpt lat="40.680489968508482" lon="-2.577978037297726">
        <ele>872.40899999999999</ele>
        <time>2026-04-25T08:59:10Z</time>
      </trkpt>
      <trkpt lat="40.680467002093792" lon="-2.577950041741133">
        <ele>872.66499999999996</ele>
        <time>2026-04-25T08:59:12Z</time>
      </trkpt>
      <trkpt lat="40.68044001236558" lon="-2.577931014820933">
        <ele>873.08900000000006</ele>
        <time>2026-04-25T08:59:14Z</time>
      </trkpt>
      <trkpt lat="40.680424002930522" lon="-2.577916011214256">
        <ele>873.06399999999996</ele>
        <time>2026-04-25T08:59:16Z</time>
      </trkpt>
      <trkpt lat="40.680406987667084" lon="-2.577893966808915">
        <ele>873.24400000000003</ele>
        <time>2026-04-25T08:59:18Z</time>
      </trkpt>
      <trkpt lat="40.680373962968588" lon="-2.577867982909083">
        <ele>873.26999999999998</ele>
        <time>2026-04-25T08:59:20Z</time>
      </trkpt>
      <trkpt lat="40.680352002382278" lon="-2.577850967645645">
        <ele>873.64200000000005</ele>
        <time>2026-04-25T08:59:22Z</time>
      </trkpt>
      <trkpt lat="40.680335992947221" lon="-2.577828001230955">
        <ele>874.09100000000001</ele>
        <time>2026-04-25T08:59:24Z</time>
      </trkpt>
      <trkpt lat="40.680321995168924" lon="-2.577802017331123">
        <ele>874.29200000000003</ele>
        <time>2026-04-25T08:59:26Z</time>
      </trkpt>
      <trkpt lat="40.680298022925854" lon="-2.577780978754163">
        <ele>874.48699999999997</ele>
        <time>2026-04-25T08:59:28Z</time>
      </trkpt>
      <trkpt lat="40.680278996005654" lon="-2.577757006511092">
        <ele>874.84799999999996</ele>
        <time>2026-04-25T08:59:30Z</time>
      </trkpt>
      <trkpt lat="40.680261980742216" lon="-2.577735967934132">
        <ele>875.26099999999997</ele>
        <time>2026-04-25T08:59:32Z</time>
      </trkpt>
      <trkpt lat="40.680191991850734" lon="-2.577691040933132">
        <ele>876.41700000000003</ele>
        <time>2026-04-25T08:59:38Z</time>
      </trkpt>
      <trkpt lat="40.68009995855391" lon="-2.577713001519442">
        <ele>877.60900000000004</ele>
        <time>2026-04-25T08:59:43Z</time>
      </trkpt>
      <trkpt lat="40.680071962997317" lon="-2.577726999297738">
        <ele>878.28599999999994</ele>
        <time>2026-04-25T08:59:45Z</time>
      </trkpt>
      <trkpt lat="40.680051008239388" lon="-2.577726999297738">
        <ele>878.63999999999999</ele>
        <time>2026-04-25T08:59:47Z</time>
      </trkpt>
      <trkpt lat="40.680025024339557" lon="-2.577757006511092">
        <ele>879.26499999999999</ele>
        <time>2026-04-25T08:59:50Z</time>
      </trkpt>
      <trkpt lat="40.680004991590977" lon="-2.577782990410924">
        <ele>879.22500000000002</ele>
        <time>2026-04-25T08:59:52Z</time>
      </trkpt>
      <trkpt lat="40.679982025176287" lon="-2.577802017331123">
        <ele>879.67100000000005</ele>
        <time>2026-04-25T08:59:54Z</time>
      </trkpt>
      <trkpt lat="40.679959980770946" lon="-2.577822972089052">
        <ele>880.09299999999996</ele>
        <time>2026-04-25T08:59:56Z</time>
      </trkpt>
      <trkpt lat="40.679945982992649" lon="-2.577844010666013">
        <ele>880.26199999999994</ele>
        <time>2026-04-25T08:59:58Z</time>
      </trkpt>
      <trkpt lat="40.679917987436056" lon="-2.57785901427269">
        <ele>880.83299999999997</ele>
        <time>2026-04-25T09:00:01Z</time>
      </trkpt>
      <trkpt lat="40.679873982444406" lon="-2.577862031757832">
        <ele>881.27800000000002</ele>
        <time>2026-04-25T09:00:05Z</time>
      </trkpt>
      <trkpt lat="40.679859984666109" lon="-2.577845016494393">
        <ele>881.81799999999998</ele>
        <time>2026-04-25T09:00:07Z</time>
      </trkpt>
      <trkpt lat="40.679850010201335" lon="-2.5778170209378">
        <ele>882.69799999999998</ele>
        <time>2026-04-25T09:00:11Z</time>
      </trkpt>
      <trkpt lat="40.679836012423038" lon="-2.577790031209588">
        <ele>883.41700000000003</ele>
        <time>2026-04-25T09:00:14Z</time>
      </trkpt>
      <trkpt lat="40.679820002987981" lon="-2.577764969319105">
        <ele>884.40899999999999</ele>
        <time>2026-04-25T09:00:16Z</time>
      </trkpt>
      <trkpt lat="40.679801981896162" lon="-2.577738985419273">
        <ele>885.06299999999999</ele>
        <time>2026-04-25T09:00:18Z</time>
      </trkpt>
      <trkpt lat="40.679791001603007" lon="-2.577718030661345">
        <ele>885.28700000000003</ele>
        <time>2026-04-25T09:00:20Z</time>
      </trkpt>
      <trkpt lat="40.679780021309853" lon="-2.577694980427623">
        <ele>885.63199999999995</ele>
        <time>2026-04-25T09:00:24Z</time>
      </trkpt>
      <trkpt lat="40.679762000218034" lon="-2.577671008184552">
        <ele>886.48199999999997</ele>
        <time>2026-04-25T09:00:27Z</time>
      </trkpt>
      <trkpt lat="40.679743979126215" lon="-2.577649969607592">
        <ele>886.86800000000005</ele>
        <time>2026-04-25T09:00:29Z</time>
      </trkpt>
      <trkpt lat="40.679725036025047" lon="-2.577630020678043">
        <ele>887.22000000000003</ele>
        <time>2026-04-25T09:00:31Z</time>
      </trkpt>
      <trkpt lat="40.679703997448087" lon="-2.577604958787561">
        <ele>887.87900000000002</ele>
        <time>2026-04-25T09:00:33Z</time>
      </trkpt>
      <trkpt lat="40.67968899384141" lon="-2.577579980716109">
        <ele>888.25</ele>
        <time>2026-04-25T09:00:35Z</time>
      </trkpt>
      <trkpt lat="40.679676001891494" lon="-2.577547961845994">
        <ele>889.01499999999999</ele>
        <time>2026-04-25T09:00:38Z</time>
      </trkpt>
      <trkpt lat="40.679660998284817" lon="-2.577517032623291">
        <ele>889.45799999999997</ele>
        <time>2026-04-25T09:00:40Z</time>
      </trkpt>
      <trkpt lat="40.679652029648423" lon="-2.577483002096415">
        <ele>889.85199999999998</ele>
        <time>2026-04-25T09:00:42Z</time>
      </trkpt>
      <trkpt lat="40.67964599467814" lon="-2.577450983226299">
        <ele>890.21699999999998</ele>
        <time>2026-04-25T09:00:44Z</time>
      </trkpt>
      <trkpt lat="40.679639037698507" lon="-2.577422987669706">
        <ele>890.40899999999999</ele>
        <time>2026-04-25T09:00:46Z</time>
      </trkpt>
      <trkpt lat="40.67962403409183" lon="-2.577393986284733">
        <ele>891.02700000000004</ele>
        <time>2026-04-25T09:00:48Z</time>
      </trkpt>
      <trkpt lat="40.679616993293166" lon="-2.57736599072814">
        <ele>891.44100000000003</ele>
        <time>2026-04-25T09:00:50Z</time>
      </trkpt>
      <trkpt lat="40.679600983858109" lon="-2.577229030430317">
        <ele>892.67600000000004</ele>
        <time>2026-04-25T09:00:57Z</time>
      </trkpt>
      <trkpt lat="40.679586986079812" lon="-2.577187037095428">
        <ele>893.29600000000005</ele>
        <time>2026-04-25T09:00:59Z</time>
      </trkpt>
      <trkpt lat="40.679576005786657" lon="-2.577156024053693">
        <ele>893.65200000000004</ele>
        <time>2026-04-25T09:01:01Z</time>
      </trkpt>
      <trkpt lat="40.679572988301516" lon="-2.577119981870055">
        <ele>894.45399999999995</ele>
        <time>2026-04-25T09:01:03Z</time>
      </trkpt>
      <trkpt lat="40.679578017443419" lon="-2.577090980485082">
        <ele>895.01300000000003</ele>
        <time>2026-04-25T09:01:05Z</time>
      </trkpt>
      <trkpt lat="40.679584974423051" lon="-2.577056027948856">
        <ele>895.24400000000003</ele>
        <time>2026-04-25T09:01:07Z</time>
      </trkpt>
      <trkpt lat="40.67958103492856" lon="-2.577011017128825">
        <ele>895.46900000000005</ele>
        <time>2026-04-25T09:01:09Z</time>
      </trkpt>
      <trkpt lat="40.67958103492856" lon="-2.576975980773568">
        <ele>895.83100000000002</ele>
        <time>2026-04-25T09:01:11Z</time>
      </trkpt>
      <trkpt lat="40.679577011615038" lon="-2.576938010752201">
        <ele>896.26099999999997</ele>
        <time>2026-04-25T09:01:13Z</time>
      </trkpt>
      <trkpt lat="40.679571982473135" lon="-2.576900962740183">
        <ele>896.60699999999997</ele>
        <time>2026-04-25T09:01:15Z</time>
      </trkpt>
      <trkpt lat="40.679566031321883" lon="-2.576867016032338">
        <ele>897.00900000000001</ele>
        <time>2026-04-25T09:01:17Z</time>
      </trkpt>
      <trkpt lat="40.6795599963516" lon="-2.576828040182591">
        <ele>897.61500000000001</ele>
        <time>2026-04-25T09:01:19Z</time>
      </trkpt>
      <trkpt lat="40.679551027715206" lon="-2.576782023534179">
        <ele>898.03899999999999</ele>
        <time>2026-04-25T09:01:21Z</time>
      </trkpt>
      <trkpt lat="40.679539041593671" lon="-2.576755033805966">
        <ele>898.03399999999999</ele>
        <time>2026-04-25T09:01:22Z</time>
      </trkpt>
      <trkpt lat="40.679528983309865" lon="-2.576727960258722">
        <ele>898.07399999999996</ele>
        <time>2026-04-25T09:01:23Z</time>
      </trkpt>
      <trkpt lat="40.679523032158613" lon="-2.5766980368644">
        <ele>898.24000000000001</ele>
        <time>2026-04-25T09:01:24Z</time>
      </trkpt>
      <trkpt lat="40.679514985531569" lon="-2.576667023822665">
        <ele>898.25199999999995</ele>
        <time>2026-04-25T09:01:25Z</time>
      </trkpt>
      <trkpt lat="40.679510040208697" lon="-2.576638022437692">
        <ele>898.49099999999999</ele>
        <time>2026-04-25T09:01:26Z</time>
      </trkpt>
      <trkpt lat="40.679502999410033" lon="-2.576611032709479">
        <ele>898.68200000000002</ele>
        <time>2026-04-25T09:01:27Z</time>
      </trkpt>
      <trkpt lat="40.679492019116879" lon="-2.576579013839364">
        <ele>898.85699999999997</ele>
        <time>2026-04-25T09:01:28Z</time>
      </trkpt>
      <trkpt lat="40.679482966661453" lon="-2.576550012454391">
        <ele>899.02599999999995</ele>
        <time>2026-04-25T09:01:29Z</time>
      </trkpt>
      <trkpt lat="40.679471986368299" lon="-2.576518999412656">
        <ele>899.04700000000003</ele>
        <time>2026-04-25T09:01:30Z</time>
      </trkpt>
      <trkpt lat="40.679462011903524" lon="-2.57648304104805">
        <ele>899.01099999999997</ele>
        <time>2026-04-25T09:01:31Z</time>
      </trkpt>
      <trkpt lat="40.679446002468467" lon="-2.576450016349554">
        <ele>899.00900000000001</ele>
        <time>2026-04-25T09:01:32Z</time>
      </trkpt>
      <trkpt lat="40.679396968334913" lon="-2.576342979446054">
        <ele>899.06399999999996</ele>
        <time>2026-04-25T09:01:35Z</time>
      </trkpt>
      <trkpt lat="40.679338965564966" lon="-2.576216999441385">
        <ele>898.66800000000001</ele>
        <time>2026-04-25T09:01:39Z</time>
      </trkpt>
      <trkpt lat="40.679298983886838" lon="-2.576083978638053">
        <ele>898.69299999999998</ele>
        <time>2026-04-25T09:01:43Z</time>
      </trkpt>
      <trkpt lat="40.679262019693851" lon="-2.576008038595319">
        <ele>898.43299999999999</ele>
        <time>2026-04-25T09:01:45Z</time>
      </trkpt>
      <trkpt lat="40.679241986945271" lon="-2.57596998475492">
        <ele>898.41899999999998</ele>
        <time>2026-04-25T09:01:46Z</time>
      </trkpt>
      <trkpt lat="40.679227989166975" lon="-2.575936960056424">
        <ele>898.43100000000004</ele>
        <time>2026-04-25T09:01:47Z</time>
      </trkpt>
      <trkpt lat="40.679212985560298" lon="-2.575907036662102">
        <ele>898.48000000000002</ele>
        <time>2026-04-25T09:01:48Z</time>
      </trkpt>
      <trkpt lat="40.679199993610382" lon="-2.575872000306845">
        <ele>898.28099999999995</ele>
        <time>2026-04-25T09:01:49Z</time>
      </trkpt>
      <trkpt lat="40.679168980568647" lon="-2.575807040557265">
        <ele>898.05600000000004</ele>
        <time>2026-04-25T09:01:51Z</time>
      </trkpt>
      <trkpt lat="40.67915003746748" lon="-2.57577502168715">
        <ele>898.09400000000005</ele>
        <time>2026-04-25T09:01:52Z</time>
      </trkpt>
      <trkpt lat="40.679134028032422" lon="-2.575739985331893">
        <ele>898.05700000000002</ele>
        <time>2026-04-25T09:01:53Z</time>
      </trkpt>
      <trkpt lat="40.679117012768984" lon="-2.575715007260442">
        <ele>898.02200000000005</ele>
        <time>2026-04-25T09:01:54Z</time>
      </trkpt>
      <trkpt lat="40.679098991677165" lon="-2.575686005875468">
        <ele>897.80899999999997</ele>
        <time>2026-04-25T09:01:55Z</time>
      </trkpt>
      <trkpt lat="40.679083988070488" lon="-2.575651975348592">
        <ele>897.83100000000002</ele>
        <time>2026-04-25T09:01:56Z</time>
      </trkpt>
      <trkpt lat="40.67906797863543" lon="-2.575615011155605">
        <ele>897.68499999999995</ele>
        <time>2026-04-25T09:01:57Z</time>
      </trkpt>
      <trkpt lat="40.679050041362643" lon="-2.57558299228549">
        <ele>897.62</ele>
        <time>2026-04-25T09:01:58Z</time>
      </trkpt>
      <trkpt lat="40.679033026099205" lon="-2.575559020042419">
        <ele>897.62</ele>
        <time>2026-04-25T09:01:59Z</time>
      </trkpt>
      <trkpt lat="40.679017016664147" lon="-2.575533958151937">
        <ele>897.42600000000004</ele>
        <time>2026-04-25T09:02:00Z</time>
      </trkpt>
      <trkpt lat="40.678997989743948" lon="-2.575508980080485">
        <ele>897.44799999999998</ele>
        <time>2026-04-25T09:02:01Z</time>
      </trkpt>
      <trkpt lat="40.6789780408144" lon="-2.575481990352273">
        <ele>897.26700000000005</ele>
        <time>2026-04-25T09:02:02Z</time>
      </trkpt>
      <trkpt lat="40.678957002237439" lon="-2.575459023937583">
        <ele>897.24800000000005</ele>
        <time>2026-04-25T09:02:03Z</time>
      </trkpt>
      <trkpt lat="40.678935963660479" lon="-2.575439997017384">
        <ele>897.21299999999997</ele>
        <time>2026-04-25T09:02:04Z</time>
      </trkpt>
      <trkpt lat="40.67891601473093" lon="-2.575418036431074">
        <ele>897.03899999999999</ele>
        <time>2026-04-25T09:02:05Z</time>
      </trkpt>
      <trkpt lat="40.678883995860815" lon="-2.57536699064076">
        <ele>896.80100000000004</ele>
        <time>2026-04-25T09:02:07Z</time>
      </trkpt>
      <trkpt lat="40.678863963112235" lon="-2.575341006740928">
        <ele>897.02099999999996</ele>
        <time>2026-04-25T09:02:08Z</time>
      </trkpt>
      <trkpt lat="40.678790034726262" lon="-2.575271017849445">
        <ele>897.00900000000001</ele>
        <time>2026-04-25T09:02:11Z</time>
      </trkpt>
      <trkpt lat="40.678764972835779" lon="-2.575249979272485">
        <ele>896.89499999999998</ele>
        <time>2026-04-25T09:02:12Z</time>
      </trkpt>
      <trkpt lat="40.678733959794044" lon="-2.57521896623075">
        <ele>896.85900000000004</ele>
        <time>2026-04-25T09:02:13Z</time>
      </trkpt>
      <trkpt lat="40.678706970065832" lon="-2.575185019522905">
        <ele>896.83399999999995</ele>
        <time>2026-04-25T09:02:14Z</time>
      </trkpt>
      <trkpt lat="40.678684003651142" lon="-2.575147971510887">
        <ele>896.82399999999996</ele>
        <time>2026-04-25T09:02:15Z</time>
      </trkpt>
      <trkpt lat="40.678661037236452" lon="-2.575113018974662">
        <ele>896.63</ele>
        <time>2026-04-25T09:02:16Z</time>
      </trkpt>
      <trkpt lat="40.678642010316253" lon="-2.575081000104547">
        <ele>896.68200000000002</ele>
        <time>2026-04-25T09:02:17Z</time>
      </trkpt>
      <trkpt lat="40.678626000881195" lon="-2.575048981234431">
        <ele>896.63099999999997</ele>
        <time>2026-04-25T09:02:18Z</time>
      </trkpt>
      <trkpt lat="40.678610997274518" lon="-2.575016962364316">
        <ele>896.61199999999997</ele>
        <time>2026-04-25T09:02:19Z</time>
      </trkpt>
      <trkpt lat="40.67859398201108" lon="-2.574985027313232">
        <ele>896.81700000000001</ele>
        <time>2026-04-25T09:02:20Z</time>
      </trkpt>
      <trkpt lat="40.678576966747642" lon="-2.574950996786356">
        <ele>896.68499999999995</ele>
        <time>2026-04-25T09:02:21Z</time>
      </trkpt>
      <trkpt lat="40.678558023646474" lon="-2.574919983744621">
        <ele>896.88900000000001</ele>
        <time>2026-04-25T09:02:22Z</time>
      </trkpt>
      <trkpt lat="40.678535979241133" lon="-2.574897017329931">
        <ele>896.81700000000001</ele>
        <time>2026-04-25T09:02:23Z</time>
      </trkpt>
      <trkpt lat="40.678517958149314" lon="-2.574877990409732">
        <ele>896.60900000000004</ele>
        <time>2026-04-25T09:02:24Z</time>
      </trkpt>
      <trkpt lat="40.678501026704907" lon="-2.574858041480184">
        <ele>896.80999999999995</ele>
        <time>2026-04-25T09:02:25Z</time>
      </trkpt>
      <trkpt lat="40.678474958986044" lon="-2.57480800151825">
        <ele>897.024</ele>
        <time>2026-04-25T09:02:27Z</time>
      </trkpt>
      <trkpt lat="40.678462972864509" lon="-2.574781011790037">
        <ele>897.029</ele>
        <time>2026-04-25T09:02:28Z</time>
      </trkpt>
      <trkpt lat="40.678454004228115" lon="-2.574757039546967">
        <ele>896.82899999999995</ele>
        <time>2026-04-25T09:02:29Z</time>
      </trkpt>
      <trkpt lat="40.678446963429451" lon="-2.574733989313245">
        <ele>896.82500000000005</ele>
        <time>2026-04-25T09:02:30Z</time>
      </trkpt>
      <trkpt lat="40.678437994793057" lon="-2.574705993756652">
        <ele>896.85699999999997</ele>
        <time>2026-04-25T09:02:31Z</time>
      </trkpt>
      <trkpt lat="40.678432965651155" lon="-2.574674980714917">
        <ele>897.23599999999999</ele>
        <time>2026-04-25T09:02:32Z</time>
      </trkpt>
      <trkpt lat="40.678425002843142" lon="-2.57463701069355">
        <ele>897.06700000000001</ele>
        <time>2026-04-25T09:02:33Z</time>
      </trkpt>
      <trkpt lat="40.678417962044477" lon="-2.574598034843803">
        <ele>897.072</ele>
        <time>2026-04-25T09:02:34Z</time>
      </trkpt>
      <trkpt lat="40.678406981751323" lon="-2.574558975175023">
        <ele>897.27300000000002</ele>
        <time>2026-04-25T09:02:35Z</time>
      </trkpt>
      <trkpt lat="40.678394995629787" lon="-2.57452704012394">
        <ele>897.28499999999997</ele>
        <time>2026-04-25T09:02:36Z</time>
      </trkpt>
      <trkpt lat="40.67837999202311" lon="-2.574498038738966">
        <ele>897.21299999999997</ele>
        <time>2026-04-25T09:02:37Z</time>
      </trkpt>
      <trkpt lat="40.678362976759672" lon="-2.574467025697231">
        <ele>897.20899999999995</ele>
        <time>2026-04-25T09:02:38Z</time>
      </trkpt>
      <trkpt lat="40.678345961496234" lon="-2.574437018483877">
        <ele>897.25900000000001</ele>
        <time>2026-04-25T09:02:39Z</time>
      </trkpt>
      <trkpt lat="40.678287036716938" lon="-2.574307015165687">
        <ele>897.47299999999996</ele>
        <time>2026-04-25T09:02:43Z</time>
      </trkpt>
      <trkpt lat="40.678272033110261" lon="-2.574279019609094">
        <ele>897.43799999999999</ele>
        <time>2026-04-25T09:02:44Z</time>
      </trkpt>
      <trkpt lat="40.678245965391397" lon="-2.574243983253837">
        <ele>897.81799999999998</ele>
        <time>2026-04-25T09:02:45Z</time>
      </trkpt>
      <trkpt lat="40.678232973441482" lon="-2.574214981868863">
        <ele>897.64400000000001</ele>
        <time>2026-04-25T09:02:46Z</time>
      </trkpt>
      <trkpt lat="40.678211012855172" lon="-2.574170976877213">
        <ele>897.88599999999997</ele>
        <time>2026-04-25T09:02:48Z</time>
      </trkpt>
      <trkpt lat="40.678201038390398" lon="-2.574145998805761">
        <ele>898.04499999999996</ele>
        <time>2026-04-25T09:02:49Z</time>
      </trkpt>
      <trkpt lat="40.678191985934973" lon="-2.574122026562691">
        <ele>898.27599999999995</ele>
        <time>2026-04-25T09:02:50Z</time>
      </trkpt>
      <trkpt lat="40.678183017298579" lon="-2.574096964672208">
        <ele>898.43100000000004</ele>
        <time>2026-04-25T09:02:51Z</time>
      </trkpt>
      <trkpt lat="40.678169019520283" lon="-2.574071986600757">
        <ele>898.42100000000005</ele>
        <time>2026-04-25T09:02:52Z</time>
      </trkpt>
      <trkpt lat="40.678153010085225" lon="-2.574044996872544">
        <ele>898.64099999999996</ele>
        <time>2026-04-25T09:02:53Z</time>
      </trkpt>
      <trkpt lat="40.678134988993406" lon="-2.57401398383081">
        <ele>898.80499999999995</ele>
        <time>2026-04-25T09:02:54Z</time>
      </trkpt>
      <trkpt lat="40.678117973729968" lon="-2.573985988274217">
        <ele>899.00900000000001</ele>
        <time>2026-04-25T09:02:55Z</time>
      </trkpt>
      <trkpt lat="40.678102970123291" lon="-2.573964027687907">
        <ele>899.04399999999998</ele>
        <time>2026-04-25T09:02:56Z</time>
      </trkpt>
      <trkpt lat="40.678091989830136" lon="-2.573936032131314">
        <ele>899.26800000000003</ele>
        <time>2026-04-25T09:02:57Z</time>
      </trkpt>
      <trkpt lat="40.678084027022123" lon="-2.573912981897593">
        <ele>899.423</ele>
        <time>2026-04-25T09:02:58Z</time>
      </trkpt>
      <trkpt lat="40.678074974566698" lon="-2.573889009654522">
        <ele>899.64300000000003</ele>
        <time>2026-04-25T09:02:59Z</time>
      </trkpt>
      <trkpt lat="40.678065000101924" lon="-2.573865037411451">
        <ele>899.69899999999996</ele>
        <time>2026-04-25T09:03:00Z</time>
      </trkpt>
      <trkpt lat="40.67805603146553" lon="-2.573838969692588">
        <ele>899.84100000000001</ele>
        <time>2026-04-25T09:03:01Z</time>
      </trkpt>
      <trkpt lat="40.678044967353344" lon="-2.573810974135995">
        <ele>900.22000000000003</ele>
        <time>2026-04-25T09:03:02Z</time>
      </trkpt>
      <trkpt lat="40.678029041737318" lon="-2.573775015771389">
        <ele>900.84100000000001</ele>
        <time>2026-04-25T09:03:04Z</time>
      </trkpt>
      <trkpt lat="40.67801303230226" lon="-2.573744002729654">
        <ele>901.43600000000004</ele>
        <time>2026-04-25T09:03:06Z</time>
      </trkpt>
      <trkpt lat="40.677995011210442" lon="-2.573721036314964">
        <ele>902.08299999999997</ele>
        <time>2026-04-25T09:03:08Z</time>
      </trkpt>
      <trkpt lat="40.67797196097672" lon="-2.573702009394765">
        <ele>902.42499999999995</ele>
        <time>2026-04-25T09:03:10Z</time>
      </trkpt>
      <trkpt lat="40.677952012047172" lon="-2.573689017444849">
        <ele>902.61699999999996</ele>
        <time>2026-04-25T09:03:12Z</time>
      </trkpt>
      <trkpt lat="40.677918987348676" lon="-2.573667978867889">
        <ele>903.00900000000001</ele>
        <time>2026-04-25T09:03:14Z</time>
      </trkpt>
      <trkpt lat="40.677900966256857" lon="-2.573652975261211">
        <ele>903.07000000000005</ele>
        <time>2026-04-25T09:03:15Z</time>
      </trkpt>
      <trkpt lat="40.67788403481245" lon="-2.573637971654534">
        <ele>903.22400000000005</ele>
        <time>2026-04-25T09:03:16Z</time>
      </trkpt>
      <trkpt lat="40.677868025377393" lon="-2.573621040210128">
        <ele>903.22900000000004</ele>
        <time>2026-04-25T09:03:17Z</time>
      </trkpt>
      <trkpt lat="40.677854027599096" lon="-2.573597989976406">
        <ele>903.06899999999996</ele>
        <time>2026-04-25T09:03:18Z</time>
      </trkpt>
      <trkpt lat="40.677836006507277" lon="-2.573572006076574">
        <ele>903.05499999999995</ele>
        <time>2026-04-25T09:03:19Z</time>
      </trkpt>
      <trkpt lat="40.677815973758698" lon="-2.573548033833504">
        <ele>903.06700000000001</ele>
        <time>2026-04-25T09:03:20Z</time>
      </trkpt>
      <trkpt lat="40.67779803648591" lon="-2.573520038276911">
        <ele>903.05600000000004</ele>
        <time>2026-04-25T09:03:21Z</time>
      </trkpt>
      <trkpt lat="40.677782027050853" lon="-2.573492964729667">
        <ele>903.02700000000004</ele>
        <time>2026-04-25T09:03:22Z</time>
      </trkpt>
      <trkpt lat="40.677766017615795" lon="-2.573468992486596">
        <ele>903.02200000000005</ele>
        <time>2026-04-25T09:03:23Z</time>
      </trkpt>
      <trkpt lat="40.677682030946016" lon="-2.573367990553379">
        <ele>903.29300000000001</ele>
        <time>2026-04-25T09:03:27Z</time>
      </trkpt>
      <trkpt lat="40.677616987377405" lon="-2.5732840038836">
        <ele>903.26499999999999</ele>
        <time>2026-04-25T09:03:30Z</time>
      </trkpt>
      <trkpt lat="40.677543981000781" lon="-2.573195993900299">
        <ele>903.02099999999996</ele>
        <time>2026-04-25T09:03:34Z</time>
      </trkpt>
      <trkpt lat="40.677463011816144" lon="-2.57313103415072">
        <ele>903.40899999999999</ele>
        <time>2026-04-25T09:03:38Z</time>
      </trkpt>
      <trkpt lat="40.677364021539688" lon="-2.573055010288954">
        <ele>903.49099999999999</ele>
        <time>2026-04-25T09:03:42Z</time>
      </trkpt>
      <trkpt lat="40.677338959649205" lon="-2.573040006682277">
        <ele>903.29499999999996</ele>
        <time>2026-04-25T09:03:43Z</time>
      </trkpt>
      <trkpt lat="40.677309036254883" lon="-2.573016034439206">
        <ele>903.25</ele>
        <time>2026-04-25T09:03:44Z</time>
      </trkpt>
      <trkpt lat="40.677198981866241" lon="-2.572958031669259">
        <ele>903.23000000000002</ele>
        <time>2026-04-25T09:03:48Z</time>
      </trkpt>
      <trkpt lat="40.677108960226178" lon="-2.572902962565422">
        <ele>903.26599999999996</ele>
        <time>2026-04-25T09:03:51Z</time>
      </trkpt>
      <trkpt lat="40.677005024626851" lon="-2.572859963402152">
        <ele>903.05799999999999</ele>
        <time>2026-04-25T09:03:55Z</time>
      </trkpt>
      <trkpt lat="40.676905028522015" lon="-2.572803972288966">
        <ele>902.85699999999997</ele>
        <time>2026-04-25T09:04:01Z</time>
      </trkpt>
      <trkpt lat="40.676808971911669" lon="-2.572756027802825">
        <ele>902.82799999999997</ele>
        <time>2026-04-25T09:04:05Z</time>
      </trkpt>
      <trkpt lat="40.676707969978452" lon="-2.572686038911343">
        <ele>902.423</ele>
        <time>2026-04-25T09:04:09Z</time>
      </trkpt>
      <trkpt lat="40.676657008007169" lon="-2.572612026706338">
        <ele>902.44299999999998</ele>
        <time>2026-04-25T09:04:12Z</time>
      </trkpt>
      <trkpt lat="40.676633035764098" lon="-2.572590988129377">
        <ele>902.46400000000006</ele>
        <time>2026-04-25T09:04:13Z</time>
      </trkpt>
      <trkpt lat="40.676551982760429" lon="-2.572537008672953">
        <ele>902.40999999999997</ele>
        <time>2026-04-25T09:04:16Z</time>
      </trkpt>
      <trkpt lat="40.676464978605509" lon="-2.572478000074625">
        <ele>902.00900000000001</ele>
        <time>2026-04-25T09:04:19Z</time>
      </trkpt>
      <trkpt lat="40.676409993320704" lon="-2.572427960112691">
        <ele>902.03599999999994</ele>
        <time>2026-04-25T09:04:21Z</time>
      </trkpt>
      <trkpt lat="40.676387026906013" lon="-2.572412034496665">
        <ele>902.26999999999998</ele>
        <time>2026-04-25T09:04:22Z</time>
      </trkpt>
      <trkpt lat="40.676300022751093" lon="-2.572353025898337">
        <ele>902.01499999999999</ele>
        <time>2026-04-25T09:04:26Z</time>
      </trkpt>
      <trkpt lat="40.676213018596172" lon="-2.572261998429894">
        <ele>902.26499999999999</ele>
        <time>2026-04-25T09:04:31Z</time>
      </trkpt>
      <trkpt lat="40.676130959764123" lon="-2.572199972346425">
        <ele>902.28099999999995</ele>
        <time>2026-04-25T09:04:34Z</time>
      </trkpt>
      <trkpt lat="40.676031969487667" lon="-2.572138030081987">
        <ele>902.673</ele>
        <time>2026-04-25T09:04:38Z</time>
      </trkpt>
      <trkpt lat="40.675931973382831" lon="-2.572090001776815">
        <ele>902.65200000000004</ele>
        <time>2026-04-25T09:04:42Z</time>
      </trkpt>
      <trkpt lat="40.675846980884671" lon="-2.572041973471642">
        <ele>902.65300000000002</ele>
        <time>2026-04-25T09:04:46Z</time>
      </trkpt>
      <trkpt lat="40.675754025578499" lon="-2.571990005671978">
        <ele>903.03800000000001</ele>
        <time>2026-04-25T09:04:50Z</time>
      </trkpt>
      <trkpt lat="40.675662998110056" lon="-2.571933008730412">
        <ele>903.06799999999998</ele>
        <time>2026-04-25T09:04:54Z</time>
      </trkpt>
      <trkpt lat="40.675557972863317" lon="-2.571879029273987">
        <ele>903.24199999999996</ele>
        <time>2026-04-25T09:04:58Z</time>
      </trkpt>
      <trkpt lat="40.675449008122087" lon="-2.57182102650404">
        <ele>903.42600000000004</ele>
        <time>2026-04-25T09:05:02Z</time>
      </trkpt>
      <trkpt lat="40.675408020615578" lon="-2.571794036775827">
        <ele>903.60900000000004</ele>
        <time>2026-04-25T09:05:03Z</time>
      </trkpt>
      <trkpt lat="40.675374995917082" lon="-2.571789007633925">
        <ele>903.84799999999996</ele>
        <time>2026-04-25T09:05:04Z</time>
      </trkpt>
      <trkpt lat="40.675343982875347" lon="-2.571780038997531">
        <ele>903.87199999999996</ele>
        <time>2026-04-25T09:05:05Z</time>
      </trkpt>
      <trkpt lat="40.675315987318754" lon="-2.571770986542106">
        <ele>904.04700000000003</ele>
        <time>2026-04-25T09:05:06Z</time>
      </trkpt>
      <trkpt lat="40.67526301369071" lon="-2.571750031784177">
        <ele>904.09699999999998</ele>
        <time>2026-04-25T09:05:08Z</time>
      </trkpt>
      <trkpt lat="40.675243986770511" lon="-2.571731004863977">
        <ele>904.07299999999998</ele>
        <time>2026-04-25T09:05:09Z</time>
      </trkpt>
      <trkpt lat="40.675229988992214" lon="-2.571703009307385">
        <ele>904.01499999999999</ele>
        <time>2026-04-25T09:05:10Z</time>
      </trkpt>
      <trkpt lat="40.675213979557157" lon="-2.571669984608889">
        <ele>904.23400000000004</ele>
        <time>2026-04-25T09:05:11Z</time>
      </trkpt>
      <trkpt lat="40.675195958465338" lon="-2.571641989052296">
        <ele>904.45500000000004</ele>
        <time>2026-04-25T09:05:12Z</time>
      </trkpt>
      <trkpt lat="40.675171986222267" lon="-2.571613993495703">
        <ele>904.61000000000001</ele>
        <time>2026-04-25T09:05:13Z</time>
      </trkpt>
      <trkpt lat="40.675153965130448" lon="-2.57158700376749">
        <ele>904.62599999999998</ele>
        <time>2026-04-25T09:05:14Z</time>
      </trkpt>
      <trkpt lat="40.675137033686042" lon="-2.571558002382517">
        <ele>904.64700000000005</ele>
        <time>2026-04-25T09:05:15Z</time>
      </trkpt>
      <trkpt lat="40.675119012594223" lon="-2.571529000997543">
        <ele>904.81100000000004</ele>
        <time>2026-04-25T09:05:16Z</time>
      </trkpt>
      <trkpt lat="40.675100991502404" lon="-2.571503017097712">
        <ele>905.00900000000001</ele>
        <time>2026-04-25T09:05:17Z</time>
      </trkpt>
      <trkpt lat="40.675068972632289" lon="-2.571481978520751">
        <ele>905.024</ele>
        <time>2026-04-25T09:05:19Z</time>
      </trkpt>
      <trkpt lat="40.675043994560838" lon="-2.571464041247964">
        <ele>905.27800000000002</ele>
        <time>2026-04-25T09:05:21Z</time>
      </trkpt>
      <trkpt lat="40.675020022317767" lon="-2.571443002671003">
        <ele>905.27300000000002</ele>
        <time>2026-04-25T09:05:23Z</time>
      </trkpt>
      <trkpt lat="40.675003007054329" lon="-2.571431016549468">
        <ele>905.43299999999999</ele>
        <time>2026-04-25T09:05:25Z</time>
      </trkpt>
      <trkpt lat="40.674974005669355" lon="-2.571406038478017">
        <ele>905.86900000000003</ele>
        <time>2026-04-25T09:05:28Z</time>
      </trkpt>
      <trkpt lat="40.674946010112762" lon="-2.571377959102392">
        <ele>905.88099999999997</ele>
        <time>2026-04-25T09:05:30Z</time>
      </trkpt>
      <trkpt lat="40.674928994849324" lon="-2.571362033486366">
        <ele>905.86000000000001</ele>
        <time>2026-04-25T09:05:31Z</time>
      </trkpt>
      <trkpt lat="40.674912985414267" lon="-2.571345018222928">
        <ele>905.84100000000001</ele>
        <time>2026-04-25T09:05:32Z</time>
      </trkpt>
      <trkpt lat="40.674896975979209" lon="-2.57132900878787">
        <ele>906.05600000000004</ele>
        <time>2026-04-25T09:05:33Z</time>
      </trkpt>
      <trkpt lat="40.674878032878041" lon="-2.571316016837955">
        <ele>906.29899999999998</ele>
        <time>2026-04-25T09:05:34Z</time>
      </trkpt>
      <trkpt lat="40.674859005957842" lon="-2.571302019059658">
        <ele>906.40700000000004</ele>
        <time>2026-04-25T09:05:35Z</time>
      </trkpt>
      <trkpt lat="40.674840984866023" lon="-2.571288021281362">
        <ele>906.62699999999995</ele>
        <time>2026-04-25T09:05:36Z</time>
      </trkpt>
      <trkpt lat="40.674823969602585" lon="-2.571274023503065">
        <ele>906.60900000000004</ele>
        <time>2026-04-25T09:05:37Z</time>
      </trkpt>
      <trkpt lat="40.674730008468032" lon="-2.571223983541131">
        <ele>907.86099999999999</ele>
        <time>2026-04-25T09:05:43Z</time>
      </trkpt>
      <trkpt lat="40.674638980999589" lon="-2.571155000478029">
        <ele>908.84500000000003</ele>
        <time>2026-04-25T09:05:50Z</time>
      </trkpt>
      <trkpt lat="40.674602016806602" lon="-2.57111401297152">
        <ele>909.44000000000005</ele>
        <time>2026-04-25T09:05:54Z</time>
      </trkpt>
      <trkpt lat="40.674579972401261" lon="-2.571112001314759">
        <ele>909.83000000000004</ele>
        <time>2026-04-25T09:05:56Z</time>
      </trkpt>
      <trkpt lat="40.674556000158191" lon="-2.571101021021605">
        <ele>910.67600000000004</ele>
        <time>2026-04-25T09:05:59Z</time>
      </trkpt>
      <trkpt lat="40.674543008208275" lon="-2.571077970787883">
        <ele>911.01800000000003</ele>
        <time>2026-04-25T09:06:01Z</time>
      </trkpt>
      <trkpt lat="40.674537979066372" lon="-2.57104704156518">
        <ele>911.43700000000001</ele>
        <time>2026-04-25T09:06:04Z</time>
      </trkpt>
      <trkpt lat="40.674552982673049" lon="-2.571018040180206">
        <ele>912.08799999999997</ele>
        <time>2026-04-25T09:06:06Z</time>
      </trkpt>
      <trkpt lat="40.674548037350178" lon="-2.570986021310091">
        <ele>912.61300000000006</ele>
        <time>2026-04-25T09:06:08Z</time>
      </trkpt>
      <trkpt lat="40.674547031521797" lon="-2.570958025753498">
        <ele>912.69799999999998</ele>
        <time>2026-04-25T09:06:10Z</time>
      </trkpt>
      <trkpt lat="40.674548037350178" lon="-2.570923995226622">
        <ele>913.01499999999999</ele>
        <time>2026-04-25T09:06:12Z</time>
      </trkpt>
      <trkpt lat="40.674548959359527" lon="-2.570893988013268">
        <ele>913.62599999999998</ele>
        <time>2026-04-25T09:06:14Z</time>
      </trkpt>
      <trkpt lat="40.674556000158191" lon="-2.570865992456675">
        <ele>913.60900000000004</ele>
        <time>2026-04-25T09:06:16Z</time>
      </trkpt>
      <trkpt lat="40.674558011814952" lon="-2.570831961929798">
        <ele>914.06100000000004</ele>
        <time>2026-04-25T09:06:18Z</time>
      </trkpt>
      <trkpt lat="40.674557005986571" lon="-2.570798015221953">
        <ele>914.625</ele>
        <time>2026-04-25T09:06:20Z</time>
      </trkpt>
      <trkpt lat="40.674543008208275" lon="-2.570762978866696">
        <ele>915.00999999999999</ele>
        <time>2026-04-25T09:06:22Z</time>
      </trkpt>
      <trkpt lat="40.67453102208674" lon="-2.570727020502091">
        <ele>915.25</ele>
        <time>2026-04-25T09:06:24Z</time>
      </trkpt>
      <trkpt lat="40.674522975459695" lon="-2.570702964439988">
        <ele>915.42600000000004</ele>
        <time>2026-04-25T09:06:25Z</time>
      </trkpt>
      <trkpt lat="40.674509983509779" lon="-2.570679998025298">
        <ele>915.45799999999997</ele>
        <time>2026-04-25T09:06:26Z</time>
      </trkpt>
      <trkpt lat="40.674499003216624" lon="-2.570655019953847">
        <ele>915.41700000000003</ele>
        <time>2026-04-25T09:06:27Z</time>
      </trkpt>
      <trkpt lat="40.67449196241796" lon="-2.570630041882396">
        <ele>915.61800000000005</ele>
        <time>2026-04-25T09:06:28Z</time>
      </trkpt>
      <trkpt lat="40.674483999609947" lon="-2.570605985820293">
        <ele>915.83299999999997</ele>
        <time>2026-04-25T09:06:29Z</time>
      </trkpt>
      <trkpt lat="40.674476958811283" lon="-2.570583019405603">
        <ele>915.82500000000005</ele>
        <time>2026-04-25T09:06:30Z</time>
      </trkpt>
      <trkpt lat="40.67446799017489" lon="-2.570558041334152">
        <ele>915.82600000000002</ele>
        <time>2026-04-25T09:06:31Z</time>
      </trkpt>
      <trkpt lat="40.674458015710115" lon="-2.570531973615289">
        <ele>915.80799999999999</ele>
        <time>2026-04-25T09:06:32Z</time>
      </trkpt>
      <trkpt lat="40.6744450237602" lon="-2.570508001372218">
        <ele>915.80899999999997</ele>
        <time>2026-04-25T09:06:33Z</time>
      </trkpt>
      <trkpt lat="40.674431025981903" lon="-2.570483023300767">
        <ele>915.81399999999996</ele>
        <time>2026-04-25T09:06:34Z</time>
      </trkpt>
      <trkpt lat="40.674414010718465" lon="-2.570456033572555">
        <ele>916.07799999999997</ele>
        <time>2026-04-25T09:06:35Z</time>
      </trkpt>
      <trkpt lat="40.674396995455027" lon="-2.570430971682072">
        <ele>915.89300000000003</ele>
        <time>2026-04-25T09:06:36Z</time>
      </trkpt>
      <trkpt lat="40.67438199184835" lon="-2.570411022752523">
        <ele>916.09299999999996</ele>
        <time>2026-04-25T09:06:37Z</time>
      </trkpt>
      <trkpt lat="40.67436195909977" lon="-2.570385960862041">
        <ele>916.279</ele>
        <time>2026-04-25T09:06:38Z</time>
      </trkpt>
      <trkpt lat="40.674341004341841" lon="-2.570360982790589">
        <ele>916.471</ele>
        <time>2026-04-25T09:06:39Z</time>
      </trkpt>
      <trkpt lat="40.67431996576488" lon="-2.57033902220428">
        <ele>916.49000000000001</ele>
        <time>2026-04-25T09:06:40Z</time>
      </trkpt>
      <trkpt lat="40.674298005178571" lon="-2.5703189894557">
        <ele>916.42100000000005</ele>
        <time>2026-04-25T09:06:41Z</time>
      </trkpt>
      <trkpt lat="40.67427302710712" lon="-2.570294011384249">
        <ele>916.46600000000001</ele>
        <time>2026-04-25T09:06:42Z</time>
      </trkpt>
      <trkpt lat="40.674249976873398" lon="-2.570274984464049">
        <ele>916.45100000000002</ele>
        <time>2026-04-25T09:06:43Z</time>
      </trkpt>
      <trkpt lat="40.674223992973566" lon="-2.570254029706121">
        <ele>916.40099999999995</ele>
        <time>2026-04-25T09:06:44Z</time>
      </trkpt>
      <trkpt lat="40.674203038215637" lon="-2.570233996957541">
        <ele>916.21100000000001</ele>
        <time>2026-04-25T09:06:45Z</time>
      </trkpt>
      <trkpt lat="40.674148974940181" lon="-2.570202983915806">
        <ele>916.40899999999999</ele>
        <time>2026-04-25T09:06:47Z</time>
      </trkpt>
      <trkpt lat="40.674086026847363" lon="-2.570194015279412">
        <ele>916.827</ele>
        <time>2026-04-25T09:06:49Z</time>
      </trkpt>
      <trkpt lat="40.674057025462389" lon="-2.570187980309129">
        <ele>916.62099999999998</ele>
        <time>2026-04-25T09:06:50Z</time>
      </trkpt>
      <trkpt lat="40.674035986885428" lon="-2.570179011672735">
        <ele>916.64599999999996</ele>
        <time>2026-04-25T09:06:51Z</time>
      </trkpt>
      <trkpt lat="40.674011008813977" lon="-2.570171970874071">
        <ele>916.65599999999995</ele>
        <time>2026-04-25T09:06:52Z</time>
      </trkpt>
      <trkpt lat="40.673987036570907" lon="-2.570168031379581">
        <ele>916.822</ele>
        <time>2026-04-25T09:06:53Z</time>
      </trkpt>
      <trkpt lat="40.673964992165565" lon="-2.570170965045691">
        <ele>917.01400000000001</ele>
        <time>2026-04-25T09:06:54Z</time>
      </trkpt>
      <trkpt lat="40.673939008265734" lon="-2.570171970874071">
        <ele>917.04300000000001</ele>
        <time>2026-04-25T09:06:55Z</time>
      </trkpt>
      <trkpt lat="40.673914030194283" lon="-2.570172976702452">
        <ele>917.01400000000001</ele>
        <time>2026-04-25T09:06:56Z</time>
      </trkpt>
      <trkpt lat="40.673891985788941" lon="-2.570169037207961">
        <ele>917.279</ele>
        <time>2026-04-25T09:06:57Z</time>
      </trkpt>
      <trkpt lat="40.673872958868742" lon="-2.570157973095775">
        <ele>917.47900000000004</ele>
        <time>2026-04-25T09:06:59Z</time>
      </trkpt>
      <trkpt lat="40.673853009939194" lon="-2.570149004459381">
        <ele>917.40499999999997</ele>
        <time>2026-04-25T09:07:01Z</time>
      </trkpt>
      <trkpt lat="40.673830965533853" lon="-2.570135006681085">
        <ele>917.42499999999995</ele>
        <time>2026-04-25T09:07:03Z</time>
      </trkpt>
      <trkpt lat="40.673798024654388" lon="-2.570114973932505">
        <ele>917.40899999999999</ele>
        <time>2026-04-25T09:07:05Z</time>
      </trkpt>
      <trkpt lat="40.673767011612654" lon="-2.570109022781253">
        <ele>917.81899999999996</ele>
        <time>2026-04-25T09:07:07Z</time>
      </trkpt>
      <trkpt lat="40.673742033541203" lon="-2.570112040266395">
        <ele>918.22299999999996</ele>
        <time>2026-04-25T09:07:09Z</time>
      </trkpt>
      <trkpt lat="40.673691993579268" lon="-2.570102987810969">
        <ele>918.44799999999998</ele>
        <time>2026-04-25T09:07:12Z</time>
      </trkpt>
      <trkpt lat="40.673661986365914" lon="-2.570106005296111">
        <ele>918.66800000000001</ele>
        <time>2026-04-25T09:07:14Z</time>
      </trkpt>
      <trkpt lat="40.67363197915256" lon="-2.570112040266395">
        <ele>918.83399999999995</ele>
        <time>2026-04-25T09:07:16Z</time>
      </trkpt>
      <trkpt lat="40.673599960282445" lon="-2.570115979760885">
        <ele>919.24599999999998</ele>
        <time>2026-04-25T09:07:18Z</time>
      </trkpt>
      <trkpt lat="40.673575988039374" lon="-2.570113968104124">
        <ele>919.255</ele>
        <time>2026-04-25T09:07:20Z</time>
      </trkpt>
      <trkpt lat="40.673554027453065" lon="-2.570107011124492">
        <ele>919.64599999999996</ele>
        <time>2026-04-25T09:07:22Z</time>
      </trkpt>
      <trkpt lat="40.673533994704485" lon="-2.570095025002956">
        <ele>920.29100000000005</ele>
        <time>2026-04-25T09:07:24Z</time>
      </trkpt>
      <trkpt lat="40.673513961955905" lon="-2.570089995861054">
        <ele>920.84400000000005</ele>
        <time>2026-04-25T09:07:28Z</time>
      </trkpt>
      <trkpt lat="40.673492001369596" lon="-2.570104999467731">
        <ele>921.005</ele>
        <time>2026-04-25T09:07:30Z</time>
      </trkpt>
      <trkpt lat="40.673470040783286" lon="-2.57010399363935">
        <ele>921.21500000000003</ele>
        <time>2026-04-25T09:07:31Z</time>
      </trkpt>
      <trkpt lat="40.673440033569932" lon="-2.570111034438014">
        <ele>921.60900000000004</ele>
        <time>2026-04-25T09:07:33Z</time>
      </trkpt>
      <trkpt lat="40.673412960022688" lon="-2.570114973932505">
        <ele>921.82600000000002</ele>
        <time>2026-04-25T09:07:35Z</time>
      </trkpt>
      <trkpt lat="40.673388987779617" lon="-2.570115979760885">
        <ele>922.02999999999997</ele>
        <time>2026-04-25T09:07:37Z</time>
      </trkpt>
      <trkpt lat="40.673360992223024" lon="-2.570121008902788">
        <ele>922.48500000000001</ele>
        <time>2026-04-25T09:07:39Z</time>
      </trkpt>
      <trkpt lat="40.673346994444728" lon="-2.570141041651368">
        <ele>922.84500000000003</ele>
        <time>2026-04-25T09:07:41Z</time>
      </trkpt>
      <trkpt lat="40.673326961696148" lon="-2.570144981145859">
        <ele>923.05100000000004</ele>
        <time>2026-04-25T09:07:42Z</time>
      </trkpt>
      <trkpt lat="40.673235012218356" lon="-2.570172976702452">
        <ele>924.26300000000003</ele>
        <time>2026-04-25T09:07:49Z</time>
      </trkpt>
      <trkpt lat="40.673139039427042" lon="-2.57021002471447">
        <ele>925.84199999999998</ele>
        <time>2026-04-25T09:07:57Z</time>
      </trkpt>
      <trkpt lat="40.673042982816696" lon="-2.57021002471447">
        <ele>927.81299999999999</ele>
        <time>2026-04-25T09:08:07Z</time>
      </trkpt>
      <trkpt lat="40.672952039167285" lon="-2.570161996409297">
        <ele>929.23800000000006</ele>
        <time>2026-04-25T09:08:16Z</time>
      </trkpt>
      <trkpt lat="40.672869980335236" lon="-2.570094019174576">
        <ele>931.43200000000002</ele>
        <time>2026-04-25T09:08:27Z</time>
      </trkpt>
      <trkpt lat="40.672786999493837" lon="-2.570019001141191">
        <ele>932.09199999999998</ele>
        <time>2026-04-25T09:08:34Z</time>
      </trkpt>
      <trkpt lat="40.672690020874143" lon="-2.569971978664398">
        <ele>932.81100000000004</ele>
        <time>2026-04-25T09:08:40Z</time>
      </trkpt>
      <trkpt lat="40.672592958435416" lon="-2.569942977279425">
        <ele>933.00900000000001</ele>
        <time>2026-04-25T09:08:46Z</time>
      </trkpt>
      <trkpt lat="40.672483993694186" lon="-2.569898972287774">
        <ele>933.69500000000005</ele>
        <time>2026-04-25T09:08:52Z</time>
      </trkpt>
      <trkpt lat="40.67240403033793" lon="-2.56982596591115">
        <ele>934.01900000000001</ele>
        <time>2026-04-25T09:08:57Z</time>
      </trkpt>
      <trkpt lat="40.672307973727584" lon="-2.569779027253389">
        <ele>934.48400000000004</ele>
        <time>2026-04-25T09:09:02Z</time>
      </trkpt>
      <trkpt lat="40.672217030078173" lon="-2.569707026705146">
        <ele>934.69399999999996</ele>
        <time>2026-04-25T09:09:07Z</time>
      </trkpt>
      <trkpt lat="40.672119967639446" lon="-2.569635026156902">
        <ele>935.48000000000002</ele>
        <time>2026-04-25T09:09:12Z</time>
      </trkpt>
      <trkpt lat="40.672032041475177" lon="-2.569561013951898">
        <ele>936.06200000000001</ele>
        <time>2026-04-25T09:09:16Z</time>
      </trkpt>
      <trkpt lat="40.671957023441792" lon="-2.569461017847061">
        <ele>936.62099999999998</ele>
        <time>2026-04-25T09:09:20Z</time>
      </trkpt>
      <trkpt lat="40.671915030106902" lon="-2.569410977885127">
        <ele>936.87199999999996</ele>
        <time>2026-04-25T09:09:22Z</time>
      </trkpt>
      <trkpt lat="40.671887034550309" lon="-2.56937300786376">
        <ele>937.05700000000002</ele>
        <time>2026-04-25T09:09:24Z</time>
      </trkpt>
      <trkpt lat="40.671872030943632" lon="-2.569343000650406">
        <ele>937.01800000000003</ele>
        <time>2026-04-25T09:09:26Z</time>
      </trkpt>
      <trkpt lat="40.671791983768344" lon="-2.569261025637388">
        <ele>937.49800000000005</ele>
        <time>2026-04-25T09:09:30Z</time>
      </trkpt>
      <trkpt lat="40.671771029010415" lon="-2.569243004545569">
        <ele>937.41700000000003</ele>
        <time>2026-04-25T09:09:31Z</time>
      </trkpt>
      <trkpt lat="40.671756025403738" lon="-2.569217020645738">
        <ele>937.80899999999997</ele>
        <time>2026-04-25T09:09:32Z</time>
      </trkpt>
      <trkpt lat="40.671741021797061" lon="-2.569190030917525">
        <ele>937.85299999999995</ele>
        <time>2026-04-25T09:09:33Z</time>
      </trkpt>
      <trkpt lat="40.671726018190384" lon="-2.569166980683804">
        <ele>937.85699999999997</ele>
        <time>2026-04-25T09:09:34Z</time>
      </trkpt>
      <trkpt lat="40.671707997098565" lon="-2.569136973470449">
        <ele>937.88199999999995</ele>
        <time>2026-04-25T09:09:35Z</time>
      </trkpt>
      <trkpt lat="40.671693999320269" lon="-2.569118030369282">
        <ele>938.05200000000002</ele>
        <time>2026-04-25T09:09:36Z</time>
      </trkpt>
      <trkpt lat="40.671663992106915" lon="-2.569004036486149">
        <ele>938.69799999999998</ele>
        <time>2026-04-25T09:09:40Z</time>
      </trkpt>
      <trkpt lat="40.671647982671857" lon="-2.568898005411029">
        <ele>939.01999999999998</ele>
        <time>2026-04-25T09:09:43Z</time>
      </trkpt>
      <trkpt lat="40.671643037348986" lon="-2.568865986540914">
        <ele>939.25900000000001</ele>
        <time>2026-04-25T09:09:44Z</time>
      </trkpt>
      <trkpt lat="40.671635996550322" lon="-2.568833967670798">
        <ele>939.21000000000004</ele>
        <time>2026-04-25T09:09:45Z</time>
      </trkpt>
      <trkpt lat="40.671629039570689" lon="-2.568803038448095">
        <ele>939.495</ele>
        <time>2026-04-25T09:09:46Z</time>
      </trkpt>
      <trkpt lat="40.671620992943645" lon="-2.568776970729232">
        <ele>939.46299999999997</ele>
        <time>2026-04-25T09:09:47Z</time>
      </trkpt>
      <trkpt lat="40.671609006822109" lon="-2.568755010142922">
        <ele>939.44399999999996</ele>
        <time>2026-04-25T09:09:48Z</time>
      </trkpt>
      <trkpt lat="40.671597020700574" lon="-2.568731037899852">
        <ele>939.61800000000005</ele>
        <time>2026-04-25T09:09:49Z</time>
      </trkpt>
      <trkpt lat="40.671587968245149" lon="-2.568704970180988">
        <ele>939.60900000000004</ele>
        <time>2026-04-25T09:09:50Z</time>
      </trkpt>
      <trkpt lat="40.671583022922277" lon="-2.568668005988002">
        <ele>939.83799999999997</ele>
        <time>2026-04-25T09:09:51Z</time>
      </trkpt>
      <trkpt lat="40.671576987951994" lon="-2.568639004603028">
        <ele>939.83199999999999</ele>
        <time>2026-04-25T09:09:52Z</time>
      </trkpt>
      <trkpt lat="40.671569025143981" lon="-2.568604974076152">
        <ele>939.84699999999998</ele>
        <time>2026-04-25T09:09:53Z</time>
      </trkpt>
      <trkpt lat="40.671559972688556" lon="-2.568575972691178">
        <ele>940.09699999999998</ele>
        <time>2026-04-25T09:09:54Z</time>
      </trkpt>
      <trkpt lat="40.671551004052162" lon="-2.568549988791347">
        <ele>940.02300000000002</ele>
        <time>2026-04-25T09:09:55Z</time>
      </trkpt>
      <trkpt lat="40.671543041244149" lon="-2.568526016548276">
        <ele>940.08500000000004</ele>
        <time>2026-04-25T09:09:56Z</time>
      </trkpt>
      <trkpt lat="40.671534994617105" lon="-2.568495003506541">
        <ele>940.05399999999997</ele>
        <time>2026-04-25T09:09:57Z</time>
      </trkpt>
      <trkpt lat="40.671527031809092" lon="-2.568466002121568">
        <ele>940.14499999999998</ele>
        <time>2026-04-25T09:09:58Z</time>
      </trkpt>
      <trkpt lat="40.671523008495569" lon="-2.568431971594691">
        <ele>940.13999999999999</ele>
        <time>2026-04-25T09:10:00Z</time>
      </trkpt>
      <trkpt lat="40.671514039859176" lon="-2.568392995744944">
        <ele>940.24400000000003</ele>
        <time>2026-04-25T09:10:02Z</time>
      </trkpt>
      <trkpt lat="40.671476991847157" lon="-2.568280007690191">
        <ele>940.40499999999997</ele>
        <time>2026-04-25T09:10:07Z</time>
      </trkpt>
      <trkpt lat="40.671432986855507" lon="-2.56817196495831">
        <ele>941.01499999999999</ele>
        <time>2026-04-25T09:10:13Z</time>
      </trkpt>
      <trkpt lat="40.67135201767087" lon="-2.568089989945293">
        <ele>940.80899999999997</ele>
        <time>2026-04-25T09:10:18Z</time>
      </trkpt>
      <trkpt lat="40.671268031001091" lon="-2.568014971911907">
        <ele>941.43600000000004</ele>
        <time>2026-04-25T09:10:22Z</time>
      </trkpt>
      <trkpt lat="40.671175997704268" lon="-2.56793299689889">
        <ele>941.65999999999997</ele>
        <time>2026-04-25T09:10:26Z</time>
      </trkpt>
      <trkpt lat="40.671110032126307" lon="-2.567878011614084">
        <ele>941.63499999999999</ele>
        <time>2026-04-25T09:10:28Z</time>
      </trkpt>
      <trkpt lat="40.671083964407444" lon="-2.567860996350646">
        <ele>941.81500000000005</ele>
        <time>2026-04-25T09:10:29Z</time>
      </trkpt>
      <trkpt lat="40.671047000214458" lon="-2.567854961380363">
        <ele>942.23099999999999</ele>
        <time>2026-04-25T09:10:33Z</time>
      </trkpt>
      <trkpt lat="40.671025039628148" lon="-2.567844986915588">
        <ele>942.21299999999997</ele>
        <time>2026-04-25T09:10:34Z</time>
      </trkpt>
      <trkpt lat="40.670992014929652" lon="-2.56784699857235">
        <ele>942.49199999999996</ele>
        <time>2026-04-25T09:10:36Z</time>
      </trkpt>
      <trkpt lat="40.670958990231156" lon="-2.567837024107575">
        <ele>942.49300000000005</ele>
        <time>2026-04-25T09:10:38Z</time>
      </trkpt>
      <trkpt lat="40.670930994674563" lon="-2.567823026329279">
        <ele>942.62800000000004</ele>
        <time>2026-04-25T09:10:39Z</time>
      </trkpt>
      <trkpt lat="40.67090199328959" lon="-2.567811040207744">
        <ele>942.84900000000005</ele>
        <time>2026-04-25T09:10:40Z</time>
      </trkpt>
      <trkpt lat="40.670866034924984" lon="-2.567795030772686">
        <ele>942.80200000000002</ele>
        <time>2026-04-25T09:10:41Z</time>
      </trkpt>
      <trkpt lat="40.67083602771163" lon="-2.567780027166009">
        <ele>942.822</ele>
        <time>2026-04-25T09:10:42Z</time>
      </trkpt>
      <trkpt lat="40.670805014669895" lon="-2.567766029387713">
        <ele>943.00900000000001</ele>
        <time>2026-04-25T09:10:43Z</time>
      </trkpt>
      <trkpt lat="40.670771989971399" lon="-2.567757982760668">
        <ele>942.89599999999996</ele>
        <time>2026-04-25T09:10:44Z</time>
      </trkpt>
      <trkpt lat="40.670741982758045" lon="-2.567748008295894">
        <ele>943.04999999999995</ele>
        <time>2026-04-25T09:10:45Z</time>
      </trkpt>
      <trkpt lat="40.670712981373072" lon="-2.567742979153991">
        <ele>943.01499999999999</ele>
        <time>2026-04-25T09:10:46Z</time>
      </trkpt>
      <trkpt lat="40.670690014958382" lon="-2.5677390396595">
        <ele>943.08500000000004</ele>
        <time>2026-04-25T09:10:47Z</time>
      </trkpt>
      <trkpt lat="40.67066503688693" lon="-2.567731998860836">
        <ele>943.221</ele>
        <time>2026-04-25T09:10:48Z</time>
      </trkpt>
      <trkpt lat="40.670637963339686" lon="-2.567730993032455">
        <ele>943.45299999999997</ele>
        <time>2026-04-25T09:10:49Z</time>
      </trkpt>
      <trkpt lat="40.670612985268235" lon="-2.567727975547314">
        <ele>943.24199999999996</ele>
        <time>2026-04-25T09:10:50Z</time>
      </trkpt>
      <trkpt lat="40.670590018853545" lon="-2.567725963890553">
        <ele>943.64300000000003</ele>
        <time>2026-04-25T09:10:51Z</time>
      </trkpt>
      <trkpt lat="40.670565962791443" lon="-2.567723030224443">
        <ele>943.65800000000002</ele>
        <time>2026-04-25T09:10:52Z</time>
      </trkpt>
      <trkpt lat="40.670541990548372" lon="-2.567724036052823">
        <ele>943.822</ele>
        <time>2026-04-25T09:10:53Z</time>
      </trkpt>
      <trkpt lat="40.670520029962063" lon="-2.567720012739301">
        <ele>943.66200000000003</ele>
        <time>2026-04-25T09:10:54Z</time>
      </trkpt>
      <trkpt lat="40.670496979728341" lon="-2.567711966112256">
        <ele>943.80799999999999</ele>
        <time>2026-04-25T09:10:55Z</time>
      </trkpt>
      <trkpt lat="40.670473007485271" lon="-2.567702997475863">
        <ele>944.00900000000001</ele>
        <time>2026-04-25T09:10:56Z</time>
      </trkpt>
      <trkpt lat="40.67045004107058" lon="-2.567692017182708">
        <ele>944.06399999999996</ele>
        <time>2026-04-25T09:10:57Z</time>
      </trkpt>
      <trkpt lat="40.670427996665239" lon="-2.567679025232792">
        <ele>944.07799999999997</ele>
        <time>2026-04-25T09:10:58Z</time>
      </trkpt>
      <trkpt lat="40.670405030250549" lon="-2.567666033282876">
        <ele>944.49300000000005</ele>
        <time>2026-04-25T09:10:59Z</time>
      </trkpt>
      <trkpt lat="40.670380974188447" lon="-2.56765304133296">
        <ele>944.47299999999996</ele>
        <time>2026-04-25T09:11:00Z</time>
      </trkpt>
      <trkpt lat="40.670359013602138" lon="-2.567642983049154">
        <ele>944.68899999999996</ele>
        <time>2026-04-25T09:11:01Z</time>
      </trkpt>
      <trkpt lat="40.670337975025177" lon="-2.567630996927619">
        <ele>944.63099999999997</ele>
        <time>2026-04-25T09:11:02Z</time>
      </trkpt>
      <trkpt lat="40.670316014438868" lon="-2.567621022462845">
        <ele>944.80999999999995</ele>
        <time>2026-04-25T09:11:03Z</time>
      </trkpt>
      <trkpt lat="40.670294975861907" lon="-2.567614987492561">
        <ele>945.02099999999996</ele>
        <time>2026-04-25T09:11:04Z</time>
      </trkpt>
      <trkpt lat="40.670269997790456" lon="-2.56760903634131">
        <ele>945.08600000000001</ele>
        <time>2026-04-25T09:11:05Z</time>
      </trkpt>
      <trkpt lat="40.670245019719005" lon="-2.567597972229123">
        <ele>945.05799999999999</ele>
        <time>2026-04-25T09:11:06Z</time>
      </trkpt>
      <trkpt lat="40.670216018334031" lon="-2.56758900359273">
        <ele>945.25199999999995</ele>
        <time>2026-04-25T09:11:07Z</time>
      </trkpt>
      <trkpt lat="40.670190034434199" lon="-2.567580034956336">
        <ele>945.01700000000005</ele>
        <time>2026-04-25T09:11:08Z</time>
      </trkpt>
      <trkpt lat="40.670161033049226" lon="-2.56756997667253">
        <ele>945.40899999999999</ele>
        <time>2026-04-25T09:11:09Z</time>
      </trkpt>
      <trkpt lat="40.670133037492633" lon="-2.567563019692898">
        <ele>945.42700000000002</ele>
        <time>2026-04-25T09:11:10Z</time>
      </trkpt>
      <trkpt lat="40.670105963945389" lon="-2.567555978894234">
        <ele>945.46100000000001</ele>
        <time>2026-04-25T09:11:11Z</time>
      </trkpt>
      <trkpt lat="40.670081991702318" lon="-2.567549021914601">
        <ele>945.476</ele>
        <time>2026-04-25T09:11:12Z</time>
      </trkpt>
      <trkpt lat="40.670060031116009" lon="-2.567534018307924">
        <ele>945.44600000000003</ele>
        <time>2026-04-25T09:11:13Z</time>
      </trkpt>
      <trkpt lat="40.670036980882287" lon="-2.567514991387725">
        <ele>945.49199999999996</ele>
        <time>2026-04-25T09:11:14Z</time>
      </trkpt>
      <trkpt lat="40.670015020295978" lon="-2.567499987781048">
        <ele>945.42399999999998</ele>
        <time>2026-04-25T09:11:15Z</time>
      </trkpt>
      <trkpt lat="40.669996999204159" lon="-2.567490013316274">
        <ele>945.48299999999995</ele>
        <time>2026-04-25T09:11:16Z</time>
      </trkpt>
      <trkpt lat="40.669970009475946" lon="-2.567484984174371">
        <ele>945.61400000000003</ele>
        <time>2026-04-25T09:11:18Z</time>
      </trkpt>
      <trkpt lat="40.669954000040889" lon="-2.567470986396074">
        <ele>945.65899999999999</ele>
        <time>2026-04-25T09:11:23Z</time>
      </trkpt>
      <trkpt lat="40.669932039454579" lon="-2.567455982789397">
        <ele>945.67399999999998</ele>
        <time>2026-04-25T09:11:30Z</time>
      </trkpt>
      <trkpt lat="40.669914018362761" lon="-2.567448019981384">
        <ele>945.85599999999999</ele>
        <time>2026-04-25T09:11:32Z</time>
      </trkpt>
      <trkpt lat="40.6698929797858" lon="-2.567428993061185">
        <ele>946.02099999999996</ele>
        <time>2026-04-25T09:11:35Z</time>
      </trkpt>
      <trkpt lat="40.669874036684632" lon="-2.567413989454508">
        <ele>946.00900000000001</ele>
        <time>2026-04-25T09:11:37Z</time>
      </trkpt>
      <trkpt lat="40.669858027249575" lon="-2.56739697419107">
        <ele>946.28899999999999</ele>
        <time>2026-04-25T09:11:39Z</time>
      </trkpt>
      <trkpt lat="40.669835982844234" lon="-2.567388005554676">
        <ele>946.08299999999997</ele>
        <time>2026-04-25T09:11:41Z</time>
      </trkpt>
      <trkpt lat="40.669815028086305" lon="-2.56737400777638">
        <ele>946.09799999999996</ele>
        <time>2026-04-25T09:11:43Z</time>
      </trkpt>
      <trkpt lat="40.669798012822866" lon="-2.567345006391406">
        <ele>946.27800000000002</ele>
        <time>2026-04-25T09:11:45Z</time>
      </trkpt>
      <trkpt lat="40.66978401504457" lon="-2.567312987521291">
        <ele>946.25400000000002</ele>
        <time>2026-04-25T09:11:47Z</time>
      </trkpt>
      <trkpt lat="40.669768005609512" lon="-2.567281974479556">
        <ele>946.05600000000004</ele>
        <time>2026-04-25T09:11:49Z</time>
      </trkpt>
      <trkpt lat="40.669745961204171" lon="-2.567256996408105">
        <ele>945.875</ele>
        <time>2026-04-25T09:11:51Z</time>
      </trkpt>
      <trkpt lat="40.669722994789481" lon="-2.567238975316286">
        <ele>946.25599999999997</ele>
        <time>2026-04-25T09:11:53Z</time>
      </trkpt>
      <trkpt lat="40.669697010889649" lon="-2.567231012508273">
        <ele>946.23099999999999</ele>
        <time>2026-04-25T09:11:55Z</time>
      </trkpt>
      <trkpt lat="40.669669015333056" lon="-2.56722497753799">
        <ele>946.22500000000002</ele>
        <time>2026-04-25T09:11:57Z</time>
      </trkpt>
      <trkpt lat="40.669641019776464" lon="-2.567217014729977">
        <ele>946.42600000000004</ele>
        <time>2026-04-25T09:11:59Z</time>
      </trkpt>
      <trkpt lat="40.669616963714361" lon="-2.5672020111233">
        <ele>946.40800000000002</ele>
        <time>2026-04-25T09:12:01Z</time>
      </trkpt>
      <trkpt lat="40.669599026441574" lon="-2.567192036658526">
        <ele>946.60900000000004</ele>
        <time>2026-04-25T09:12:03Z</time>
      </trkpt>
      <trkpt lat="40.669570025056601" lon="-2.56718197837472">
        <ele>946.61400000000003</ele>
        <time>2026-04-25T09:12:06Z</time>
      </trkpt>
      <trkpt lat="40.669550998136401" lon="-2.567176027223468">
        <ele>946.88800000000003</ele>
        <time>2026-04-25T09:12:07Z</time>
      </trkpt>
      <trkpt lat="40.669529037550092" lon="-2.567164963111281">
        <ele>946.84299999999996</ele>
        <time>2026-04-25T09:12:08Z</time>
      </trkpt>
      <trkpt lat="40.669503975659609" lon="-2.56715901196003">
        <ele>946.87300000000005</ele>
        <time>2026-04-25T09:12:09Z</time>
      </trkpt>
      <trkpt lat="40.669474974274635" lon="-2.567154988646507">
        <ele>947.04899999999998</ele>
        <time>2026-04-25T09:12:10Z</time>
      </trkpt>
      <trkpt lat="40.669446978718042" lon="-2.567150965332985">
        <ele>947.05100000000004</ele>
        <time>2026-04-25T09:12:11Z</time>
      </trkpt>
      <trkpt lat="40.669414959847927" lon="-2.567145014181733">
        <ele>947.28999999999996</ele>
        <time>2026-04-25T09:12:12Z</time>
      </trkpt>
      <trkpt lat="40.669387970119715" lon="-2.567140990868211">
        <ele>947.23099999999999</ele>
        <time>2026-04-25T09:12:13Z</time>
      </trkpt>
      <trkpt lat="40.669362992048264" lon="-2.567135039716959">
        <ele>947.25599999999997</ele>
        <time>2026-04-25T09:12:14Z</time>
      </trkpt>
      <trkpt lat="40.669339019805193" lon="-2.567125987261534">
        <ele>947.23099999999999</ele>
        <time>2026-04-25T09:12:15Z</time>
      </trkpt>
      <trkpt lat="40.669309012591839" lon="-2.567112995311618">
        <ele>947.26099999999997</ele>
        <time>2026-04-25T09:12:16Z</time>
      </trkpt>
      <trkpt lat="40.669280011206865" lon="-2.56709698587656">
        <ele>947.20699999999999</ele>
        <time>2026-04-25T09:12:17Z</time>
      </trkpt>
      <trkpt lat="40.669250003993511" lon="-2.567082988098264">
        <ele>947.40899999999999</ele>
        <time>2026-04-25T09:12:18Z</time>
      </trkpt>
      <trkpt lat="40.669217985123396" lon="-2.56707301363349">
        <ele>947.255</ele>
        <time>2026-04-25T09:12:19Z</time>
      </trkpt>
      <trkpt lat="40.6691849604249" lon="-2.567071001976728">
        <ele>947.21900000000005</ele>
        <time>2026-04-25T09:12:20Z</time>
      </trkpt>
      <trkpt lat="40.669152019545436" lon="-2.567071001976728">
        <ele>947.23400000000004</ele>
        <time>2026-04-25T09:12:21Z</time>
      </trkpt>
      <trkpt lat="40.66911899484694" lon="-2.567069996148348">
        <ele>947.64400000000001</ele>
        <time>2026-04-25T09:12:22Z</time>
      </trkpt>
      <trkpt lat="40.669085970148444" lon="-2.567071001976728">
        <ele>947.40999999999997</ele>
        <time>2026-04-25T09:12:23Z</time>
      </trkpt>
      <trkpt lat="40.669052023440599" lon="-2.567068990319967">
        <ele>947.41200000000003</ele>
        <time>2026-04-25T09:12:24Z</time>
      </trkpt>
      <trkpt lat="40.669021010398865" lon="-2.567067984491587">
        <ele>947.41099999999994</ele>
        <time>2026-04-25T09:12:25Z</time>
      </trkpt>
      <trkpt lat="40.668991003185511" lon="-2.567065972834826">
        <ele>947.49199999999996</ele>
        <time>2026-04-25T09:12:26Z</time>
      </trkpt>
      <trkpt lat="40.668960995972157" lon="-2.567065972834826">
        <ele>947.45699999999999</ele>
        <time>2026-04-25T09:12:27Z</time>
      </trkpt>
      <trkpt lat="40.668930988758802" lon="-2.567071001976728">
        <ele>947.28200000000004</ele>
        <time>2026-04-25T09:12:28Z</time>
      </trkpt>
      <trkpt lat="40.668900981545448" lon="-2.56707401946187">
        <ele>947.44299999999998</ele>
        <time>2026-04-25T09:12:29Z</time>
      </trkpt>
      <trkpt lat="40.668871980160475" lon="-2.567077036947012">
        <ele>947.21699999999998</ele>
        <time>2026-04-25T09:12:30Z</time>
      </trkpt>
      <trkpt lat="40.668844990432262" lon="-2.567079970613122">
        <ele>947.40899999999999</ele>
        <time>2026-04-25T09:12:31Z</time>
      </trkpt>
      <trkpt lat="40.668820012360811" lon="-2.567081982269883">
        <ele>947.63999999999999</ele>
        <time>2026-04-25T09:12:32Z</time>
      </trkpt>
      <trkpt lat="40.66879696212709" lon="-2.567081982269883">
        <ele>947.88400000000001</ele>
        <time>2026-04-25T09:12:33Z</time>
      </trkpt>
      <trkpt lat="40.668776007369161" lon="-2.567077036947012">
        <ele>948.06899999999996</ele>
        <time>2026-04-25T09:12:34Z</time>
      </trkpt>
      <trkpt lat="40.668755974620581" lon="-2.567072007805109">
        <ele>948.25900000000001</ele>
        <time>2026-04-25T09:12:35Z</time>
      </trkpt>
      <trkpt lat="40.668735019862652" lon="-2.567061027511954">
        <ele>948.65499999999997</ele>
        <time>2026-04-25T09:12:36Z</time>
      </trkpt>
      <trkpt lat="40.668712975457311" lon="-2.567043006420136">
        <ele>948.85699999999997</ele>
        <time>2026-04-25T09:12:37Z</time>
      </trkpt>
      <trkpt lat="40.668690009042621" lon="-2.567018028348684">
        <ele>948.83600000000001</ele>
        <time>2026-04-25T09:12:38Z</time>
      </trkpt>
      <trkpt lat="40.668665030971169" lon="-2.566991960629821">
        <ele>949.06700000000001</ele>
        <time>2026-04-25T09:12:39Z</time>
      </trkpt>
      <trkpt lat="40.668640974909067" lon="-2.56696798838675">
        <ele>949.05200000000002</ele>
        <time>2026-04-25T09:12:40Z</time>
      </trkpt>
      <trkpt lat="40.668614991009235" lon="-2.56694401614368">
        <ele>949.245</ele>
        <time>2026-04-25T09:12:41Z</time>
      </trkpt>
      <trkpt lat="40.668588001281023" lon="-2.566921971738339">
        <ele>949.24699999999996</ele>
        <time>2026-04-25T09:12:42Z</time>
      </trkpt>
      <trkpt lat="40.668561011552811" lon="-2.566903028637171">
        <ele>949.21100000000001</ele>
        <time>2026-04-25T09:12:43Z</time>
      </trkpt>
      <trkpt lat="40.668534021824598" lon="-2.566885007545352">
        <ele>949.40899999999999</ele>
        <time>2026-04-25T09:12:44Z</time>
      </trkpt>
      <trkpt lat="40.668508037924767" lon="-2.566868998110294">
        <ele>949.45600000000002</ele>
        <time>2026-04-25T09:12:45Z</time>
      </trkpt>
      <trkpt lat="40.668481970205903" lon="-2.566852988675237">
        <ele>949.47000000000003</ele>
        <time>2026-04-25T09:12:46Z</time>
      </trkpt>
      <trkpt lat="40.66845397464931" lon="-2.566841002553701">
        <ele>949.68499999999995</ele>
        <time>2026-04-25T09:12:47Z</time>
      </trkpt>
      <trkpt lat="40.668425979092717" lon="-2.566833039745688">
        <ele>949.66499999999996</ele>
        <time>2026-04-25T09:12:48Z</time>
      </trkpt>
      <trkpt lat="40.668398989364505" lon="-2.566822981461883">
        <ele>949.89099999999996</ele>
        <time>2026-04-25T09:12:49Z</time>
      </trkpt>
      <trkpt lat="40.668374011293054" lon="-2.566807977855206">
        <ele>949.673</ele>
        <time>2026-04-25T09:12:50Z</time>
      </trkpt>
      <trkpt lat="40.668348027393222" lon="-2.566788028925657">
        <ele>949.89200000000005</ele>
        <time>2026-04-25T09:12:51Z</time>
      </trkpt>
      <trkpt lat="40.668321959674358" lon="-2.566770007833839">
        <ele>949.82299999999998</ele>
        <time>2026-04-25T09:12:52Z</time>
      </trkpt>
      <trkpt lat="40.668295975774527" lon="-2.56675198674202">
        <ele>950.08799999999997</ele>
        <time>2026-04-25T09:12:53Z</time>
      </trkpt>
      <trkpt lat="40.668272003531456" lon="-2.56673295982182">
        <ele>950.01900000000001</ele>
        <time>2026-04-25T09:12:54Z</time>
      </trkpt>
      <trkpt lat="40.668248031288385" lon="-2.566712005063891">
        <ele>950.00900000000001</ele>
        <time>2026-04-25T09:12:55Z</time>
      </trkpt>
      <trkpt lat="40.668222969397902" lon="-2.56668996065855">
        <ele>950.21900000000005</ele>
        <time>2026-04-25T09:12:56Z</time>
      </trkpt>
      <trkpt lat="40.668201008811593" lon="-2.566673029214144">
        <ele>950.00900000000001</ele>
        <time>2026-04-25T09:12:57Z</time>
      </trkpt>
      <trkpt lat="40.668180976063013" lon="-2.566654002293944">
        <ele>950.26300000000003</ele>
        <time>2026-04-25T09:12:58Z</time>
      </trkpt>
      <trkpt lat="40.668162032961845" lon="-2.566632963716984">
        <ele>950.46699999999998</ele>
        <time>2026-04-25T09:12:59Z</time>
      </trkpt>
      <trkpt lat="40.668142000213265" lon="-2.566616032272577">
        <ele>950.43200000000002</ele>
        <time>2026-04-25T09:13:00Z</time>
      </trkpt>
      <trkpt lat="40.668120039626956" lon="-2.566598011180759">
        <ele>950.44200000000001</ele>
        <time>2026-04-25T09:13:01Z</time>
      </trkpt>
      <trkpt lat="40.668099001049995" lon="-2.56658099591732">
        <ele>950.46799999999996</ele>
        <time>2026-04-25T09:13:02Z</time>
      </trkpt>
      <trkpt lat="40.668079974129796" lon="-2.566561968997121">
        <ele>950.62</ele>
        <time>2026-04-25T09:13:03Z</time>
      </trkpt>
      <trkpt lat="40.668063964694738" lon="-2.566544031724334">
        <ele>950.85900000000004</ele>
        <time>2026-04-25T09:13:04Z</time>
      </trkpt>
      <trkpt lat="40.66804401576519" lon="-2.566520981490612">
        <ele>951.08000000000004</ele>
        <time>2026-04-25T09:13:06Z</time>
      </trkpt>
      <trkpt lat="40.668021971359849" lon="-2.56649499759078">
        <ele>951.29499999999996</ele>
        <time>2026-04-25T09:13:08Z</time>
      </trkpt>
      <trkpt lat="40.668008979409933" lon="-2.56647203117609">
        <ele>951.47699999999998</ele>
        <time>2026-04-25T09:13:09Z</time>
      </trkpt>
      <trkpt lat="40.667997999116778" lon="-2.566445963457227">
        <ele>951.46100000000001</ele>
        <time>2026-04-25T09:13:10Z</time>
      </trkpt>
      <trkpt lat="40.667989030480385" lon="-2.566418973729014">
        <ele>951.62699999999995</ele>
        <time>2026-04-25T09:13:11Z</time>
      </trkpt>
      <trkpt lat="40.667978972196579" lon="-2.566393995657563">
        <ele>951.80899999999997</ele>
        <time>2026-04-25T09:13:12Z</time>
      </trkpt>
      <trkpt lat="40.667968997731805" lon="-2.566367005929351">
        <ele>951.65899999999999</ele>
        <time>2026-04-25T09:13:13Z</time>
      </trkpt>
      <trkpt lat="40.66795801743865" lon="-2.566339010372758">
        <ele>952.08299999999997</ele>
        <time>2026-04-25T09:13:14Z</time>
      </trkpt>
      <trkpt lat="40.667945025488734" lon="-2.566313026472926">
        <ele>952.24800000000005</ele>
        <time>2026-04-25T09:13:15Z</time>
      </trkpt>
      <trkpt lat="40.667931027710438" lon="-2.566286036744714">
        <ele>952.21799999999996</ele>
        <time>2026-04-25T09:13:16Z</time>
      </trkpt>
      <trkpt lat="40.667917029932141" lon="-2.566261980682612">
        <ele>952.45399999999995</ele>
        <time>2026-04-25T09:13:17Z</time>
      </trkpt>
      <trkpt lat="40.667902026325464" lon="-2.566238008439541">
        <ele>952.44600000000003</ele>
        <time>2026-04-25T09:13:18Z</time>
      </trkpt>
      <trkpt lat="40.667889034375548" lon="-2.566212024539709">
        <ele>952.68499999999995</ele>
        <time>2026-04-25T09:13:19Z</time>
      </trkpt>
      <trkpt lat="40.667876964434981" lon="-2.566185034811497">
        <ele>952.846</ele>
        <time>2026-04-25T09:13:20Z</time>
      </trkpt>
      <trkpt lat="40.667863972485065" lon="-2.566158967092633">
        <ele>953.05100000000004</ele>
        <time>2026-04-25T09:13:21Z</time>
      </trkpt>
      <trkpt lat="40.66785198636353" lon="-2.56612996570766">
        <ele>953.45899999999995</ele>
        <time>2026-04-25T09:13:22Z</time>
      </trkpt>
      <trkpt lat="40.667844023555517" lon="-2.566104987636209">
        <ele>953.60299999999995</ele>
        <time>2026-04-25T09:13:23Z</time>
      </trkpt>
      <trkpt lat="40.667834971100092" lon="-2.566075986251235">
        <ele>954.02300000000002</ele>
        <time>2026-04-25T09:13:24Z</time>
      </trkpt>
      <trkpt lat="40.667826002463698" lon="-2.566046984866262">
        <ele>954.20899999999995</ele>
        <time>2026-04-25T09:13:25Z</time>
      </trkpt>
      <trkpt lat="40.667817033827305" lon="-2.566016977652907">
        <ele>954.22699999999998</ele>
        <time>2026-04-25T09:13:26Z</time>
      </trkpt>
      <trkpt lat="40.667806975543499" lon="-2.565986970439553">
        <ele>954.64099999999996</ele>
        <time>2026-04-25T09:13:27Z</time>
      </trkpt>
      <trkpt lat="40.667793983593583" lon="-2.56595897488296">
        <ele>954.87599999999998</ele>
        <time>2026-04-25T09:13:28Z</time>
      </trkpt>
      <trkpt lat="40.667784009128809" lon="-2.56593500263989">
        <ele>955.02599999999995</ele>
        <time>2026-04-25T09:13:29Z</time>
      </trkpt>
      <trkpt lat="40.667772023007274" lon="-2.56591496989131">
        <ele>955.452</ele>
        <time>2026-04-25T09:13:30Z</time>
      </trkpt>
      <trkpt lat="40.667751990258694" lon="-2.565879011526704">
        <ele>956.09400000000005</ele>
        <time>2026-04-25T09:13:32Z</time>
      </trkpt>
      <trkpt lat="40.667734974995255" lon="-2.565841963514686">
        <ele>956.41300000000001</ele>
        <time>2026-04-25T09:13:34Z</time>
      </trkpt>
      <trkpt lat="40.667713014408946" lon="-2.565812962129712">
        <ele>956.69399999999996</ele>
        <time>2026-04-25T09:13:36Z</time>
      </trkpt>
      <trkpt lat="40.667689964175224" lon="-2.565784966573119">
        <ele>957.01900000000001</ele>
        <time>2026-04-25T09:13:38Z</time>
      </trkpt>
      <trkpt lat="40.667676972225308" lon="-2.565765017643571">
        <ele>957.29600000000005</ele>
        <time>2026-04-25T09:13:39Z</time>
      </trkpt>
      <trkpt lat="40.667663980275393" lon="-2.565744984894991">
        <ele>957.43100000000004</ele>
        <time>2026-04-25T09:13:40Z</time>
      </trkpt>
      <trkpt lat="40.667647970840335" lon="-2.565726041793823">
        <ele>957.42399999999998</ele>
        <time>2026-04-25T09:13:41Z</time>
      </trkpt>
      <trkpt lat="40.667631039395928" lon="-2.565703997388482">
        <ele>957.60900000000004</ele>
        <time>2026-04-25T09:13:42Z</time>
      </trkpt>
      <trkpt lat="40.66761301830411" lon="-2.565683964639902">
        <ele>958.01099999999997</ele>
        <time>2026-04-25T09:13:43Z</time>
      </trkpt>
      <trkpt lat="40.667596003040671" lon="-2.565664015710354">
        <ele>958.48500000000001</ele>
        <time>2026-04-25T09:13:44Z</time>
      </trkpt>
      <trkpt lat="40.667577981948853" lon="-2.565648006275296">
        <ele>958.48000000000002</ele>
        <time>2026-04-25T09:13:45Z</time>
      </trkpt>
      <trkpt lat="40.667559960857034" lon="-2.565636020153761">
        <ele>958.64999999999998</ele>
        <time>2026-04-25T09:13:46Z</time>
      </trkpt>
      <trkpt lat="40.667544035241008" lon="-2.565623028203845">
        <ele>959.23599999999999</ele>
        <time>2026-04-25T09:13:47Z</time>
      </trkpt>
      <trkpt lat="40.667522996664047" lon="-2.565610958263278">
        <ele>959.44799999999998</ele>
        <time>2026-04-25T09:13:48Z</time>
      </trkpt>
      <trkpt lat="40.667502963915467" lon="-2.565607018768787">
        <ele>959.67700000000002</ele>
        <time>2026-04-25T09:13:49Z</time>
      </trkpt>
      <trkpt lat="40.667481003329158" lon="-2.565609030425549">
        <ele>959.89800000000002</ele>
        <time>2026-04-25T09:13:50Z</time>
      </trkpt>
      <trkpt lat="40.667459964752197" lon="-2.565611964091659">
        <ele>960.01300000000003</ele>
        <time>2026-04-25T09:13:51Z</time>
      </trkpt>
      <trkpt lat="40.667440015822649" lon="-2.56561397574842">
        <ele>960.07399999999996</ele>
        <time>2026-04-25T09:13:52Z</time>
      </trkpt>
      <trkpt lat="40.66742098890245" lon="-2.565619004890323">
        <ele>960.45600000000002</ele>
        <time>2026-04-25T09:13:53Z</time>
      </trkpt>
      <trkpt lat="40.667391987517476" lon="-2.565625961869955">
        <ele>960.42100000000005</ele>
        <time>2026-04-25T09:13:55Z</time>
      </trkpt>
      <trkpt lat="40.667364997789264" lon="-2.565626967698336">
        <ele>960.60900000000004</ele>
        <time>2026-04-25T09:13:57Z</time>
      </trkpt>
      <trkpt lat="40.66733599640429" lon="-2.565631996840239">
        <ele>960.65899999999999</ele>
        <time>2026-04-25T09:13:59Z</time>
      </trkpt>
      <trkpt lat="40.667309006676078" lon="-2.565634008497">
        <ele>960.84299999999996</ele>
        <time>2026-04-25T09:14:01Z</time>
      </trkpt>
      <trkpt lat="40.667286040261388" lon="-2.565630991011858">
        <ele>961.25800000000004</ele>
        <time>2026-04-25T09:14:03Z</time>
      </trkpt>
      <trkpt lat="40.667267013341188" lon="-2.565626967698336">
        <ele>961.26800000000003</ele>
        <time>2026-04-25T09:14:06Z</time>
      </trkpt>
      <trkpt lat="40.667244968935847" lon="-2.5656149815768">
        <ele>961.62400000000002</ele>
        <time>2026-04-25T09:14:08Z</time>
      </trkpt>
      <trkpt lat="40.667211022228003" lon="-2.565607018768787">
        <ele>961.85599999999999</ele>
        <time>2026-04-25T09:14:10Z</time>
      </trkpt>
      <trkpt lat="40.667193001136184" lon="-2.565596960484982">
        <ele>961.84500000000003</ele>
        <time>2026-04-25T09:14:11Z</time>
      </trkpt>
      <trkpt lat="40.667172968387604" lon="-2.565579023212194">
        <ele>961.86599999999999</ele>
        <time>2026-04-25T09:14:12Z</time>
      </trkpt>
      <trkpt lat="40.667150001972914" lon="-2.565557984635234">
        <ele>962.03099999999995</ele>
        <time>2026-04-25T09:14:13Z</time>
      </trkpt>
      <trkpt lat="40.667126029729843" lon="-2.565547004342079">
        <ele>962.04499999999996</ele>
        <time>2026-04-25T09:14:14Z</time>
      </trkpt>
      <trkpt lat="40.667103985324502" lon="-2.565553039312363">
        <ele>962.04700000000003</ele>
        <time>2026-04-25T09:14:15Z</time>
      </trkpt>
      <trkpt lat="40.667084036394954" lon="-2.565562007948756">
        <ele>962.21100000000001</ele>
        <time>2026-04-25T09:14:16Z</time>
      </trkpt>
      <trkpt lat="40.66705503500998" lon="-2.565574999898672">
        <ele>962.00900000000001</ele>
        <time>2026-04-25T09:14:18Z</time>
      </trkpt>
      <trkpt lat="40.66701396368444" lon="-2.565576005727053">
        <ele>962.096</ele>
        <time>2026-04-25T09:14:20Z</time>
      </trkpt>
      <trkpt lat="40.666988985612988" lon="-2.565572988241911">
        <ele>962.00999999999999</ele>
        <time>2026-04-25T09:14:21Z</time>
      </trkpt>
      <trkpt lat="40.666965013369918" lon="-2.565567037090659">
        <ele>962.02499999999998</ele>
        <time>2026-04-25T09:14:22Z</time>
      </trkpt>
      <trkpt lat="40.666941963136196" lon="-2.565558990463615">
        <ele>962.27499999999998</ele>
        <time>2026-04-25T09:14:23Z</time>
      </trkpt>
      <trkpt lat="40.666923020035028" lon="-2.565547004342079">
        <ele>962.221</ele>
        <time>2026-04-25T09:14:24Z</time>
      </trkpt>
      <trkpt lat="40.666907010599971" lon="-2.565534012392163">
        <ele>962.44299999999998</ele>
        <time>2026-04-25T09:14:25Z</time>
      </trkpt>
      <trkpt lat="40.666888989508152" lon="-2.565519008785486">
        <ele>962.63199999999995</ele>
        <time>2026-04-25T09:14:26Z</time>
      </trkpt>
      <trkpt lat="40.666870968416333" lon="-2.565508028492332">
        <ele>962.89300000000003</ele>
        <time>2026-04-25T09:14:27Z</time>
      </trkpt>
      <trkpt lat="40.666846996173263" lon="-2.565497970208526">
        <ele>963.27800000000002</ele>
        <time>2026-04-25T09:14:29Z</time>
      </trkpt>
      <trkpt lat="40.666843978688121" lon="-2.56550501100719">
        <ele>964.27599999999995</ele>
        <time>2026-04-25T09:14:42Z</time>
      </trkpt>
      <trkpt lat="40.666850013658404" lon="-2.56552797742188">
        <ele>964.21299999999997</ele>
        <time>2026-04-25T09:14:45Z</time>
      </trkpt>
      <trkpt lat="40.666854958981276" lon="-2.565555972978473">
        <ele>964.40899999999999</ele>
        <time>2026-04-25T09:15:10Z</time>
      </trkpt>
      <trkpt lat="40.66686300560832" lon="-2.565581034868956">
        <ele>964.46299999999997</ele>
        <time>2026-04-25T09:15:14Z</time>
      </trkpt>
      <trkpt lat="40.666856970638037" lon="-2.565606012940407">
        <ele>964.41700000000003</ele>
        <time>2026-04-25T09:15:17Z</time>
      </trkpt>
      <trkpt lat="40.666849007830024" lon="-2.565650017932057">
        <ele>964.27200000000005</ele>
        <time>2026-04-25T09:15:19Z</time>
      </trkpt>
      <trkpt lat="40.666845990344882" lon="-2.565679019317031">
        <ele>964.46199999999999</ele>
        <time>2026-04-25T09:15:20Z</time>
      </trkpt>
      <trkpt lat="40.666846996173263" lon="-2.56572101265192">
        <ele>964.428</ele>
        <time>2026-04-25T09:15:21Z</time>
      </trkpt>
      <trkpt lat="40.666848002001643" lon="-2.565759988501668">
        <ele>964.40999999999997</ele>
        <time>2026-04-25T09:15:22Z</time>
      </trkpt>
      <trkpt lat="40.666848002001643" lon="-2.565797036513686">
        <ele>964.22900000000004</ele>
        <time>2026-04-25T09:15:23Z</time>
      </trkpt>
      <trkpt lat="40.666844984516501" lon="-2.565827965736389">
        <ele>964.25999999999999</ele>
        <time>2026-04-25T09:15:24Z</time>
      </trkpt>
      <trkpt lat="40.666840961202979" lon="-2.565860990434885">
        <ele>964.23500000000001</ele>
        <time>2026-04-25T09:15:25Z</time>
      </trkpt>
      <trkpt lat="40.666838027536869" lon="-2.565893009305">
        <ele>964.21699999999998</ele>
        <time>2026-04-25T09:15:26Z</time>
      </trkpt>
      <trkpt lat="40.666840961202979" lon="-2.565930979326367">
        <ele>964.08699999999999</ele>
        <time>2026-04-25T09:15:27Z</time>
      </trkpt>
      <trkpt lat="40.666843978688121" lon="-2.565967021510005">
        <ele>963.81500000000005</ele>
        <time>2026-04-25T09:15:28Z</time>
      </trkpt>
      <trkpt lat="40.666844984516501" lon="-2.566004991531372">
        <ele>963.80899999999997</ele>
        <time>2026-04-25T09:15:29Z</time>
      </trkpt>
      <trkpt lat="40.666840961202979" lon="-2.56604203954339">
        <ele>963.68299999999999</ele>
        <time>2026-04-25T09:15:30Z</time>
      </trkpt>
      <trkpt lat="40.666830986738205" lon="-2.566083027049899">
        <ele>963.61699999999996</ele>
        <time>2026-04-25T09:15:31Z</time>
      </trkpt>
      <trkpt lat="40.666817994788289" lon="-2.56612803786993">
        <ele>963.47199999999998</ele>
        <time>2026-04-25T09:15:32Z</time>
      </trkpt>
      <trkpt lat="40.666805002838373" lon="-2.56617397069931">
        <ele>963.452</ele>
        <time>2026-04-25T09:15:33Z</time>
      </trkpt>
      <trkpt lat="40.666795028373599" lon="-2.566218981519342">
        <ele>963.48800000000006</ele>
        <time>2026-04-25T09:15:34Z</time>
      </trkpt>
      <trkpt lat="40.666783964261413" lon="-2.566262986510992">
        <ele>963.02999999999997</ele>
        <time>2026-04-25T09:15:35Z</time>
      </trkpt>
      <trkpt lat="40.666770972311497" lon="-2.566304979845882">
        <ele>963.24900000000002</ele>
        <time>2026-04-25T09:15:36Z</time>
      </trkpt>
      <trkpt lat="40.666762003675103" lon="-2.566348984837532">
        <ele>963.02999999999997</ele>
        <time>2026-04-25T09:15:37Z</time>
      </trkpt>
      <trkpt lat="40.666752029210329" lon="-2.56638896651566">
        <ele>963.08500000000004</ele>
        <time>2026-04-25T09:15:38Z</time>
      </trkpt>
      <trkpt lat="40.666745994240046" lon="-2.56642903201282">
        <ele>963.053</ele>
        <time>2026-04-25T09:15:39Z</time>
      </trkpt>
      <trkpt lat="40.666736019775271" lon="-2.566465996205807">
        <ele>963.00400000000002</ele>
        <time>2026-04-25T09:15:40Z</time>
      </trkpt>
      <trkpt lat="40.666725039482117" lon="-2.566503966227174">
        <ele>963.01400000000001</ele>
        <time>2026-04-25T09:15:41Z</time>
      </trkpt>
      <trkpt lat="40.666715987026691" lon="-2.566542020067573">
        <ele>963.20899999999995</ele>
        <time>2026-04-25T09:15:42Z</time>
      </trkpt>
      <trkpt lat="40.666708024218678" lon="-2.566586025059223">
        <ele>963.27700000000004</ele>
        <time>2026-04-25T09:15:43Z</time>
      </trkpt>
      <trkpt lat="40.666696038097143" lon="-2.566627012565732">
        <ele>963.69100000000003</ele>
        <time>2026-04-25T09:15:44Z</time>
      </trkpt>
      <trkpt lat="40.666682962328196" lon="-2.566668000072241">
        <ele>963.68600000000004</ele>
        <time>2026-04-25T09:15:45Z</time>
      </trkpt>
      <trkpt lat="40.666668964549899" lon="-2.566705970093608">
        <ele>963.66600000000005</ele>
        <time>2026-04-25T09:15:46Z</time>
      </trkpt>
      <trkpt lat="40.666651027277112" lon="-2.566738994792104">
        <ele>963.48199999999997</ele>
        <time>2026-04-25T09:15:47Z</time>
      </trkpt>
      <trkpt lat="40.666633006185293" lon="-2.566775036975741">
        <ele>963.46400000000006</ele>
        <time>2026-04-25T09:15:48Z</time>
      </trkpt>
      <trkpt lat="40.666612973436713" lon="-2.566803032532334">
        <ele>963.29300000000001</ele>
        <time>2026-04-25T09:15:49Z</time>
      </trkpt>
      <trkpt lat="40.666593024507165" lon="-2.566828010603786">
        <ele>963.274</ele>
        <time>2026-04-25T09:15:50Z</time>
      </trkpt>
      <trkpt lat="40.666573997586966" lon="-2.566851982846856">
        <ele>963.43899999999996</ele>
        <time>2026-04-25T09:15:51Z</time>
      </trkpt>
      <trkpt lat="40.666558993980289" lon="-2.566876960918307">
        <ele>963.649</ele>
        <time>2026-04-25T09:15:52Z</time>
      </trkpt>
      <trkpt lat="40.666542984545231" lon="-2.566900011152029">
        <ele>963.80200000000002</ele>
        <time>2026-04-25T09:15:53Z</time>
      </trkpt>
      <trkpt lat="40.666526975110173" lon="-2.566929012537003">
        <ele>963.822</ele>
        <time>2026-04-25T09:15:54Z</time>
      </trkpt>
      <trkpt lat="40.666511971503496" lon="-2.566961031407118">
        <ele>964.20899999999995</ele>
        <time>2026-04-25T09:15:55Z</time>
      </trkpt>
      <trkpt lat="40.666495962068439" lon="-2.566992966458201">
        <ele>964.25599999999997</ele>
        <time>2026-04-25T09:15:56Z</time>
      </trkpt>
      <trkpt lat="40.666479030624032" lon="-2.567028002813458">
        <ele>964.63999999999999</ele>
        <time>2026-04-25T09:15:57Z</time>
      </trkpt>
      <trkpt lat="40.666460003703833" lon="-2.567060021683574">
        <ele>964.66499999999996</ele>
        <time>2026-04-25T09:15:58Z</time>
      </trkpt>
      <trkpt lat="40.666439970955253" lon="-2.567091034725308">
        <ele>964.63499999999999</ele>
        <time>2026-04-25T09:15:59Z</time>
      </trkpt>
      <trkpt lat="40.666421027854085" lon="-2.567122969776392">
        <ele>964.86099999999999</ele>
        <time>2026-04-25T09:16:00Z</time>
      </trkpt>
      <trkpt lat="40.666402000933886" lon="-2.567153982818127">
        <ele>964.61300000000006</ele>
        <time>2026-04-25T09:16:01Z</time>
      </trkpt>
      <trkpt lat="40.666385991498828" lon="-2.567184995859861">
        <ele>965.09199999999998</ele>
        <time>2026-04-25T09:16:02Z</time>
      </trkpt>
      <trkpt lat="40.66636897623539" lon="-2.567220032215118">
        <ele>964.83299999999997</ele>
        <time>2026-04-25T09:16:03Z</time>
      </trkpt>
      <trkpt lat="40.666351038962603" lon="-2.567254984751344">
        <ele>965.02800000000002</ele>
        <time>2026-04-25T09:16:04Z</time>
      </trkpt>
      <trkpt lat="40.666335029527545" lon="-2.56728800944984">
        <ele>965.22400000000005</ele>
        <time>2026-04-25T09:16:05Z</time>
      </trkpt>
      <trkpt lat="40.666317008435726" lon="-2.567318016663194">
        <ele>965.404</ele>
        <time>2026-04-25T09:16:06Z</time>
      </trkpt>
      <trkpt lat="40.666302004829049" lon="-2.567350035533309">
        <ele>965.41399999999999</ele>
        <time>2026-04-25T09:16:07Z</time>
      </trkpt>
      <trkpt lat="40.666281972080469" lon="-2.567377025261521">
        <ele>965.40899999999999</ele>
        <time>2026-04-25T09:16:08Z</time>
      </trkpt>
      <trkpt lat="40.666257999837399" lon="-2.567403009161353">
        <ele>965.69399999999996</ele>
        <time>2026-04-25T09:16:09Z</time>
      </trkpt>
      <trkpt lat="40.666238972917199" lon="-2.567428993061185">
        <ele>965.48800000000006</ele>
        <time>2026-04-25T09:16:10Z</time>
      </trkpt>
      <trkpt lat="40.666220029816031" lon="-2.567453971132636">
        <ele>965.44299999999998</ele>
        <time>2026-04-25T09:16:11Z</time>
      </trkpt>
      <trkpt lat="40.666202008724213" lon="-2.567480960860848">
        <ele>965.65300000000002</ele>
        <time>2026-04-25T09:16:12Z</time>
      </trkpt>
      <trkpt lat="40.666183987632394" lon="-2.567508034408093">
        <ele>965.83900000000006</ele>
        <time>2026-04-25T09:16:13Z</time>
      </trkpt>
      <trkpt lat="40.666168984025717" lon="-2.567534018307924">
        <ele>966.08100000000002</ele>
        <time>2026-04-25T09:16:14Z</time>
      </trkpt>
      <trkpt lat="40.66615498624742" lon="-2.567558996379376">
        <ele>966.08000000000004</ele>
        <time>2026-04-25T09:16:15Z</time>
      </trkpt>
      <trkpt lat="40.666141994297504" lon="-2.567585986107588">
        <ele>966.221</ele>
        <time>2026-04-25T09:16:16Z</time>
      </trkpt>
      <trkpt lat="40.666133025661111" lon="-2.56761197000742">
        <ele>966.63599999999997</ele>
        <time>2026-04-25T09:16:17Z</time>
      </trkpt>
      <trkpt lat="40.666121961548924" lon="-2.567636026069522">
        <ele>967.05399999999997</ele>
        <time>2026-04-25T09:16:18Z</time>
      </trkpt>
      <trkpt lat="40.666112992912531" lon="-2.567680031061173">
        <ele>967.45600000000002</ele>
        <time>2026-04-25T09:16:20Z</time>
      </trkpt>
      <trkpt lat="40.666103018447757" lon="-2.567721018567681">
        <ele>967.61099999999999</ele>
        <time>2026-04-25T09:16:22Z</time>
      </trkpt>
      <trkpt lat="40.666098995134234" lon="-2.567756976932287">
        <ele>968.00900000000001</ele>
        <time>2026-04-25T09:16:24Z</time>
      </trkpt>
      <trkpt lat="40.666098995134234" lon="-2.567788995802403">
        <ele>968.827</ele>
        <time>2026-04-25T09:16:26Z</time>
      </trkpt>
      <trkpt lat="40.666098995134234" lon="-2.567819003015757">
        <ele>969.23099999999999</ele>
        <time>2026-04-25T09:16:28Z</time>
      </trkpt>
      <trkpt lat="40.666094971820712" lon="-2.567855967208743">
        <ele>969.42600000000004</ele>
        <time>2026-04-25T09:16:30Z</time>
      </trkpt>
      <trkpt lat="40.666092038154602" lon="-2.567893015220761">
        <ele>969.69600000000003</ele>
        <time>2026-04-25T09:16:32Z</time>
      </trkpt>
      <trkpt lat="40.66608801484108" lon="-2.567935008555651">
        <ele>969.81200000000001</ele>
        <time>2026-04-25T09:16:34Z</time>
      </trkpt>
      <trkpt lat="40.666087009012699" lon="-2.56797599606216">
        <ele>969.48400000000004</ele>
        <time>2026-04-25T09:16:36Z</time>
      </trkpt>
      <trkpt lat="40.666086003184319" lon="-2.56799996830523">
        <ele>969.48299999999995</ele>
        <time>2026-04-25T09:16:37Z</time>
      </trkpt>
      <trkpt lat="40.666086003184319" lon="-2.568043973296881">
        <ele>969.47400000000005</ele>
        <time>2026-04-25T09:16:39Z</time>
      </trkpt>
      <trkpt lat="40.666079968214035" lon="-2.56808596663177">
        <ele>969.69899999999996</ele>
        <time>2026-04-25T09:16:41Z</time>
      </trkpt>
      <trkpt lat="40.666070999577641" lon="-2.568127037957311">
        <ele>970.09699999999998</ele>
        <time>2026-04-25T09:16:43Z</time>
      </trkpt>
      <trkpt lat="40.666058007627726" lon="-2.568160984665155">
        <ele>970.02300000000002</ele>
        <time>2026-04-25T09:16:45Z</time>
      </trkpt>
      <trkpt lat="40.666055995970964" lon="-2.568186968564987">
        <ele>970.02499999999998</ele>
        <time>2026-04-25T09:16:47Z</time>
      </trkpt>
      <trkpt lat="40.666040992364287" lon="-2.568207001313567">
        <ele>970.82000000000005</ele>
        <time>2026-04-25T09:17:35Z</time>
      </trkpt>
      <trkpt lat="40.66602498292923" lon="-2.568217981606722">
        <ele>970.22000000000003</ele>
        <time>2026-04-25T09:17:40Z</time>
      </trkpt>
      <trkpt lat="40.666005033999681" lon="-2.568229967728257">
        <ele>970.03599999999994</ele>
        <time>2026-04-25T09:17:49Z</time>
      </trkpt>
      <trkpt lat="40.665983995422721" lon="-2.568237008526921">
        <ele>970.298</ele>
        <time>2026-04-25T09:17:51Z</time>
      </trkpt>
      <trkpt lat="40.665953988209367" lon="-2.568246982991695">
        <ele>970.47699999999998</ele>
        <time>2026-04-25T09:17:53Z</time>
      </trkpt>
      <trkpt lat="40.665934039279819" lon="-2.568258969113231">
        <ele>970.24800000000005</ele>
        <time>2026-04-25T09:17:54Z</time>
      </trkpt>
      <trkpt lat="40.665914006531239" lon="-2.568269027397037">
        <ele>970.26300000000003</ele>
        <time>2026-04-25T09:17:55Z</time>
      </trkpt>
      <trkpt lat="40.665891040116549" lon="-2.56827799603343">
        <ele>970.25699999999995</ele>
        <time>2026-04-25T09:17:57Z</time>
      </trkpt>
      <trkpt lat="40.665871007367969" lon="-2.568289982154965">
        <ele>970</ele>
        <time>2026-04-25T09:17:59Z</time>
      </trkpt>
      <trkpt lat="40.665848962962627" lon="-2.56831998936832">
        <ele>970.01999999999998</ele>
        <time>2026-04-25T09:18:01Z</time>
      </trkpt>
      <trkpt lat="40.665814010426402" lon="-2.568337004631758">
        <ele>970.00900000000001</ele>
        <time>2026-04-25T09:18:03Z</time>
      </trkpt>
      <trkpt lat="40.665793977677822" lon="-2.568345973268151">
        <ele>970.03700000000003</ele>
        <time>2026-04-25T09:18:04Z</time>
      </trkpt>
      <trkpt lat="40.665776962414384" lon="-2.568357959389687">
        <ele>970.04100000000005</ele>
        <time>2026-04-25T09:18:05Z</time>
      </trkpt>
      <trkpt lat="40.665760030969977" lon="-2.568368017673492">
        <ele>970.03599999999994</ele>
        <time>2026-04-25T09:18:06Z</time>
      </trkpt>
      <trkpt lat="40.665731029585004" lon="-2.56838696077466">
        <ele>970.226</ele>
        <time>2026-04-25T09:18:08Z</time>
      </trkpt>
      <trkpt lat="40.665716025978327" lon="-2.56840598769486">
        <ele>970.27200000000005</ele>
        <time>2026-04-25T09:18:09Z</time>
      </trkpt>
      <trkpt lat="40.665699010714889" lon="-2.568433983251452">
        <ele>970.24400000000003</ele>
        <time>2026-04-25T09:18:10Z</time>
      </trkpt>
      <trkpt lat="40.665683001279831" lon="-2.568460972979665">
        <ele>970.21299999999997</ele>
        <time>2026-04-25T09:18:11Z</time>
      </trkpt>
      <trkpt lat="40.665662968531251" lon="-2.568478994071484">
        <ele>970.25400000000002</ele>
        <time>2026-04-25T09:18:12Z</time>
      </trkpt>
      <trkpt lat="40.665642013773322" lon="-2.568510007113218">
        <ele>970.41899999999998</ele>
        <time>2026-04-25T09:18:14Z</time>
      </trkpt>
      <trkpt lat="40.665618041530252" lon="-2.568542025983334">
        <ele>970.24099999999999</ele>
        <time>2026-04-25T09:18:16Z</time>
      </trkpt>
      <trkpt lat="40.665598008781672" lon="-2.568559963256121">
        <ele>969.88099999999997</ele>
        <time>2026-04-25T09:18:17Z</time>
      </trkpt>
      <trkpt lat="40.665579987689853" lon="-2.568584019318223">
        <ele>969.60900000000004</ele>
        <time>2026-04-25T09:18:18Z</time>
      </trkpt>
      <trkpt lat="40.665558027103543" lon="-2.568602040410042">
        <ele>969.40899999999999</ele>
        <time>2026-04-25T09:18:19Z</time>
      </trkpt>
      <trkpt lat="40.665537994354963" lon="-2.568616960197687">
        <ele>969.28599999999994</ele>
        <time>2026-04-25T09:18:20Z</time>
      </trkpt>
      <trkpt lat="40.665517961606383" lon="-2.568636992946267">
        <ele>968.88999999999999</ele>
        <time>2026-04-25T09:18:21Z</time>
      </trkpt>
      <trkpt lat="40.665502035990357" lon="-2.568661971017718">
        <ele>968.89499999999998</ele>
        <time>2026-04-25T09:18:22Z</time>
      </trkpt>
      <trkpt lat="40.665484014898539" lon="-2.568687032908201">
        <ele>968.61500000000001</ele>
        <time>2026-04-25T09:18:23Z</time>
      </trkpt>
      <trkpt lat="40.665464987978339" lon="-2.568712010979652">
        <ele>968.49099999999999</ele>
        <time>2026-04-25T09:18:24Z</time>
      </trkpt>
      <trkpt lat="40.66544696688652" lon="-2.56872802041471">
        <ele>968.26300000000003</ele>
        <time>2026-04-25T09:18:25Z</time>
      </trkpt>
      <trkpt lat="40.665419977158308" lon="-2.568732965737581">
        <ele>968.02200000000005</ele>
        <time>2026-04-25T09:18:27Z</time>
      </trkpt>
      <trkpt lat="40.665396004915237" lon="-2.568734977394342">
        <ele>968.46299999999997</ele>
        <time>2026-04-25T09:18:29Z</time>
      </trkpt>
      <trkpt lat="40.665377983823419" lon="-2.568740006536245">
        <ele>969.09799999999996</ele>
        <time>2026-04-25T09:18:31Z</time>
      </trkpt>
      <trkpt lat="40.665346970781684" lon="-2.568751992657781">
        <ele>969.471</ele>
        <time>2026-04-25T09:18:33Z</time>
      </trkpt>
      <trkpt lat="40.665329033508897" lon="-2.568766996264458">
        <ele>969.64099999999996</ele>
        <time>2026-04-25T09:18:34Z</time>
      </trkpt>
      <trkpt lat="40.665311012417078" lon="-2.568781999871135">
        <ele>969.61500000000001</ele>
        <time>2026-04-25T09:18:35Z</time>
      </trkpt>
      <trkpt lat="40.665288968011737" lon="-2.568800020962954">
        <ele>969.60900000000004</ele>
        <time>2026-04-25T09:18:36Z</time>
      </trkpt>
      <trkpt lat="40.665266001597047" lon="-2.568817036226392">
        <ele>969.66899999999998</ele>
        <time>2026-04-25T09:18:37Z</time>
      </trkpt>
      <trkpt lat="40.665245968848467" lon="-2.568838996812701">
        <ele>969.82299999999998</ele>
        <time>2026-04-25T09:18:38Z</time>
      </trkpt>
      <trkpt lat="40.665219984948635" lon="-2.568858023732901">
        <ele>970.01800000000003</ele>
        <time>2026-04-25T09:18:39Z</time>
      </trkpt>
      <trkpt lat="40.665197018533945" lon="-2.568875961005688">
        <ele>969.89800000000002</ele>
        <time>2026-04-25T09:18:40Z</time>
      </trkpt>
      <trkpt lat="40.665174974128604" lon="-2.568889958783984">
        <ele>970.08399999999995</ele>
        <time>2026-04-25T09:18:41Z</time>
      </trkpt>
      <trkpt lat="40.665126023814082" lon="-2.568912003189325">
        <ele>970.01599999999996</ele>
        <time>2026-04-25T09:18:43Z</time>
      </trkpt>
      <trkpt lat="40.665072966367006" lon="-2.568999007344246">
        <ele>970.23500000000001</ele>
        <time>2026-04-25T09:18:47Z</time>
      </trkpt>
      <trkpt lat="40.665069026872516" lon="-2.569035971537232">
        <ele>970.46600000000001</ele>
        <time>2026-04-25T09:18:48Z</time>
      </trkpt>
      <trkpt lat="40.665062991902232" lon="-2.569066984578967">
        <ele>970.68100000000004</ele>
        <time>2026-04-25T09:18:49Z</time>
      </trkpt>
      <trkpt lat="40.6650560349226" lon="-2.569099003449082">
        <ele>970.89499999999998</ele>
        <time>2026-04-25T09:18:50Z</time>
      </trkpt>
      <trkpt lat="40.665044970810413" lon="-2.569122975692153">
        <ele>971.04899999999998</ele>
        <time>2026-04-25T09:18:51Z</time>
      </trkpt>
      <trkpt lat="40.665028039366007" lon="-2.569143008440733">
        <ele>971.423</ele>
        <time>2026-04-25T09:18:53Z</time>
      </trkpt>
      <trkpt lat="40.665003983303905" lon="-2.569144014269114">
        <ele>972.00900000000001</ele>
        <time>2026-04-25T09:18:56Z</time>
      </trkpt>
      <trkpt lat="40.664966013282537" lon="-2.569163041189313">
        <ele>972.67100000000005</ele>
        <time>2026-04-25T09:18:58Z</time>
      </trkpt>
      <trkpt lat="40.664944974705577" lon="-2.5691809784621">
        <ele>973.04499999999996</ele>
        <time>2026-04-25T09:18:59Z</time>
      </trkpt>
      <trkpt lat="40.664923014119267" lon="-2.569194976240397">
        <ele>973.41999999999996</ele>
        <time>2026-04-25T09:19:00Z</time>
      </trkpt>
      <trkpt lat="40.664899963885546" lon="-2.569206040352583">
        <ele>973.65999999999997</ele>
        <time>2026-04-25T09:19:01Z</time>
      </trkpt>
      <trkpt lat="40.664878003299236" lon="-2.569218026474118">
        <ele>974.06600000000003</ele>
        <time>2026-04-25T09:19:02Z</time>
      </trkpt>
      <trkpt lat="40.664856964722276" lon="-2.569224983453751">
        <ele>974.22799999999995</ele>
        <time>2026-04-25T09:19:03Z</time>
      </trkpt>
      <trkpt lat="40.664838021621108" lon="-2.569226995110512">
        <ele>974.48699999999997</ele>
        <time>2026-04-25T09:19:04Z</time>
      </trkpt>
      <trkpt lat="40.664812037721276" lon="-2.569225989282131">
        <ele>974.65800000000002</ele>
        <time>2026-04-25T09:19:06Z</time>
      </trkpt>
      <trkpt lat="40.664775995537639" lon="-2.569214003160596">
        <ele>975.09299999999996</ele>
        <time>2026-04-25T09:19:09Z</time>
      </trkpt>
      <trkpt lat="40.664682034403086" lon="-2.569235041737557">
        <ele>976.46900000000005</ele>
        <time>2026-04-25T09:19:17Z</time>
      </trkpt>
      <trkpt lat="40.664587989449501" lon="-2.569275023415685">
        <ele>976.80399999999997</ele>
        <time>2026-04-25T09:19:22Z</time>
      </trkpt>
      <trkpt lat="40.664555970579386" lon="-2.569304024800658">
        <ele>977.024</ele>
        <time>2026-04-25T09:19:24Z</time>
      </trkpt>
      <trkpt lat="40.664535015821457" lon="-2.569333026185632">
        <ele>977.40899999999999</ele>
        <time>2026-04-25T09:19:26Z</time>
      </trkpt>
      <trkpt lat="40.664523029699922" lon="-2.569364039227366">
        <ele>977.63800000000003</ele>
        <time>2026-04-25T09:19:28Z</time>
      </trkpt>
      <trkpt lat="40.664509031921625" lon="-2.569407038390636">
        <ele>977.87199999999996</ele>
        <time>2026-04-25T09:19:31Z</time>
      </trkpt>
      <trkpt lat="40.664493022486567" lon="-2.569445008412004">
        <ele>978.03700000000003</ele>
        <time>2026-04-25T09:19:33Z</time>
      </trkpt>
      <trkpt lat="40.664467038586736" lon="-2.56947903893888">
        <ele>978.25699999999995</ele>
        <time>2026-04-25T09:19:35Z</time>
      </trkpt>
      <trkpt lat="40.664450023323298" lon="-2.56950200535357">
        <ele>978.02300000000002</ele>
        <time>2026-04-25T09:19:36Z</time>
      </trkpt>
      <trkpt lat="40.664442982524633" lon="-2.569536035880446">
        <ele>978.03499999999997</ele>
        <time>2026-04-25T09:19:37Z</time>
      </trkpt>
      <trkpt lat="40.664432002231479" lon="-2.569556990638375">
        <ele>978.29399999999998</ele>
        <time>2026-04-25T09:19:38Z</time>
      </trkpt>
      <trkpt lat="40.664420016109943" lon="-2.569577023386955">
        <ele>978.04499999999996</ele>
        <time>2026-04-25T09:19:39Z</time>
      </trkpt>
      <trkpt lat="40.664400989189744" lon="-2.569598983973265">
        <ele>978.27999999999997</ele>
        <time>2026-04-25T09:19:40Z</time>
      </trkpt>
      <trkpt lat="40.664381040260196" lon="-2.569623040035367">
        <ele>978.46900000000005</ele>
        <time>2026-04-25T09:19:41Z</time>
      </trkpt>
      <trkpt lat="40.664358995854855" lon="-2.569639971479774">
        <ele>978.404</ele>
        <time>2026-04-25T09:19:42Z</time>
      </trkpt>
      <trkpt lat="40.664338963106275" lon="-2.569657992571592">
        <ele>978.62400000000002</ele>
        <time>2026-04-25T09:19:43Z</time>
      </trkpt>
      <trkpt lat="40.664319014176726" lon="-2.569679031148553">
        <ele>978.80899999999997</ele>
        <time>2026-04-25T09:19:44Z</time>
      </trkpt>
      <trkpt lat="40.664299987256527" lon="-2.569700991734862">
        <ele>978.89800000000002</ele>
        <time>2026-04-25T09:19:45Z</time>
      </trkpt>
      <trkpt lat="40.664283977821469" lon="-2.569714989513159">
        <ele>979.03200000000004</ele>
        <time>2026-04-25T09:19:46Z</time>
      </trkpt>
      <trkpt lat="40.664266040548682" lon="-2.569730998948216">
        <ele>978.81700000000001</ele>
        <time>2026-04-25T09:19:48Z</time>
      </trkpt>
      <trkpt lat="40.664233015850186" lon="-2.569695040583611">
        <ele>980.66700000000003</ele>
        <time>2026-04-25T09:19:57Z</time>
      </trkpt>
      <trkpt lat="40.664141988381743" lon="-2.56971700116992">
        <ele>982.83299999999997</ele>
        <time>2026-04-25T09:20:10Z</time>
      </trkpt>
      <trkpt lat="40.664061019197106" lon="-2.569775003939867">
        <ele>983.83500000000004</ele>
        <time>2026-04-25T09:20:16Z</time>
      </trkpt>
      <trkpt lat="40.664038974791765" lon="-2.569775003939867">
        <ele>984.24400000000003</ele>
        <time>2026-04-25T09:20:18Z</time>
      </trkpt>
      <trkpt lat="40.664018020033836" lon="-2.569772992283106">
        <ele>984.83500000000004</ele>
        <time>2026-04-25T09:20:20Z</time>
      </trkpt>
      <trkpt lat="40.663996981456876" lon="-2.569769974797964">
        <ele>985.28999999999996</ele>
        <time>2026-04-25T09:20:22Z</time>
      </trkpt>
      <trkpt lat="40.663976026698947" lon="-2.569754971191287">
        <ele>985.61800000000005</ele>
        <time>2026-04-25T09:20:25Z</time>
      </trkpt>
      <trkpt lat="40.663955993950367" lon="-2.569733010604978">
        <ele>986.298</ele>
        <time>2026-04-25T09:20:28Z</time>
      </trkpt>
      <trkpt lat="40.663937972858548" lon="-2.569723958149552">
        <ele>986.81700000000001</ele>
        <time>2026-04-25T09:20:30Z</time>
      </trkpt>
      <trkpt lat="40.663915006443858" lon="-2.569712977856398">
        <ele>987.40899999999999</ele>
        <time>2026-04-25T09:20:32Z</time>
      </trkpt>
      <trkpt lat="40.663892962038517" lon="-2.569705015048385">
        <ele>987.89300000000003</ele>
        <time>2026-04-25T09:20:34Z</time>
      </trkpt>
      <trkpt lat="40.663869995623827" lon="-2.569701997563243">
        <ele>988.68700000000001</ele>
        <time>2026-04-25T09:20:36Z</time>
      </trkpt>
      <trkpt lat="40.663851974532008" lon="-2.569697974249721">
        <ele>989.01199999999994</ele>
        <time>2026-04-25T09:20:38Z</time>
      </trkpt>
      <trkpt lat="40.663843005895615" lon="-2.569676013663411">
        <ele>989.44200000000001</ele>
        <time>2026-04-25T09:20:40Z</time>
      </trkpt>
      <trkpt lat="40.663843005895615" lon="-2.569652041420341">
        <ele>989.66800000000001</ele>
        <time>2026-04-25T09:20:42Z</time>
      </trkpt>
      <trkpt lat="40.66383495926857" lon="-2.569628991186619">
        <ele>990.28999999999996</ele>
        <time>2026-04-25T09:20:44Z</time>
      </trkpt>
      <trkpt lat="40.663817021995783" lon="-2.569608958438039">
        <ele>991.09900000000005</ele>
        <time>2026-04-25T09:20:47Z</time>
      </trkpt>
      <trkpt lat="40.663796989247203" lon="-2.569613987579942">
        <ele>992.26999999999998</ele>
        <time>2026-04-25T09:20:52Z</time>
      </trkpt>
      <trkpt lat="40.663769999518991" lon="-2.569593032822013">
        <ele>992.89499999999998</ele>
        <time>2026-04-25T09:20:58Z</time>
      </trkpt>
      <trkpt lat="40.663749966770411" lon="-2.569600995630026">
        <ele>993.41899999999998</ele>
        <time>2026-04-25T09:21:00Z</time>
      </trkpt>
      <trkpt lat="40.66372599452734" lon="-2.569603007286787">
        <ele>993.80899999999997</ele>
        <time>2026-04-25T09:21:02Z</time>
      </trkpt>
      <trkpt lat="40.66370596177876" lon="-2.569594038650394">
        <ele>994.41899999999998</ele>
        <time>2026-04-25T09:21:05Z</time>
      </trkpt>
      <trkpt lat="40.663680983707309" lon="-2.569579035043716">
        <ele>994.80899999999997</ele>
        <time>2026-04-25T09:21:07Z</time>
      </trkpt>
      <trkpt lat="40.663651982322335" lon="-2.569573000073433">
        <ele>995.24300000000005</ele>
        <time>2026-04-25T09:21:09Z</time>
      </trkpt>
      <trkpt lat="40.663629015907645" lon="-2.56956797093153">
        <ele>995.68700000000001</ele>
        <time>2026-04-25T09:21:11Z</time>
      </trkpt>
      <trkpt lat="40.663595991209149" lon="-2.569579035043716">
        <ele>996.452</ele>
        <time>2026-04-25T09:21:15Z</time>
      </trkpt>
      <trkpt lat="40.663489960134029" lon="-2.569609964266419">
        <ele>998.25199999999995</ele>
        <time>2026-04-25T09:21:20Z</time>
      </trkpt>
      <trkpt lat="40.663449978455901" lon="-2.569625973701477">
        <ele>998.48800000000006</ele>
        <time>2026-04-25T09:21:22Z</time>
      </trkpt>
      <trkpt lat="40.663427012041211" lon="-2.569628991186619">
        <ele>998.62</ele>
        <time>2026-04-25T09:21:23Z</time>
      </trkpt>
      <trkpt lat="40.663403961807489" lon="-2.569632008671761">
        <ele>998.83900000000006</ele>
        <time>2026-04-25T09:21:24Z</time>
      </trkpt>
      <trkpt lat="40.663375966250896" lon="-2.569637037813664">
        <ele>998.87</ele>
        <time>2026-04-25T09:21:25Z</time>
      </trkpt>
      <trkpt lat="40.663360040634871" lon="-2.569666039198637">
        <ele>999.41499999999996</ele>
        <time>2026-04-25T09:21:27Z</time>
      </trkpt>
      <trkpt lat="40.663341013714671" lon="-2.569669978693128">
        <ele>999.67700000000002</ele>
        <time>2026-04-25T09:21:29Z</time>
      </trkpt>
      <trkpt lat="40.663320980966091" lon="-2.569666961207986">
        <ele>1000.061</ele>
        <time>2026-04-25T09:21:32Z</time>
      </trkpt>
      <trkpt lat="40.663292985409498" lon="-2.569676013663411">
        <ele>1000.627</ele>
        <time>2026-04-25T09:21:35Z</time>
      </trkpt>
      <trkpt lat="40.663268007338047" lon="-2.569684982299805">
        <ele>1001.409</ele>
        <time>2026-04-25T09:21:37Z</time>
      </trkpt>
      <trkpt lat="40.663245040923357" lon="-2.569682970643044">
        <ele>1001.829</ele>
        <time>2026-04-25T09:21:39Z</time>
      </trkpt>
      <trkpt lat="40.663226014003158" lon="-2.56967400200665">
        <ele>1002.283</ele>
        <time>2026-04-25T09:21:41Z</time>
      </trkpt>
      <trkpt lat="40.663207992911339" lon="-2.569666961207986">
        <ele>1002.648</ele>
        <time>2026-04-25T09:21:43Z</time>
      </trkpt>
      <trkpt lat="40.663153007626534" lon="-2.569667967036367">
        <ele>1004.628</ele>
        <time>2026-04-25T09:21:49Z</time>
      </trkpt>
      <trkpt lat="40.663141021504998" lon="-2.569643994793296">
        <ele>1005.494</ele>
        <time>2026-04-25T09:21:53Z</time>
      </trkpt>
      <trkpt lat="40.663127023726702" lon="-2.569622034206986">
        <ele>1006.086</ele>
        <time>2026-04-25T09:21:57Z</time>
      </trkpt>
      <trkpt lat="40.663109002634883" lon="-2.569612981751561">
        <ele>1007.215</ele>
        <time>2026-04-25T09:22:03Z</time>
      </trkpt>
      <trkpt lat="40.663063991814852" lon="-2.569536035880446">
        <ele>1009.6660000000001</ele>
        <time>2026-04-25T09:22:18Z</time>
      </trkpt>
      <trkpt lat="40.663049994036555" lon="-2.569511979818344">
        <ele>1011.471</ele>
        <time>2026-04-25T09:22:25Z</time>
      </trkpt>
      <trkpt lat="40.663034990429878" lon="-2.569496976211667">
        <ele>1012.246</ele>
        <time>2026-04-25T09:22:28Z</time>
      </trkpt>
      <trkpt lat="40.662958966568112" lon="-2.569421958178282">
        <ele>1015.288</ele>
        <time>2026-04-25T09:22:40Z</time>
      </trkpt>
      <trkpt lat="40.662865005433559" lon="-2.569393962621689">
        <ele>1016.4160000000001</ele>
        <time>2026-04-25T09:22:48Z</time>
      </trkpt>
      <trkpt lat="40.662770038470626" lon="-2.569359010085464">
        <ele>1018.809</ele>
        <time>2026-04-25T09:22:59Z</time>
      </trkpt>
      <trkpt lat="40.662702983245254" lon="-2.569273011758924">
        <ele>1022.686</ele>
        <time>2026-04-25T09:23:14Z</time>
      </trkpt>
      <trkpt lat="40.662713041529059" lon="-2.569251973181963">
        <ele>1023.84</ele>
        <time>2026-04-25T09:23:19Z</time>
      </trkpt>
      <trkpt lat="40.662752017378807" lon="-2.569145020097494">
        <ele>1027.4449999999999</ele>
        <time>2026-04-25T09:23:34Z</time>
      </trkpt>
      <trkpt lat="40.662669036537409" lon="-2.569086011499167">
        <ele>1031.0650000000001</ele>
        <time>2026-04-25T09:23:50Z</time>
      </trkpt>
      <trkpt lat="40.662573985755444" lon="-2.569037983193994">
        <ele>1034.2809999999999</ele>
        <time>2026-04-25T09:24:03Z</time>
      </trkpt>
      <trkpt lat="40.662487987428904" lon="-2.569081988185644">
        <ele>1035.0129999999999</ele>
        <time>2026-04-25T09:24:09Z</time>
      </trkpt>
      <trkpt lat="40.662401989102364" lon="-2.569124987348914">
        <ele>1036.232</ele>
        <time>2026-04-25T09:24:22Z</time>
      </trkpt>
      <trkpt lat="40.662323031574488" lon="-2.569194976240397">
        <ele>1037.223</ele>
        <time>2026-04-25T09:24:28Z</time>
      </trkpt>
      <trkpt lat="40.662296963855624" lon="-2.569191036745906">
        <ele>1037.4880000000001</ele>
        <time>2026-04-25T09:24:31Z</time>
      </trkpt>
      <trkpt lat="40.662275003269315" lon="-2.569189025089145">
        <ele>1037.6379999999999</ele>
        <time>2026-04-25T09:24:33Z</time>
      </trkpt>
      <trkpt lat="40.662249019369483" lon="-2.5691809784621">
        <ele>1038.27</ele>
        <time>2026-04-25T09:24:36Z</time>
      </trkpt>
      <trkpt lat="40.662224041298032" lon="-2.569175027310848">
        <ele>1039.0170000000001</ele>
        <time>2026-04-25T09:24:39Z</time>
      </trkpt>
      <trkpt lat="40.662197973579168" lon="-2.569187013432384">
        <ele>1040.009</ele>
        <time>2026-04-25T09:24:42Z</time>
      </trkpt>
      <trkpt lat="40.662177018821239" lon="-2.569197993725538">
        <ele>1040.845</ele>
        <time>2026-04-25T09:24:45Z</time>
      </trkpt>
      <trkpt lat="40.662154974415898" lon="-2.569194976240397">
        <ele>1041.819</ele>
        <time>2026-04-25T09:24:48Z</time>
      </trkpt>
      <trkpt lat="40.662134019657969" lon="-2.569194976240397">
        <ele>1042.2539999999999</ele>
        <time>2026-04-25T09:24:50Z</time>
      </trkpt>
      <trkpt lat="40.66211499273777" lon="-2.569204028695822">
        <ele>1042.8240000000001</ele>
        <time>2026-04-25T09:24:52Z</time>
      </trkpt>
      <trkpt lat="40.662096971645951" lon="-2.569211991503835">
        <ele>1043.4300000000001</ele>
        <time>2026-04-25T09:24:54Z</time>
      </trkpt>
      <trkpt lat="40.662075011059642" lon="-2.569216014817357">
        <ele>1043.8520000000001</ele>
        <time>2026-04-25T09:24:56Z</time>
      </trkpt>
      <trkpt lat="40.662045003846288" lon="-2.569232024252415">
        <ele>1044.431</ele>
        <time>2026-04-25T09:24:59Z</time>
      </trkpt>
      <trkpt lat="40.662018014118075" lon="-2.569232024252415">
        <ele>1044.8620000000001</ele>
        <time>2026-04-25T09:25:02Z</time>
      </trkpt>
      <trkpt lat="40.661988006904721" lon="-2.56924401037395">
        <ele>1045.2370000000001</ele>
        <time>2026-04-25T09:25:04Z</time>
      </trkpt>
      <trkpt lat="40.661968979984522" lon="-2.569250967353582">
        <ele>1045.2439999999999</ele>
        <time>2026-04-25T09:25:05Z</time>
      </trkpt>
      <trkpt lat="40.661947019398212" lon="-2.569255996495485">
        <ele>1045.405</ele>
        <time>2026-04-25T09:25:06Z</time>
      </trkpt>
      <trkpt lat="40.661922041326761" lon="-2.569261025637388">
        <ele>1045.415</ele>
        <time>2026-04-25T09:25:07Z</time>
      </trkpt>
      <trkpt lat="40.661897985264659" lon="-2.569263959303498">
        <ele>1045.4090000000001</ele>
        <time>2026-04-25T09:25:08Z</time>
      </trkpt>
      <trkpt lat="40.661874013021588" lon="-2.569260019809008">
        <ele>1045.4459999999999</ele>
        <time>2026-04-25T09:25:09Z</time>
      </trkpt>
      <trkpt lat="40.661852974444628" lon="-2.569263959303498">
        <ele>1045.6400000000001</ele>
        <time>2026-04-25T09:25:10Z</time>
      </trkpt>
      <trkpt lat="40.661830008029938" lon="-2.569264965131879">
        <ele>1045.615</ele>
        <time>2026-04-25T09:25:11Z</time>
      </trkpt>
      <trkpt lat="40.6617939658463" lon="-2.569267982617021">
        <ele>1045.6949999999999</ele>
        <time>2026-04-25T09:25:14Z</time>
      </trkpt>
      <trkpt lat="40.661777034401894" lon="-2.569260019809008">
        <ele>1045.8109999999999</ele>
        <time>2026-04-25T09:25:16Z</time>
      </trkpt>
      <trkpt lat="40.661720959469676" lon="-2.569151977077127">
        <ele>1047.8130000000001</ele>
        <time>2026-04-25T09:25:26Z</time>
      </trkpt>
      <trkpt lat="40.66170796751976" lon="-2.569116018712521">
        <ele>1049.252</ele>
        <time>2026-04-25T09:25:31Z</time>
      </trkpt>
      <trkpt lat="40.661654993891716" lon="-2.569010993465781">
        <ele>1052.443</ele>
        <time>2026-04-25T09:25:43Z</time>
      </trkpt>
      <trkpt lat="40.661573018878698" lon="-2.568947039544582">
        <ele>1055.838</ele>
        <time>2026-04-25T09:25:56Z</time>
      </trkpt>
      <trkpt lat="40.661543011665344" lon="-2.568948967382312">
        <ele>1056.4839999999999</ele>
        <time>2026-04-25T09:25:59Z</time>
      </trkpt>
      <trkpt lat="40.661519961431623" lon="-2.568948967382312">
        <ele>1056.807</ele>
        <time>2026-04-25T09:26:03Z</time>
      </trkpt>
      <trkpt lat="40.661500012502074" lon="-2.568949973210692">
        <ele>1056.817</ele>
        <time>2026-04-25T09:26:05Z</time>
      </trkpt>
      <trkpt lat="40.661477968096733" lon="-2.568942010402679">
        <ele>1056.6089999999999</ele>
        <time>2026-04-25T09:26:07Z</time>
      </trkpt>
      <trkpt lat="40.661458019167185" lon="-2.568926000967622">
        <ele>1057.04</ele>
        <time>2026-04-25T09:26:09Z</time>
      </trkpt>
      <trkpt lat="40.661439998075366" lon="-2.568916026502848">
        <ele>1058.2539999999999</ele>
        <time>2026-04-25T09:26:14Z</time>
      </trkpt>
      <trkpt lat="40.661433963105083" lon="-2.568887025117874">
        <ele>1059.259</ele>
        <time>2026-04-25T09:26:20Z</time>
      </trkpt>
      <trkpt lat="40.661444021388888" lon="-2.568861041218042">
        <ele>1060.069</ele>
        <time>2026-04-25T09:26:23Z</time>
      </trkpt>
      <trkpt lat="40.661461036652327" lon="-2.56883597932756">
        <ele>1060.6849999999999</ele>
        <time>2026-04-25T09:26:26Z</time>
      </trkpt>
      <trkpt lat="40.661476040259004" lon="-2.568816030398011">
        <ele>1061.617</ele>
        <time>2026-04-25T09:26:30Z</time>
      </trkpt>
      <trkpt lat="40.661475034430623" lon="-2.568789962679148">
        <ele>1062.6859999999999</ele>
        <time>2026-04-25T09:26:33Z</time>
      </trkpt>
      <trkpt lat="40.661459024995565" lon="-2.56877101957798">
        <ele>1063.4870000000001</ele>
        <time>2026-04-25T09:26:36Z</time>
      </trkpt>
      <trkpt lat="40.661442009732127" lon="-2.568760961294174">
        <ele>1063.8219999999999</ele>
        <time>2026-04-25T09:26:38Z</time>
      </trkpt>
      <trkpt lat="40.661431029438972" lon="-2.568740006536245">
        <ele>1064.414</ele>
        <time>2026-04-25T09:26:42Z</time>
      </trkpt>
      <trkpt lat="40.661413008347154" lon="-2.568723997101188">
        <ele>1065.454</ele>
        <time>2026-04-25T09:26:46Z</time>
      </trkpt>
      <trkpt lat="40.661399010568857" lon="-2.568704970180988">
        <ele>1066.2090000000001</ele>
        <time>2026-04-25T09:26:49Z</time>
      </trkpt>
      <trkpt lat="40.661376966163516" lon="-2.568692984059453">
        <ele>1066.6089999999999</ele>
        <time>2026-04-25T09:26:52Z</time>
      </trkpt>
      <trkpt lat="40.661350982263684" lon="-2.568686027079821">
        <ele>1067.2329999999999</ele>
        <time>2026-04-25T09:26:54Z</time>
      </trkpt>
      <trkpt lat="40.661333967000246" lon="-2.568682003766298">
        <ele>1067.4670000000001</ele>
        <time>2026-04-25T09:26:55Z</time>
      </trkpt>
      <trkpt lat="40.661314018070698" lon="-2.568678986281157">
        <ele>1067.662</ele>
        <time>2026-04-25T09:26:56Z</time>
      </trkpt>
      <trkpt lat="40.661275964230299" lon="-2.568680997937918">
        <ele>1068.2619999999999</ele>
        <time>2026-04-25T09:26:58Z</time>
      </trkpt>
      <trkpt lat="40.661244029179215" lon="-2.568682003766298">
        <ele>1068.6279999999999</ele>
        <time>2026-04-25T09:27:00Z</time>
      </trkpt>
      <trkpt lat="40.661221984773874" lon="-2.568671023473144">
        <ele>1069.22</ele>
        <time>2026-04-25T09:27:02Z</time>
      </trkpt>
      <trkpt lat="40.661201030015945" lon="-2.568654008209705">
        <ele>1069.499</ele>
        <time>2026-04-25T09:27:04Z</time>
      </trkpt>
      <trkpt lat="40.661184014752507" lon="-2.568633975461125">
        <ele>1070.05</ele>
        <time>2026-04-25T09:27:06Z</time>
      </trkpt>
      <trkpt lat="40.661163982003927" lon="-2.568622995167971">
        <ele>1070.4349999999999</ele>
        <time>2026-04-25T09:27:08Z</time>
      </trkpt>
      <trkpt lat="40.661141015589237" lon="-2.568628024309874">
        <ele>1070.817</ele>
        <time>2026-04-25T09:27:10Z</time>
      </trkpt>
      <trkpt lat="40.661117965355515" lon="-2.568627018481493">
        <ele>1071.287</ele>
        <time>2026-04-25T09:27:12Z</time>
      </trkpt>
      <trkpt lat="40.661099022254348" lon="-2.568616038188338">
        <ele>1071.615</ele>
        <time>2026-04-25T09:27:14Z</time>
      </trkpt>
      <trkpt lat="40.661074966192245" lon="-2.568602962419391">
        <ele>1071.809</ele>
        <time>2026-04-25T09:27:16Z</time>
      </trkpt>
      <trkpt lat="40.661044958978891" lon="-2.568594999611378">
        <ele>1072.0930000000001</ele>
        <time>2026-04-25T09:27:18Z</time>
      </trkpt>
      <trkpt lat="40.661009000614285" lon="-2.568590976297855">
        <ele>1072.2170000000001</ele>
        <time>2026-04-25T09:27:20Z</time>
      </trkpt>
      <trkpt lat="40.660974970087409" lon="-2.568591982126236">
        <ele>1072.2819999999999</ele>
        <time>2026-04-25T09:27:22Z</time>
      </trkpt>
      <trkpt lat="40.660944040864706" lon="-2.568586030974984">
        <ele>1072.2819999999999</ele>
        <time>2026-04-25T09:27:24Z</time>
      </trkpt>
      <trkpt lat="40.660913027822971" lon="-2.568572033196688">
        <ele>1072.018</ele>
        <time>2026-04-25T09:27:26Z</time>
      </trkpt>
      <trkpt lat="40.660884026437998" lon="-2.56855501793325">
        <ele>1071.8399999999999</ele>
        <time>2026-04-25T09:27:28Z</time>
      </trkpt>
      <trkpt lat="40.660857036709785" lon="-2.568531967699528">
        <ele>1071.8489999999999</ele>
        <time>2026-04-25T09:27:30Z</time>
      </trkpt>
      <trkpt lat="40.660827029496431" lon="-2.56851201876998">
        <ele>1071.4200000000001</ele>
        <time>2026-04-25T09:27:32Z</time>
      </trkpt>
      <trkpt lat="40.660799033939838" lon="-2.568496009334922">
        <ele>1071.2449999999999</ele>
        <time>2026-04-25T09:27:34Z</time>
      </trkpt>
      <trkpt lat="40.6607820186764" lon="-2.568472037091851">
        <ele>1070.8720000000001</ele>
        <time>2026-04-25T09:27:36Z</time>
      </trkpt>
      <trkpt lat="40.66076198592782" lon="-2.568444963544607">
        <ele>1070.413</ele>
        <time>2026-04-25T09:27:38Z</time>
      </trkpt>
      <trkpt lat="40.660740025341511" lon="-2.56840598769486">
        <ele>1070.0139999999999</ele>
        <time>2026-04-25T09:27:40Z</time>
      </trkpt>
      <trkpt lat="40.660722004249692" lon="-2.568382015451789">
        <ele>1069.809</ele>
        <time>2026-04-25T09:27:41Z</time>
      </trkpt>
      <trkpt lat="40.660702977329493" lon="-2.568357037380338">
        <ele>1069.479</ele>
        <time>2026-04-25T09:27:42Z</time>
      </trkpt>
      <trkpt lat="40.660683028399944" lon="-2.568333987146616">
        <ele>1069.223</ele>
        <time>2026-04-25T09:27:43Z</time>
      </trkpt>
      <trkpt lat="40.660668024793267" lon="-2.568309009075165">
        <ele>1068.838</ele>
        <time>2026-04-25T09:27:44Z</time>
      </trkpt>
      <trkpt lat="40.660657966509461" lon="-2.568281013518572">
        <ele>1068.498</ele>
        <time>2026-04-25T09:27:45Z</time>
      </trkpt>
      <trkpt lat="40.660648997873068" lon="-2.568251006305218">
        <ele>1068.0940000000001</ele>
        <time>2026-04-25T09:27:46Z</time>
      </trkpt>
      <trkpt lat="40.660642962902784" lon="-2.568220999091864">
        <ele>1067.646</ele>
        <time>2026-04-25T09:27:47Z</time>
      </trkpt>
      <trkpt lat="40.660637011751533" lon="-2.568193003535271">
        <ele>1067.2650000000001</ele>
        <time>2026-04-25T09:27:48Z</time>
      </trkpt>
      <trkpt lat="40.660638017579913" lon="-2.568161990493536">
        <ele>1066.6759999999999</ele>
        <time>2026-04-25T09:27:49Z</time>
      </trkpt>
      <trkpt lat="40.660642962902784" lon="-2.568132989108563">
        <ele>1066.261</ele>
        <time>2026-04-25T09:27:50Z</time>
      </trkpt>
      <trkpt lat="40.66065201535821" lon="-2.56810499355197">
        <ele>1065.482</ele>
        <time>2026-04-25T09:27:51Z</time>
      </trkpt>
      <trkpt lat="40.660669030621648" lon="-2.568076997995377">
        <ele>1064.8430000000001</ele>
        <time>2026-04-25T09:27:52Z</time>
      </trkpt>
      <trkpt lat="40.660688979551196" lon="-2.568046990782023">
        <ele>1064.2170000000001</ele>
        <time>2026-04-25T09:27:53Z</time>
      </trkpt>
      <trkpt lat="40.660708006471395" lon="-2.568015977740288">
        <ele>1063.6089999999999</ele>
        <time>2026-04-25T09:27:54Z</time>
      </trkpt>
      <trkpt lat="40.660725021734834" lon="-2.567984964698553">
        <ele>1063.29</ele>
        <time>2026-04-25T09:27:55Z</time>
      </trkpt>
      <trkpt lat="40.66073901951313" lon="-2.56795302964747">
        <ele>1062.444</ele>
        <time>2026-04-25T09:27:56Z</time>
      </trkpt>
      <trkpt lat="40.660758968442678" lon="-2.567918999120593">
        <ele>1062.239</ele>
        <time>2026-04-25T09:27:57Z</time>
      </trkpt>
      <trkpt lat="40.660780007019639" lon="-2.567885974422097">
        <ele>1061.4690000000001</ele>
        <time>2026-04-25T09:27:58Z</time>
      </trkpt>
      <trkpt lat="40.660798028111458" lon="-2.567853033542633">
        <ele>1061.075</ele>
        <time>2026-04-25T09:27:59Z</time>
      </trkpt>
      <trkpt lat="40.660812025889754" lon="-2.567816991358995">
        <ele>1060.4670000000001</ele>
        <time>2026-04-25T09:28:00Z</time>
      </trkpt>
      <trkpt lat="40.660827029496431" lon="-2.56778203882277">
        <ele>1059.846</ele>
        <time>2026-04-25T09:28:01Z</time>
      </trkpt>
      <trkpt lat="40.660840021446347" lon="-2.567751025781035">
        <ele>1059.2370000000001</ele>
        <time>2026-04-25T09:28:02Z</time>
      </trkpt>
      <trkpt lat="40.660854019224644" lon="-2.567724036052823">
        <ele>1059.0920000000001</ele>
        <time>2026-04-25T09:28:03Z</time>
      </trkpt>
      <trkpt lat="40.660870028659701" lon="-2.56769897416234">
        <ele>1058.4190000000001</ele>
        <time>2026-04-25T09:28:04Z</time>
      </trkpt>
      <trkpt lat="40.660886038094759" lon="-2.567671984434128">
        <ele>1058.009</ele>
        <time>2026-04-25T09:28:05Z</time>
      </trkpt>
      <trkpt lat="40.660900035873055" lon="-2.567640971392393">
        <ele>1057.4190000000001</ele>
        <time>2026-04-25T09:28:06Z</time>
      </trkpt>
      <trkpt lat="40.66091001033783" lon="-2.567608030512929">
        <ele>1057.2090000000001</ele>
        <time>2026-04-25T09:28:07Z</time>
      </trkpt>
      <trkpt lat="40.660921996459365" lon="-2.567575005814433">
        <ele>1057.0530000000001</ele>
        <time>2026-04-25T09:28:08Z</time>
      </trkpt>
      <trkpt lat="40.66093297675252" lon="-2.567541981115937">
        <ele>1056.6869999999999</ele>
        <time>2026-04-25T09:28:09Z</time>
      </trkpt>
      <trkpt lat="40.660945968702435" lon="-2.567508034408093">
        <ele>1056.492</ele>
        <time>2026-04-25T09:28:10Z</time>
      </trkpt>
      <trkpt lat="40.660957032814622" lon="-2.567475009709597">
        <ele>1056.0820000000001</ele>
        <time>2026-04-25T09:28:11Z</time>
      </trkpt>
      <trkpt lat="40.660967007279396" lon="-2.56744097918272">
        <ele>1055.8579999999999</ele>
        <time>2026-04-25T09:28:12Z</time>
      </trkpt>
      <trkpt lat="40.66097597591579" lon="-2.567407032474876">
        <ele>1055.4300000000001</ele>
        <time>2026-04-25T09:28:13Z</time>
      </trkpt>
      <trkpt lat="40.660987962037325" lon="-2.567373001947999">
        <ele>1055.289</ele>
        <time>2026-04-25T09:28:14Z</time>
      </trkpt>
      <trkpt lat="40.661000031977892" lon="-2.567340983077884">
        <ele>1054.8599999999999</ele>
        <time>2026-04-25T09:28:15Z</time>
      </trkpt>
      <trkpt lat="40.661011012271047" lon="-2.567308964207768">
        <ele>1054.645</ele>
        <time>2026-04-25T09:28:16Z</time>
      </trkpt>
      <trkpt lat="40.661028027534485" lon="-2.567274011671543">
        <ele>1054.4490000000001</ele>
        <time>2026-04-25T09:28:17Z</time>
      </trkpt>
      <trkpt lat="40.66104001365602" lon="-2.567240986973047">
        <ele>1054.002</ele>
        <time>2026-04-25T09:28:18Z</time>
      </trkpt>
      <trkpt lat="40.661049988120794" lon="-2.567208968102932">
        <ele>1054.0219999999999</ele>
        <time>2026-04-25T09:28:19Z</time>
      </trkpt>
      <trkpt lat="40.661060968413949" lon="-2.567177033051848">
        <ele>1053.6089999999999</ele>
        <time>2026-04-25T09:28:20Z</time>
      </trkpt>
      <trkpt lat="40.661073038354516" lon="-2.567144008353353">
        <ele>1053.2159999999999</ele>
        <time>2026-04-25T09:28:21Z</time>
      </trkpt>
      <trkpt lat="40.66108301281929" lon="-2.567110983654857">
        <ele>1053.0899999999999</ele>
        <time>2026-04-25T09:28:22Z</time>
      </trkpt>
      <trkpt lat="40.661097010597587" lon="-2.567079970613122">
        <ele>1052.865</ele>
        <time>2026-04-25T09:28:23Z</time>
      </trkpt>
      <trkpt lat="40.661114025861025" lon="-2.567050969228149">
        <ele>1052.655</ele>
        <time>2026-04-25T09:28:24Z</time>
      </trkpt>
      <trkpt lat="40.661130035296082" lon="-2.567022973671556">
        <ele>1052.4110000000001</ele>
        <time>2026-04-25T09:28:25Z</time>
      </trkpt>
      <trkpt lat="40.661144033074379" lon="-2.566993972286582">
        <ele>1052.2429999999999</ele>
        <time>2026-04-25T09:28:26Z</time>
      </trkpt>
      <trkpt lat="40.661158030852675" lon="-2.566963965073228">
        <ele>1051.8620000000001</ele>
        <time>2026-04-25T09:28:27Z</time>
      </trkpt>
      <trkpt lat="40.661164987832308" lon="-2.566930018365383">
        <ele>1051.453</ele>
        <time>2026-04-25T09:28:28Z</time>
      </trkpt>
      <trkpt lat="40.661159958690405" lon="-2.566895987838507">
        <ele>1051.268</ele>
        <time>2026-04-25T09:28:29Z</time>
      </trkpt>
      <trkpt lat="40.661142021417618" lon="-2.566871009767056">
        <ele>1050.837</ele>
        <time>2026-04-25T09:28:30Z</time>
      </trkpt>
      <trkpt lat="40.661114025861025" lon="-2.56685902364552">
        <ele>1050.4490000000001</ele>
        <time>2026-04-25T09:28:31Z</time>
      </trkpt>
      <trkpt lat="40.66108200699091" lon="-2.566863968968391">
        <ele>1050.0129999999999</ele>
        <time>2026-04-25T09:28:32Z</time>
      </trkpt>
      <trkpt lat="40.661054011434317" lon="-2.566879978403449">
        <ele>1049.6089999999999</ele>
        <time>2026-04-25T09:28:33Z</time>
      </trkpt>
      <trkpt lat="40.661028027534485" lon="-2.566899005323649">
        <ele>1049.2550000000001</ele>
        <time>2026-04-25T09:28:34Z</time>
      </trkpt>
      <trkpt lat="40.661002965644002" lon="-2.566919960081577">
        <ele>1049.069</ele>
        <time>2026-04-25T09:28:35Z</time>
      </trkpt>
      <trkpt lat="40.660983016714454" lon="-2.566939992830157">
        <ele>1048.694</ele>
        <time>2026-04-25T09:28:36Z</time>
      </trkpt>
      <trkpt lat="40.660962983965874" lon="-2.566962037235498">
        <ele>1048.4639999999999</ele>
        <time>2026-04-25T09:28:37Z</time>
      </trkpt>
      <trkpt lat="40.660941023379564" lon="-2.566983997821808">
        <ele>1048.0899999999999</ele>
        <time>2026-04-25T09:28:38Z</time>
      </trkpt>
      <trkpt lat="40.660916967317462" lon="-2.567005958408117">
        <ele>1048.0920000000001</ele>
        <time>2026-04-25T09:28:39Z</time>
      </trkpt>
      <trkpt lat="40.660892995074391" lon="-2.56703001447022">
        <ele>1047.6410000000001</ele>
        <time>2026-04-25T09:28:40Z</time>
      </trkpt>
      <trkpt lat="40.66086801700294" lon="-2.567055998370051">
        <ele>1047.482</ele>
        <time>2026-04-25T09:28:41Z</time>
      </trkpt>
      <trkpt lat="40.660841027274728" lon="-2.567078964784741">
        <ele>1047.0170000000001</ele>
        <time>2026-04-25T09:28:42Z</time>
      </trkpt>
      <trkpt lat="40.660814037546515" lon="-2.567101009190083">
        <ele>1046.4490000000001</ele>
        <time>2026-04-25T09:28:43Z</time>
      </trkpt>
      <trkpt lat="40.660786963999271" lon="-2.567121963948011">
        <ele>1046.202</ele>
        <time>2026-04-25T09:28:44Z</time>
      </trkpt>
      <trkpt lat="40.66076098009944" lon="-2.567140990868211">
        <ele>1045.8219999999999</ele>
        <time>2026-04-25T09:28:45Z</time>
      </trkpt>
      <trkpt lat="40.660734996199608" lon="-2.567162029445171">
        <ele>1045.4090000000001</ele>
        <time>2026-04-25T09:28:46Z</time>
      </trkpt>
      <trkpt lat="40.660712029784918" lon="-2.56718197837472">
        <ele>1045.056</ele>
        <time>2026-04-25T09:28:47Z</time>
      </trkpt>
      <trkpt lat="40.660689985379577" lon="-2.56720301695168">
        <ele>1044.6199999999999</ele>
        <time>2026-04-25T09:28:48Z</time>
      </trkpt>
      <trkpt lat="40.660669030621648" lon="-2.567221960052848">
        <ele>1044.4849999999999</ele>
        <time>2026-04-25T09:28:49Z</time>
      </trkpt>
      <trkpt lat="40.660646986216307" lon="-2.567236963659525">
        <ele>1044.095</ele>
        <time>2026-04-25T09:28:50Z</time>
      </trkpt>
      <trkpt lat="40.660625025629997" lon="-2.567252973094583">
        <ele>1043.8610000000001</ele>
        <time>2026-04-25T09:28:51Z</time>
      </trkpt>
      <trkpt lat="40.660603987053037" lon="-2.567269988358021">
        <ele>1043.8430000000001</ele>
        <time>2026-04-25T09:28:52Z</time>
      </trkpt>
      <trkpt lat="40.660585965961218" lon="-2.567285997793078">
        <ele>1043.6420000000001</ele>
        <time>2026-04-25T09:28:53Z</time>
      </trkpt>
      <trkpt lat="40.660556964576244" lon="-2.567306030541658">
        <ele>1043.2329999999999</ele>
        <time>2026-04-25T09:28:55Z</time>
      </trkpt>
      <trkpt lat="40.660532992333174" lon="-2.567318016663194">
        <ele>1042.6780000000001</ele>
        <time>2026-04-25T09:28:57Z</time>
      </trkpt>
      <trkpt lat="40.660510025918484" lon="-2.567330002784729">
        <ele>1042.232</ele>
        <time>2026-04-25T09:29:00Z</time>
      </trkpt>
      <trkpt lat="40.660493010655046" lon="-2.567339977249503">
        <ele>1042.0920000000001</ele>
        <time>2026-04-25T09:29:03Z</time>
      </trkpt>
      <trkpt lat="40.660470966249704" lon="-2.567334026098251">
        <ele>1041.4110000000001</ele>
        <time>2026-04-25T09:29:07Z</time>
      </trkpt>
      <trkpt lat="40.660454034805298" lon="-2.567319022491574">
        <ele>1042.2090000000001</ele>
        <time>2026-04-25T09:29:34Z</time>
      </trkpt>
      <trkpt lat="40.660445988178253" lon="-2.567303013056517">
        <ele>1046.8599999999999</ele>
        <time>2026-04-25T09:33:21Z</time>
      </trkpt>
      <trkpt lat="40.660455962643027" lon="-2.567280968651176">
        <ele>1047.682</ele>
        <time>2026-04-25T09:33:42Z</time>
      </trkpt>
      <trkpt lat="40.660456968471408" lon="-2.567254984751344">
        <ele>1047.221</ele>
        <time>2026-04-25T09:33:54Z</time>
      </trkpt>
      <trkpt lat="40.660457974299788" lon="-2.56722598336637">
        <ele>1046.682</ele>
        <time>2026-04-25T09:34:00Z</time>
      </trkpt>
      <trkpt lat="40.660455962643027" lon="-2.567192036658526">
        <ele>1046.0170000000001</ele>
        <time>2026-04-25T09:34:03Z</time>
      </trkpt>
      <trkpt lat="40.66043802537024" lon="-2.567152976989746">
        <ele>1045.616</ele>
        <time>2026-04-25T09:34:05Z</time>
      </trkpt>
      <trkpt lat="40.66041799262166" lon="-2.567120958119631">
        <ele>1044.6759999999999</ele>
        <time>2026-04-25T09:34:07Z</time>
      </trkpt>
      <trkpt lat="40.660401983186603" lon="-2.567088017240167">
        <ele>1043.413</ele>
        <time>2026-04-25T09:34:09Z</time>
      </trkpt>
      <trkpt lat="40.660396032035351" lon="-2.567062033340335">
        <ele>1042.809</ele>
        <time>2026-04-25T09:34:10Z</time>
      </trkpt>
      <trkpt lat="40.66039502620697" lon="-2.567022973671556">
        <ele>1041.8530000000001</ele>
        <time>2026-04-25T09:34:12Z</time>
      </trkpt>
      <trkpt lat="40.660377005115151" lon="-2.566990032792091">
        <ele>1041.037</ele>
        <time>2026-04-25T09:34:14Z</time>
      </trkpt>
      <trkpt lat="40.6603520270437" lon="-2.566997995600104">
        <ele>1039.222</ele>
        <time>2026-04-25T09:34:17Z</time>
      </trkpt>
      <trkpt lat="40.66033199429512" lon="-2.566999001428485">
        <ele>1038.662</ele>
        <time>2026-04-25T09:34:18Z</time>
      </trkpt>
      <trkpt lat="40.660297041758895" lon="-2.567005036398768">
        <ele>1037.8679999999999</ele>
        <time>2026-04-25T09:34:20Z</time>
      </trkpt>
      <trkpt lat="40.660276003181934" lon="-2.566997995600104">
        <ele>1036.8099999999999</ele>
        <time>2026-04-25T09:34:22Z</time>
      </trkpt>
      <trkpt lat="40.660256976261735" lon="-2.566970000043511">
        <ele>1035.8989999999999</ele>
        <time>2026-04-25T09:34:24Z</time>
      </trkpt>
      <trkpt lat="40.660251025110483" lon="-2.566946027800441">
        <ele>1035.0899999999999</ele>
        <time>2026-04-25T09:34:25Z</time>
      </trkpt>
      <trkpt lat="40.660239038988948" lon="-2.566919960081577">
        <ele>1034.2449999999999</ele>
        <time>2026-04-25T09:34:27Z</time>
      </trkpt>
      <trkpt lat="40.660264017060399" lon="-2.566803032532334">
        <ele>1030.684</ele>
        <time>2026-04-25T09:34:36Z</time>
      </trkpt>
      <trkpt lat="40.660185981541872" lon="-2.566789034754038">
        <ele>1028.607</ele>
        <time>2026-04-25T09:34:42Z</time>
      </trkpt>
      <trkpt lat="40.66017902456224" lon="-2.566765984520316">
        <ele>1027.817</ele>
        <time>2026-04-25T09:34:45Z</time>
      </trkpt>
      <trkpt lat="40.66018195822835" lon="-2.566740000620484">
        <ele>1026.6089999999999</ele>
        <time>2026-04-25T09:34:50Z</time>
      </trkpt>
      <trkpt lat="40.66013996489346" lon="-2.566675962880254">
        <ele>1024.8599999999999</ele>
        <time>2026-04-25T09:34:54Z</time>
      </trkpt>
      <trkpt lat="40.660122027620673" lon="-2.566657019779086">
        <ele>1023.664</ele>
        <time>2026-04-25T09:34:56Z</time>
      </trkpt>
      <trkpt lat="40.66011699847877" lon="-2.56662298925221">
        <ele>1022.879</ele>
        <time>2026-04-25T09:34:58Z</time>
      </trkpt>
      <trkpt lat="40.660100989043713" lon="-2.566598011180759">
        <ele>1022.249</ele>
        <time>2026-04-25T09:35:00Z</time>
      </trkpt>
      <trkpt lat="40.660085985437036" lon="-2.566582001745701">
        <ele>1021.625</ele>
        <time>2026-04-25T09:35:02Z</time>
      </trkpt>
      <trkpt lat="40.660067964345217" lon="-2.566556017845869">
        <ele>1019.8869999999999</ele>
        <time>2026-04-25T09:35:05Z</time>
      </trkpt>
      <trkpt lat="40.66005296073854" lon="-2.566534979268909">
        <ele>1019.236</ele>
        <time>2026-04-25T09:35:07Z</time>
      </trkpt>
      <trkpt lat="40.660019014030695" lon="-2.566534979268909">
        <ele>1018.467</ele>
        <time>2026-04-25T09:35:09Z</time>
      </trkpt>
      <trkpt lat="40.659997975453734" lon="-2.566541014239192">
        <ele>1018.042</ele>
        <time>2026-04-25T09:35:10Z</time>
      </trkpt>
      <trkpt lat="40.659954976290464" lon="-2.566534979268909">
        <ele>1017.463</ele>
        <time>2026-04-25T09:35:12Z</time>
      </trkpt>
      <trkpt lat="40.659937039017677" lon="-2.566540008410811">
        <ele>1017.444</ele>
        <time>2026-04-25T09:35:13Z</time>
      </trkpt>
      <trkpt lat="40.659920023754239" lon="-2.566553000360727">
        <ele>1017.218</ele>
        <time>2026-04-25T09:35:14Z</time>
      </trkpt>
      <trkpt lat="40.659889010712504" lon="-2.566565992310643">
        <ele>1017.009</ele>
        <time>2026-04-25T09:35:16Z</time>
      </trkpt>
      <trkpt lat="40.659864032641053" lon="-2.566559035331011">
        <ele>1016.678</ele>
        <time>2026-04-25T09:35:18Z</time>
      </trkpt>
      <trkpt lat="40.659849029034376" lon="-2.566540008410811">
        <ele>1016.282</ele>
        <time>2026-04-25T09:35:19Z</time>
      </trkpt>
      <trkpt lat="40.65983503125608" lon="-2.566526010632515">
        <ele>1015.8869999999999</ele>
        <time>2026-04-25T09:35:20Z</time>
      </trkpt>
      <trkpt lat="40.659803012385964" lon="-2.566518969833851">
        <ele>1015.437</ele>
        <time>2026-04-25T09:35:22Z</time>
      </trkpt>
      <trkpt lat="40.659775016829371" lon="-2.566513018682599">
        <ele>1015.083</ele>
        <time>2026-04-25T09:35:24Z</time>
      </trkpt>
      <trkpt lat="40.659756995737553" lon="-2.56651796400547">
        <ele>1014.635</ele>
        <time>2026-04-25T09:35:26Z</time>
      </trkpt>
      <trkpt lat="40.659735035151243" lon="-2.566522993147373">
        <ele>1013.654</ele>
        <time>2026-04-25T09:35:29Z</time>
      </trkpt>
      <trkpt lat="40.659721037372947" lon="-2.566500026732683">
        <ele>1013.0549999999999</ele>
        <time>2026-04-25T09:35:31Z</time>
      </trkpt>
      <trkpt lat="40.659688012674451" lon="-2.566497009247541">
        <ele>1012.48</ele>
        <time>2026-04-25T09:35:33Z</time>
      </trkpt>
      <trkpt lat="40.659654987975955" lon="-2.566491980105639">
        <ele>1011.879</ele>
        <time>2026-04-25T09:35:35Z</time>
      </trkpt>
      <trkpt lat="40.659635039046407" lon="-2.566487034782767">
        <ele>1011.605</ele>
        <time>2026-04-25T09:35:36Z</time>
      </trkpt>
      <trkpt lat="40.659609977155924" lon="-2.566485023126006">
        <ele>1011.225</ele>
        <time>2026-04-25T09:35:37Z</time>
      </trkpt>
      <trkpt lat="40.659589022397995" lon="-2.566475970670581">
        <ele>1011.009</ele>
        <time>2026-04-25T09:35:38Z</time>
      </trkpt>
      <trkpt lat="40.659574018791318" lon="-2.566459961235523">
        <ele>1010.879</ele>
        <time>2026-04-25T09:35:39Z</time>
      </trkpt>
      <trkpt lat="40.659561026841402" lon="-2.566432971507311">
        <ele>1010.053</ele>
        <time>2026-04-25T09:35:41Z</time>
      </trkpt>
      <trkpt lat="40.659547029063106" lon="-2.566404975950718">
        <ele>1009.028</ele>
        <time>2026-04-25T09:35:43Z</time>
      </trkpt>
      <trkpt lat="40.659539988264441" lon="-2.566371029242873">
        <ele>1008.288</ele>
        <time>2026-04-25T09:35:45Z</time>
      </trkpt>
      <trkpt lat="40.659508975222707" lon="-2.566334987059236">
        <ele>1007.494</ele>
        <time>2026-04-25T09:35:47Z</time>
      </trkpt>
      <trkpt lat="40.659488020464778" lon="-2.566319983452559">
        <ele>1006.866</ele>
        <time>2026-04-25T09:35:48Z</time>
      </trkpt>
      <trkpt lat="40.659461030736566" lon="-2.566304979845882">
        <ele>1006.875</ele>
        <time>2026-04-25T09:35:49Z</time>
      </trkpt>
      <trkpt lat="40.659437980502844" lon="-2.566293999552727">
        <ele>1006.496</ele>
        <time>2026-04-25T09:35:50Z</time>
      </trkpt>
      <trkpt lat="40.659416019916534" lon="-2.56629902869463">
        <ele>1006.021</ele>
        <time>2026-04-25T09:35:51Z</time>
      </trkpt>
      <trkpt lat="40.659393975511193" lon="-2.566315038129687">
        <ele>1005.896</ele>
        <time>2026-04-25T09:35:52Z</time>
      </trkpt>
      <trkpt lat="40.659373020753264" lon="-2.566330963745713">
        <ele>1005.631</ele>
        <time>2026-04-25T09:35:53Z</time>
      </trkpt>
      <trkpt lat="40.659357011318207" lon="-2.566346973180771">
        <ele>1005.624</ele>
        <time>2026-04-25T09:35:54Z</time>
      </trkpt>
      <trkpt lat="40.659339996054769" lon="-2.56636600010097">
        <ele>1005.409</ele>
        <time>2026-04-25T09:35:55Z</time>
      </trkpt>
      <trkpt lat="40.659319963306189" lon="-2.566384021192789">
        <ele>1005.221</ele>
        <time>2026-04-25T09:35:56Z</time>
      </trkpt>
      <trkpt lat="40.659302026033401" lon="-2.566399024799466">
        <ele>1005.6950000000001</ele>
        <time>2026-04-25T09:35:57Z</time>
      </trkpt>
      <trkpt lat="40.659269001334906" lon="-2.566397013142705">
        <ele>1005.64</ele>
        <time>2026-04-25T09:35:59Z</time>
      </trkpt>
      <trkpt lat="40.659243017435074" lon="-2.566389972344041">
        <ele>1005.28</ele>
        <time>2026-04-25T09:36:01Z</time>
      </trkpt>
      <trkpt lat="40.659207981079817" lon="-2.566381003707647">
        <ele>1004.876</ele>
        <time>2026-04-25T09:36:03Z</time>
      </trkpt>
      <trkpt lat="40.659187026321888" lon="-2.566376980394125">
        <ele>1004.668</ele>
        <time>2026-04-25T09:36:04Z</time>
      </trkpt>
      <trkpt lat="40.659164981916547" lon="-2.566375974565744">
        <ele>1004.497</ele>
        <time>2026-04-25T09:36:05Z</time>
      </trkpt>
      <trkpt lat="40.659145032986999" lon="-2.566375974565744">
        <ele>1004.098</ele>
        <time>2026-04-25T09:36:06Z</time>
      </trkpt>
      <trkpt lat="40.659125000238419" lon="-2.566370023414493">
        <ele>1004.093</ele>
        <time>2026-04-25T09:36:07Z</time>
      </trkpt>
      <trkpt lat="40.659102033823729" lon="-2.566353008151054">
        <ele>1003.266</ele>
        <time>2026-04-25T09:36:09Z</time>
      </trkpt>
      <trkpt lat="40.659091975539923" lon="-2.5663230009377">
        <ele>1002.829</ele>
        <time>2026-04-25T09:36:11Z</time>
      </trkpt>
      <trkpt lat="40.659074960276484" lon="-2.566288970410824">
        <ele>1002.421</ele>
        <time>2026-04-25T09:36:13Z</time>
      </trkpt>
      <trkpt lat="40.659055011346936" lon="-2.566273966804147">
        <ele>1001.809</ele>
        <time>2026-04-25T09:36:15Z</time>
      </trkpt>
      <trkpt lat="40.659030033275485" lon="-2.566268015652895">
        <ele>1000.028</ele>
        <time>2026-04-25T09:36:36Z</time>
      </trkpt>
      <trkpt lat="40.659011006355286" lon="-2.566271033138037">
        <ele>1000.272</ele>
        <time>2026-04-25T09:36:37Z</time>
      </trkpt>
      <trkpt lat="40.658989967778325" lon="-2.566270027309656">
        <ele>1000.237</ele>
        <time>2026-04-25T09:36:38Z</time>
      </trkpt>
      <trkpt lat="40.658970018848777" lon="-2.566267009824514">
        <ele>1000.217</ele>
        <time>2026-04-25T09:36:39Z</time>
      </trkpt>
      <trkpt lat="40.658945962786674" lon="-2.566264998167753">
        <ele>1000.273</ele>
        <time>2026-04-25T09:36:40Z</time>
      </trkpt>
      <trkpt lat="40.658920984715223" lon="-2.566272960975766">
        <ele>999.82500000000005</ele>
        <time>2026-04-25T09:36:41Z</time>
      </trkpt>
      <trkpt lat="40.658897012472153" lon="-2.566285030916333">
        <ele>999.42399999999998</ele>
        <time>2026-04-25T09:36:42Z</time>
      </trkpt>
      <trkpt lat="40.65887002274394" lon="-2.566293999552727">
        <ele>999.26499999999999</ele>
        <time>2026-04-25T09:36:43Z</time>
      </trkpt>
      <trkpt lat="40.658844960853457" lon="-2.566298022866249">
        <ele>999.05999999999995</ele>
        <time>2026-04-25T09:36:44Z</time>
      </trkpt>
      <trkpt lat="40.658825011923909" lon="-2.56629902869463">
        <ele>998.68299999999999</ele>
        <time>2026-04-25T09:36:45Z</time>
      </trkpt>
      <trkpt lat="40.658801039680839" lon="-2.56630003452301">
        <ele>998.42499999999995</ele>
        <time>2026-04-25T09:36:46Z</time>
      </trkpt>
      <trkpt lat="40.658773966133595" lon="-2.566307997331023">
        <ele>998.21699999999998</ele>
        <time>2026-04-25T09:36:47Z</time>
      </trkpt>
      <trkpt lat="40.658738007768989" lon="-2.566315960139036">
        <ele>998.00900000000001</ele>
        <time>2026-04-25T09:36:48Z</time>
      </trkpt>
      <trkpt lat="40.658704983070493" lon="-2.566326018422842">
        <ele>997.86000000000001</ele>
        <time>2026-04-25T09:36:49Z</time>
      </trkpt>
      <trkpt lat="40.65867799334228" lon="-2.566334987059236">
        <ele>997.61400000000003</ele>
        <time>2026-04-25T09:36:50Z</time>
      </trkpt>
      <trkpt lat="40.658652009442449" lon="-2.5663420278579">
        <ele>997.649</ele>
        <time>2026-04-25T09:36:51Z</time>
      </trkpt>
      <trkpt lat="40.658629965037107" lon="-2.566348984837532">
        <ele>997.42899999999997</ele>
        <time>2026-04-25T09:36:52Z</time>
      </trkpt>
      <trkpt lat="40.65861202776432" lon="-2.566360970959067">
        <ele>997.48500000000001</ele>
        <time>2026-04-25T09:36:53Z</time>
      </trkpt>
      <trkpt lat="40.658583026379347" lon="-2.566373962908983">
        <ele>997.41700000000003</ele>
        <time>2026-04-25T09:36:54Z</time>
      </trkpt>
      <trkpt lat="40.658559976145625" lon="-2.566381003707647">
        <ele>997.08600000000001</ele>
        <time>2026-04-25T09:36:55Z</time>
      </trkpt>
      <trkpt lat="40.658540027216077" lon="-2.566392989829183">
        <ele>997.08699999999999</ele>
        <time>2026-04-25T09:36:56Z</time>
      </trkpt>
      <trkpt lat="40.658514965325594" lon="-2.566402964293957">
        <ele>997.02200000000005</ele>
        <time>2026-04-25T09:36:57Z</time>
      </trkpt>
      <trkpt lat="40.658488981425762" lon="-2.566412016749382">
        <ele>997.07399999999996</ele>
        <time>2026-04-25T09:36:58Z</time>
      </trkpt>
      <trkpt lat="40.65846299752593" lon="-2.566415034234524">
        <ele>997.05600000000004</ele>
        <time>2026-04-25T09:36:59Z</time>
      </trkpt>
      <trkpt lat="40.65843902528286" lon="-2.566416040062904">
        <ele>997.02099999999996</ele>
        <time>2026-04-25T09:37:00Z</time>
      </trkpt>
      <trkpt lat="40.658414969220757" lon="-2.566419979557395">
        <ele>996.80899999999997</ele>
        <time>2026-04-25T09:37:01Z</time>
      </trkpt>
      <trkpt lat="40.658395020291209" lon="-2.566426014527679">
        <ele>996.66899999999998</ele>
        <time>2026-04-25T09:37:02Z</time>
      </trkpt>
      <trkpt lat="40.658374987542629" lon="-2.56643196567893">
        <ele>996.43299999999999</ele>
        <time>2026-04-25T09:37:03Z</time>
      </trkpt>
      <trkpt lat="40.658346991986036" lon="-2.566435988992453">
        <ele>995.84799999999996</ele>
        <time>2026-04-25T09:37:05Z</time>
      </trkpt>
      <trkpt lat="40.658322013914585" lon="-2.566425008699298">
        <ele>995.45799999999997</ele>
        <time>2026-04-25T09:37:08Z</time>
      </trkpt>
      <trkpt lat="40.658300975337625" lon="-2.56643196567893">
        <ele>995.274</ele>
        <time>2026-04-25T09:37:09Z</time>
      </trkpt>
      <trkpt lat="40.658279014751315" lon="-2.566438000649214">
        <ele>994.85599999999999</ele>
        <time>2026-04-25T09:37:10Z</time>
      </trkpt>
      <trkpt lat="40.658256970345974" lon="-2.566445041447878">
        <ele>994.625</ele>
        <time>2026-04-25T09:37:11Z</time>
      </trkpt>
      <trkpt lat="40.658231992274523" lon="-2.56645199842751">
        <ele>994.63599999999997</ele>
        <time>2026-04-25T09:37:12Z</time>
      </trkpt>
      <trkpt lat="40.658206008374691" lon="-2.566457027569413">
        <ele>994.29100000000005</ele>
        <time>2026-04-25T09:37:13Z</time>
      </trkpt>
      <trkpt lat="40.658180024474859" lon="-2.566458033397794">
        <ele>993.63199999999995</ele>
        <time>2026-04-25T09:37:14Z</time>
      </trkpt>
      <trkpt lat="40.658156974241138" lon="-2.566459961235523">
        <ele>993.29200000000003</ele>
        <time>2026-04-25T09:37:15Z</time>
      </trkpt>
      <trkpt lat="40.658135013654828" lon="-2.566459039226174">
        <ele>992.81100000000004</ele>
        <time>2026-04-25T09:37:16Z</time>
      </trkpt>
      <trkpt lat="40.658104000613093" lon="-2.56645199842751">
        <ele>991.80899999999997</ele>
        <time>2026-04-25T09:37:18Z</time>
      </trkpt>
      <trkpt lat="40.658072987571359" lon="-2.566459961235523">
        <ele>991.28499999999997</ele>
        <time>2026-04-25T09:37:20Z</time>
      </trkpt>
      <trkpt lat="40.658050021156669" lon="-2.566464990377426">
        <ele>991.29899999999998</ele>
        <time>2026-04-25T09:37:21Z</time>
      </trkpt>
      <trkpt lat="40.658025965094566" lon="-2.56647102534771">
        <ele>990.89400000000001</ele>
        <time>2026-04-25T09:37:22Z</time>
      </trkpt>
      <trkpt lat="40.658002998679876" lon="-2.56647395901382">
        <ele>990.41399999999999</ele>
        <time>2026-04-25T09:37:23Z</time>
      </trkpt>
      <trkpt lat="40.657981038093567" lon="-2.566475970670581">
        <ele>990.23000000000002</ele>
        <time>2026-04-25T09:37:24Z</time>
      </trkpt>
      <trkpt lat="40.657963017001748" lon="-2.56647102534771">
        <ele>990.072</ele>
        <time>2026-04-25T09:37:25Z</time>
      </trkpt>
      <trkpt lat="40.657933009788394" lon="-2.566454010084271">
        <ele>989.221</ele>
        <time>2026-04-25T09:37:27Z</time>
      </trkpt>
      <trkpt lat="40.657906020060182" lon="-2.566433977335692">
        <ele>988.65200000000004</ele>
        <time>2026-04-25T09:37:29Z</time>
      </trkpt>
      <trkpt lat="40.657878024503589" lon="-2.566424002870917">
        <ele>988.02700000000004</ele>
        <time>2026-04-25T09:37:31Z</time>
      </trkpt>
      <trkpt lat="40.657851034775376" lon="-2.566419979557395">
        <ele>987.46500000000003</ele>
        <time>2026-04-25T09:37:33Z</time>
      </trkpt>
      <trkpt lat="40.6578170042485" lon="-2.566416040062904">
        <ele>986.66800000000001</ele>
        <time>2026-04-25T09:37:35Z</time>
      </trkpt>
      <trkpt lat="40.657794959843159" lon="-2.566410005092621">
        <ele>986.21400000000006</ele>
        <time>2026-04-25T09:37:36Z</time>
      </trkpt>
      <trkpt lat="40.657771993428469" lon="-2.566401958465576">
        <ele>986.00900000000001</ele>
        <time>2026-04-25T09:37:37Z</time>
      </trkpt>
      <trkpt lat="40.657750032842159" lon="-2.566389972344041">
        <ele>985.43799999999999</ele>
        <time>2026-04-25T09:37:38Z</time>
      </trkpt>
      <trkpt lat="40.657730000093579" lon="-2.566373040899634">
        <ele>985.22199999999998</ele>
        <time>2026-04-25T09:37:39Z</time>
      </trkpt>
      <trkpt lat="40.65771097317338" lon="-2.566358959302306">
        <ele>984.85699999999997</ele>
        <time>2026-04-25T09:37:40Z</time>
      </trkpt>
      <trkpt lat="40.657694041728973" lon="-2.566346973180771">
        <ele>984.447</ele>
        <time>2026-04-25T09:37:41Z</time>
      </trkpt>
      <trkpt lat="40.657674008980393" lon="-2.566319983452559">
        <ele>983.84299999999996</ele>
        <time>2026-04-25T09:37:43Z</time>
      </trkpt>
      <trkpt lat="40.657647019252181" lon="-2.566298022866249">
        <ele>983.22500000000002</ele>
        <time>2026-04-25T09:37:45Z</time>
      </trkpt>
      <trkpt lat="40.657619023695588" lon="-2.56630196236074">
        <ele>982.48400000000004</ele>
        <time>2026-04-25T09:37:47Z</time>
      </trkpt>
      <trkpt lat="40.65758197568357" lon="-2.56630196236074">
        <ele>981.85500000000002</ele>
        <time>2026-04-25T09:37:49Z</time>
      </trkpt>
      <trkpt lat="40.65756001509726" lon="-2.56630296818912">
        <ele>981.62</ele>
        <time>2026-04-25T09:37:50Z</time>
      </trkpt>
      <trkpt lat="40.657540988177061" lon="-2.56630196236074">
        <ele>981.221</ele>
        <time>2026-04-25T09:37:51Z</time>
      </trkpt>
      <trkpt lat="40.657521961256862" lon="-2.56630296818912">
        <ele>981.04100000000005</ele>
        <time>2026-04-25T09:37:52Z</time>
      </trkpt>
      <trkpt lat="40.65749698318541" lon="-2.566287964582443">
        <ele>979.80499999999995</ele>
        <time>2026-04-25T09:37:54Z</time>
      </trkpt>
      <trkpt lat="40.657470999285579" lon="-2.56625896319747">
        <ele>979.00900000000001</ele>
        <time>2026-04-25T09:37:56Z</time>
      </trkpt>
      <trkpt lat="40.657455995678902" lon="-2.566243037581444">
        <ele>978.86400000000003</ele>
        <time>2026-04-25T09:37:57Z</time>
      </trkpt>
      <trkpt lat="40.657435962930322" lon="-2.566226022318006">
        <ele>978.44799999999998</ele>
        <time>2026-04-25T09:37:58Z</time>
      </trkpt>
      <trkpt lat="40.657417019829154" lon="-2.566211018711329">
        <ele>977.84299999999996</ele>
        <time>2026-04-25T09:37:59Z</time>
      </trkpt>
      <trkpt lat="40.657393969595432" lon="-2.566191991791129">
        <ele>977.87300000000005</ele>
        <time>2026-04-25T09:38:00Z</time>
      </trkpt>
      <trkpt lat="40.657374020665884" lon="-2.56617296487093">
        <ele>977.41899999999998</ele>
        <time>2026-04-25T09:38:01Z</time>
      </trkpt>
      <trkpt lat="40.657354993745685" lon="-2.566153015941382">
        <ele>977.24099999999999</ele>
        <time>2026-04-25T09:38:02Z</time>
      </trkpt>
      <trkpt lat="40.657333033159375" lon="-2.566145975142717">
        <ele>977.08000000000004</ele>
        <time>2026-04-25T09:38:03Z</time>
      </trkpt>
      <trkpt lat="40.657300008460879" lon="-2.566145975142717">
        <ele>976.26099999999997</ele>
        <time>2026-04-25T09:38:05Z</time>
      </trkpt>
      <trkpt lat="40.657278969883919" lon="-2.566162990406156">
        <ele>976.02599999999995</ele>
        <time>2026-04-25T09:38:06Z</time>
      </trkpt>
      <trkpt lat="40.65725801512599" lon="-2.56617296487093">
        <ele>975.61300000000006</ele>
        <time>2026-04-25T09:38:07Z</time>
      </trkpt>
      <trkpt lat="40.657238988205791" lon="-2.566184028983116">
        <ele>975.24300000000005</ele>
        <time>2026-04-25T09:38:08Z</time>
      </trkpt>
      <trkpt lat="40.657218033447862" lon="-2.566200960427523">
        <ele>974.40700000000004</ele>
        <time>2026-04-25T09:38:10Z</time>
      </trkpt>
      <trkpt lat="40.657201018184423" lon="-2.566221999004483">
        <ele>974.40899999999999</ele>
        <time>2026-04-25T09:38:11Z</time>
      </trkpt>
      <trkpt lat="40.657178973779082" lon="-2.566241025924683">
        <ele>974.01300000000003</ele>
        <time>2026-04-25T09:38:12Z</time>
      </trkpt>
      <trkpt lat="40.657161036506295" lon="-2.566262986510992">
        <ele>973.89700000000005</ele>
        <time>2026-04-25T09:38:13Z</time>
      </trkpt>
      <trkpt lat="40.657143015414476" lon="-2.566281007602811">
        <ele>973.68200000000002</ele>
        <time>2026-04-25T09:38:14Z</time>
      </trkpt>
      <trkpt lat="40.657118959352374" lon="-2.566296011209488">
        <ele>973.25199999999995</ele>
        <time>2026-04-25T09:38:15Z</time>
      </trkpt>
      <trkpt lat="40.657094987109303" lon="-2.566314032301307">
        <ele>972.84799999999996</ele>
        <time>2026-04-25T09:38:16Z</time>
      </trkpt>
      <trkpt lat="40.657072020694613" lon="-2.566330963745713">
        <ele>972.63</ele>
        <time>2026-04-25T09:38:17Z</time>
      </trkpt>
      <trkpt lat="40.657050982117653" lon="-2.566346973180771">
        <ele>972.48900000000003</ele>
        <time>2026-04-25T09:38:18Z</time>
      </trkpt>
      <trkpt lat="40.657031033188105" lon="-2.56636600010097">
        <ele>971.42999999999995</ele>
        <time>2026-04-25T09:38:21Z</time>
      </trkpt>
      <trkpt lat="40.657017035409808" lon="-2.56638603284955">
        <ele>971.245</ele>
        <time>2026-04-25T09:38:22Z</time>
      </trkpt>
      <trkpt lat="40.656999014317989" lon="-2.56640799343586">
        <ele>971.07600000000002</ele>
        <time>2026-04-25T09:38:23Z</time>
      </trkpt>
      <trkpt lat="40.656980993226171" lon="-2.566432971507311">
        <ele>970.69000000000005</ele>
        <time>2026-04-25T09:38:24Z</time>
      </trkpt>
      <trkpt lat="40.656962972134352" lon="-2.566459039226174">
        <ele>970.61900000000003</ele>
        <time>2026-04-25T09:38:25Z</time>
      </trkpt>
      <trkpt lat="40.656942017376423" lon="-2.566478988155723">
        <ele>970.40899999999999</ele>
        <time>2026-04-25T09:38:26Z</time>
      </trkpt>
      <trkpt lat="40.656919972971082" lon="-2.56649499759078">
        <ele>970.279</ele>
        <time>2026-04-25T09:38:27Z</time>
      </trkpt>
      <trkpt lat="40.656897006556392" lon="-2.566513018682599">
        <ele>970.04300000000001</ele>
        <time>2026-04-25T09:38:28Z</time>
      </trkpt>
      <trkpt lat="40.656875967979431" lon="-2.566533973440528">
        <ele>969.85799999999995</ele>
        <time>2026-04-25T09:38:29Z</time>
      </trkpt>
      <trkpt lat="40.656855013221502" lon="-2.566551994532347">
        <ele>969.43799999999999</ele>
        <time>2026-04-25T09:38:30Z</time>
      </trkpt>
      <trkpt lat="40.656836992129683" lon="-2.566566998139024">
        <ele>969.41399999999999</ele>
        <time>2026-04-25T09:38:31Z</time>
      </trkpt>
      <trkpt lat="40.656820982694626" lon="-2.566595999523997">
        <ele>969.04600000000005</ele>
        <time>2026-04-25T09:38:33Z</time>
      </trkpt>
      <trkpt lat="40.656812014058232" lon="-2.56662298925221">
        <ele>968.85500000000002</ele>
        <time>2026-04-25T09:38:35Z</time>
      </trkpt>
      <trkpt lat="40.656790975481272" lon="-2.566635981202126">
        <ele>968.27599999999995</ele>
        <time>2026-04-25T09:38:37Z</time>
      </trkpt>
      <trkpt lat="40.656760968267918" lon="-2.566632041707635">
        <ele>967.89099999999996</ele>
        <time>2026-04-25T09:38:39Z</time>
      </trkpt>
      <trkpt lat="40.656730039045215" lon="-2.566621983423829">
        <ele>967.245</ele>
        <time>2026-04-25T09:38:41Z</time>
      </trkpt>
      <trkpt lat="40.656707994639874" lon="-2.566615026444197">
        <ele>967.04700000000003</ele>
        <time>2026-04-25T09:38:42Z</time>
      </trkpt>
      <trkpt lat="40.656681004911661" lon="-2.566611003130674">
        <ele>966.81100000000004</ele>
        <time>2026-04-25T09:38:43Z</time>
      </trkpt>
      <trkpt lat="40.656653009355068" lon="-2.566611003130674">
        <ele>966.80899999999997</ele>
        <time>2026-04-25T09:38:44Z</time>
      </trkpt>
      <trkpt lat="40.656628031283617" lon="-2.566612008959055">
        <ele>966.44600000000003</ele>
        <time>2026-04-25T09:38:45Z</time>
      </trkpt>
      <trkpt lat="40.656603975221515" lon="-2.566612008959055">
        <ele>966.02999999999997</ele>
        <time>2026-04-25T09:38:46Z</time>
      </trkpt>
      <trkpt lat="40.656576985493302" lon="-2.566617038100958">
        <ele>965.88499999999999</ele>
        <time>2026-04-25T09:38:47Z</time>
      </trkpt>
      <trkpt lat="40.656551001593471" lon="-2.566625000908971">
        <ele>965.47500000000002</ele>
        <time>2026-04-25T09:38:48Z</time>
      </trkpt>
      <trkpt lat="40.656529041007161" lon="-2.566629024222493">
        <ele>965.08100000000002</ele>
        <time>2026-04-25T09:38:49Z</time>
      </trkpt>
      <trkpt lat="40.656502973288298" lon="-2.566629024222493">
        <ele>964.88300000000004</ele>
        <time>2026-04-25T09:38:50Z</time>
      </trkpt>
      <trkpt lat="40.656474977731705" lon="-2.566628018394113">
        <ele>964.822</ele>
        <time>2026-04-25T09:38:51Z</time>
      </trkpt>
      <trkpt lat="40.656445976346731" lon="-2.566637992858887">
        <ele>964.41300000000001</ele>
        <time>2026-04-25T09:38:52Z</time>
      </trkpt>
      <trkpt lat="40.656419992446899" lon="-2.566646039485931">
        <ele>964.24800000000005</ele>
        <time>2026-04-25T09:38:53Z</time>
      </trkpt>
      <trkpt lat="40.656396020203829" lon="-2.566656013950706">
        <ele>964.23400000000004</ele>
        <time>2026-04-25T09:38:54Z</time>
      </trkpt>
      <trkpt lat="40.656375987455249" lon="-2.56666699424386">
        <ele>964.05499999999995</ele>
        <time>2026-04-25T09:38:55Z</time>
      </trkpt>
      <trkpt lat="40.656356960535049" lon="-2.566675040870905">
        <ele>963.40999999999997</ele>
        <time>2026-04-25T09:38:58Z</time>
      </trkpt>
      <trkpt lat="40.656331982463598" lon="-2.566678980365396">
        <ele>963.00900000000001</ele>
        <time>2026-04-25T09:39:01Z</time>
      </trkpt>
      <trkpt lat="40.656298035755754" lon="-2.566675962880254">
        <ele>962.81500000000005</ele>
        <time>2026-04-25T09:39:03Z</time>
      </trkpt>
      <trkpt lat="40.656283032149076" lon="-2.566691972315311">
        <ele>962.42899999999997</ele>
        <time>2026-04-25T09:39:04Z</time>
      </trkpt>
      <trkpt lat="40.656267022714019" lon="-2.566702030599117">
        <ele>961.29399999999998</ele>
        <time>2026-04-25T09:39:06Z</time>
      </trkpt>
      <trkpt lat="40.656257970258594" lon="-2.566731031984091">
        <ele>960.08399999999995</ele>
        <time>2026-04-25T09:39:09Z</time>
      </trkpt>
      <trkpt lat="40.656232992187142" lon="-2.566753998398781">
        <ele>959.62</ele>
        <time>2026-04-25T09:39:11Z</time>
      </trkpt>
      <trkpt lat="40.656215976923704" lon="-2.566763972863555">
        <ele>959.24199999999996</ele>
        <time>2026-04-25T09:39:12Z</time>
      </trkpt>
      <trkpt lat="40.656199967488647" lon="-2.56677302531898">
        <ele>959.21100000000001</ele>
        <time>2026-04-25T09:39:13Z</time>
      </trkpt>
      <trkpt lat="40.656182030215859" lon="-2.566785011440516">
        <ele>958.66200000000003</ele>
        <time>2026-04-25T09:39:14Z</time>
      </trkpt>
      <trkpt lat="40.656157974153757" lon="-2.566791968420148">
        <ele>958.27700000000004</ele>
        <time>2026-04-25T09:39:15Z</time>
      </trkpt>
      <trkpt lat="40.656134001910686" lon="-2.566804960370064">
        <ele>957.88199999999995</ele>
        <time>2026-04-25T09:39:16Z</time>
      </trkpt>
      <trkpt lat="40.656112041324377" lon="-2.566817030310631">
        <ele>957.44299999999998</ele>
        <time>2026-04-25T09:39:17Z</time>
      </trkpt>
      <trkpt lat="40.656092008575797" lon="-2.566822981461883">
        <ele>956.81700000000001</ele>
        <time>2026-04-25T09:39:18Z</time>
      </trkpt>
      <trkpt lat="40.65605697222054" lon="-2.56681602448225">
        <ele>955.80899999999997</ele>
        <time>2026-04-25T09:39:20Z</time>
      </trkpt>
      <trkpt lat="40.656027970835567" lon="-2.566807977855206">
        <ele>954.84000000000003</ele>
        <time>2026-04-25T09:39:22Z</time>
      </trkpt>
      <trkpt lat="40.656001986935735" lon="-2.566800015047193">
        <ele>954.05399999999997</ele>
        <time>2026-04-25T09:39:24Z</time>
      </trkpt>
      <trkpt lat="40.655982960015535" lon="-2.566804960370064">
        <ele>953.65899999999999</ele>
        <time>2026-04-25T09:39:25Z</time>
      </trkpt>
      <trkpt lat="40.655947001650929" lon="-2.566812001168728">
        <ele>953.07899999999995</ele>
        <time>2026-04-25T09:39:27Z</time>
      </trkpt>
      <trkpt lat="40.655926968902349" lon="-2.566812001168728">
        <ele>952.63499999999999</ele>
        <time>2026-04-25T09:39:28Z</time>
      </trkpt>
      <trkpt lat="40.655906014144421" lon="-2.566806972026825">
        <ele>952.25699999999995</ele>
        <time>2026-04-25T09:39:29Z</time>
      </trkpt>
      <trkpt lat="40.655883969739079" lon="-2.566806972026825">
        <ele>951.85599999999999</ele>
        <time>2026-04-25T09:39:30Z</time>
      </trkpt>
      <trkpt lat="40.655864020809531" lon="-2.566803032532334">
        <ele>951.45699999999999</ele>
        <time>2026-04-25T09:39:31Z</time>
      </trkpt>
      <trkpt lat="40.655844993889332" lon="-2.566785011440516">
        <ele>951.072</ele>
        <time>2026-04-25T09:39:33Z</time>
      </trkpt>
      <trkpt lat="40.655814986675978" lon="-2.566763972863555">
        <ele>950.23299999999995</ele>
        <time>2026-04-25T09:39:35Z</time>
      </trkpt>
      <trkpt lat="40.655792020261288" lon="-2.566767996177077">
        <ele>949.82299999999998</ele>
        <time>2026-04-25T09:39:36Z</time>
      </trkpt>
      <trkpt lat="40.655769975855947" lon="-2.566775036975741">
        <ele>949.61500000000001</ele>
        <time>2026-04-25T09:39:37Z</time>
      </trkpt>
      <trkpt lat="40.655747009441257" lon="-2.566784005612135">
        <ele>949.20899999999995</ele>
        <time>2026-04-25T09:39:38Z</time>
      </trkpt>
      <trkpt lat="40.655727982521057" lon="-2.566791968420148">
        <ele>948.83500000000004</ele>
        <time>2026-04-25T09:39:39Z</time>
      </trkpt>
      <trkpt lat="40.655698981136084" lon="-2.566804038360715">
        <ele>948.45899999999995</ele>
        <time>2026-04-25T09:39:42Z</time>
      </trkpt>
      <trkpt lat="40.655666040256619" lon="-2.56681602448225">
        <ele>948.04399999999998</ele>
        <time>2026-04-25T09:39:44Z</time>
      </trkpt>
      <trkpt lat="40.655634021386504" lon="-2.566809989511967">
        <ele>947.63400000000001</ele>
        <time>2026-04-25T09:39:46Z</time>
      </trkpt>
      <trkpt lat="40.655618011951447" lon="-2.566799009218812">
        <ele>947.24000000000001</ele>
        <time>2026-04-25T09:39:47Z</time>
      </trkpt>
      <trkpt lat="40.655600996688008" lon="-2.566785011440516">
        <ele>946.84199999999998</ele>
        <time>2026-04-25T09:39:48Z</time>
      </trkpt>
      <trkpt lat="40.655582975596189" lon="-2.566775036975741">
        <ele>946.67100000000005</ele>
        <time>2026-04-25T09:39:49Z</time>
      </trkpt>
      <trkpt lat="40.655564032495022" lon="-2.566762967035174">
        <ele>946.42200000000003</ele>
        <time>2026-04-25T09:39:50Z</time>
      </trkpt>
      <trkpt lat="40.655542993918061" lon="-2.566748969256878">
        <ele>944.85699999999997</ele>
        <time>2026-04-25T09:39:52Z</time>
      </trkpt>
      <trkpt lat="40.655522039160132" lon="-2.566733965650201">
        <ele>943.83199999999999</ele>
        <time>2026-04-25T09:39:54Z</time>
      </trkpt>
      <trkpt lat="40.65549798309803" lon="-2.566707981750369">
        <ele>943.09199999999998</ele>
        <time>2026-04-25T09:39:56Z</time>
      </trkpt>
      <trkpt lat="40.655477028340101" lon="-2.566693983972073">
        <ele>942.81100000000004</ele>
        <time>2026-04-25T09:39:57Z</time>
      </trkpt>
      <trkpt lat="40.65545397810638" lon="-2.566688032820821">
        <ele>942.40899999999999</ele>
        <time>2026-04-25T09:39:58Z</time>
      </trkpt>
      <trkpt lat="40.655430005863309" lon="-2.566680992022157">
        <ele>941.92499999999995</ele>
        <time>2026-04-25T09:39:59Z</time>
      </trkpt>
      <trkpt lat="40.655407039448619" lon="-2.566678980365396">
        <ele>941.56899999999996</ele>
        <time>2026-04-25T09:40:00Z</time>
      </trkpt>
      <trkpt lat="40.655382983386517" lon="-2.566680992022157">
        <ele>941.03399999999999</ele>
        <time>2026-04-25T09:40:01Z</time>
      </trkpt>
      <trkpt lat="40.655361022800207" lon="-2.56668702699244">
        <ele>940.66399999999999</ele>
        <time>2026-04-25T09:40:02Z</time>
      </trkpt>
      <trkpt lat="40.655337972566485" lon="-2.566697001457214">
        <ele>940.25999999999999</ele>
        <time>2026-04-25T09:40:03Z</time>
      </trkpt>
      <trkpt lat="40.655318023636937" lon="-2.566705970093608">
        <ele>939.64200000000005</ele>
        <time>2026-04-25T09:40:04Z</time>
      </trkpt>
      <trkpt lat="40.655292039737105" lon="-2.566713010892272">
        <ele>938.67100000000005</ele>
        <time>2026-04-25T09:40:06Z</time>
      </trkpt>
      <trkpt lat="40.655273012816906" lon="-2.566722985357046">
        <ele>938.23199999999997</ele>
        <time>2026-04-25T09:40:07Z</time>
      </trkpt>
      <trkpt lat="40.655254991725087" lon="-2.566731031984091">
        <ele>937.61699999999996</ele>
        <time>2026-04-25T09:40:08Z</time>
      </trkpt>
      <trkpt lat="40.655234036967158" lon="-2.566742012277246">
        <ele>937.29700000000003</ele>
        <time>2026-04-25T09:40:09Z</time>
      </trkpt>
      <trkpt lat="40.655211992561817" lon="-2.566761039197445">
        <ele>937.02300000000002</ele>
        <time>2026-04-25T09:40:10Z</time>
      </trkpt>
      <trkpt lat="40.655192965641618" lon="-2.566786017268896">
        <ele>936.625</ele>
        <time>2026-04-25T09:40:11Z</time>
      </trkpt>
      <trkpt lat="40.655176034197211" lon="-2.566814012825489">
        <ele>936.40899999999999</ele>
        <time>2026-04-25T09:40:12Z</time>
      </trkpt>
      <trkpt lat="40.655162036418915" lon="-2.56683798506856">
        <ele>935.87099999999998</ele>
        <time>2026-04-25T09:40:13Z</time>
      </trkpt>
      <trkpt lat="40.655137980356812" lon="-2.566853994503617">
        <ele>935.29499999999996</ele>
        <time>2026-04-25T09:40:15Z</time>
      </trkpt>
      <trkpt lat="40.655120965093374" lon="-2.566845025867224">
        <ele>934.01999999999998</ele>
        <time>2026-04-25T09:40:17Z</time>
      </trkpt>
      <trkpt lat="40.655106967315078" lon="-2.566817030310631">
        <ele>933.63999999999999</ele>
        <time>2026-04-25T09:40:19Z</time>
      </trkpt>
      <trkpt lat="40.655078971758485" lon="-2.566807977855206">
        <ele>932.85599999999999</ele>
        <time>2026-04-25T09:40:21Z</time>
      </trkpt>
      <trkpt lat="40.655060028657317" lon="-2.56681602448225">
        <ele>932.65800000000002</ele>
        <time>2026-04-25T09:40:22Z</time>
      </trkpt>
      <trkpt lat="40.65504401922226" lon="-2.566827004775405">
        <ele>932.447</ele>
        <time>2026-04-25T09:40:23Z</time>
      </trkpt>
      <trkpt lat="40.655018035322428" lon="-2.566822981461883">
        <ele>931.65800000000002</ele>
        <time>2026-04-25T09:40:25Z</time>
      </trkpt>
      <trkpt lat="40.654998002573848" lon="-2.566823987290263">
        <ele>931.26300000000003</ele>
        <time>2026-04-25T09:40:26Z</time>
      </trkpt>
      <trkpt lat="40.654978975653648" lon="-2.566831028088927">
        <ele>931.06399999999996</ele>
        <time>2026-04-25T09:40:27Z</time>
      </trkpt>
      <trkpt lat="40.654949974268675" lon="-2.566828010603786">
        <ele>930.20600000000002</ele>
        <time>2026-04-25T09:40:29Z</time>
      </trkpt>
      <trkpt lat="40.654927007853985" lon="-2.566807977855206">
        <ele>929.41600000000005</ele>
        <time>2026-04-25T09:40:31Z</time>
      </trkpt>
      <trkpt lat="40.654907980933785" lon="-2.566790962591767">
        <ele>928.40899999999999</ele>
        <time>2026-04-25T09:40:34Z</time>
      </trkpt>
      <trkpt lat="40.654891971498728" lon="-2.56677302531898">
        <ele>927.89800000000002</ele>
        <time>2026-04-25T09:40:37Z</time>
      </trkpt>
      <trkpt lat="40.654883002862334" lon="-2.566749975085259">
        <ele>927.05200000000002</ele>
        <time>2026-04-25T09:40:41Z</time>
      </trkpt>
      <trkpt lat="40.654878979548812" lon="-2.566715022549033">
        <ele>926.01700000000005</ele>
        <time>2026-04-25T09:40:44Z</time>
      </trkpt>
      <trkpt lat="40.654862970113754" lon="-2.566678980365396">
        <ele>925.447</ele>
        <time>2026-04-25T09:40:47Z</time>
      </trkpt>
      <trkpt lat="40.654847966507077" lon="-2.566637992858887">
        <ele>924.86300000000006</ele>
        <time>2026-04-25T09:40:49Z</time>
      </trkpt>
      <trkpt lat="40.654842015355825" lon="-2.566612008959055">
        <ele>924.625</ele>
        <time>2026-04-25T09:40:50Z</time>
      </trkpt>
      <trkpt lat="40.6548329629004" lon="-2.566587030887604">
        <ele>924.66399999999999</ele>
        <time>2026-04-25T09:40:51Z</time>
      </trkpt>
      <trkpt lat="40.654823994264007" lon="-2.566564986482263">
        <ele>924.29499999999996</ele>
        <time>2026-04-25T09:40:52Z</time>
      </trkpt>
      <trkpt lat="40.65480999648571" lon="-2.566545959562063">
        <ele>923.85000000000002</ele>
        <time>2026-04-25T09:40:53Z</time>
      </trkpt>
      <trkpt lat="40.654798010364175" lon="-2.566528022289276">
        <ele>923.66600000000005</ele>
        <time>2026-04-25T09:40:54Z</time>
      </trkpt>
      <trkpt lat="40.654774960130453" lon="-2.566503966227174">
        <ele>923.029</ele>
        <time>2026-04-25T09:40:56Z</time>
      </trkpt>
      <trkpt lat="40.654688039794564" lon="-2.56645099259913">
        <ele>920.82100000000003</ele>
        <time>2026-04-25T09:41:03Z</time>
      </trkpt>
      <trkpt lat="40.654659038409591" lon="-2.56645099259913">
        <ele>920.40899999999999</ele>
        <time>2026-04-25T09:41:05Z</time>
      </trkpt>
      <trkpt lat="40.65461696125567" lon="-2.56643095985055">
        <ele>919.678</ele>
        <time>2026-04-25T09:41:08Z</time>
      </trkpt>
      <trkpt lat="40.654598018154502" lon="-2.566422997042537">
        <ele>919.21199999999999</ele>
        <time>2026-04-25T09:41:10Z</time>
      </trkpt>
      <trkpt lat="40.654577985405922" lon="-2.566412016749382">
        <ele>918.43700000000001</ele>
        <time>2026-04-25T09:41:12Z</time>
      </trkpt>
      <trkpt lat="40.654559964314103" lon="-2.566399024799466">
        <ele>917.83699999999999</ele>
        <time>2026-04-25T09:41:14Z</time>
      </trkpt>
      <trkpt lat="40.654541021212935" lon="-2.566384021192789">
        <ele>917.27300000000002</ele>
        <time>2026-04-25T09:41:16Z</time>
      </trkpt>
      <trkpt lat="40.654521994292736" lon="-2.566383015364409">
        <ele>917.08500000000004</ele>
        <time>2026-04-25T09:41:18Z</time>
      </trkpt>
      <trkpt lat="40.654500033706427" lon="-2.566371029242873">
        <ele>916.45399999999995</ele>
        <time>2026-04-25T09:41:21Z</time>
      </trkpt>
      <trkpt lat="40.654487041756511" lon="-2.566354013979435">
        <ele>915.69500000000005</ele>
        <time>2026-04-25T09:41:29Z</time>
      </trkpt>
      <trkpt lat="40.65446600317955" lon="-2.566350996494293">
        <ele>915.63</ele>
        <time>2026-04-25T09:41:34Z</time>
      </trkpt>
      <trkpt lat="40.654437001794577" lon="-2.56634596735239">
        <ele>915.274</ele>
        <time>2026-04-25T09:41:37Z</time>
      </trkpt>
      <trkpt lat="40.654416969045997" lon="-2.566341022029519">
        <ele>914.85599999999999</ele>
        <time>2026-04-25T09:41:39Z</time>
      </trkpt>
      <trkpt lat="40.654425015673041" lon="-2.566362982615829">
        <ele>913.82100000000003</ele>
        <time>2026-04-25T09:41:45Z</time>
      </trkpt>
      <trkpt lat="40.654432978481054" lon="-2.566384021192789">
        <ele>913.60900000000004</ele>
        <time>2026-04-25T09:42:00Z</time>
      </trkpt>
      <trkpt lat="40.654415041208267" lon="-2.566362982615829">
        <ele>913.25900000000001</ele>
        <time>2026-04-25T09:42:11Z</time>
      </trkpt>
      <trkpt lat="40.654389979317784" lon="-2.56634596735239">
        <ele>913.25300000000004</ele>
        <time>2026-04-25T09:42:13Z</time>
      </trkpt>
      <trkpt lat="40.654369024559855" lon="-2.566333981230855">
        <ele>913.08799999999997</ele>
        <time>2026-04-25T09:42:17Z</time>
      </trkpt>
      <trkpt lat="40.65435896627605" lon="-2.566303974017501">
        <ele>912.06799999999998</ele>
        <time>2026-04-25T09:42:24Z</time>
      </trkpt>
      <trkpt lat="40.654342034831643" lon="-2.566288970410824">
        <ele>911.83399999999995</ele>
        <time>2026-04-25T09:42:26Z</time>
      </trkpt>
      <trkpt lat="40.654310015961528" lon="-2.566258041188121">
        <ele>911.81600000000003</ele>
        <time>2026-04-25T09:42:28Z</time>
      </trkpt>
      <trkpt lat="40.654290989041328" lon="-2.566242031753063">
        <ele>911.82500000000005</ele>
        <time>2026-04-25T09:42:29Z</time>
      </trkpt>
      <trkpt lat="40.654275985434651" lon="-2.566228033974767">
        <ele>911.88599999999997</ele>
        <time>2026-04-25T09:42:30Z</time>
      </trkpt>
      <trkpt lat="40.654258970171213" lon="-2.56621696986258">
        <ele>911.65099999999995</ele>
        <time>2026-04-25T09:42:31Z</time>
      </trkpt>
      <trkpt lat="40.654241032898426" lon="-2.566209007054567">
        <ele>911.46900000000005</ele>
        <time>2026-04-25T09:42:32Z</time>
      </trkpt>
      <trkpt lat="40.654222005978227" lon="-2.566200038418174">
        <ele>911.20399999999995</ele>
        <time>2026-04-25T09:42:33Z</time>
      </trkpt>
      <trkpt lat="40.654200967401266" lon="-2.566183023154736">
        <ele>911.024</ele>
        <time>2026-04-25T09:42:34Z</time>
      </trkpt>
      <trkpt lat="40.654180012643337" lon="-2.566167013719678">
        <ele>910.40899999999999</ele>
        <time>2026-04-25T09:42:35Z</time>
      </trkpt>
      <trkpt lat="40.654158974066377" lon="-2.566153015941382">
        <ele>910.05799999999999</ele>
        <time>2026-04-25T09:42:36Z</time>
      </trkpt>
      <trkpt lat="40.654139025136828" lon="-2.566141029819846">
        <ele>909.48199999999997</ele>
        <time>2026-04-25T09:42:37Z</time>
      </trkpt>
      <trkpt lat="40.654115974903107" lon="-2.56613097153604">
        <ele>909.24699999999996</ele>
        <time>2026-04-25T09:42:38Z</time>
      </trkpt>
      <trkpt lat="40.654090996831656" lon="-2.566124014556408">
        <ele>908.83699999999999</ele>
        <time>2026-04-25T09:42:39Z</time>
      </trkpt>
      <trkpt lat="40.654066018760204" lon="-2.566118985414505">
        <ele>908.44299999999998</ele>
        <time>2026-04-25T09:42:40Z</time>
      </trkpt>
      <trkpt lat="40.654041962698102" lon="-2.56610699929297">
        <ele>907.88499999999999</ele>
        <time>2026-04-25T09:42:41Z</time>
      </trkpt>
      <trkpt lat="40.65401597879827" lon="-2.566095013171434">
        <ele>907.67399999999998</ele>
        <time>2026-04-25T09:42:42Z</time>
      </trkpt>
      <trkpt lat="40.653989994898438" lon="-2.566082021221519">
        <ele>907.27499999999998</ele>
        <time>2026-04-25T09:42:43Z</time>
      </trkpt>
      <trkpt lat="40.653964010998607" lon="-2.566062994301319">
        <ele>906.80999999999995</ele>
        <time>2026-04-25T09:42:44Z</time>
      </trkpt>
      <trkpt lat="40.653932997956872" lon="-2.5660449732095">
        <ele>906.86400000000003</ele>
        <time>2026-04-25T09:42:45Z</time>
      </trkpt>
      <trkpt lat="40.653903996571898" lon="-2.566027035936713">
        <ele>906.40599999999995</ele>
        <time>2026-04-25T09:42:46Z</time>
      </trkpt>
      <trkpt lat="40.653874995186925" lon="-2.566004991531372">
        <ele>906.21600000000001</ele>
        <time>2026-04-25T09:42:47Z</time>
      </trkpt>
      <trkpt lat="40.653844987973571" lon="-2.565995017066598">
        <ele>905.80899999999997</ele>
        <time>2026-04-25T09:42:48Z</time>
      </trkpt>
      <trkpt lat="40.653819004073739" lon="-2.565984958782792">
        <ele>905.61800000000005</ele>
        <time>2026-04-25T09:42:49Z</time>
      </trkpt>
      <trkpt lat="40.653796959668398" lon="-2.565969033166766">
        <ele>905.64200000000005</ele>
        <time>2026-04-25T09:42:50Z</time>
      </trkpt>
      <trkpt lat="40.65377801656723" lon="-2.565952017903328">
        <ele>905.41700000000003</ele>
        <time>2026-04-25T09:42:51Z</time>
      </trkpt>
      <trkpt lat="40.653759995475411" lon="-2.565929973497987">
        <ele>905.077</ele>
        <time>2026-04-25T09:42:52Z</time>
      </trkpt>
      <trkpt lat="40.653742980211973" lon="-2.565903989598155">
        <ele>905.06299999999999</ele>
        <time>2026-04-25T09:42:53Z</time>
      </trkpt>
      <trkpt lat="40.653725964948535" lon="-2.565882029011846">
        <ele>904.66499999999996</ele>
        <time>2026-04-25T09:42:54Z</time>
      </trkpt>
      <trkpt lat="40.653706016018987" lon="-2.565856967121363">
        <ele>904.44399999999996</ele>
        <time>2026-04-25T09:42:55Z</time>
      </trkpt>
      <trkpt lat="40.653686989098787" lon="-2.565830983221531">
        <ele>904.29499999999996</ele>
        <time>2026-04-25T09:42:56Z</time>
      </trkpt>
      <trkpt lat="40.653667040169239" lon="-2.565809022635222">
        <ele>903.88</ele>
        <time>2026-04-25T09:42:57Z</time>
      </trkpt>
      <trkpt lat="40.653641978278756" lon="-2.565789995715022">
        <ele>903.44100000000003</ele>
        <time>2026-04-25T09:42:58Z</time>
      </trkpt>
      <trkpt lat="40.653614988550544" lon="-2.565770968794823">
        <ele>903.28099999999995</ele>
        <time>2026-04-25T09:42:59Z</time>
      </trkpt>
      <trkpt lat="40.653590010479093" lon="-2.565750014036894">
        <ele>902.60900000000004</ele>
        <time>2026-04-25T09:43:00Z</time>
      </trkpt>
      <trkpt lat="40.653568971902132" lon="-2.565725035965443">
        <ele>902.20899999999995</ele>
        <time>2026-04-25T09:43:01Z</time>
      </trkpt>
      <trkpt lat="40.653548017144203" lon="-2.56569997407496">
        <ele>901.88599999999997</ele>
        <time>2026-04-25T09:43:02Z</time>
      </trkpt>
      <trkpt lat="40.653532007709146" lon="-2.565671978518367">
        <ele>901.46000000000004</ele>
        <time>2026-04-25T09:43:03Z</time>
      </trkpt>
      <trkpt lat="40.65352002158761" lon="-2.565642977133393">
        <ele>900.86500000000001</ele>
        <time>2026-04-25T09:43:04Z</time>
      </trkpt>
      <trkpt lat="40.653511974960566" lon="-2.565621016547084">
        <ele>900.495</ele>
        <time>2026-04-25T09:43:05Z</time>
      </trkpt>
      <trkpt lat="40.653500994667411" lon="-2.565598972141743">
        <ele>900.24099999999999</ele>
        <time>2026-04-25T09:43:06Z</time>
      </trkpt>
      <trkpt lat="40.653488002717495" lon="-2.565581034868956">
        <ele>899.85299999999995</ele>
        <time>2026-04-25T09:43:07Z</time>
      </trkpt>
      <trkpt lat="40.653469981625676" lon="-2.565559996291995">
        <ele>899.21199999999999</ele>
        <time>2026-04-25T09:43:08Z</time>
      </trkpt>
      <trkpt lat="40.65345698967576" lon="-2.565538035705686">
        <ele>898.87300000000005</ele>
        <time>2026-04-25T09:43:09Z</time>
      </trkpt>
      <trkpt lat="40.653443997725844" lon="-2.565510962158442">
        <ele>898.08799999999997</ele>
        <time>2026-04-25T09:43:10Z</time>
      </trkpt>
      <trkpt lat="40.653435029089451" lon="-2.565481960773468">
        <ele>897.47500000000002</ele>
        <time>2026-04-25T09:43:11Z</time>
      </trkpt>
      <trkpt lat="40.653422037139535" lon="-2.565460000187159">
        <ele>897.02800000000002</ele>
        <time>2026-04-25T09:43:12Z</time>
      </trkpt>
      <trkpt lat="40.653408039361238" lon="-2.56544298492372">
        <ele>896.41999999999996</ele>
        <time>2026-04-25T09:43:13Z</time>
      </trkpt>
      <trkpt lat="40.653387000784278" lon="-2.565425969660282">
        <ele>895.80899999999997</ele>
        <time>2026-04-25T09:43:15Z</time>
      </trkpt>
      <trkpt lat="40.653359005227685" lon="-2.565387999638915">
        <ele>895.03899999999999</ele>
        <time>2026-04-25T09:43:17Z</time>
      </trkpt>
      <trkpt lat="40.653339978307486" lon="-2.565366961061955">
        <ele>894.85299999999995</ele>
        <time>2026-04-25T09:43:18Z</time>
      </trkpt>
      <trkpt lat="40.653330003842711" lon="-2.565343994647265">
        <ele>894.43799999999999</ele>
        <time>2026-04-25T09:43:19Z</time>
      </trkpt>
      <trkpt lat="40.653315000236034" lon="-2.565320022404194">
        <ele>894.22799999999995</ele>
        <time>2026-04-25T09:43:20Z</time>
      </trkpt>
      <trkpt lat="40.653295973315835" lon="-2.56529001519084">
        <ele>893.82399999999996</ele>
        <time>2026-04-25T09:43:21Z</time>
      </trkpt>
      <trkpt lat="40.653274012729526" lon="-2.565262019634247">
        <ele>893.226</ele>
        <time>2026-04-25T09:43:22Z</time>
      </trkpt>
      <trkpt lat="40.653250962495804" lon="-2.565238969400525">
        <ele>893.06500000000005</ele>
        <time>2026-04-25T09:43:23Z</time>
      </trkpt>
      <trkpt lat="40.653230007737875" lon="-2.565210973843932">
        <ele>892.846</ele>
        <time>2026-04-25T09:43:24Z</time>
      </trkpt>
      <trkpt lat="40.653208969160914" lon="-2.565179960802198">
        <ele>892.44100000000003</ele>
        <time>2026-04-25T09:43:25Z</time>
      </trkpt>
      <trkpt lat="40.653191031888127" lon="-2.565149031579495">
        <ele>892.09100000000001</ele>
        <time>2026-04-25T09:43:26Z</time>
      </trkpt>
      <trkpt lat="40.653170999139547" lon="-2.565122963860631">
        <ele>891.88099999999997</ele>
        <time>2026-04-25T09:43:27Z</time>
      </trkpt>
      <trkpt lat="40.653152978047729" lon="-2.56509798578918">
        <ele>891.21900000000005</ele>
        <time>2026-04-25T09:43:28Z</time>
      </trkpt>
      <trkpt lat="40.653135040774941" lon="-2.565072001889348">
        <ele>891.00900000000001</ele>
        <time>2026-04-25T09:43:29Z</time>
      </trkpt>
      <trkpt lat="40.653121965005994" lon="-2.565046017989516">
        <ele>890.67100000000005</ele>
        <time>2026-04-25T09:43:30Z</time>
      </trkpt>
      <trkpt lat="40.65311199054122" lon="-2.565021961927414">
        <ele>890.21500000000003</ele>
        <time>2026-04-25T09:43:31Z</time>
      </trkpt>
      <trkpt lat="40.653104027733207" lon="-2.564997989684343">
        <ele>889.88999999999999</ele>
        <time>2026-04-25T09:43:32Z</time>
      </trkpt>
      <trkpt lat="40.653096986934543" lon="-2.564960019662976">
        <ele>889.44000000000005</ele>
        <time>2026-04-25T09:43:34Z</time>
      </trkpt>
      <trkpt lat="40.653080977499485" lon="-2.564933029934764">
        <ele>888.82600000000002</ele>
        <time>2026-04-25T09:43:36Z</time>
      </trkpt>
      <trkpt lat="40.653073014691472" lon="-2.564909979701042">
        <ele>888.65800000000002</ele>
        <time>2026-04-25T09:43:37Z</time>
      </trkpt>
      <trkpt lat="40.653060022741556" lon="-2.56488399580121">
        <ele>888.27700000000004</ele>
        <time>2026-04-25T09:43:38Z</time>
      </trkpt>
      <trkpt lat="40.653045019134879" lon="-2.564863041043282">
        <ele>888.048</ele>
        <time>2026-04-25T09:43:39Z</time>
      </trkpt>
      <trkpt lat="40.653029009699821" lon="-2.564844014123082">
        <ele>887.89300000000003</ele>
        <time>2026-04-25T09:43:40Z</time>
      </trkpt>
      <trkpt lat="40.653008976951241" lon="-2.564823981374502">
        <ele>887.42899999999997</ele>
        <time>2026-04-25T09:43:41Z</time>
      </trkpt>
      <trkpt lat="40.652986010536551" lon="-2.564806966111064">
        <ele>887.20000000000005</ele>
        <time>2026-04-25T09:43:42Z</time>
      </trkpt>
      <trkpt lat="40.652966983616352" lon="-2.564790034666657">
        <ele>886.82000000000005</ele>
        <time>2026-04-25T09:43:43Z</time>
      </trkpt>
      <trkpt lat="40.652953991666436" lon="-2.564770001918078">
        <ele>886.40899999999999</ele>
        <time>2026-04-25T09:43:44Z</time>
      </trkpt>
      <trkpt lat="40.652942005544901" lon="-2.564742006361485">
        <ele>886.29399999999998</ele>
        <time>2026-04-25T09:43:45Z</time>
      </trkpt>
      <trkpt lat="40.652932031080127" lon="-2.564713004976511">
        <ele>885.83799999999997</ele>
        <time>2026-04-25T09:43:46Z</time>
      </trkpt>
      <trkpt lat="40.652922978624701" lon="-2.564680986106396">
        <ele>885.47299999999996</ele>
        <time>2026-04-25T09:43:47Z</time>
      </trkpt>
      <trkpt lat="40.652916021645069" lon="-2.564652990549803">
        <ele>885.25300000000004</ele>
        <time>2026-04-25T09:43:48Z</time>
      </trkpt>
      <trkpt lat="40.652908980846405" lon="-2.564629018306732">
        <ele>885.09900000000005</ele>
        <time>2026-04-25T09:43:49Z</time>
      </trkpt>
      <trkpt lat="40.652899006381631" lon="-2.56460596807301">
        <ele>884.61099999999999</ele>
        <time>2026-04-25T09:43:50Z</time>
      </trkpt>
      <trkpt lat="40.652891965582967" lon="-2.56458300165832">
        <ele>884.25999999999999</ele>
        <time>2026-04-25T09:43:51Z</time>
      </trkpt>
      <trkpt lat="40.652876039966941" lon="-2.564537990838289">
        <ele>883.87099999999998</ele>
        <time>2026-04-25T09:43:53Z</time>
      </trkpt>
      <trkpt lat="40.652864975854754" lon="-2.564514018595219">
        <ele>883.65599999999995</ele>
        <time>2026-04-25T09:43:54Z</time>
      </trkpt>
      <trkpt lat="40.652849972248077" lon="-2.56447303108871">
        <ele>883.048</ele>
        <time>2026-04-25T09:43:56Z</time>
      </trkpt>
      <trkpt lat="40.652847038581967" lon="-2.564448975026608">
        <ele>882.86099999999999</ele>
        <time>2026-04-25T09:43:57Z</time>
      </trkpt>
      <trkpt lat="40.652837986126542" lon="-2.564414022490382">
        <ele>882.41700000000003</ele>
        <time>2026-04-25T09:43:59Z</time>
      </trkpt>
      <trkpt lat="40.652830023318529" lon="-2.564388960599899">
        <ele>882.00900000000001</ele>
        <time>2026-04-25T09:44:00Z</time>
      </trkpt>
      <trkpt lat="40.652818037196994" lon="-2.564348978921771">
        <ele>881.62599999999998</ele>
        <time>2026-04-25T09:44:02Z</time>
      </trkpt>
      <trkpt lat="40.652808984741569" lon="-2.564308997243643">
        <ele>880.87</ele>
        <time>2026-04-25T09:44:04Z</time>
      </trkpt>
      <trkpt lat="40.652792975306511" lon="-2.564269015565515">
        <ele>880.22500000000002</ele>
        <time>2026-04-25T09:44:06Z</time>
      </trkpt>
      <trkpt lat="40.652774032205343" lon="-2.564226016402245">
        <ele>879.495</ele>
        <time>2026-04-25T09:44:08Z</time>
      </trkpt>
      <trkpt lat="40.652761040255427" lon="-2.564200032502413">
        <ele>879.21100000000001</ele>
        <time>2026-04-25T09:44:09Z</time>
      </trkpt>
      <trkpt lat="40.65274503082037" lon="-2.564178993925452">
        <ele>878.63300000000004</ele>
        <time>2026-04-25T09:44:10Z</time>
      </trkpt>
      <trkpt lat="40.652734972536564" lon="-2.564157033339143">
        <ele>878.23199999999997</ele>
        <time>2026-04-25T09:44:11Z</time>
      </trkpt>
      <trkpt lat="40.65272499807179" lon="-2.564135994762182">
        <ele>877.62300000000005</ele>
        <time>2026-04-25T09:44:12Z</time>
      </trkpt>
      <trkpt lat="40.652711000293493" lon="-2.564118979498744">
        <ele>877.25800000000004</ele>
        <time>2026-04-25T09:44:13Z</time>
      </trkpt>
      <trkpt lat="40.652699014171958" lon="-2.564095007255673">
        <ele>876.88099999999997</ele>
        <time>2026-04-25T09:44:14Z</time>
      </trkpt>
      <trkpt lat="40.652690967544913" lon="-2.564072040840983">
        <ele>876.26099999999997</ele>
        <time>2026-04-25T09:44:15Z</time>
      </trkpt>
      <trkpt lat="40.652675963938236" lon="-2.564035998657346">
        <ele>875.21699999999998</ele>
        <time>2026-04-25T09:44:17Z</time>
      </trkpt>
      <trkpt lat="40.652674036100507" lon="-2.563997022807598">
        <ele>874.40899999999999</ele>
        <time>2026-04-25T09:44:19Z</time>
      </trkpt>
      <trkpt lat="40.652672024443746" lon="-2.563961986452341">
        <ele>873.66999999999996</ele>
        <time>2026-04-25T09:44:21Z</time>
      </trkpt>
      <trkpt lat="40.652680993080139" lon="-2.563940025866032">
        <ele>873.03399999999999</ele>
        <time>2026-04-25T09:44:23Z</time>
      </trkpt>
      <trkpt lat="40.652672024443746" lon="-2.563908006995916">
        <ele>872.46900000000005</ele>
        <time>2026-04-25T09:44:27Z</time>
      </trkpt>
      <trkpt lat="40.652652997523546" lon="-2.563883028924465">
        <ele>871.81899999999996</ele>
        <time>2026-04-25T09:44:30Z</time>
      </trkpt>
      <trkpt lat="40.652637993916869" lon="-2.563862996175885">
        <ele>871.43499999999995</ele>
        <time>2026-04-25T09:44:33Z</time>
      </trkpt>
      <trkpt lat="40.652652997523546" lon="-2.563842041417956">
        <ele>871.46699999999998</ele>
        <time>2026-04-25T09:44:36Z</time>
      </trkpt>
      <trkpt lat="40.652663977816701" lon="-2.563817985355854">
        <ele>871.21600000000001</ele>
        <time>2026-04-25T09:44:39Z</time>
      </trkpt>
      <trkpt lat="40.65266297198832" lon="-2.563789989799261">
        <ele>871.04700000000003</ele>
        <time>2026-04-25T09:44:42Z</time>
      </trkpt>
      <trkpt lat="40.652658026665449" lon="-2.563760988414288">
        <ele>870.81200000000001</ele>
        <time>2026-04-25T09:44:44Z</time>
      </trkpt>
      <trkpt lat="40.652651991695166" lon="-2.563730981200934">
        <ele>870.47299999999996</ele>
        <time>2026-04-25T09:44:46Z</time>
      </trkpt>
      <trkpt lat="40.652643023058772" lon="-2.563704997301102">
        <ele>869.88499999999999</ele>
        <time>2026-04-25T09:44:51Z</time>
      </trkpt>
      <trkpt lat="40.652635982260108" lon="-2.563671972602606">
        <ele>869.61300000000006</ele>
        <time>2026-04-25T09:44:54Z</time>
      </trkpt>
      <trkpt lat="40.652632964774966" lon="-2.563642971217632">
        <ele>869.60900000000004</ele>
        <time>2026-04-25T09:44:56Z</time>
      </trkpt>
      <trkpt lat="40.652631958946586" lon="-2.563618998974562">
        <ele>869.49900000000002</ele>
        <time>2026-04-25T09:44:58Z</time>
      </trkpt>
      <trkpt lat="40.652632964774966" lon="-2.563594020903111">
        <ele>869.49300000000005</ele>
        <time>2026-04-25T09:45:00Z</time>
      </trkpt>
      <trkpt lat="40.652631958946586" lon="-2.563566025346518">
        <ele>869.428</ele>
        <time>2026-04-25T09:45:02Z</time>
      </trkpt>
      <trkpt lat="40.652627013623714" lon="-2.563533000648022">
        <ele>869.22799999999995</ele>
        <time>2026-04-25T09:45:04Z</time>
      </trkpt>
      <trkpt lat="40.65261896699667" lon="-2.563506010919809">
        <ele>868.88400000000001</ele>
        <time>2026-04-25T09:45:06Z</time>
      </trkpt>
      <trkpt lat="40.652604969218373" lon="-2.563478015363216">
        <ele>868.86599999999999</ele>
        <time>2026-04-25T09:45:08Z</time>
      </trkpt>
      <trkpt lat="40.652606980875134" lon="-2.563452031463385">
        <ele>868.47500000000002</ele>
        <time>2026-04-25T09:45:23Z</time>
      </trkpt>
      <trkpt lat="40.652583008632064" lon="-2.563445996493101">
        <ele>867.63599999999997</ele>
        <time>2026-04-25T09:45:28Z</time>
      </trkpt>
      <trkpt lat="40.652555013075471" lon="-2.563453037291765">
        <ele>867.62099999999998</ele>
        <time>2026-04-25T09:45:30Z</time>
      </trkpt>
      <trkpt lat="40.652534980326891" lon="-2.563457982614636">
        <ele>867.49400000000003</ele>
        <time>2026-04-25T09:45:32Z</time>
      </trkpt>
      <trkpt lat="40.652514025568962" lon="-2.563467035070062">
        <ele>867.45699999999999</ele>
        <time>2026-04-25T09:45:34Z</time>
      </trkpt>
      <trkpt lat="40.65248804166913" lon="-2.563468962907791">
        <ele>867.62199999999996</ele>
        <time>2026-04-25T09:45:36Z</time>
      </trkpt>
      <trkpt lat="40.652463985607028" lon="-2.563462005928159">
        <ele>867.40899999999999</ele>
        <time>2026-04-25T09:45:38Z</time>
      </trkpt>
      <trkpt lat="40.65244403667748" lon="-2.563449013978243">
        <ele>867.01099999999997</ele>
        <time>2026-04-25T09:45:40Z</time>
      </trkpt>
      <trkpt lat="40.652406988665462" lon="-2.563441973179579">
        <ele>866.66499999999996</ele>
        <time>2026-04-25T09:45:42Z</time>
      </trkpt>
      <trkpt lat="40.652384022250772" lon="-2.563435016199946">
        <ele>866.65999999999997</ele>
        <time>2026-04-25T09:45:43Z</time>
      </trkpt>
      <trkpt lat="40.65236097201705" lon="-2.563428981229663">
        <ele>866.65999999999997</ele>
        <time>2026-04-25T09:45:44Z</time>
      </trkpt>
      <trkpt lat="40.652320990338922" lon="-2.563409032300115">
        <ele>866.69600000000003</ele>
        <time>2026-04-25T09:45:46Z</time>
      </trkpt>
      <trkpt lat="40.652218982577324" lon="-2.563316999003291">
        <ele>866.298</ele>
        <time>2026-04-25T09:45:50Z</time>
      </trkpt>
      <trkpt lat="40.652136001735926" lon="-2.563227983191609">
        <ele>865.49699999999996</ele>
        <time>2026-04-25T09:45:53Z</time>
      </trkpt>
      <trkpt lat="40.652072969824076" lon="-2.563182972371578">
        <ele>865.06799999999998</ele>
        <time>2026-04-25T09:45:55Z</time>
      </trkpt>
      <trkpt lat="40.651967022567987" lon="-2.563138967379928">
        <ele>864.47299999999996</ele>
        <time>2026-04-25T09:45:58Z</time>
      </trkpt>
      <trkpt lat="40.651863003149629" lon="-2.563108960166574">
        <ele>864.08100000000002</ele>
        <time>2026-04-25T09:46:01Z</time>
      </trkpt>
      <trkpt lat="40.651744985952973" lon="-2.56307702511549">
        <ele>863.26099999999997</ele>
        <time>2026-04-25T09:46:04Z</time>
      </trkpt>
      <trkpt lat="40.651697041466832" lon="-2.563070990145207">
        <ele>863.41700000000003</ele>
        <time>2026-04-25T09:46:05Z</time>
      </trkpt>
      <trkpt lat="40.651606013998389" lon="-2.563073001801968">
        <ele>862.80899999999997</ele>
        <time>2026-04-25T09:46:08Z</time>
      </trkpt>
      <trkpt lat="40.651492020115256" lon="-2.563079036772251">
        <ele>862.09000000000003</ele>
        <time>2026-04-25T09:46:12Z</time>
      </trkpt>
      <trkpt lat="40.651381965726614" lon="-2.563086999580264">
        <ele>861.85400000000004</ele>
        <time>2026-04-25T09:46:15Z</time>
      </trkpt>
      <trkpt lat="40.651339972391725" lon="-2.563092028722167">
        <ele>861.43899999999996</ele>
        <time>2026-04-25T09:46:16Z</time>
      </trkpt>
      <trkpt lat="40.651273000985384" lon="-2.563125975430012">
        <ele>860.67899999999997</ele>
        <time>2026-04-25T09:46:18Z</time>
      </trkpt>
      <trkpt lat="40.651240982115269" lon="-2.563148019835353">
        <ele>860.48500000000001</ele>
        <time>2026-04-25T09:46:19Z</time>
      </trkpt>
      <trkpt lat="40.651210974901915" lon="-2.563166962936521">
        <ele>860.077</ele>
        <time>2026-04-25T09:46:20Z</time>
      </trkpt>
      <trkpt lat="40.651179039850831" lon="-2.563184984028339">
        <ele>859.88599999999997</ele>
        <time>2026-04-25T09:46:21Z</time>
      </trkpt>
      <trkpt lat="40.651149032637477" lon="-2.563198981806636">
        <ele>859.66700000000003</ele>
        <time>2026-04-25T09:46:22Z</time>
      </trkpt>
      <trkpt lat="40.651117013767362" lon="-2.563209962099791">
        <ele>859.64200000000005</ele>
        <time>2026-04-25T09:46:23Z</time>
      </trkpt>
      <trkpt lat="40.65105096437037" lon="-2.563227983191609">
        <ele>859.02700000000004</ele>
        <time>2026-04-25T09:46:25Z</time>
      </trkpt>
      <trkpt lat="40.650936970487237" lon="-2.563223959878087">
        <ele>857.66800000000001</ele>
        <time>2026-04-25T09:46:28Z</time>
      </trkpt>
      <trkpt lat="40.650825994089246" lon="-2.563220020383596">
        <ele>856.81399999999996</ele>
        <time>2026-04-25T09:46:31Z</time>
      </trkpt>
      <trkpt lat="40.650752987712622" lon="-2.563247010111809">
        <ele>856.20899999999995</ele>
        <time>2026-04-25T09:46:33Z</time>
      </trkpt>
      <trkpt lat="40.650666989386082" lon="-2.563305012881756">
        <ele>856.024</ele>
        <time>2026-04-25T09:46:36Z</time>
      </trkpt>
      <trkpt lat="40.650606974959373" lon="-2.563398974016309">
        <ele>856.63800000000003</ele>
        <time>2026-04-25T09:46:40Z</time>
      </trkpt>
      <trkpt lat="40.65055500715971" lon="-2.563456976786256">
        <ele>857.04300000000001</ele>
        <time>2026-04-25T09:46:42Z</time>
      </trkpt>
      <trkpt lat="40.65053204074502" lon="-2.563483966514468">
        <ele>857.07299999999998</ele>
        <time>2026-04-25T09:46:43Z</time>
      </trkpt>
      <trkpt lat="40.650503961369395" lon="-2.563511962071061">
        <ele>857.279</ele>
        <time>2026-04-25T09:46:44Z</time>
      </trkpt>
      <trkpt lat="40.650479989126325" lon="-2.563541969284415">
        <ele>856.87099999999998</ele>
        <time>2026-04-25T09:46:45Z</time>
      </trkpt>
      <trkpt lat="40.650456016883254" lon="-2.563574993982911">
        <ele>856.88</ele>
        <time>2026-04-25T09:46:46Z</time>
      </trkpt>
      <trkpt lat="40.650440007448196" lon="-2.563618998974562">
        <ele>857.01099999999997</ele>
        <time>2026-04-25T09:46:47Z</time>
      </trkpt>
      <trkpt lat="40.650418968871236" lon="-2.563644982874394">
        <ele>856.83600000000001</ele>
        <time>2026-04-25T09:46:48Z</time>
      </trkpt>
      <trkpt lat="40.650388961657882" lon="-2.563669960945845">
        <ele>856.86800000000005</ele>
        <time>2026-04-25T09:46:49Z</time>
      </trkpt>
      <trkpt lat="40.650359960272908" lon="-2.563688987866044">
        <ele>856.64200000000005</ele>
        <time>2026-04-25T09:46:50Z</time>
      </trkpt>
      <trkpt lat="40.650330958887935" lon="-2.563714971765876">
        <ele>856.62599999999998</ele>
        <time>2026-04-25T09:46:51Z</time>
      </trkpt>
      <trkpt lat="40.650302963331342" lon="-2.563738021999598">
        <ele>856.60900000000004</ele>
        <time>2026-04-25T09:46:52Z</time>
      </trkpt>
      <trkpt lat="40.650275973603129" lon="-2.563756965100765">
        <ele>856.07799999999997</ele>
        <time>2026-04-25T09:46:53Z</time>
      </trkpt>
      <trkpt lat="40.650244038552046" lon="-2.563781021162868">
        <ele>856.25199999999995</ele>
        <time>2026-04-25T09:46:54Z</time>
      </trkpt>
      <trkpt lat="40.650212019681931" lon="-2.563799964264035">
        <ele>855.827</ele>
        <time>2026-04-25T09:46:55Z</time>
      </trkpt>
      <trkpt lat="40.650181006640196" lon="-2.563817985355854">
        <ele>856.01700000000005</ele>
        <time>2026-04-25T09:46:56Z</time>
      </trkpt>
      <trkpt lat="40.650146976113319" lon="-2.563837012276053">
        <ele>855.61300000000006</ele>
        <time>2026-04-25T09:46:57Z</time>
      </trkpt>
      <trkpt lat="40.650112023577094" lon="-2.563854027539492">
        <ele>855.625</ele>
        <time>2026-04-25T09:46:58Z</time>
      </trkpt>
      <trkpt lat="40.650078998878598" lon="-2.563864002004266">
        <ele>855.43399999999997</ele>
        <time>2026-04-25T09:46:59Z</time>
      </trkpt>
      <trkpt lat="40.649983026087284" lon="-2.563855033367872">
        <ele>854.27499999999998</ele>
        <time>2026-04-25T09:47:03Z</time>
      </trkpt>
      <trkpt lat="40.649875989183784" lon="-2.563884034752846">
        <ele>853.42999999999995</ele>
        <time>2026-04-25T09:47:06Z</time>
      </trkpt>
      <trkpt lat="40.649768030270934" lon="-2.563945977017283">
        <ele>851.88599999999997</ele>
        <time>2026-04-25T09:47:09Z</time>
      </trkpt>
      <trkpt lat="40.649701980873942" lon="-2.563996016979218">
        <ele>850.86000000000001</ele>
        <time>2026-04-25T09:47:11Z</time>
      </trkpt>
      <trkpt lat="40.649671973660588" lon="-2.564027030020952">
        <ele>850.226</ele>
        <time>2026-04-25T09:47:12Z</time>
      </trkpt>
      <trkpt lat="40.649642972275615" lon="-2.564046978950501">
        <ele>849.80899999999997</ele>
        <time>2026-04-25T09:47:13Z</time>
      </trkpt>
      <trkpt lat="40.649627968668938" lon="-2.564063994213939">
        <ele>849.40999999999997</ele>
        <time>2026-04-25T09:47:14Z</time>
      </trkpt>
      <trkpt lat="40.649602990597486" lon="-2.564083021134138">
        <ele>849.01400000000001</ele>
        <time>2026-04-25T09:47:15Z</time>
      </trkpt>
      <trkpt lat="40.649551022797823" lon="-2.564129959791899">
        <ele>848.28899999999999</ele>
        <time>2026-04-25T09:47:17Z</time>
      </trkpt>
      <trkpt lat="40.649504000321031" lon="-2.564179999753833">
        <ele>847.87900000000002</ele>
        <time>2026-04-25T09:47:19Z</time>
      </trkpt>
      <trkpt lat="40.649410039186478" lon="-2.564242025837302">
        <ele>846.495</ele>
        <time>2026-04-25T09:47:22Z</time>
      </trkpt>
      <trkpt lat="40.649307025596499" lon="-2.564333975315094">
        <ele>844.86699999999996</ele>
        <time>2026-04-25T09:47:25Z</time>
      </trkpt>
      <trkpt lat="40.649278024211526" lon="-2.564371023327112">
        <ele>844.68600000000004</ele>
        <time>2026-04-25T09:47:26Z</time>
      </trkpt>
      <trkpt lat="40.649194037541747" lon="-2.564504966139793">
        <ele>843.06700000000001</ele>
        <time>2026-04-25T09:47:29Z</time>
      </trkpt>
      <trkpt lat="40.649121031165123" lon="-2.564607979729772">
        <ele>841.69200000000001</ele>
        <time>2026-04-25T09:47:32Z</time>
      </trkpt>
      <trkpt lat="40.649038972333074" lon="-2.56468802690506">
        <ele>840.22299999999996</ele>
        <time>2026-04-25T09:47:35Z</time>
      </trkpt>
      <trkpt lat="40.648962026461959" lon="-2.564766984432936">
        <ele>839.28300000000002</ele>
        <time>2026-04-25T09:47:38Z</time>
      </trkpt>
      <trkpt lat="40.648878961801529" lon="-2.56486396305263">
        <ele>837.21100000000001</ele>
        <time>2026-04-25T09:47:41Z</time>
      </trkpt>
      <trkpt lat="40.648789023980498" lon="-2.564941998571158">
        <ele>836.00900000000001</ele>
        <time>2026-04-25T09:47:44Z</time>
      </trkpt>
      <trkpt lat="40.648719035089016" lon="-2.565035037696362">
        <ele>834.68399999999997</ele>
        <time>2026-04-25T09:47:47Z</time>
      </trkpt>
      <trkpt lat="40.648644017055631" lon="-2.565128998830915">
        <ele>834.03800000000001</ele>
        <time>2026-04-25T09:47:51Z</time>
      </trkpt>
      <trkpt lat="40.648573022335768" lon="-2.565218014642596">
        <ele>832.64300000000003</ele>
        <time>2026-04-25T09:47:54Z</time>
      </trkpt>
      <trkpt lat="40.648506972938776" lon="-2.565302001312375">
        <ele>831.27300000000002</ele>
        <time>2026-04-25T09:47:57Z</time>
      </trkpt>
      <trkpt lat="40.648433966562152" lon="-2.565387999638915">
        <ele>829.81899999999996</ele>
        <time>2026-04-25T09:48:00Z</time>
      </trkpt>
      <trkpt lat="40.648354003205895" lon="-2.565490007400513">
        <ele>829.02099999999996</ele>
        <time>2026-04-25T09:48:03Z</time>
      </trkpt>
      <trkpt lat="40.648268004879355" lon="-2.565616993233562">
        <ele>827.21000000000004</ele>
        <time>2026-04-25T09:48:06Z</time>
      </trkpt>
      <trkpt lat="40.648217964917421" lon="-2.565760994330049">
        <ele>826.05100000000004</ele>
        <time>2026-04-25T09:48:09Z</time>
      </trkpt>
      <trkpt lat="40.648188041523099" lon="-2.565895020961762">
        <ele>825.03599999999994</ele>
        <time>2026-04-25T09:48:12Z</time>
      </trkpt>
      <trkpt lat="40.648151999339461" lon="-2.56602100096643">
        <ele>824.41800000000001</ele>
        <time>2026-04-25T09:48:15Z</time>
      </trkpt>
      <trkpt lat="40.648069018498063" lon="-2.566101970151067">
        <ele>824.09799999999996</ele>
        <time>2026-04-25T09:48:18Z</time>
      </trkpt>
      <trkpt lat="40.647984025999904" lon="-2.566153015941382">
        <ele>824.21699999999998</ele>
        <time>2026-04-25T09:48:21Z</time>
      </trkpt>
      <trkpt lat="40.647908002138138" lon="-2.566224010661244">
        <ele>824.40899999999999</ele>
        <time>2026-04-25T09:48:24Z</time>
      </trkpt>
      <trkpt lat="40.647832984104753" lon="-2.566303974017501">
        <ele>824.64300000000003</ele>
        <time>2026-04-25T09:48:27Z</time>
      </trkpt>
      <trkpt lat="40.647779004648328" lon="-2.566410005092621">
        <ele>824.46699999999998</ele>
        <time>2026-04-25T09:48:30Z</time>
      </trkpt>
      <trkpt lat="40.647724019363523" lon="-2.566534979268909">
        <ele>824.81200000000001</ele>
        <time>2026-04-25T09:48:34Z</time>
      </trkpt>
      <trkpt lat="40.647683031857014" lon="-2.566650984808803">
        <ele>824.68200000000002</ele>
        <time>2026-04-25T09:48:37Z</time>
      </trkpt>
      <trkpt lat="40.64765595830977" lon="-2.566780988126993">
        <ele>825.28800000000001</ele>
        <time>2026-04-25T09:48:40Z</time>
      </trkpt>
      <trkpt lat="40.64763299189508" lon="-2.566908979788423">
        <ele>824.83000000000004</ele>
        <time>2026-04-25T09:48:43Z</time>
      </trkpt>
      <trkpt lat="40.647598961368203" lon="-2.567025991156697">
        <ele>825.24900000000002</ele>
        <time>2026-04-25T09:48:46Z</time>
      </trkpt>
      <trkpt lat="40.64756995998323" lon="-2.56713897921145">
        <ele>825.67999999999995</ele>
        <time>2026-04-25T09:48:49Z</time>
      </trkpt>
      <trkpt lat="40.647537019103765" lon="-2.567259008064866">
        <ele>825.45500000000004</ele>
        <time>2026-04-25T09:48:52Z</time>
      </trkpt>
      <trkpt lat="40.647506006062031" lon="-2.567384988069534">
        <ele>825.65499999999997</ele>
        <time>2026-04-25T09:48:55Z</time>
      </trkpt>
      <trkpt lat="40.647502988576889" lon="-2.567425975576043">
        <ele>825.60699999999997</ele>
        <time>2026-04-25T09:48:56Z</time>
      </trkpt>
      <trkpt lat="40.647464012727141" lon="-2.567536029964685">
        <ele>825.61699999999996</ele>
        <time>2026-04-25T09:48:59Z</time>
      </trkpt>
      <trkpt lat="40.647427970543504" lon="-2.567677013576031">
        <ele>826.00900000000001</ele>
        <time>2026-04-25T09:49:02Z</time>
      </trkpt>
      <trkpt lat="40.64739603549242" lon="-2.56782503798604">
        <ele>825.49699999999996</ele>
        <time>2026-04-25T09:49:05Z</time>
      </trkpt>
      <trkpt lat="40.647372985258698" lon="-2.56795596331358">
        <ele>825.471</ele>
        <time>2026-04-25T09:49:08Z</time>
      </trkpt>
      <trkpt lat="40.647335015237331" lon="-2.568095019087195">
        <ele>824.63599999999997</ele>
        <time>2026-04-25T09:49:12Z</time>
      </trkpt>
      <trkpt lat="40.64731003716588" lon="-2.568224016577005">
        <ele>824.83600000000001</ele>
        <time>2026-04-25T09:49:15Z</time>
      </trkpt>
      <trkpt lat="40.647298973053694" lon="-2.568268021568656">
        <ele>824.63199999999995</ele>
        <time>2026-04-25T09:49:16Z</time>
      </trkpt>
      <trkpt lat="40.647276006639004" lon="-2.568357037380338">
        <ele>824.49400000000003</ele>
        <time>2026-04-25T09:49:18Z</time>
      </trkpt>
      <trkpt lat="40.647264020517468" lon="-2.568398024886847">
        <ele>824.49300000000005</ele>
        <time>2026-04-25T09:49:19Z</time>
      </trkpt>
      <trkpt lat="40.647254968062043" lon="-2.568441024050117">
        <ele>824.85400000000004</ele>
        <time>2026-04-25T09:49:20Z</time>
      </trkpt>
      <trkpt lat="40.64724599942565" lon="-2.568478994071484">
        <ele>824.81899999999996</ele>
        <time>2026-04-25T09:49:21Z</time>
      </trkpt>
      <trkpt lat="40.647236024960876" lon="-2.568518975749612">
        <ele>825.07899999999995</ele>
        <time>2026-04-25T09:49:22Z</time>
      </trkpt>
      <trkpt lat="40.647229989990592" lon="-2.568553006276488">
        <ele>825.20500000000004</ele>
        <time>2026-04-25T09:49:23Z</time>
      </trkpt>
      <trkpt lat="40.647220015525818" lon="-2.568586030974984">
        <ele>825.02499999999998</ele>
        <time>2026-04-25T09:49:24Z</time>
      </trkpt>
      <trkpt lat="40.647208029404283" lon="-2.568618971854448">
        <ele>825.40899999999999</ele>
        <time>2026-04-25T09:49:25Z</time>
      </trkpt>
      <trkpt lat="40.64720300026238" lon="-2.568648979067802">
        <ele>825.29899999999998</ele>
        <time>2026-04-25T09:49:26Z</time>
      </trkpt>
      <trkpt lat="40.647193025797606" lon="-2.568683009594679">
        <ele>824.88300000000004</ele>
        <time>2026-04-25T09:49:27Z</time>
      </trkpt>
      <trkpt lat="40.647186990827322" lon="-2.568722991272807">
        <ele>824.85799999999995</ele>
        <time>2026-04-25T09:49:28Z</time>
      </trkpt>
      <trkpt lat="40.647165030241013" lon="-2.568828016519547">
        <ele>824.45799999999997</ele>
        <time>2026-04-25T09:49:31Z</time>
      </trkpt>
      <trkpt lat="40.64716000109911" lon="-2.56885701790452">
        <ele>824.07399999999996</ele>
        <time>2026-04-25T09:49:32Z</time>
      </trkpt>
      <trkpt lat="40.647152038291097" lon="-2.568891970440745">
        <ele>824.25599999999997</ele>
        <time>2026-04-25T09:49:33Z</time>
      </trkpt>
      <trkpt lat="40.64714097417891" lon="-2.569013005122542">
        <ele>824.08500000000004</ele>
        <time>2026-04-25T09:49:36Z</time>
      </trkpt>
      <trkpt lat="40.647138962522149" lon="-2.569166980683804">
        <ele>824.61599999999999</ele>
        <time>2026-04-25T09:49:40Z</time>
      </trkpt>
      <trkpt lat="40.647141980007291" lon="-2.569203022867441">
        <ele>824.41099999999994</ele>
        <time>2026-04-25T09:49:41Z</time>
      </trkpt>
      <trkpt lat="40.647153966128826" lon="-2.569348029792309">
        <ele>825.27599999999995</ele>
        <time>2026-04-25T09:49:45Z</time>
      </trkpt>
      <trkpt lat="40.647162012755871" lon="-2.569493958726525">
        <ele>824.88999999999999</ele>
        <time>2026-04-25T09:49:49Z</time>
      </trkpt>
      <trkpt lat="40.64716000109911" lon="-2.569563025608659">
        <ele>824.81899999999996</ele>
        <time>2026-04-25T09:49:51Z</time>
      </trkpt>
      <trkpt lat="40.647152038291097" lon="-2.569595966488123">
        <ele>824.60900000000004</ele>
        <time>2026-04-25T09:49:52Z</time>
      </trkpt>
      <trkpt lat="40.647136028856039" lon="-2.569675007835031">
        <ele>824.49900000000002</ele>
        <time>2026-04-25T09:49:54Z</time>
      </trkpt>
      <trkpt lat="40.647126976400614" lon="-2.569706020876765">
        <ele>824.21299999999997</ele>
        <time>2026-04-25T09:49:55Z</time>
      </trkpt>
      <trkpt lat="40.647078026086092" lon="-2.569821020588279">
        <ele>824.22799999999995</ele>
        <time>2026-04-25T09:49:58Z</time>
      </trkpt>
      <trkpt lat="40.647057993337512" lon="-2.569858990609646">
        <ele>823.95799999999997</ele>
        <time>2026-04-25T09:49:59Z</time>
      </trkpt>
      <trkpt lat="40.647037038579583" lon="-2.569893021136522">
        <ele>823.61400000000003</ele>
        <time>2026-04-25T09:50:00Z</time>
      </trkpt>
      <trkpt lat="40.647016000002623" lon="-2.569927973672748">
        <ele>823.37599999999998</ele>
        <time>2026-04-25T09:50:01Z</time>
      </trkpt>
      <trkpt lat="40.646953973919153" lon="-2.570029981434345">
        <ele>822.48500000000001</ele>
        <time>2026-04-25T09:50:05Z</time>
      </trkpt>
      <trkpt lat="40.646936958655715" lon="-2.570068035274744">
        <ele>822.46600000000001</ele>
        <time>2026-04-25T09:50:06Z</time>
      </trkpt>
      <trkpt lat="40.646918015554547" lon="-2.570102987810969">
        <ele>822.06100000000004</ele>
        <time>2026-04-25T09:50:07Z</time>
      </trkpt>
      <trkpt lat="40.646893959492445" lon="-2.570139029994607">
        <ele>822.29499999999996</ele>
        <time>2026-04-25T09:50:08Z</time>
      </trkpt>
      <trkpt lat="40.646876022219658" lon="-2.570172976702452">
        <ele>821.649</ele>
        <time>2026-04-25T09:50:09Z</time>
      </trkpt>
      <trkpt lat="40.646854983642697" lon="-2.570211030542851">
        <ele>821.22299999999996</ele>
        <time>2026-04-25T09:50:10Z</time>
      </trkpt>
      <trkpt lat="40.646834028884768" lon="-2.570252018049359">
        <ele>821.00900000000001</ele>
        <time>2026-04-25T09:50:11Z</time>
      </trkpt>
      <trkpt lat="40.646812990307808" lon="-2.570282025262713">
        <ele>820.49099999999999</ele>
        <time>2026-04-25T09:50:12Z</time>
      </trkpt>
      <trkpt lat="40.646790023893118" lon="-2.570315971970558">
        <ele>820.65499999999997</ele>
        <time>2026-04-25T09:50:13Z</time>
      </trkpt>
      <trkpt lat="40.646769991144538" lon="-2.570348996669054">
        <ele>820.49000000000001</ele>
        <time>2026-04-25T09:50:14Z</time>
      </trkpt>
      <trkpt lat="40.646748030558228" lon="-2.570385038852692">
        <ele>820.07000000000005</ele>
        <time>2026-04-25T09:50:15Z</time>
      </trkpt>
      <trkpt lat="40.646727997809649" lon="-2.570420997217298">
        <ele>820.08600000000001</ele>
        <time>2026-04-25T09:50:16Z</time>
      </trkpt>
      <trkpt lat="40.64671098254621" lon="-2.570456033572555">
        <ele>819.63800000000003</ele>
        <time>2026-04-25T09:50:17Z</time>
      </trkpt>
      <trkpt lat="40.646694973111153" lon="-2.570494003593922">
        <ele>819.827</ele>
        <time>2026-04-25T09:50:18Z</time>
      </trkpt>
      <trkpt lat="40.646680975332856" lon="-2.570530967786908">
        <ele>819.62800000000004</ele>
        <time>2026-04-25T09:50:19Z</time>
      </trkpt>
      <trkpt lat="40.646668989211321" lon="-2.570564998313785">
        <ele>819.49300000000005</ele>
        <time>2026-04-25T09:50:20Z</time>
      </trkpt>
      <trkpt lat="40.646654991433024" lon="-2.570600034669042">
        <ele>819.43299999999999</ele>
        <time>2026-04-25T09:50:21Z</time>
      </trkpt>
      <trkpt lat="40.646639987826347" lon="-2.570629036054015">
        <ele>819.02300000000002</ele>
        <time>2026-04-25T09:50:22Z</time>
      </trkpt>
      <trkpt lat="40.64662397839129" lon="-2.570659965276718">
        <ele>819.21500000000003</ele>
        <time>2026-04-25T09:50:23Z</time>
      </trkpt>
      <trkpt lat="40.646565975621343" lon="-2.570783011615276">
        <ele>818.40899999999999</ele>
        <time>2026-04-25T09:50:27Z</time>
      </trkpt>
      <trkpt lat="40.646517025306821" lon="-2.570888036862016">
        <ele>818.01499999999999</ele>
        <time>2026-04-25T09:50:30Z</time>
      </trkpt>
      <trkpt lat="40.646480983123183" lon="-2.571013011038303">
        <ele>817.68899999999996</ele>
        <time>2026-04-25T09:50:33Z</time>
      </trkpt>
      <trkpt lat="40.646434966474771" lon="-2.571122981607914">
        <ele>817.09400000000005</ele>
        <time>2026-04-25T09:50:36Z</time>
      </trkpt>
      <trkpt lat="40.646403031423688" lon="-2.571190036833286">
        <ele>816.63400000000001</ele>
        <time>2026-04-25T09:50:38Z</time>
      </trkpt>
      <trkpt lat="40.646371012553573" lon="-2.571250973269343">
        <ele>816.25</ele>
        <time>2026-04-25T09:50:40Z</time>
      </trkpt>
      <trkpt lat="40.646336982026696" lon="-2.571309981867671">
        <ele>815.69200000000001</ele>
        <time>2026-04-25T09:50:42Z</time>
      </trkpt>
      <trkpt lat="40.646316027268767" lon="-2.571336971595883">
        <ele>815.62099999999998</ele>
        <time>2026-04-25T09:50:43Z</time>
      </trkpt>
      <trkpt lat="40.646299012005329" lon="-2.571363039314747">
        <ele>815.43200000000002</ele>
        <time>2026-04-25T09:50:44Z</time>
      </trkpt>
      <trkpt lat="40.646256012842059" lon="-2.571494970470667">
        <ele>815.28700000000003</ele>
        <time>2026-04-25T09:50:48Z</time>
      </trkpt>
      <trkpt lat="40.646246038377285" lon="-2.571640983223915">
        <ele>814.25300000000004</ele>
        <time>2026-04-25T09:50:52Z</time>
      </trkpt>
      <trkpt lat="40.646203039214015" lon="-2.571789007633925">
        <ele>814.20399999999995</ele>
        <time>2026-04-25T09:50:56Z</time>
      </trkpt>
      <trkpt lat="40.646188035607338" lon="-2.57182396017015">
        <ele>814.01400000000001</ele>
        <time>2026-04-25T09:50:57Z</time>
      </trkpt>
      <trkpt lat="40.646178983151913" lon="-2.571856984868646">
        <ele>814.20899999999995</ele>
        <time>2026-04-25T09:50:58Z</time>
      </trkpt>
      <trkpt lat="40.64617495983839" lon="-2.571895960718393">
        <ele>813.81700000000001</ele>
        <time>2026-04-25T09:50:59Z</time>
      </trkpt>
      <trkpt lat="40.646168002858758" lon="-2.571963015943766">
        <ele>814.27099999999996</ele>
        <time>2026-04-25T09:51:01Z</time>
      </trkpt>
      <trkpt lat="40.646170014515519" lon="-2.57203996181488">
        <ele>814.28599999999994</ele>
        <time>2026-04-25T09:51:03Z</time>
      </trkpt>
      <trkpt lat="40.646169008687139" lon="-2.572072986513376">
        <ele>814.48599999999999</ele>
        <time>2026-04-25T09:51:04Z</time>
      </trkpt>
      <trkpt lat="40.646179988980293" lon="-2.572113974019885">
        <ele>814.49199999999996</ele>
        <time>2026-04-25T09:51:05Z</time>
      </trkpt>
      <trkpt lat="40.646186023950577" lon="-2.572153033688664">
        <ele>814.28399999999999</ele>
        <time>2026-04-25T09:51:06Z</time>
      </trkpt>
      <trkpt lat="40.64619398675859" lon="-2.572184968739748">
        <ele>814.41300000000001</ele>
        <time>2026-04-25T09:51:07Z</time>
      </trkpt>
      <trkpt lat="40.646204967051744" lon="-2.572221010923386">
        <ele>814.66399999999999</ele>
        <time>2026-04-25T09:51:08Z</time>
      </trkpt>
      <trkpt lat="40.646209996193647" lon="-2.572351014241576">
        <ele>814.029</ele>
        <time>2026-04-25T09:51:12Z</time>
      </trkpt>
      <trkpt lat="40.646160962060094" lon="-2.572462996467948">
        <ele>813.89700000000005</ele>
        <time>2026-04-25T09:51:15Z</time>
      </trkpt>
      <trkpt lat="40.646146964281797" lon="-2.572497026994824">
        <ele>813.22299999999996</ele>
        <time>2026-04-25T09:51:16Z</time>
      </trkpt>
      <trkpt lat="40.64613196067512" lon="-2.572522005066276">
        <ele>813.22500000000002</ele>
        <time>2026-04-25T09:51:17Z</time>
      </trkpt>
      <trkpt lat="40.646117962896824" lon="-2.572542959824204">
        <ele>813.20899999999995</ele>
        <time>2026-04-25T09:51:18Z</time>
      </trkpt>
      <trkpt lat="40.646062977612019" lon="-2.57263801060617">
        <ele>813.04100000000005</ele>
        <time>2026-04-25T09:51:22Z</time>
      </trkpt>
      <trkpt lat="40.646027019247413" lon="-2.572764996439219">
        <ele>812.45500000000004</ele>
        <time>2026-04-25T09:51:26Z</time>
      </trkpt>
      <trkpt lat="40.645985025912523" lon="-2.572913020849228">
        <ele>812.04999999999995</ele>
        <time>2026-04-25T09:51:30Z</time>
      </trkpt>
      <trkpt lat="40.645972033962607" lon="-2.572957025840879">
        <ele>811.61000000000001</ele>
        <time>2026-04-25T09:51:31Z</time>
      </trkpt>
      <trkpt lat="40.645968010649085" lon="-2.573002958670259">
        <ele>811.226</ele>
        <time>2026-04-25T09:51:32Z</time>
      </trkpt>
      <trkpt lat="40.64595703035593" lon="-2.573123993352056">
        <ele>811.48800000000006</ele>
        <time>2026-04-25T09:51:35Z</time>
      </trkpt>
      <trkpt lat="40.645949989557266" lon="-2.573248967528343">
        <ele>810.81700000000001</ele>
        <time>2026-04-25T09:51:38Z</time>
      </trkpt>
      <trkpt lat="40.645912019535899" lon="-2.573401015251875">
        <ele>810.21799999999996</ele>
        <time>2026-04-25T09:51:42Z</time>
      </trkpt>
      <trkpt lat="40.645869020372629" lon="-2.573545016348362">
        <ele>809.48299999999995</ele>
        <time>2026-04-25T09:51:45Z</time>
      </trkpt>
      <trkpt lat="40.645847981795669" lon="-2.573685999959707">
        <ele>809.08600000000001</ele>
        <time>2026-04-25T09:51:48Z</time>
      </trkpt>
      <trkpt lat="40.645804982632399" lon="-2.573825977742672">
        <ele>809.05999999999995</ele>
        <time>2026-04-25T09:51:52Z</time>
      </trkpt>
      <trkpt lat="40.645781010389328" lon="-2.573910970240831">
        <ele>809.226</ele>
        <time>2026-04-25T09:51:54Z</time>
      </trkpt>
      <trkpt lat="40.645772041752934" lon="-2.573952963575721">
        <ele>809.60900000000004</ele>
        <time>2026-04-25T09:51:55Z</time>
      </trkpt>
      <trkpt lat="40.645740022882819" lon="-2.574080033227801">
        <ele>809.87</ele>
        <time>2026-04-25T09:51:58Z</time>
      </trkpt>
      <trkpt lat="40.645708004012704" lon="-2.574194027110934">
        <ele>809.63400000000001</ele>
        <time>2026-04-25T09:52:01Z</time>
      </trkpt>
      <trkpt lat="40.645644972100854" lon="-2.574311960488558">
        <ele>809.85900000000004</ele>
        <time>2026-04-25T09:52:05Z</time>
      </trkpt>
      <trkpt lat="40.645560985431075" lon="-2.574408017098904">
        <ele>809.01900000000001</ele>
        <time>2026-04-25T09:52:09Z</time>
      </trkpt>
      <trkpt lat="40.645489990711212" lon="-2.574525028467178">
        <ele>808.63499999999999</ele>
        <time>2026-04-25T09:52:13Z</time>
      </trkpt>
      <trkpt lat="40.645436011254787" lon="-2.574624018743634">
        <ele>808.85699999999997</ele>
        <time>2026-04-25T09:52:17Z</time>
      </trkpt>
      <trkpt lat="40.645379014313221" lon="-2.574719991534948">
        <ele>808.83600000000001</ele>
        <time>2026-04-25T09:52:20Z</time>
      </trkpt>
      <trkpt lat="40.645318999886513" lon="-2.574814958497882">
        <ele>809.01700000000005</ele>
        <time>2026-04-25T09:52:23Z</time>
      </trkpt>
      <trkpt lat="40.645231995731592" lon="-2.574928030371666">
        <ele>809.81200000000001</ele>
        <time>2026-04-25T09:52:27Z</time>
      </trkpt>
      <trkpt lat="40.645209029316902" lon="-2.574958959594369">
        <ele>810.24900000000002</ele>
        <time>2026-04-25T09:52:28Z</time>
      </trkpt>
      <trkpt lat="40.645186984911561" lon="-2.574989972636104">
        <ele>810.202</ele>
        <time>2026-04-25T09:52:29Z</time>
      </trkpt>
      <trkpt lat="40.645167035982013" lon="-2.575018974021077">
        <ele>810.02200000000005</ele>
        <time>2026-04-25T09:52:30Z</time>
      </trkpt>
      <trkpt lat="40.64514297991991" lon="-2.575041018426418">
        <ele>810.20899999999995</ele>
        <time>2026-04-25T09:52:31Z</time>
      </trkpt>
      <trkpt lat="40.645121019333601" lon="-2.575059961527586">
        <ele>810.28599999999994</ele>
        <time>2026-04-25T09:52:32Z</time>
      </trkpt>
      <trkpt lat="40.645092017948627" lon="-2.575075970962644">
        <ele>810.48000000000002</ele>
        <time>2026-04-25T09:52:33Z</time>
      </trkpt>
      <trkpt lat="40.645067039877176" lon="-2.57508996874094">
        <ele>810.625</ele>
        <time>2026-04-25T09:52:34Z</time>
      </trkpt>
      <trkpt lat="40.644966959953308" lon="-2.575104972347617">
        <ele>810.47500000000002</ele>
        <time>2026-04-25T09:52:38Z</time>
      </trkpt>
      <trkpt lat="40.644878027960658" lon="-2.575070019811392">
        <ele>809.87099999999998</ele>
        <time>2026-04-25T09:52:41Z</time>
      </trkpt>
      <trkpt lat="40.644779959693551" lon="-2.575049987062812">
        <ele>808.22299999999996</ele>
        <time>2026-04-25T09:52:44Z</time>
      </trkpt>
      <trkpt lat="40.644679041579366" lon="-2.575045041739941">
        <ele>807.22199999999998</ele>
        <time>2026-04-25T09:52:47Z</time>
      </trkpt>
      <trkpt lat="40.644566975533962" lon="-2.575082005932927">
        <ele>806.07299999999998</ele>
        <time>2026-04-25T09:52:51Z</time>
      </trkpt>
      <trkpt lat="40.644464967772365" lon="-2.575159035623074">
        <ele>805.47799999999995</ele>
        <time>2026-04-25T09:52:55Z</time>
      </trkpt>
      <trkpt lat="40.644379975274205" lon="-2.575220977887511">
        <ele>805.26400000000001</ele>
        <time>2026-04-25T09:52:58Z</time>
      </trkpt>
      <trkpt lat="40.644304035231471" lon="-2.575289960950613">
        <ele>804.40599999999995</ele>
        <time>2026-04-25T09:53:01Z</time>
      </trkpt>
      <trkpt lat="40.644218036904931" lon="-2.575355004519224">
        <ele>804.41600000000005</ele>
        <time>2026-04-25T09:53:05Z</time>
      </trkpt>
      <trkpt lat="40.644126003608108" lon="-2.575448965653777">
        <ele>803.80899999999997</ele>
        <time>2026-04-25T09:53:09Z</time>
      </trkpt>
      <trkpt lat="40.644033970311284" lon="-2.575520966202021">
        <ele>803.84799999999996</ele>
        <time>2026-04-25T09:53:13Z</time>
      </trkpt>
      <trkpt lat="40.643950989469886" lon="-2.575566982850432">
        <ele>803.84199999999998</ele>
        <time>2026-04-25T09:53:16Z</time>
      </trkpt>
      <trkpt lat="40.643838001415133" lon="-2.575590033084154">
        <ele>803.86699999999996</ele>
        <time>2026-04-25T09:53:19Z</time>
      </trkpt>
      <trkpt lat="40.643744962289929" lon="-2.57558198645711">
        <ele>803.28700000000003</ele>
        <time>2026-04-25T09:53:22Z</time>
      </trkpt>
      <trkpt lat="40.643646977841854" lon="-2.575543010607362">
        <ele>802.24300000000005</ele>
        <time>2026-04-25T09:53:26Z</time>
      </trkpt>
      <trkpt lat="40.64355100505054" lon="-2.575499005615711">
        <ele>801.88499999999999</ele>
        <time>2026-04-25T09:53:30Z</time>
      </trkpt>
      <trkpt lat="40.643514040857553" lon="-2.575499005615711">
        <ele>801.46400000000006</ele>
        <time>2026-04-25T09:53:31Z</time>
      </trkpt>
      <trkpt lat="40.643421001732349" lon="-2.575488025322557">
        <ele>800.84500000000003</ele>
        <time>2026-04-25T09:53:34Z</time>
      </trkpt>
      <trkpt lat="40.643327040597796" lon="-2.575506968423724">
        <ele>800.69000000000005</ele>
        <time>2026-04-25T09:53:37Z</time>
      </trkpt>
      <trkpt lat="40.643296027556062" lon="-2.575524989515543">
        <ele>800.46600000000001</ele>
        <time>2026-04-25T09:53:38Z</time>
      </trkpt>
      <trkpt lat="40.643259985372424" lon="-2.575536975637078">
        <ele>800.42899999999997</ele>
        <time>2026-04-25T09:53:39Z</time>
      </trkpt>
      <trkpt lat="40.643231989815831" lon="-2.575550973415375">
        <ele>800.42100000000005</ele>
        <time>2026-04-25T09:53:40Z</time>
      </trkpt>
      <trkpt lat="40.643201982602477" lon="-2.575565977022052">
        <ele>800.00900000000001</ele>
        <time>2026-04-25T09:53:41Z</time>
      </trkpt>
      <trkpt lat="40.643169963732362" lon="-2.575580980628729">
        <ele>800.07799999999997</ele>
        <time>2026-04-25T09:53:42Z</time>
      </trkpt>
      <trkpt lat="40.643138028681278" lon="-2.575592966750264">
        <ele>800.03200000000004</ele>
        <time>2026-04-25T09:53:43Z</time>
      </trkpt>
      <trkpt lat="40.643108021467924" lon="-2.575605036690831">
        <ele>800.08699999999999</ele>
        <time>2026-04-25T09:53:44Z</time>
      </trkpt>
      <trkpt lat="40.643081031739712" lon="-2.575615011155605">
        <ele>799.63699999999994</ele>
        <time>2026-04-25T09:53:45Z</time>
      </trkpt>
      <trkpt lat="40.643056975677609" lon="-2.575632026419044">
        <ele>799.86300000000006</ele>
        <time>2026-04-25T09:53:46Z</time>
      </trkpt>
      <trkpt lat="40.643029985949397" lon="-2.575649041682482">
        <ele>799.43499999999995</ele>
        <time>2026-04-25T09:53:47Z</time>
      </trkpt>
      <trkpt lat="40.643002996221185" lon="-2.575665973126888">
        <ele>799.26400000000001</ele>
        <time>2026-04-25T09:53:48Z</time>
      </trkpt>
      <trkpt lat="40.642978018149734" lon="-2.575679970905185">
        <ele>799.21500000000003</ele>
        <time>2026-04-25T09:53:49Z</time>
      </trkpt>
      <trkpt lat="40.642952034249902" lon="-2.575693968683481">
        <ele>799.23000000000002</ele>
        <time>2026-04-25T09:53:50Z</time>
      </trkpt>
      <trkpt lat="40.642924038693309" lon="-2.575707966461778">
        <ele>799.47400000000005</ele>
        <time>2026-04-25T09:53:51Z</time>
      </trkpt>
      <trkpt lat="40.642899982631207" lon="-2.575721964240074">
        <ele>799.25599999999997</ele>
        <time>2026-04-25T09:53:52Z</time>
      </trkpt>
      <trkpt lat="40.642881961539388" lon="-2.575733028352261">
        <ele>799.221</ele>
        <time>2026-04-25T09:53:53Z</time>
      </trkpt>
      <trkpt lat="40.642858995124698" lon="-2.575748031958938">
        <ele>799.60900000000004</ele>
        <time>2026-04-25T09:53:54Z</time>
      </trkpt>
      <trkpt lat="40.642839968204498" lon="-2.575773010030389">
        <ele>799.69899999999996</ele>
        <time>2026-04-25T09:53:55Z</time>
      </trkpt>
      <trkpt lat="40.642819013446569" lon="-2.575795976445079">
        <ele>799.62300000000005</ele>
        <time>2026-04-25T09:53:56Z</time>
      </trkpt>
      <trkpt lat="40.642772996798158" lon="-2.575834030285478">
        <ele>799.86800000000005</ele>
        <time>2026-04-25T09:53:58Z</time>
      </trkpt>
      <trkpt lat="40.642747012898326" lon="-2.575856996700168">
        <ele>799.46799999999996</ele>
        <time>2026-04-25T09:53:59Z</time>
      </trkpt>
      <trkpt lat="40.642723962664604" lon="-2.575876023620367">
        <ele>799.22400000000005</ele>
        <time>2026-04-25T09:54:00Z</time>
      </trkpt>
      <trkpt lat="40.64264802262187" lon="-2.575951041653752">
        <ele>799.44600000000003</ele>
        <time>2026-04-25T09:54:03Z</time>
      </trkpt>
      <trkpt lat="40.642585996538401" lon="-2.57603301666677">
        <ele>799.06500000000005</ele>
        <time>2026-04-25T09:54:06Z</time>
      </trkpt>
      <trkpt lat="40.64256202429533" lon="-2.576064029708505">
        <ele>798.81600000000003</ele>
        <time>2026-04-25T09:54:07Z</time>
      </trkpt>
      <trkpt lat="40.642486000433564" lon="-2.576172994449735">
        <ele>798.89099999999996</ele>
        <time>2026-04-25T09:54:11Z</time>
      </trkpt>
      <trkpt lat="40.642432020977139" lon="-2.576309032738209">
        <ele>798.82299999999998</ele>
        <time>2026-04-25T09:54:15Z</time>
      </trkpt>
      <trkpt lat="40.642408970743418" lon="-2.576385978609324">
        <ele>799.28300000000002</ele>
        <time>2026-04-25T09:54:17Z</time>
      </trkpt>
      <trkpt lat="40.642403019592166" lon="-2.576425038278103">
        <ele>798.81100000000004</ele>
        <time>2026-04-25T09:54:18Z</time>
      </trkpt>
      <trkpt lat="40.64239296130836" lon="-2.576517993584275">
        <ele>798.80899999999997</ele>
        <time>2026-04-25T09:54:20Z</time>
      </trkpt>
      <trkpt lat="40.642382986843586" lon="-2.576563004404306">
        <ele>798.41399999999999</ele>
        <time>2026-04-25T09:54:21Z</time>
      </trkpt>
      <trkpt lat="40.642375024035573" lon="-2.576606003567576">
        <ele>798.63800000000003</ele>
        <time>2026-04-25T09:54:22Z</time>
      </trkpt>
      <trkpt lat="40.64236999489367" lon="-2.576742963865399">
        <ele>798.68299999999999</ele>
        <time>2026-04-25T09:54:25Z</time>
      </trkpt>
      <trkpt lat="40.642363037914038" lon="-2.576874978840351">
        <ele>798.63300000000004</ele>
        <time>2026-04-25T09:54:28Z</time>
      </trkpt>
      <trkpt lat="40.642366977408528" lon="-2.577006993815303">
        <ele>798.65899999999999</ele>
        <time>2026-04-25T09:54:31Z</time>
      </trkpt>
      <trkpt lat="40.642378963530064" lon="-2.577083017677069">
        <ele>798.87099999999998</ele>
        <time>2026-04-25T09:54:33Z</time>
      </trkpt>
      <trkpt lat="40.642379969358444" lon="-2.577115958556533">
        <ele>798.69000000000005</ele>
        <time>2026-04-25T09:54:34Z</time>
      </trkpt>
      <trkpt lat="40.642364965751767" lon="-2.577192988246679">
        <ele>798.49099999999999</ele>
        <time>2026-04-25T09:54:37Z</time>
      </trkpt>
      <trkpt lat="40.642353985458612" lon="-2.577230036258698">
        <ele>798.67600000000004</ele>
        <time>2026-04-25T09:54:38Z</time>
      </trkpt>
      <trkpt lat="40.642348034307361" lon="-2.577271023765206">
        <ele>798.63699999999994</ele>
        <time>2026-04-25T09:54:39Z</time>
      </trkpt>
      <trkpt lat="40.642348034307361" lon="-2.577311005443335">
        <ele>798.84900000000005</ele>
        <time>2026-04-25T09:54:40Z</time>
      </trkpt>
      <trkpt lat="40.64234702847898" lon="-2.577355010434985">
        <ele>798.61300000000006</ele>
        <time>2026-04-25T09:54:41Z</time>
      </trkpt>
      <trkpt lat="40.642350967973471" lon="-2.57740898989141">
        <ele>798.40899999999999</ele>
        <time>2026-04-25T09:54:42Z</time>
      </trkpt>
      <trkpt lat="40.642354991286993" lon="-2.577452994883061">
        <ele>798.48500000000001</ele>
        <time>2026-04-25T09:54:43Z</time>
      </trkpt>
      <trkpt lat="40.642358008772135" lon="-2.577499011531472">
        <ele>798.46900000000005</ele>
        <time>2026-04-25T09:54:44Z</time>
      </trkpt>
      <trkpt lat="40.642358008772135" lon="-2.5775389932096">
        <ele>798.42399999999998</ele>
        <time>2026-04-25T09:54:45Z</time>
      </trkpt>
      <trkpt lat="40.642357002943754" lon="-2.577579980716109">
        <ele>798.48400000000004</ele>
        <time>2026-04-25T09:54:46Z</time>
      </trkpt>
      <trkpt lat="40.642353985458612" lon="-2.577619040384889">
        <ele>798.69000000000005</ele>
        <time>2026-04-25T09:54:47Z</time>
      </trkpt>
      <trkpt lat="40.642348034307361" lon="-2.577657010406256">
        <ele>798.67200000000003</ele>
        <time>2026-04-25T09:54:48Z</time>
      </trkpt>
      <trkpt lat="40.642335964366794" lon="-2.577692968770862">
        <ele>798.64099999999996</ele>
        <time>2026-04-25T09:54:49Z</time>
      </trkpt>
      <trkpt lat="40.6423269957304" lon="-2.577729010954499">
        <ele>798.41200000000003</ele>
        <time>2026-04-25T09:54:50Z</time>
      </trkpt>
      <trkpt lat="40.642320038750768" lon="-2.577766980975866">
        <ele>798.27700000000004</ele>
        <time>2026-04-25T09:54:51Z</time>
      </trkpt>
      <trkpt lat="40.642310986295342" lon="-2.577806040644646">
        <ele>798.27599999999995</ele>
        <time>2026-04-25T09:54:52Z</time>
      </trkpt>
      <trkpt lat="40.642306040972471" lon="-2.577846022322774">
        <ele>798.09000000000003</ele>
        <time>2026-04-25T09:54:53Z</time>
      </trkpt>
      <trkpt lat="40.642297994345427" lon="-2.577887009829283">
        <ele>798.21900000000005</ele>
        <time>2026-04-25T09:54:54Z</time>
      </trkpt>
      <trkpt lat="40.642290031537414" lon="-2.577926991507411">
        <ele>798.40899999999999</ele>
        <time>2026-04-25T09:54:55Z</time>
      </trkpt>
      <trkpt lat="40.642279973253608" lon="-2.577965967357159">
        <ele>798.66899999999998</ele>
        <time>2026-04-25T09:54:56Z</time>
      </trkpt>
      <trkpt lat="40.642271004617214" lon="-2.578003015369177">
        <ele>798.63300000000004</ele>
        <time>2026-04-25T09:54:57Z</time>
      </trkpt>
      <trkpt lat="40.64226103015244" lon="-2.578040985390544">
        <ele>798.62800000000004</ele>
        <time>2026-04-25T09:54:58Z</time>
      </trkpt>
      <trkpt lat="40.642251977697015" lon="-2.578079039230943">
        <ele>798.47799999999995</ele>
        <time>2026-04-25T09:54:59Z</time>
      </trkpt>
      <trkpt lat="40.642242003232241" lon="-2.578116003423929">
        <ele>798.23400000000004</ele>
        <time>2026-04-25T09:55:00Z</time>
      </trkpt>
      <trkpt lat="40.642233034595847" lon="-2.578151039779186">
        <ele>798.48599999999999</ele>
        <time>2026-04-25T09:55:01Z</time>
      </trkpt>
      <trkpt lat="40.642221970483661" lon="-2.57818398065865">
        <ele>798.27499999999998</ele>
        <time>2026-04-25T09:55:02Z</time>
      </trkpt>
      <trkpt lat="40.642208978533745" lon="-2.578217005357146">
        <ele>798.45600000000002</ele>
        <time>2026-04-25T09:55:03Z</time>
      </trkpt>
      <trkpt lat="40.642199004068971" lon="-2.578250030055642">
        <ele>798.28099999999995</ele>
        <time>2026-04-25T09:55:04Z</time>
      </trkpt>
      <trkpt lat="40.642188023775816" lon="-2.578281965106726">
        <ele>798.42100000000005</ele>
        <time>2026-04-25T09:55:05Z</time>
      </trkpt>
      <trkpt lat="40.64217796549201" lon="-2.578320018947125">
        <ele>798.44100000000003</ele>
        <time>2026-04-25T09:55:06Z</time>
      </trkpt>
      <trkpt lat="40.642165979370475" lon="-2.578356983140111">
        <ele>798.40499999999997</ele>
        <time>2026-04-25T09:55:07Z</time>
      </trkpt>
      <trkpt lat="40.64215499907732" lon="-2.578393025323749">
        <ele>798.40899999999999</ele>
        <time>2026-04-25T09:55:08Z</time>
      </trkpt>
      <trkpt lat="40.642147036269307" lon="-2.578423032537103">
        <ele>798.49400000000003</ele>
        <time>2026-04-25T09:55:09Z</time>
      </trkpt>
      <trkpt lat="40.642138989642262" lon="-2.578455973416567">
        <ele>798.81799999999998</ele>
        <time>2026-04-25T09:55:10Z</time>
      </trkpt>
      <trkpt lat="40.64213203266263" lon="-2.578490003943443">
        <ele>798.69299999999998</ele>
        <time>2026-04-25T09:55:11Z</time>
      </trkpt>
      <trkpt lat="40.642122980207205" lon="-2.57852403447032">
        <ele>798.82299999999998</ele>
        <time>2026-04-25T09:55:12Z</time>
      </trkpt>
      <trkpt lat="40.642116023227572" lon="-2.578563010320067">
        <ele>798.87900000000002</ele>
        <time>2026-04-25T09:55:13Z</time>
      </trkpt>
      <trkpt lat="40.64211199991405" lon="-2.578598968684673">
        <ele>798.84100000000001</ele>
        <time>2026-04-25T09:55:14Z</time>
      </trkpt>
      <trkpt lat="40.642105964943767" lon="-2.578640040010214">
        <ele>798.86000000000001</ele>
        <time>2026-04-25T09:55:15Z</time>
      </trkpt>
      <trkpt lat="40.642098002135754" lon="-2.5786770042032">
        <ele>798.851</ele>
        <time>2026-04-25T09:55:16Z</time>
      </trkpt>
      <trkpt lat="40.642088027670979" lon="-2.578711034730077">
        <ele>799.01599999999996</ele>
        <time>2026-04-25T09:55:17Z</time>
      </trkpt>
      <trkpt lat="40.642075035721064" lon="-2.578743975609541">
        <ele>798.89400000000001</ele>
        <time>2026-04-25T09:55:18Z</time>
      </trkpt>
      <trkpt lat="40.642058020457625" lon="-2.578774988651276">
        <ele>798.85699999999997</ele>
        <time>2026-04-25T09:55:19Z</time>
      </trkpt>
      <trkpt lat="40.642043016850948" lon="-2.578807007521391">
        <ele>798.62199999999996</ele>
        <time>2026-04-25T09:55:20Z</time>
      </trkpt>
      <trkpt lat="40.642029019072652" lon="-2.578839026391506">
        <ele>798.60900000000004</ele>
        <time>2026-04-25T09:55:21Z</time>
      </trkpt>
      <trkpt lat="40.642016027122736" lon="-2.57887196727097">
        <ele>798.69100000000003</ele>
        <time>2026-04-25T09:55:22Z</time>
      </trkpt>
      <trkpt lat="40.64200202934444" lon="-2.578902980312705">
        <ele>798.44500000000005</ele>
        <time>2026-04-25T09:55:23Z</time>
      </trkpt>
      <trkpt lat="40.641988031566143" lon="-2.578939022496343">
        <ele>798.61000000000001</ele>
        <time>2026-04-25T09:55:24Z</time>
      </trkpt>
      <trkpt lat="40.641975961625576" lon="-2.578974980860949">
        <ele>798.63999999999999</ele>
        <time>2026-04-25T09:55:25Z</time>
      </trkpt>
      <trkpt lat="40.641961041837931" lon="-2.579009011387825">
        <ele>798.42600000000004</ele>
        <time>2026-04-25T09:55:26Z</time>
      </trkpt>
      <trkpt lat="40.641948971897364" lon="-2.579044969752431">
        <ele>798.48800000000006</ele>
        <time>2026-04-25T09:55:27Z</time>
      </trkpt>
      <trkpt lat="40.641936985775828" lon="-2.579082017764449">
        <ele>798.28700000000003</ele>
        <time>2026-04-25T09:55:28Z</time>
      </trkpt>
      <trkpt lat="40.641922987997532" lon="-2.579116970300674">
        <ele>798.07799999999997</ele>
        <time>2026-04-25T09:55:29Z</time>
      </trkpt>
      <trkpt lat="40.641906978562474" lon="-2.579151000827551">
        <ele>797.89300000000003</ele>
        <time>2026-04-25T09:55:30Z</time>
      </trkpt>
      <trkpt lat="40.641889041289687" lon="-2.579183019697666">
        <ele>797.69500000000005</ele>
        <time>2026-04-25T09:55:31Z</time>
      </trkpt>
      <trkpt lat="40.64187403768301" lon="-2.579210009425879">
        <ele>797.44899999999996</ele>
        <time>2026-04-25T09:55:32Z</time>
      </trkpt>
      <trkpt lat="40.641856016591191" lon="-2.579243034124374">
        <ele>797.423</ele>
        <time>2026-04-25T09:55:33Z</time>
      </trkpt>
      <trkpt lat="40.641840007156134" lon="-2.579274969175458">
        <ele>797.40899999999999</ele>
        <time>2026-04-25T09:55:34Z</time>
      </trkpt>
      <trkpt lat="40.641826009377837" lon="-2.579306988045573">
        <ele>797.23099999999999</ele>
        <time>2026-04-25T09:55:35Z</time>
      </trkpt>
      <trkpt lat="40.641807988286018" lon="-2.579336995258927">
        <ele>797.21500000000003</ele>
        <time>2026-04-25T09:55:36Z</time>
      </trkpt>
      <trkpt lat="40.641791978850961" lon="-2.579368008300662">
        <ele>796.84000000000003</ele>
        <time>2026-04-25T09:55:37Z</time>
      </trkpt>
      <trkpt lat="40.641773035749793" lon="-2.579396003857255">
        <ele>796.42999999999995</ele>
        <time>2026-04-25T09:55:38Z</time>
      </trkpt>
      <trkpt lat="40.641756020486355" lon="-2.579425005242229">
        <ele>796.68600000000004</ele>
        <time>2026-04-25T09:55:39Z</time>
      </trkpt>
      <trkpt lat="40.641740011051297" lon="-2.57945098914206">
        <ele>796.68799999999999</ele>
        <time>2026-04-25T09:55:40Z</time>
      </trkpt>
      <trkpt lat="40.641719978302717" lon="-2.579476973041892">
        <ele>796.41700000000003</ele>
        <time>2026-04-25T09:55:41Z</time>
      </trkpt>
      <trkpt lat="40.64170204102993" lon="-2.579503962770104">
        <ele>796.25800000000004</ele>
        <time>2026-04-25T09:55:42Z</time>
      </trkpt>
      <trkpt lat="40.64168200828135" lon="-2.579530030488968">
        <ele>796.053</ele>
        <time>2026-04-25T09:55:43Z</time>
      </trkpt>
      <trkpt lat="40.64166197553277" lon="-2.579555008560419">
        <ele>795.64400000000001</ele>
        <time>2026-04-25T09:55:44Z</time>
      </trkpt>
      <trkpt lat="40.641644038259983" lon="-2.579576969146729">
        <ele>795.40499999999997</ele>
        <time>2026-04-25T09:55:45Z</time>
      </trkpt>
      <trkpt lat="40.641624005511403" lon="-2.579597001895309">
        <ele>795.41499999999996</ele>
        <time>2026-04-25T09:55:46Z</time>
      </trkpt>
      <trkpt lat="40.641603972762823" lon="-2.579620974138379">
        <ele>795.20899999999995</ele>
        <time>2026-04-25T09:55:47Z</time>
      </trkpt>
      <trkpt lat="40.641583018004894" lon="-2.579647041857243">
        <ele>795.21600000000001</ele>
        <time>2026-04-25T09:55:48Z</time>
      </trkpt>
      <trkpt lat="40.641564996913075" lon="-2.579676965251565">
        <ele>795.21000000000004</ele>
        <time>2026-04-25T09:55:49Z</time>
      </trkpt>
      <trkpt lat="40.641548987478018" lon="-2.579704038798809">
        <ele>794.83500000000004</ele>
        <time>2026-04-25T09:55:50Z</time>
      </trkpt>
      <trkpt lat="40.64153197221458" lon="-2.579724993556738">
        <ele>794.61500000000001</ele>
        <time>2026-04-25T09:55:51Z</time>
      </trkpt>
      <trkpt lat="40.641518980264664" lon="-2.579747959971428">
        <ele>794.45100000000002</ele>
        <time>2026-04-25T09:55:52Z</time>
      </trkpt>
      <trkpt lat="40.641502970829606" lon="-2.579773021861911">
        <ele>794.423</ele>
        <time>2026-04-25T09:55:53Z</time>
      </trkpt>
      <trkpt lat="40.641485033556819" lon="-2.579802023246884">
        <ele>794.66200000000003</ele>
        <time>2026-04-25T09:55:54Z</time>
      </trkpt>
      <trkpt lat="40.641430970281363" lon="-2.579931020736694">
        <ele>793.81299999999999</ele>
        <time>2026-04-25T09:55:58Z</time>
      </trkpt>
      <trkpt lat="40.641418984159827" lon="-2.57996597327292">
        <ele>793.82799999999997</ele>
        <time>2026-04-25T09:55:59Z</time>
      </trkpt>
      <trkpt lat="40.641396017745137" lon="-2.580086002126336">
        <ele>793.63300000000004</ele>
        <time>2026-04-25T09:56:02Z</time>
      </trkpt>
      <trkpt lat="40.641391994431615" lon="-2.580125983804464">
        <ele>793.62300000000005</ele>
        <time>2026-04-25T09:56:03Z</time>
      </trkpt>
      <trkpt lat="40.641387971118093" lon="-2.580161020159721">
        <ele>793.61500000000001</ele>
        <time>2026-04-25T09:56:04Z</time>
      </trkpt>
      <trkpt lat="40.641384031623602" lon="-2.580196978524327">
        <ele>793.60900000000004</ele>
        <time>2026-04-25T09:56:05Z</time>
      </trkpt>
      <trkpt lat="40.641377996653318" lon="-2.58022497408092">
        <ele>793.89499999999998</ele>
        <time>2026-04-25T09:56:06Z</time>
      </trkpt>
      <trkpt lat="40.641375984996557" lon="-2.58026503957808">
        <ele>793.61900000000003</ele>
        <time>2026-04-25T09:56:09Z</time>
      </trkpt>
      <trkpt lat="40.641371961683035" lon="-2.58028800599277">
        <ele>793.69399999999996</ele>
        <time>2026-04-25T09:56:10Z</time>
      </trkpt>
      <trkpt lat="40.641355030238628" lon="-2.580325976014137">
        <ele>793.63400000000001</ele>
        <time>2026-04-25T09:56:11Z</time>
      </trkpt>
      <trkpt lat="40.641342960298061" lon="-2.580355983227491">
        <ele>793.44000000000005</ele>
        <time>2026-04-25T09:56:12Z</time>
      </trkpt>
      <trkpt lat="40.641329968348145" lon="-2.580380961298943">
        <ele>793.49199999999996</ele>
        <time>2026-04-25T09:56:13Z</time>
      </trkpt>
      <trkpt lat="40.641323011368513" lon="-2.580405017361045">
        <ele>793.64099999999996</ele>
        <time>2026-04-25T09:56:14Z</time>
      </trkpt>
      <trkpt lat="40.64131798222661" lon="-2.580432007089257">
        <ele>793.61199999999997</ele>
        <time>2026-04-25T09:56:15Z</time>
      </trkpt>
      <trkpt lat="40.641283029690385" lon="-2.580556981265545">
        <ele>793.697</ele>
        <time>2026-04-25T09:56:19Z</time>
      </trkpt>
      <trkpt lat="40.641261991113424" lon="-2.580690002068877">
        <ele>793.46699999999998</ele>
        <time>2026-04-25T09:56:23Z</time>
      </trkpt>
      <trkpt lat="40.641236007213593" lon="-2.580834003165364">
        <ele>793.48099999999999</ele>
        <time>2026-04-25T09:56:27Z</time>
      </trkpt>
      <trkpt lat="40.641222009435296" lon="-2.580913966521621">
        <ele>793.61900000000003</ele>
        <time>2026-04-25T09:56:29Z</time>
      </trkpt>
      <trkpt lat="40.641223015263677" lon="-2.580958977341652">
        <ele>793.60900000000004</ele>
        <time>2026-04-25T09:56:30Z</time>
      </trkpt>
      <trkpt lat="40.641237013041973" lon="-2.581090992316604">
        <ele>794.03800000000001</ele>
        <time>2026-04-25T09:56:33Z</time>
      </trkpt>
      <trkpt lat="40.641254028305411" lon="-2.581209009513259">
        <ele>794.44200000000001</ele>
        <time>2026-04-25T09:56:36Z</time>
      </trkpt>
      <trkpt lat="40.641288980841637" lon="-2.5812759809196">
        <ele>794.66700000000003</ele>
        <time>2026-04-25T09:56:41Z</time>
      </trkpt>
      <trkpt lat="40.64131697639823" lon="-2.58131898008287">
        <ele>795.05700000000002</ele>
        <time>2026-04-25T09:56:43Z</time>
      </trkpt>
      <trkpt lat="40.641327034682035" lon="-2.581343958154321">
        <ele>795.24300000000005</ele>
        <time>2026-04-25T09:56:44Z</time>
      </trkpt>
      <trkpt lat="40.641328040510416" lon="-2.581372959539294">
        <ele>795.22500000000002</ele>
        <time>2026-04-25T09:56:45Z</time>
      </trkpt>
      <trkpt lat="40.641331980004907" lon="-2.581440014764667">
        <ele>795.62400000000002</ele>
        <time>2026-04-25T09:56:47Z</time>
      </trkpt>
      <trkpt lat="40.641330974176526" lon="-2.581473961472511">
        <ele>795.67499999999995</ele>
        <time>2026-04-25T09:56:48Z</time>
      </trkpt>
      <trkpt lat="40.641327034682035" lon="-2.581502962857485">
        <ele>795.65999999999997</ele>
        <time>2026-04-25T09:56:49Z</time>
      </trkpt>
      <trkpt lat="40.641320999711752" lon="-2.581531964242458">
        <ele>795.47900000000004</ele>
        <time>2026-04-25T09:56:50Z</time>
      </trkpt>
      <trkpt lat="40.641313036903739" lon="-2.581562977284193">
        <ele>795.80499999999995</ele>
        <time>2026-04-25T09:56:51Z</time>
      </trkpt>
      <trkpt lat="40.641303984448314" lon="-2.581589967012405">
        <ele>795.82500000000005</ele>
        <time>2026-04-25T09:56:52Z</time>
      </trkpt>
      <trkpt lat="40.641299961134791" lon="-2.581615028902888">
        <ele>795.80899999999997</ele>
        <time>2026-04-25T09:56:53Z</time>
      </trkpt>
      <trkpt lat="40.64129501581192" lon="-2.58164000697434">
        <ele>795.81899999999996</ele>
        <time>2026-04-25T09:56:54Z</time>
      </trkpt>
      <trkpt lat="40.641291998326778" lon="-2.581664985045791">
        <ele>795.61300000000006</ele>
        <time>2026-04-25T09:56:55Z</time>
      </trkpt>
      <trkpt lat="40.641285963356495" lon="-2.581691974774003">
        <ele>795.82799999999997</ele>
        <time>2026-04-25T09:56:56Z</time>
      </trkpt>
      <trkpt lat="40.641283029690385" lon="-2.581723993644118">
        <ele>795.88800000000003</ele>
        <time>2026-04-25T09:56:57Z</time>
      </trkpt>
      <trkpt lat="40.641275988891721" lon="-2.581756012514234">
        <ele>796.23400000000004</ele>
        <time>2026-04-25T09:56:58Z</time>
      </trkpt>
      <trkpt lat="40.641271965578198" lon="-2.581795994192362">
        <ele>796.26599999999996</ele>
        <time>2026-04-25T09:56:59Z</time>
      </trkpt>
      <trkpt lat="40.64127498306334" lon="-2.581837987527251">
        <ele>796.07500000000005</ele>
        <time>2026-04-25T09:57:00Z</time>
      </trkpt>
      <trkpt lat="40.641276994720101" lon="-2.581879980862141">
        <ele>796.03599999999994</ele>
        <time>2026-04-25T09:57:01Z</time>
      </trkpt>
      <trkpt lat="40.641276994720101" lon="-2.581922980025411">
        <ele>795.87099999999998</ele>
        <time>2026-04-25T09:57:02Z</time>
      </trkpt>
      <trkpt lat="40.641280012205243" lon="-2.581967990845442">
        <ele>795.875</ele>
        <time>2026-04-25T09:57:03Z</time>
      </trkpt>
      <trkpt lat="40.641283029690385" lon="-2.582011995837092">
        <ele>795.82799999999997</ele>
        <time>2026-04-25T09:57:04Z</time>
      </trkpt>
      <trkpt lat="40.641285963356495" lon="-2.582054995000362">
        <ele>796.01999999999998</ele>
        <time>2026-04-25T09:57:05Z</time>
      </trkpt>
      <trkpt lat="40.641290992498398" lon="-2.582094976678491">
        <ele>795.80899999999997</ele>
        <time>2026-04-25T09:57:06Z</time>
      </trkpt>
      <trkpt lat="40.641297027468681" lon="-2.58213403634727">
        <ele>795.86900000000003</ele>
        <time>2026-04-25T09:57:07Z</time>
      </trkpt>
      <trkpt lat="40.641300966963172" lon="-2.582172006368637">
        <ele>796.053</ele>
        <time>2026-04-25T09:57:08Z</time>
      </trkpt>
      <trkpt lat="40.641305996105075" lon="-2.582208970561624">
        <ele>795.84799999999996</ele>
        <time>2026-04-25T09:57:09Z</time>
      </trkpt>
      <trkpt lat="40.641308007761836" lon="-2.582247024402022">
        <ele>796.09799999999996</ele>
        <time>2026-04-25T09:57:10Z</time>
      </trkpt>
      <trkpt lat="40.641305996105075" lon="-2.582280971109867">
        <ele>796.024</ele>
        <time>2026-04-25T09:57:11Z</time>
      </trkpt>
      <trkpt lat="40.641301972791553" lon="-2.582321958616376">
        <ele>796.43600000000004</ele>
        <time>2026-04-25T09:57:12Z</time>
      </trkpt>
      <trkpt lat="40.641297027468681" lon="-2.582358000800014">
        <ele>796.255</ele>
        <time>2026-04-25T09:57:13Z</time>
      </trkpt>
      <trkpt lat="40.641287975013256" lon="-2.582393959164619">
        <ele>796.45600000000002</ele>
        <time>2026-04-25T09:57:14Z</time>
      </trkpt>
      <trkpt lat="40.641278000548482" lon="-2.582422960549593">
        <ele>796.61099999999999</ele>
        <time>2026-04-25T09:57:15Z</time>
      </trkpt>
      <trkpt lat="40.641266014426947" lon="-2.582448022440076">
        <ele>796.44799999999998</ele>
        <time>2026-04-25T09:57:16Z</time>
      </trkpt>
      <trkpt lat="40.641253022477031" lon="-2.582468977198005">
        <ele>796.26099999999997</ele>
        <time>2026-04-25T09:57:18Z</time>
      </trkpt>
      <trkpt lat="40.641227960586548" lon="-2.58252396248281">
        <ele>796.41700000000003</ele>
        <time>2026-04-25T09:57:20Z</time>
      </trkpt>
      <trkpt lat="40.641207005828619" lon="-2.582555981352925">
        <ele>796.20899999999995</ele>
        <time>2026-04-25T09:57:21Z</time>
      </trkpt>
      <trkpt lat="40.64118797890842" lon="-2.582583976909518">
        <ele>796.07600000000002</ele>
        <time>2026-04-25T09:57:22Z</time>
      </trkpt>
      <trkpt lat="40.641168029978871" lon="-2.582611972466111">
        <ele>796.21000000000004</ele>
        <time>2026-04-25T09:57:23Z</time>
      </trkpt>
      <trkpt lat="40.64114598557353" lon="-2.582638040184975">
        <ele>796.23500000000001</ele>
        <time>2026-04-25T09:57:24Z</time>
      </trkpt>
      <trkpt lat="40.64112301915884" lon="-2.582658994942904">
        <ele>796.06500000000005</ele>
        <time>2026-04-25T09:57:25Z</time>
      </trkpt>
      <trkpt lat="40.641099968925118" lon="-2.582680033519864">
        <ele>796.05100000000004</ele>
        <time>2026-04-25T09:57:26Z</time>
      </trkpt>
      <trkpt lat="40.641077002510428" lon="-2.582702999934554">
        <ele>795.84299999999996</ele>
        <time>2026-04-25T09:57:27Z</time>
      </trkpt>
      <trkpt lat="40.641051018610597" lon="-2.582729989662767">
        <ele>795.66200000000003</ele>
        <time>2026-04-25T09:57:28Z</time>
      </trkpt>
      <trkpt lat="40.641026962548494" lon="-2.582757985219359">
        <ele>795.44299999999998</ele>
        <time>2026-04-25T09:57:29Z</time>
      </trkpt>
      <trkpt lat="40.641003996133804" lon="-2.582791009917855">
        <ele>795.48800000000006</ele>
        <time>2026-04-25T09:57:30Z</time>
      </trkpt>
      <trkpt lat="40.640991004183888" lon="-2.582826968282461">
        <ele>795.05499999999995</ele>
        <time>2026-04-25T09:57:31Z</time>
      </trkpt>
      <trkpt lat="40.640981029719114" lon="-2.58286502212286">
        <ele>794.80700000000002</ele>
        <time>2026-04-25T09:57:32Z</time>
      </trkpt>
      <trkpt lat="40.640974994748831" lon="-2.582905003800988">
        <ele>794.61699999999996</ele>
        <time>2026-04-25T09:57:33Z</time>
      </trkpt>
      <trkpt lat="40.640963008627295" lon="-2.582940962165594">
        <ele>794.40899999999999</ele>
        <time>2026-04-25T09:57:34Z</time>
      </trkpt>
      <trkpt lat="40.640949010848999" lon="-2.582979016005993">
        <ele>794.46699999999998</ele>
        <time>2026-04-25T09:57:35Z</time>
      </trkpt>
      <trkpt lat="40.640931995585561" lon="-2.583013968542218">
        <ele>794.221</ele>
        <time>2026-04-25T09:57:36Z</time>
      </trkpt>
      <trkpt lat="40.640913974493742" lon="-2.583049004897475">
        <ele>794.226</ele>
        <time>2026-04-25T09:57:37Z</time>
      </trkpt>
      <trkpt lat="40.640896037220955" lon="-2.583081023767591">
        <ele>794.06600000000003</ele>
        <time>2026-04-25T09:57:38Z</time>
      </trkpt>
      <trkpt lat="40.640873992815614" lon="-2.583112958818674">
        <ele>793.61199999999997</ele>
        <time>2026-04-25T09:57:39Z</time>
      </trkpt>
      <trkpt lat="40.640853038057685" lon="-2.58314598351717">
        <ele>793.42399999999998</ele>
        <time>2026-04-25T09:57:40Z</time>
      </trkpt>
      <trkpt lat="40.640829987823963" lon="-2.583176996558905">
        <ele>793.24300000000005</ele>
        <time>2026-04-25T09:57:41Z</time>
      </trkpt>
      <trkpt lat="40.640809033066034" lon="-2.583210021257401">
        <ele>793.21400000000006</ele>
        <time>2026-04-25T09:57:42Z</time>
      </trkpt>
      <trkpt lat="40.640789000317454" lon="-2.583245979622006">
        <ele>793.29899999999998</ele>
        <time>2026-04-25T09:57:43Z</time>
      </trkpt>
      <trkpt lat="40.640771985054016" lon="-2.583285039290786">
        <ele>792.85199999999998</ele>
        <time>2026-04-25T09:57:44Z</time>
      </trkpt>
      <trkpt lat="40.64075798727572" lon="-2.583325020968914">
        <ele>792.45299999999997</ele>
        <time>2026-04-25T09:57:45Z</time>
      </trkpt>
      <trkpt lat="40.640747006982565" lon="-2.583366008475423">
        <ele>792.00800000000004</ele>
        <time>2026-04-25T09:57:46Z</time>
      </trkpt>
      <trkpt lat="40.64073896035552" lon="-2.583405990153551">
        <ele>791.80899999999997</ele>
        <time>2026-04-25T09:57:47Z</time>
      </trkpt>
      <trkpt lat="40.640732003375888" lon="-2.583445971831679">
        <ele>791.64700000000005</ele>
        <time>2026-04-25T09:57:48Z</time>
      </trkpt>
      <trkpt lat="40.640729991719127" lon="-2.583487965166569">
        <ele>791.44100000000003</ele>
        <time>2026-04-25T09:57:49Z</time>
      </trkpt>
      <trkpt lat="40.640727980062366" lon="-2.583527024835348">
        <ele>791.226</ele>
        <time>2026-04-25T09:57:50Z</time>
      </trkpt>
      <trkpt lat="40.640729991719127" lon="-2.583569018170238">
        <ele>791.28599999999994</ele>
        <time>2026-04-25T09:57:51Z</time>
      </trkpt>
      <trkpt lat="40.640733009204268" lon="-2.583610005676746">
        <ele>791.26199999999994</ele>
        <time>2026-04-25T09:57:52Z</time>
      </trkpt>
      <trkpt lat="40.640734015032649" lon="-2.583651999011636">
        <ele>791.08399999999995</ele>
        <time>2026-04-25T09:57:53Z</time>
      </trkpt>
      <trkpt lat="40.64073502086103" lon="-2.583692986518145">
        <ele>790.46299999999997</ele>
        <time>2026-04-25T09:57:54Z</time>
      </trkpt>
      <trkpt lat="40.640734015032649" lon="-2.583731040358543">
        <ele>790.26400000000001</ele>
        <time>2026-04-25T09:57:55Z</time>
      </trkpt>
      <trkpt lat="40.640734015032649" lon="-2.58376800455153">
        <ele>790.22900000000004</ele>
        <time>2026-04-25T09:57:56Z</time>
      </trkpt>
      <trkpt lat="40.640734015032649" lon="-2.583802035078406">
        <ele>790.22799999999995</ele>
        <time>2026-04-25T09:57:57Z</time>
      </trkpt>
      <trkpt lat="40.640729991719127" lon="-2.58383397012949">
        <ele>790.28899999999999</ele>
        <time>2026-04-25T09:57:58Z</time>
      </trkpt>
      <trkpt lat="40.640728985890746" lon="-2.583872023969889">
        <ele>790.21699999999998</ele>
        <time>2026-04-25T09:57:59Z</time>
      </trkpt>
      <trkpt lat="40.640724040567875" lon="-2.583905970677733">
        <ele>790.40899999999999</ele>
        <time>2026-04-25T09:58:00Z</time>
      </trkpt>
      <trkpt lat="40.640723034739494" lon="-2.583946036174893">
        <ele>790.29399999999998</ele>
        <time>2026-04-25T09:58:01Z</time>
      </trkpt>
      <trkpt lat="40.640720017254353" lon="-2.583981994539499">
        <ele>790.26800000000003</ele>
        <time>2026-04-25T09:58:02Z</time>
      </trkpt>
      <trkpt lat="40.640716999769211" lon="-2.584019964560866">
        <ele>790.25300000000004</ele>
        <time>2026-04-25T09:58:03Z</time>
      </trkpt>
      <trkpt lat="40.640712976455688" lon="-2.584056006744504">
        <ele>790.29300000000001</ele>
        <time>2026-04-25T09:58:04Z</time>
      </trkpt>
      <trkpt lat="40.640706019476056" lon="-2.584093976765871">
        <ele>790.46900000000005</ele>
        <time>2026-04-25T09:58:05Z</time>
      </trkpt>
      <trkpt lat="40.64069596119225" lon="-2.584128007292748">
        <ele>790.41099999999994</ele>
        <time>2026-04-25T09:58:06Z</time>
      </trkpt>
      <trkpt lat="40.640682969242334" lon="-2.584159020334482">
        <ele>790.62</ele>
        <time>2026-04-25T09:58:07Z</time>
      </trkpt>
      <trkpt lat="40.640665031969547" lon="-2.584191039204598">
        <ele>790.89099999999996</ele>
        <time>2026-04-25T09:58:08Z</time>
      </trkpt>
      <trkpt lat="40.640647010877728" lon="-2.584221968427301">
        <ele>790.64599999999996</ele>
        <time>2026-04-25T09:58:09Z</time>
      </trkpt>
      <trkpt lat="40.640626978129148" lon="-2.584249963983893">
        <ele>790.68700000000001</ele>
        <time>2026-04-25T09:58:10Z</time>
      </trkpt>
      <trkpt lat="40.64060996286571" lon="-2.584282988682389">
        <ele>790.64200000000005</ele>
        <time>2026-04-25T09:58:11Z</time>
      </trkpt>
      <trkpt lat="40.640592025592923" lon="-2.584312995895743">
        <ele>790.62599999999998</ele>
        <time>2026-04-25T09:58:12Z</time>
      </trkpt>
      <trkpt lat="40.640572998672724" lon="-2.584346020594239">
        <ele>790.60900000000004</ele>
        <time>2026-04-25T09:58:13Z</time>
      </trkpt>
      <trkpt lat="40.640556989237666" lon="-2.584379967302084">
        <ele>790.66999999999996</ele>
        <time>2026-04-25T09:58:14Z</time>
      </trkpt>
      <trkpt lat="40.640540979802608" lon="-2.58441399782896">
        <ele>790.68399999999997</ele>
        <time>2026-04-25T09:58:15Z</time>
      </trkpt>
      <trkpt lat="40.640528993681073" lon="-2.584448028355837">
        <ele>790.65899999999999</ele>
        <time>2026-04-25T09:58:16Z</time>
      </trkpt>
      <trkpt lat="40.640504015609622" lon="-2.584521034732461">
        <ele>790.25900000000001</ele>
        <time>2026-04-25T09:58:18Z</time>
      </trkpt>
      <trkpt lat="40.640490017831326" lon="-2.584552969783545">
        <ele>790.23500000000001</ele>
        <time>2026-04-25T09:58:19Z</time>
      </trkpt>
      <trkpt lat="40.640473002567887" lon="-2.584609966725111">
        <ele>790.26700000000005</ele>
        <time>2026-04-25T09:58:21Z</time>
      </trkpt>
      <trkpt lat="40.640455987304449" lon="-2.584727983921766">
        <ele>789.63599999999997</ele>
        <time>2026-04-25T09:58:29Z</time>
      </trkpt>
      <trkpt lat="40.640487000346184" lon="-2.584738964214921">
        <ele>789.68700000000001</ele>
        <time>2026-04-25T09:58:39Z</time>
      </trkpt>
      <trkpt lat="40.640465961769223" lon="-2.584774000570178">
        <ele>789.87199999999996</ele>
        <time>2026-04-25T09:58:41Z</time>
      </trkpt>
      <trkpt lat="40.640450036153197" lon="-2.584804007783532">
        <ele>789.41800000000001</ele>
        <time>2026-04-25T09:58:42Z</time>
      </trkpt>
      <trkpt lat="40.640432015061378" lon="-2.584840971976519">
        <ele>789.69799999999998</ele>
        <time>2026-04-25T09:58:43Z</time>
      </trkpt>
      <trkpt lat="40.640412988141179" lon="-2.584876008331776">
        <ele>789.41700000000003</ele>
        <time>2026-04-25T09:58:44Z</time>
      </trkpt>
      <trkpt lat="40.640393039211631" lon="-2.584915990009904">
        <ele>789.60900000000004</ele>
        <time>2026-04-25T09:58:45Z</time>
      </trkpt>
      <trkpt lat="40.640375018119812" lon="-2.584951026365161">
        <ele>789.69299999999998</ele>
        <time>2026-04-25T09:58:46Z</time>
      </trkpt>
      <trkpt lat="40.640361020341516" lon="-2.584994025528431">
        <ele>789.66700000000003</ele>
        <time>2026-04-25T09:58:47Z</time>
      </trkpt>
      <trkpt lat="40.640347022563219" lon="-2.585034007206559">
        <ele>789.62199999999996</ele>
        <time>2026-04-25T09:58:48Z</time>
      </trkpt>
      <trkpt lat="40.640334030613303" lon="-2.585076000541449">
        <ele>789.66200000000003</ele>
        <time>2026-04-25T09:58:49Z</time>
      </trkpt>
      <trkpt lat="40.640322966501117" lon="-2.585112964734435">
        <ele>789.25800000000004</ele>
        <time>2026-04-25T09:58:50Z</time>
      </trkpt>
      <trkpt lat="40.640309974551201" lon="-2.58514498360455">
        <ele>789.08000000000004</ele>
        <time>2026-04-25T09:58:51Z</time>
      </trkpt>
      <trkpt lat="40.640294970944524" lon="-2.585182031616569">
        <ele>789.24900000000002</ele>
        <time>2026-04-25T09:58:52Z</time>
      </trkpt>
      <trkpt lat="40.640280973166227" lon="-2.585220001637936">
        <ele>789.09000000000003</ele>
        <time>2026-04-25T09:58:53Z</time>
      </trkpt>
      <trkpt lat="40.6402219645679" lon="-2.585344975814223">
        <ele>789.245</ele>
        <time>2026-04-25T09:58:56Z</time>
      </trkpt>
      <trkpt lat="40.640169996768236" lon="-2.585457041859627">
        <ele>788.423</ele>
        <time>2026-04-25T09:58:59Z</time>
      </trkpt>
      <trkpt lat="40.640134960412979" lon="-2.585609005764127">
        <ele>788.28300000000002</ele>
        <time>2026-04-25T09:59:02Z</time>
      </trkpt>
      <trkpt lat="40.64013403840363" lon="-2.585759041830897">
        <ele>788.21100000000001</ele>
        <time>2026-04-25T09:59:05Z</time>
      </trkpt>
      <trkpt lat="40.64013403840363" lon="-2.585904970765114">
        <ele>787.80899999999997</ele>
        <time>2026-04-25T09:59:08Z</time>
      </trkpt>
      <trkpt lat="40.640143007040024" lon="-2.58604796603322">
        <ele>787.654</ele>
        <time>2026-04-25T09:59:11Z</time>
      </trkpt>
      <trkpt lat="40.640161028131843" lon="-2.586178975179792">
        <ele>787.64800000000002</ele>
        <time>2026-04-25T09:59:14Z</time>
      </trkpt>
      <trkpt lat="40.640163039788604" lon="-2.586315013468266">
        <ele>787.25300000000004</ele>
        <time>2026-04-25T09:59:18Z</time>
      </trkpt>
      <trkpt lat="40.640160022303462" lon="-2.586344014853239">
        <ele>787.04300000000001</ele>
        <time>2026-04-25T09:59:19Z</time>
      </trkpt>
      <trkpt lat="40.640152981504798" lon="-2.586374022066593">
        <ele>786.87900000000002</ele>
        <time>2026-04-25T09:59:20Z</time>
      </trkpt>
      <trkpt lat="40.640144012868404" lon="-2.586399000138044">
        <ele>787.01099999999997</ele>
        <time>2026-04-25T09:59:21Z</time>
      </trkpt>
      <trkpt lat="40.640128003433347" lon="-2.586424984037876">
        <ele>786.80999999999995</ele>
        <time>2026-04-25T09:59:22Z</time>
      </trkpt>
      <trkpt lat="40.640105959028006" lon="-2.586452979594469">
        <ele>786.89099999999996</ele>
        <time>2026-04-25T09:59:23Z</time>
      </trkpt>
      <trkpt lat="40.640075029805303" lon="-2.586546018719673">
        <ele>786.43600000000004</ele>
        <time>2026-04-25T09:59:26Z</time>
      </trkpt>
      <trkpt lat="40.640065977349877" lon="-2.586575020104647">
        <ele>786.45100000000002</ele>
        <time>2026-04-25T09:59:27Z</time>
      </trkpt>
      <trkpt lat="40.640013003721833" lon="-2.586703011766076">
        <ele>786.601</ele>
        <time>2026-04-25T09:59:31Z</time>
      </trkpt>
      <trkpt lat="40.639990037307143" lon="-2.586834020912647">
        <ele>786.41099999999994</ele>
        <time>2026-04-25T09:59:34Z</time>
      </trkpt>
      <trkpt lat="40.639989031478763" lon="-2.586919013410807">
        <ele>786.20899999999995</ele>
        <time>2026-04-25T09:59:36Z</time>
      </trkpt>
      <trkpt lat="40.639992970973253" lon="-2.586963018402457">
        <ele>786.47699999999998</ele>
        <time>2026-04-25T09:59:37Z</time>
      </trkpt>
      <trkpt lat="40.640002023428679" lon="-2.587007023394108">
        <ele>786.23099999999999</ele>
        <time>2026-04-25T09:59:38Z</time>
      </trkpt>
      <trkpt lat="40.640010992065072" lon="-2.587054967880249">
        <ele>786.21600000000001</ele>
        <time>2026-04-25T09:59:39Z</time>
      </trkpt>
      <trkpt lat="40.640019038692117" lon="-2.587095033377409">
        <ele>785.87599999999998</ele>
        <time>2026-04-25T09:59:40Z</time>
      </trkpt>
      <trkpt lat="40.64002800732851" lon="-2.587131997570396">
        <ele>785.65200000000004</ele>
        <time>2026-04-25T09:59:41Z</time>
      </trkpt>
      <trkpt lat="40.640038987621665" lon="-2.587176002562046">
        <ele>785.69399999999996</ele>
        <time>2026-04-25T09:59:42Z</time>
      </trkpt>
      <trkpt lat="40.64004703424871" lon="-2.587217995896936">
        <ele>785.68299999999999</ele>
        <time>2026-04-25T09:59:43Z</time>
      </trkpt>
      <trkpt lat="40.640051979571581" lon="-2.587259989231825">
        <ele>785.86400000000003</ele>
        <time>2026-04-25T09:59:44Z</time>
      </trkpt>
      <trkpt lat="40.640058014541864" lon="-2.587297959253192">
        <ele>785.83900000000006</ele>
        <time>2026-04-25T09:59:45Z</time>
      </trkpt>
      <trkpt lat="40.640061032027006" lon="-2.587337018921971">
        <ele>786.03399999999999</ele>
        <time>2026-04-25T09:59:46Z</time>
      </trkpt>
      <trkpt lat="40.640062037855387" lon="-2.587370965629816">
        <ele>786.05499999999995</ele>
        <time>2026-04-25T09:59:47Z</time>
      </trkpt>
      <trkpt lat="40.640060026198626" lon="-2.587407007813454">
        <ele>786.21000000000004</ele>
        <time>2026-04-25T09:59:48Z</time>
      </trkpt>
      <trkpt lat="40.640061032027006" lon="-2.587441960349679">
        <ele>786.00900000000001</ele>
        <time>2026-04-25T09:59:49Z</time>
      </trkpt>
      <trkpt lat="40.640062037855387" lon="-2.587480014190078">
        <ele>785.81500000000005</ele>
        <time>2026-04-25T09:59:50Z</time>
      </trkpt>
      <trkpt lat="40.640059020370245" lon="-2.587513038888574">
        <ele>786.08900000000006</ele>
        <time>2026-04-25T09:59:51Z</time>
      </trkpt>
      <trkpt lat="40.640054997056723" lon="-2.58754899725318">
        <ele>785.84400000000005</ele>
        <time>2026-04-25T09:59:52Z</time>
      </trkpt>
      <trkpt lat="40.640051979571581" lon="-2.587584033608437">
        <ele>786.25400000000002</ele>
        <time>2026-04-25T09:59:53Z</time>
      </trkpt>
      <trkpt lat="40.64004996791482" lon="-2.58761596865952">
        <ele>786.21000000000004</ele>
        <time>2026-04-25T09:59:54Z</time>
      </trkpt>
      <trkpt lat="40.640048962086439" lon="-2.587652010843158">
        <ele>786.46199999999999</ele>
        <time>2026-04-25T09:59:55Z</time>
      </trkpt>
      <trkpt lat="40.64004804007709" lon="-2.587687969207764">
        <ele>786.63099999999997</ele>
        <time>2026-04-25T09:59:56Z</time>
      </trkpt>
      <trkpt lat="40.64004703424871" lon="-2.587715964764357">
        <ele>786.68200000000002</ele>
        <time>2026-04-25T09:59:57Z</time>
      </trkpt>
      <trkpt lat="40.64004804007709" lon="-2.587746977806091">
        <ele>786.83699999999999</ele>
        <time>2026-04-25T09:59:58Z</time>
      </trkpt>
      <trkpt lat="40.64004703424871" lon="-2.587776985019445">
        <ele>786.88800000000003</ele>
        <time>2026-04-25T09:59:59Z</time>
      </trkpt>
      <trkpt lat="40.64004804007709" lon="-2.587815960869193">
        <ele>786.82399999999996</ele>
        <time>2026-04-25T10:00:00Z</time>
      </trkpt>
      <trkpt lat="40.640048962086439" lon="-2.587853008881211">
        <ele>786.82600000000002</ele>
        <time>2026-04-25T10:00:01Z</time>
      </trkpt>
      <trkpt lat="40.64004996791482" lon="-2.587887961417437">
        <ele>786.80899999999997</ele>
        <time>2026-04-25T10:00:02Z</time>
      </trkpt>
      <trkpt lat="40.64004804007709" lon="-2.587920986115933">
        <ele>787.04999999999995</ele>
        <time>2026-04-25T10:00:03Z</time>
      </trkpt>
      <trkpt lat="40.64004804007709" lon="-2.587953004986048">
        <ele>787.07399999999996</ele>
        <time>2026-04-25T10:00:04Z</time>
      </trkpt>
      <trkpt lat="40.640052985399961" lon="-2.587990975007415">
        <ele>787.49900000000002</ele>
        <time>2026-04-25T10:00:05Z</time>
      </trkpt>
      <trkpt lat="40.640053991228342" lon="-2.58802299387753">
        <ele>787.24900000000002</ele>
        <time>2026-04-25T10:00:06Z</time>
      </trkpt>
      <trkpt lat="40.640058014541864" lon="-2.588057024404407">
        <ele>787.27499999999998</ele>
        <time>2026-04-25T10:00:07Z</time>
      </trkpt>
      <trkpt lat="40.640058014541864" lon="-2.588091976940632">
        <ele>787.48699999999997</ele>
        <time>2026-04-25T10:00:08Z</time>
      </trkpt>
      <trkpt lat="40.640059020370245" lon="-2.588125001639128">
        <ele>787.43600000000004</ele>
        <time>2026-04-25T10:00:09Z</time>
      </trkpt>
      <trkpt lat="40.640061032027006" lon="-2.588163977488875">
        <ele>787.66700000000003</ele>
        <time>2026-04-25T10:00:10Z</time>
      </trkpt>
      <trkpt lat="40.640059020370245" lon="-2.588197002187371">
        <ele>787.69200000000001</ele>
        <time>2026-04-25T10:00:11Z</time>
      </trkpt>
      <trkpt lat="40.640061032027006" lon="-2.588232960551977">
        <ele>787.67200000000003</ele>
        <time>2026-04-25T10:00:12Z</time>
      </trkpt>
      <trkpt lat="40.640061032027006" lon="-2.588266991078854">
        <ele>787.61300000000006</ele>
        <time>2026-04-25T10:00:13Z</time>
      </trkpt>
      <trkpt lat="40.640062959864736" lon="-2.588302027434111">
        <ele>787.41399999999999</ele>
        <time>2026-04-25T10:00:14Z</time>
      </trkpt>
      <trkpt lat="40.640067989006639" lon="-2.588337985798717">
        <ele>787.60900000000004</ele>
        <time>2026-04-25T10:00:15Z</time>
      </trkpt>
      <trkpt lat="40.640072012320161" lon="-2.588372016325593">
        <ele>787.68899999999996</ele>
        <time>2026-04-25T10:00:16Z</time>
      </trkpt>
      <trkpt lat="40.640074023976922" lon="-2.588406968861818">
        <ele>787.82299999999998</ele>
        <time>2026-04-25T10:00:17Z</time>
      </trkpt>
      <trkpt lat="40.640077041462064" lon="-2.588439993560314">
        <ele>788.02800000000002</ele>
        <time>2026-04-25T10:00:18Z</time>
      </trkpt>
      <trkpt lat="40.640077041462064" lon="-2.588471006602049">
        <ele>788.25800000000004</ele>
        <time>2026-04-25T10:00:19Z</time>
      </trkpt>
      <trkpt lat="40.640079975128174" lon="-2.588500007987022">
        <ele>788.28399999999999</ele>
        <time>2026-04-25T10:00:20Z</time>
      </trkpt>
      <trkpt lat="40.640078969299793" lon="-2.588524986058474">
        <ele>788.49599999999998</ele>
        <time>2026-04-25T10:00:21Z</time>
      </trkpt>
      <trkpt lat="40.640075029805303" lon="-2.588565973564982">
        <ele>788.82500000000005</ele>
        <time>2026-04-25T10:00:23Z</time>
      </trkpt>
      <trkpt lat="40.640075029805303" lon="-2.588601009920239">
        <ele>789.096</ele>
        <time>2026-04-25T10:00:25Z</time>
      </trkpt>
      <trkpt lat="40.640077041462064" lon="-2.588629005476832">
        <ele>789.04100000000005</ele>
        <time>2026-04-25T10:00:28Z</time>
      </trkpt>
      <trkpt lat="40.640068994835019" lon="-2.588654989376664">
        <ele>788.85199999999998</ele>
        <time>2026-04-25T10:00:30Z</time>
      </trkpt>
      <trkpt lat="40.640065977349877" lon="-2.588682984933257">
        <ele>788.65300000000002</ele>
        <time>2026-04-25T10:00:32Z</time>
      </trkpt>
      <trkpt lat="40.640067989006639" lon="-2.588708968833089">
        <ele>788.60799999999995</ele>
        <time>2026-04-25T10:00:34Z</time>
      </trkpt>
      <trkpt lat="40.640067989006639" lon="-2.588735958561301">
        <ele>788.80899999999997</ele>
        <time>2026-04-25T10:00:37Z</time>
      </trkpt>
      <trkpt lat="40.640058014541864" lon="-2.588766971603036">
        <ele>786.09299999999996</ele>
        <time>2026-04-25T10:07:47Z</time>
      </trkpt>
      <trkpt lat="40.640064971521497" lon="-2.588791027665138">
        <ele>786.64700000000005</ele>
        <time>2026-04-25T10:08:02Z</time>
      </trkpt>
      <trkpt lat="40.640081986784935" lon="-2.588812988251448">
        <ele>786.64200000000005</ele>
        <time>2026-04-25T10:08:23Z</time>
      </trkpt>
      <trkpt lat="40.640099002048373" lon="-2.588824974372983">
        <ele>786.84199999999998</ele>
        <time>2026-04-25T10:08:25Z</time>
      </trkpt>
      <trkpt lat="40.640126997604966" lon="-2.588819023221731">
        <ele>786.47799999999995</ele>
        <time>2026-04-25T10:08:27Z</time>
      </trkpt>
      <trkpt lat="40.640151975676417" lon="-2.588810976594687">
        <ele>786.80999999999995</ele>
        <time>2026-04-25T10:08:29Z</time>
      </trkpt>
      <trkpt lat="40.640177959576249" lon="-2.588803013786674">
        <ele>786.47900000000004</ele>
        <time>2026-04-25T10:08:31Z</time>
      </trkpt>
      <trkpt lat="40.64022003673017" lon="-2.5887740124017">
        <ele>786.25999999999999</ele>
        <time>2026-04-25T10:08:34Z</time>
      </trkpt>
      <trkpt lat="40.640258006751537" lon="-2.588733024895191">
        <ele>787.04499999999996</ele>
        <time>2026-04-25T10:08:36Z</time>
      </trkpt>
      <trkpt lat="40.640292037278414" lon="-2.588692959398031">
        <ele>787.29300000000001</ele>
        <time>2026-04-25T10:08:38Z</time>
      </trkpt>
      <trkpt lat="40.640362026169896" lon="-2.588605033233762">
        <ele>787.26499999999999</ele>
        <time>2026-04-25T10:08:42Z</time>
      </trkpt>
      <trkpt lat="40.64045699313283" lon="-2.58853898383677">
        <ele>787.82100000000003</ele>
        <time>2026-04-25T10:08:46Z</time>
      </trkpt>
      <trkpt lat="40.640550032258034" lon="-2.588520040735602">
        <ele>789.00900000000001</ele>
        <time>2026-04-25T10:08:50Z</time>
      </trkpt>
      <trkpt lat="40.640654973685741" lon="-2.588514005765319">
        <ele>790.471</ele>
        <time>2026-04-25T10:08:54Z</time>
      </trkpt>
      <trkpt lat="40.640755975618958" lon="-2.588528003543615">
        <ele>791.21500000000003</ele>
        <time>2026-04-25T10:08:58Z</time>
      </trkpt>
      <trkpt lat="40.640861000865698" lon="-2.588574020192027">
        <ele>791.23000000000002</ele>
        <time>2026-04-25T10:09:02Z</time>
      </trkpt>
      <trkpt lat="40.640953034162521" lon="-2.588634034618735">
        <ele>791.46000000000004</ele>
        <time>2026-04-25T10:09:05Z</time>
      </trkpt>
      <trkpt lat="40.641044983640313" lon="-2.588681979104877">
        <ele>791.476</ele>
        <time>2026-04-25T10:09:08Z</time>
      </trkpt>
      <trkpt lat="40.641140034422278" lon="-2.588724978268147">
        <ele>792.07799999999997</ele>
        <time>2026-04-25T10:09:13Z</time>
      </trkpt>
      <trkpt lat="40.641232989728451" lon="-2.588719027116895">
        <ele>791.68700000000001</ele>
        <time>2026-04-25T10:09:19Z</time>
      </trkpt>
      <trkpt lat="40.641282023862004" lon="-2.588704023510218">
        <ele>791.87800000000004</ele>
        <time>2026-04-25T10:09:23Z</time>
      </trkpt>
      <trkpt lat="40.641310019418597" lon="-2.588696982711554">
        <ele>792.08299999999997</ele>
        <time>2026-04-25T10:09:25Z</time>
      </trkpt>
      <trkpt lat="40.641343966126442" lon="-2.588683990761638">
        <ele>791.89300000000003</ele>
        <time>2026-04-25T10:09:27Z</time>
      </trkpt>
      <trkpt lat="40.641371961683035" lon="-2.588675022125244">
        <ele>792.06500000000005</ele>
        <time>2026-04-25T10:09:29Z</time>
      </trkpt>
      <trkpt lat="40.641394006088376" lon="-2.588670998811722">
        <ele>792.221</ele>
        <time>2026-04-25T10:09:31Z</time>
      </trkpt>
      <trkpt lat="40.641415966674685" lon="-2.588668987154961">
        <ele>792.20899999999995</ele>
        <time>2026-04-25T10:09:33Z</time>
      </trkpt>
      <trkpt lat="40.641434993594885" lon="-2.588655995205045">
        <ele>792.68100000000004</ele>
        <time>2026-04-25T10:09:36Z</time>
      </trkpt>
      <trkpt lat="40.641475981101394" lon="-2.58864501491189">
        <ele>792.67499999999995</ele>
        <time>2026-04-25T10:09:40Z</time>
      </trkpt>
      <trkpt lat="40.641503976657987" lon="-2.588640991598368">
        <ele>792.65999999999997</ele>
        <time>2026-04-25T10:09:42Z</time>
      </trkpt>
      <trkpt lat="40.641592992469668" lon="-2.588617019355297">
        <ele>792.88</ele>
        <time>2026-04-25T10:09:50Z</time>
      </trkpt>
      <trkpt lat="40.641689971089363" lon="-2.588607966899872">
        <ele>793.29600000000005</ele>
        <time>2026-04-25T10:09:57Z</time>
      </trkpt>
      <trkpt lat="40.641778986901045" lon="-2.58864501491189">
        <ele>793.82799999999997</ele>
        <time>2026-04-25T10:10:04Z</time>
      </trkpt>
      <trkpt lat="40.641827015206218" lon="-2.58866798132658">
        <ele>794.26700000000005</ele>
        <time>2026-04-25T10:10:08Z</time>
      </trkpt>
      <trkpt lat="40.641849981620908" lon="-2.588676027953625">
        <ele>794.24800000000005</ele>
        <time>2026-04-25T10:10:10Z</time>
      </trkpt>
      <trkpt lat="40.641868002712727" lon="-2.588690025731921">
        <ele>794.25300000000004</ele>
        <time>2026-04-25T10:10:12Z</time>
      </trkpt>
      <trkpt lat="40.641885017976165" lon="-2.588703017681837">
        <ele>794.42499999999995</ele>
        <time>2026-04-25T10:10:14Z</time>
      </trkpt>
      <trkpt lat="40.641905972734094" lon="-2.588707040995359">
        <ele>794.42600000000004</ele>
        <time>2026-04-25T10:10:16Z</time>
      </trkpt>
      <trkpt lat="40.641921982169151" lon="-2.588719027116895">
        <ele>794.80799999999999</ele>
        <time>2026-04-25T10:10:19Z</time>
      </trkpt>
      <trkpt lat="40.641943020746112" lon="-2.588732019066811">
        <ele>794.80899999999997</ele>
        <time>2026-04-25T10:10:21Z</time>
      </trkpt>
      <trkpt lat="40.64196296967566" lon="-2.588741993531585">
        <ele>794.81399999999996</ele>
        <time>2026-04-25T10:10:23Z</time>
      </trkpt>
      <trkpt lat="40.641984008252621" lon="-2.588750040158629">
        <ele>794.82799999999997</ele>
        <time>2026-04-25T10:10:25Z</time>
      </trkpt>
      <trkpt lat="40.64200496301055" lon="-2.58875397965312">
        <ele>795.01300000000003</ele>
        <time>2026-04-25T10:10:27Z</time>
      </trkpt>
      <trkpt lat="40.64202600158751" lon="-2.588766971603036">
        <ele>794.86300000000006</ele>
        <time>2026-04-25T10:10:29Z</time>
      </trkpt>
      <trkpt lat="40.64204796217382" lon="-2.588773006573319">
        <ele>795.09900000000005</ele>
        <time>2026-04-25T10:10:31Z</time>
      </trkpt>
      <trkpt lat="40.642066989094019" lon="-2.588778035715222">
        <ele>795.27099999999996</ele>
        <time>2026-04-25T10:10:33Z</time>
      </trkpt>
      <trkpt lat="40.642088027670979" lon="-2.588788010179997">
        <ele>795.25999999999999</ele>
        <time>2026-04-25T10:10:35Z</time>
      </trkpt>
      <trkpt lat="40.642113005742431" lon="-2.588794967159629">
        <ele>795.29100000000005</ele>
        <time>2026-04-25T10:10:37Z</time>
      </trkpt>
      <trkpt lat="40.642136977985501" lon="-2.58879697881639">
        <ele>795.41600000000005</ele>
        <time>2026-04-25T10:10:39Z</time>
      </trkpt>
      <trkpt lat="40.642156004905701" lon="-2.588807037100196">
        <ele>796.21699999999998</ele>
        <time>2026-04-25T10:10:42Z</time>
      </trkpt>
      <trkpt lat="40.642178971320391" lon="-2.58879697881639">
        <ele>796.48699999999997</ele>
        <time>2026-04-25T10:10:45Z</time>
      </trkpt>
      <trkpt lat="40.642203027382493" lon="-2.588793961331248">
        <ele>796.41499999999996</ele>
        <time>2026-04-25T10:10:47Z</time>
      </trkpt>
      <trkpt lat="40.642232028767467" lon="-2.588792033493519">
        <ele>796.40899999999999</ele>
        <time>2026-04-25T10:10:49Z</time>
      </trkpt>
      <trkpt lat="40.642252983525395" lon="-2.588789016008377">
        <ele>796.28300000000002</ele>
        <time>2026-04-25T10:10:51Z</time>
      </trkpt>
      <trkpt lat="40.642339987680316" lon="-2.588729001581669">
        <ele>796.697</ele>
        <time>2026-04-25T10:10:56Z</time>
      </trkpt>
      <trkpt lat="40.642434032633901" lon="-2.588679967448115">
        <ele>797.43200000000002</ele>
        <time>2026-04-25T10:11:04Z</time>
      </trkpt>
      <trkpt lat="40.642524976283312" lon="-2.588657001033425">
        <ele>797.61199999999997</ele>
        <time>2026-04-25T10:11:11Z</time>
      </trkpt>
      <trkpt lat="40.642598988488317" lon="-2.588625987991691">
        <ele>798.06799999999998</ele>
        <time>2026-04-25T10:11:16Z</time>
      </trkpt>
      <trkpt lat="40.642690015956759" lon="-2.588604027405381">
        <ele>798.22000000000003</ele>
        <time>2026-04-25T10:11:23Z</time>
      </trkpt>
      <trkpt lat="40.642708037048578" lon="-2.588601009920239">
        <ele>798.23900000000003</ele>
        <time>2026-04-25T10:11:25Z</time>
      </trkpt>
      <trkpt lat="40.642769979313016" lon="-2.58858198300004">
        <ele>798.63999999999999</ele>
        <time>2026-04-25T10:11:29Z</time>
      </trkpt>
      <trkpt lat="40.642805015668273" lon="-2.588577037677169">
        <ele>798.85500000000002</ele>
        <time>2026-04-25T10:11:31Z</time>
      </trkpt>
      <trkpt lat="40.642825970426202" lon="-2.588569996878505">
        <ele>799.05899999999997</ele>
        <time>2026-04-25T10:11:33Z</time>
      </trkpt>
      <trkpt lat="40.642843991518021" lon="-2.588567985221744">
        <ele>799.20299999999997</ele>
        <time>2026-04-25T10:11:36Z</time>
      </trkpt>
      <trkpt lat="40.642867041751742" lon="-2.588568991050124">
        <ele>799.22299999999996</ele>
        <time>2026-04-25T10:11:38Z</time>
      </trkpt>
      <trkpt lat="40.642939964309335" lon="-2.588560022413731">
        <ele>799.80899999999997</ele>
        <time>2026-04-25T10:11:46Z</time>
      </trkpt>
      <trkpt lat="40.642984975129366" lon="-2.588542001321912">
        <ele>800.09699999999998</ele>
        <time>2026-04-25T10:11:50Z</time>
      </trkpt>
      <trkpt lat="40.643000984564424" lon="-2.588530015200377">
        <ele>800.08100000000002</ele>
        <time>2026-04-25T10:11:51Z</time>
      </trkpt>
      <trkpt lat="40.643019005656242" lon="-2.588521968573332">
        <ele>800.23599999999999</ele>
        <time>2026-04-25T10:11:52Z</time>
      </trkpt>
      <trkpt lat="40.643038032576442" lon="-2.588510988280177">
        <ele>800.28599999999994</ele>
        <time>2026-04-25T10:11:54Z</time>
      </trkpt>
      <trkpt lat="40.643058987334371" lon="-2.588496990501881">
        <ele>800.48199999999997</ele>
        <time>2026-04-25T10:11:56Z</time>
      </trkpt>
      <trkpt lat="40.643082959577441" lon="-2.588489027693868">
        <ele>800.46400000000006</ele>
        <time>2026-04-25T10:11:58Z</time>
      </trkpt>
      <trkpt lat="40.643102992326021" lon="-2.588485004380345">
        <ele>800.88300000000004</ele>
        <time>2026-04-25T10:12:01Z</time>
      </trkpt>
      <trkpt lat="40.643160995095968" lon="-2.588460026308894">
        <ele>801.24400000000003</ele>
        <time>2026-04-25T10:12:07Z</time>
      </trkpt>
      <trkpt lat="40.643180022016168" lon="-2.588448040187359">
        <ele>801.24900000000002</ele>
        <time>2026-04-25T10:12:09Z</time>
      </trkpt>
      <trkpt lat="40.643199970945716" lon="-2.588440999388695">
        <ele>801.29499999999996</ele>
        <time>2026-04-25T10:12:11Z</time>
      </trkpt>
      <trkpt lat="40.643222015351057" lon="-2.588420966640115">
        <ele>801.44899999999996</ele>
        <time>2026-04-25T10:12:13Z</time>
      </trkpt>
      <trkpt lat="40.643239030614495" lon="-2.588407974690199">
        <ele>801.423</ele>
        <time>2026-04-25T10:12:15Z</time>
      </trkpt>
      <trkpt lat="40.643282029777765" lon="-2.588379979133606">
        <ele>801.80899999999997</ele>
        <time>2026-04-25T10:12:19Z</time>
      </trkpt>
      <trkpt lat="40.643311031162739" lon="-2.588381990790367">
        <ele>802.29100000000005</ele>
        <time>2026-04-25T10:12:23Z</time>
      </trkpt>
      <trkpt lat="40.643370961770415" lon="-2.588392971083522">
        <ele>802.85500000000002</ele>
        <time>2026-04-25T10:12:30Z</time>
      </trkpt>
      <trkpt lat="40.643408009782434" lon="-2.588381990790367">
        <ele>802.65999999999997</ele>
        <time>2026-04-25T10:15:11Z</time>
      </trkpt>
      <trkpt lat="40.643432987853885" lon="-2.588390037417412">
        <ele>802.65999999999997</ele>
        <time>2026-04-25T10:15:14Z</time>
      </trkpt>
      <trkpt lat="40.643472969532013" lon="-2.588392971083522">
        <ele>802.69600000000003</ele>
        <time>2026-04-25T10:15:18Z</time>
      </trkpt>
      <trkpt lat="40.643495013937354" lon="-2.588391965255141">
        <ele>802.68799999999999</ele>
        <time>2026-04-25T10:15:20Z</time>
      </trkpt>
      <trkpt lat="40.643515968695283" lon="-2.588388025760651">
        <ele>802.827</ele>
        <time>2026-04-25T10:15:22Z</time>
      </trkpt>
      <trkpt lat="40.643557962030172" lon="-2.588370004668832">
        <ele>803.298</ele>
        <time>2026-04-25T10:15:25Z</time>
      </trkpt>
      <trkpt lat="40.64359400421381" lon="-2.588362041860819">
        <ele>803.65300000000002</ele>
        <time>2026-04-25T10:15:28Z</time>
      </trkpt>
      <trkpt lat="40.643617976456881" lon="-2.588353995233774">
        <ele>803.83500000000004</ele>
        <time>2026-04-25T10:15:30Z</time>
      </trkpt>
      <trkpt lat="40.643640020862222" lon="-2.588359024375677">
        <ele>804.48599999999999</ele>
        <time>2026-04-25T10:15:33Z</time>
      </trkpt>
      <trkpt lat="40.643661981448531" lon="-2.588355001062155">
        <ele>804.81399999999996</ele>
        <time>2026-04-25T10:15:35Z</time>
      </trkpt>
      <trkpt lat="40.643682014197111" lon="-2.588334968313575">
        <ele>805.00900000000001</ele>
        <time>2026-04-25T10:15:37Z</time>
      </trkpt>
      <trkpt lat="40.643707998096943" lon="-2.588313007727265">
        <ele>805.46500000000003</ele>
        <time>2026-04-25T10:15:39Z</time>
      </trkpt>
      <trkpt lat="40.643733981996775" lon="-2.588302027434111">
        <ele>805.63900000000001</ele>
        <time>2026-04-25T10:15:41Z</time>
      </trkpt>
      <trkpt lat="40.643760971724987" lon="-2.588298004120588">
        <ele>806.06399999999996</ele>
        <time>2026-04-25T10:15:44Z</time>
      </trkpt>
      <trkpt lat="40.64378603361547" lon="-2.588294986635447">
        <ele>805.87400000000002</ele>
        <time>2026-04-25T10:15:47Z</time>
      </trkpt>
      <trkpt lat="40.643815035000443" lon="-2.588298004120588">
        <ele>806.02999999999997</ele>
        <time>2026-04-25T10:15:50Z</time>
      </trkpt>
      <trkpt lat="40.643838001415133" lon="-2.588299009948969">
        <ele>806.09199999999998</ele>
        <time>2026-04-25T10:15:52Z</time>
      </trkpt>
      <trkpt lat="40.643932968378067" lon="-2.588269002735615">
        <ele>806.27099999999996</ele>
        <time>2026-04-25T10:16:00Z</time>
      </trkpt>
      <trkpt lat="40.64395803026855" lon="-2.588262967765331">
        <ele>806.452</ele>
        <time>2026-04-25T10:16:02Z</time>
      </trkpt>
      <trkpt lat="40.643998011946678" lon="-2.588253999128938">
        <ele>806.66700000000003</ele>
        <time>2026-04-25T10:16:05Z</time>
      </trkpt>
      <trkpt lat="40.644020978361368" lon="-2.588240001350641">
        <ele>807.26900000000001</ele>
        <time>2026-04-25T10:16:07Z</time>
      </trkpt>
      <trkpt lat="40.644060038030148" lon="-2.588226003572345">
        <ele>807.00400000000002</ele>
        <time>2026-04-25T10:16:10Z</time>
      </trkpt>
      <trkpt lat="40.644084010273218" lon="-2.58821401745081">
        <ele>807.024</ele>
        <time>2026-04-25T10:16:12Z</time>
      </trkpt>
      <trkpt lat="40.644103959202766" lon="-2.588200019672513">
        <ele>807.20899999999995</ele>
        <time>2026-04-25T10:16:14Z</time>
      </trkpt>
      <trkpt lat="40.644128015264869" lon="-2.588189039379358">
        <ele>807.48800000000006</ele>
        <time>2026-04-25T10:16:16Z</time>
      </trkpt>
      <trkpt lat="40.644149975851178" lon="-2.588187027722597">
        <ele>807.452</ele>
        <time>2026-04-25T10:16:18Z</time>
      </trkpt>
      <trkpt lat="40.644248966127634" lon="-2.588177975267172">
        <ele>808.45699999999999</ele>
        <time>2026-04-25T10:16:27Z</time>
      </trkpt>
      <trkpt lat="40.644313003867865" lon="-2.588175041601062">
        <ele>809.077</ele>
        <time>2026-04-25T10:16:33Z</time>
      </trkpt>
      <trkpt lat="40.644392967224121" lon="-2.588232960551977">
        <ele>810.89300000000003</ele>
        <time>2026-04-25T10:16:44Z</time>
      </trkpt>
      <trkpt lat="40.644488018006086" lon="-2.588235978037119">
        <ele>811.89499999999998</ele>
        <time>2026-04-25T10:16:56Z</time>
      </trkpt>
      <trkpt lat="40.64456102438271" lon="-2.588132964447141">
        <ele>813.01400000000001</ele>
        <time>2026-04-25T10:17:02Z</time>
      </trkpt>
      <trkpt lat="40.644624978303909" lon="-2.588036991655827">
        <ele>814.61500000000001</ele>
        <time>2026-04-25T10:17:11Z</time>
      </trkpt>
      <trkpt lat="40.644660014659166" lon="-2.587922997772694">
        <ele>816.65999999999997</ele>
        <time>2026-04-25T10:17:20Z</time>
      </trkpt>
      <trkpt lat="40.64468901604414" lon="-2.587809003889561">
        <ele>819.03399999999999</ele>
        <time>2026-04-25T10:17:27Z</time>
      </trkpt>
      <trkpt lat="40.644695973023772" lon="-2.587738009169698">
        <ele>819.45500000000004</ele>
        <time>2026-04-25T10:17:30Z</time>
      </trkpt>
      <trkpt lat="40.644698990508914" lon="-2.587713031098247">
        <ele>819.40999999999997</ele>
        <time>2026-04-25T10:17:32Z</time>
      </trkpt>
      <trkpt lat="40.64471198245883" lon="-2.587695010006428">
        <ele>819.40899999999999</ele>
        <time>2026-04-25T10:17:35Z</time>
      </trkpt>
      <trkpt lat="40.644741989672184" lon="-2.587671959772706">
        <ele>820.42499999999995</ele>
        <time>2026-04-25T10:17:41Z</time>
      </trkpt>
      <trkpt lat="40.644751964136958" lon="-2.587538016960025">
        <ele>821.44899999999996</ele>
        <time>2026-04-25T10:17:49Z</time>
      </trkpt>
      <trkpt lat="40.644780965521932" lon="-2.587417988106608">
        <ele>822.06399999999996</ele>
        <time>2026-04-25T10:17:56Z</time>
      </trkpt>
      <trkpt lat="40.644800998270512" lon="-2.587380018085241">
        <ele>822.47400000000005</ele>
        <time>2026-04-25T10:17:59Z</time>
      </trkpt>
      <trkpt lat="40.644813990220428" lon="-2.5873579736799">
        <ele>822.86000000000001</ele>
        <time>2026-04-25T10:18:02Z</time>
      </trkpt>
      <trkpt lat="40.644836034625769" lon="-2.587340958416462">
        <ele>823.86199999999997</ele>
        <time>2026-04-25T10:18:08Z</time>
      </trkpt>
      <trkpt lat="40.644846009090543" lon="-2.587312962859869">
        <ele>824.27099999999996</ele>
        <time>2026-04-25T10:18:12Z</time>
      </trkpt>
      <trkpt lat="40.64486101269722" lon="-2.587287984788418">
        <ele>824.68200000000002</ele>
        <time>2026-04-25T10:18:15Z</time>
      </trkpt>
      <trkpt lat="40.644880961626768" lon="-2.587255965918303">
        <ele>824.827</ele>
        <time>2026-04-25T10:18:17Z</time>
      </trkpt>
      <trkpt lat="40.644895965233445" lon="-2.58722797036171">
        <ele>825.09199999999998</ele>
        <time>2026-04-25T10:18:19Z</time>
      </trkpt>
      <trkpt lat="40.644921027123928" lon="-2.587207015603781">
        <ele>825.27300000000002</ele>
        <time>2026-04-25T10:18:21Z</time>
      </trkpt>
      <trkpt lat="40.644937036558986" lon="-2.587183965370059">
        <ele>825.62</ele>
        <time>2026-04-25T10:18:24Z</time>
      </trkpt>
      <trkpt lat="40.64494701102376" lon="-2.587164016440511">
        <ele>825.80899999999997</ele>
        <time>2026-04-25T10:18:26Z</time>
      </trkpt>
      <trkpt lat="40.644962014630437" lon="-2.587144989520311">
        <ele>826.28099999999995</ele>
        <time>2026-04-25T10:18:28Z</time>
      </trkpt>
      <trkpt lat="40.644980035722256" lon="-2.587130991742015">
        <ele>826.86500000000001</ele>
        <time>2026-04-25T10:18:30Z</time>
      </trkpt>
      <trkpt lat="40.644996967166662" lon="-2.587114982306957">
        <ele>827.04999999999995</ele>
        <time>2026-04-25T10:18:32Z</time>
      </trkpt>
      <trkpt lat="40.645011970773339" lon="-2.587097967043519">
        <ele>827.24000000000001</ele>
        <time>2026-04-25T10:18:34Z</time>
      </trkpt>
      <trkpt lat="40.645027980208397" lon="-2.587082963436842">
        <ele>827.63599999999997</ele>
        <time>2026-04-25T10:18:37Z</time>
      </trkpt>
      <trkpt lat="40.645049018785357" lon="-2.587065026164055">
        <ele>828.07799999999997</ele>
        <time>2026-04-25T10:18:40Z</time>
      </trkpt>
      <trkpt lat="40.645064022392035" lon="-2.587050022557378">
        <ele>828.45699999999999</ele>
        <time>2026-04-25T10:18:43Z</time>
      </trkpt>
      <trkpt lat="40.645080031827092" lon="-2.587039964273572">
        <ele>829.23800000000006</ele>
        <time>2026-04-25T10:18:46Z</time>
      </trkpt>
      <trkpt lat="40.645097969099879" lon="-2.587065026164055">
        <ele>831.49300000000005</ele>
        <time>2026-04-25T10:18:58Z</time>
      </trkpt>
      <trkpt lat="40.645112972706556" lon="-2.587085980921984">
        <ele>831.68600000000004</ele>
        <time>2026-04-25T10:19:01Z</time>
      </trkpt>
      <trkpt lat="40.64512001350522" lon="-2.587110958993435">
        <ele>832.05999999999995</ele>
        <time>2026-04-25T10:19:04Z</time>
      </trkpt>
      <trkpt lat="40.645139962434769" lon="-2.587131997570396">
        <ele>832.226</ele>
        <time>2026-04-25T10:19:07Z</time>
      </trkpt>
      <trkpt lat="40.645166030153632" lon="-2.587153036147356">
        <ele>832.60900000000004</ele>
        <time>2026-04-25T10:19:09Z</time>
      </trkpt>
      <trkpt lat="40.6451849732548" lon="-2.587165022268891">
        <ele>833.23000000000002</ele>
        <time>2026-04-25T10:19:11Z</time>
      </trkpt>
      <trkpt lat="40.645201988518238" lon="-2.58718203753233">
        <ele>833.81399999999996</ele>
        <time>2026-04-25T10:19:14Z</time>
      </trkpt>
      <trkpt lat="40.645204000174999" lon="-2.5872060097754">
        <ele>835.82899999999995</ele>
        <time>2026-04-25T10:19:30Z</time>
      </trkpt>
      <trkpt lat="40.645196959376335" lon="-2.587238028645515">
        <ele>836.26900000000001</ele>
        <time>2026-04-25T10:19:33Z</time>
      </trkpt>
      <trkpt lat="40.64520500600338" lon="-2.587259989231825">
        <ele>836.47500000000002</ele>
        <time>2026-04-25T10:19:35Z</time>
      </trkpt>
      <trkpt lat="40.645196037366986" lon="-2.587283039465547">
        <ele>837.27700000000004</ele>
        <time>2026-04-25T10:19:40Z</time>
      </trkpt>
      <trkpt lat="40.645211040973663" lon="-2.587302988395095">
        <ele>837.82600000000002</ele>
        <time>2026-04-25T10:20:11Z</time>
      </trkpt>
      <trkpt lat="40.64522797241807" lon="-2.587321009486914">
        <ele>837.88699999999994</ele>
        <time>2026-04-25T10:20:13Z</time>
      </trkpt>
      <trkpt lat="40.645245993509889" lon="-2.587324026972055">
        <ele>838.03200000000004</ele>
        <time>2026-04-25T10:20:15Z</time>
      </trkpt>
      <trkpt lat="40.645265020430088" lon="-2.587320003658533">
        <ele>838.46900000000005</ele>
        <time>2026-04-25T10:20:18Z</time>
      </trkpt>
      <trkpt lat="40.645278012380004" lon="-2.587337018921971">
        <ele>839.00400000000002</ele>
        <time>2026-04-25T10:20:21Z</time>
      </trkpt>
      <trkpt lat="40.645295027643442" lon="-2.58735696785152">
        <ele>839.62400000000002</ele>
        <time>2026-04-25T10:20:25Z</time>
      </trkpt>
      <trkpt lat="40.645305002108216" lon="-2.587384963408113">
        <ele>840.60900000000004</ele>
        <time>2026-04-25T10:20:29Z</time>
      </trkpt>
      <trkpt lat="40.645316988229752" lon="-2.587402984499931">
        <ele>841.05799999999999</ele>
        <time>2026-04-25T10:20:32Z</time>
      </trkpt>
      <trkpt lat="40.64533400349319" lon="-2.587412958964706">
        <ele>841.47199999999998</ele>
        <time>2026-04-25T10:20:34Z</time>
      </trkpt>
      <trkpt lat="40.645351018756628" lon="-2.58742100559175">
        <ele>842.04700000000003</ele>
        <time>2026-04-25T10:20:35Z</time>
      </trkpt>
      <trkpt lat="40.645374990999699" lon="-2.587433997541666">
        <ele>842.61699999999996</ele>
        <time>2026-04-25T10:20:37Z</time>
      </trkpt>
      <trkpt lat="40.645394017919898" lon="-2.587445983663201">
        <ele>843.053</ele>
        <time>2026-04-25T10:20:39Z</time>
      </trkpt>
      <trkpt lat="40.645411033183336" lon="-2.58746299892664">
        <ele>843.47500000000002</ele>
        <time>2026-04-25T10:20:42Z</time>
      </trkpt>
      <trkpt lat="40.645418995991349" lon="-2.587484959512949">
        <ele>844.26400000000001</ele>
        <time>2026-04-25T10:20:45Z</time>
      </trkpt>
      <trkpt lat="40.645441962406039" lon="-2.587503986433148">
        <ele>844.68499999999995</ele>
        <time>2026-04-25T10:20:48Z</time>
      </trkpt>
      <trkpt lat="40.645455038174987" lon="-2.587530976161361">
        <ele>845.23000000000002</ele>
        <time>2026-04-25T10:20:50Z</time>
      </trkpt>
      <trkpt lat="40.645470963791013" lon="-2.587551008909941">
        <ele>845.89700000000005</ele>
        <time>2026-04-25T10:20:52Z</time>
      </trkpt>
      <trkpt lat="40.645487979054451" lon="-2.58757196366787">
        <ele>846.62300000000005</ele>
        <time>2026-04-25T10:20:56Z</time>
      </trkpt>
      <trkpt lat="40.645495019853115" lon="-2.587596019729972">
        <ele>847.02499999999998</ele>
        <time>2026-04-25T10:20:58Z</time>
      </trkpt>
      <trkpt lat="40.64548303373158" lon="-2.58761303499341">
        <ele>847.60900000000004</ele>
        <time>2026-04-25T10:21:01Z</time>
      </trkpt>
      <trkpt lat="40.645481022074819" lon="-2.587641030550003">
        <ele>848.21100000000001</ele>
        <time>2026-04-25T10:21:04Z</time>
      </trkpt>
      <trkpt lat="40.64548596739769" lon="-2.587673971429467">
        <ele>848.82500000000005</ele>
        <time>2026-04-25T10:21:07Z</time>
      </trkpt>
      <trkpt lat="40.645492002367973" lon="-2.587706996127963">
        <ele>850.22000000000003</ele>
        <time>2026-04-25T10:21:12Z</time>
      </trkpt>
      <trkpt lat="40.645509017631412" lon="-2.587730968371034">
        <ele>850.42999999999995</ele>
        <time>2026-04-25T10:21:14Z</time>
      </trkpt>
      <trkpt lat="40.64552703872323" lon="-2.587746977806091">
        <ele>850.42600000000004</ele>
        <time>2026-04-25T10:21:16Z</time>
      </trkpt>
      <trkpt lat="40.64555000513792" lon="-2.587758963927627">
        <ele>850.65800000000002</ele>
        <time>2026-04-25T10:21:18Z</time>
      </trkpt>
      <trkpt lat="40.645567020401359" lon="-2.587771033868194">
        <ele>850.88699999999994</ele>
        <time>2026-04-25T10:21:20Z</time>
      </trkpt>
      <trkpt lat="40.645581018179655" lon="-2.58778695948422">
        <ele>851.26800000000003</ele>
        <time>2026-04-25T10:21:22Z</time>
      </trkpt>
      <trkpt lat="40.645599039271474" lon="-2.587809003889561">
        <ele>852.06299999999999</ele>
        <time>2026-04-25T10:21:25Z</time>
      </trkpt>
      <trkpt lat="40.64561597071588" lon="-2.587817972525954">
        <ele>852.43100000000004</ele>
        <time>2026-04-25T10:21:27Z</time>
      </trkpt>
      <trkpt lat="40.645632985979319" lon="-2.587829036638141">
        <ele>852.66099999999994</ele>
        <time>2026-04-25T10:21:30Z</time>
      </trkpt>
      <trkpt lat="40.645654024556279" lon="-2.58783096447587">
        <ele>853.20699999999999</ele>
        <time>2026-04-25T10:21:32Z</time>
      </trkpt>
      <trkpt lat="40.645672967657447" lon="-2.587814033031464">
        <ele>853.60900000000004</ele>
        <time>2026-04-25T10:21:34Z</time>
      </trkpt>
      <trkpt lat="40.645693000406027" lon="-2.5877879653126">
        <ele>853.89499999999998</ele>
        <time>2026-04-25T10:21:36Z</time>
      </trkpt>
      <trkpt lat="40.645704986527562" lon="-2.587759969756007">
        <ele>854.28899999999999</ele>
        <time>2026-04-25T10:21:38Z</time>
      </trkpt>
      <trkpt lat="40.645724013447762" lon="-2.587732980027795">
        <ele>854.82399999999996</ele>
        <time>2026-04-25T10:21:41Z</time>
      </trkpt>
      <trkpt lat="40.64574203453958" lon="-2.587725017219782">
        <ele>855.46400000000006</ele>
        <time>2026-04-25T10:21:43Z</time>
      </trkpt>
      <trkpt lat="40.645757960155606" lon="-2.587712025269866">
        <ele>856.04999999999995</ele>
        <time>2026-04-25T10:21:45Z</time>
      </trkpt>
      <trkpt lat="40.645782016217709" lon="-2.58769802749157">
        <ele>856.68200000000002</ele>
        <time>2026-04-25T10:21:48Z</time>
      </trkpt>
      <trkpt lat="40.645803976804018" lon="-2.587681012228131">
        <ele>857.28099999999995</ele>
        <time>2026-04-25T10:21:51Z</time>
      </trkpt>
      <trkpt lat="40.64582702703774" lon="-2.587671959772706">
        <ele>857.86199999999997</ele>
        <time>2026-04-25T10:21:54Z</time>
      </trkpt>
      <trkpt lat="40.645844964310527" lon="-2.587667014449835">
        <ele>858.29700000000003</ele>
        <time>2026-04-25T10:21:56Z</time>
      </trkpt>
      <trkpt lat="40.645868014544249" lon="-2.587661985307932">
        <ele>858.68600000000004</ele>
        <time>2026-04-25T10:21:58Z</time>
      </trkpt>
      <trkpt lat="40.645887963473797" lon="-2.587659973651171">
        <ele>859.25999999999999</ele>
        <time>2026-04-25T10:22:00Z</time>
      </trkpt>
      <trkpt lat="40.645912019535899" lon="-2.587649999186397">
        <ele>859.62599999999998</ele>
        <time>2026-04-25T10:22:03Z</time>
      </trkpt>
      <trkpt lat="40.645940015092492" lon="-2.58763499557972">
        <ele>860.20899999999995</ele>
        <time>2026-04-25T10:22:06Z</time>
      </trkpt>
      <trkpt lat="40.645958036184311" lon="-2.587624015286565">
        <ele>860.26999999999998</ele>
        <time>2026-04-25T10:22:07Z</time>
      </trkpt>
      <trkpt lat="40.645984020084143" lon="-2.587604988366365">
        <ele>860.69399999999996</ele>
        <time>2026-04-25T10:22:09Z</time>
      </trkpt>
      <trkpt lat="40.64600296318531" lon="-2.587601970881224">
        <ele>860.81899999999996</ele>
        <time>2026-04-25T10:22:11Z</time>
      </trkpt>
      <trkpt lat="40.646044034510851" lon="-2.587598031386733">
        <ele>861.29899999999998</ele>
        <time>2026-04-25T10:22:15Z</time>
      </trkpt>
      <trkpt lat="40.64612802118063" lon="-2.587561989203095">
        <ele>862.68499999999995</ele>
        <time>2026-04-25T10:22:22Z</time>
      </trkpt>
      <trkpt lat="40.646195998415351" lon="-2.58750700391829">
        <ele>864.41700000000003</ele>
        <time>2026-04-25T10:22:29Z</time>
      </trkpt>
      <trkpt lat="40.646220976486802" lon="-2.587481020018458">
        <ele>864.88599999999997</ele>
        <time>2026-04-25T10:22:31Z</time>
      </trkpt>
      <trkpt lat="40.646238997578621" lon="-2.587452018633485">
        <ele>865.23699999999997</ele>
        <time>2026-04-25T10:22:33Z</time>
      </trkpt>
      <trkpt lat="40.646246960386634" lon="-2.587426034733653">
        <ele>865.44200000000001</ele>
        <time>2026-04-25T10:22:35Z</time>
      </trkpt>
      <trkpt lat="40.646259030327201" lon="-2.58740097284317">
        <ele>865.87199999999996</ele>
        <time>2026-04-25T10:22:37Z</time>
      </trkpt>
      <trkpt lat="40.646275961771607" lon="-2.587384963408113">
        <ele>866.41300000000001</ele>
        <time>2026-04-25T10:22:39Z</time>
      </trkpt>
      <trkpt lat="40.646294988691807" lon="-2.587367026135325">
        <ele>866.61400000000003</ele>
        <time>2026-04-25T10:22:42Z</time>
      </trkpt>
      <trkpt lat="40.646304963156581" lon="-2.587345987558365">
        <ele>867.00900000000001</ele>
        <time>2026-04-25T10:22:45Z</time>
      </trkpt>
      <trkpt lat="40.646306974813342" lon="-2.587317992001772">
        <ele>867.69899999999996</ele>
        <time>2026-04-25T10:22:48Z</time>
      </trkpt>
      <trkpt lat="40.646313009783626" lon="-2.58729200810194">
        <ele>868.03300000000002</ele>
        <time>2026-04-25T10:22:50Z</time>
      </trkpt>
      <trkpt lat="40.646313009783626" lon="-2.587260995060206">
        <ele>868.43799999999999</ele>
        <time>2026-04-25T10:22:52Z</time>
      </trkpt>
      <trkpt lat="40.646316027268767" lon="-2.587235011160374">
        <ele>868.69799999999998</ele>
        <time>2026-04-25T10:22:54Z</time>
      </trkpt>
      <trkpt lat="40.646320972591639" lon="-2.587200980633497">
        <ele>868.48400000000004</ele>
        <time>2026-04-25T10:22:56Z</time>
      </trkpt>
      <trkpt lat="40.646328013390303" lon="-2.587168961763382">
        <ele>868.82600000000002</ele>
        <time>2026-04-25T10:22:58Z</time>
      </trkpt>
      <trkpt lat="40.646336982026696" lon="-2.587148007005453">
        <ele>869.43499999999995</ele>
        <time>2026-04-25T10:23:00Z</time>
      </trkpt>
      <trkpt lat="40.646342011168599" lon="-2.58711900562048">
        <ele>869.68600000000004</ele>
        <time>2026-04-25T10:23:02Z</time>
      </trkpt>
      <trkpt lat="40.646348968148232" lon="-2.587091010063887">
        <ele>869.64099999999996</ele>
        <time>2026-04-25T10:23:04Z</time>
      </trkpt>
      <trkpt lat="40.646357014775276" lon="-2.587067959830165">
        <ele>869.64599999999996</ele>
        <time>2026-04-25T10:23:06Z</time>
      </trkpt>
      <trkpt lat="40.64636698924005" lon="-2.587040970101953">
        <ele>870.08799999999997</ele>
        <time>2026-04-25T10:23:09Z</time>
      </trkpt>
      <trkpt lat="40.646377969533205" lon="-2.587018003687263">
        <ele>870.41600000000005</ele>
        <time>2026-04-25T10:23:12Z</time>
      </trkpt>
      <trkpt lat="40.646390961483121" lon="-2.586993025615811">
        <ele>870.80899999999997</ele>
        <time>2026-04-25T10:23:14Z</time>
      </trkpt>
      <trkpt lat="40.646404037252069" lon="-2.586972992867231">
        <ele>871.29600000000005</ele>
        <time>2026-04-25T10:23:16Z</time>
      </trkpt>
      <trkpt lat="40.646423986181617" lon="-2.586951032280922">
        <ele>871.84000000000003</ele>
        <time>2026-04-25T10:23:19Z</time>
      </trkpt>
      <trkpt lat="40.646445024758577" lon="-2.586938040331006">
        <ele>872.495</ele>
        <time>2026-04-25T10:23:21Z</time>
      </trkpt>
      <trkpt lat="40.646467991173267" lon="-2.586928987875581">
        <ele>872.86500000000001</ele>
        <time>2026-04-25T10:23:23Z</time>
      </trkpt>
      <trkpt lat="40.646488023921847" lon="-2.58692697621882">
        <ele>873.26099999999997</ele>
        <time>2026-04-25T10:23:25Z</time>
      </trkpt>
      <trkpt lat="40.646513001993299" lon="-2.58692697621882">
        <ele>873.69299999999998</ele>
        <time>2026-04-25T10:23:27Z</time>
      </trkpt>
      <trkpt lat="40.646534962579608" lon="-2.586923958733678">
        <ele>874.02200000000005</ele>
        <time>2026-04-25T10:23:29Z</time>
      </trkpt>
      <trkpt lat="40.646560024470091" lon="-2.586918007582426">
        <ele>874.23299999999995</ele>
        <time>2026-04-25T10:23:31Z</time>
      </trkpt>
      <trkpt lat="40.646583996713161" lon="-2.586901998147368">
        <ele>874.63800000000003</ele>
        <time>2026-04-25T10:23:33Z</time>
      </trkpt>
      <trkpt lat="40.646605035290122" lon="-2.586906021460891">
        <ele>875.05100000000004</ele>
        <time>2026-04-25T10:23:36Z</time>
      </trkpt>
      <trkpt lat="40.646629007533193" lon="-2.586895041167736">
        <ele>875.40099999999995</ele>
        <time>2026-04-25T10:23:39Z</time>
      </trkpt>
      <trkpt lat="40.646649040281773" lon="-2.586880037561059">
        <ele>876.01099999999997</ele>
        <time>2026-04-25T10:23:42Z</time>
      </trkpt>
      <trkpt lat="40.646672006696463" lon="-2.586875008419156">
        <ele>876.60900000000004</ele>
        <time>2026-04-25T10:23:45Z</time>
      </trkpt>
      <trkpt lat="40.646692961454391" lon="-2.586866039782763">
        <ele>877.22699999999998</ele>
        <time>2026-04-25T10:23:47Z</time>
      </trkpt>
      <trkpt lat="40.64670997671783" lon="-2.586848018690944">
        <ele>877.471</ele>
        <time>2026-04-25T10:23:49Z</time>
      </trkpt>
      <trkpt lat="40.646732021123171" lon="-2.586837960407138">
        <ele>878.04600000000005</ele>
        <time>2026-04-25T10:23:51Z</time>
      </trkpt>
      <trkpt lat="40.646745013073087" lon="-2.586814993992448">
        <ele>878.86599999999999</ele>
        <time>2026-04-25T10:23:54Z</time>
      </trkpt>
      <trkpt lat="40.646751970052719" lon="-2.586788004264236">
        <ele>879.81200000000001</ele>
        <time>2026-04-25T10:23:57Z</time>
      </trkpt>
      <trkpt lat="40.646768985316157" lon="-2.586769983172417">
        <ele>880.64400000000001</ele>
        <time>2026-04-25T10:24:00Z</time>
      </trkpt>
      <trkpt lat="40.64677401445806" lon="-2.586746010929346">
        <ele>881.22299999999996</ele>
        <time>2026-04-25T10:24:02Z</time>
      </trkpt>
      <trkpt lat="40.646788012236357" lon="-2.586725978180766">
        <ele>882.024</ele>
        <time>2026-04-25T10:24:05Z</time>
      </trkpt>
      <trkpt lat="40.646804021671414" lon="-2.586708962917328">
        <ele>882.649</ele>
        <time>2026-04-25T10:24:09Z</time>
      </trkpt>
      <trkpt lat="40.646822964772582" lon="-2.586699994280934">
        <ele>883.28899999999999</ele>
        <time>2026-04-25T10:24:11Z</time>
      </trkpt>
      <trkpt lat="40.646842997521162" lon="-2.58668901398778">
        <ele>884.20600000000002</ele>
        <time>2026-04-25T10:24:14Z</time>
      </trkpt>
      <trkpt lat="40.646873004734516" lon="-2.586691025644541">
        <ele>885.226</ele>
        <time>2026-04-25T10:24:18Z</time>
      </trkpt>
      <trkpt lat="40.646899994462729" lon="-2.586693959310651">
        <ele>885.00900000000001</ele>
        <time>2026-04-25T10:24:20Z</time>
      </trkpt>
      <trkpt lat="40.646919021382928" lon="-2.586694965139031">
        <ele>885.27999999999997</ele>
        <time>2026-04-25T10:24:22Z</time>
      </trkpt>
      <trkpt lat="40.646936958655715" lon="-2.586693037301302">
        <ele>885.63400000000001</ele>
        <time>2026-04-25T10:24:25Z</time>
      </trkpt>
      <trkpt lat="40.646960008889437" lon="-2.586703011766076">
        <ele>886.04899999999998</ele>
        <time>2026-04-25T10:24:31Z</time>
      </trkpt>
      <trkpt lat="40.646980041638017" lon="-2.586696976795793">
        <ele>886.01900000000001</ele>
        <time>2026-04-25T10:24:33Z</time>
      </trkpt>
      <trkpt lat="40.646996973082423" lon="-2.586687002331018">
        <ele>886.01499999999999</ele>
        <time>2026-04-25T10:24:35Z</time>
      </trkpt>
      <trkpt lat="40.6470119766891" lon="-2.58666998706758">
        <ele>886.41700000000003</ele>
        <time>2026-04-25T10:24:38Z</time>
      </trkpt>
      <trkpt lat="40.6470310036093" lon="-2.586653977632523">
        <ele>887.846</ele>
        <time>2026-04-25T10:24:55Z</time>
      </trkpt>
      <trkpt lat="40.647046007215977" lon="-2.586639979854226">
        <ele>888.077</ele>
        <time>2026-04-25T10:24:57Z</time>
      </trkpt>
      <trkpt lat="40.647065034136176" lon="-2.586622964590788">
        <ele>888.48199999999997</ele>
        <time>2026-04-25T10:24:59Z</time>
      </trkpt>
      <trkpt lat="40.647080037742853" lon="-2.586601004004479">
        <ele>889.08199999999999</ele>
        <time>2026-04-25T10:25:02Z</time>
      </trkpt>
      <trkpt lat="40.647090012207627" lon="-2.586577031761408">
        <ele>889.64300000000003</ele>
        <time>2026-04-25T10:25:05Z</time>
      </trkpt>
      <trkpt lat="40.647108033299446" lon="-2.586553981527686">
        <ele>890.21699999999998</ele>
        <time>2026-04-25T10:25:08Z</time>
      </trkpt>
      <trkpt lat="40.647127982228994" lon="-2.586548030376434">
        <ele>891.00900000000001</ele>
        <time>2026-04-25T10:25:44Z</time>
      </trkpt>
      <trkpt lat="40.647146003320813" lon="-2.58653998374939">
        <ele>891.07000000000005</ele>
        <time>2026-04-25T10:25:46Z</time>
      </trkpt>
      <trkpt lat="40.647164024412632" lon="-2.586529003456235">
        <ele>891.49400000000003</ele>
        <time>2026-04-25T10:25:48Z</time>
      </trkpt>
      <trkpt lat="40.647184979170561" lon="-2.586519028991461">
        <ele>891.82899999999995</ele>
        <time>2026-04-25T10:25:51Z</time>
      </trkpt>
      <trkpt lat="40.64720400609076" lon="-2.586516011506319">
        <ele>892.01900000000001</ele>
        <time>2026-04-25T10:25:54Z</time>
      </trkpt>
      <trkpt lat="40.64722596667707" lon="-2.58649698458612">
        <ele>892.68499999999995</ele>
        <time>2026-04-25T10:25:57Z</time>
      </trkpt>
      <trkpt lat="40.647242981940508" lon="-2.586486004292965">
        <ele>892.84699999999998</ele>
        <time>2026-04-25T10:25:59Z</time>
      </trkpt>
      <trkpt lat="40.64726703800261" lon="-2.586471000686288">
        <ele>893.07600000000002</ele>
        <time>2026-04-25T10:26:02Z</time>
      </trkpt>
      <trkpt lat="40.647292016074061" lon="-2.586462032049894">
        <ele>893.66700000000003</ele>
        <time>2026-04-25T10:26:05Z</time>
      </trkpt>
      <trkpt lat="40.647316994145513" lon="-2.586449962109327">
        <ele>894.02200000000005</ele>
        <time>2026-04-25T10:26:08Z</time>
      </trkpt>
      <trkpt lat="40.647336021065712" lon="-2.586435964331031">
        <ele>894.49300000000005</ele>
        <time>2026-04-25T10:26:10Z</time>
      </trkpt>
      <trkpt lat="40.647353958338499" lon="-2.586422972381115">
        <ele>894.86500000000001</ele>
        <time>2026-04-25T10:26:12Z</time>
      </trkpt>
      <trkpt lat="40.64737600274384" lon="-2.58641199208796">
        <ele>895.02099999999996</ele>
        <time>2026-04-25T10:26:15Z</time>
      </trkpt>
      <trkpt lat="40.64739603549242" lon="-2.586406962946057">
        <ele>895.40899999999999</ele>
        <time>2026-04-25T10:26:17Z</time>
      </trkpt>
      <trkpt lat="40.647414978593588" lon="-2.586395982652903">
        <ele>895.82100000000003</ele>
        <time>2026-04-25T10:26:19Z</time>
      </trkpt>
      <trkpt lat="40.647434005513787" lon="-2.586387014016509">
        <ele>896.08500000000004</ele>
        <time>2026-04-25T10:26:21Z</time>
      </trkpt>
      <trkpt lat="40.647456971928477" lon="-2.586380979046226">
        <ele>896.49000000000001</ele>
        <time>2026-04-25T10:26:23Z</time>
      </trkpt>
      <trkpt lat="40.647479016333818" lon="-2.586374022066593">
        <ele>896.42999999999995</ele>
        <time>2026-04-25T10:26:25Z</time>
      </trkpt>
      <trkpt lat="40.647506006062031" lon="-2.58636798709631">
        <ele>896.81600000000003</ele>
        <time>2026-04-25T10:26:27Z</time>
      </trkpt>
      <trkpt lat="40.647539030760527" lon="-2.586359018459916">
        <ele>897.048</ele>
        <time>2026-04-25T10:26:29Z</time>
      </trkpt>
      <trkpt lat="40.64756995998323" lon="-2.586349966004491">
        <ele>897.68700000000001</ele>
        <time>2026-04-25T10:26:31Z</time>
      </trkpt>
      <trkpt lat="40.647601978853345" lon="-2.586343009024859">
        <ele>898.28800000000001</ele>
        <time>2026-04-25T10:26:33Z</time>
      </trkpt>
      <trkpt lat="40.647627962753177" lon="-2.586334040388465">
        <ele>898.84299999999996</ele>
        <time>2026-04-25T10:26:35Z</time>
      </trkpt>
      <trkpt lat="40.647644978016615" lon="-2.586326999589801">
        <ele>899.08600000000001</ele>
        <time>2026-04-25T10:26:37Z</time>
      </trkpt>
      <trkpt lat="40.647668028250337" lon="-2.586311995983124">
        <ele>899.46000000000004</ele>
        <time>2026-04-25T10:26:40Z</time>
      </trkpt>
      <trkpt lat="40.647693006321788" lon="-2.586304033175111">
        <ele>899.82600000000002</ele>
        <time>2026-04-25T10:26:45Z</time>
      </trkpt>
      <trkpt lat="40.647717984393239" lon="-2.586294980719686">
        <ele>900.40899999999999</ele>
        <time>2026-04-25T10:26:47Z</time>
      </trkpt>
      <trkpt lat="40.647747991606593" lon="-2.586287017911673">
        <ele>900.88999999999999</ele>
        <time>2026-04-25T10:26:49Z</time>
      </trkpt>
      <trkpt lat="40.647771963849664" lon="-2.586276037618518">
        <ele>901.29399999999998</ele>
        <time>2026-04-25T10:26:51Z</time>
      </trkpt>
      <trkpt lat="40.647797025740147" lon="-2.586264973506331">
        <ele>901.899</ele>
        <time>2026-04-25T10:26:53Z</time>
      </trkpt>
      <trkpt lat="40.647824015468359" lon="-2.586250975728035">
        <ele>902.26900000000001</ele>
        <time>2026-04-25T10:26:55Z</time>
      </trkpt>
      <trkpt lat="40.647849999368191" lon="-2.586233960464597">
        <ele>902.65499999999997</ele>
        <time>2026-04-25T10:26:57Z</time>
      </trkpt>
      <trkpt lat="40.647874977439642" lon="-2.586214011535049">
        <ele>902.61699999999996</ele>
        <time>2026-04-25T10:26:59Z</time>
      </trkpt>
      <trkpt lat="40.647889981046319" lon="-2.586194984614849">
        <ele>902.61599999999999</ele>
        <time>2026-04-25T10:27:01Z</time>
      </trkpt>
      <trkpt lat="40.647901967167854" lon="-2.586161037907004">
        <ele>902.81700000000001</ele>
        <time>2026-04-25T10:27:03Z</time>
      </trkpt>
      <trkpt lat="40.647915964946151" lon="-2.586135976016522">
        <ele>902.66200000000003</ele>
        <time>2026-04-25T10:27:04Z</time>
      </trkpt>
      <trkpt lat="40.647929040715098" lon="-2.586105968803167">
        <ele>902.64099999999996</ele>
        <time>2026-04-25T10:27:05Z</time>
      </trkpt>
      <trkpt lat="40.647941026836634" lon="-2.586075039580464">
        <ele>902.48099999999999</ele>
        <time>2026-04-25T10:27:06Z</time>
      </trkpt>
      <trkpt lat="40.647949995473027" lon="-2.586046038195491">
        <ele>902.40899999999999</ele>
        <time>2026-04-25T10:27:07Z</time>
      </trkpt>
      <trkpt lat="40.64795795828104" lon="-2.586021982133389">
        <ele>902.00900000000001</ele>
        <time>2026-04-25T10:27:08Z</time>
      </trkpt>
      <trkpt lat="40.647959969937801" lon="-2.58598099462688">
        <ele>901.81600000000003</ele>
        <time>2026-04-25T10:27:10Z</time>
      </trkpt>
      <trkpt lat="40.647964999079704" lon="-2.585948975756764">
        <ele>901.82000000000005</ele>
        <time>2026-04-25T10:27:11Z</time>
      </trkpt>
      <trkpt lat="40.647967010736465" lon="-2.585917040705681">
        <ele>901.83500000000004</ele>
        <time>2026-04-25T10:27:12Z</time>
      </trkpt>
      <trkpt lat="40.647970028221607" lon="-2.585884016007185">
        <ele>901.69500000000005</ele>
        <time>2026-04-25T10:27:13Z</time>
      </trkpt>
      <trkpt lat="40.647973967716098" lon="-2.585849985480309">
        <ele>901.62099999999998</ele>
        <time>2026-04-25T10:27:14Z</time>
      </trkpt>
      <trkpt lat="40.647981008514762" lon="-2.585816960781813">
        <ele>901.48299999999995</ele>
        <time>2026-04-25T10:27:15Z</time>
      </trkpt>
      <trkpt lat="40.647988971322775" lon="-2.585782008245587">
        <ele>901.27200000000005</ele>
        <time>2026-04-25T10:27:16Z</time>
      </trkpt>
      <trkpt lat="40.6479980237782" lon="-2.585749989375472">
        <ele>901.053</ele>
        <time>2026-04-25T10:27:17Z</time>
      </trkpt>
      <trkpt lat="40.648007998242974" lon="-2.585716964676976">
        <ele>900.89800000000002</ele>
        <time>2026-04-25T10:27:18Z</time>
      </trkpt>
      <trkpt lat="40.648015039041638" lon="-2.585685029625893">
        <ele>900.63300000000004</ele>
        <time>2026-04-25T10:27:19Z</time>
      </trkpt>
      <trkpt lat="40.64802099019289" lon="-2.585653010755777">
        <ele>900.22299999999996</ele>
        <time>2026-04-25T10:27:20Z</time>
      </trkpt>
      <trkpt lat="40.648026019334793" lon="-2.585620991885662">
        <ele>900.21500000000003</ele>
        <time>2026-04-25T10:27:21Z</time>
      </trkpt>
      <trkpt lat="40.648028030991554" lon="-2.585589978843927">
        <ele>900.20899999999995</ele>
        <time>2026-04-25T10:27:22Z</time>
      </trkpt>
      <trkpt lat="40.648029958829284" lon="-2.585563994944096">
        <ele>899.88499999999999</ele>
        <time>2026-04-25T10:27:23Z</time>
      </trkpt>
      <trkpt lat="40.648036999627948" lon="-2.585524013265967">
        <ele>899.43899999999996</ele>
        <time>2026-04-25T10:27:25Z</time>
      </trkpt>
      <trkpt lat="40.64804102294147" lon="-2.585496017709374">
        <ele>899.03399999999999</ele>
        <time>2026-04-25T10:27:27Z</time>
      </trkpt>
      <trkpt lat="40.648052003234625" lon="-2.585462993010879">
        <ele>898.68399999999997</ele>
        <time>2026-04-25T10:27:29Z</time>
      </trkpt>
      <trkpt lat="40.648060971871018" lon="-2.585441032424569">
        <ele>898.63999999999999</ele>
        <time>2026-04-25T10:27:30Z</time>
      </trkpt>
      <trkpt lat="40.648070024326444" lon="-2.585418988019228">
        <ele>898.23199999999997</ele>
        <time>2026-04-25T10:27:31Z</time>
      </trkpt>
      <trkpt lat="40.64808301627636" lon="-2.5853790063411">
        <ele>897.851</ele>
        <time>2026-04-25T10:27:33Z</time>
      </trkpt>
      <trkpt lat="40.648099025711417" lon="-2.585344975814223">
        <ele>897.43200000000002</ele>
        <time>2026-04-25T10:27:35Z</time>
      </trkpt>
      <trkpt lat="40.648116040974855" lon="-2.585324021056294">
        <ele>897.06700000000001</ele>
        <time>2026-04-25T10:27:37Z</time>
      </trkpt>
      <trkpt lat="40.648132972419262" lon="-2.585297031328082">
        <ele>896.85599999999999</ele>
        <time>2026-04-25T10:27:39Z</time>
      </trkpt>
      <trkpt lat="40.648144036531448" lon="-2.58527004159987">
        <ele>896.45899999999995</ele>
        <time>2026-04-25T10:27:41Z</time>
      </trkpt>
      <trkpt lat="40.648150993511081" lon="-2.585246991366148">
        <ele>896.01400000000001</ele>
        <time>2026-04-25T10:27:43Z</time>
      </trkpt>
      <trkpt lat="40.648157028481364" lon="-2.585222013294697">
        <ele>895.60900000000004</ele>
        <time>2026-04-25T10:27:45Z</time>
      </trkpt>
      <trkpt lat="40.6481690146029" lon="-2.58518697693944">
        <ele>895.45699999999999</ele>
        <time>2026-04-25T10:27:47Z</time>
      </trkpt>
      <trkpt lat="40.648184018209577" lon="-2.585157975554466">
        <ele>894.82100000000003</ele>
        <time>2026-04-25T10:27:49Z</time>
      </trkpt>
      <trkpt lat="40.648207990452647" lon="-2.585127968341112">
        <ele>894.46600000000001</ele>
        <time>2026-04-25T10:27:51Z</time>
      </trkpt>
      <trkpt lat="40.648225005716085" lon="-2.585089998319745">
        <ele>894.08600000000001</ele>
        <time>2026-04-25T10:27:53Z</time>
      </trkpt>
      <trkpt lat="40.648244032636285" lon="-2.585054039955139">
        <ele>893.63199999999995</ele>
        <time>2026-04-25T10:27:55Z</time>
      </trkpt>
      <trkpt lat="40.64825501292944" lon="-2.585017997771502">
        <ele>893.41399999999999</ele>
        <time>2026-04-25T10:27:57Z</time>
      </trkpt>
      <trkpt lat="40.648260964080691" lon="-2.584976004436612">
        <ele>893.053</ele>
        <time>2026-04-25T10:27:59Z</time>
      </trkpt>
      <trkpt lat="40.648271022364497" lon="-2.584936022758484">
        <ele>892.83399999999995</ele>
        <time>2026-04-25T10:28:01Z</time>
      </trkpt>
      <trkpt lat="40.64827797934413" lon="-2.584912972524762">
        <ele>892.649</ele>
        <time>2026-04-25T10:28:02Z</time>
      </trkpt>
      <trkpt lat="40.648284014314413" lon="-2.584891011938453">
        <ele>892.41800000000001</ele>
        <time>2026-04-25T10:28:03Z</time>
      </trkpt>
      <trkpt lat="40.648301029577851" lon="-2.584859998896718">
        <ele>892.09799999999996</ele>
        <time>2026-04-25T10:28:05Z</time>
      </trkpt>
      <trkpt lat="40.648316033184528" lon="-2.584832003340125">
        <ele>891.41700000000003</ele>
        <time>2026-04-25T10:28:07Z</time>
      </trkpt>
      <trkpt lat="40.648323995992541" lon="-2.584807025268674">
        <ele>891.20899999999995</ele>
        <time>2026-04-25T10:28:09Z</time>
      </trkpt>
      <trkpt lat="40.648344028741121" lon="-2.584797972813249">
        <ele>890.63300000000004</ele>
        <time>2026-04-25T10:28:12Z</time>
      </trkpt>
      <trkpt lat="40.648358026519418" lon="-2.584781041368842">
        <ele>890.41700000000003</ele>
        <time>2026-04-25T10:28:14Z</time>
      </trkpt>
      <trkpt lat="40.648375963792205" lon="-2.584755979478359">
        <ele>890.23199999999997</ele>
        <time>2026-04-25T10:28:16Z</time>
      </trkpt>
      <trkpt lat="40.648397002369165" lon="-2.584717003628612">
        <ele>889.86199999999997</ele>
        <time>2026-04-25T10:28:18Z</time>
      </trkpt>
      <trkpt lat="40.648417035117745" lon="-2.584680961444974">
        <ele>889.49800000000005</ele>
        <time>2026-04-25T10:28:20Z</time>
      </trkpt>
      <trkpt lat="40.648432960733771" lon="-2.584653971716762">
        <ele>889.00999999999999</ele>
        <time>2026-04-25T10:28:22Z</time>
      </trkpt>
      <trkpt lat="40.648457016795874" lon="-2.584646008908749">
        <ele>888.62900000000002</ele>
        <time>2026-04-25T10:28:24Z</time>
      </trkpt>
      <trkpt lat="40.648479983210564" lon="-2.584650032222271">
        <ele>888.28999999999996</ele>
        <time>2026-04-25T10:28:26Z</time>
      </trkpt>
      <trkpt lat="40.648507978767157" lon="-2.584660006687045">
        <ele>887.83500000000004</ele>
        <time>2026-04-25T10:28:28Z</time>
      </trkpt>
      <trkpt lat="40.648531029000878" lon="-2.584666963666678">
        <ele>887.46500000000003</ele>
        <time>2026-04-25T10:28:30Z</time>
      </trkpt>
      <trkpt lat="40.648547960445285" lon="-2.584684984758496">
        <ele>887.26800000000003</ele>
        <time>2026-04-25T10:28:32Z</time>
      </trkpt>
      <trkpt lat="40.648571010679007" lon="-2.584700994193554">
        <ele>886.61400000000003</ele>
        <time>2026-04-25T10:28:34Z</time>
      </trkpt>
      <trkpt lat="40.648595988750458" lon="-2.58471499197185">
        <ele>886.00900000000001</ele>
        <time>2026-04-25T10:28:36Z</time>
      </trkpt>
      <trkpt lat="40.648618033155799" lon="-2.584726978093386">
        <ele>885.63800000000003</ele>
        <time>2026-04-25T10:28:38Z</time>
      </trkpt>
      <trkpt lat="40.648645022884011" lon="-2.584742987528443">
        <ele>885.49199999999996</ele>
        <time>2026-04-25T10:28:40Z</time>
      </trkpt>
      <trkpt lat="40.648671006783843" lon="-2.584752039983869">
        <ele>885.28700000000003</ele>
        <time>2026-04-25T10:28:42Z</time>
      </trkpt>
      <trkpt lat="40.648693973198533" lon="-2.584769977256656">
        <ele>885.48699999999997</ele>
        <time>2026-04-25T10:28:45Z</time>
      </trkpt>
      <trkpt lat="40.648718029260635" lon="-2.584791015833616">
        <ele>884.85299999999995</ele>
        <time>2026-04-25T10:28:47Z</time>
      </trkpt>
      <trkpt lat="40.648744013160467" lon="-2.584823034703732">
        <ele>884.65499999999997</ele>
        <time>2026-04-25T10:28:49Z</time>
      </trkpt>
      <trkpt lat="40.648753987625241" lon="-2.584849018603563">
        <ele>884.28399999999999</ele>
        <time>2026-04-25T10:28:50Z</time>
      </trkpt>
      <trkpt lat="40.648765973746777" lon="-2.584868967533112">
        <ele>884.03499999999997</ele>
        <time>2026-04-25T10:28:51Z</time>
      </trkpt>
      <trkpt lat="40.648785000666976" lon="-2.584884976968169">
        <ele>884.05999999999995</ele>
        <time>2026-04-25T10:28:52Z</time>
      </trkpt>
      <trkpt lat="40.648798998445272" lon="-2.584900986403227">
        <ele>883.86099999999999</ele>
        <time>2026-04-25T10:28:53Z</time>
      </trkpt>
      <trkpt lat="40.648822970688343" lon="-2.584936022758484">
        <ele>883.42100000000005</ele>
        <time>2026-04-25T10:28:55Z</time>
      </trkpt>
      <trkpt lat="40.648835962638259" lon="-2.584954965859652">
        <ele>883.21299999999997</ele>
        <time>2026-04-25T10:28:56Z</time>
      </trkpt>
      <trkpt lat="40.648847026750445" lon="-2.584973992779851">
        <ele>883.00900000000001</ele>
        <time>2026-04-25T10:28:57Z</time>
      </trkpt>
      <trkpt lat="40.648868987336755" lon="-2.585008023306727">
        <ele>882.82799999999997</ele>
        <time>2026-04-25T10:28:59Z</time>
      </trkpt>
      <trkpt lat="40.648892037570477" lon="-2.585039958357811">
        <ele>882.22199999999998</ele>
        <time>2026-04-25T10:29:01Z</time>
      </trkpt>
      <trkpt lat="40.648961020633578" lon="-2.585139032453299">
        <ele>881.61699999999996</ele>
        <time>2026-04-25T10:29:08Z</time>
      </trkpt>
      <trkpt lat="40.649023968726397" lon="-2.585238022729754">
        <ele>880.87699999999995</ele>
        <time>2026-04-25T10:29:12Z</time>
      </trkpt>
      <trkpt lat="40.649042995646596" lon="-2.585261994972825">
        <ele>880.49300000000005</ele>
        <time>2026-04-25T10:29:13Z</time>
      </trkpt>
      <trkpt lat="40.649061016738415" lon="-2.585283033549786">
        <ele>880.01499999999999</ele>
        <time>2026-04-25T10:29:14Z</time>
      </trkpt>
      <trkpt lat="40.649079959839582" lon="-2.585305999964476">
        <ele>879.69399999999996</ele>
        <time>2026-04-25T10:29:15Z</time>
      </trkpt>
      <trkpt lat="40.649098986759782" lon="-2.585328966379166">
        <ele>879.41499999999996</ele>
        <time>2026-04-25T10:29:16Z</time>
      </trkpt>
      <trkpt lat="40.649118013679981" lon="-2.58535603992641">
        <ele>878.80999999999995</ele>
        <time>2026-04-25T10:29:17Z</time>
      </trkpt>
      <trkpt lat="40.649133017286658" lon="-2.585386969149113">
        <ele>878.45899999999995</ele>
        <time>2026-04-25T10:29:18Z</time>
      </trkpt>
      <trkpt lat="40.649147015064955" lon="-2.585413036867976">
        <ele>878.20299999999997</ele>
        <time>2026-04-25T10:29:19Z</time>
      </trkpt>
      <trkpt lat="40.649163024500012" lon="-2.585438014939427">
        <ele>877.62300000000005</ele>
        <time>2026-04-25T10:29:20Z</time>
      </trkpt>
      <trkpt lat="40.649180961772799" lon="-2.585461987182498">
        <ele>877.60900000000004</ele>
        <time>2026-04-25T10:29:21Z</time>
      </trkpt>
      <trkpt lat="40.649199988692999" lon="-2.585486965253949">
        <ele>877.09699999999998</ele>
        <time>2026-04-25T10:29:22Z</time>
      </trkpt>
      <trkpt lat="40.649217003956437" lon="-2.585510015487671">
        <ele>876.42100000000005</ele>
        <time>2026-04-25T10:29:23Z</time>
      </trkpt>
      <trkpt lat="40.649236030876637" lon="-2.585535999387503">
        <ele>876.28599999999994</ele>
        <time>2026-04-25T10:29:24Z</time>
      </trkpt>
      <trkpt lat="40.649252040311694" lon="-2.585566006600857">
        <ele>875.89599999999996</ele>
        <time>2026-04-25T10:29:25Z</time>
      </trkpt>
      <trkpt lat="40.649264026433229" lon="-2.585597019642592">
        <ele>875.64200000000005</ele>
        <time>2026-04-25T10:29:26Z</time>
      </trkpt>
      <trkpt lat="40.649277018383145" lon="-2.585620991885662">
        <ele>875.46400000000006</ele>
        <time>2026-04-25T10:29:27Z</time>
      </trkpt>
      <trkpt lat="40.649293027818203" lon="-2.585641024634242">
        <ele>875.06299999999999</ele>
        <time>2026-04-25T10:29:28Z</time>
      </trkpt>
      <trkpt lat="40.649311970919371" lon="-2.58565803989768">
        <ele>874.82399999999996</ele>
        <time>2026-04-25T10:29:29Z</time>
      </trkpt>
      <trkpt lat="40.649327980354428" lon="-2.585687041282654">
        <ele>874.03899999999999</ele>
        <time>2026-04-25T10:29:31Z</time>
      </trkpt>
      <trkpt lat="40.649347007274628" lon="-2.585706990212202">
        <ele>873.65499999999997</ele>
        <time>2026-04-25T10:29:33Z</time>
      </trkpt>
      <trkpt lat="40.649358993396163" lon="-2.585728028789163">
        <ele>872.80700000000002</ele>
        <time>2026-04-25T10:29:36Z</time>
      </trkpt>
      <trkpt lat="40.649376008659601" lon="-2.585758036002517">
        <ele>872.81700000000001</ele>
        <time>2026-04-25T10:29:38Z</time>
      </trkpt>
      <trkpt lat="40.649395035579801" lon="-2.585785025730729">
        <ele>872.60900000000004</ele>
        <time>2026-04-25T10:29:40Z</time>
      </trkpt>
      <trkpt lat="40.64941699616611" lon="-2.585813021287322">
        <ele>872.45699999999999</ele>
        <time>2026-04-25T10:29:42Z</time>
      </trkpt>
      <trkpt lat="40.649439040571451" lon="-2.585841016843915">
        <ele>872.28099999999995</ele>
        <time>2026-04-25T10:29:44Z</time>
      </trkpt>
      <trkpt lat="40.64945999532938" lon="-2.585867000743747">
        <ele>872.07600000000002</ele>
        <time>2026-04-25T10:29:46Z</time>
      </trkpt>
      <trkpt lat="40.649477010592818" lon="-2.58589499630034">
        <ele>871.88599999999997</ele>
        <time>2026-04-25T10:29:48Z</time>
      </trkpt>
      <trkpt lat="40.649494025856256" lon="-2.585921986028552">
        <ele>871.81200000000001</ele>
        <time>2026-04-25T10:29:50Z</time>
      </trkpt>
      <trkpt lat="40.649511041119695" lon="-2.585949981585145">
        <ele>871.82399999999996</ele>
        <time>2026-04-25T10:29:52Z</time>
      </trkpt>
      <trkpt lat="40.64952596090734" lon="-2.585974037647247">
        <ele>871.61300000000006</ele>
        <time>2026-04-25T10:29:54Z</time>
      </trkpt>
      <trkpt lat="40.649546999484301" lon="-2.585990969091654">
        <ele>871.21400000000006</ele>
        <time>2026-04-25T10:29:56Z</time>
      </trkpt>
      <trkpt lat="40.649569965898991" lon="-2.586008990183473">
        <ele>871.11900000000003</ele>
        <time>2026-04-25T10:29:58Z</time>
      </trkpt>
      <trkpt lat="40.649593016132712" lon="-2.586029022932053">
        <ele>871.05399999999997</ele>
        <time>2026-04-25T10:30:00Z</time>
      </trkpt>
      <trkpt lat="40.649615982547402" lon="-2.586049977689982">
        <ele>870.95600000000002</ele>
        <time>2026-04-25T10:30:02Z</time>
      </trkpt>
      <trkpt lat="40.649641966447234" lon="-2.586069004610181">
        <ele>870.81100000000004</ele>
        <time>2026-04-25T10:30:04Z</time>
      </trkpt>
      <trkpt lat="40.649669039994478" lon="-2.586085014045239">
        <ele>870.80899999999997</ele>
        <time>2026-04-25T10:30:06Z</time>
      </trkpt>
      <trkpt lat="40.649697035551071" lon="-2.586097000166774">
        <ele>870.45699999999999</ele>
        <time>2026-04-25T10:30:08Z</time>
      </trkpt>
      <trkpt lat="40.649715978652239" lon="-2.586107980459929">
        <ele>870.41099999999994</ele>
        <time>2026-04-25T10:30:10Z</time>
      </trkpt>
      <trkpt lat="40.649746991693974" lon="-2.586116027086973">
        <ele>870.25599999999997</ele>
        <time>2026-04-25T10:30:12Z</time>
      </trkpt>
      <trkpt lat="40.649772975593805" lon="-2.586129019036889">
        <ele>870.49599999999998</ele>
        <time>2026-04-25T10:30:14Z</time>
      </trkpt>
      <trkpt lat="40.649804994463921" lon="-2.586141005158424">
        <ele>870.03200000000004</ele>
        <time>2026-04-25T10:30:16Z</time>
      </trkpt>
      <trkpt lat="40.649832990020514" lon="-2.586157014593482">
        <ele>869.89400000000001</ele>
        <time>2026-04-25T10:30:18Z</time>
      </trkpt>
      <trkpt lat="40.649860985577106" lon="-2.586172018200159">
        <ele>869.65300000000002</ele>
        <time>2026-04-25T10:30:20Z</time>
      </trkpt>
      <trkpt lat="40.649885041639209" lon="-2.586193978786469">
        <ele>869.44399999999996</ele>
        <time>2026-04-25T10:30:22Z</time>
      </trkpt>
      <trkpt lat="40.649909013882279" lon="-2.58621602319181">
        <ele>869.63900000000001</ele>
        <time>2026-04-25T10:30:24Z</time>
      </trkpt>
      <trkpt lat="40.649933991953731" lon="-2.586236977949739">
        <ele>869.423</ele>
        <time>2026-04-25T10:30:26Z</time>
      </trkpt>
      <trkpt lat="40.649958970025182" lon="-2.586257010698319">
        <ele>869.48299999999995</ele>
        <time>2026-04-25T10:30:28Z</time>
      </trkpt>
      <trkpt lat="40.649985037744045" lon="-2.586274025961757">
        <ele>869.21100000000001</ele>
        <time>2026-04-25T10:30:30Z</time>
      </trkpt>
      <trkpt lat="40.650011021643877" lon="-2.586288023740053">
        <ele>869.20899999999995</ele>
        <time>2026-04-25T10:30:32Z</time>
      </trkpt>
      <trkpt lat="40.650038011372089" lon="-2.58630202151835">
        <ele>869.274</ele>
        <time>2026-04-25T10:30:34Z</time>
      </trkpt>
      <trkpt lat="40.650069024413824" lon="-2.586317025125027">
        <ele>869.09799999999996</ele>
        <time>2026-04-25T10:30:36Z</time>
      </trkpt>
      <trkpt lat="40.650086961686611" lon="-2.586326999589801">
        <ele>869.01300000000003</ele>
        <time>2026-04-25T10:30:37Z</time>
      </trkpt>
      <trkpt lat="40.650102971121669" lon="-2.586337979882956">
        <ele>868.97299999999996</ele>
        <time>2026-04-25T10:30:38Z</time>
      </trkpt>
      <trkpt lat="40.650120992213488" lon="-2.586350971832871">
        <ele>868.92899999999997</ele>
        <time>2026-04-25T10:30:39Z</time>
      </trkpt>
      <trkpt lat="40.650141024962068" lon="-2.586363041773439">
        <ele>868.82100000000003</ele>
        <time>2026-04-25T10:30:40Z</time>
      </trkpt>
      <trkpt lat="40.650166003033519" lon="-2.586376033723354">
        <ele>868.87</ele>
        <time>2026-04-25T10:30:41Z</time>
      </trkpt>
      <trkpt lat="40.650189975276589" lon="-2.586393970996141">
        <ele>868.86099999999999</ele>
        <time>2026-04-25T10:30:42Z</time>
      </trkpt>
      <trkpt lat="40.650214031338692" lon="-2.586408974602819">
        <ele>868.69600000000003</ele>
        <time>2026-04-25T10:30:43Z</time>
      </trkpt>
      <trkpt lat="40.650234986096621" lon="-2.586423978209496">
        <ele>868.69399999999996</ele>
        <time>2026-04-25T10:30:44Z</time>
      </trkpt>
      <trkpt lat="40.650257030501962" lon="-2.586440993472934">
        <ele>868.65700000000004</ele>
        <time>2026-04-25T10:30:45Z</time>
      </trkpt>
      <trkpt lat="40.650275973603129" lon="-2.586457002907991">
        <ele>868.62199999999996</ele>
        <time>2026-04-25T10:30:46Z</time>
      </trkpt>
      <trkpt lat="40.650293994694948" lon="-2.586476029828191">
        <ele>868.60900000000004</ele>
        <time>2026-04-25T10:30:47Z</time>
      </trkpt>
      <trkpt lat="40.650310004130006" lon="-2.586491033434868">
        <ele>868.66099999999994</ele>
        <time>2026-04-25T10:30:48Z</time>
      </trkpt>
      <trkpt lat="40.650328025221825" lon="-2.586504025384784">
        <ele>868.84500000000003</ele>
        <time>2026-04-25T10:30:50Z</time>
      </trkpt>
      <trkpt lat="40.650344034656882" lon="-2.586516011506319">
        <ele>869.00999999999999</ele>
        <time>2026-04-25T10:30:51Z</time>
      </trkpt>
      <trkpt lat="40.650370018556714" lon="-2.586526991799474">
        <ele>869.02999999999997</ele>
        <time>2026-04-25T10:30:52Z</time>
      </trkpt>
      <trkpt lat="40.650400025770068" lon="-2.586535960435867">
        <ele>869.06600000000003</ele>
        <time>2026-04-25T10:30:53Z</time>
      </trkpt>
      <trkpt lat="40.650429027155042" lon="-2.586545012891293">
        <ele>869.24800000000005</ele>
        <time>2026-04-25T10:30:54Z</time>
      </trkpt>
      <trkpt lat="40.650457022711635" lon="-2.586558004841209">
        <ele>869.49699999999996</ele>
        <time>2026-04-25T10:30:55Z</time>
      </trkpt>
      <trkpt lat="40.650482000783086" lon="-2.586573008447886">
        <ele>869.428</ele>
        <time>2026-04-25T10:30:56Z</time>
      </trkpt>
      <trkpt lat="40.650507984682918" lon="-2.586590023711324">
        <ele>869.87300000000005</ele>
        <time>2026-04-25T10:30:57Z</time>
      </trkpt>
      <trkpt lat="40.65053497441113" lon="-2.586605027318001">
        <ele>870.08799999999997</ele>
        <time>2026-04-25T10:30:58Z</time>
      </trkpt>
      <trkpt lat="40.650562969967723" lon="-2.586621958762407">
        <ele>870.22400000000005</ele>
        <time>2026-04-25T10:30:59Z</time>
      </trkpt>
      <trkpt lat="40.650592977181077" lon="-2.586638974025846">
        <ele>870.42600000000004</ele>
        <time>2026-04-25T10:31:00Z</time>
      </trkpt>
      <trkpt lat="40.650622984394431" lon="-2.586650038138032">
        <ele>870.60900000000004</ele>
        <time>2026-04-25T10:31:01Z</time>
      </trkpt>
      <trkpt lat="40.650655003264546" lon="-2.586660012602806">
        <ele>870.88999999999999</ele>
        <time>2026-04-25T10:31:02Z</time>
      </trkpt>
      <trkpt lat="40.650687022134662" lon="-2.586667975410819">
        <ele>871.024</ele>
        <time>2026-04-25T10:31:03Z</time>
      </trkpt>
      <trkpt lat="40.650718035176396" lon="-2.586673004552722">
        <ele>871.29899999999998</ele>
        <time>2026-04-25T10:31:04Z</time>
      </trkpt>
      <trkpt lat="40.650747958570719" lon="-2.586677027866244">
        <ele>871.22900000000004</ele>
        <time>2026-04-25T10:31:05Z</time>
      </trkpt>
      <trkpt lat="40.650776037946343" lon="-2.586682979017496">
        <ele>871.28499999999997</ele>
        <time>2026-04-25T10:31:06Z</time>
      </trkpt>
      <trkpt lat="40.650801016017795" lon="-2.586688008159399">
        <ele>871.49699999999996</ele>
        <time>2026-04-25T10:31:07Z</time>
      </trkpt>
      <trkpt lat="40.650824988260865" lon="-2.586691025644541">
        <ele>871.49599999999998</ele>
        <time>2026-04-25T10:31:08Z</time>
      </trkpt>
      <trkpt lat="40.650850972160697" lon="-2.586694965139031">
        <ele>871.447</ele>
        <time>2026-04-25T10:31:09Z</time>
      </trkpt>
      <trkpt lat="40.650877961888909" lon="-2.586701000109315">
        <ele>871.29200000000003</ele>
        <time>2026-04-25T10:31:10Z</time>
      </trkpt>
      <trkpt lat="40.650903023779392" lon="-2.586704017594457">
        <ele>871.09799999999996</ele>
        <time>2026-04-25T10:31:11Z</time>
      </trkpt>
      <trkpt lat="40.650926996022463" lon="-2.586708040907979">
        <ele>871.01499999999999</ele>
        <time>2026-04-25T10:31:12Z</time>
      </trkpt>
      <trkpt lat="40.650949040427804" lon="-2.58671198040247">
        <ele>870.62599999999998</ele>
        <time>2026-04-25T10:31:13Z</time>
      </trkpt>
      <trkpt lat="40.650966977700591" lon="-2.586713992059231">
        <ele>870.40899999999999</ele>
        <time>2026-04-25T10:31:14Z</time>
      </trkpt>
      <trkpt lat="40.650994973257184" lon="-2.586707035079598">
        <ele>870.07100000000003</ele>
        <time>2026-04-25T10:31:16Z</time>
      </trkpt>
      <trkpt lat="40.651016011834145" lon="-2.586702005937696">
        <ele>870.08500000000004</ele>
        <time>2026-04-25T10:31:19Z</time>
      </trkpt>
      <trkpt lat="40.651045013219118" lon="-2.586719021201134">
        <ele>869.87</ele>
        <time>2026-04-25T10:31:21Z</time>
      </trkpt>
      <trkpt lat="40.651069991290569" lon="-2.586728995665908">
        <ele>869.64999999999998</ele>
        <time>2026-04-25T10:31:22Z</time>
      </trkpt>
      <trkpt lat="40.651095975190401" lon="-2.586737964302301">
        <ele>869.41600000000005</ele>
        <time>2026-04-25T10:31:23Z</time>
      </trkpt>
      <trkpt lat="40.651123970746994" lon="-2.586748022586107">
        <ele>869.27800000000002</ele>
        <time>2026-04-25T10:31:24Z</time>
      </trkpt>
      <trkpt lat="40.651152972131968" lon="-2.58675497956574">
        <ele>869.02700000000004</ele>
        <time>2026-04-25T10:31:25Z</time>
      </trkpt>
      <trkpt lat="40.651183985173702" lon="-2.58675598539412">
        <ele>868.82799999999997</ele>
        <time>2026-04-25T10:31:26Z</time>
      </trkpt>
      <trkpt lat="40.651213992387056" lon="-2.58675598539412">
        <ele>868.69299999999998</ele>
        <time>2026-04-25T10:31:27Z</time>
      </trkpt>
      <trkpt lat="40.651238970458508" lon="-2.586753973737359">
        <ele>868.625</ele>
        <time>2026-04-25T10:31:28Z</time>
      </trkpt>
      <trkpt lat="40.651269983500242" lon="-2.586759002879262">
        <ele>868.62599999999998</ele>
        <time>2026-04-25T10:31:29Z</time>
      </trkpt>
      <trkpt lat="40.651300996541977" lon="-2.586760008707643">
        <ele>868.40800000000002</ele>
        <time>2026-04-25T10:31:30Z</time>
      </trkpt>
      <trkpt lat="40.651332009583712" lon="-2.586762020364404">
        <ele>868.20899999999995</ele>
        <time>2026-04-25T10:31:31Z</time>
      </trkpt>
      <trkpt lat="40.651362016797066" lon="-2.586765959858894">
        <ele>867.83399999999995</ele>
        <time>2026-04-25T10:31:32Z</time>
      </trkpt>
      <trkpt lat="40.65139202401042" lon="-2.586770989000797">
        <ele>867.83799999999997</ele>
        <time>2026-04-25T10:31:33Z</time>
      </trkpt>
      <trkpt lat="40.651421025395393" lon="-2.58677501231432">
        <ele>867.66300000000001</ele>
        <time>2026-04-25T10:31:34Z</time>
      </trkpt>
      <trkpt lat="40.651453966274858" lon="-2.586777023971081">
        <ele>867.47299999999996</ele>
        <time>2026-04-25T10:31:35Z</time>
      </trkpt>
      <trkpt lat="40.651485985144973" lon="-2.586779035627842">
        <ele>867.42899999999997</ele>
        <time>2026-04-25T10:31:36Z</time>
      </trkpt>
      <trkpt lat="40.651514986529946" lon="-2.586780963465571">
        <ele>867.26099999999997</ele>
        <time>2026-04-25T10:31:37Z</time>
      </trkpt>
      <trkpt lat="40.651542982086539" lon="-2.586788004264236">
        <ele>866.85000000000002</ele>
        <time>2026-04-25T10:31:38Z</time>
      </trkpt>
      <trkpt lat="40.651568965986371" lon="-2.586795967072249">
        <ele>866.87099999999998</ele>
        <time>2026-04-25T10:31:39Z</time>
      </trkpt>
      <trkpt lat="40.651593022048473" lon="-2.586803007870913">
        <ele>866.65599999999995</ele>
        <time>2026-04-25T10:31:40Z</time>
      </trkpt>
      <trkpt lat="40.651612970978022" lon="-2.586808959022164">
        <ele>866.43600000000004</ele>
        <time>2026-04-25T10:31:41Z</time>
      </trkpt>
      <trkpt lat="40.651637027040124" lon="-2.586807031184435">
        <ele>866.01700000000005</ele>
        <time>2026-04-25T10:31:44Z</time>
      </trkpt>
      <trkpt lat="40.651658987626433" lon="-2.586809964850545">
        <ele>865.81799999999998</ele>
        <time>2026-04-25T10:31:45Z</time>
      </trkpt>
      <trkpt lat="40.651685977354646" lon="-2.586812982335687">
        <ele>865.60900000000004</ele>
        <time>2026-04-25T10:31:46Z</time>
      </trkpt>
      <trkpt lat="40.651714978739619" lon="-2.586813988164067">
        <ele>865.66499999999996</ele>
        <time>2026-04-25T10:31:47Z</time>
      </trkpt>
      <trkpt lat="40.651739034801722" lon="-2.58681901730597">
        <ele>865.69899999999996</ele>
        <time>2026-04-25T10:31:48Z</time>
      </trkpt>
      <trkpt lat="40.651766024529934" lon="-2.586817005649209">
        <ele>865.62400000000002</ele>
        <time>2026-04-25T10:31:49Z</time>
      </trkpt>
      <trkpt lat="40.651794020086527" lon="-2.586813988164067">
        <ele>865.41399999999999</ele>
        <time>2026-04-25T10:31:50Z</time>
      </trkpt>
      <trkpt lat="40.651824027299881" lon="-2.586812982335687">
        <ele>865.23000000000002</ele>
        <time>2026-04-25T10:31:51Z</time>
      </trkpt>
      <trkpt lat="40.651854034513235" lon="-2.586809964850545">
        <ele>865.01199999999994</ele>
        <time>2026-04-25T10:31:52Z</time>
      </trkpt>
      <trkpt lat="40.651883035898209" lon="-2.586814993992448">
        <ele>864.86099999999999</ele>
        <time>2026-04-25T10:31:53Z</time>
      </trkpt>
      <trkpt lat="40.651912037283182" lon="-2.586823040619493">
        <ele>864.822</ele>
        <time>2026-04-25T10:31:54Z</time>
      </trkpt>
      <trkpt lat="40.651940032839775" lon="-2.586831003427506">
        <ele>864.68700000000001</ele>
        <time>2026-04-25T10:31:55Z</time>
      </trkpt>
      <trkpt lat="40.651967022567987" lon="-2.586837960407138">
        <ele>864.69100000000003</ele>
        <time>2026-04-25T10:31:56Z</time>
      </trkpt>
      <trkpt lat="40.651990994811058" lon="-2.586843995377421">
        <ele>864.48099999999999</ele>
        <time>2026-04-25T10:31:57Z</time>
      </trkpt>
      <trkpt lat="40.652014967054129" lon="-2.586849024519324">
        <ele>864.21900000000005</ele>
        <time>2026-04-25T10:31:58Z</time>
      </trkpt>
      <trkpt lat="40.652042962610722" lon="-2.586852964013815">
        <ele>864.20899999999995</ele>
        <time>2026-04-25T10:31:59Z</time>
      </trkpt>
      <trkpt lat="40.652070036157966" lon="-2.586853969842196">
        <ele>863.86099999999999</ele>
        <time>2026-04-25T10:32:00Z</time>
      </trkpt>
      <trkpt lat="40.652099959552288" lon="-2.586851958185434">
        <ele>863.68499999999995</ele>
        <time>2026-04-25T10:32:01Z</time>
      </trkpt>
      <trkpt lat="40.652128038927913" lon="-2.586851036176086">
        <ele>863.63999999999999</ele>
        <time>2026-04-25T10:32:02Z</time>
      </trkpt>
      <trkpt lat="40.652154022827744" lon="-2.586846007034183">
        <ele>863.47000000000003</ele>
        <time>2026-04-25T10:32:03Z</time>
      </trkpt>
      <trkpt lat="40.652177995070815" lon="-2.586842989549041">
        <ele>863.24599999999998</ele>
        <time>2026-04-25T10:32:04Z</time>
      </trkpt>
      <trkpt lat="40.652199033647776" lon="-2.586843995377421">
        <ele>862.89800000000002</ele>
        <time>2026-04-25T10:32:05Z</time>
      </trkpt>
      <trkpt lat="40.652222000062466" lon="-2.586839972063899">
        <ele>862.29700000000003</ele>
        <time>2026-04-25T10:32:07Z</time>
      </trkpt>
      <trkpt lat="40.6522530131042" lon="-2.586847012862563">
        <ele>861.85799999999995</ele>
        <time>2026-04-25T10:32:09Z</time>
      </trkpt>
      <trkpt lat="40.652291988953948" lon="-2.586852964013815">
        <ele>862.053</ele>
        <time>2026-04-25T10:32:11Z</time>
      </trkpt>
      <trkpt lat="40.652315961197019" lon="-2.586856987327337">
        <ele>861.88599999999997</ele>
        <time>2026-04-25T10:32:12Z</time>
      </trkpt>
      <trkpt lat="40.652342028915882" lon="-2.586857993155718">
        <ele>861.86000000000001</ele>
        <time>2026-04-25T10:32:13Z</time>
      </trkpt>
      <trkpt lat="40.652370024472475" lon="-2.586858998984098">
        <ele>861.62599999999998</ele>
        <time>2026-04-25T10:32:14Z</time>
      </trkpt>
      <trkpt lat="40.652395002543926" lon="-2.58686201646924">
        <ele>861.60900000000004</ele>
        <time>2026-04-25T10:32:15Z</time>
      </trkpt>
      <trkpt lat="40.652420986443758" lon="-2.58686201646924">
        <ele>861.27999999999997</ele>
        <time>2026-04-25T10:32:16Z</time>
      </trkpt>
      <trkpt lat="40.652448982000351" lon="-2.586863022297621">
        <ele>861.06399999999996</ele>
        <time>2026-04-25T10:32:17Z</time>
      </trkpt>
      <trkpt lat="40.652475971728563" lon="-2.58686101064086">
        <ele>860.81899999999996</ele>
        <time>2026-04-25T10:32:18Z</time>
      </trkpt>
      <trkpt lat="40.652502961456776" lon="-2.586860004812479">
        <ele>860.88900000000001</ele>
        <time>2026-04-25T10:32:19Z</time>
      </trkpt>
      <trkpt lat="40.652524000033736" lon="-2.586858998984098">
        <ele>860.67499999999995</ele>
        <time>2026-04-25T10:32:20Z</time>
      </trkpt>
      <trkpt lat="40.652559036388993" lon="-2.586857993155718">
        <ele>860.49699999999996</ele>
        <time>2026-04-25T10:32:22Z</time>
      </trkpt>
      <trkpt lat="40.65257697366178" lon="-2.586850030347705">
        <ele>860.476</ele>
        <time>2026-04-25T10:32:23Z</time>
      </trkpt>
      <trkpt lat="40.652608992531896" lon="-2.586845001205802">
        <ele>860.22699999999998</ele>
        <time>2026-04-25T10:32:25Z</time>
      </trkpt>
      <trkpt lat="40.652634976431727" lon="-2.586845001205802">
        <ele>859.62199999999996</ele>
        <time>2026-04-25T10:32:27Z</time>
      </trkpt>
      <trkpt lat="40.65266196615994" lon="-2.586843995377421">
        <ele>859.68799999999999</ele>
        <time>2026-04-25T10:32:29Z</time>
      </trkpt>
      <trkpt lat="40.652692979201674" lon="-2.586843995377421">
        <ele>859.42399999999998</ele>
        <time>2026-04-25T10:32:31Z</time>
      </trkpt>
      <trkpt lat="40.65272499807179" lon="-2.586837038397789">
        <ele>859.42600000000004</ele>
        <time>2026-04-25T10:32:33Z</time>
      </trkpt>
      <trkpt lat="40.652753999456763" lon="-2.586827985942364">
        <ele>859.20899999999995</ele>
        <time>2026-04-25T10:32:35Z</time>
      </trkpt>
      <trkpt lat="40.652783000841737" lon="-2.586822034791112">
        <ele>859.02999999999997</ele>
        <time>2026-04-25T10:32:37Z</time>
      </trkpt>
      <trkpt lat="40.652814013883471" lon="-2.586817005649209">
        <ele>858.84400000000005</ele>
        <time>2026-04-25T10:32:39Z</time>
      </trkpt>
      <trkpt lat="40.652844021096826" lon="-2.586810970678926">
        <ele>858.68899999999996</ele>
        <time>2026-04-25T10:32:41Z</time>
      </trkpt>
      <trkpt lat="40.652862964197993" lon="-2.586808959022164">
        <ele>858.82899999999995</ele>
        <time>2026-04-25T10:32:43Z</time>
      </trkpt>
      <trkpt lat="40.652895988896489" lon="-2.586812982335687">
        <ele>858.64499999999998</ele>
        <time>2026-04-25T10:32:45Z</time>
      </trkpt>
      <trkpt lat="40.65291996113956" lon="-2.586808959022164">
        <ele>858.64700000000005</ele>
        <time>2026-04-25T10:32:46Z</time>
      </trkpt>
      <trkpt lat="40.652946028858423" lon="-2.586808959022164">
        <ele>858.27599999999995</ele>
        <time>2026-04-25T10:32:47Z</time>
      </trkpt>
      <trkpt lat="40.652972012758255" lon="-2.586808037012816">
        <ele>858.21699999999998</ele>
        <time>2026-04-25T10:32:48Z</time>
      </trkpt>
      <trkpt lat="40.652997996658087" lon="-2.586804013699293">
        <ele>857.83199999999999</ele>
        <time>2026-04-25T10:32:49Z</time>
      </trkpt>
      <trkpt lat="40.653021968901157" lon="-2.58679797872901">
        <ele>857.69100000000003</ele>
        <time>2026-04-25T10:32:50Z</time>
      </trkpt>
      <trkpt lat="40.65304602496326" lon="-2.586789010092616">
        <ele>857.68100000000004</ele>
        <time>2026-04-25T10:32:51Z</time>
      </trkpt>
      <trkpt lat="40.65306999720633" lon="-2.5867760181427">
        <ele>857.21900000000005</ele>
        <time>2026-04-25T10:32:52Z</time>
      </trkpt>
      <trkpt lat="40.653093969449401" lon="-2.586762020364404">
        <ele>857.00900000000001</ele>
        <time>2026-04-25T10:32:53Z</time>
      </trkpt>
      <trkpt lat="40.653123976662755" lon="-2.586741987615824">
        <ele>857.28099999999995</ele>
        <time>2026-04-25T10:32:54Z</time>
      </trkpt>
      <trkpt lat="40.653150966390967" lon="-2.586721032857895">
        <ele>857.04499999999996</ele>
        <time>2026-04-25T10:32:55Z</time>
      </trkpt>
      <trkpt lat="40.653178039938211" lon="-2.586698988452554">
        <ele>857.02999999999997</ele>
        <time>2026-04-25T10:32:56Z</time>
      </trkpt>
      <trkpt lat="40.653204023838043" lon="-2.586678033694625">
        <ele>856.85000000000002</ele>
        <time>2026-04-25T10:32:57Z</time>
      </trkpt>
      <trkpt lat="40.653225984424353" lon="-2.586660012602806">
        <ele>856.63599999999997</ele>
        <time>2026-04-25T10:32:58Z</time>
      </trkpt>
      <trkpt lat="40.653249034658074" lon="-2.586642997339368">
        <ele>856.41800000000001</ele>
        <time>2026-04-25T10:32:59Z</time>
      </trkpt>
      <trkpt lat="40.653266971930861" lon="-2.586633022874594">
        <ele>856.43700000000001</ele>
        <time>2026-04-25T10:33:00Z</time>
      </trkpt>
      <trkpt lat="40.653290022164583" lon="-2.586621036753058">
        <ele>856.21799999999996</ele>
        <time>2026-04-25T10:33:01Z</time>
      </trkpt>
      <trkpt lat="40.653310976922512" lon="-2.586605027318001">
        <ele>856.03300000000002</ele>
        <time>2026-04-25T10:33:02Z</time>
      </trkpt>
      <trkpt lat="40.653335032984614" lon="-2.586587006226182">
        <ele>855.84199999999998</ele>
        <time>2026-04-25T10:33:03Z</time>
      </trkpt>
      <trkpt lat="40.65335095860064" lon="-2.586567979305983">
        <ele>856.02200000000005</ele>
        <time>2026-04-25T10:33:04Z</time>
      </trkpt>
      <trkpt lat="40.653378032147884" lon="-2.586555993184447">
        <ele>855.61400000000003</ele>
        <time>2026-04-25T10:33:05Z</time>
      </trkpt>
      <trkpt lat="40.653397981077433" lon="-2.586552975699306">
        <ele>855.40899999999999</ele>
        <time>2026-04-25T10:33:06Z</time>
      </trkpt>
      <trkpt lat="40.653418013826013" lon="-2.586552975699306">
        <ele>855.42600000000004</ele>
        <time>2026-04-25T10:33:07Z</time>
      </trkpt>
      <trkpt lat="40.653437040746212" lon="-2.586549958214164">
        <ele>855.23000000000002</ele>
        <time>2026-04-25T10:33:08Z</time>
      </trkpt>
      <trkpt lat="40.653454978018999" lon="-2.586549036204815">
        <ele>855.22500000000002</ele>
        <time>2026-04-25T10:33:09Z</time>
      </trkpt>
      <trkpt lat="40.653472999110818" lon="-2.586543001234531">
        <ele>855.28499999999997</ele>
        <time>2026-04-25T10:33:10Z</time>
      </trkpt>
      <trkpt lat="40.653492026031017" lon="-2.586541995406151">
        <ele>855.09100000000001</ele>
        <time>2026-04-25T10:33:11Z</time>
      </trkpt>
      <trkpt lat="40.653515998274088" lon="-2.586549958214164">
        <ele>855.03300000000002</ele>
        <time>2026-04-25T10:33:12Z</time>
      </trkpt>
      <trkpt lat="40.653543993830681" lon="-2.586554987356067">
        <ele>854.822</ele>
        <time>2026-04-25T10:33:13Z</time>
      </trkpt>
      <trkpt lat="40.653571989387274" lon="-2.58656001649797">
        <ele>854.64300000000003</ele>
        <time>2026-04-25T10:33:14Z</time>
      </trkpt>
      <trkpt lat="40.653597973287106" lon="-2.586563033983111">
        <ele>854.65800000000002</ele>
        <time>2026-04-25T10:33:15Z</time>
      </trkpt>
      <trkpt lat="40.653625968843699" lon="-2.586563033983111">
        <ele>854.47699999999998</ele>
        <time>2026-04-25T10:33:16Z</time>
      </trkpt>
      <trkpt lat="40.653651030734181" lon="-2.586562028154731">
        <ele>854.46100000000001</ele>
        <time>2026-04-25T10:33:17Z</time>
      </trkpt>
      <trkpt lat="40.653679026290774" lon="-2.58656001649797">
        <ele>854.02700000000004</ele>
        <time>2026-04-25T10:33:18Z</time>
      </trkpt>
      <trkpt lat="40.653707021847367" lon="-2.58656001649797">
        <ele>853.80899999999997</ele>
        <time>2026-04-25T10:33:19Z</time>
      </trkpt>
      <trkpt lat="40.65373401157558" lon="-2.586558004841209">
        <ele>853.899</ele>
        <time>2026-04-25T10:33:20Z</time>
      </trkpt>
      <trkpt lat="40.653758989647031" lon="-2.586562028154731">
        <ele>853.68299999999999</ele>
        <time>2026-04-25T10:33:21Z</time>
      </trkpt>
      <trkpt lat="40.653779022395611" lon="-2.586573008447886">
        <ele>853.298</ele>
        <time>2026-04-25T10:33:22Z</time>
      </trkpt>
      <trkpt lat="40.653795031830668" lon="-2.586586000397801">
        <ele>853.23800000000006</ele>
        <time>2026-04-25T10:33:23Z</time>
      </trkpt>
      <trkpt lat="40.653819004073739" lon="-2.586602009832859">
        <ele>852.66399999999999</ele>
        <time>2026-04-25T10:33:25Z</time>
      </trkpt>
      <trkpt lat="40.653844987973571" lon="-2.58660402148962">
        <ele>852.26599999999996</ele>
        <time>2026-04-25T10:33:27Z</time>
      </trkpt>
      <trkpt lat="40.65386300906539" lon="-2.586586000397801">
        <ele>852.09500000000003</ele>
        <time>2026-04-25T10:33:44Z</time>
      </trkpt>
      <trkpt lat="40.653868960216641" lon="-2.586563033983111">
        <ele>852.096</ele>
        <time>2026-04-25T10:33:46Z</time>
      </trkpt>
      <trkpt lat="40.653883963823318" lon="-2.586543001234531">
        <ele>852.05100000000004</ele>
        <time>2026-04-25T10:33:49Z</time>
      </trkpt>
      <trkpt lat="40.653901984915137" lon="-2.58653998374939">
        <ele>852.298</ele>
        <time>2026-04-25T10:34:01Z</time>
      </trkpt>
      <trkpt lat="40.653919000178576" lon="-2.5865170173347">
        <ele>852.21500000000003</ele>
        <time>2026-04-25T10:34:28Z</time>
      </trkpt>
      <trkpt lat="40.653926962986588" lon="-2.586478041484952">
        <ele>852.226</ele>
        <time>2026-04-25T10:34:30Z</time>
      </trkpt>
      <trkpt lat="40.653930986300111" lon="-2.586441999301314">
        <ele>852.40899999999999</ele>
        <time>2026-04-25T10:34:32Z</time>
      </trkpt>
      <trkpt lat="40.653939032927155" lon="-2.586407968774438">
        <ele>852.61099999999999</ele>
        <time>2026-04-25T10:34:34Z</time>
      </trkpt>
      <trkpt lat="40.653952024877071" lon="-2.586375027894974">
        <ele>852.89499999999998</ele>
        <time>2026-04-25T10:34:36Z</time>
      </trkpt>
      <trkpt lat="40.653961999341846" lon="-2.586339991539717">
        <ele>852.86000000000001</ele>
        <time>2026-04-25T10:34:38Z</time>
      </trkpt>
      <trkpt lat="40.65396904014051" lon="-2.586307972669601">
        <ele>853.22000000000003</ele>
        <time>2026-04-25T10:34:40Z</time>
      </trkpt>
      <trkpt lat="40.653970967978239" lon="-2.586274025961757">
        <ele>853.226</ele>
        <time>2026-04-25T10:34:42Z</time>
      </trkpt>
      <trkpt lat="40.653973985463381" lon="-2.5862389896065">
        <ele>853.25800000000004</ele>
        <time>2026-04-25T10:34:44Z</time>
      </trkpt>
      <trkpt lat="40.653980020433664" lon="-2.586204959079623">
        <ele>853.697</ele>
        <time>2026-04-25T10:34:46Z</time>
      </trkpt>
      <trkpt lat="40.653983959928155" lon="-2.586175035685301">
        <ele>853.82799999999997</ele>
        <time>2026-04-25T10:34:48Z</time>
      </trkpt>
      <trkpt lat="40.653986977413297" lon="-2.586143016815186">
        <ele>854.423</ele>
        <time>2026-04-25T10:34:50Z</time>
      </trkpt>
      <trkpt lat="40.653989994898438" lon="-2.586113009601831">
        <ele>854.63800000000003</ele>
        <time>2026-04-25T10:34:52Z</time>
      </trkpt>
      <trkpt lat="40.653995024040341" lon="-2.586078979074955">
        <ele>854.66999999999996</ele>
        <time>2026-04-25T10:34:54Z</time>
      </trkpt>
      <trkpt lat="40.653998963534832" lon="-2.586041009053588">
        <ele>855.01700000000005</ele>
        <time>2026-04-25T10:34:56Z</time>
      </trkpt>
      <trkpt lat="40.654006004333496" lon="-2.58600496686995">
        <ele>855.00900000000001</ele>
        <time>2026-04-25T10:34:58Z</time>
      </trkpt>
      <trkpt lat="40.654012961313128" lon="-2.585962973535061">
        <ele>854.89499999999998</ele>
        <time>2026-04-25T10:35:00Z</time>
      </trkpt>
      <trkpt lat="40.654021007940173" lon="-2.585921986028552">
        <ele>854.83900000000006</ele>
        <time>2026-04-25T10:35:02Z</time>
      </trkpt>
      <trkpt lat="40.654022013768554" lon="-2.585880998522043">
        <ele>854.69399999999996</ele>
        <time>2026-04-25T10:35:04Z</time>
      </trkpt>
      <trkpt lat="40.654018996283412" lon="-2.585846967995167">
        <ele>854.42399999999998</ele>
        <time>2026-04-25T10:35:06Z</time>
      </trkpt>
      <trkpt lat="40.654028970748186" lon="-2.585820984095335">
        <ele>854.24000000000001</ele>
        <time>2026-04-25T10:35:13Z</time>
      </trkpt>
      <trkpt lat="40.654043974354863" lon="-2.585796006023884">
        <ele>854.04200000000003</ele>
        <time>2026-04-25T10:35:15Z</time>
      </trkpt>
      <trkpt lat="40.65405897796154" lon="-2.585761975497007">
        <ele>854.08100000000002</ele>
        <time>2026-04-25T10:35:17Z</time>
      </trkpt>
      <trkpt lat="40.654075993224978" lon="-2.585734985768795">
        <ele>854.02200000000005</ele>
        <time>2026-04-25T10:35:19Z</time>
      </trkpt>
      <trkpt lat="40.654094014316797" lon="-2.585714031010866">
        <ele>854.06700000000001</ele>
        <time>2026-04-25T10:35:21Z</time>
      </trkpt>
      <trkpt lat="40.654110023751855" lon="-2.585691986605525">
        <ele>853.63300000000004</ele>
        <time>2026-04-25T10:35:23Z</time>
      </trkpt>
      <trkpt lat="40.654131984338164" lon="-2.585646975785494">
        <ele>853.82299999999998</ele>
        <time>2026-04-25T10:35:25Z</time>
      </trkpt>
      <trkpt lat="40.65414497628808" lon="-2.585615962743759">
        <ele>853.81500000000005</ele>
        <time>2026-04-25T10:35:26Z</time>
      </trkpt>
      <trkpt lat="40.654158974066377" lon="-2.585582016035914">
        <ele>854.20899999999995</ele>
        <time>2026-04-25T10:35:27Z</time>
      </trkpt>
      <trkpt lat="40.654171966016293" lon="-2.585546979680657">
        <ele>854.245</ele>
        <time>2026-04-25T10:35:28Z</time>
      </trkpt>
      <trkpt lat="40.65418504178524" lon="-2.585513032972813">
        <ele>854.47900000000004</ele>
        <time>2026-04-25T10:35:29Z</time>
      </trkpt>
      <trkpt lat="40.654195016250014" lon="-2.585484031587839">
        <ele>854.48400000000004</ele>
        <time>2026-04-25T10:35:30Z</time>
      </trkpt>
      <trkpt lat="40.654209014028311" lon="-2.585459975525737">
        <ele>854.69399999999996</ele>
        <time>2026-04-25T10:35:31Z</time>
      </trkpt>
      <trkpt lat="40.654222005978227" lon="-2.585440026596189">
        <ele>854.45000000000005</ele>
        <time>2026-04-25T10:35:32Z</time>
      </trkpt>
      <trkpt lat="40.654234997928143" lon="-2.585419993847609">
        <ele>854.28200000000004</ele>
        <time>2026-04-25T10:35:38Z</time>
      </trkpt>
      <trkpt lat="40.654243966564536" lon="-2.585385963320732">
        <ele>853.86099999999999</ele>
        <time>2026-04-25T10:35:39Z</time>
      </trkpt>
      <trkpt lat="40.654262993484735" lon="-2.585345981642604">
        <ele>853.87199999999996</ele>
        <time>2026-04-25T10:35:40Z</time>
      </trkpt>
      <trkpt lat="40.654277997091413" lon="-2.585300970822573">
        <ele>853.86699999999996</ele>
        <time>2026-04-25T10:35:41Z</time>
      </trkpt>
      <trkpt lat="40.65429300069809" lon="-2.585257971659303">
        <ele>853.66700000000003</ele>
        <time>2026-04-25T10:35:42Z</time>
      </trkpt>
      <trkpt lat="40.654305992648005" lon="-2.585214972496033">
        <ele>853.48099999999999</ele>
        <time>2026-04-25T10:35:43Z</time>
      </trkpt>
      <trkpt lat="40.654320996254683" lon="-2.585175996646285">
        <ele>853.41899999999998</ele>
        <time>2026-04-25T10:35:44Z</time>
      </trkpt>
      <trkpt lat="40.654334994032979" lon="-2.585135009139776">
        <ele>853.00900000000001</ele>
        <time>2026-04-25T10:35:45Z</time>
      </trkpt>
      <trkpt lat="40.654352009296417" lon="-2.585097039118409">
        <ele>853.06799999999998</ele>
        <time>2026-04-25T10:35:46Z</time>
      </trkpt>
      <trkpt lat="40.654367012903094" lon="-2.58505797944963">
        <ele>852.822</ele>
        <time>2026-04-25T10:35:47Z</time>
      </trkpt>
      <trkpt lat="40.65438000485301" lon="-2.58501598611474">
        <ele>852.67700000000002</ele>
        <time>2026-04-25T10:35:48Z</time>
      </trkpt>
      <trkpt lat="40.654389979317784" lon="-2.584977010264993">
        <ele>852.47699999999998</ele>
        <time>2026-04-25T10:35:49Z</time>
      </trkpt>
      <trkpt lat="40.654400959610939" lon="-2.584936022758484">
        <ele>852.63300000000004</ele>
        <time>2026-04-25T10:35:50Z</time>
      </trkpt>
      <trkpt lat="40.654413029551506" lon="-2.584897968918085">
        <ele>852.66499999999996</ele>
        <time>2026-04-25T10:35:51Z</time>
      </trkpt>
      <trkpt lat="40.65442300401628" lon="-2.584861004725099">
        <ele>852.81399999999996</ele>
        <time>2026-04-25T10:35:52Z</time>
      </trkpt>
      <trkpt lat="40.654429960995913" lon="-2.584824962541461">
        <ele>853.01499999999999</ele>
        <time>2026-04-25T10:35:53Z</time>
      </trkpt>
      <trkpt lat="40.654435995966196" lon="-2.584790010005236">
        <ele>853.22000000000003</ele>
        <time>2026-04-25T10:35:54Z</time>
      </trkpt>
      <trkpt lat="40.654439013451338" lon="-2.584755979478359">
        <ele>853.23699999999997</ele>
        <time>2026-04-25T10:35:55Z</time>
      </trkpt>
      <trkpt lat="40.65444303676486" lon="-2.584723038598895">
        <ele>853.44899999999996</ele>
        <time>2026-04-25T10:35:56Z</time>
      </trkpt>
      <trkpt lat="40.65444203093648" lon="-2.584694037213922">
        <ele>853.61300000000006</ele>
        <time>2026-04-25T10:35:57Z</time>
      </trkpt>
      <trkpt lat="40.65444203093648" lon="-2.584661012515426">
        <ele>854.00900000000001</ele>
        <time>2026-04-25T10:35:58Z</time>
      </trkpt>
      <trkpt lat="40.65444303676486" lon="-2.584625976160169">
        <ele>854.28499999999997</ele>
        <time>2026-04-25T10:35:59Z</time>
      </trkpt>
      <trkpt lat="40.65444496460259" lon="-2.584588006138802">
        <ele>854.46900000000005</ele>
        <time>2026-04-25T10:36:00Z</time>
      </trkpt>
      <trkpt lat="40.654446976259351" lon="-2.584550036117435">
        <ele>854.69399999999996</ele>
        <time>2026-04-25T10:36:01Z</time>
      </trkpt>
      <trkpt lat="40.65444303676486" lon="-2.584507036954165">
        <ele>854.63400000000001</ele>
        <time>2026-04-25T10:36:02Z</time>
      </trkpt>
      <trkpt lat="40.65444203093648" lon="-2.584467977285385">
        <ele>855.08000000000004</ele>
        <time>2026-04-25T10:36:03Z</time>
      </trkpt>
      <trkpt lat="40.65444303676486" lon="-2.584430007264018">
        <ele>855.26199999999994</ele>
        <time>2026-04-25T10:36:04Z</time>
      </trkpt>
      <trkpt lat="40.654450999572873" lon="-2.584396982565522">
        <ele>855.41099999999994</ele>
        <time>2026-04-25T10:36:05Z</time>
      </trkpt>
      <trkpt lat="40.654458040371537" lon="-2.584365969523788">
        <ele>855.85199999999998</ele>
        <time>2026-04-25T10:36:06Z</time>
      </trkpt>
      <trkpt lat="40.654467009007931" lon="-2.584331016987562">
        <ele>855.87699999999995</ele>
        <time>2026-04-25T10:36:07Z</time>
      </trkpt>
      <trkpt lat="40.654470026493073" lon="-2.584295980632305">
        <ele>856.05499999999995</ele>
        <time>2026-04-25T10:36:08Z</time>
      </trkpt>
      <trkpt lat="40.654475977644324" lon="-2.58426102809608">
        <ele>856.40700000000004</ele>
        <time>2026-04-25T10:36:09Z</time>
      </trkpt>
      <trkpt lat="40.654483018442988" lon="-2.584225991740823">
        <ele>856.61699999999996</ele>
        <time>2026-04-25T10:36:10Z</time>
      </trkpt>
      <trkpt lat="40.654490981251001" lon="-2.584194978699088">
        <ele>856.80899999999997</ele>
        <time>2026-04-25T10:36:11Z</time>
      </trkpt>
      <trkpt lat="40.654493998736143" lon="-2.584164971485734">
        <ele>857.04700000000003</ele>
        <time>2026-04-25T10:36:12Z</time>
      </trkpt>
      <trkpt lat="40.654498022049665" lon="-2.584135970100761">
        <ele>857.21100000000001</ele>
        <time>2026-04-25T10:36:13Z</time>
      </trkpt>
      <trkpt lat="40.654506990686059" lon="-2.584107974544168">
        <ele>857.66600000000005</ele>
        <time>2026-04-25T10:36:14Z</time>
      </trkpt>
      <trkpt lat="40.654514031484723" lon="-2.584082996472716">
        <ele>858.01599999999996</ele>
        <time>2026-04-25T10:36:15Z</time>
      </trkpt>
      <trkpt lat="40.654519982635975" lon="-2.584042008966208">
        <ele>858.64200000000005</ele>
        <time>2026-04-25T10:36:17Z</time>
      </trkpt>
      <trkpt lat="40.654527023434639" lon="-2.584015019237995">
        <ele>858.81399999999996</ele>
        <time>2026-04-25T10:36:18Z</time>
      </trkpt>
      <trkpt lat="40.65453196875751" lon="-2.583989035338163">
        <ele>858.88300000000004</ele>
        <time>2026-04-25T10:36:19Z</time>
      </trkpt>
      <trkpt lat="40.654536997899413" lon="-2.583963973447681">
        <ele>859.08399999999995</ele>
        <time>2026-04-25T10:36:20Z</time>
      </trkpt>
      <trkpt lat="40.654544960707426" lon="-2.583934972062707">
        <ele>859.45899999999995</ele>
        <time>2026-04-25T10:36:21Z</time>
      </trkpt>
      <trkpt lat="40.65455200150609" lon="-2.583906976506114">
        <ele>859.86099999999999</ele>
        <time>2026-04-25T10:36:22Z</time>
      </trkpt>
      <trkpt lat="40.654562981799245" lon="-2.58387696929276">
        <ele>860.02099999999996</ele>
        <time>2026-04-25T10:36:23Z</time>
      </trkpt>
      <trkpt lat="40.65457203425467" lon="-2.583846962079406">
        <ele>860.41300000000001</ele>
        <time>2026-04-25T10:36:24Z</time>
      </trkpt>
      <trkpt lat="40.654577985405922" lon="-2.583820978179574">
        <ele>860.60900000000004</ele>
        <time>2026-04-25T10:36:25Z</time>
      </trkpt>
      <trkpt lat="40.654584020376205" lon="-2.583789965137839">
        <ele>861.01800000000003</ele>
        <time>2026-04-25T10:36:26Z</time>
      </trkpt>
      <trkpt lat="40.654589971527457" lon="-2.583759035915136">
        <ele>861.21199999999999</ele>
        <time>2026-04-25T10:36:27Z</time>
      </trkpt>
      <trkpt lat="40.654592989012599" lon="-2.583729028701782">
        <ele>861.23699999999997</ele>
        <time>2026-04-25T10:36:28Z</time>
      </trkpt>
      <trkpt lat="40.65459399484098" lon="-2.583697009831667">
        <ele>861.49699999999996</ele>
        <time>2026-04-25T10:36:29Z</time>
      </trkpt>
      <trkpt lat="40.654592989012599" lon="-2.583664990961552">
        <ele>861.85299999999995</ele>
        <time>2026-04-25T10:36:30Z</time>
      </trkpt>
      <trkpt lat="40.654592989012599" lon="-2.583633977919817">
        <ele>862.09500000000003</ele>
        <time>2026-04-25T10:36:31Z</time>
      </trkpt>
      <trkpt lat="40.65459399484098" lon="-2.583601037040353">
        <ele>862.274</ele>
        <time>2026-04-25T10:36:32Z</time>
      </trkpt>
      <trkpt lat="40.65459399484098" lon="-2.583569018170238">
        <ele>862.255</ele>
        <time>2026-04-25T10:36:33Z</time>
      </trkpt>
      <trkpt lat="40.65459399484098" lon="-2.583539010956883">
        <ele>862.28999999999996</ele>
        <time>2026-04-25T10:36:34Z</time>
      </trkpt>
      <trkpt lat="40.65459500066936" lon="-2.583509003743529">
        <ele>862.42100000000005</ele>
        <time>2026-04-25T10:36:35Z</time>
      </trkpt>
      <trkpt lat="40.654596006497741" lon="-2.583478996530175">
        <ele>862.64099999999996</ele>
        <time>2026-04-25T10:36:36Z</time>
      </trkpt>
      <trkpt lat="40.654589971527457" lon="-2.583444966003299">
        <ele>862.80499999999995</ele>
        <time>2026-04-25T10:36:37Z</time>
      </trkpt>
      <trkpt lat="40.654581002891064" lon="-2.583412025123835">
        <ele>863.00900000000001</ele>
        <time>2026-04-25T10:36:38Z</time>
      </trkpt>
      <trkpt lat="40.654573040083051" lon="-2.583386041224003">
        <ele>863.07399999999996</ele>
        <time>2026-04-25T10:36:39Z</time>
      </trkpt>
      <trkpt lat="40.654558036476374" lon="-2.583357961848378">
        <ele>863.01800000000003</ele>
        <time>2026-04-25T10:36:40Z</time>
      </trkpt>
      <trkpt lat="40.654543032869697" lon="-2.583330972120166">
        <ele>863.27300000000002</ele>
        <time>2026-04-25T10:36:41Z</time>
      </trkpt>
      <trkpt lat="40.65453096292913" lon="-2.583305994048715">
        <ele>863.27300000000002</ele>
        <time>2026-04-25T10:36:42Z</time>
      </trkpt>
      <trkpt lat="40.654519982635975" lon="-2.583280010148883">
        <ele>863.49900000000002</ele>
        <time>2026-04-25T10:36:43Z</time>
      </trkpt>
      <trkpt lat="40.65450900234282" lon="-2.583256037905812">
        <ele>863.471</ele>
        <time>2026-04-25T10:36:44Z</time>
      </trkpt>
      <trkpt lat="40.654491987079382" lon="-2.583217984065414">
        <ele>863.69000000000005</ele>
        <time>2026-04-25T10:36:46Z</time>
      </trkpt>
      <trkpt lat="40.654476983472705" lon="-2.583184037357569">
        <ele>864.05100000000004</ele>
        <time>2026-04-25T10:36:48Z</time>
      </trkpt>
      <trkpt lat="40.654460974037647" lon="-2.583147995173931">
        <ele>864.25599999999997</ele>
        <time>2026-04-25T10:36:50Z</time>
      </trkpt>
      <trkpt lat="40.654448987916112" lon="-2.583122011274099">
        <ele>864.65800000000002</ele>
        <time>2026-04-25T10:36:52Z</time>
      </trkpt>
      <trkpt lat="40.654441025108099" lon="-2.583090998232365">
        <ele>864.85199999999998</ele>
        <time>2026-04-25T10:36:54Z</time>
      </trkpt>
      <trkpt lat="40.654435995966196" lon="-2.583057973533869">
        <ele>865.01700000000005</ele>
        <time>2026-04-25T10:36:56Z</time>
      </trkpt>
      <trkpt lat="40.654427027329803" lon="-2.58301698602736">
        <ele>865.00900000000001</ele>
        <time>2026-04-25T10:36:58Z</time>
      </trkpt>
      <trkpt lat="40.654417974874377" lon="-2.582978010177612">
        <ele>865.01700000000005</ele>
        <time>2026-04-25T10:37:00Z</time>
      </trkpt>
      <trkpt lat="40.654406994581223" lon="-2.582940962165594">
        <ele>865.25099999999998</ele>
        <time>2026-04-25T10:37:02Z</time>
      </trkpt>
      <trkpt lat="40.654391990974545" lon="-2.582906009629369">
        <ele>865.226</ele>
        <time>2026-04-25T10:37:04Z</time>
      </trkpt>
      <trkpt lat="40.654383022338152" lon="-2.582871979102492">
        <ele>865.49599999999998</ele>
        <time>2026-04-25T10:37:06Z</time>
      </trkpt>
      <trkpt lat="40.654372964054346" lon="-2.582834009081125">
        <ele>865.48199999999997</ele>
        <time>2026-04-25T10:37:08Z</time>
      </trkpt>
      <trkpt lat="40.654366007074714" lon="-2.58280199021101">
        <ele>865.45399999999995</ele>
        <time>2026-04-25T10:37:10Z</time>
      </trkpt>
      <trkpt lat="40.654353015124798" lon="-2.582768965512514">
        <ele>865.86300000000006</ele>
        <time>2026-04-25T10:37:12Z</time>
      </trkpt>
      <trkpt lat="40.654338011518121" lon="-2.582738036289811">
        <ele>866.26400000000001</ele>
        <time>2026-04-25T10:37:14Z</time>
      </trkpt>
      <trkpt lat="40.65431596711278" lon="-2.582714986056089">
        <ele>866.29899999999998</ele>
        <time>2026-04-25T10:37:16Z</time>
      </trkpt>
      <trkpt lat="40.65429400652647" lon="-2.582694031298161">
        <ele>866.64499999999998</ele>
        <time>2026-04-25T10:37:18Z</time>
      </trkpt>
      <trkpt lat="40.65427397377789" lon="-2.582675004377961">
        <ele>867.04700000000003</ele>
        <time>2026-04-25T10:37:20Z</time>
      </trkpt>
      <trkpt lat="40.654258970171213" lon="-2.58265295997262">
        <ele>867.21100000000001</ele>
        <time>2026-04-25T10:37:22Z</time>
      </trkpt>
      <trkpt lat="40.654242038726807" lon="-2.582632005214691">
        <ele>867.60900000000004</ele>
        <time>2026-04-25T10:37:24Z</time>
      </trkpt>
      <trkpt lat="40.654222005978227" lon="-2.582612978294492">
        <ele>868.41600000000005</ele>
        <time>2026-04-25T10:37:26Z</time>
      </trkpt>
      <trkpt lat="40.65420700237155" lon="-2.582588000223041">
        <ele>868.82000000000005</ele>
        <time>2026-04-25T10:37:29Z</time>
      </trkpt>
      <trkpt lat="40.654196022078395" lon="-2.582565033808351">
        <ele>870.29499999999996</ele>
        <time>2026-04-25T10:37:35Z</time>
      </trkpt>
      <trkpt lat="40.65418797545135" lon="-2.582541983574629">
        <ele>870.255</ele>
        <time>2026-04-25T10:37:37Z</time>
      </trkpt>
      <trkpt lat="40.654194010421634" lon="-2.582512982189655">
        <ele>870.44100000000003</ele>
        <time>2026-04-25T10:37:39Z</time>
      </trkpt>
      <trkpt lat="40.654204990714788" lon="-2.582486998289824">
        <ele>870.84299999999996</ele>
        <time>2026-04-25T10:37:41Z</time>
      </trkpt>
      <trkpt lat="40.654226029291749" lon="-2.582465959712863">
        <ele>871.61199999999997</ele>
        <time>2026-04-25T10:37:44Z</time>
      </trkpt>
      <trkpt lat="40.654243966564536" lon="-2.582443999126554">
        <ele>871.89300000000003</ele>
        <time>2026-04-25T10:37:46Z</time>
      </trkpt>
      <trkpt lat="40.654256036505103" lon="-2.582419021055102">
        <ele>872.06799999999998</ele>
        <time>2026-04-25T10:37:48Z</time>
      </trkpt>
      <trkpt lat="40.65427104011178" lon="-2.582391025498509">
        <ele>872.27200000000005</ele>
        <time>2026-04-25T10:37:50Z</time>
      </trkpt>
      <trkpt lat="40.654281014576554" lon="-2.582362024113536">
        <ele>872.61300000000006</ele>
        <time>2026-04-25T10:37:52Z</time>
      </trkpt>
      <trkpt lat="40.654283026233315" lon="-2.58232899941504">
        <ele>873.21400000000006</ele>
        <time>2026-04-25T10:37:54Z</time>
      </trkpt>
      <trkpt lat="40.654280008748174" lon="-2.582296980544925">
        <ele>873.80899999999997</ele>
        <time>2026-04-25T10:37:56Z</time>
      </trkpt>
      <trkpt lat="40.654282020404935" lon="-2.582267979159951">
        <ele>874.28899999999999</ele>
        <time>2026-04-25T10:37:58Z</time>
      </trkpt>
      <trkpt lat="40.654275985434651" lon="-2.5822430010885">
        <ele>875.26300000000003</ele>
        <time>2026-04-25T10:38:01Z</time>
      </trkpt>
      <trkpt lat="40.65427296794951" lon="-2.582217017188668">
        <ele>875.45799999999997</ele>
        <time>2026-04-25T10:38:03Z</time>
      </trkpt>
      <trkpt lat="40.654265005141497" lon="-2.582184998318553">
        <ele>875.66800000000001</ele>
        <time>2026-04-25T10:38:05Z</time>
      </trkpt>
      <trkpt lat="40.654256036505103" lon="-2.582155996933579">
        <ele>876.03399999999999</ele>
        <time>2026-04-25T10:38:07Z</time>
      </trkpt>
      <trkpt lat="40.654238015413284" lon="-2.582130013033748">
        <ele>876.24599999999998</ele>
        <time>2026-04-25T10:38:09Z</time>
      </trkpt>
      <trkpt lat="40.654215971007943" lon="-2.582120960578322">
        <ele>877.09500000000003</ele>
        <time>2026-04-25T10:38:11Z</time>
      </trkpt>
      <trkpt lat="40.654195016250014" lon="-2.582104029133916">
        <ele>877.26599999999996</ele>
        <time>2026-04-25T10:38:13Z</time>
      </trkpt>
      <trkpt lat="40.654180012643337" lon="-2.582085002213717">
        <ele>877.42100000000005</ele>
        <time>2026-04-25T10:38:15Z</time>
      </trkpt>
      <trkpt lat="40.654172971844673" lon="-2.582057006657124">
        <ele>878.29499999999996</ele>
        <time>2026-04-25T10:38:18Z</time>
      </trkpt>
      <trkpt lat="40.654188981279731" lon="-2.582034962251782">
        <ele>878.44899999999996</ele>
        <time>2026-04-25T10:38:20Z</time>
      </trkpt>
      <trkpt lat="40.65420700237155" lon="-2.582016019150615">
        <ele>878.82299999999998</ele>
        <time>2026-04-25T10:38:22Z</time>
      </trkpt>
      <trkpt lat="40.654225023463368" lon="-2.582000009715557">
        <ele>879.20899999999995</ele>
        <time>2026-04-25T10:38:24Z</time>
      </trkpt>
      <trkpt lat="40.654241032898426" lon="-2.58198500610888">
        <ele>879.851</ele>
        <time>2026-04-25T10:38:26Z</time>
      </trkpt>
      <trkpt lat="40.654255030676723" lon="-2.581968996673822">
        <ele>880.44500000000005</ele>
        <time>2026-04-25T10:38:29Z</time>
      </trkpt>
      <trkpt lat="40.654269028455019" lon="-2.581953993067145">
        <ele>880.69000000000005</ele>
        <time>2026-04-25T10:38:31Z</time>
      </trkpt>
      <trkpt lat="40.654290989041328" lon="-2.581938989460468">
        <ele>880.88999999999999</ele>
        <time>2026-04-25T10:38:33Z</time>
      </trkpt>
      <trkpt lat="40.654305992648005" lon="-2.58192197419703">
        <ele>881.28599999999994</ele>
        <time>2026-04-25T10:38:35Z</time>
      </trkpt>
      <trkpt lat="40.654322002083063" lon="-2.581894984468818">
        <ele>882.05799999999999</ele>
        <time>2026-04-25T10:38:38Z</time>
      </trkpt>
      <trkpt lat="40.654340023174882" lon="-2.58187796920538">
        <ele>882.04700000000003</ele>
        <time>2026-04-25T10:38:40Z</time>
      </trkpt>
      <trkpt lat="40.654354020953178" lon="-2.581852991133928">
        <ele>882.64800000000002</ele>
        <time>2026-04-25T10:38:42Z</time>
      </trkpt>
      <trkpt lat="40.654373969882727" lon="-2.581833964213729">
        <ele>883.07299999999998</ele>
        <time>2026-04-25T10:38:44Z</time>
      </trkpt>
      <trkpt lat="40.654398025944829" lon="-2.581818960607052">
        <ele>883.476</ele>
        <time>2026-04-25T10:38:46Z</time>
      </trkpt>
      <trkpt lat="40.654417974874377" lon="-2.581800017505884">
        <ele>883.88999999999999</ele>
        <time>2026-04-25T10:38:48Z</time>
      </trkpt>
      <trkpt lat="40.654430966824293" lon="-2.581774033606052">
        <ele>884.21900000000005</ele>
        <time>2026-04-25T10:38:50Z</time>
      </trkpt>
      <trkpt lat="40.654439013451338" lon="-2.58174603804946">
        <ele>884.80899999999997</ele>
        <time>2026-04-25T10:38:52Z</time>
      </trkpt>
      <trkpt lat="40.654443958774209" lon="-2.581716030836105">
        <ele>885.25900000000001</ele>
        <time>2026-04-25T10:38:54Z</time>
      </trkpt>
      <trkpt lat="40.654439013451338" lon="-2.581692980602384">
        <ele>885.47299999999996</ele>
        <time>2026-04-25T10:38:55Z</time>
      </trkpt>
      <trkpt lat="40.654412023723125" lon="-2.581666996702552">
        <ele>885.81799999999998</ele>
        <time>2026-04-25T10:38:57Z</time>
      </trkpt>
      <trkpt lat="40.654387967661023" lon="-2.581654004752636">
        <ele>886.28800000000001</ele>
        <time>2026-04-25T10:38:59Z</time>
      </trkpt>
      <trkpt lat="40.654363995417953" lon="-2.581644030287862">
        <ele>886.42399999999998</ele>
        <time>2026-04-25T10:39:01Z</time>
      </trkpt>
      <trkpt lat="40.654343040660024" lon="-2.581627015024424">
        <ele>886.49599999999998</ele>
        <time>2026-04-25T10:39:03Z</time>
      </trkpt>
      <trkpt lat="40.654324013739824" lon="-2.581609999760985">
        <ele>886.82500000000005</ele>
        <time>2026-04-25T10:39:05Z</time>
      </trkpt>
      <trkpt lat="40.654300963506103" lon="-2.581593990325928">
        <ele>887.29600000000005</ele>
        <time>2026-04-25T10:39:07Z</time>
      </trkpt>
      <trkpt lat="40.654285037890077" lon="-2.581575969234109">
        <ele>887.83100000000002</ele>
        <time>2026-04-25T10:39:09Z</time>
      </trkpt>
      <trkpt lat="40.654267016798258" lon="-2.581561971455813">
        <ele>888.48500000000001</ele>
        <time>2026-04-25T10:39:11Z</time>
      </trkpt>
      <trkpt lat="40.654246984049678" lon="-2.581548979505897">
        <ele>888.88900000000001</ele>
        <time>2026-04-25T10:39:13Z</time>
      </trkpt>
      <trkpt lat="40.654228962957859" lon="-2.581530036404729">
        <ele>889.01700000000005</ele>
        <time>2026-04-25T10:39:15Z</time>
      </trkpt>
      <trkpt lat="40.654209014028311" lon="-2.581508997827768">
        <ele>889.40899999999999</ele>
        <time>2026-04-25T10:39:17Z</time>
      </trkpt>
      <trkpt lat="40.654189987108111" lon="-2.581488965079188">
        <ele>890.02999999999997</ele>
        <time>2026-04-25T10:39:19Z</time>
      </trkpt>
      <trkpt lat="40.654170960187912" lon="-2.58146901614964">
        <ele>890.61400000000003</ele>
        <time>2026-04-25T10:39:21Z</time>
      </trkpt>
      <trkpt lat="40.654154028743505" lon="-2.58144898340106">
        <ele>891.07899999999995</ele>
        <time>2026-04-25T10:39:23Z</time>
      </trkpt>
      <trkpt lat="40.654133995994925" lon="-2.581435991451144">
        <ele>891.69899999999996</ele>
        <time>2026-04-25T10:39:25Z</time>
      </trkpt>
      <trkpt lat="40.654114969074726" lon="-2.581420987844467">
        <ele>892.09500000000003</ele>
        <time>2026-04-25T10:39:27Z</time>
      </trkpt>
      <trkpt lat="40.654094014316797" lon="-2.58140497840941">
        <ele>892.68700000000001</ele>
        <time>2026-04-25T10:39:29Z</time>
      </trkpt>
      <trkpt lat="40.654072975739837" lon="-2.581397015601397">
        <ele>892.81600000000003</ele>
        <time>2026-04-25T10:39:31Z</time>
      </trkpt>
      <trkpt lat="40.654052020981908" lon="-2.581387963145971">
        <ele>893.25699999999995</ele>
        <time>2026-04-25T10:39:33Z</time>
      </trkpt>
      <trkpt lat="40.654025031253695" lon="-2.581374971196055">
        <ele>893.88199999999995</ele>
        <time>2026-04-25T10:39:36Z</time>
      </trkpt>
      <trkpt lat="40.653999969363213" lon="-2.58136197924614">
        <ele>894.25699999999995</ele>
        <time>2026-04-25T10:39:38Z</time>
      </trkpt>
      <trkpt lat="40.653975997120142" lon="-2.581350998952985">
        <ele>894.79999999999995</ele>
        <time>2026-04-25T10:39:40Z</time>
      </trkpt>
      <trkpt lat="40.653952024877071" lon="-2.581337001174688">
        <ele>895.01999999999998</ele>
        <time>2026-04-25T10:39:42Z</time>
      </trkpt>
      <trkpt lat="40.65392998047173" lon="-2.58131898008287">
        <ele>895.40899999999999</ele>
        <time>2026-04-25T10:39:44Z</time>
      </trkpt>
      <trkpt lat="40.653909025713801" lon="-2.581303976476193">
        <ele>896.08699999999999</ele>
        <time>2026-04-25T10:39:46Z</time>
      </trkpt>
      <trkpt lat="40.653892010450363" lon="-2.581288972869515">
        <ele>896.43100000000004</ele>
        <time>2026-04-25T10:39:48Z</time>
      </trkpt>
      <trkpt lat="40.653876001015306" lon="-2.581268018111587">
        <ele>896.81600000000003</ele>
        <time>2026-04-25T10:39:50Z</time>
      </trkpt>
      <trkpt lat="40.653862003237009" lon="-2.581243040040135">
        <ele>897.23599999999999</ele>
        <time>2026-04-25T10:39:52Z</time>
      </trkpt>
      <trkpt lat="40.653850017115474" lon="-2.581219989806414">
        <ele>897.83199999999999</ele>
        <time>2026-04-25T10:39:54Z</time>
      </trkpt>
      <trkpt lat="40.653835013508797" lon="-2.581203980371356">
        <ele>898.09400000000005</ele>
        <time>2026-04-25T10:39:56Z</time>
      </trkpt>
      <trkpt lat="40.653826966881752" lon="-2.581182019785047">
        <ele>898.553</ele>
        <time>2026-04-25T10:39:58Z</time>
      </trkpt>
      <trkpt lat="40.65382000990212" lon="-2.581156035885215">
        <ele>899.08399999999995</ele>
        <time>2026-04-25T10:40:00Z</time>
      </trkpt>
      <trkpt lat="40.653809029608965" lon="-2.581132985651493">
        <ele>899.56899999999996</ele>
        <time>2026-04-25T10:40:02Z</time>
      </trkpt>
      <trkpt lat="40.65380098298192" lon="-2.581107001751661">
        <ele>900.053</ele>
        <time>2026-04-25T10:40:04Z</time>
      </trkpt>
      <trkpt lat="40.653791008517146" lon="-2.581076994538307">
        <ele>900.20399999999995</ele>
        <time>2026-04-25T10:40:06Z</time>
      </trkpt>
      <trkpt lat="40.653781034052372" lon="-2.581043969839811">
        <ele>900.61400000000003</ele>
        <time>2026-04-25T10:40:08Z</time>
      </trkpt>
      <trkpt lat="40.65377801656723" lon="-2.581011028960347">
        <ele>901.00900000000001</ele>
        <time>2026-04-25T10:40:10Z</time>
      </trkpt>
      <trkpt lat="40.653780028223991" lon="-2.580979010090232">
        <ele>901.01700000000005</ele>
        <time>2026-04-25T10:40:12Z</time>
      </trkpt>
      <trkpt lat="40.653786985203624" lon="-2.580945985391736">
        <ele>901.49099999999999</ele>
        <time>2026-04-25T10:40:14Z</time>
      </trkpt>
      <trkpt lat="40.653794026002288" lon="-2.580913966521621">
        <ele>901.66600000000005</ele>
        <time>2026-04-25T10:40:16Z</time>
      </trkpt>
      <trkpt lat="40.653801988810301" lon="-2.580885970965028">
        <ele>901.62599999999998</ele>
        <time>2026-04-25T10:40:18Z</time>
      </trkpt>
      <trkpt lat="40.653813974931836" lon="-2.580863004550338">
        <ele>901.85199999999998</ele>
        <time>2026-04-25T10:40:20Z</time>
      </trkpt>
      <trkpt lat="40.653827972710133" lon="-2.580835008993745">
        <ele>902.024</ele>
        <time>2026-04-25T10:40:22Z</time>
      </trkpt>
      <trkpt lat="40.653838030993938" lon="-2.580801984295249">
        <ele>902.45299999999997</ele>
        <time>2026-04-25T10:40:24Z</time>
      </trkpt>
      <trkpt lat="40.653849011287093" lon="-2.580767031759024">
        <ele>902.67399999999998</ele>
        <time>2026-04-25T10:40:26Z</time>
      </trkpt>
      <trkpt lat="40.653862003237009" lon="-2.58073702454567">
        <ele>903.07899999999995</ele>
        <time>2026-04-25T10:40:28Z</time>
      </trkpt>
      <trkpt lat="40.653873989358544" lon="-2.580709028989077">
        <ele>903.47500000000002</ele>
        <time>2026-04-25T10:40:30Z</time>
      </trkpt>
      <trkpt lat="40.653887987136841" lon="-2.580676004290581">
        <ele>903.82799999999997</ele>
        <time>2026-04-25T10:40:32Z</time>
      </trkpt>
      <trkpt lat="40.653901984915137" lon="-2.580643985420466">
        <ele>904.22000000000003</ele>
        <time>2026-04-25T10:40:34Z</time>
      </trkpt>
      <trkpt lat="40.653914976865053" lon="-2.580626970157027">
        <ele>904.40899999999999</ele>
        <time>2026-04-25T10:40:35Z</time>
      </trkpt>
      <trkpt lat="40.65392998047173" lon="-2.580607021227479">
        <ele>904.65899999999999</ele>
        <time>2026-04-25T10:40:36Z</time>
      </trkpt>
      <trkpt lat="40.653945989906788" lon="-2.580581037327647">
        <ele>904.81299999999999</ele>
        <time>2026-04-25T10:40:37Z</time>
      </trkpt>
      <trkpt lat="40.653965016826987" lon="-2.580556981265545">
        <ele>905.09799999999996</ele>
        <time>2026-04-25T10:40:38Z</time>
      </trkpt>
      <trkpt lat="40.653983959928155" lon="-2.580532003194094">
        <ele>905.05799999999999</ele>
        <time>2026-04-25T10:40:39Z</time>
      </trkpt>
      <trkpt lat="40.654004998505116" lon="-2.58050300180912">
        <ele>905.05399999999997</ele>
        <time>2026-04-25T10:40:40Z</time>
      </trkpt>
      <trkpt lat="40.654022013768554" lon="-2.580471988767386">
        <ele>905.27599999999995</ele>
        <time>2026-04-25T10:40:41Z</time>
      </trkpt>
      <trkpt lat="40.654038023203611" lon="-2.580440975725651">
        <ele>905.625</ele>
        <time>2026-04-25T10:40:42Z</time>
      </trkpt>
      <trkpt lat="40.65405503846705" lon="-2.580411974340677">
        <ele>905.88599999999997</ele>
        <time>2026-04-25T10:40:43Z</time>
      </trkpt>
      <trkpt lat="40.654072975739837" lon="-2.580383978784084">
        <ele>906.07100000000003</ele>
        <time>2026-04-25T10:40:44Z</time>
      </trkpt>
      <trkpt lat="40.654093008488417" lon="-2.580359000712633">
        <ele>906.06299999999999</ele>
        <time>2026-04-25T10:40:45Z</time>
      </trkpt>
      <trkpt lat="40.654113041236997" lon="-2.580334022641182">
        <ele>906.24400000000003</ele>
        <time>2026-04-25T10:40:46Z</time>
      </trkpt>
      <trkpt lat="40.654130978509784" lon="-2.58030703291297">
        <ele>906.41800000000001</ele>
        <time>2026-04-25T10:40:47Z</time>
      </trkpt>
      <trkpt lat="40.654145982116461" lon="-2.580277025699616">
        <ele>906.60900000000004</ele>
        <time>2026-04-25T10:40:48Z</time>
      </trkpt>
      <trkpt lat="40.654162997379899" lon="-2.58024400100112">
        <ele>907.26800000000003</ele>
        <time>2026-04-25T10:40:49Z</time>
      </trkpt>
      <trkpt lat="40.654170960187912" lon="-2.580212987959385">
        <ele>907.23199999999997</ele>
        <time>2026-04-25T10:40:50Z</time>
      </trkpt>
      <trkpt lat="40.654176995158195" lon="-2.580183986574411">
        <ele>907.66700000000003</ele>
        <time>2026-04-25T10:40:51Z</time>
      </trkpt>
      <trkpt lat="40.654181018471718" lon="-2.580160014331341">
        <ele>907.83699999999999</ele>
        <time>2026-04-25T10:40:52Z</time>
      </trkpt>
      <trkpt lat="40.654183030128479" lon="-2.580124977976084">
        <ele>908.48299999999995</ele>
        <time>2026-04-25T10:40:54Z</time>
      </trkpt>
      <trkpt lat="40.654182024300098" lon="-2.580090025439858">
        <ele>908.83500000000004</ele>
        <time>2026-04-25T10:40:57Z</time>
      </trkpt>
      <trkpt lat="40.654176995158195" lon="-2.580060018226504">
        <ele>909.09400000000005</ele>
        <time>2026-04-25T10:40:59Z</time>
      </trkpt>
      <trkpt lat="40.654173977673054" lon="-2.580033028498292">
        <ele>909.27499999999998</ele>
        <time>2026-04-25T10:41:00Z</time>
      </trkpt>
      <trkpt lat="40.654170038178563" lon="-2.580004027113318">
        <ele>909.21000000000004</ele>
        <time>2026-04-25T10:41:01Z</time>
      </trkpt>
      <trkpt lat="40.654170960187912" lon="-2.579973014071584">
        <ele>909.43100000000004</ele>
        <time>2026-04-25T10:41:02Z</time>
      </trkpt>
      <trkpt lat="40.654174983501434" lon="-2.579946024343371">
        <ele>909.66099999999994</ele>
        <time>2026-04-25T10:41:03Z</time>
      </trkpt>
      <trkpt lat="40.654181018471718" lon="-2.579919034615159">
        <ele>909.80700000000002</ele>
        <time>2026-04-25T10:41:04Z</time>
      </trkpt>
      <trkpt lat="40.65418403595686" lon="-2.579891039058566">
        <ele>910.00900000000001</ele>
        <time>2026-04-25T10:41:05Z</time>
      </trkpt>
      <trkpt lat="40.65418403595686" lon="-2.579863965511322">
        <ele>910.46500000000003</ele>
        <time>2026-04-25T10:41:06Z</time>
      </trkpt>
      <trkpt lat="40.65418504178524" lon="-2.579838987439871">
        <ele>910.899</ele>
        <time>2026-04-25T10:41:07Z</time>
      </trkpt>
      <trkpt lat="40.654188981279731" lon="-2.579816021025181">
        <ele>911.01400000000001</ele>
        <time>2026-04-25T10:41:08Z</time>
      </trkpt>
      <trkpt lat="40.654210019856691" lon="-2.579776961356401">
        <ele>911.47400000000005</ele>
        <time>2026-04-25T10:41:10Z</time>
      </trkpt>
      <trkpt lat="40.654225023463368" lon="-2.579752989113331">
        <ele>911.83000000000004</ele>
        <time>2026-04-25T10:41:11Z</time>
      </trkpt>
      <trkpt lat="40.654240027070045" lon="-2.579730022698641">
        <ele>912.072</ele>
        <time>2026-04-25T10:41:12Z</time>
      </trkpt>
      <trkpt lat="40.654259975999594" lon="-2.57970898412168">
        <ele>912.07100000000003</ele>
        <time>2026-04-25T10:41:13Z</time>
      </trkpt>
      <trkpt lat="40.654282020404935" lon="-2.579691968858242">
        <ele>912.28200000000004</ele>
        <time>2026-04-25T10:41:14Z</time>
      </trkpt>
      <trkpt lat="40.654300963506103" lon="-2.579675037413836">
        <ele>912.447</ele>
        <time>2026-04-25T10:41:15Z</time>
      </trkpt>
      <trkpt lat="40.65431596711278" lon="-2.579656010493636">
        <ele>912.69799999999998</ele>
        <time>2026-04-25T10:41:16Z</time>
      </trkpt>
      <trkpt lat="40.654328959062696" lon="-2.579637989401817">
        <ele>913.01499999999999</ele>
        <time>2026-04-25T10:41:17Z</time>
      </trkpt>
      <trkpt lat="40.654343962669373" lon="-2.579619968309999">
        <ele>913.02599999999995</ele>
        <time>2026-04-25T10:41:18Z</time>
      </trkpt>
      <trkpt lat="40.65435703843832" lon="-2.579598007723689">
        <ele>913.20899999999995</ele>
        <time>2026-04-25T10:41:19Z</time>
      </trkpt>
      <trkpt lat="40.654368018731475" lon="-2.579574035480619">
        <ele>913.49099999999999</ele>
        <time>2026-04-25T10:41:20Z</time>
      </trkpt>
      <trkpt lat="40.654373969882727" lon="-2.579546039924026">
        <ele>913.245</ele>
        <time>2026-04-25T10:41:21Z</time>
      </trkpt>
      <trkpt lat="40.65438000485301" lon="-2.579515026882291">
        <ele>913.45000000000005</ele>
        <time>2026-04-25T10:41:22Z</time>
      </trkpt>
      <trkpt lat="40.654385033994913" lon="-2.579484013840556">
        <ele>913.41999999999996</ele>
        <time>2026-04-25T10:41:23Z</time>
      </trkpt>
      <trkpt lat="40.654391990974545" lon="-2.579456018283963">
        <ele>913.63599999999997</ele>
        <time>2026-04-25T10:41:24Z</time>
      </trkpt>
      <trkpt lat="40.65439903177321" lon="-2.579425005242229">
        <ele>913.48800000000006</ele>
        <time>2026-04-25T10:41:25Z</time>
      </trkpt>
      <trkpt lat="40.654404982924461" lon="-2.579394998028874">
        <ele>913.65700000000004</ele>
        <time>2026-04-25T10:41:26Z</time>
      </trkpt>
      <trkpt lat="40.654412023723125" lon="-2.57936499081552">
        <ele>913.63800000000003</ele>
        <time>2026-04-25T10:41:27Z</time>
      </trkpt>
      <trkpt lat="40.654417974874377" lon="-2.579334983602166">
        <ele>913.82299999999998</ele>
        <time>2026-04-25T10:41:28Z</time>
      </trkpt>
      <trkpt lat="40.654420992359519" lon="-2.579304976388812">
        <ele>913.81899999999996</ele>
        <time>2026-04-25T10:41:29Z</time>
      </trkpt>
      <trkpt lat="40.654418980702758" lon="-2.57927899248898">
        <ele>913.80899999999997</ele>
        <time>2026-04-25T10:41:30Z</time>
      </trkpt>
      <trkpt lat="40.654419986531138" lon="-2.579254014417529">
        <ele>913.81899999999996</ele>
        <time>2026-04-25T10:41:31Z</time>
      </trkpt>
      <trkpt lat="40.654424009844661" lon="-2.579230964183807">
        <ele>914.00900000000001</ele>
        <time>2026-04-25T10:41:32Z</time>
      </trkpt>
      <trkpt lat="40.654429038986564" lon="-2.579205986112356">
        <ele>914.22299999999996</ele>
        <time>2026-04-25T10:41:33Z</time>
      </trkpt>
      <trkpt lat="40.654438007622957" lon="-2.579176984727383">
        <ele>914.48699999999997</ele>
        <time>2026-04-25T10:41:34Z</time>
      </trkpt>
      <trkpt lat="40.65444303676486" lon="-2.579145971685648">
        <ele>914.48199999999997</ele>
        <time>2026-04-25T10:41:35Z</time>
      </trkpt>
      <trkpt lat="40.654446976259351" lon="-2.579114036634564">
        <ele>914.61199999999997</ele>
        <time>2026-04-25T10:41:36Z</time>
      </trkpt>
      <trkpt lat="40.654446976259351" lon="-2.57908302359283">
        <ele>914.678</ele>
        <time>2026-04-25T10:41:37Z</time>
      </trkpt>
      <trkpt lat="40.654446976259351" lon="-2.579057039692998">
        <ele>914.62</ele>
        <time>2026-04-25T10:41:38Z</time>
      </trkpt>
      <trkpt lat="40.654458040371537" lon="-2.579013034701347">
        <ele>915.029</ele>
        <time>2026-04-25T10:41:40Z</time>
      </trkpt>
      <trkpt lat="40.654463991522789" lon="-2.578984033316374">
        <ele>915.21000000000004</ele>
        <time>2026-04-25T10:41:41Z</time>
      </trkpt>
      <trkpt lat="40.654470026493073" lon="-2.5789550319314">
        <ele>915.255</ele>
        <time>2026-04-25T10:41:42Z</time>
      </trkpt>
      <trkpt lat="40.654476983472705" lon="-2.578924018889666">
        <ele>915.47400000000005</ele>
        <time>2026-04-25T10:41:43Z</time>
      </trkpt>
      <trkpt lat="40.654481006786227" lon="-2.57889200001955">
        <ele>915.45600000000002</ele>
        <time>2026-04-25T10:41:44Z</time>
      </trkpt>
      <trkpt lat="40.65448603592813" lon="-2.578859981149435">
        <ele>915.62099999999998</ele>
        <time>2026-04-25T10:41:45Z</time>
      </trkpt>
      <trkpt lat="40.65448796376586" lon="-2.57882796227932">
        <ele>915.60900000000004</ele>
        <time>2026-04-25T10:41:46Z</time>
      </trkpt>
      <trkpt lat="40.65448896959424" lon="-2.578795021399856">
        <ele>915.649</ele>
        <time>2026-04-25T10:41:47Z</time>
      </trkpt>
      <trkpt lat="40.654489975422621" lon="-2.578764008358121">
        <ele>915.68299999999999</ele>
        <time>2026-04-25T10:41:48Z</time>
      </trkpt>
      <trkpt lat="40.654489975422621" lon="-2.578732995316386">
        <ele>916.03800000000001</ele>
        <time>2026-04-25T10:41:49Z</time>
      </trkpt>
      <trkpt lat="40.654495004564524" lon="-2.578701982274652">
        <ele>916.27800000000002</ele>
        <time>2026-04-25T10:41:50Z</time>
      </trkpt>
      <trkpt lat="40.654499027878046" lon="-2.578671975061297">
        <ele>916.46400000000006</ele>
        <time>2026-04-25T10:41:51Z</time>
      </trkpt>
      <trkpt lat="40.654501961544156" lon="-2.578642973676324">
        <ele>916.61599999999999</ele>
        <time>2026-04-25T10:41:52Z</time>
      </trkpt>
      <trkpt lat="40.654500033706427" lon="-2.578615983948112">
        <ele>916.63499999999999</ele>
        <time>2026-04-25T10:41:53Z</time>
      </trkpt>
      <trkpt lat="40.654499027878046" lon="-2.578592011705041">
        <ele>917.01599999999996</ele>
        <time>2026-04-25T10:41:54Z</time>
      </trkpt>
      <trkpt lat="40.654502967372537" lon="-2.57856703363359">
        <ele>917.221</ele>
        <time>2026-04-25T10:41:55Z</time>
      </trkpt>
      <trkpt lat="40.654506990686059" lon="-2.578542977571487">
        <ele>917.29899999999998</ele>
        <time>2026-04-25T10:41:56Z</time>
      </trkpt>
      <trkpt lat="40.654518976807594" lon="-2.578512970358133">
        <ele>917.60699999999997</ele>
        <time>2026-04-25T10:41:59Z</time>
      </trkpt>
      <trkpt lat="40.654541021212935" lon="-2.578476006165147">
        <ele>917.62699999999995</ele>
        <time>2026-04-25T10:42:01Z</time>
      </trkpt>
      <trkpt lat="40.65455099567771" lon="-2.578453039750457">
        <ele>917.80899999999997</ele>
        <time>2026-04-25T10:42:02Z</time>
      </trkpt>
      <trkpt lat="40.654565999284387" lon="-2.57841900922358">
        <ele>918.25099999999998</ele>
        <time>2026-04-25T10:42:04Z</time>
      </trkpt>
      <trkpt lat="40.654579997062683" lon="-2.578389002010226">
        <ele>918.66499999999996</ele>
        <time>2026-04-25T10:42:06Z</time>
      </trkpt>
      <trkpt lat="40.654602963477373" lon="-2.578350026160479">
        <ele>919.00999999999999</ele>
        <time>2026-04-25T10:42:08Z</time>
      </trkpt>
      <trkpt lat="40.654611010104418" lon="-2.578322030603886">
        <ele>919.23000000000002</ele>
        <time>2026-04-25T10:42:09Z</time>
      </trkpt>
      <trkpt lat="40.654618972912431" lon="-2.578293029218912">
        <ele>919.46600000000001</ele>
        <time>2026-04-25T10:42:10Z</time>
      </trkpt>
      <trkpt lat="40.654622996225953" lon="-2.5782660394907">
        <ele>919.49800000000005</ele>
        <time>2026-04-25T10:42:11Z</time>
      </trkpt>
      <trkpt lat="40.654630037024617" lon="-2.578239971771836">
        <ele>919.68700000000001</ele>
        <time>2026-04-25T10:42:12Z</time>
      </trkpt>
      <trkpt lat="40.654648980125785" lon="-2.578207030892372">
        <ele>919.89800000000002</ele>
        <time>2026-04-25T10:42:14Z</time>
      </trkpt>
      <trkpt lat="40.654676975682378" lon="-2.578175012022257">
        <ele>920.45299999999997</ele>
        <time>2026-04-25T10:42:16Z</time>
      </trkpt>
      <trkpt lat="40.654689967632294" lon="-2.578153973445296">
        <ele>920.61099999999999</ele>
        <time>2026-04-25T10:42:17Z</time>
      </trkpt>
      <trkpt lat="40.654702037572861" lon="-2.578132012858987">
        <ele>920.62099999999998</ele>
        <time>2026-04-25T10:42:18Z</time>
      </trkpt>
      <trkpt lat="40.654713017866015" lon="-2.578108962625265">
        <ele>920.803</ele>
        <time>2026-04-25T10:42:19Z</time>
      </trkpt>
      <trkpt lat="40.65472399815917" lon="-2.578084990382195">
        <ele>921.00900000000001</ele>
        <time>2026-04-25T10:42:20Z</time>
      </trkpt>
      <trkpt lat="40.654731038957834" lon="-2.578056994825602">
        <ele>921.09299999999996</ele>
        <time>2026-04-25T10:42:21Z</time>
      </trkpt>
      <trkpt lat="40.654733972623944" lon="-2.578028999269009">
        <ele>921.28700000000003</ele>
        <time>2026-04-25T10:42:22Z</time>
      </trkpt>
      <trkpt lat="40.65474302507937" lon="-2.578003015369177">
        <ele>921.41200000000003</ele>
        <time>2026-04-25T10:42:23Z</time>
      </trkpt>
      <trkpt lat="40.654752999544144" lon="-2.577978037297726">
        <ele>921.67200000000003</ele>
        <time>2026-04-25T10:42:24Z</time>
      </trkpt>
      <trkpt lat="40.654763979837298" lon="-2.577950963750482">
        <ele>921.678</ele>
        <time>2026-04-25T10:42:25Z</time>
      </trkpt>
      <trkpt lat="40.654774960130453" lon="-2.577922968193889">
        <ele>921.64999999999998</ele>
        <time>2026-04-25T10:42:26Z</time>
      </trkpt>
      <trkpt lat="40.654782000929117" lon="-2.577892960980535">
        <ele>921.62900000000002</ele>
        <time>2026-04-25T10:42:27Z</time>
      </trkpt>
      <trkpt lat="40.654788035899401" lon="-2.577863959595561">
        <ele>921.86000000000001</ele>
        <time>2026-04-25T10:42:28Z</time>
      </trkpt>
      <trkpt lat="40.654792981222272" lon="-2.577834958210588">
        <ele>922.05499999999995</ele>
        <time>2026-04-25T10:42:29Z</time>
      </trkpt>
      <trkpt lat="40.654797004535794" lon="-2.577806040644646">
        <ele>922.08299999999997</ele>
        <time>2026-04-25T10:42:30Z</time>
      </trkpt>
      <trkpt lat="40.654800022020936" lon="-2.577776033431292">
        <ele>922.42499999999995</ele>
        <time>2026-04-25T10:42:31Z</time>
      </trkpt>
      <trkpt lat="40.654803039506078" lon="-2.577749965712428">
        <ele>922.41700000000003</ele>
        <time>2026-04-25T10:42:32Z</time>
      </trkpt>
      <trkpt lat="40.654811002314091" lon="-2.577714007347822">
        <ele>922.60900000000004</ele>
        <time>2026-04-25T10:42:34Z</time>
      </trkpt>
      <trkpt lat="40.654815025627613" lon="-2.577681988477707">
        <ele>922.88</ele>
        <time>2026-04-25T10:42:36Z</time>
      </trkpt>
      <trkpt lat="40.654804967343807" lon="-2.577648041769862">
        <ele>923.21400000000006</ele>
        <time>2026-04-25T10:42:38Z</time>
      </trkpt>
      <trkpt lat="40.654798010364175" lon="-2.577621974050999">
        <ele>923.49900000000002</ele>
        <time>2026-04-25T10:42:39Z</time>
      </trkpt>
      <trkpt lat="40.654792981222272" lon="-2.577592972666025">
        <ele>923.44899999999996</ele>
        <time>2026-04-25T10:42:40Z</time>
      </trkpt>
      <trkpt lat="40.654788035899401" lon="-2.577565982937813">
        <ele>923.65499999999997</ele>
        <time>2026-04-25T10:42:41Z</time>
      </trkpt>
      <trkpt lat="40.654783006757498" lon="-2.577539999037981">
        <ele>923.88699999999994</ele>
        <time>2026-04-25T10:42:42Z</time>
      </trkpt>
      <trkpt lat="40.654780995100737" lon="-2.577514015138149">
        <ele>924.24599999999998</ele>
        <time>2026-04-25T10:42:43Z</time>
      </trkpt>
      <trkpt lat="40.654778983443975" lon="-2.577486019581556">
        <ele>924.24699999999996</ele>
        <time>2026-04-25T10:42:44Z</time>
      </trkpt>
      <trkpt lat="40.654775965958834" lon="-2.577458024024963">
        <ele>924.24199999999996</ele>
        <time>2026-04-25T10:42:45Z</time>
      </trkpt>
      <trkpt lat="40.654774960130453" lon="-2.57743002846837">
        <ele>924.27599999999995</ele>
        <time>2026-04-25T10:42:46Z</time>
      </trkpt>
      <trkpt lat="40.654775965958834" lon="-2.577401027083397">
        <ele>924.49000000000001</ele>
        <time>2026-04-25T10:42:47Z</time>
      </trkpt>
      <trkpt lat="40.654775965958834" lon="-2.577371019870043">
        <ele>924.41899999999998</ele>
        <time>2026-04-25T10:42:48Z</time>
      </trkpt>
      <trkpt lat="40.654773032292724" lon="-2.577340006828308">
        <ele>924.60900000000004</ele>
        <time>2026-04-25T10:42:49Z</time>
      </trkpt>
      <trkpt lat="40.654770014807582" lon="-2.577309999614954">
        <ele>924.87900000000002</ele>
        <time>2026-04-25T10:42:50Z</time>
      </trkpt>
      <trkpt lat="40.65476699732244" lon="-2.577282004058361">
        <ele>925.01300000000003</ele>
        <time>2026-04-25T10:42:51Z</time>
      </trkpt>
      <trkpt lat="40.65476599149406" lon="-2.577253002673388">
        <ele>925.08799999999997</ele>
        <time>2026-04-25T10:42:52Z</time>
      </trkpt>
      <trkpt lat="40.654764985665679" lon="-2.577224001288414">
        <ele>925.07799999999997</ele>
        <time>2026-04-25T10:42:53Z</time>
      </trkpt>
      <trkpt lat="40.654762974008918" lon="-2.577196005731821">
        <ele>925.26400000000001</ele>
        <time>2026-04-25T10:42:54Z</time>
      </trkpt>
      <trkpt lat="40.654763979837298" lon="-2.577170021831989">
        <ele>925.476</ele>
        <time>2026-04-25T10:42:55Z</time>
      </trkpt>
      <trkpt lat="40.65476699732244" lon="-2.577143032103777">
        <ele>925.26499999999999</ele>
        <time>2026-04-25T10:42:56Z</time>
      </trkpt>
      <trkpt lat="40.654770014807582" lon="-2.577115036547184">
        <ele>925.48599999999999</ele>
        <time>2026-04-25T10:42:57Z</time>
      </trkpt>
      <trkpt lat="40.654772026464343" lon="-2.577087040990591">
        <ele>925.63099999999997</ele>
        <time>2026-04-25T10:42:58Z</time>
      </trkpt>
      <trkpt lat="40.654775965958834" lon="-2.577056027948856">
        <ele>925.68600000000004</ele>
        <time>2026-04-25T10:42:59Z</time>
      </trkpt>
      <trkpt lat="40.654779989272356" lon="-2.577024009078741">
        <ele>925.86000000000001</ele>
        <time>2026-04-25T10:43:00Z</time>
      </trkpt>
      <trkpt lat="40.654785018414259" lon="-2.576992996037006">
        <ele>925.82600000000002</ele>
        <time>2026-04-25T10:43:01Z</time>
      </trkpt>
      <trkpt lat="40.654788035899401" lon="-2.576963994652033">
        <ele>926.00900000000001</ele>
        <time>2026-04-25T10:43:02Z</time>
      </trkpt>
      <trkpt lat="40.654788035899401" lon="-2.576934993267059">
        <ele>926.08000000000004</ele>
        <time>2026-04-25T10:43:03Z</time>
      </trkpt>
      <trkpt lat="40.654780995100737" lon="-2.576896017417312">
        <ele>926.024</ele>
        <time>2026-04-25T10:43:05Z</time>
      </trkpt>
      <trkpt lat="40.654791975393891" lon="-2.576845977455378">
        <ele>926.22900000000004</ele>
        <time>2026-04-25T10:43:07Z</time>
      </trkpt>
      <trkpt lat="40.654797004535794" lon="-2.576813036575913">
        <ele>926.22900000000004</ele>
        <time>2026-04-25T10:43:08Z</time>
      </trkpt>
      <trkpt lat="40.654800022020936" lon="-2.576782023534179">
        <ele>926.29499999999996</ele>
        <time>2026-04-25T10:43:09Z</time>
      </trkpt>
      <trkpt lat="40.654802033677697" lon="-2.576753022149205">
        <ele>926.24699999999996</ele>
        <time>2026-04-25T10:43:10Z</time>
      </trkpt>
      <trkpt lat="40.654800022020936" lon="-2.576727038249373">
        <ele>926.26599999999996</ele>
        <time>2026-04-25T10:43:11Z</time>
      </trkpt>
      <trkpt lat="40.654798010364175" lon="-2.576701976358891">
        <ele>926.447</ele>
        <time>2026-04-25T10:43:12Z</time>
      </trkpt>
      <trkpt lat="40.654800022020936" lon="-2.576679009944201">
        <ele>926.65200000000004</ele>
        <time>2026-04-25T10:43:13Z</time>
      </trkpt>
      <trkpt lat="40.654800022020936" lon="-2.576654031872749">
        <ele>926.84400000000005</ele>
        <time>2026-04-25T10:43:14Z</time>
      </trkpt>
      <trkpt lat="40.654798010364175" lon="-2.576627964153886">
        <ele>927.005</ele>
        <time>2026-04-25T10:43:15Z</time>
      </trkpt>
      <trkpt lat="40.654793987050653" lon="-2.576601980254054">
        <ele>927.21500000000003</ele>
        <time>2026-04-25T10:43:16Z</time>
      </trkpt>
      <trkpt lat="40.654792981222272" lon="-2.576555041596293">
        <ele>927.40899999999999</ele>
        <time>2026-04-25T10:43:18Z</time>
      </trkpt>
      <trkpt lat="40.654795998707414" lon="-2.576529979705811">
        <ele>927.44600000000003</ele>
        <time>2026-04-25T10:43:19Z</time>
      </trkpt>
      <trkpt lat="40.654795998707414" lon="-2.576503995805979">
        <ele>927.42999999999995</ele>
        <time>2026-04-25T10:43:20Z</time>
      </trkpt>
      <trkpt lat="40.654803039506078" lon="-2.576478011906147">
        <ele>927.63499999999999</ele>
        <time>2026-04-25T10:43:21Z</time>
      </trkpt>
      <trkpt lat="40.654805973172188" lon="-2.576449010521174">
        <ele>927.63499999999999</ele>
        <time>2026-04-25T10:43:22Z</time>
      </trkpt>
      <trkpt lat="40.654803039506078" lon="-2.576419003307819">
        <ele>928.07100000000003</ele>
        <time>2026-04-25T10:43:23Z</time>
      </trkpt>
      <trkpt lat="40.654799016192555" lon="-2.576384972780943">
        <ele>928.09299999999996</ele>
        <time>2026-04-25T10:43:24Z</time>
      </trkpt>
      <trkpt lat="40.654791975393891" lon="-2.576353037729859">
        <ele>928.49199999999996</ele>
        <time>2026-04-25T10:43:25Z</time>
      </trkpt>
      <trkpt lat="40.654783006757498" lon="-2.576326970010996">
        <ele>928.63300000000004</ele>
        <time>2026-04-25T10:43:26Z</time>
      </trkpt>
      <trkpt lat="40.654771020635962" lon="-2.576299980282784">
        <ele>928.64800000000002</ele>
        <time>2026-04-25T10:43:27Z</time>
      </trkpt>
      <trkpt lat="40.654757022857666" lon="-2.576276008039713">
        <ele>928.86599999999999</ele>
        <time>2026-04-25T10:43:28Z</time>
      </trkpt>
      <trkpt lat="40.65474595874548" lon="-2.576250024139881">
        <ele>929.029</ele>
        <time>2026-04-25T10:43:29Z</time>
      </trkpt>
      <trkpt lat="40.654733972623944" lon="-2.576224962249398">
        <ele>929.221</ele>
        <time>2026-04-25T10:43:30Z</time>
      </trkpt>
      <trkpt lat="40.65472299233079" lon="-2.576199984177947">
        <ele>929.40899999999999</ele>
        <time>2026-04-25T10:43:31Z</time>
      </trkpt>
      <trkpt lat="40.654714023694396" lon="-2.576175006106496">
        <ele>929.69799999999998</ele>
        <time>2026-04-25T10:43:32Z</time>
      </trkpt>
      <trkpt lat="40.654706982895732" lon="-2.576148016378284">
        <ele>929.85199999999998</ele>
        <time>2026-04-25T10:43:33Z</time>
      </trkpt>
      <trkpt lat="40.654702037572861" lon="-2.576123038306832">
        <ele>929.84699999999998</ele>
        <time>2026-04-25T10:43:34Z</time>
      </trkpt>
      <trkpt lat="40.6547000259161" lon="-2.576094036921859">
        <ele>930.02700000000004</ele>
        <time>2026-04-25T10:43:36Z</time>
      </trkpt>
      <trkpt lat="40.654716035351157" lon="-2.576070986688137">
        <ele>930.68299999999999</ele>
        <time>2026-04-25T10:43:39Z</time>
      </trkpt>
      <trkpt lat="40.654741013422608" lon="-2.576063023880124">
        <ele>930.875</ele>
        <time>2026-04-25T10:43:41Z</time>
      </trkpt>
      <trkpt lat="40.654761968180537" lon="-2.576054977253079">
        <ele>931.08399999999995</ele>
        <time>2026-04-25T10:43:43Z</time>
      </trkpt>
      <trkpt lat="40.654788035899401" lon="-2.576046008616686">
        <ele>931.28499999999997</ele>
        <time>2026-04-25T10:43:46Z</time>
      </trkpt>
      <trkpt lat="40.654807984828949" lon="-2.576035028323531">
        <ele>931.64999999999998</ele>
        <time>2026-04-25T10:43:48Z</time>
      </trkpt>
      <trkpt lat="40.65482902340591" lon="-2.576017007231712">
        <ele>932.01700000000005</ele>
        <time>2026-04-25T10:43:50Z</time>
      </trkpt>
      <trkpt lat="40.654844027012587" lon="-2.575992029160261">
        <ele>932.48699999999997</ele>
        <time>2026-04-25T10:43:52Z</time>
      </trkpt>
      <trkpt lat="40.654859030619264" lon="-2.575967973098159">
        <ele>932.61500000000001</ele>
        <time>2026-04-25T10:43:54Z</time>
      </trkpt>
      <trkpt lat="40.654887026175857" lon="-2.575952969491482">
        <ele>933.00900000000001</ele>
        <time>2026-04-25T10:43:56Z</time>
      </trkpt>
      <trkpt lat="40.654912004247308" lon="-2.575948024168611">
        <ele>933.41300000000001</ele>
        <time>2026-04-25T10:43:58Z</time>
      </trkpt>
      <trkpt lat="40.654945028945804" lon="-2.575939977541566">
        <ele>933.83699999999999</ele>
        <time>2026-04-25T10:44:00Z</time>
      </trkpt>
      <trkpt lat="40.654972018674016" lon="-2.575921034440398">
        <ele>934.23199999999997</ele>
        <time>2026-04-25T10:44:02Z</time>
      </trkpt>
      <trkpt lat="40.654995990917087" lon="-2.575893038883805">
        <ele>934.48199999999997</ele>
        <time>2026-04-25T10:44:04Z</time>
      </trkpt>
      <trkpt lat="40.655015017837286" lon="-2.575864037498832">
        <ele>934.86800000000005</ele>
        <time>2026-04-25T10:44:06Z</time>
      </trkpt>
      <trkpt lat="40.655022980645299" lon="-2.575834030285478">
        <ele>935.25999999999999</ele>
        <time>2026-04-25T10:44:08Z</time>
      </trkpt>
      <trkpt lat="40.655030021443963" lon="-2.575803017243743">
        <ele>935.67899999999997</ele>
        <time>2026-04-25T10:44:10Z</time>
      </trkpt>
      <trkpt lat="40.655033038929105" lon="-2.575767980888486">
        <ele>935.85000000000002</ele>
        <time>2026-04-25T10:44:12Z</time>
      </trkpt>
      <trkpt lat="40.655037984251976" lon="-2.575735040009022">
        <ele>936.28499999999997</ele>
        <time>2026-04-25T10:44:14Z</time>
      </trkpt>
      <trkpt lat="40.65504401922226" lon="-2.575705032795668">
        <ele>936.41600000000005</ele>
        <time>2026-04-25T10:44:16Z</time>
      </trkpt>
      <trkpt lat="40.65504502505064" lon="-2.575677959248424">
        <ele>936.87599999999998</ele>
        <time>2026-04-25T10:44:18Z</time>
      </trkpt>
      <trkpt lat="40.655049970373511" lon="-2.575651975348592">
        <ele>937.01300000000003</ele>
        <time>2026-04-25T10:44:20Z</time>
      </trkpt>
      <trkpt lat="40.655052987858653" lon="-2.575616016983986">
        <ele>937.00900000000001</ele>
        <time>2026-04-25T10:44:23Z</time>
      </trkpt>
      <trkpt lat="40.655056005343795" lon="-2.575579974800348">
        <ele>937.423</ele>
        <time>2026-04-25T10:44:25Z</time>
      </trkpt>
      <trkpt lat="40.655058017000556" lon="-2.575546028092504">
        <ele>937.61699999999996</ele>
        <time>2026-04-25T10:44:27Z</time>
      </trkpt>
      <trkpt lat="40.655060028657317" lon="-2.575516020879149">
        <ele>937.822</ele>
        <time>2026-04-25T10:44:29Z</time>
      </trkpt>
      <trkpt lat="40.655062040314078" lon="-2.575484002009034">
        <ele>938.27200000000005</ele>
        <time>2026-04-25T10:44:31Z</time>
      </trkpt>
      <trkpt lat="40.655065979808569" lon="-2.575449971482158">
        <ele>938.64800000000002</ele>
        <time>2026-04-25T10:44:33Z</time>
      </trkpt>
      <trkpt lat="40.655076960101724" lon="-2.575415018945932">
        <ele>938.84000000000003</ele>
        <time>2026-04-25T10:44:35Z</time>
      </trkpt>
      <trkpt lat="40.65508701838553" lon="-2.575380988419056">
        <ele>939.07899999999995</ele>
        <time>2026-04-25T10:44:37Z</time>
      </trkpt>
      <trkpt lat="40.65508802421391" lon="-2.575347041711211">
        <ele>939.25999999999999</ele>
        <time>2026-04-25T10:44:39Z</time>
      </trkpt>
      <trkpt lat="40.655086012557149" lon="-2.575310999527574">
        <ele>939.21500000000003</ele>
        <time>2026-04-25T10:44:41Z</time>
      </trkpt>
      <trkpt lat="40.655084000900388" lon="-2.575275963172317">
        <ele>939.62900000000002</ele>
        <time>2026-04-25T10:44:43Z</time>
      </trkpt>
      <trkpt lat="40.655079977586865" lon="-2.575240004807711">
        <ele>939.79999999999995</ele>
        <time>2026-04-25T10:44:45Z</time>
      </trkpt>
      <trkpt lat="40.655076038092375" lon="-2.575198011472821">
        <ele>940.22000000000003</ele>
        <time>2026-04-25T10:44:47Z</time>
      </trkpt>
      <trkpt lat="40.655074026435614" lon="-2.575159035623074">
        <ele>940.40899999999999</ele>
        <time>2026-04-25T10:44:49Z</time>
      </trkpt>
      <trkpt lat="40.655070003122091" lon="-2.575120981782675">
        <ele>940.44399999999996</ele>
        <time>2026-04-25T10:44:51Z</time>
      </trkpt>
      <trkpt lat="40.655061034485698" lon="-2.575078988447785">
        <ele>940.41800000000001</ele>
        <time>2026-04-25T10:44:53Z</time>
      </trkpt>
      <trkpt lat="40.655046030879021" lon="-2.575039006769657">
        <ele>940.87300000000005</ele>
        <time>2026-04-25T10:44:55Z</time>
      </trkpt>
      <trkpt lat="40.655038990080357" lon="-2.575011011213064">
        <ele>940.68299999999999</ele>
        <time>2026-04-25T10:44:56Z</time>
      </trkpt>
      <trkpt lat="40.655033960938454" lon="-2.574983015656471">
        <ele>941.05899999999997</ele>
        <time>2026-04-25T10:44:57Z</time>
      </trkpt>
      <trkpt lat="40.655029015615582" lon="-2.574955020099878">
        <ele>941.05100000000004</ele>
        <time>2026-04-25T10:44:58Z</time>
      </trkpt>
      <trkpt lat="40.655020968988538" lon="-2.574931969866157">
        <ele>941.23000000000002</ele>
        <time>2026-04-25T10:44:59Z</time>
      </trkpt>
      <trkpt lat="40.65500495955348" lon="-2.574898023158312">
        <ele>941.82100000000003</ele>
        <time>2026-04-25T10:45:01Z</time>
      </trkpt>
      <trkpt lat="40.654994985088706" lon="-2.574869021773338">
        <ele>942.03599999999994</ele>
        <time>2026-04-25T10:45:03Z</time>
      </trkpt>
      <trkpt lat="40.654979981482029" lon="-2.57483197376132">
        <ele>942.09400000000005</ele>
        <time>2026-04-25T10:45:05Z</time>
      </trkpt>
      <trkpt lat="40.654971012845635" lon="-2.57480800151825">
        <ele>942.25699999999995</ele>
        <time>2026-04-25T10:45:06Z</time>
      </trkpt>
      <trkpt lat="40.654964977875352" lon="-2.574782017618418">
        <ele>942.22199999999998</ele>
        <time>2026-04-25T10:45:07Z</time>
      </trkpt>
      <trkpt lat="40.6549590267241" lon="-2.574755027890205">
        <ele>942.40899999999999</ele>
        <time>2026-04-25T10:45:08Z</time>
      </trkpt>
      <trkpt lat="40.654947962611914" lon="-2.574725020676851">
        <ele>942.84100000000001</ele>
        <time>2026-04-25T10:45:09Z</time>
      </trkpt>
      <trkpt lat="40.65493798814714" lon="-2.574697025120258">
        <ele>942.83500000000004</ele>
        <time>2026-04-25T10:45:10Z</time>
      </trkpt>
      <trkpt lat="40.654930025339127" lon="-2.574669029563665">
        <ele>943.22000000000003</ele>
        <time>2026-04-25T10:45:11Z</time>
      </trkpt>
      <trkpt lat="40.654923990368843" lon="-2.574642039835453">
        <ele>943.46000000000004</ele>
        <time>2026-04-25T10:45:12Z</time>
      </trkpt>
      <trkpt lat="40.65491602756083" lon="-2.574614966288209">
        <ele>943.476</ele>
        <time>2026-04-25T10:45:13Z</time>
      </trkpt>
      <trkpt lat="40.654907980933785" lon="-2.574585964903235">
        <ele>943.83799999999997</ele>
        <time>2026-04-25T10:45:14Z</time>
      </trkpt>
      <trkpt lat="40.654902029782534" lon="-2.574555035680533">
        <ele>944.06700000000001</ele>
        <time>2026-04-25T10:45:15Z</time>
      </trkpt>
      <trkpt lat="40.65489599481225" lon="-2.574526034295559">
        <ele>944.22799999999995</ele>
        <time>2026-04-25T10:45:16Z</time>
      </trkpt>
      <trkpt lat="40.654890965670347" lon="-2.574495021253824">
        <ele>944.41300000000001</ele>
        <time>2026-04-25T10:45:17Z</time>
      </trkpt>
      <trkpt lat="40.654886020347476" lon="-2.574466019868851">
        <ele>944.62300000000005</ele>
        <time>2026-04-25T10:45:18Z</time>
      </trkpt>
      <trkpt lat="40.654881997033954" lon="-2.574436012655497">
        <ele>944.88300000000004</ele>
        <time>2026-04-25T10:45:19Z</time>
      </trkpt>
      <trkpt lat="40.654876967892051" lon="-2.574408017098904">
        <ele>945.01099999999997</ele>
        <time>2026-04-25T10:45:20Z</time>
      </trkpt>
      <trkpt lat="40.654874034225941" lon="-2.574380021542311">
        <ele>945.20899999999995</ele>
        <time>2026-04-25T10:45:21Z</time>
      </trkpt>
      <trkpt lat="40.654870010912418" lon="-2.574352025985718">
        <ele>945.67399999999998</ele>
        <time>2026-04-25T10:45:22Z</time>
      </trkpt>
      <trkpt lat="40.654866993427277" lon="-2.574326964095235">
        <ele>945.69799999999998</ele>
        <time>2026-04-25T10:45:23Z</time>
      </trkpt>
      <trkpt lat="40.654863975942135" lon="-2.574301986023784">
        <ele>946.03300000000002</ele>
        <time>2026-04-25T10:45:25Z</time>
      </trkpt>
      <trkpt lat="40.654859030619264" lon="-2.574266027659178">
        <ele>946.673</ele>
        <time>2026-04-25T10:45:28Z</time>
      </trkpt>
      <trkpt lat="40.65485299564898" lon="-2.574237026274204">
        <ele>946.649</ele>
        <time>2026-04-25T10:45:30Z</time>
      </trkpt>
      <trkpt lat="40.654844027012587" lon="-2.57420701906085">
        <ele>947.07100000000003</ele>
        <time>2026-04-25T10:45:32Z</time>
      </trkpt>
      <trkpt lat="40.654836986213923" lon="-2.574178017675877">
        <ele>947.46000000000004</ele>
        <time>2026-04-25T10:45:34Z</time>
      </trkpt>
      <trkpt lat="40.65482902340591" lon="-2.574144992977381">
        <ele>947.87099999999998</ele>
        <time>2026-04-25T10:45:36Z</time>
      </trkpt>
      <trkpt lat="40.654828017577529" lon="-2.574113979935646">
        <ele>948.66600000000005</ele>
        <time>2026-04-25T10:45:38Z</time>
      </trkpt>
      <trkpt lat="40.654828017577529" lon="-2.574079027399421">
        <ele>948.84100000000001</ele>
        <time>2026-04-25T10:45:40Z</time>
      </trkpt>
      <trkpt lat="40.654826005920768" lon="-2.574049020186067">
        <ele>949.28099999999995</ele>
        <time>2026-04-25T10:45:42Z</time>
      </trkpt>
      <trkpt lat="40.65482902340591" lon="-2.574025969952345">
        <ele>949.60900000000004</ele>
        <time>2026-04-25T10:45:44Z</time>
      </trkpt>
      <trkpt lat="40.654818965122104" lon="-2.5739920232445">
        <ele>949.40899999999999</ele>
        <time>2026-04-25T10:45:47Z</time>
      </trkpt>
      <trkpt lat="40.654812008142471" lon="-2.573964027687907">
        <ele>949.85599999999999</ele>
        <time>2026-04-25T10:45:49Z</time>
      </trkpt>
      <trkpt lat="40.654806979000568" lon="-2.573937037959695">
        <ele>949.82000000000005</ele>
        <time>2026-04-25T10:45:51Z</time>
      </trkpt>
      <trkpt lat="40.654803039506078" lon="-2.573912981897593">
        <ele>950.245</ele>
        <time>2026-04-25T10:45:53Z</time>
      </trkpt>
      <trkpt lat="40.654803961515427" lon="-2.573886997997761">
        <ele>950.61500000000001</ele>
        <time>2026-04-25T10:45:55Z</time>
      </trkpt>
      <trkpt lat="40.65480999648571" lon="-2.57386302575469">
        <ele>950.84100000000001</ele>
        <time>2026-04-25T10:45:57Z</time>
      </trkpt>
      <trkpt lat="40.654815025627613" lon="-2.573835030198097">
        <ele>951.01300000000003</ele>
        <time>2026-04-25T10:45:59Z</time>
      </trkpt>
      <trkpt lat="40.654817959293723" lon="-2.573810974135995">
        <ele>951.03200000000004</ele>
        <time>2026-04-25T10:46:01Z</time>
      </trkpt>
      <trkpt lat="40.654821982607245" lon="-2.573784990236163">
        <ele>951.45299999999997</ele>
        <time>2026-04-25T10:46:03Z</time>
      </trkpt>
      <trkpt lat="40.654821982607245" lon="-2.573754983022809">
        <ele>951.62800000000004</ele>
        <time>2026-04-25T10:46:05Z</time>
      </trkpt>
      <trkpt lat="40.654821982607245" lon="-2.573722964152694">
        <ele>951.86199999999997</ele>
        <time>2026-04-25T10:46:07Z</time>
      </trkpt>
      <trkpt lat="40.654823994264007" lon="-2.573695974424481">
        <ele>952.08299999999997</ele>
        <time>2026-04-25T10:46:10Z</time>
      </trkpt>
      <trkpt lat="40.654826005920768" lon="-2.573672002181411">
        <ele>952.01099999999997</ele>
        <time>2026-04-25T10:46:12Z</time>
      </trkpt>
      <trkpt lat="40.654827011749148" lon="-2.573645012453198">
        <ele>952.40899999999999</ele>
        <time>2026-04-25T10:46:14Z</time>
      </trkpt>
      <trkpt lat="40.654831035062671" lon="-2.573616011068225">
        <ele>952.43799999999999</ele>
        <time>2026-04-25T10:46:16Z</time>
      </trkpt>
      <trkpt lat="40.654833968728781" lon="-2.57358499802649">
        <ele>953.05200000000002</ele>
        <time>2026-04-25T10:46:18Z</time>
      </trkpt>
      <trkpt lat="40.6548329629004" lon="-2.573553984984756">
        <ele>953.26700000000005</ele>
        <time>2026-04-25T10:46:20Z</time>
      </trkpt>
      <trkpt lat="40.654834974557161" lon="-2.573529006913304">
        <ele>953.46699999999998</ele>
        <time>2026-04-25T10:46:22Z</time>
      </trkpt>
      <trkpt lat="40.6548329629004" lon="-2.573501011356711">
        <ele>953.89300000000003</ele>
        <time>2026-04-25T10:46:24Z</time>
      </trkpt>
      <trkpt lat="40.654833968728781" lon="-2.573468992486596">
        <ele>954.255</ele>
        <time>2026-04-25T10:46:26Z</time>
      </trkpt>
      <trkpt lat="40.6548329629004" lon="-2.573436973616481">
        <ele>954.62400000000002</ele>
        <time>2026-04-25T10:46:28Z</time>
      </trkpt>
      <trkpt lat="40.654838997870684" lon="-2.573407972231507">
        <ele>955.09500000000003</ele>
        <time>2026-04-25T10:46:30Z</time>
      </trkpt>
      <trkpt lat="40.654847966507077" lon="-2.573377965018153">
        <ele>955.25</ele>
        <time>2026-04-25T10:46:32Z</time>
      </trkpt>
      <trkpt lat="40.654855007305741" lon="-2.57334703579545">
        <ele>955.06100000000004</ele>
        <time>2026-04-25T10:46:34Z</time>
      </trkpt>
      <trkpt lat="40.654861964285374" lon="-2.573313005268574">
        <ele>955.221</ele>
        <time>2026-04-25T10:46:36Z</time>
      </trkpt>
      <trkpt lat="40.654871016740799" lon="-2.573279980570078">
        <ele>955.41300000000001</ele>
        <time>2026-04-25T10:46:38Z</time>
      </trkpt>
      <trkpt lat="40.654876967892051" lon="-2.573247039690614">
        <ele>956.00900000000001</ele>
        <time>2026-04-25T10:46:40Z</time>
      </trkpt>
      <trkpt lat="40.654880991205573" lon="-2.573210997506976">
        <ele>956.48800000000006</ele>
        <time>2026-04-25T10:46:42Z</time>
      </trkpt>
      <trkpt lat="40.654885014519095" lon="-2.573175961151719">
        <ele>957.05200000000002</ele>
        <time>2026-04-25T10:46:44Z</time>
      </trkpt>
      <trkpt lat="40.654884008690715" lon="-2.573138996958733">
        <ele>957.49699999999996</ele>
        <time>2026-04-25T10:46:46Z</time>
      </trkpt>
      <trkpt lat="40.654878979548812" lon="-2.573104966431856">
        <ele>957.63699999999994</ele>
        <time>2026-04-25T10:46:48Z</time>
      </trkpt>
      <trkpt lat="40.654874034225941" lon="-2.573074959218502">
        <ele>958.03300000000002</ele>
        <time>2026-04-25T10:46:50Z</time>
      </trkpt>
      <trkpt lat="40.65487596206367" lon="-2.57304604165256">
        <ele>958.23500000000001</ele>
        <time>2026-04-25T10:46:52Z</time>
      </trkpt>
      <trkpt lat="40.654883002862334" lon="-2.573012011125684">
        <ele>958.84400000000005</ele>
        <time>2026-04-25T10:46:56Z</time>
      </trkpt>
      <trkpt lat="40.654881997033954" lon="-2.572980998083949">
        <ele>959.23500000000001</ele>
        <time>2026-04-25T10:46:58Z</time>
      </trkpt>
      <trkpt lat="40.654875040054321" lon="-2.572954008355737">
        <ele>959.49000000000001</ele>
        <time>2026-04-25T10:47:00Z</time>
      </trkpt>
      <trkpt lat="40.65487302839756" lon="-2.572921989485622">
        <ele>959.47299999999996</ele>
        <time>2026-04-25T10:47:02Z</time>
      </trkpt>
      <trkpt lat="40.654867999255657" lon="-2.572892988100648">
        <ele>959.68499999999995</ele>
        <time>2026-04-25T10:47:04Z</time>
      </trkpt>
      <trkpt lat="40.654860958456993" lon="-2.572861975058913">
        <ele>960.01300000000003</ele>
        <time>2026-04-25T10:47:06Z</time>
      </trkpt>
      <trkpt lat="40.654850983992219" lon="-2.57283297367394">
        <ele>960.60900000000004</ele>
        <time>2026-04-25T10:47:08Z</time>
      </trkpt>
      <trkpt lat="40.654841009527445" lon="-2.572801960632205">
        <ele>961.029</ele>
        <time>2026-04-25T10:47:10Z</time>
      </trkpt>
      <trkpt lat="40.654834974557161" lon="-2.572774970903993">
        <ele>961.49300000000005</ele>
        <time>2026-04-25T10:47:12Z</time>
      </trkpt>
      <trkpt lat="40.6548329629004" lon="-2.572745969519019">
        <ele>961.81799999999998</ele>
        <time>2026-04-25T10:47:14Z</time>
      </trkpt>
      <trkpt lat="40.654832040891051" lon="-2.572715962305665">
        <ele>962.09799999999996</ele>
        <time>2026-04-25T10:47:16Z</time>
      </trkpt>
      <trkpt lat="40.654833968728781" lon="-2.572689978405833">
        <ele>962.48400000000004</ele>
        <time>2026-04-25T10:47:18Z</time>
      </trkpt>
      <trkpt lat="40.654840003699064" lon="-2.572659971192479">
        <ele>962.89599999999996</ele>
        <time>2026-04-25T10:47:21Z</time>
      </trkpt>
      <trkpt lat="40.654846038669348" lon="-2.572635998949409">
        <ele>962.875</ele>
        <time>2026-04-25T10:47:23Z</time>
      </trkpt>
      <trkpt lat="40.654855007305741" lon="-2.572600962594152">
        <ele>963.25599999999997</ele>
        <time>2026-04-25T10:47:25Z</time>
      </trkpt>
      <trkpt lat="40.6548519898206" lon="-2.572572967037559">
        <ele>963.84100000000001</ele>
        <time>2026-04-25T10:47:27Z</time>
      </trkpt>
      <trkpt lat="40.654846038669348" lon="-2.572546983137727">
        <ele>964.21100000000001</ele>
        <time>2026-04-25T10:47:29Z</time>
      </trkpt>
      <trkpt lat="40.654840003699064" lon="-2.572515970095992">
        <ele>964.82100000000003</ele>
        <time>2026-04-25T10:47:31Z</time>
      </trkpt>
      <trkpt lat="40.6548329629004" lon="-2.572486968711019">
        <ele>965.00300000000004</ele>
        <time>2026-04-25T10:47:33Z</time>
      </trkpt>
      <trkpt lat="40.654831035062671" lon="-2.572456039488316">
        <ele>965.40899999999999</ele>
        <time>2026-04-25T10:47:35Z</time>
      </trkpt>
      <trkpt lat="40.65482902340591" lon="-2.572431983426213">
        <ele>966.06299999999999</ele>
        <time>2026-04-25T10:47:37Z</time>
      </trkpt>
      <trkpt lat="40.654822988435626" lon="-2.572407005354762">
        <ele>966.85699999999997</ele>
        <time>2026-04-25T10:47:39Z</time>
      </trkpt>
      <trkpt lat="40.654818965122104" lon="-2.57238102145493">
        <ele>967.29200000000003</ele>
        <time>2026-04-25T10:47:41Z</time>
      </trkpt>
      <trkpt lat="40.654813013970852" lon="-2.572350008413196">
        <ele>968.27200000000005</ele>
        <time>2026-04-25T10:47:44Z</time>
      </trkpt>
      <trkpt lat="40.654800022020936" lon="-2.572320001199842">
        <ele>969.01800000000003</ele>
        <time>2026-04-25T10:47:47Z</time>
      </trkpt>
      <trkpt lat="40.65478703007102" lon="-2.572301980108023">
        <ele>969.47000000000003</ele>
        <time>2026-04-25T10:47:49Z</time>
      </trkpt>
      <trkpt lat="40.654799016192555" lon="-2.572277002036572">
        <ele>970.22900000000004</ele>
        <time>2026-04-25T10:47:54Z</time>
      </trkpt>
      <trkpt lat="40.654812008142471" lon="-2.572255963459611">
        <ele>971.07000000000005</ele>
        <time>2026-04-25T10:47:57Z</time>
      </trkpt>
      <trkpt lat="40.654820976778865" lon="-2.572235008701682">
        <ele>971.45500000000004</ele>
        <time>2026-04-25T10:48:01Z</time>
      </trkpt>
      <trkpt lat="40.654840003699064" lon="-2.572220005095005">
        <ele>973.42100000000005</ele>
        <time>2026-04-25T10:50:04Z</time>
      </trkpt>
      <trkpt lat="40.654863975942135" lon="-2.572236014530063">
        <ele>973.40899999999999</ele>
        <time>2026-04-25T10:50:06Z</time>
      </trkpt>
      <trkpt lat="40.654889959841967" lon="-2.572248000651598">
        <ele>973.42100000000005</ele>
        <time>2026-04-25T10:50:08Z</time>
      </trkpt>
      <trkpt lat="40.654909992590547" lon="-2.572259986773133">
        <ele>973.46500000000003</ele>
        <time>2026-04-25T10:50:10Z</time>
      </trkpt>
      <trkpt lat="40.654922984540462" lon="-2.572288988158107">
        <ele>973.69000000000005</ele>
        <time>2026-04-25T10:50:12Z</time>
      </trkpt>
      <trkpt lat="40.654931031167507" lon="-2.572314972057939">
        <ele>973.46000000000004</ele>
        <time>2026-04-25T10:50:14Z</time>
      </trkpt>
      <trkpt lat="40.654953997582197" lon="-2.572332993149757">
        <ele>973.44600000000003</ele>
        <time>2026-04-25T10:50:17Z</time>
      </trkpt>
      <trkpt lat="40.654974030330777" lon="-2.572356965392828">
        <ele>973.63800000000003</ele>
        <time>2026-04-25T10:50:19Z</time>
      </trkpt>
      <trkpt lat="40.654991967603564" lon="-2.572386972606182">
        <ele>974.02700000000004</ele>
        <time>2026-04-25T10:50:21Z</time>
      </trkpt>
      <trkpt lat="40.655008982867002" lon="-2.572415973991156">
        <ele>974.26800000000003</ele>
        <time>2026-04-25T10:50:23Z</time>
      </trkpt>
      <trkpt lat="40.65502499230206" lon="-2.572443969547749">
        <ele>974.21299999999997</ele>
        <time>2026-04-25T10:50:25Z</time>
      </trkpt>
      <trkpt lat="40.655046030879021" lon="-2.572469031438232">
        <ele>974.26800000000003</ele>
        <time>2026-04-25T10:50:27Z</time>
      </trkpt>
      <trkpt lat="40.655070003122091" lon="-2.572485040873289">
        <ele>974.44200000000001</ele>
        <time>2026-04-25T10:50:29Z</time>
      </trkpt>
      <trkpt lat="40.655093975365162" lon="-2.572501972317696">
        <ele>974.62599999999998</ele>
        <time>2026-04-25T10:50:31Z</time>
      </trkpt>
      <trkpt lat="40.655117025598884" lon="-2.572520999237895">
        <ele>974.80899999999997</ele>
        <time>2026-04-25T10:50:33Z</time>
      </trkpt>
      <trkpt lat="40.655137980356812" lon="-2.572538014501333">
        <ele>974.88800000000003</ele>
        <time>2026-04-25T10:50:35Z</time>
      </trkpt>
      <trkpt lat="40.655159018933773" lon="-2.572555029764772">
        <ele>975.06200000000001</ele>
        <time>2026-04-25T10:50:37Z</time>
      </trkpt>
      <trkpt lat="40.655178967863321" lon="-2.572579002007842">
        <ele>975.09699999999998</ele>
        <time>2026-04-25T10:50:39Z</time>
      </trkpt>
      <trkpt lat="40.655194977298379" lon="-2.572611020877957">
        <ele>975.22699999999998</ele>
        <time>2026-04-25T10:50:41Z</time>
      </trkpt>
      <trkpt lat="40.655214004218578" lon="-2.57263901643455">
        <ele>975.21299999999997</ele>
        <time>2026-04-25T10:50:43Z</time>
      </trkpt>
      <trkpt lat="40.655233031138778" lon="-2.572666006162763">
        <ele>975.02499999999998</ele>
        <time>2026-04-25T10:50:45Z</time>
      </trkpt>
      <trkpt lat="40.655253985896707" lon="-2.572689978405833">
        <ele>975.05399999999997</ele>
        <time>2026-04-25T10:50:47Z</time>
      </trkpt>
      <trkpt lat="40.655277036130428" lon="-2.57270397618413">
        <ele>974.875</ele>
        <time>2026-04-25T10:50:49Z</time>
      </trkpt>
      <trkpt lat="40.655300002545118" lon="-2.572716968134046">
        <ele>974.46000000000004</ele>
        <time>2026-04-25T10:50:52Z</time>
      </trkpt>
      <trkpt lat="40.655316011980176" lon="-2.57274404168129">
        <ele>974.49800000000005</ele>
        <time>2026-04-25T10:50:54Z</time>
      </trkpt>
      <trkpt lat="40.655334033071995" lon="-2.572770025581121">
        <ele>974.61500000000001</ele>
        <time>2026-04-25T10:50:56Z</time>
      </trkpt>
      <trkpt lat="40.655344007536769" lon="-2.572799026966095">
        <ele>974.82600000000002</ele>
        <time>2026-04-25T10:50:58Z</time>
      </trkpt>
      <trkpt lat="40.655351970344782" lon="-2.57283297367394">
        <ele>974.80899999999997</ele>
        <time>2026-04-25T10:51:00Z</time>
      </trkpt>
      <trkpt lat="40.655370997264981" lon="-2.5728730391711">
        <ele>975.01099999999997</ele>
        <time>2026-04-25T10:51:02Z</time>
      </trkpt>
      <trkpt lat="40.655397986993194" lon="-2.572905980050564">
        <ele>975.03499999999997</ele>
        <time>2026-04-25T10:51:04Z</time>
      </trkpt>
      <trkpt lat="40.655427994206548" lon="-2.572924001142383">
        <ele>975.03999999999996</ele>
        <time>2026-04-25T10:51:06Z</time>
      </trkpt>
      <trkpt lat="40.65545397810638" lon="-2.572944033890963">
        <ele>975.00999999999999</ele>
        <time>2026-04-25T10:51:08Z</time>
      </trkpt>
      <trkpt lat="40.655471999198198" lon="-2.572984015569091">
        <ele>975.04600000000005</ele>
        <time>2026-04-25T10:51:10Z</time>
      </trkpt>
      <trkpt lat="40.655491026118398" lon="-2.573001030832529">
        <ele>975.03800000000001</ele>
        <time>2026-04-25T10:51:11Z</time>
      </trkpt>
      <trkpt lat="40.655509969219565" lon="-2.573018968105316">
        <ele>974.89700000000005</ele>
        <time>2026-04-25T10:51:12Z</time>
      </trkpt>
      <trkpt lat="40.655530001968145" lon="-2.573043024167419">
        <ele>974.89800000000002</ele>
        <time>2026-04-25T10:51:13Z</time>
      </trkpt>
      <trkpt lat="40.655547017231584" lon="-2.573070013895631">
        <ele>975.08299999999997</ele>
        <time>2026-04-25T10:51:14Z</time>
      </trkpt>
      <trkpt lat="40.655562020838261" lon="-2.573099015280604">
        <ele>975.27800000000002</ele>
        <time>2026-04-25T10:51:15Z</time>
      </trkpt>
      <trkpt lat="40.655576018616557" lon="-2.57313103415072">
        <ele>975.03300000000002</ele>
        <time>2026-04-25T10:51:16Z</time>
      </trkpt>
      <trkpt lat="40.655592028051615" lon="-2.573159029707313">
        <ele>975.02599999999995</ele>
        <time>2026-04-25T10:51:17Z</time>
      </trkpt>
      <trkpt lat="40.655605020001531" lon="-2.573181996122003">
        <ele>974.80899999999997</ele>
        <time>2026-04-25T10:51:18Z</time>
      </trkpt>
      <trkpt lat="40.655614994466305" lon="-2.573214014992118">
        <ele>974.88900000000001</ele>
        <time>2026-04-25T10:51:19Z</time>
      </trkpt>
      <trkpt lat="40.655623041093349" lon="-2.573250979185104">
        <ele>974.84299999999996</ele>
        <time>2026-04-25T10:51:20Z</time>
      </trkpt>
      <trkpt lat="40.655634021386504" lon="-2.573281992226839">
        <ele>974.87800000000004</ele>
        <time>2026-04-25T10:51:21Z</time>
      </trkpt>
      <trkpt lat="40.655642990022898" lon="-2.573313005268574">
        <ele>974.85799999999995</ele>
        <time>2026-04-25T10:51:22Z</time>
      </trkpt>
      <trkpt lat="40.655653970316052" lon="-2.573339994996786">
        <ele>974.81399999999996</ele>
        <time>2026-04-25T10:51:23Z</time>
      </trkpt>
      <trkpt lat="40.655666040256619" lon="-2.573365978896618">
        <ele>974.69600000000003</ele>
        <time>2026-04-25T10:51:24Z</time>
      </trkpt>
      <trkpt lat="40.655682971701026" lon="-2.573393974453211">
        <ele>974.83500000000004</ele>
        <time>2026-04-25T10:51:25Z</time>
      </trkpt>
      <trkpt lat="40.655704010277987" lon="-2.573419036343694">
        <ele>975.096</ele>
        <time>2026-04-25T10:51:26Z</time>
      </trkpt>
      <trkpt lat="40.655722031369805" lon="-2.573444014415145">
        <ele>975.06100000000004</ele>
        <time>2026-04-25T10:51:27Z</time>
      </trkpt>
      <trkpt lat="40.655736029148102" lon="-2.573465975001454">
        <ele>975.28099999999995</ele>
        <time>2026-04-25T10:51:28Z</time>
      </trkpt>
      <trkpt lat="40.655750026926398" lon="-2.573486007750034">
        <ele>975.26099999999997</ele>
        <time>2026-04-25T10:51:29Z</time>
      </trkpt>
      <trkpt lat="40.655771987512708" lon="-2.573504028841853">
        <ele>975.21699999999998</ele>
        <time>2026-04-25T10:51:31Z</time>
      </trkpt>
      <trkpt lat="40.655786991119385" lon="-2.573531018570066">
        <ele>975.40899999999999</ele>
        <time>2026-04-25T10:51:33Z</time>
      </trkpt>
      <trkpt lat="40.655809035524726" lon="-2.573551973327994">
        <ele>975.46000000000004</ele>
        <time>2026-04-25T10:51:34Z</time>
      </trkpt>
      <trkpt lat="40.655832001939416" lon="-2.573573011904955">
        <ele>975.64400000000001</ele>
        <time>2026-04-25T10:51:35Z</time>
      </trkpt>
      <trkpt lat="40.655854968354106" lon="-2.573590027168393">
        <ele>975.83900000000006</ele>
        <time>2026-04-25T10:51:36Z</time>
      </trkpt>
      <trkpt lat="40.655876006931067" lon="-2.573610981926322">
        <ele>975.63900000000001</ele>
        <time>2026-04-25T10:51:37Z</time>
      </trkpt>
      <trkpt lat="40.655895033851266" lon="-2.573635037988424">
        <ele>975.85500000000002</ele>
        <time>2026-04-25T10:51:38Z</time>
      </trkpt>
      <trkpt lat="40.655913976952434" lon="-2.573660016059876">
        <ele>975.83699999999999</ele>
        <time>2026-04-25T10:51:39Z</time>
      </trkpt>
      <trkpt lat="40.655934009701014" lon="-2.573685999959707">
        <ele>975.87599999999998</ele>
        <time>2026-04-25T10:51:40Z</time>
      </trkpt>
      <trkpt lat="40.655956976115704" lon="-2.573708966374397">
        <ele>975.86699999999996</ele>
        <time>2026-04-25T10:51:41Z</time>
      </trkpt>
      <trkpt lat="40.655981032177806" lon="-2.573726987466216">
        <ele>975.68200000000002</ele>
        <time>2026-04-25T10:51:42Z</time>
      </trkpt>
      <trkpt lat="40.656003998592496" lon="-2.573741991072893">
        <ele>975.63599999999997</ele>
        <time>2026-04-25T10:51:43Z</time>
      </trkpt>
      <trkpt lat="40.656028976663947" lon="-2.57375699467957">
        <ele>975.61699999999996</ele>
        <time>2026-04-25T10:51:44Z</time>
      </trkpt>
      <trkpt lat="40.65605403855443" lon="-2.573769986629486">
        <ele>975.61800000000005</ele>
        <time>2026-04-25T10:51:45Z</time>
      </trkpt>
      <trkpt lat="40.656078010797501" lon="-2.573784990236163">
        <ele>975.60900000000004</ele>
        <time>2026-04-25T10:51:46Z</time>
      </trkpt>
      <trkpt lat="40.656101983040571" lon="-2.573797982186079">
        <ele>975.63499999999999</ele>
        <time>2026-04-25T10:51:47Z</time>
      </trkpt>
      <trkpt lat="40.656126961112022" lon="-2.573810974135995">
        <ele>976.09900000000005</ele>
        <time>2026-04-25T10:51:48Z</time>
      </trkpt>
      <trkpt lat="40.656153028830886" lon="-2.573821032419801">
        <ele>975.83399999999995</ele>
        <time>2026-04-25T10:51:49Z</time>
      </trkpt>
      <trkpt lat="40.656179012730718" lon="-2.573827989399433">
        <ele>976.04399999999998</ele>
        <time>2026-04-25T10:51:50Z</time>
      </trkpt>
      <trkpt lat="40.656204996630549" lon="-2.573836036026478">
        <ele>976.23000000000002</ele>
        <time>2026-04-25T10:51:51Z</time>
      </trkpt>
      <trkpt lat="40.656231986358762" lon="-2.573843998834491">
        <ele>976.04200000000003</ele>
        <time>2026-04-25T10:51:52Z</time>
      </trkpt>
      <trkpt lat="40.656259981915355" lon="-2.573846010491252">
        <ele>976.27099999999996</ele>
        <time>2026-04-25T10:51:53Z</time>
      </trkpt>
      <trkpt lat="40.656285965815187" lon="-2.573846010491252">
        <ele>976.23199999999997</ele>
        <time>2026-04-25T10:51:54Z</time>
      </trkpt>
      <trkpt lat="40.656313961371779" lon="-2.573847016319633">
        <ele>976.05700000000002</ele>
        <time>2026-04-25T10:51:55Z</time>
      </trkpt>
      <trkpt lat="40.656340029090643" lon="-2.573846010491252">
        <ele>975.81299999999999</ele>
        <time>2026-04-25T10:51:56Z</time>
      </trkpt>
      <trkpt lat="40.656364001333714" lon="-2.573838969692588">
        <ele>975.64300000000003</ele>
        <time>2026-04-25T10:51:57Z</time>
      </trkpt>
      <trkpt lat="40.656383028253913" lon="-2.573831006884575">
        <ele>975.80700000000002</ele>
        <time>2026-04-25T10:51:58Z</time>
      </trkpt>
      <trkpt lat="40.656416974961758" lon="-2.57382002659142">
        <ele>975.80899999999997</ele>
        <time>2026-04-25T10:52:00Z</time>
      </trkpt>
      <trkpt lat="40.656452011317015" lon="-2.573824971914291">
        <ele>976.04300000000001</ele>
        <time>2026-04-25T10:52:02Z</time>
      </trkpt>
      <trkpt lat="40.656471960246563" lon="-2.573826983571053">
        <ele>976.05700000000002</ele>
        <time>2026-04-25T10:52:03Z</time>
      </trkpt>
      <trkpt lat="40.656495010480285" lon="-2.573834024369717">
        <ele>976.02200000000005</ele>
        <time>2026-04-25T10:52:04Z</time>
      </trkpt>
      <trkpt lat="40.656514037400484" lon="-2.573851961642504">
        <ele>976.01199999999994</ele>
        <time>2026-04-25T10:52:05Z</time>
      </trkpt>
      <trkpt lat="40.656532980501652" lon="-2.573874006047845">
        <ele>976.05799999999999</ele>
        <time>2026-04-25T10:52:06Z</time>
      </trkpt>
      <trkpt lat="40.656553013250232" lon="-2.573907030746341">
        <ele>976.08000000000004</ele>
        <time>2026-04-25T10:52:07Z</time>
      </trkpt>
      <trkpt lat="40.656569022685289" lon="-2.573941983282566">
        <ele>976.08900000000006</ele>
        <time>2026-04-25T10:52:08Z</time>
      </trkpt>
      <trkpt lat="40.656584026291966" lon="-2.573976013809443">
        <ele>975.88</ele>
        <time>2026-04-25T10:52:09Z</time>
      </trkpt>
      <trkpt lat="40.656599029898643" lon="-2.574007026851177">
        <ele>975.68499999999995</ele>
        <time>2026-04-25T10:52:10Z</time>
      </trkpt>
      <trkpt lat="40.656612021848559" lon="-2.57403401657939">
        <ele>975.64200000000005</ele>
        <time>2026-04-25T10:52:11Z</time>
      </trkpt>
      <trkpt lat="40.656619984656572" lon="-2.574063017964363">
        <ele>975.62199999999996</ele>
        <time>2026-04-25T10:52:12Z</time>
      </trkpt>
      <trkpt lat="40.656626019626856" lon="-2.574093025177717">
        <ele>975.61400000000003</ele>
        <time>2026-04-25T10:52:13Z</time>
      </trkpt>
      <trkpt lat="40.656630964949727" lon="-2.574125966057181">
        <ele>975.60900000000004</ele>
        <time>2026-04-25T10:52:14Z</time>
      </trkpt>
      <trkpt lat="40.656636999920011" lon="-2.574159996584058">
        <ele>975.68600000000004</ele>
        <time>2026-04-25T10:52:15Z</time>
      </trkpt>
      <trkpt lat="40.656645968556404" lon="-2.574196038767695">
        <ele>975.42999999999995</ele>
        <time>2026-04-25T10:52:16Z</time>
      </trkpt>
      <trkpt lat="40.65665602684021" lon="-2.574231997132301">
        <ele>975.48500000000001</ele>
        <time>2026-04-25T10:52:17Z</time>
      </trkpt>
      <trkpt lat="40.656668012961745" lon="-2.574266027659178">
        <ele>975.22500000000002</ele>
        <time>2026-04-25T10:52:18Z</time>
      </trkpt>
      <trkpt lat="40.656681004911661" lon="-2.574296034872532">
        <ele>975.44100000000003</ele>
        <time>2026-04-25T10:52:19Z</time>
      </trkpt>
      <trkpt lat="40.656696008518338" lon="-2.574325036257505">
        <ele>975.49300000000005</ele>
        <time>2026-04-25T10:52:20Z</time>
      </trkpt>
      <trkpt lat="40.656711012125015" lon="-2.574352025985718">
        <ele>975.62199999999996</ele>
        <time>2026-04-25T10:52:21Z</time>
      </trkpt>
      <trkpt lat="40.656722998246551" lon="-2.57437901571393">
        <ele>975.64300000000003</ele>
        <time>2026-04-25T10:52:22Z</time>
      </trkpt>
      <trkpt lat="40.656731966882944" lon="-2.574403993785381">
        <ele>975.84799999999996</ele>
        <time>2026-04-25T10:52:23Z</time>
      </trkpt>
      <trkpt lat="40.656749987974763" lon="-2.574427966028452">
        <ele>976.02499999999998</ele>
        <time>2026-04-25T10:52:25Z</time>
      </trkpt>
      <trkpt lat="40.656778989359736" lon="-2.574455961585045">
        <ele>976.02599999999995</ele>
        <time>2026-04-25T10:52:27Z</time>
      </trkpt>
      <trkpt lat="40.656800027936697" lon="-2.574469959363341">
        <ele>976.00800000000004</ele>
        <time>2026-04-25T10:52:28Z</time>
      </trkpt>
      <trkpt lat="40.656820982694626" lon="-2.574484962970018">
        <ele>976.00900000000001</ele>
        <time>2026-04-25T10:52:29Z</time>
      </trkpt>
      <trkpt lat="40.656841015443206" lon="-2.574499966576695">
        <ele>976.43399999999997</ele>
        <time>2026-04-25T10:52:30Z</time>
      </trkpt>
      <trkpt lat="40.656861970201135" lon="-2.574514970183373">
        <ele>976.678</ele>
        <time>2026-04-25T10:52:31Z</time>
      </trkpt>
      <trkpt lat="40.656880997121334" lon="-2.57452997379005">
        <ele>976.62300000000005</ele>
        <time>2026-04-25T10:52:32Z</time>
      </trkpt>
      <trkpt lat="40.656897006556392" lon="-2.574542965739965">
        <ele>976.48299999999995</ele>
        <time>2026-04-25T10:52:33Z</time>
      </trkpt>
      <trkpt lat="40.656921984627843" lon="-2.574556041508913">
        <ele>976.41899999999998</ele>
        <time>2026-04-25T10:52:35Z</time>
      </trkpt>
      <trkpt lat="40.656943023204803" lon="-2.574568027630448">
        <ele>976.65099999999995</ele>
        <time>2026-04-25T10:52:36Z</time>
      </trkpt>
      <trkpt lat="40.656966995447874" lon="-2.574582025408745">
        <ele>976.28999999999996</ele>
        <time>2026-04-25T10:52:37Z</time>
      </trkpt>
      <trkpt lat="40.656991973519325" lon="-2.574598034843803">
        <ele>976.24099999999999</ele>
        <time>2026-04-25T10:52:38Z</time>
      </trkpt>
      <trkpt lat="40.657018963247538" lon="-2.574613960459828">
        <ele>976.23599999999999</ele>
        <time>2026-04-25T10:52:39Z</time>
      </trkpt>
      <trkpt lat="40.657045030966401" lon="-2.574628964066505">
        <ele>976.23500000000001</ele>
        <time>2026-04-25T10:52:40Z</time>
      </trkpt>
      <trkpt lat="40.657072020694613" lon="-2.574642039835453">
        <ele>976.28599999999994</ele>
        <time>2026-04-25T10:52:41Z</time>
      </trkpt>
      <trkpt lat="40.657098004594445" lon="-2.574653020128608">
        <ele>976.21400000000006</ele>
        <time>2026-04-25T10:52:42Z</time>
      </trkpt>
      <trkpt lat="40.657121976837516" lon="-2.574661988765001">
        <ele>976.00900000000001</ele>
        <time>2026-04-25T10:52:43Z</time>
      </trkpt>
      <trkpt lat="40.657143015414476" lon="-2.574667017906904">
        <ele>975.81500000000005</ele>
        <time>2026-04-25T10:52:44Z</time>
      </trkpt>
      <trkpt lat="40.657177967950702" lon="-2.57468000985682">
        <ele>976.029</ele>
        <time>2026-04-25T10:52:46Z</time>
      </trkpt>
      <trkpt lat="40.657196994870901" lon="-2.574685038998723">
        <ele>975.84400000000005</ele>
        <time>2026-04-25T10:52:47Z</time>
      </trkpt>
      <trkpt lat="40.657217027619481" lon="-2.574688978493214">
        <ele>975.64400000000001</ele>
        <time>2026-04-25T10:52:48Z</time>
      </trkpt>
      <trkpt lat="40.657240999862552" lon="-2.574687972664833">
        <ele>975.62</ele>
        <time>2026-04-25T10:52:49Z</time>
      </trkpt>
      <trkpt lat="40.657262960448861" lon="-2.574687972664833">
        <ele>975.61199999999997</ele>
        <time>2026-04-25T10:52:50Z</time>
      </trkpt>
      <trkpt lat="40.657287016510963" lon="-2.574689984321594">
        <ele>975.89099999999996</ele>
        <time>2026-04-25T10:52:51Z</time>
      </trkpt>
      <trkpt lat="40.657308977097273" lon="-2.574691995978355">
        <ele>975.84199999999998</ele>
        <time>2026-04-25T10:52:52Z</time>
      </trkpt>
      <trkpt lat="40.657328004017472" lon="-2.574696019291878">
        <ele>976.06700000000001</ele>
        <time>2026-04-25T10:52:53Z</time>
      </trkpt>
      <trkpt lat="40.657347030937672" lon="-2.574699958786368">
        <ele>976.03399999999999</ele>
        <time>2026-04-25T10:52:54Z</time>
      </trkpt>
      <trkpt lat="40.657365974038839" lon="-2.574709011241794">
        <ele>976.05499999999995</ele>
        <time>2026-04-25T10:52:55Z</time>
      </trkpt>
      <trkpt lat="40.657386006787419" lon="-2.574716974049807">
        <ele>976.21000000000004</ele>
        <time>2026-04-25T10:52:56Z</time>
      </trkpt>
      <trkpt lat="40.657408973202109" lon="-2.57472200319171">
        <ele>976.20899999999995</ele>
        <time>2026-04-25T10:52:57Z</time>
      </trkpt>
      <trkpt lat="40.657432023435831" lon="-2.574728038161993">
        <ele>976.255</ele>
        <time>2026-04-25T10:52:58Z</time>
      </trkpt>
      <trkpt lat="40.657454989850521" lon="-2.574738012626767">
        <ele>976.23900000000003</ele>
        <time>2026-04-25T10:52:59Z</time>
      </trkpt>
      <trkpt lat="40.657476028427482" lon="-2.574746981263161">
        <ele>976.23400000000004</ele>
        <time>2026-04-25T10:53:00Z</time>
      </trkpt>
      <trkpt lat="40.657497989013791" lon="-2.574751004576683">
        <ele>976.274</ele>
        <time>2026-04-25T10:53:01Z</time>
      </trkpt>
      <trkpt lat="40.657521039247513" lon="-2.574758967384696">
        <ele>976.22000000000003</ele>
        <time>2026-04-25T10:53:02Z</time>
      </trkpt>
      <trkpt lat="40.657542999833822" lon="-2.574769025668502">
        <ele>976.43200000000002</ele>
        <time>2026-04-25T10:53:03Z</time>
      </trkpt>
      <trkpt lat="40.657565966248512" lon="-2.574776988476515">
        <ele>976.68100000000004</ele>
        <time>2026-04-25T10:53:04Z</time>
      </trkpt>
      <trkpt lat="40.657590022310615" lon="-2.57478503510356">
        <ele>976.66200000000003</ele>
        <time>2026-04-25T10:53:05Z</time>
      </trkpt>
      <trkpt lat="40.657612988725305" lon="-2.57478796876967">
        <ele>976.41700000000003</ele>
        <time>2026-04-25T10:53:06Z</time>
      </trkpt>
      <trkpt lat="40.657636960968375" lon="-2.574799032881856">
        <ele>976.41899999999998</ele>
        <time>2026-04-25T10:53:07Z</time>
      </trkpt>
      <trkpt lat="40.657661017030478" lon="-2.57480900734663">
        <ele>976.40899999999999</ele>
        <time>2026-04-25T10:53:08Z</time>
      </trkpt>
      <trkpt lat="40.657684989273548" lon="-2.574813030660152">
        <ele>976.41899999999998</ele>
        <time>2026-04-25T10:53:09Z</time>
      </trkpt>
      <trkpt lat="40.657706027850509" lon="-2.574814958497882">
        <ele>976.60900000000004</ele>
        <time>2026-04-25T10:53:10Z</time>
      </trkpt>
      <trkpt lat="40.657723965123296" lon="-2.574818981811404">
        <ele>976.49300000000005</ele>
        <time>2026-04-25T10:53:11Z</time>
      </trkpt>
      <trkpt lat="40.657747015357018" lon="-2.574827028438449">
        <ele>976.48699999999997</ele>
        <time>2026-04-25T10:53:12Z</time>
      </trkpt>
      <trkpt lat="40.657765036448836" lon="-2.574835997074843">
        <ele>976.46199999999999</ele>
        <time>2026-04-25T10:53:13Z</time>
      </trkpt>
      <trkpt lat="40.657781967893243" lon="-2.574845971539617">
        <ele>976.68200000000002</ele>
        <time>2026-04-25T10:53:14Z</time>
      </trkpt>
      <trkpt lat="40.657808035612106" lon="-2.57487203925848">
        <ele>976.63800000000003</ele>
        <time>2026-04-25T10:53:16Z</time>
      </trkpt>
      <trkpt lat="40.657842988148332" lon="-2.57489399984479">
        <ele>977.09000000000003</ele>
        <time>2026-04-25T10:53:18Z</time>
      </trkpt>
      <trkpt lat="40.657863020896912" lon="-2.574907997623086">
        <ele>977.029</ele>
        <time>2026-04-25T10:53:19Z</time>
      </trkpt>
      <trkpt lat="40.657878024503589" lon="-2.574920989573002">
        <ele>977.03999999999996</ele>
        <time>2026-04-25T10:53:20Z</time>
      </trkpt>
      <trkpt lat="40.657895961776376" lon="-2.574944039806724">
        <ele>977.03499999999997</ele>
        <time>2026-04-25T10:53:22Z</time>
      </trkpt>
      <trkpt lat="40.65792697481811" lon="-2.574969017878175">
        <ele>977.27300000000002</ele>
        <time>2026-04-25T10:53:24Z</time>
      </trkpt>
      <trkpt lat="40.657955976203084" lon="-2.574996007606387">
        <ele>977.28499999999997</ele>
        <time>2026-04-25T10:53:26Z</time>
      </trkpt>
      <trkpt lat="40.657970979809761" lon="-2.575012017041445">
        <ele>977.21299999999997</ele>
        <time>2026-04-25T10:53:27Z</time>
      </trkpt>
      <trkpt lat="40.65798900090158" lon="-2.575028026476502">
        <ele>977.40899999999999</ele>
        <time>2026-04-25T10:53:28Z</time>
      </trkpt>
      <trkpt lat="40.658008027821779" lon="-2.575048981234431">
        <ele>977.47900000000004</ele>
        <time>2026-04-25T10:53:29Z</time>
      </trkpt>
      <trkpt lat="40.658027976751328" lon="-2.575070019811392">
        <ele>977.09299999999996</ele>
        <time>2026-04-25T10:53:30Z</time>
      </trkpt>
      <trkpt lat="40.658045997843146" lon="-2.575090974569321">
        <ele>977.25800000000004</ele>
        <time>2026-04-25T10:53:31Z</time>
      </trkpt>
      <trkpt lat="40.658063013106585" lon="-2.575113018974662">
        <ele>977.22799999999995</ele>
        <time>2026-04-25T10:53:32Z</time>
      </trkpt>
      <trkpt lat="40.658079022541642" lon="-2.5751300342381">
        <ele>977.24400000000003</ele>
        <time>2026-04-25T10:53:33Z</time>
      </trkpt>
      <trkpt lat="40.658096959814429" lon="-2.575145959854126">
        <ele>977.21600000000001</ele>
        <time>2026-04-25T10:53:34Z</time>
      </trkpt>
      <trkpt lat="40.658127972856164" lon="-2.57517202757299">
        <ele>977.29499999999996</ele>
        <time>2026-04-25T10:53:36Z</time>
      </trkpt>
      <trkpt lat="40.658144988119602" lon="-2.575188037008047">
        <ele>977.23599999999999</ele>
        <time>2026-04-25T10:53:37Z</time>
      </trkpt>
      <trkpt lat="40.658166026696563" lon="-2.575207985937595">
        <ele>977.21100000000001</ele>
        <time>2026-04-25T10:53:38Z</time>
      </trkpt>
      <trkpt lat="40.658191004768014" lon="-2.575227012857795">
        <ele>977.49099999999999</ele>
        <time>2026-04-25T10:53:39Z</time>
      </trkpt>
      <trkpt lat="40.658213971182704" lon="-2.575241010636091">
        <ele>977.68100000000004</ele>
        <time>2026-04-25T10:53:40Z</time>
      </trkpt>
      <trkpt lat="40.658237021416426" lon="-2.575251990929246">
        <ele>977.61900000000003</ele>
        <time>2026-04-25T10:53:41Z</time>
      </trkpt>
      <trkpt lat="40.658260993659496" lon="-2.575260037556291">
        <ele>977.60900000000004</ele>
        <time>2026-04-25T10:53:42Z</time>
      </trkpt>
      <trkpt lat="40.658283960074186" lon="-2.575268000364304">
        <ele>977.66099999999994</ele>
        <time>2026-04-25T10:53:43Z</time>
      </trkpt>
      <trkpt lat="40.658306004479527" lon="-2.575276969000697">
        <ele>977.89499999999998</ele>
        <time>2026-04-25T10:53:44Z</time>
      </trkpt>
      <trkpt lat="40.658327965065837" lon="-2.575290966778994">
        <ele>977.84000000000003</ele>
        <time>2026-04-25T10:53:45Z</time>
      </trkpt>
      <trkpt lat="40.658350009471178" lon="-2.575303036719561">
        <ele>977.83000000000004</ele>
        <time>2026-04-25T10:53:46Z</time>
      </trkpt>
      <trkpt lat="40.658371970057487" lon="-2.575312005355954">
        <ele>978.04600000000005</ele>
        <time>2026-04-25T10:53:47Z</time>
      </trkpt>
      <trkpt lat="40.65839703194797" lon="-2.575318040326238">
        <ele>978.26800000000003</ele>
        <time>2026-04-25T10:53:48Z</time>
      </trkpt>
      <trkpt lat="40.658422010019422" lon="-2.57532399147749">
        <ele>978.45699999999999</ele>
        <time>2026-04-25T10:53:49Z</time>
      </trkpt>
      <trkpt lat="40.658445982262492" lon="-2.57532399147749">
        <ele>978.49800000000005</ele>
        <time>2026-04-25T10:53:50Z</time>
      </trkpt>
      <trkpt lat="40.658467020839453" lon="-2.575322985649109">
        <ele>978.68299999999999</ele>
        <time>2026-04-25T10:53:51Z</time>
      </trkpt>
      <trkpt lat="40.658493004739285" lon="-2.575332960113883">
        <ele>978.83399999999995</ele>
        <time>2026-04-25T10:53:53Z</time>
      </trkpt>
      <trkpt lat="40.6585250236094" lon="-2.575341006740928">
        <ele>979.05499999999995</ele>
        <time>2026-04-25T10:53:55Z</time>
      </trkpt>
      <trkpt lat="40.658545978367329" lon="-2.57534503005445">
        <ele>979.00999999999999</ele>
        <time>2026-04-25T10:53:56Z</time>
      </trkpt>
      <trkpt lat="40.65856802277267" lon="-2.575346035882831">
        <ele>979.20899999999995</ele>
        <time>2026-04-25T10:53:57Z</time>
      </trkpt>
      <trkpt lat="40.658589983358979" lon="-2.575337989255786">
        <ele>979.23500000000001</ele>
        <time>2026-04-25T10:53:58Z</time>
      </trkpt>
      <trkpt lat="40.658608004450798" lon="-2.575329020619392">
        <ele>979.28899999999999</ele>
        <time>2026-04-25T10:53:59Z</time>
      </trkpt>
      <trkpt lat="40.658641029149294" lon="-2.57532499730587">
        <ele>978.654</ele>
        <time>2026-04-25T10:54:01Z</time>
      </trkpt>
      <trkpt lat="40.658662989735603" lon="-2.575327008962631">
        <ele>978.47400000000005</ele>
        <time>2026-04-25T10:54:02Z</time>
      </trkpt>
      <trkpt lat="40.658687967807055" lon="-2.57532399147749">
        <ele>978.27999999999997</ele>
        <time>2026-04-25T10:54:03Z</time>
      </trkpt>
      <trkpt lat="40.658713029697537" lon="-2.575318962335587">
        <ele>977.822</ele>
        <time>2026-04-25T10:54:04Z</time>
      </trkpt>
      <trkpt lat="40.658733984455466" lon="-2.575310999527574">
        <ele>977.69100000000003</ele>
        <time>2026-04-25T10:54:05Z</time>
      </trkpt>
      <trkpt lat="40.658767009153962" lon="-2.575308987870812">
        <ele>976.83199999999999</ele>
        <time>2026-04-25T10:54:07Z</time>
      </trkpt>
      <trkpt lat="40.658786036074162" lon="-2.575315022841096">
        <ele>976.42700000000002</ele>
        <time>2026-04-25T10:54:08Z</time>
      </trkpt>
      <trkpt lat="40.65880699083209" lon="-2.575321979820728">
        <ele>976.24800000000005</ele>
        <time>2026-04-25T10:54:09Z</time>
      </trkpt>
      <trkpt lat="40.65882601775229" lon="-2.575327008962631">
        <ele>976.06100000000004</ele>
        <time>2026-04-25T10:54:10Z</time>
      </trkpt>
      <trkpt lat="40.65884998999536" lon="-2.575337989255786">
        <ele>974.81700000000001</ele>
        <time>2026-04-25T10:54:13Z</time>
      </trkpt>
      <trkpt lat="40.658871028572321" lon="-2.575340000912547">
        <ele>974.40899999999999</ele>
        <time>2026-04-25T10:54:15Z</time>
      </trkpt>
      <trkpt lat="40.658887038007379" lon="-2.575306976214051">
        <ele>974.05600000000004</ele>
        <time>2026-04-25T10:54:17Z</time>
      </trkpt>
      <trkpt lat="40.658898018300533" lon="-2.575286021456122">
        <ele>972.88</ele>
        <time>2026-04-25T10:54:20Z</time>
      </trkpt>
      <trkpt lat="40.658907992765307" lon="-2.57526196539402">
        <ele>971.64499999999998</ele>
        <time>2026-04-25T10:54:25Z</time>
      </trkpt>
      <trkpt lat="40.658917967230082" lon="-2.575236987322569">
        <ele>971.495</ele>
        <time>2026-04-25T10:54:27Z</time>
      </trkpt>
      <trkpt lat="40.658930959179997" lon="-2.575217038393021">
        <ele>971.23099999999999</ele>
        <time>2026-04-25T10:54:29Z</time>
      </trkpt>
      <trkpt lat="40.658957026898861" lon="-2.575206980109215">
        <ele>970.84299999999996</ele>
        <time>2026-04-25T10:54:31Z</time>
      </trkpt>
      <trkpt lat="40.658992985263467" lon="-2.575206980109215">
        <ele>970.63199999999995</ele>
        <time>2026-04-25T10:54:33Z</time>
      </trkpt>
      <trkpt lat="40.659012012183666" lon="-2.575201028957963">
        <ele>970.28300000000002</ele>
        <time>2026-04-25T10:54:34Z</time>
      </trkpt>
      <trkpt lat="40.659030033275485" lon="-2.575203962624073">
        <ele>970.03800000000001</ele>
        <time>2026-04-25T10:54:35Z</time>
      </trkpt>
      <trkpt lat="40.659051993861794" lon="-2.575203040614724">
        <ele>969.63900000000001</ele>
        <time>2026-04-25T10:54:36Z</time>
      </trkpt>
      <trkpt lat="40.659071020781994" lon="-2.575188959017396">
        <ele>969.20100000000002</ele>
        <time>2026-04-25T10:54:37Z</time>
      </trkpt>
      <trkpt lat="40.659089041873813" lon="-2.575168004259467">
        <ele>968.82100000000003</ele>
        <time>2026-04-25T10:54:38Z</time>
      </trkpt>
      <trkpt lat="40.659113014116883" lon="-2.575146965682507">
        <ele>968.60900000000004</ele>
        <time>2026-04-25T10:54:39Z</time>
      </trkpt>
      <trkpt lat="40.659135980531573" lon="-2.575134979560971">
        <ele>968.23500000000001</ele>
        <time>2026-04-25T10:54:40Z</time>
      </trkpt>
      <trkpt lat="40.659161964431405" lon="-2.575120981782675">
        <ele>967.899</ele>
        <time>2026-04-25T10:54:41Z</time>
      </trkpt>
      <trkpt lat="40.659187026321888" lon="-2.57510899566114">
        <ele>967.21400000000006</ele>
        <time>2026-04-25T10:54:42Z</time>
      </trkpt>
      <trkpt lat="40.659210998564959" lon="-2.575100027024746">
        <ele>966.63400000000001</ele>
        <time>2026-04-25T10:54:43Z</time>
      </trkpt>
      <trkpt lat="40.659233964979649" lon="-2.575096003711224">
        <ele>966.02999999999997</ele>
        <time>2026-04-25T10:54:44Z</time>
      </trkpt>
      <trkpt lat="40.659261960536242" lon="-2.575079994276166">
        <ele>965.06200000000001</ele>
        <time>2026-04-25T10:54:46Z</time>
      </trkpt>
      <trkpt lat="40.659287022426724" lon="-2.575063984841108">
        <ele>963.88099999999997</ele>
        <time>2026-04-25T10:54:48Z</time>
      </trkpt>
      <trkpt lat="40.65932298079133" lon="-2.575069013983011">
        <ele>963.072</ele>
        <time>2026-04-25T10:54:50Z</time>
      </trkpt>
      <trkpt lat="40.659347958862782" lon="-2.575069013983011">
        <ele>962.827</ele>
        <time>2026-04-25T10:54:51Z</time>
      </trkpt>
      <trkpt lat="40.659366985782981" lon="-2.575062979012728">
        <ele>962.25699999999995</ele>
        <time>2026-04-25T10:54:52Z</time>
      </trkpt>
      <trkpt lat="40.659393975511193" lon="-2.575050992891192">
        <ele>961.39999999999998</ele>
        <time>2026-04-25T10:54:54Z</time>
      </trkpt>
      <trkpt lat="40.659418031573296" lon="-2.575040012598038">
        <ele>960.82000000000005</ele>
        <time>2026-04-25T10:54:56Z</time>
      </trkpt>
      <trkpt lat="40.659496989101171" lon="-2.575021991506219">
        <ele>959.20899999999995</ele>
        <time>2026-04-25T10:55:01Z</time>
      </trkpt>
      <trkpt lat="40.659523978829384" lon="-2.575019979849458">
        <ele>959.08699999999999</ele>
        <time>2026-04-25T10:55:02Z</time>
      </trkpt>
      <trkpt lat="40.659550968557596" lon="-2.575021991506219">
        <ele>959.01099999999997</ele>
        <time>2026-04-25T10:55:03Z</time>
      </trkpt>
      <trkpt lat="40.659578964114189" lon="-2.575025008991361">
        <ele>958.69600000000003</ele>
        <time>2026-04-25T10:55:04Z</time>
      </trkpt>
      <trkpt lat="40.659606037661433" lon="-2.5750229973346">
        <ele>958.49599999999998</ele>
        <time>2026-04-25T10:55:05Z</time>
      </trkpt>
      <trkpt lat="40.659632021561265" lon="-2.575010005384684">
        <ele>958.22199999999998</ele>
        <time>2026-04-25T10:55:06Z</time>
      </trkpt>
      <trkpt lat="40.659658005461097" lon="-2.574992990121245">
        <ele>958.06399999999996</ele>
        <time>2026-04-25T10:55:07Z</time>
      </trkpt>
      <trkpt lat="40.659679966047406" lon="-2.574982009828091">
        <ele>957.83299999999997</ele>
        <time>2026-04-25T10:55:08Z</time>
      </trkpt>
      <trkpt lat="40.659696981310844" lon="-2.574964994564652">
        <ele>957.09400000000005</ele>
        <time>2026-04-25T10:55:09Z</time>
      </trkpt>
      <trkpt lat="40.659724976867437" lon="-2.574929958209395">
        <ele>956.44899999999996</ele>
        <time>2026-04-25T10:55:11Z</time>
      </trkpt>
      <trkpt lat="40.659764958545566" lon="-2.574902968481183">
        <ele>955.84900000000005</ele>
        <time>2026-04-25T10:55:13Z</time>
      </trkpt>
      <trkpt lat="40.659787002950907" lon="-2.574888970702887">
        <ele>955.40200000000004</ele>
        <time>2026-04-25T10:55:14Z</time>
      </trkpt>
      <trkpt lat="40.659832013770938" lon="-2.574868015944958">
        <ele>954.822</ele>
        <time>2026-04-25T10:55:17Z</time>
      </trkpt>
      <trkpt lat="40.659853974357247" lon="-2.574854018166661">
        <ele>954.40899999999999</ele>
        <time>2026-04-25T10:55:19Z</time>
      </trkpt>
      <trkpt lat="40.65988096408546" lon="-2.574853012338281">
        <ele>954.24599999999998</ele>
        <time>2026-04-25T10:55:21Z</time>
      </trkpt>
      <trkpt lat="40.659904014319181" lon="-2.574853012338281">
        <ele>954.21000000000004</ele>
        <time>2026-04-25T10:55:22Z</time>
      </trkpt>
      <trkpt lat="40.65992496907711" lon="-2.57485100068152">
        <ele>954.02499999999998</ele>
        <time>2026-04-25T10:55:23Z</time>
      </trkpt>
      <trkpt lat="40.659947013482451" lon="-2.574846977367997">
        <ele>953.85500000000002</ele>
        <time>2026-04-25T10:55:24Z</time>
      </trkpt>
      <trkpt lat="40.659971991553903" lon="-2.574843959882855">
        <ele>953.41099999999994</ele>
        <time>2026-04-25T10:55:25Z</time>
      </trkpt>
      <trkpt lat="40.659995041787624" lon="-2.574840020388365">
        <ele>953.29300000000001</ele>
        <time>2026-04-25T10:55:26Z</time>
      </trkpt>
      <trkpt lat="40.660013984888792" lon="-2.57483096793294">
        <ele>953.072</ele>
        <time>2026-04-25T10:55:27Z</time>
      </trkpt>
      <trkpt lat="40.660036029294133" lon="-2.574819987639785">
        <ele>952.83299999999997</ele>
        <time>2026-04-25T10:55:28Z</time>
      </trkpt>
      <trkpt lat="40.660126972943544" lon="-2.574784029275179">
        <ele>951.87800000000004</ele>
        <time>2026-04-25T10:55:34Z</time>
      </trkpt>
      <trkpt lat="40.660188999027014" lon="-2.574817975983024">
        <ele>950.82799999999997</ele>
        <time>2026-04-25T10:55:37Z</time>
      </trkpt>
      <trkpt lat="40.660213977098465" lon="-2.574826022610068">
        <ele>950.68899999999996</ele>
        <time>2026-04-25T10:55:38Z</time>
      </trkpt>
      <trkpt lat="40.660240966826677" lon="-2.574826022610068">
        <ele>950.41700000000003</ele>
        <time>2026-04-25T10:55:39Z</time>
      </trkpt>
      <trkpt lat="40.660270974040031" lon="-2.574824010953307">
        <ele>950.00900000000001</ele>
        <time>2026-04-25T10:55:40Z</time>
      </trkpt>
      <trkpt lat="40.660301987081766" lon="-2.574819987639785">
        <ele>949.64400000000001</ele>
        <time>2026-04-25T10:55:41Z</time>
      </trkpt>
      <trkpt lat="40.660328976809978" lon="-2.574826022610068">
        <ele>949.44799999999998</ele>
        <time>2026-04-25T10:55:42Z</time>
      </trkpt>
      <trkpt lat="40.660358984023333" lon="-2.57482803426683">
        <ele>949.21299999999997</ele>
        <time>2026-04-25T10:55:43Z</time>
      </trkpt>
      <trkpt lat="40.660385973751545" lon="-2.57483197376132">
        <ele>948.84299999999996</ele>
        <time>2026-04-25T10:55:44Z</time>
      </trkpt>
      <trkpt lat="40.660408018156886" lon="-2.574835997074843">
        <ele>948.899</ele>
        <time>2026-04-25T10:55:45Z</time>
      </trkpt>
      <trkpt lat="40.660429978743196" lon="-2.574842032045126">
        <ele>948.63099999999997</ele>
        <time>2026-04-25T10:55:46Z</time>
      </trkpt>
      <trkpt lat="40.660454034805298" lon="-2.574848989024758">
        <ele>948.45000000000005</ele>
        <time>2026-04-25T10:55:47Z</time>
      </trkpt>
      <trkpt lat="40.660478007048368" lon="-2.574857035651803">
        <ele>948.41099999999994</ele>
        <time>2026-04-25T10:55:48Z</time>
      </trkpt>
      <trkpt lat="40.660501979291439" lon="-2.574860975146294">
        <ele>948.02599999999995</ele>
        <time>2026-04-25T10:55:49Z</time>
      </trkpt>
      <trkpt lat="40.6605230178684" lon="-2.5748520065099">
        <ele>948.01900000000001</ele>
        <time>2026-04-25T10:55:50Z</time>
      </trkpt>
      <trkpt lat="40.660541038960218" lon="-2.574841026216745">
        <ele>947.80899999999997</ele>
        <time>2026-04-25T10:55:51Z</time>
      </trkpt>
      <trkpt lat="40.660576997324824" lon="-2.574839014559984">
        <ele>947.81899999999996</ele>
        <time>2026-04-25T10:55:53Z</time>
      </trkpt>
      <trkpt lat="40.660595018416643" lon="-2.574840020388365">
        <ele>947.60900000000004</ele>
        <time>2026-04-25T10:55:54Z</time>
      </trkpt>
      <trkpt lat="40.660617984831333" lon="-2.574847983196378">
        <ele>947.46299999999997</ele>
        <time>2026-04-25T10:55:56Z</time>
      </trkpt>
      <trkpt lat="40.660637011751533" lon="-2.5748520065099">
        <ele>947.01700000000005</ele>
        <time>2026-04-25T10:55:58Z</time>
      </trkpt>
      <trkpt lat="40.660666013136506" lon="-2.574853012338281">
        <ele>947.02200000000005</ele>
        <time>2026-04-25T10:56:00Z</time>
      </trkpt>
      <trkpt lat="40.660685962066054" lon="-2.574858041480184">
        <ele>947.08199999999999</ele>
        <time>2026-04-25T10:56:01Z</time>
      </trkpt>
      <trkpt lat="40.660704988986254" lon="-2.574867010116577">
        <ele>947.02800000000002</ele>
        <time>2026-04-25T10:56:02Z</time>
      </trkpt>
      <trkpt lat="40.660723010078073" lon="-2.574878996238112">
        <ele>946.86000000000001</ele>
        <time>2026-04-25T10:56:03Z</time>
      </trkpt>
      <trkpt lat="40.660742036998272" lon="-2.574886959046125">
        <ele>946.67899999999997</ele>
        <time>2026-04-25T10:56:04Z</time>
      </trkpt>
      <trkpt lat="40.66076098009944" lon="-2.574891988188028">
        <ele>946.23000000000002</ele>
        <time>2026-04-25T10:56:05Z</time>
      </trkpt>
      <trkpt lat="40.660786963999271" lon="-2.574899028986692">
        <ele>945.85500000000002</ele>
        <time>2026-04-25T10:56:06Z</time>
      </trkpt>
      <trkpt lat="40.660811020061374" lon="-2.574903974309564">
        <ele>945.673</ele>
        <time>2026-04-25T10:56:07Z</time>
      </trkpt>
      <trkpt lat="40.660831974819303" lon="-2.574905985966325">
        <ele>945.48500000000001</ele>
        <time>2026-04-25T10:56:08Z</time>
      </trkpt>
      <trkpt lat="40.660849995911121" lon="-2.57491403259337">
        <ele>945.01300000000003</ele>
        <time>2026-04-25T10:56:09Z</time>
      </trkpt>
      <trkpt lat="40.660874973982573" lon="-2.574941022321582">
        <ele>944.20899999999995</ele>
        <time>2026-04-25T10:56:11Z</time>
      </trkpt>
      <trkpt lat="40.660905987024307" lon="-2.574964994564652">
        <ele>943.48900000000003</ele>
        <time>2026-04-25T10:56:13Z</time>
      </trkpt>
      <trkpt lat="40.660934988409281" lon="-2.574976980686188">
        <ele>942.65300000000002</ele>
        <time>2026-04-25T10:56:15Z</time>
      </trkpt>
      <trkpt lat="40.660956026986241" lon="-2.574984021484852">
        <ele>942.22799999999995</ele>
        <time>2026-04-25T10:56:16Z</time>
      </trkpt>
      <trkpt lat="40.660988967865705" lon="-2.574982009828091">
        <ele>941.428</ele>
        <time>2026-04-25T10:56:18Z</time>
      </trkpt>
      <trkpt lat="40.661011012271047" lon="-2.574976980686188">
        <ele>941.08399999999995</ele>
        <time>2026-04-25T10:56:19Z</time>
      </trkpt>
      <trkpt lat="40.661048982292414" lon="-2.574969017878175">
        <ele>940.25599999999997</ele>
        <time>2026-04-25T10:56:21Z</time>
      </trkpt>
      <trkpt lat="40.661073960363865" lon="-2.574966000393033">
        <ele>940.01499999999999</ele>
        <time>2026-04-25T10:56:22Z</time>
      </trkpt>
      <trkpt lat="40.661100028082728" lon="-2.574961977079511">
        <ele>939.61599999999999</ele>
        <time>2026-04-25T10:56:23Z</time>
      </trkpt>
      <trkpt lat="40.661120982840657" lon="-2.574964994564652">
        <ele>939.43100000000004</ele>
        <time>2026-04-25T10:56:24Z</time>
      </trkpt>
      <trkpt lat="40.661146966740489" lon="-2.574962982907891">
        <ele>939.49300000000005</ele>
        <time>2026-04-25T10:56:25Z</time>
      </trkpt>
      <trkpt lat="40.661170016974211" lon="-2.574962982907891">
        <ele>939.46500000000003</ele>
        <time>2026-04-25T10:56:26Z</time>
      </trkpt>
      <trkpt lat="40.66119097173214" lon="-2.574953008443117">
        <ele>939.02099999999996</ele>
        <time>2026-04-25T10:56:27Z</time>
      </trkpt>
      <trkpt lat="40.661216033622622" lon="-2.574941022321582">
        <ele>938.80899999999997</ele>
        <time>2026-04-25T10:56:28Z</time>
      </trkpt>
      <trkpt lat="40.661244029179215" lon="-2.574931969866157">
        <ele>938.41099999999994</ele>
        <time>2026-04-25T10:56:29Z</time>
      </trkpt>
      <trkpt lat="40.661272024735808" lon="-2.574920989573002">
        <ele>938.23500000000001</ele>
        <time>2026-04-25T10:56:30Z</time>
      </trkpt>
      <trkpt lat="40.661295996978879" lon="-2.574907997623086">
        <ele>937.84000000000003</ele>
        <time>2026-04-25T10:56:31Z</time>
      </trkpt>
      <trkpt lat="40.66132097505033" lon="-2.574896011501551">
        <ele>937.41999999999996</ele>
        <time>2026-04-25T10:56:32Z</time>
      </trkpt>
      <trkpt lat="40.661344025284052" lon="-2.574888970702887">
        <ele>937.25599999999997</ele>
        <time>2026-04-25T10:56:33Z</time>
      </trkpt>
      <trkpt lat="40.661361962556839" lon="-2.574886037036777">
        <ele>936.82799999999997</ele>
        <time>2026-04-25T10:56:34Z</time>
      </trkpt>
      <trkpt lat="40.661385012790561" lon="-2.574882013723254">
        <ele>936.697</ele>
        <time>2026-04-25T10:56:35Z</time>
      </trkpt>
      <trkpt lat="40.66140697337687" lon="-2.574877990409732">
        <ele>936.23800000000006</ele>
        <time>2026-04-25T10:56:36Z</time>
      </trkpt>
      <trkpt lat="40.661429017782211" lon="-2.574864998459816">
        <ele>936.09299999999996</ele>
        <time>2026-04-25T10:56:37Z</time>
      </trkpt>
      <trkpt lat="40.661451984196901" lon="-2.574858041480184">
        <ele>935.63800000000003</ele>
        <time>2026-04-25T10:56:38Z</time>
      </trkpt>
      <trkpt lat="40.661477968096733" lon="-2.574848989024758">
        <ele>935.47000000000003</ele>
        <time>2026-04-25T10:56:39Z</time>
      </trkpt>
      <trkpt lat="40.661502024158835" lon="-2.574843959882855">
        <ele>934.81700000000001</ele>
        <time>2026-04-25T10:56:40Z</time>
      </trkpt>
      <trkpt lat="40.661528008058667" lon="-2.574847983196378">
        <ele>934.60900000000004</ele>
        <time>2026-04-25T10:56:41Z</time>
      </trkpt>
      <trkpt lat="40.661553991958499" lon="-2.574857035651803">
        <ele>934.23500000000001</ele>
        <time>2026-04-25T10:56:42Z</time>
      </trkpt>
      <trkpt lat="40.66157897002995" lon="-2.574869021773338">
        <ele>933.83900000000006</ele>
        <time>2026-04-25T10:56:43Z</time>
      </trkpt>
      <trkpt lat="40.661604031920433" lon="-2.574875978752971">
        <ele>933.654</ele>
        <time>2026-04-25T10:56:44Z</time>
      </trkpt>
      <trkpt lat="40.661628004163504" lon="-2.574881007894874">
        <ele>933.22400000000005</ele>
        <time>2026-04-25T10:56:45Z</time>
      </trkpt>
      <trkpt lat="40.661648036912084" lon="-2.574885031208396">
        <ele>932.63</ele>
        <time>2026-04-25T10:56:46Z</time>
      </trkpt>
      <trkpt lat="40.661667985841632" lon="-2.57489399984479">
        <ele>932.42200000000003</ele>
        <time>2026-04-25T10:56:47Z</time>
      </trkpt>
      <trkpt lat="40.661689024418592" lon="-2.574902968481183">
        <ele>932.06100000000004</ele>
        <time>2026-04-25T10:56:48Z</time>
      </trkpt>
      <trkpt lat="40.661710985004902" lon="-2.574911015108228">
        <ele>931.63199999999995</ele>
        <time>2026-04-25T10:56:49Z</time>
      </trkpt>
      <trkpt lat="40.661730011925101" lon="-2.574924007058144">
        <ele>931.41700000000003</ele>
        <time>2026-04-25T10:56:50Z</time>
      </trkpt>
      <trkpt lat="40.66174803301692" lon="-2.57493800483644">
        <ele>931.05700000000002</ele>
        <time>2026-04-25T10:56:51Z</time>
      </trkpt>
      <trkpt lat="40.66177099943161" lon="-2.574944039806724">
        <ele>930.79999999999995</ele>
        <time>2026-04-25T10:56:52Z</time>
      </trkpt>
      <trkpt lat="40.661794971674681" lon="-2.574947979301214">
        <ele>930.62</ele>
        <time>2026-04-25T10:56:53Z</time>
      </trkpt>
      <trkpt lat="40.661817016080022" lon="-2.574953008443117">
        <ele>930.40899999999999</ele>
        <time>2026-04-25T10:56:54Z</time>
      </trkpt>
      <trkpt lat="40.661837970837951" lon="-2.574956025928259">
        <ele>930.05700000000002</ele>
        <time>2026-04-25T10:56:55Z</time>
      </trkpt>
      <trkpt lat="40.66185599192977" lon="-2.574963988736272">
        <ele>929.82100000000003</ele>
        <time>2026-04-25T10:56:56Z</time>
      </trkpt>
      <trkpt lat="40.661875018849969" lon="-2.574973963201046">
        <ele>929.82600000000002</ele>
        <time>2026-04-25T10:56:57Z</time>
      </trkpt>
      <trkpt lat="40.661893039941788" lon="-2.574985027313232">
        <ele>929.82600000000002</ele>
        <time>2026-04-25T10:56:58Z</time>
      </trkpt>
      <trkpt lat="40.661924974992871" lon="-2.575006987899542">
        <ele>929.41200000000003</ele>
        <time>2026-04-25T10:57:00Z</time>
      </trkpt>
      <trkpt lat="40.661947019398212" lon="-2.575016040354967">
        <ele>929.25400000000002</ele>
        <time>2026-04-25T10:57:01Z</time>
      </trkpt>
      <trkpt lat="40.661966968327761" lon="-2.575026014819741">
        <ele>929.01300000000003</ele>
        <time>2026-04-25T10:57:02Z</time>
      </trkpt>
      <trkpt lat="40.66198498941958" lon="-2.575040012598038">
        <ele>929.024</ele>
        <time>2026-04-25T10:57:03Z</time>
      </trkpt>
      <trkpt lat="40.662003010511398" lon="-2.575056022033095">
        <ele>929.09900000000005</ele>
        <time>2026-04-25T10:57:04Z</time>
      </trkpt>
      <trkpt lat="40.662021031603217" lon="-2.575069013983011">
        <ele>928.851</ele>
        <time>2026-04-25T10:57:05Z</time>
      </trkpt>
      <trkpt lat="40.662038968876004" lon="-2.575081000104547">
        <ele>928.80100000000004</ele>
        <time>2026-04-25T10:57:06Z</time>
      </trkpt>
      <trkpt lat="40.662057995796204" lon="-2.575085023418069">
        <ele>928.61099999999999</ele>
        <time>2026-04-25T10:57:07Z</time>
      </trkpt>
      <trkpt lat="40.662079034373164" lon="-2.57508602924645">
        <ele>928.40899999999999</ele>
        <time>2026-04-25T10:57:08Z</time>
      </trkpt>
      <trkpt lat="40.662097977474332" lon="-2.575085023418069">
        <ele>928.23699999999997</ele>
        <time>2026-04-25T10:57:09Z</time>
      </trkpt>
      <trkpt lat="40.662117004394531" lon="-2.575085023418069">
        <ele>927.83100000000002</ele>
        <time>2026-04-25T10:57:10Z</time>
      </trkpt>
      <trkpt lat="40.662138964980841" lon="-2.57508602924645">
        <ele>927.69600000000003</ele>
        <time>2026-04-25T10:57:11Z</time>
      </trkpt>
      <trkpt lat="40.662161009386182" lon="-2.57508602924645">
        <ele>927.49599999999998</ele>
        <time>2026-04-25T10:57:12Z</time>
      </trkpt>
      <trkpt lat="40.66218095831573" lon="-2.575084017589688">
        <ele>927.49199999999996</ele>
        <time>2026-04-25T10:57:13Z</time>
      </trkpt>
      <trkpt lat="40.662199985235929" lon="-2.575079994276166">
        <ele>927.28399999999999</ele>
        <time>2026-04-25T10:57:14Z</time>
      </trkpt>
      <trkpt lat="40.662237033247948" lon="-2.575082005932927">
        <ele>927.04300000000001</ele>
        <time>2026-04-25T10:57:16Z</time>
      </trkpt>
      <trkpt lat="40.662257988005877" lon="-2.575079994276166">
        <ele>926.87400000000002</ele>
        <time>2026-04-25T10:57:17Z</time>
      </trkpt>
      <trkpt lat="40.662280032411218" lon="-2.575076976791024">
        <ele>926.61900000000003</ele>
        <time>2026-04-25T10:57:18Z</time>
      </trkpt>
      <trkpt lat="40.662299981340766" lon="-2.575076976791024">
        <ele>926.66200000000003</ele>
        <time>2026-04-25T10:57:19Z</time>
      </trkpt>
      <trkpt lat="40.662323031574488" lon="-2.575077982619405">
        <ele>926.48299999999995</ele>
        <time>2026-04-25T10:57:20Z</time>
      </trkpt>
      <trkpt lat="40.662347003817558" lon="-2.575076976791024">
        <ele>926.21100000000001</ele>
        <time>2026-04-25T10:57:21Z</time>
      </trkpt>
      <trkpt lat="40.662371981889009" lon="-2.575072031468153">
        <ele>926.20899999999995</ele>
        <time>2026-04-25T10:57:22Z</time>
      </trkpt>
      <trkpt lat="40.662397965788841" lon="-2.575063984841108">
        <ele>926.08799999999997</ele>
        <time>2026-04-25T10:57:23Z</time>
      </trkpt>
      <trkpt lat="40.662421016022563" lon="-2.575055016204715">
        <ele>926.06200000000001</ele>
        <time>2026-04-25T10:57:24Z</time>
      </trkpt>
      <trkpt lat="40.662441970780492" lon="-2.575050992891192">
        <ele>925.827</ele>
        <time>2026-04-25T10:57:25Z</time>
      </trkpt>
      <trkpt lat="40.662463009357452" lon="-2.575047975406051">
        <ele>925.88699999999994</ele>
        <time>2026-04-25T10:57:26Z</time>
      </trkpt>
      <trkpt lat="40.662487987428904" lon="-2.575054010376334">
        <ele>925.61300000000006</ele>
        <time>2026-04-25T10:57:27Z</time>
      </trkpt>
      <trkpt lat="40.662511037662625" lon="-2.57506700232625">
        <ele>925.44500000000005</ele>
        <time>2026-04-25T10:57:28Z</time>
      </trkpt>
      <trkpt lat="40.662531992420554" lon="-2.575072031468153">
        <ele>925.26400000000001</ele>
        <time>2026-04-25T10:57:29Z</time>
      </trkpt>
      <trkpt lat="40.662553030997515" lon="-2.575073959305883">
        <ele>925.07500000000005</ele>
        <time>2026-04-25T10:57:30Z</time>
      </trkpt>
      <trkpt lat="40.662573985755444" lon="-2.575079994276166">
        <ele>924.86000000000001</ele>
        <time>2026-04-25T10:57:31Z</time>
      </trkpt>
      <trkpt lat="40.662597035989165" lon="-2.575085023418069">
        <ele>924.47400000000005</ele>
        <time>2026-04-25T10:57:32Z</time>
      </trkpt>
      <trkpt lat="40.662620002403855" lon="-2.57508896291256">
        <ele>924.25599999999997</ele>
        <time>2026-04-25T10:57:33Z</time>
      </trkpt>
      <trkpt lat="40.662642968818545" lon="-2.575090974569321">
        <ele>924.02099999999996</ele>
        <time>2026-04-25T10:57:34Z</time>
      </trkpt>
      <trkpt lat="40.662666019052267" lon="-2.575090974569321">
        <ele>924.00900000000001</ele>
        <time>2026-04-25T10:57:35Z</time>
      </trkpt>
      <trkpt lat="40.662685967981815" lon="-2.575091980397701">
        <ele>923.66899999999998</ele>
        <time>2026-04-25T10:57:36Z</time>
      </trkpt>
      <trkpt lat="40.662707006558776" lon="-2.575094997882843">
        <ele>923.68299999999999</ele>
        <time>2026-04-25T10:57:37Z</time>
      </trkpt>
      <trkpt lat="40.662727961316705" lon="-2.575100027024746">
        <ele>923.45799999999997</ele>
        <time>2026-04-25T10:57:38Z</time>
      </trkpt>
      <trkpt lat="40.662748999893665" lon="-2.575102960690856">
        <ele>923.21799999999996</ele>
        <time>2026-04-25T10:57:39Z</time>
      </trkpt>
      <trkpt lat="40.662773977965117" lon="-2.575091980397701">
        <ele>923.04399999999998</ele>
        <time>2026-04-25T10:57:40Z</time>
      </trkpt>
      <trkpt lat="40.662799039855599" lon="-2.575090974569321">
        <ele>922.81600000000003</ele>
        <time>2026-04-25T10:57:41Z</time>
      </trkpt>
      <trkpt lat="40.66282301209867" lon="-2.575088040903211">
        <ele>922.83500000000004</ele>
        <time>2026-04-25T10:57:42Z</time>
      </trkpt>
      <trkpt lat="40.66284597851336" lon="-2.575090974569321">
        <ele>922.81600000000003</ele>
        <time>2026-04-25T10:57:43Z</time>
      </trkpt>
      <trkpt lat="40.662872968241572" lon="-2.575097009539604">
        <ele>922.64099999999996</ele>
        <time>2026-04-25T10:57:44Z</time>
      </trkpt>
      <trkpt lat="40.662898030132055" lon="-2.575100027024746">
        <ele>922.44799999999998</ele>
        <time>2026-04-25T10:57:45Z</time>
      </trkpt>
      <trkpt lat="40.662920996546745" lon="-2.575099021196365">
        <ele>922.26099999999997</ele>
        <time>2026-04-25T10:57:46Z</time>
      </trkpt>
      <trkpt lat="40.662945974618196" lon="-2.575100027024746">
        <ele>922.01700000000005</ele>
        <time>2026-04-25T10:57:47Z</time>
      </trkpt>
      <trkpt lat="40.662969024851918" lon="-2.575097009539604">
        <ele>921.80899999999997</ele>
        <time>2026-04-25T10:57:48Z</time>
      </trkpt>
      <trkpt lat="40.662994002923369" lon="-2.575101032853127">
        <ele>921.66600000000005</ele>
        <time>2026-04-25T10:57:49Z</time>
      </trkpt>
      <trkpt lat="40.663015963509679" lon="-2.575104972347617">
        <ele>921.62</ele>
        <time>2026-04-25T10:57:50Z</time>
      </trkpt>
      <trkpt lat="40.663037002086639" lon="-2.575099021196365">
        <ele>921.66499999999996</ele>
        <time>2026-04-25T10:57:51Z</time>
      </trkpt>
      <trkpt lat="40.663069020956755" lon="-2.575091980397701">
        <ele>921.05499999999995</ele>
        <time>2026-04-25T10:57:53Z</time>
      </trkpt>
      <trkpt lat="40.663101961836219" lon="-2.575100027024746">
        <ele>920.62099999999998</ele>
        <time>2026-04-25T10:57:55Z</time>
      </trkpt>
      <trkpt lat="40.663121994584799" lon="-2.575112013146281">
        <ele>920.27300000000002</ele>
        <time>2026-04-25T10:57:56Z</time>
      </trkpt>
      <trkpt lat="40.663138004019856" lon="-2.575125005096197">
        <ele>920.27200000000005</ele>
        <time>2026-04-25T10:57:57Z</time>
      </trkpt>
      <trkpt lat="40.663165999576449" lon="-2.575154006481171">
        <ele>919.89300000000003</ele>
        <time>2026-04-25T10:57:59Z</time>
      </trkpt>
      <trkpt lat="40.663184020668268" lon="-2.575170015916228">
        <ele>919.66800000000001</ele>
        <time>2026-04-25T10:58:00Z</time>
      </trkpt>
      <trkpt lat="40.663201035931706" lon="-2.575186025351286">
        <ele>919.47400000000005</ele>
        <time>2026-04-25T10:58:01Z</time>
      </trkpt>
      <trkpt lat="40.663216039538383" lon="-2.575200023129582">
        <ele>919.25599999999997</ele>
        <time>2026-04-25T10:58:02Z</time>
      </trkpt>
      <trkpt lat="40.663234982639551" lon="-2.57523899897933">
        <ele>919.02099999999996</ele>
        <time>2026-04-25T10:58:04Z</time>
      </trkpt>
      <trkpt lat="40.663243029266596" lon="-2.57526196539402">
        <ele>919.00900000000001</ele>
        <time>2026-04-25T10:58:05Z</time>
      </trkpt>
      <trkpt lat="40.663265995681286" lon="-2.575295995920897">
        <ele>919.04899999999998</ele>
        <time>2026-04-25T10:58:07Z</time>
      </trkpt>
      <trkpt lat="40.663286028429866" lon="-2.575330026447773">
        <ele>919.03300000000002</ele>
        <time>2026-04-25T10:58:09Z</time>
      </trkpt>
      <trkpt lat="40.663297008723021" lon="-2.575353998690844">
        <ele>919.298</ele>
        <time>2026-04-25T10:58:10Z</time>
      </trkpt>
      <trkpt lat="40.663306983187795" lon="-2.575376965105534">
        <ele>919.44799999999998</ele>
        <time>2026-04-25T10:58:11Z</time>
      </trkpt>
      <trkpt lat="40.663321986794472" lon="-2.575394986197352">
        <ele>919.48400000000004</ele>
        <time>2026-04-25T10:58:12Z</time>
      </trkpt>
      <trkpt lat="40.663331961259246" lon="-2.575429016724229">
        <ele>919.65599999999995</ele>
        <time>2026-04-25T10:58:14Z</time>
      </trkpt>
      <trkpt lat="40.663331039249897" lon="-2.5754529889673">
        <ele>919.86500000000001</ele>
        <time>2026-04-25T10:58:15Z</time>
      </trkpt>
      <trkpt lat="40.663331039249897" lon="-2.575481990352273">
        <ele>919.85599999999999</ele>
        <time>2026-04-25T10:58:16Z</time>
      </trkpt>
      <trkpt lat="40.663335984572768" lon="-2.575511997565627">
        <ele>919.89099999999996</ele>
        <time>2026-04-25T10:58:17Z</time>
      </trkpt>
      <trkpt lat="40.663342019543052" lon="-2.575545022264123">
        <ele>919.88300000000004</ele>
        <time>2026-04-25T10:58:18Z</time>
      </trkpt>
      <trkpt lat="40.663351994007826" lon="-2.575575029477477">
        <ele>919.82500000000005</ele>
        <time>2026-04-25T10:58:19Z</time>
      </trkpt>
      <trkpt lat="40.663371020928025" lon="-2.575601013377309">
        <ele>919.61699999999996</ele>
        <time>2026-04-25T10:58:20Z</time>
      </trkpt>
      <trkpt lat="40.663403039798141" lon="-2.575622973963618">
        <ele>919.80899999999997</ele>
        <time>2026-04-25T10:58:21Z</time>
      </trkpt>
      <trkpt lat="40.663431035354733" lon="-2.575639989227057">
        <ele>919.63999999999999</ele>
        <time>2026-04-25T10:58:22Z</time>
      </trkpt>
      <trkpt lat="40.663457019254565" lon="-2.575659016147256">
        <ele>919.63400000000001</ele>
        <time>2026-04-25T10:58:23Z</time>
      </trkpt>
      <trkpt lat="40.663478979840875" lon="-2.575677037239075">
        <ele>919.67899999999997</ele>
        <time>2026-04-25T10:58:24Z</time>
      </trkpt>
      <trkpt lat="40.663502030074596" lon="-2.575704026967287">
        <ele>919.84900000000005</ele>
        <time>2026-04-25T10:58:26Z</time>
      </trkpt>
      <trkpt lat="40.663517033681273" lon="-2.575720958411694">
        <ele>919.61500000000001</ele>
        <time>2026-04-25T10:58:28Z</time>
      </trkpt>
      <trkpt lat="40.663544023409486" lon="-2.575729005038738">
        <ele>920.45699999999999</ele>
        <time>2026-04-25T10:58:33Z</time>
      </trkpt>
      <trkpt lat="40.663566989824176" lon="-2.575745014473796">
        <ele>920.88599999999997</ele>
        <time>2026-04-25T10:58:35Z</time>
      </trkpt>
      <trkpt lat="40.663588028401136" lon="-2.575764963403344">
        <ele>920.81700000000001</ele>
        <time>2026-04-25T10:58:37Z</time>
      </trkpt>
      <trkpt lat="40.663607977330685" lon="-2.575792036950588">
        <ele>921.01199999999994</ele>
        <time>2026-04-25T10:58:39Z</time>
      </trkpt>
      <trkpt lat="40.663623986765742" lon="-2.575811985880137">
        <ele>920.649</ele>
        <time>2026-04-25T10:58:43Z</time>
      </trkpt>
      <trkpt lat="40.663644019514322" lon="-2.575835036113858">
        <ele>919.80200000000002</ele>
        <time>2026-04-25T10:58:45Z</time>
      </trkpt>
      <trkpt lat="40.663661034777761" lon="-2.575851967558265">
        <ele>919.42200000000003</ele>
        <time>2026-04-25T10:58:47Z</time>
      </trkpt>
      <trkpt lat="40.663674026727676" lon="-2.575873006135225">
        <ele>919.20899999999995</ele>
        <time>2026-04-25T10:58:50Z</time>
      </trkpt>
      <trkpt lat="40.663688024505973" lon="-2.575890021398664">
        <ele>919.29600000000005</ele>
        <time>2026-04-25T10:58:52Z</time>
      </trkpt>
      <trkpt lat="40.663705039769411" lon="-2.575914999470115">
        <ele>919.23000000000002</ele>
        <time>2026-04-25T10:58:54Z</time>
      </trkpt>
      <trkpt lat="40.663724988698959" lon="-2.575937965884805">
        <ele>919.05499999999995</ele>
        <time>2026-04-25T10:58:56Z</time>
      </trkpt>
      <trkpt lat="40.663745021447539" lon="-2.575961016118527">
        <ele>918.81500000000005</ele>
        <time>2026-04-25T10:58:58Z</time>
      </trkpt>
      <trkpt lat="40.663764970377088" lon="-2.575981970876455">
        <ele>918.81100000000004</ele>
        <time>2026-04-25T10:59:00Z</time>
      </trkpt>
      <trkpt lat="40.663785003125668" lon="-2.576003009453416">
        <ele>918.62300000000005</ele>
        <time>2026-04-25T10:59:02Z</time>
      </trkpt>
      <trkpt lat="40.663805035874248" lon="-2.576023964211345">
        <ele>918.62199999999996</ele>
        <time>2026-04-25T10:59:04Z</time>
      </trkpt>
      <trkpt lat="40.663821967318654" lon="-2.576041985303164">
        <ele>918.28300000000002</ele>
        <time>2026-04-25T10:59:06Z</time>
      </trkpt>
      <trkpt lat="40.663835965096951" lon="-2.576069980859757">
        <ele>918.44799999999998</ele>
        <time>2026-04-25T10:59:08Z</time>
      </trkpt>
      <trkpt lat="40.66385499201715" lon="-2.576094958931208">
        <ele>918.24400000000003</ele>
        <time>2026-04-25T10:59:10Z</time>
      </trkpt>
      <trkpt lat="40.663873013108969" lon="-2.576120020821691">
        <ele>918.20500000000004</ele>
        <time>2026-04-25T10:59:12Z</time>
      </trkpt>
      <trkpt lat="40.663887010887265" lon="-2.576140975579619">
        <ele>918.21500000000003</ele>
        <time>2026-04-25T10:59:14Z</time>
      </trkpt>
      <trkpt lat="40.663902014493942" lon="-2.576166959479451">
        <ele>918.00900000000001</ele>
        <time>2026-04-25T10:59:16Z</time>
      </trkpt>
      <trkpt lat="40.663926992565393" lon="-2.576185986399651">
        <ele>918.04600000000005</ele>
        <time>2026-04-25T10:59:18Z</time>
      </trkpt>
      <trkpt lat="40.663952976465225" lon="-2.576203001663089">
        <ele>918.00999999999999</ele>
        <time>2026-04-25T10:59:20Z</time>
      </trkpt>
      <trkpt lat="40.663978960365057" lon="-2.576212976127863">
        <ele>917.85500000000002</ele>
        <time>2026-04-25T10:59:22Z</time>
      </trkpt>
      <trkpt lat="40.664002010598779" lon="-2.576220016926527">
        <ele>917.625</ele>
        <time>2026-04-25T10:59:24Z</time>
      </trkpt>
      <trkpt lat="40.664024977013469" lon="-2.576224040240049">
        <ele>917.45100000000002</ele>
        <time>2026-04-25T10:59:26Z</time>
      </trkpt>
      <trkpt lat="40.664041992276907" lon="-2.576234014704824">
        <ele>917.66300000000001</ele>
        <time>2026-04-25T10:59:28Z</time>
      </trkpt>
      <trkpt lat="40.664064036682248" lon="-2.576254969462752">
        <ele>917.68200000000002</ele>
        <time>2026-04-25T10:59:36Z</time>
      </trkpt>
      <trkpt lat="40.664084991440177" lon="-2.576275002211332">
        <ele>917.69299999999998</ele>
        <time>2026-04-25T10:59:38Z</time>
      </trkpt>
      <trkpt lat="40.664104018360376" lon="-2.576292017474771">
        <ele>917.66800000000001</ele>
        <time>2026-04-25T10:59:40Z</time>
      </trkpt>
      <trkpt lat="40.664126984775066" lon="-2.576310960575938">
        <ele>917.625</ele>
        <time>2026-04-25T10:59:42Z</time>
      </trkpt>
      <trkpt lat="40.664148023352027" lon="-2.57633401080966">
        <ele>917.62599999999998</ele>
        <time>2026-04-25T10:59:44Z</time>
      </trkpt>
      <trkpt lat="40.664166966453195" lon="-2.576352031901479">
        <ele>917.40800000000002</ele>
        <time>2026-04-25T10:59:46Z</time>
      </trkpt>
      <trkpt lat="40.664188005030155" lon="-2.576368963345885">
        <ele>917.80899999999997</ele>
        <time>2026-04-25T10:59:48Z</time>
      </trkpt>
      <trkpt lat="40.664208959788084" lon="-2.576388996094465">
        <ele>917.69399999999996</ele>
        <time>2026-04-25T10:59:50Z</time>
      </trkpt>
      <trkpt lat="40.664229998365045" lon="-2.57639997638762">
        <ele>917.89800000000002</ele>
        <time>2026-04-25T10:59:52Z</time>
      </trkpt>
      <trkpt lat="40.664246007800102" lon="-2.576411040499806">
        <ele>917.66300000000001</ele>
        <time>2026-04-25T10:59:54Z</time>
      </trkpt>
      <trkpt lat="40.664266962558031" lon="-2.576421014964581">
        <ele>917.66300000000001</ele>
        <time>2026-04-25T10:59:58Z</time>
      </trkpt>
      <trkpt lat="40.66428498364985" lon="-2.576439036056399">
        <ele>917.76900000000001</ele>
        <time>2026-04-25T11:00:00Z</time>
      </trkpt>
      <trkpt lat="40.664309039711952" lon="-2.576455967500806">
        <ele>917.78099999999995</ele>
        <time>2026-04-25T11:00:02Z</time>
      </trkpt>
      <trkpt lat="40.664335023611784" lon="-2.576471976935864">
        <ele>917.85000000000002</ele>
        <time>2026-04-25T11:00:04Z</time>
      </trkpt>
      <trkpt lat="40.664361007511616" lon="-2.576484968885779">
        <ele>917.61099999999999</ele>
        <time>2026-04-25T11:00:06Z</time>
      </trkpt>
      <trkpt lat="40.664386991411448" lon="-2.576497960835695">
        <ele>917.846</ele>
        <time>2026-04-25T11:00:08Z</time>
      </trkpt>
      <trkpt lat="40.664405012503266" lon="-2.57650600746274">
        <ele>917.81200000000001</ele>
        <time>2026-04-25T11:00:10Z</time>
      </trkpt>
      <trkpt lat="40.664422027766705" lon="-2.576516987755895">
        <ele>918.03200000000004</ele>
        <time>2026-04-25T11:00:17Z</time>
      </trkpt>
      <trkpt lat="40.664443988353014" lon="-2.576532997190952">
        <ele>918.005</ele>
        <time>2026-04-25T11:00:20Z</time>
      </trkpt>
      <trkpt lat="40.664461003616452" lon="-2.576554035767913">
        <ele>918.40899999999999</ele>
        <time>2026-04-25T11:00:22Z</time>
      </trkpt>
      <trkpt lat="40.664471983909607" lon="-2.576584964990616">
        <ele>918.48299999999995</ele>
        <time>2026-04-25T11:00:24Z</time>
      </trkpt>
      <trkpt lat="40.664473995566368" lon="-2.576615978032351">
        <ele>918.25699999999995</ele>
        <time>2026-04-25T11:00:26Z</time>
      </trkpt>
      <trkpt lat="40.664481036365032" lon="-2.576639028266072">
        <ele>918.23199999999997</ele>
        <time>2026-04-25T11:00:28Z</time>
      </trkpt>
      <trkpt lat="40.664498973637819" lon="-2.576661994680762">
        <ele>918.47199999999998</ele>
        <time>2026-04-25T11:00:35Z</time>
      </trkpt>
      <trkpt lat="40.66452001221478" lon="-2.57667800411582">
        <ele>918.68799999999999</ele>
        <time>2026-04-25T11:00:37Z</time>
      </trkpt>
      <trkpt lat="40.664527975022793" lon="-2.576699964702129">
        <ele>918.42999999999995</ele>
        <time>2026-04-25T11:00:41Z</time>
      </trkpt>
      <trkpt lat="40.664537027478218" lon="-2.576727038249373">
        <ele>918.28899999999999</ele>
        <time>2026-04-25T11:00:47Z</time>
      </trkpt>
      <trkpt lat="40.664536021649837" lon="-2.576754027977586">
        <ele>918.08000000000004</ele>
        <time>2026-04-25T11:00:50Z</time>
      </trkpt>
      <trkpt lat="40.664528980851173" lon="-2.576785041019321">
        <ele>918.08500000000004</ele>
        <time>2026-04-25T11:00:51Z</time>
      </trkpt>
      <trkpt lat="40.664523029699922" lon="-2.576818987727165">
        <ele>918.09199999999998</ele>
        <time>2026-04-25T11:00:52Z</time>
      </trkpt>
      <trkpt lat="40.664519006386399" lon="-2.576855029910803">
        <ele>917.87300000000005</ele>
        <time>2026-04-25T11:00:53Z</time>
      </trkpt>
      <trkpt lat="40.664510959759355" lon="-2.576888976618648">
        <ele>917.41999999999996</ele>
        <time>2026-04-25T11:00:54Z</time>
      </trkpt>
      <trkpt lat="40.664498973637819" lon="-2.576920995488763">
        <ele>917.40899999999999</ele>
        <time>2026-04-25T11:00:55Z</time>
      </trkpt>
      <trkpt lat="40.664480030536652" lon="-2.576952008530498">
        <ele>917.09100000000001</ele>
        <time>2026-04-25T11:00:56Z</time>
      </trkpt>
      <trkpt lat="40.664467038586736" lon="-2.576986961066723">
        <ele>916.89499999999998</ele>
        <time>2026-04-25T11:00:57Z</time>
      </trkpt>
      <trkpt lat="40.664453962817788" lon="-2.577019985765219">
        <ele>916.63999999999999</ele>
        <time>2026-04-25T11:00:58Z</time>
      </trkpt>
      <trkpt lat="40.664438959211111" lon="-2.577053010463715">
        <ele>916.26999999999998</ele>
        <time>2026-04-25T11:00:59Z</time>
      </trkpt>
      <trkpt lat="40.664424961432815" lon="-2.577086035162211">
        <ele>915.61599999999999</ele>
        <time>2026-04-25T11:01:00Z</time>
      </trkpt>
      <trkpt lat="40.664408029988408" lon="-2.577114030718803">
        <ele>915.44799999999998</ele>
        <time>2026-04-25T11:01:01Z</time>
      </trkpt>
      <trkpt lat="40.664396965876222" lon="-2.577139008790255">
        <ele>915.05700000000002</ele>
        <time>2026-04-25T11:01:02Z</time>
      </trkpt>
      <trkpt lat="40.664387997239828" lon="-2.577161975204945">
        <ele>914.64800000000002</ele>
        <time>2026-04-25T11:01:03Z</time>
      </trkpt>
      <trkpt lat="40.664375005289912" lon="-2.577187959104776">
        <ele>914.28300000000002</ele>
        <time>2026-04-25T11:01:04Z</time>
      </trkpt>
      <trkpt lat="40.664360001683235" lon="-2.577213020995259">
        <ele>913.83399999999995</ele>
        <time>2026-04-25T11:01:05Z</time>
      </trkpt>
      <trkpt lat="40.664341980591416" lon="-2.577244034036994">
        <ele>913.65499999999997</ele>
        <time>2026-04-25T11:01:06Z</time>
      </trkpt>
      <trkpt lat="40.664325971156359" lon="-2.577275969088078">
        <ele>913.21000000000004</ele>
        <time>2026-04-25T11:01:07Z</time>
      </trkpt>
      <trkpt lat="40.664312979206443" lon="-2.577305976301432">
        <ele>912.90899999999999</ele>
        <time>2026-04-25T11:01:08Z</time>
      </trkpt>
      <trkpt lat="40.664297975599766" lon="-2.577337995171547">
        <ele>912.57500000000005</ele>
        <time>2026-04-25T11:01:09Z</time>
      </trkpt>
      <trkpt lat="40.664280038326979" lon="-2.577362973242998">
        <ele>912.23900000000003</ele>
        <time>2026-04-25T11:01:10Z</time>
      </trkpt>
      <trkpt lat="40.664258999750018" lon="-2.5773870293051">
        <ele>911.654</ele>
        <time>2026-04-25T11:01:11Z</time>
      </trkpt>
      <trkpt lat="40.664238967001438" lon="-2.577415024861693">
        <ele>911.23400000000004</ele>
        <time>2026-04-25T11:01:12Z</time>
      </trkpt>
      <trkpt lat="40.664222035557032" lon="-2.577446959912777">
        <ele>910.88999999999999</ele>
        <time>2026-04-25T11:01:13Z</time>
      </trkpt>
      <trkpt lat="40.664208037778735" lon="-2.577479984611273">
        <ele>910.43200000000002</ele>
        <time>2026-04-25T11:01:14Z</time>
      </trkpt>
      <trkpt lat="40.664194962009788" lon="-2.577514015138149">
        <ele>910.28099999999995</ele>
        <time>2026-04-25T11:01:15Z</time>
      </trkpt>
      <trkpt lat="40.664188005030155" lon="-2.577551985159516">
        <ele>910.09199999999998</ele>
        <time>2026-04-25T11:01:16Z</time>
      </trkpt>
      <trkpt lat="40.664182975888252" lon="-2.577590038999915">
        <ele>909.697</ele>
        <time>2026-04-25T11:01:17Z</time>
      </trkpt>
      <trkpt lat="40.66417601890862" lon="-2.57762499153614">
        <ele>909.05899999999997</ele>
        <time>2026-04-25T11:01:18Z</time>
      </trkpt>
      <trkpt lat="40.664165960624814" lon="-2.577660027891398">
        <ele>908.803</ele>
        <time>2026-04-25T11:01:19Z</time>
      </trkpt>
      <trkpt lat="40.664157997816801" lon="-2.577694980427623">
        <ele>908.423</ele>
        <time>2026-04-25T11:01:20Z</time>
      </trkpt>
      <trkpt lat="40.664151040837169" lon="-2.577729010954499">
        <ele>908.00900000000001</ele>
        <time>2026-04-25T11:01:21Z</time>
      </trkpt>
      <trkpt lat="40.664142994210124" lon="-2.577763041481376">
        <ele>907.89700000000005</ele>
        <time>2026-04-25T11:01:22Z</time>
      </trkpt>
      <trkpt lat="40.664138970896602" lon="-2.57779698818922">
        <ele>907.62099999999998</ele>
        <time>2026-04-25T11:01:23Z</time>
      </trkpt>
      <trkpt lat="40.664136959239841" lon="-2.577828001230955">
        <ele>907.26599999999996</ele>
        <time>2026-04-25T11:01:24Z</time>
      </trkpt>
      <trkpt lat="40.664138970896602" lon="-2.577855996787548">
        <ele>907.05600000000004</ele>
        <time>2026-04-25T11:01:25Z</time>
      </trkpt>
      <trkpt lat="40.664139976724982" lon="-2.577883992344141">
        <ele>906.822</ele>
        <time>2026-04-25T11:01:26Z</time>
      </trkpt>
      <trkpt lat="40.664142994210124" lon="-2.577910982072353">
        <ele>906.66399999999999</ele>
        <time>2026-04-25T11:01:27Z</time>
      </trkpt>
      <trkpt lat="40.664140982553363" lon="-2.577938977628946">
        <ele>906.88300000000004</ele>
        <time>2026-04-25T11:01:28Z</time>
      </trkpt>
      <trkpt lat="40.664140982553363" lon="-2.577970996499062">
        <ele>906.89400000000001</ele>
        <time>2026-04-25T11:01:29Z</time>
      </trkpt>
      <trkpt lat="40.664142994210124" lon="-2.578008966520429">
        <ele>906.87900000000002</ele>
        <time>2026-04-25T11:01:30Z</time>
      </trkpt>
      <trkpt lat="40.664142994210124" lon="-2.578048026189208">
        <ele>907.08699999999999</ele>
        <time>2026-04-25T11:01:31Z</time>
      </trkpt>
      <trkpt lat="40.664141988381743" lon="-2.578082978725433">
        <ele>907.04200000000003</ele>
        <time>2026-04-25T11:01:32Z</time>
      </trkpt>
      <trkpt lat="40.664140982553363" lon="-2.578113991767168">
        <ele>906.82600000000002</ele>
        <time>2026-04-25T11:01:33Z</time>
      </trkpt>
      <trkpt lat="40.664137965068221" lon="-2.578147016465664">
        <ele>906.60900000000004</ele>
        <time>2026-04-25T11:01:34Z</time>
      </trkpt>
      <trkpt lat="40.664135031402111" lon="-2.57818004116416">
        <ele>906.22000000000003</ele>
        <time>2026-04-25T11:01:35Z</time>
      </trkpt>
      <trkpt lat="40.664127990603447" lon="-2.578210970386863">
        <ele>906.05399999999997</ele>
        <time>2026-04-25T11:01:36Z</time>
      </trkpt>
      <trkpt lat="40.664120027795434" lon="-2.578241983428598">
        <ele>905.85900000000004</ele>
        <time>2026-04-25T11:01:37Z</time>
      </trkpt>
      <trkpt lat="40.664111981168389" lon="-2.578272996470332">
        <ele>905.62900000000002</ele>
        <time>2026-04-25T11:01:38Z</time>
      </trkpt>
      <trkpt lat="40.664099995046854" lon="-2.578301997855306">
        <ele>905.255</ele>
        <time>2026-04-25T11:01:39Z</time>
      </trkpt>
      <trkpt lat="40.664087003096938" lon="-2.578329993411899">
        <ele>904.84699999999998</ele>
        <time>2026-04-25T11:01:40Z</time>
      </trkpt>
      <trkpt lat="40.664076022803783" lon="-2.578358994796872">
        <ele>904.46600000000001</ele>
        <time>2026-04-25T11:01:41Z</time>
      </trkpt>
      <trkpt lat="40.664066970348358" lon="-2.578385984525085">
        <ele>904.22699999999998</ele>
        <time>2026-04-25T11:01:42Z</time>
      </trkpt>
      <trkpt lat="40.664056995883584" lon="-2.578413980081677">
        <ele>903.87199999999996</ele>
        <time>2026-04-25T11:01:43Z</time>
      </trkpt>
      <trkpt lat="40.664049033075571" lon="-2.578444993123412">
        <ele>903.62900000000002</ele>
        <time>2026-04-25T11:01:44Z</time>
      </trkpt>
      <trkpt lat="40.664037968963385" lon="-2.578472988680005">
        <ele>903.39999999999998</ele>
        <time>2026-04-25T11:01:45Z</time>
      </trkpt>
      <trkpt lat="40.664030006155372" lon="-2.578501990064979">
        <ele>903.01999999999998</ele>
        <time>2026-04-25T11:01:46Z</time>
      </trkpt>
      <trkpt lat="40.664017014205456" lon="-2.578528979793191">
        <ele>902.60900000000004</ele>
        <time>2026-04-25T11:01:47Z</time>
      </trkpt>
      <trkpt lat="40.664003016427159" lon="-2.578554041683674">
        <ele>902.24400000000003</ele>
        <time>2026-04-25T11:01:48Z</time>
      </trkpt>
      <trkpt lat="40.663989018648863" lon="-2.578574996441603">
        <ele>901.85799999999995</ele>
        <time>2026-04-25T11:01:49Z</time>
      </trkpt>
      <trkpt lat="40.663976026698947" lon="-2.578595029190183">
        <ele>901.69299999999998</ele>
        <time>2026-04-25T11:01:50Z</time>
      </trkpt>
      <trkpt lat="40.663964962586761" lon="-2.578617995604873">
        <ele>901.22299999999996</ele>
        <time>2026-04-25T11:01:51Z</time>
      </trkpt>
      <trkpt lat="40.663953982293606" lon="-2.578642973676324">
        <ele>900.62900000000002</ele>
        <time>2026-04-25T11:01:52Z</time>
      </trkpt>
      <trkpt lat="40.663944007828832" lon="-2.578667029738426">
        <ele>900.49099999999999</ele>
        <time>2026-04-25T11:01:53Z</time>
      </trkpt>
      <trkpt lat="40.663934033364058" lon="-2.578704999759793">
        <ele>899.41999999999996</ele>
        <time>2026-04-25T11:01:55Z</time>
      </trkpt>
      <trkpt lat="40.663926992565393" lon="-2.578727966174483">
        <ele>899.06100000000004</ele>
        <time>2026-04-25T11:01:56Z</time>
      </trkpt>
      <trkpt lat="40.663918023929" lon="-2.578754033893347">
        <ele>898.81600000000003</ele>
        <time>2026-04-25T11:01:57Z</time>
      </trkpt>
      <trkpt lat="40.663908971473575" lon="-2.57878496311605">
        <ele>898.42499999999995</ele>
        <time>2026-04-25T11:01:58Z</time>
      </trkpt>
      <trkpt lat="40.663900002837181" lon="-2.578816981986165">
        <ele>898.226</ele>
        <time>2026-04-25T11:01:59Z</time>
      </trkpt>
      <trkpt lat="40.663890028372407" lon="-2.5788479950279">
        <ele>898.00800000000004</ele>
        <time>2026-04-25T11:02:00Z</time>
      </trkpt>
      <trkpt lat="40.66387603059411" lon="-2.578875990584493">
        <ele>898.00900000000001</ele>
        <time>2026-04-25T11:02:01Z</time>
      </trkpt>
      <trkpt lat="40.663862032815814" lon="-2.578900968655944">
        <ele>897.66399999999999</ele>
        <time>2026-04-25T11:02:02Z</time>
      </trkpt>
      <trkpt lat="40.663849962875247" lon="-2.578927958384156">
        <ele>897.48800000000006</ele>
        <time>2026-04-25T11:02:03Z</time>
      </trkpt>
      <trkpt lat="40.663838982582092" lon="-2.578971041366458">
        <ele>897.01300000000003</ele>
        <time>2026-04-25T11:02:04Z</time>
      </trkpt>
      <trkpt lat="40.663828002288938" lon="-2.579012028872967">
        <ele>896.83299999999997</ele>
        <time>2026-04-25T11:02:05Z</time>
      </trkpt>
      <trkpt lat="40.663815010339022" lon="-2.57904295809567">
        <ele>896.899</ele>
        <time>2026-04-25T11:02:06Z</time>
      </trkpt>
      <trkpt lat="40.663802018389106" lon="-2.579073971137404">
        <ele>896.66099999999994</ele>
        <time>2026-04-25T11:02:07Z</time>
      </trkpt>
      <trkpt lat="40.663792965933681" lon="-2.579113030806184">
        <ele>896.48000000000002</ele>
        <time>2026-04-25T11:02:08Z</time>
      </trkpt>
      <trkpt lat="40.663788020610809" lon="-2.579155024141073">
        <ele>896.27099999999996</ele>
        <time>2026-04-25T11:02:09Z</time>
      </trkpt>
      <trkpt lat="40.663776034489274" lon="-2.579185031354427">
        <ele>896.06600000000003</ele>
        <time>2026-04-25T11:02:10Z</time>
      </trkpt>
      <trkpt lat="40.663762958720326" lon="-2.579215038567781">
        <ele>895.86900000000003</ele>
        <time>2026-04-25T11:02:11Z</time>
      </trkpt>
      <trkpt lat="40.66374896094203" lon="-2.579244961962104">
        <ele>895.80399999999997</ele>
        <time>2026-04-25T11:02:12Z</time>
      </trkpt>
      <trkpt lat="40.663735968992114" lon="-2.579276980832219">
        <ele>895.82399999999996</ele>
        <time>2026-04-25T11:02:13Z</time>
      </trkpt>
      <trkpt lat="40.663724988698959" lon="-2.579310005530715">
        <ele>895.80899999999997</ele>
        <time>2026-04-25T11:02:14Z</time>
      </trkpt>
      <trkpt lat="40.663718031719327" lon="-2.57934101857245">
        <ele>895.64800000000002</ele>
        <time>2026-04-25T11:02:15Z</time>
      </trkpt>
      <trkpt lat="40.663713002577424" lon="-2.57936398498714">
        <ele>895.47199999999998</ele>
        <time>2026-04-25T11:02:16Z</time>
      </trkpt>
      <trkpt lat="40.66370596177876" lon="-2.579405978322029">
        <ele>895.09699999999998</ele>
        <time>2026-04-25T11:02:18Z</time>
      </trkpt>
      <trkpt lat="40.663702022284269" lon="-2.579446965828538">
        <ele>894.827</ele>
        <time>2026-04-25T11:02:20Z</time>
      </trkpt>
      <trkpt lat="40.66370302811265" lon="-2.579491976648569">
        <ele>894.41300000000001</ele>
        <time>2026-04-25T11:02:22Z</time>
      </trkpt>
      <trkpt lat="40.663704033941031" lon="-2.579516032710671">
        <ele>894.44500000000005</ele>
        <time>2026-04-25T11:02:23Z</time>
      </trkpt>
      <trkpt lat="40.663704033941031" lon="-2.579541010782123">
        <ele>894.274</ele>
        <time>2026-04-25T11:02:24Z</time>
      </trkpt>
      <trkpt lat="40.66370302811265" lon="-2.579568000510335">
        <ele>894.27499999999998</ele>
        <time>2026-04-25T11:02:25Z</time>
      </trkpt>
      <trkpt lat="40.663696993142366" lon="-2.579592978581786">
        <ele>894.09000000000003</ele>
        <time>2026-04-25T11:02:26Z</time>
      </trkpt>
      <trkpt lat="40.663685007020831" lon="-2.579618040472269">
        <ele>893.61099999999999</ele>
        <time>2026-04-25T11:02:27Z</time>
      </trkpt>
      <trkpt lat="40.663667991757393" lon="-2.579641006886959">
        <ele>893.62099999999998</ele>
        <time>2026-04-25T11:02:28Z</time>
      </trkpt>
      <trkpt lat="40.663649970665574" lon="-2.579662967473269">
        <ele>893.40300000000002</ele>
        <time>2026-04-25T11:02:29Z</time>
      </trkpt>
      <trkpt lat="40.663633039221168" lon="-2.579690963029862">
        <ele>893.00900000000001</ele>
        <time>2026-04-25T11:02:30Z</time>
      </trkpt>
      <trkpt lat="40.663616023957729" lon="-2.579716024920344">
        <ele>892.87300000000005</ele>
        <time>2026-04-25T11:02:31Z</time>
      </trkpt>
      <trkpt lat="40.663599008694291" lon="-2.579742008820176">
        <ele>892.62699999999995</ele>
        <time>2026-04-25T11:02:32Z</time>
      </trkpt>
      <trkpt lat="40.663585010915995" lon="-2.579764975234866">
        <ele>892.43200000000002</ele>
        <time>2026-04-25T11:02:33Z</time>
      </trkpt>
      <trkpt lat="40.663555003702641" lon="-2.579776961356401">
        <ele>891.89200000000005</ele>
        <time>2026-04-25T11:02:35Z</time>
      </trkpt>
      <trkpt lat="40.663534970954061" lon="-2.579789031296969">
        <ele>891.84799999999996</ele>
        <time>2026-04-25T11:02:36Z</time>
      </trkpt>
      <trkpt lat="40.663512004539371" lon="-2.579808980226517">
        <ele>891.67999999999995</ele>
        <time>2026-04-25T11:02:37Z</time>
      </trkpt>
      <trkpt lat="40.663485014811158" lon="-2.579831024631858">
        <ele>891.21900000000005</ele>
        <time>2026-04-25T11:02:38Z</time>
      </trkpt>
      <trkpt lat="40.663459030911326" lon="-2.579849967733026">
        <ele>891.07000000000005</ele>
        <time>2026-04-25T11:02:39Z</time>
      </trkpt>
      <trkpt lat="40.663434974849224" lon="-2.579864971339703">
        <ele>890.69500000000005</ele>
        <time>2026-04-25T11:02:40Z</time>
      </trkpt>
      <trkpt lat="40.663413014262915" lon="-2.579886009916663">
        <ele>890.26300000000003</ele>
        <time>2026-04-25T11:02:41Z</time>
      </trkpt>
      <trkpt lat="40.663391975685954" lon="-2.579905958846211">
        <ele>889.64400000000001</ele>
        <time>2026-04-25T11:02:42Z</time>
      </trkpt>
      <trkpt lat="40.663371020928025" lon="-2.579928003251553">
        <ele>889.41800000000001</ele>
        <time>2026-04-25T11:02:43Z</time>
      </trkpt>
      <trkpt lat="40.663347970694304" lon="-2.579949963837862">
        <ele>889.00900000000001</ele>
        <time>2026-04-25T11:02:44Z</time>
      </trkpt>
      <trkpt lat="40.663323998451233" lon="-2.579972008243203">
        <ele>888.428</ele>
        <time>2026-04-25T11:02:45Z</time>
      </trkpt>
      <trkpt lat="40.663302959874272" lon="-2.579996986314654">
        <ele>887.84199999999998</ele>
        <time>2026-04-25T11:02:46Z</time>
      </trkpt>
      <trkpt lat="40.663287034258246" lon="-2.580022970214486">
        <ele>887.26700000000005</ele>
        <time>2026-04-25T11:02:47Z</time>
      </trkpt>
      <trkpt lat="40.663272030651569" lon="-2.580049959942699">
        <ele>886.87699999999995</ele>
        <time>2026-04-25T11:02:48Z</time>
      </trkpt>
      <trkpt lat="40.663255015388131" lon="-2.580078961327672">
        <ele>886.03300000000002</ele>
        <time>2026-04-25T11:02:49Z</time>
      </trkpt>
      <trkpt lat="40.663240011781454" lon="-2.580107962712646">
        <ele>885.83500000000004</ele>
        <time>2026-04-25T11:02:50Z</time>
      </trkpt>
      <trkpt lat="40.663229031488299" lon="-2.58013503625989">
        <ele>885.48400000000004</ele>
        <time>2026-04-25T11:02:51Z</time>
      </trkpt>
      <trkpt lat="40.663215033710003" lon="-2.580160014331341">
        <ele>885.08500000000004</ele>
        <time>2026-04-25T11:02:52Z</time>
      </trkpt>
      <trkpt lat="40.663201035931706" lon="-2.58018096908927">
        <ele>884.64999999999998</ele>
        <time>2026-04-25T11:02:53Z</time>
      </trkpt>
      <trkpt lat="40.663178991526365" lon="-2.580209970474243">
        <ele>883.47299999999996</ele>
        <time>2026-04-25T11:02:55Z</time>
      </trkpt>
      <trkpt lat="40.663163987919688" lon="-2.580228997394443">
        <ele>882.68499999999995</ele>
        <time>2026-04-25T11:02:58Z</time>
      </trkpt>
      <trkpt lat="40.663135992363095" lon="-2.580235032364726">
        <ele>881.81299999999999</ele>
        <time>2026-04-25T11:03:00Z</time>
      </trkpt>
      <trkpt lat="40.663105985149741" lon="-2.580248024314642">
        <ele>881.00900000000001</ele>
        <time>2026-04-25T11:03:02Z</time>
      </trkpt>
      <trkpt lat="40.663088969886303" lon="-2.580265961587429">
        <ele>880.62900000000002</ele>
        <time>2026-04-25T11:03:03Z</time>
      </trkpt>
      <trkpt lat="40.663072960451245" lon="-2.580283982679248">
        <ele>880.24300000000005</ele>
        <time>2026-04-25T11:03:04Z</time>
      </trkpt>
      <trkpt lat="40.663055023178458" lon="-2.58030703291297">
        <ele>879.61800000000005</ele>
        <time>2026-04-25T11:03:05Z</time>
      </trkpt>
      <trkpt lat="40.663034990429878" lon="-2.580334022641182">
        <ele>878.87800000000004</ele>
        <time>2026-04-25T11:03:06Z</time>
      </trkpt>
      <trkpt lat="40.663018980994821" lon="-2.580364029854536">
        <ele>878.46400000000006</ele>
        <time>2026-04-25T11:03:07Z</time>
      </trkpt>
      <trkpt lat="40.663003977388144" lon="-2.58039303123951">
        <ele>878.096</ele>
        <time>2026-04-25T11:03:08Z</time>
      </trkpt>
      <trkpt lat="40.662987967953086" lon="-2.580422032624483">
        <ele>877.69500000000005</ele>
        <time>2026-04-25T11:03:09Z</time>
      </trkpt>
      <trkpt lat="40.662975981831551" lon="-2.580452039837837">
        <ele>877.68600000000004</ele>
        <time>2026-04-25T11:03:10Z</time>
      </trkpt>
      <trkpt lat="40.662967013195157" lon="-2.58048196323216">
        <ele>877.46100000000001</ele>
        <time>2026-04-25T11:03:11Z</time>
      </trkpt>
      <trkpt lat="40.662958966568112" lon="-2.580518005415797">
        <ele>877.42700000000002</ele>
        <time>2026-04-25T11:03:12Z</time>
      </trkpt>
      <trkpt lat="40.662957038730383" lon="-2.58054499514401">
        <ele>877.26800000000003</ele>
        <time>2026-04-25T11:03:13Z</time>
      </trkpt>
      <trkpt lat="40.662965001538396" lon="-2.58058799430728">
        <ele>877.21400000000006</ele>
        <time>2026-04-25T11:03:15Z</time>
      </trkpt>
      <trkpt lat="40.662978999316692" lon="-2.580615989863873">
        <ele>877.00900000000001</ele>
        <time>2026-04-25T11:03:16Z</time>
      </trkpt>
      <trkpt lat="40.662992997094989" lon="-2.58065496571362">
        <ele>877.22400000000005</ele>
        <time>2026-04-25T11:03:17Z</time>
      </trkpt>
      <trkpt lat="40.663001965731382" lon="-2.580685978755355">
        <ele>877.22799999999995</ele>
        <time>2026-04-25T11:03:18Z</time>
      </trkpt>
      <trkpt lat="40.66301797516644" lon="-2.580721015110612">
        <ele>877.06299999999999</ele>
        <time>2026-04-25T11:03:19Z</time>
      </trkpt>
      <trkpt lat="40.663037002086639" lon="-2.580748004838824">
        <ele>877.28300000000002</ele>
        <time>2026-04-25T11:03:20Z</time>
      </trkpt>
      <trkpt lat="40.6630580406636" lon="-2.580768959596753">
        <ele>877.41899999999998</ele>
        <time>2026-04-25T11:03:21Z</time>
      </trkpt>
      <trkpt lat="40.663077989593148" lon="-2.580786980688572">
        <ele>877.64099999999996</ele>
        <time>2026-04-25T11:03:22Z</time>
      </trkpt>
      <trkpt lat="40.66310103982687" lon="-2.580806007608771">
        <ele>877.88</ele>
        <time>2026-04-25T11:03:23Z</time>
      </trkpt>
      <trkpt lat="40.66312400624156" lon="-2.580821011215448">
        <ele>877.89099999999996</ele>
        <time>2026-04-25T11:03:24Z</time>
      </trkpt>
      <trkpt lat="40.663147978484631" lon="-2.580840038135648">
        <ele>878.07600000000002</ele>
        <time>2026-04-25T11:03:25Z</time>
      </trkpt>
      <trkpt lat="40.663172034546733" lon="-2.580856969580054">
        <ele>878.245</ele>
        <time>2026-04-25T11:03:26Z</time>
      </trkpt>
      <trkpt lat="40.663192989304662" lon="-2.580874990671873">
        <ele>878.24699999999996</ele>
        <time>2026-04-25T11:03:27Z</time>
      </trkpt>
      <trkpt lat="40.663214027881622" lon="-2.580895023420453">
        <ele>878.41099999999994</ele>
        <time>2026-04-25T11:03:28Z</time>
      </trkpt>
      <trkpt lat="40.663233976811171" lon="-2.580916984006763">
        <ele>878.20899999999995</ele>
        <time>2026-04-25T11:03:29Z</time>
      </trkpt>
      <trkpt lat="40.663255015388131" lon="-2.580940034240484">
        <ele>878.07600000000002</ele>
        <time>2026-04-25T11:03:30Z</time>
      </trkpt>
      <trkpt lat="40.663273958489299" lon="-2.580959983170033">
        <ele>877.84000000000003</ele>
        <time>2026-04-25T11:03:31Z</time>
      </trkpt>
      <trkpt lat="40.663292985409498" lon="-2.580982027575374">
        <ele>877.61500000000001</ele>
        <time>2026-04-25T11:03:32Z</time>
      </trkpt>
      <trkpt lat="40.663313018158078" lon="-2.581010023131967">
        <ele>877.46500000000003</ele>
        <time>2026-04-25T11:03:33Z</time>
      </trkpt>
      <trkpt lat="40.663330033421516" lon="-2.581040030345321">
        <ele>877.06100000000004</ele>
        <time>2026-04-25T11:03:34Z</time>
      </trkpt>
      <trkpt lat="40.663343025371432" lon="-2.581071965396404">
        <ele>876.82299999999998</ele>
        <time>2026-04-25T11:03:35Z</time>
      </trkpt>
      <trkpt lat="40.663358028978109" lon="-2.581102978438139">
        <ele>876.24199999999996</ele>
        <time>2026-04-25T11:03:36Z</time>
      </trkpt>
      <trkpt lat="40.663372026756406" lon="-2.581137008965015">
        <ele>876.053</ele>
        <time>2026-04-25T11:03:37Z</time>
      </trkpt>
      <trkpt lat="40.663383007049561" lon="-2.581170033663511">
        <ele>875.69799999999998</ele>
        <time>2026-04-25T11:03:38Z</time>
      </trkpt>
      <trkpt lat="40.663393987342715" lon="-2.581202974542975">
        <ele>875.68399999999997</ele>
        <time>2026-04-25T11:03:39Z</time>
      </trkpt>
      <trkpt lat="40.663405973464251" lon="-2.58123298175633">
        <ele>875.40700000000004</ele>
        <time>2026-04-25T11:03:40Z</time>
      </trkpt>
      <trkpt lat="40.663418965414166" lon="-2.581265000626445">
        <ele>875.21699999999998</ele>
        <time>2026-04-25T11:03:41Z</time>
      </trkpt>
      <trkpt lat="40.663431035354733" lon="-2.58129701949656">
        <ele>875.20899999999995</ele>
        <time>2026-04-25T11:03:42Z</time>
      </trkpt>
      <trkpt lat="40.663444027304649" lon="-2.581328032538295">
        <ele>874.84000000000003</ele>
        <time>2026-04-25T11:03:43Z</time>
      </trkpt>
      <trkpt lat="40.663460958749056" lon="-2.581354016438127">
        <ele>874.64400000000001</ele>
        <time>2026-04-25T11:03:44Z</time>
      </trkpt>
      <trkpt lat="40.663472022861242" lon="-2.581376982852817">
        <ele>874.42899999999997</ele>
        <time>2026-04-25T11:03:45Z</time>
      </trkpt>
      <trkpt lat="40.663485014811158" lon="-2.581411013379693">
        <ele>873.69899999999996</ele>
        <time>2026-04-25T11:03:47Z</time>
      </trkpt>
      <trkpt lat="40.663480991497636" lon="-2.58144797757268">
        <ele>873.255</ele>
        <time>2026-04-25T11:03:49Z</time>
      </trkpt>
      <trkpt lat="40.663475040346384" lon="-2.581473039463162">
        <ele>873.05700000000002</ele>
        <time>2026-04-25T11:03:50Z</time>
      </trkpt>
      <trkpt lat="40.663477974012494" lon="-2.581503968685865">
        <ele>872.49599999999998</ele>
        <time>2026-04-25T11:03:51Z</time>
      </trkpt>
      <trkpt lat="40.663483003154397" lon="-2.5815349817276">
        <ele>872.077</ele>
        <time>2026-04-25T11:03:52Z</time>
      </trkpt>
      <trkpt lat="40.663487026467919" lon="-2.581564988940954">
        <ele>871.62199999999996</ele>
        <time>2026-04-25T11:03:53Z</time>
      </trkpt>
      <trkpt lat="40.663492977619171" lon="-2.581600025296211">
        <ele>871.28899999999999</ele>
        <time>2026-04-25T11:03:54Z</time>
      </trkpt>
      <trkpt lat="40.663497000932693" lon="-2.581631960347295">
        <ele>870.60599999999999</ele>
        <time>2026-04-25T11:03:55Z</time>
      </trkpt>
      <trkpt lat="40.663497000932693" lon="-2.581665990874171">
        <ele>870.226</ele>
        <time>2026-04-25T11:03:56Z</time>
      </trkpt>
      <trkpt lat="40.663501024246216" lon="-2.581700021401048">
        <ele>869.80899999999997</ele>
        <time>2026-04-25T11:03:57Z</time>
      </trkpt>
      <trkpt lat="40.663501024246216" lon="-2.581734973937273">
        <ele>869.49000000000001</ele>
        <time>2026-04-25T11:03:58Z</time>
      </trkpt>
      <trkpt lat="40.663499012589455" lon="-2.58177001029253">
        <ele>869.28399999999999</ele>
        <time>2026-04-25T11:03:59Z</time>
      </trkpt>
      <trkpt lat="40.663499012589455" lon="-2.581803034991026">
        <ele>868.82899999999995</ele>
        <time>2026-04-25T11:04:00Z</time>
      </trkpt>
      <trkpt lat="40.663499012589455" lon="-2.581838993355632">
        <ele>868.21900000000005</ele>
        <time>2026-04-25T11:04:01Z</time>
      </trkpt>
      <trkpt lat="40.663500018417835" lon="-2.581876963376999">
        <ele>867.81500000000005</ele>
        <time>2026-04-25T11:04:02Z</time>
      </trkpt>
      <trkpt lat="40.663505969569087" lon="-2.581911999732256">
        <ele>867.49699999999996</ele>
        <time>2026-04-25T11:04:03Z</time>
      </trkpt>
      <trkpt lat="40.663507981225848" lon="-2.581948963925242">
        <ele>867.29600000000005</ele>
        <time>2026-04-25T11:04:04Z</time>
      </trkpt>
      <trkpt lat="40.663509992882609" lon="-2.58198500610888">
        <ele>866.68700000000001</ele>
        <time>2026-04-25T11:04:05Z</time>
      </trkpt>
      <trkpt lat="40.663509992882609" lon="-2.582016019150615">
        <ele>866.41200000000003</ele>
        <time>2026-04-25T11:04:06Z</time>
      </trkpt>
      <trkpt lat="40.663508987054229" lon="-2.582046026363969">
        <ele>865.88800000000003</ele>
        <time>2026-04-25T11:04:07Z</time>
      </trkpt>
      <trkpt lat="40.663508987054229" lon="-2.582077961415052">
        <ele>865.22400000000005</ele>
        <time>2026-04-25T11:04:08Z</time>
      </trkpt>
      <trkpt lat="40.663509992882609" lon="-2.582110986113548">
        <ele>865.02599999999995</ele>
        <time>2026-04-25T11:04:09Z</time>
      </trkpt>
      <trkpt lat="40.663509992882609" lon="-2.582140993326902">
        <ele>864.60900000000004</ele>
        <time>2026-04-25T11:04:10Z</time>
      </trkpt>
      <trkpt lat="40.663509992882609" lon="-2.582169994711876">
        <ele>864.26999999999998</ele>
        <time>2026-04-25T11:04:11Z</time>
      </trkpt>
      <trkpt lat="40.663506975397468" lon="-2.582196984440088">
        <ele>863.64400000000001</ele>
        <time>2026-04-25T11:04:12Z</time>
      </trkpt>
      <trkpt lat="40.663504963740706" lon="-2.582232020795345">
        <ele>863.25900000000001</ele>
        <time>2026-04-25T11:04:13Z</time>
      </trkpt>
      <trkpt lat="40.663500018417835" lon="-2.58226596750319">
        <ele>863.01900000000001</ele>
        <time>2026-04-25T11:04:14Z</time>
      </trkpt>
      <trkpt lat="40.663491971790791" lon="-2.582297986373305">
        <ele>862.46500000000003</ele>
        <time>2026-04-25T11:04:15Z</time>
      </trkpt>
      <trkpt lat="40.663484008982778" lon="-2.582324976101518">
        <ele>861.83699999999999</ele>
        <time>2026-04-25T11:04:16Z</time>
      </trkpt>
      <trkpt lat="40.663486020639539" lon="-2.582360012456775">
        <ele>861.41600000000005</ele>
        <time>2026-04-25T11:04:18Z</time>
      </trkpt>
      <trkpt lat="40.663485014811158" lon="-2.582400999963284">
        <ele>861.09699999999998</ele>
        <time>2026-04-25T11:04:20Z</time>
      </trkpt>
      <trkpt lat="40.663478979840875" lon="-2.582431007176638">
        <ele>860.83199999999999</ele>
        <time>2026-04-25T11:04:21Z</time>
      </trkpt>
      <trkpt lat="40.663475962355733" lon="-2.582462020218372">
        <ele>860.48500000000001</ele>
        <time>2026-04-25T11:04:22Z</time>
      </trkpt>
      <trkpt lat="40.663479985669255" lon="-2.582494961097837">
        <ele>860.08900000000006</ele>
        <time>2026-04-25T11:04:23Z</time>
      </trkpt>
      <trkpt lat="40.663485014811158" lon="-2.582525974139571">
        <ele>859.61699999999996</ele>
        <time>2026-04-25T11:04:24Z</time>
      </trkpt>
      <trkpt lat="40.663489960134029" lon="-2.582556987181306">
        <ele>859.20899999999995</ele>
        <time>2026-04-25T11:04:25Z</time>
      </trkpt>
      <trkpt lat="40.663495995104313" lon="-2.582589006051421">
        <ele>859.08000000000004</ele>
        <time>2026-04-25T11:04:26Z</time>
      </trkpt>
      <trkpt lat="40.663502030074596" lon="-2.582619013264775">
        <ele>858.61400000000003</ele>
        <time>2026-04-25T11:04:27Z</time>
      </trkpt>
      <trkpt lat="40.663505969569087" lon="-2.582647008821368">
        <ele>858.44899999999996</ele>
        <time>2026-04-25T11:04:28Z</time>
      </trkpt>
      <trkpt lat="40.66351099871099" lon="-2.582673998549581">
        <ele>858.279</ele>
        <time>2026-04-25T11:04:29Z</time>
      </trkpt>
      <trkpt lat="40.663521979004145" lon="-2.582721021026373">
        <ele>857.61500000000001</ele>
        <time>2026-04-25T11:04:31Z</time>
      </trkpt>
      <trkpt lat="40.663529019802809" lon="-2.582743987441063">
        <ele>857.28700000000003</ele>
        <time>2026-04-25T11:04:32Z</time>
      </trkpt>
      <trkpt lat="40.66353103145957" lon="-2.582768965512514">
        <ele>856.82600000000002</ele>
        <time>2026-04-25T11:04:33Z</time>
      </trkpt>
      <trkpt lat="40.663538994267583" lon="-2.582835014909506">
        <ele>856.03700000000003</ele>
        <time>2026-04-25T11:04:35Z</time>
      </trkpt>
      <trkpt lat="40.663541005924344" lon="-2.582859992980957">
        <ele>855.62199999999996</ele>
        <time>2026-04-25T11:04:36Z</time>
      </trkpt>
      <trkpt lat="40.663536982610822" lon="-2.582893017679453">
        <ele>855.471</ele>
        <time>2026-04-25T11:04:37Z</time>
      </trkpt>
      <trkpt lat="40.663536982610822" lon="-2.582925036549568">
        <ele>855.04100000000005</ele>
        <time>2026-04-25T11:04:38Z</time>
      </trkpt>
      <trkpt lat="40.66353103145957" lon="-2.582954959943891">
        <ele>854.61500000000001</ele>
        <time>2026-04-25T11:04:39Z</time>
      </trkpt>
      <trkpt lat="40.663524996489286" lon="-2.582986978814006">
        <ele>854.40899999999999</ele>
        <time>2026-04-25T11:04:40Z</time>
      </trkpt>
      <trkpt lat="40.663524996489286" lon="-2.583018997684121">
        <ele>854.43899999999996</ele>
        <time>2026-04-25T11:04:41Z</time>
      </trkpt>
      <trkpt lat="40.663520973175764" lon="-2.583053028210998">
        <ele>854.04300000000001</ele>
        <time>2026-04-25T11:04:42Z</time>
      </trkpt>
      <trkpt lat="40.663522984832525" lon="-2.583082029595971">
        <ele>854.03800000000001</ele>
        <time>2026-04-25T11:04:43Z</time>
      </trkpt>
      <trkpt lat="40.663528013974428" lon="-2.583109019324184">
        <ele>853.86800000000005</ele>
        <time>2026-04-25T11:04:44Z</time>
      </trkpt>
      <trkpt lat="40.66353103145957" lon="-2.583138020709157">
        <ele>853.41399999999999</ele>
        <time>2026-04-25T11:04:45Z</time>
      </trkpt>
      <trkpt lat="40.66353103145957" lon="-2.583172973245382">
        <ele>853.08600000000001</ele>
        <time>2026-04-25T11:04:46Z</time>
      </trkpt>
      <trkpt lat="40.663530025631189" lon="-2.58320901542902">
        <ele>853.01499999999999</ele>
        <time>2026-04-25T11:04:47Z</time>
      </trkpt>
      <trkpt lat="40.663534970954061" lon="-2.583245979622006">
        <ele>852.83600000000001</ele>
        <time>2026-04-25T11:04:48Z</time>
      </trkpt>
      <trkpt lat="40.663542011752725" lon="-2.583285039290786">
        <ele>852.63099999999997</ele>
        <time>2026-04-25T11:04:49Z</time>
      </trkpt>
      <trkpt lat="40.663550980389118" lon="-2.583323009312153">
        <ele>852.41499999999996</ele>
        <time>2026-04-25T11:04:50Z</time>
      </trkpt>
      <trkpt lat="40.663563972339034" lon="-2.583359973505139">
        <ele>852.46500000000003</ele>
        <time>2026-04-25T11:04:51Z</time>
      </trkpt>
      <trkpt lat="40.663575036451221" lon="-2.583394004032016">
        <ele>852.21100000000001</ele>
        <time>2026-04-25T11:04:52Z</time>
      </trkpt>
      <trkpt lat="40.663584005087614" lon="-2.583423005416989">
        <ele>852.00900000000001</ele>
        <time>2026-04-25T11:04:53Z</time>
      </trkpt>
      <trkpt lat="40.663591967895627" lon="-2.583448989316821">
        <ele>851.86300000000006</ele>
        <time>2026-04-25T11:04:54Z</time>
      </trkpt>
      <trkpt lat="40.663600014522672" lon="-2.583488970994949">
        <ele>851.45699999999999</ele>
        <time>2026-04-25T11:04:56Z</time>
      </trkpt>
      <trkpt lat="40.663606971502304" lon="-2.583528030663729">
        <ele>851.06200000000001</ele>
        <time>2026-04-25T11:04:58Z</time>
      </trkpt>
      <trkpt lat="40.663612000644207" lon="-2.583563989028335">
        <ele>850.89200000000005</ele>
        <time>2026-04-25T11:05:00Z</time>
      </trkpt>
      <trkpt lat="40.663613006472588" lon="-2.583601959049702">
        <ele>850.47799999999995</ele>
        <time>2026-04-25T11:05:02Z</time>
      </trkpt>
      <trkpt lat="40.663616023957729" lon="-2.583636995404959">
        <ele>850.01999999999998</ele>
        <time>2026-04-25T11:05:04Z</time>
      </trkpt>
      <trkpt lat="40.663623986765742" lon="-2.583672031760216">
        <ele>849.649</ele>
        <time>2026-04-25T11:05:06Z</time>
      </trkpt>
      <trkpt lat="40.663635972887278" lon="-2.58370497263968">
        <ele>849.40999999999997</ele>
        <time>2026-04-25T11:05:08Z</time>
      </trkpt>
      <trkpt lat="40.663645025342703" lon="-2.583751995116472">
        <ele>849.45500000000004</ele>
        <time>2026-04-25T11:05:10Z</time>
      </trkpt>
      <trkpt lat="40.663648964837193" lon="-2.583783008158207">
        <ele>849.27300000000002</ele>
        <time>2026-04-25T11:05:11Z</time>
      </trkpt>
      <trkpt lat="40.663652988150716" lon="-2.583817038685083">
        <ele>849.28499999999997</ele>
        <time>2026-04-25T11:05:12Z</time>
      </trkpt>
      <trkpt lat="40.663658017292619" lon="-2.583851991221309">
        <ele>849.01300000000003</ele>
        <time>2026-04-25T11:05:13Z</time>
      </trkpt>
      <trkpt lat="40.66366296261549" lon="-2.583888033404946">
        <ele>849.00900000000001</ele>
        <time>2026-04-25T11:05:14Z</time>
      </trkpt>
      <trkpt lat="40.663670003414154" lon="-2.583921980112791">
        <ele>848.899</ele>
        <time>2026-04-25T11:05:15Z</time>
      </trkpt>
      <trkpt lat="40.663678972050548" lon="-2.583958022296429">
        <ele>848.63300000000004</ele>
        <time>2026-04-25T11:05:16Z</time>
      </trkpt>
      <trkpt lat="40.663688024505973" lon="-2.583992974832654">
        <ele>848.43799999999999</ele>
        <time>2026-04-25T11:05:17Z</time>
      </trkpt>
      <trkpt lat="40.663693975657225" lon="-2.58402599953115">
        <ele>848.25800000000004</ele>
        <time>2026-04-25T11:05:18Z</time>
      </trkpt>
      <trkpt lat="40.663697998970747" lon="-2.584061035886407">
        <ele>848.08399999999995</ele>
        <time>2026-04-25T11:05:19Z</time>
      </trkpt>
      <trkpt lat="40.663701016455889" lon="-2.584096994251013">
        <ele>847.85599999999999</ele>
        <time>2026-04-25T11:05:20Z</time>
      </trkpt>
      <trkpt lat="40.663705039769411" lon="-2.58413303643465">
        <ele>847.64499999999998</ele>
        <time>2026-04-25T11:05:21Z</time>
      </trkpt>
      <trkpt lat="40.663708979263902" lon="-2.584170000627637">
        <ele>847.21600000000001</ele>
        <time>2026-04-25T11:05:22Z</time>
      </trkpt>
      <trkpt lat="40.663715014234185" lon="-2.584205958992243">
        <ele>847.23099999999999</ele>
        <time>2026-04-25T11:05:23Z</time>
      </trkpt>
      <trkpt lat="40.663719037547708" lon="-2.584239989519119">
        <ele>847.21699999999998</ele>
        <time>2026-04-25T11:05:24Z</time>
      </trkpt>
      <trkpt lat="40.663723982870579" lon="-2.584275025874376">
        <ele>847.08699999999999</ele>
        <time>2026-04-25T11:05:25Z</time>
      </trkpt>
      <trkpt lat="40.663730017840862" lon="-2.584310984238982">
        <ele>847.01499999999999</ele>
        <time>2026-04-25T11:05:26Z</time>
      </trkpt>
      <trkpt lat="40.663734963163733" lon="-2.584341997280717">
        <ele>846.80899999999997</ele>
        <time>2026-04-25T11:05:27Z</time>
      </trkpt>
      <trkpt lat="40.663742003962398" lon="-2.58437099866569">
        <ele>846.88300000000004</ele>
        <time>2026-04-25T11:05:28Z</time>
      </trkpt>
      <trkpt lat="40.663748038932681" lon="-2.584394970908761">
        <ele>846.65700000000004</ele>
        <time>2026-04-25T11:05:29Z</time>
      </trkpt>
      <trkpt lat="40.663763964548707" lon="-2.584435036405921">
        <ele>846.48199999999997</ele>
        <time>2026-04-25T11:05:31Z</time>
      </trkpt>
      <trkpt lat="40.663773017004132" lon="-2.584462026134133">
        <ele>846.27200000000005</ele>
        <time>2026-04-25T11:05:32Z</time>
      </trkpt>
      <trkpt lat="40.663785003125668" lon="-2.584489015862346">
        <ele>846.23800000000006</ele>
        <time>2026-04-25T11:05:33Z</time>
      </trkpt>
      <trkpt lat="40.663800006732345" lon="-2.5845190230757">
        <ele>846.23000000000002</ele>
        <time>2026-04-25T11:05:34Z</time>
      </trkpt>
      <trkpt lat="40.663816016167402" lon="-2.584550036117435">
        <ele>846.08900000000006</ele>
        <time>2026-04-25T11:05:35Z</time>
      </trkpt>
      <trkpt lat="40.66383303143084" lon="-2.584578031674027">
        <ele>845.67999999999995</ele>
        <time>2026-04-25T11:05:36Z</time>
      </trkpt>
      <trkpt lat="40.663849962875247" lon="-2.58460502140224">
        <ele>845.875</ele>
        <time>2026-04-25T11:05:37Z</time>
      </trkpt>
      <trkpt lat="40.663866978138685" lon="-2.584631005302072">
        <ele>845.41300000000001</ele>
        <time>2026-04-25T11:05:38Z</time>
      </trkpt>
      <trkpt lat="40.663882987573743" lon="-2.584654977545142">
        <ele>845.44299999999998</ele>
        <time>2026-04-25T11:05:39Z</time>
      </trkpt>
      <trkpt lat="40.66389799118042" lon="-2.584681967273355">
        <ele>845.20699999999999</ele>
        <time>2026-04-25T11:05:40Z</time>
      </trkpt>
      <trkpt lat="40.663914000615478" lon="-2.584710968658328">
        <ele>845.00900000000001</ele>
        <time>2026-04-25T11:05:41Z</time>
      </trkpt>
      <trkpt lat="40.663930010050535" lon="-2.584739970043302">
        <ele>845.06299999999999</ele>
        <time>2026-04-25T11:05:42Z</time>
      </trkpt>
      <trkpt lat="40.663947025313973" lon="-2.584766959771514">
        <ele>844.61699999999996</ele>
        <time>2026-04-25T11:05:43Z</time>
      </trkpt>
      <trkpt lat="40.66396202892065" lon="-2.584795961156488">
        <ele>844.61199999999997</ele>
        <time>2026-04-25T11:05:44Z</time>
      </trkpt>
      <trkpt lat="40.663974015042186" lon="-2.584822028875351">
        <ele>844.61199999999997</ele>
        <time>2026-04-25T11:05:45Z</time>
      </trkpt>
      <trkpt lat="40.66398398950696" lon="-2.584847006946802">
        <ele>844.45799999999997</ele>
        <time>2026-04-25T11:05:46Z</time>
      </trkpt>
      <trkpt lat="40.663991030305624" lon="-2.584875002503395">
        <ele>844.25999999999999</ele>
        <time>2026-04-25T11:05:47Z</time>
      </trkpt>
      <trkpt lat="40.663997987285256" lon="-2.58490601554513">
        <ele>843.87900000000002</ele>
        <time>2026-04-25T11:05:48Z</time>
      </trkpt>
      <trkpt lat="40.664003016427159" lon="-2.584936022758484">
        <ele>844.08000000000004</ele>
        <time>2026-04-25T11:05:49Z</time>
      </trkpt>
      <trkpt lat="40.664006033912301" lon="-2.584965024143457">
        <ele>843.83500000000004</ele>
        <time>2026-04-25T11:05:50Z</time>
      </trkpt>
      <trkpt lat="40.664010979235172" lon="-2.584991008043289">
        <ele>843.851</ele>
        <time>2026-04-25T11:05:51Z</time>
      </trkpt>
      <trkpt lat="40.664017014205456" lon="-2.585019003599882">
        <ele>843.80100000000004</ele>
        <time>2026-04-25T11:05:52Z</time>
      </trkpt>
      <trkpt lat="40.664020031690598" lon="-2.585048004984856">
        <ele>843.61099999999999</ele>
        <time>2026-04-25T11:05:53Z</time>
      </trkpt>
      <trkpt lat="40.664024977013469" lon="-2.585073988884687">
        <ele>843.60900000000004</ele>
        <time>2026-04-25T11:05:54Z</time>
      </trkpt>
      <trkpt lat="40.664032017812133" lon="-2.585097039118409">
        <ele>843.41700000000003</ele>
        <time>2026-04-25T11:05:55Z</time>
      </trkpt>
      <trkpt lat="40.664044003933668" lon="-2.585137020796537">
        <ele>843.21100000000001</ele>
        <time>2026-04-25T11:05:57Z</time>
      </trkpt>
      <trkpt lat="40.664052972570062" lon="-2.58516401052475">
        <ele>842.89300000000003</ele>
        <time>2026-04-25T11:06:20Z</time>
      </trkpt>
      <trkpt lat="40.664071999490261" lon="-2.585163004696369">
        <ele>842.89400000000001</ele>
        <time>2026-04-25T11:06:29Z</time>
      </trkpt>
      <trkpt lat="40.664093960076571" lon="-2.585168033838272">
        <ele>842.82899999999995</ele>
        <time>2026-04-25T11:06:36Z</time>
      </trkpt>
      <trkpt lat="40.664116004481912" lon="-2.585166022181511">
        <ele>842.65200000000004</ele>
        <time>2026-04-25T11:06:41Z</time>
      </trkpt>
      <trkpt lat="40.664122961461544" lon="-2.585141966119409">
        <ele>842.45299999999997</ele>
        <time>2026-04-25T11:06:51Z</time>
      </trkpt>
      <trkpt lat="40.664135031402111" lon="-2.585123023018241">
        <ele>843.00800000000004</ele>
        <time>2026-04-25T11:07:02Z</time>
      </trkpt>
      <trkpt lat="40.664149029180408" lon="-2.585092009976506">
        <ele>843.00900000000001</ele>
        <time>2026-04-25T11:07:04Z</time>
      </trkpt>
      <trkpt lat="40.664162021130323" lon="-2.585060996934772">
        <ele>843.29700000000003</ele>
        <time>2026-04-25T11:07:06Z</time>
      </trkpt>
      <trkpt lat="40.664170989766717" lon="-2.585034007206559">
        <ele>843.27099999999996</ele>
        <time>2026-04-25T11:07:08Z</time>
      </trkpt>
      <trkpt lat="40.664178030565381" lon="-2.585011040791869">
        <ele>843.26599999999996</ele>
        <time>2026-04-25T11:07:09Z</time>
      </trkpt>
      <trkpt lat="40.664189010858536" lon="-2.584980027750135">
        <ele>843.68600000000004</ele>
        <time>2026-04-25T11:07:11Z</time>
      </trkpt>
      <trkpt lat="40.664210971444845" lon="-2.584948008880019">
        <ele>843.46199999999999</ele>
        <time>2026-04-25T11:07:13Z</time>
      </trkpt>
      <trkpt lat="40.664233015850186" lon="-2.584920013323426">
        <ele>843.64400000000001</ele>
        <time>2026-04-25T11:07:15Z</time>
      </trkpt>
      <trkpt lat="40.664258999750018" lon="-2.584891011938453">
        <ele>843.46299999999997</ele>
        <time>2026-04-25T11:07:17Z</time>
      </trkpt>
      <trkpt lat="40.664297975599766" lon="-2.584900986403227">
        <ele>843.63400000000001</ele>
        <time>2026-04-25T11:07:19Z</time>
      </trkpt>
      <trkpt lat="40.664323959499598" lon="-2.584915990009904">
        <ele>843.899</ele>
        <time>2026-04-25T11:07:20Z</time>
      </trkpt>
      <trkpt lat="40.664347009733319" lon="-2.584938034415245">
        <ele>843.86199999999997</ele>
        <time>2026-04-25T11:07:21Z</time>
      </trkpt>
      <trkpt lat="40.66437198780477" lon="-2.584959995001555">
        <ele>843.88300000000004</ele>
        <time>2026-04-25T11:07:22Z</time>
      </trkpt>
      <trkpt lat="40.664395038038492" lon="-2.584980027750135">
        <ele>843.61099999999999</ele>
        <time>2026-04-25T11:07:23Z</time>
      </trkpt>
      <trkpt lat="40.664415992796421" lon="-2.585000982508063">
        <ele>843.80899999999997</ele>
        <time>2026-04-25T11:07:24Z</time>
      </trkpt>
      <trkpt lat="40.66443401388824" lon="-2.585012968629599">
        <ele>843.63800000000003</ele>
        <time>2026-04-25T11:07:25Z</time>
      </trkpt>
      <trkpt lat="40.664455974474549" lon="-2.58503501303494">
        <ele>843.49199999999996</ele>
        <time>2026-04-25T11:07:27Z</time>
      </trkpt>
      <trkpt lat="40.664484975859523" lon="-2.585068037733436">
        <ele>843.22699999999998</ele>
        <time>2026-04-25T11:07:29Z</time>
      </trkpt>
      <trkpt lat="40.66450098529458" lon="-2.585091004148126">
        <ele>843.06700000000001</ele>
        <time>2026-04-25T11:07:30Z</time>
      </trkpt>
      <trkpt lat="40.664526969194412" lon="-2.585114976391196">
        <ele>843.01300000000003</ele>
        <time>2026-04-25T11:07:31Z</time>
      </trkpt>
      <trkpt lat="40.664552031084895" lon="-2.585136014968157">
        <ele>842.81500000000005</ele>
        <time>2026-04-25T11:07:32Z</time>
      </trkpt>
      <trkpt lat="40.664577009156346" lon="-2.585150012746453">
        <ele>842.85400000000004</ele>
        <time>2026-04-25T11:07:33Z</time>
      </trkpt>
      <trkpt lat="40.664602993056178" lon="-2.585167028009892">
        <ele>842.63499999999999</ele>
        <time>2026-04-25T11:07:34Z</time>
      </trkpt>
      <trkpt lat="40.664627971127629" lon="-2.585181025788188">
        <ele>842.62</ele>
        <time>2026-04-25T11:07:35Z</time>
      </trkpt>
      <trkpt lat="40.664653033018112" lon="-2.585194017738104">
        <ele>842.63499999999999</ele>
        <time>2026-04-25T11:07:36Z</time>
      </trkpt>
      <trkpt lat="40.664674993604422" lon="-2.58520700968802">
        <ele>842.48599999999999</ele>
        <time>2026-04-25T11:07:37Z</time>
      </trkpt>
      <trkpt lat="40.664698965847492" lon="-2.585221007466316">
        <ele>842.41399999999999</ele>
        <time>2026-04-25T11:07:38Z</time>
      </trkpt>
      <trkpt lat="40.664722016081214" lon="-2.585232993587852">
        <ele>842.40899999999999</ele>
        <time>2026-04-25T11:07:39Z</time>
      </trkpt>
      <trkpt lat="40.664746994152665" lon="-2.585243973881006">
        <ele>842.495</ele>
        <time>2026-04-25T11:07:40Z</time>
      </trkpt>
      <trkpt lat="40.664771972224116" lon="-2.585253026336432">
        <ele>842.48900000000003</ele>
        <time>2026-04-25T11:07:41Z</time>
      </trkpt>
      <trkpt lat="40.664797034114599" lon="-2.585257971659303">
        <ele>842.46400000000006</ele>
        <time>2026-04-25T11:07:42Z</time>
      </trkpt>
      <trkpt lat="40.66482201218605" lon="-2.585259983316064">
        <ele>842.48400000000004</ele>
        <time>2026-04-25T11:07:43Z</time>
      </trkpt>
      <trkpt lat="40.66484497860074" lon="-2.585255960002542">
        <ele>842.69000000000005</ele>
        <time>2026-04-25T11:07:44Z</time>
      </trkpt>
      <trkpt lat="40.66486400552094" lon="-2.585249003022909">
        <ele>842.68200000000002</ele>
        <time>2026-04-25T11:07:45Z</time>
      </trkpt>
      <trkpt lat="40.664882026612759" lon="-2.585242968052626">
        <ele>842.44100000000003</ele>
        <time>2026-04-25T11:07:46Z</time>
      </trkpt>
      <trkpt lat="40.664899963885546" lon="-2.585237016901374">
        <ele>842.62199999999996</ele>
        <time>2026-04-25T11:07:47Z</time>
      </trkpt>
      <trkpt lat="40.664928965270519" lon="-2.58522997610271">
        <ele>842.827</ele>
        <time>2026-04-25T11:07:49Z</time>
      </trkpt>
      <trkpt lat="40.664946986362338" lon="-2.585227964445949">
        <ele>842.81799999999998</ele>
        <time>2026-04-25T11:07:50Z</time>
      </trkpt>
      <trkpt lat="40.664965007454157" lon="-2.585224024951458">
        <ele>843.09799999999996</ele>
        <time>2026-04-25T11:07:51Z</time>
      </trkpt>
      <trkpt lat="40.664985040202737" lon="-2.585222013294697">
        <ele>843.21699999999998</ele>
        <time>2026-04-25T11:07:52Z</time>
      </trkpt>
      <trkpt lat="40.665027033537626" lon="-2.585223019123077">
        <ele>843.40899999999999</ele>
        <time>2026-04-25T11:07:54Z</time>
      </trkpt>
      <trkpt lat="40.665051005780697" lon="-2.585226958617568">
        <ele>843.88300000000004</ele>
        <time>2026-04-25T11:07:55Z</time>
      </trkpt>
      <trkpt lat="40.665073972195387" lon="-2.58522997610271">
        <ele>843.85699999999997</ele>
        <time>2026-04-25T11:07:56Z</time>
      </trkpt>
      <trkpt lat="40.665113031864166" lon="-2.585235005244613">
        <ele>844.05200000000002</ele>
        <time>2026-04-25T11:07:58Z</time>
      </trkpt>
      <trkpt lat="40.665158964693546" lon="-2.585233999416232">
        <ele>844.23199999999997</ele>
        <time>2026-04-25T11:08:01Z</time>
      </trkpt>
      <trkpt lat="40.66518603824079" lon="-2.585240034386516">
        <ele>844.23800000000006</ele>
        <time>2026-04-25T11:08:03Z</time>
      </trkpt>
      <trkpt lat="40.665289973840117" lon="-2.585217989981175">
        <ele>844.85000000000002</ele>
        <time>2026-04-25T11:08:10Z</time>
      </trkpt>
      <trkpt lat="40.665318975225091" lon="-2.585211033001542">
        <ele>844.82899999999995</ele>
        <time>2026-04-25T11:08:11Z</time>
      </trkpt>
      <trkpt lat="40.665342025458813" lon="-2.585218995809555">
        <ele>845.07000000000005</ele>
        <time>2026-04-25T11:08:12Z</time>
      </trkpt>
      <trkpt lat="40.665359040722251" lon="-2.585231987759471">
        <ele>845.06500000000005</ele>
        <time>2026-04-25T11:08:13Z</time>
      </trkpt>
      <trkpt lat="40.665397010743618" lon="-2.585265012457967">
        <ele>845.06799999999998</ele>
        <time>2026-04-25T11:08:15Z</time>
      </trkpt>
      <trkpt lat="40.665416037663817" lon="-2.585281021893024">
        <ele>845.24199999999996</ele>
        <time>2026-04-25T11:08:16Z</time>
      </trkpt>
      <trkpt lat="40.665435986593366" lon="-2.585298037156463">
        <ele>845.42600000000004</ele>
        <time>2026-04-25T11:08:17Z</time>
      </trkpt>
      <trkpt lat="40.665453001856804" lon="-2.585312034934759">
        <ele>845.20899999999995</ele>
        <time>2026-04-25T11:08:18Z</time>
      </trkpt>
      <trkpt lat="40.665469011291862" lon="-2.585330978035927">
        <ele>845.43799999999999</ele>
        <time>2026-04-25T11:08:19Z</time>
      </trkpt>
      <trkpt lat="40.665480997413397" lon="-2.585351010784507">
        <ele>845.85199999999998</ele>
        <time>2026-04-25T11:08:20Z</time>
      </trkpt>
      <trkpt lat="40.665496001020074" lon="-2.585369031876326">
        <ele>846.04700000000003</ele>
        <time>2026-04-25T11:08:21Z</time>
      </trkpt>
      <trkpt lat="40.665512010455132" lon="-2.585389986634255">
        <ele>846.23699999999997</ele>
        <time>2026-04-25T11:08:22Z</time>
      </trkpt>
      <trkpt lat="40.665564984083176" lon="-2.58544597774744">
        <ele>847.41300000000001</ele>
        <time>2026-04-25T11:08:26Z</time>
      </trkpt>
      <trkpt lat="40.665597002953291" lon="-2.585458969697356">
        <ele>848.27499999999998</ele>
        <time>2026-04-25T11:08:28Z</time>
      </trkpt>
      <trkpt lat="40.665617035701871" lon="-2.585476990789175">
        <ele>848.88400000000001</ele>
        <time>2026-04-25T11:08:30Z</time>
      </trkpt>
      <trkpt lat="40.665635978803039" lon="-2.585499035194516">
        <ele>849.67499999999995</ele>
        <time>2026-04-25T11:08:32Z</time>
      </trkpt>
      <trkpt lat="40.665650982409716" lon="-2.585523007437587">
        <ele>849.63</ele>
        <time>2026-04-25T11:08:34Z</time>
      </trkpt>
      <trkpt lat="40.665661040693521" lon="-2.58555200882256">
        <ele>849.67100000000005</ele>
        <time>2026-04-25T11:08:36Z</time>
      </trkpt>
      <trkpt lat="40.665671015158296" lon="-2.585590984672308">
        <ele>849.64099999999996</ele>
        <time>2026-04-25T11:08:38Z</time>
      </trkpt>
      <trkpt lat="40.665685012936592" lon="-2.585623003542423">
        <ele>849.61500000000001</ele>
        <time>2026-04-25T11:08:40Z</time>
      </trkpt>
      <trkpt lat="40.66570102237165" lon="-2.585652004927397">
        <ele>849.80899999999997</ele>
        <time>2026-04-25T11:08:42Z</time>
      </trkpt>
      <trkpt lat="40.665719965472817" lon="-2.58568100631237">
        <ele>850.06899999999996</ele>
        <time>2026-04-25T11:08:44Z</time>
      </trkpt>
      <trkpt lat="40.665743015706539" lon="-2.585706990212202">
        <ele>850.23299999999995</ele>
        <time>2026-04-25T11:08:46Z</time>
      </trkpt>
      <trkpt lat="40.665772017091513" lon="-2.585725011304021">
        <ele>850.47799999999995</ele>
        <time>2026-04-25T11:08:48Z</time>
      </trkpt>
      <trkpt lat="40.665798000991344" lon="-2.585739009082317">
        <ele>850.85799999999995</ele>
        <time>2026-04-25T11:08:50Z</time>
      </trkpt>
      <trkpt lat="40.665824990719557" lon="-2.585755018517375">
        <ele>851.06399999999996</ele>
        <time>2026-04-25T11:08:52Z</time>
      </trkpt>
      <trkpt lat="40.66585298627615" lon="-2.585772033780813">
        <ele>851.21600000000001</ele>
        <time>2026-04-25T11:08:54Z</time>
      </trkpt>
      <trkpt lat="40.665879976004362" lon="-2.585784019902349">
        <ele>851.27499999999998</ele>
        <time>2026-04-25T11:08:56Z</time>
      </trkpt>
      <trkpt lat="40.665905959904194" lon="-2.585797011852264">
        <ele>851.67600000000004</ele>
        <time>2026-04-25T11:08:58Z</time>
      </trkpt>
      <trkpt lat="40.665932027623057" lon="-2.585811009630561">
        <ele>851.87099999999998</ele>
        <time>2026-04-25T11:09:00Z</time>
      </trkpt>
      <trkpt lat="40.665953988209367" lon="-2.585819978266954">
        <ele>851.82600000000002</ele>
        <time>2026-04-25T11:09:02Z</time>
      </trkpt>
      <trkpt lat="40.665968991816044" lon="-2.585835987702012">
        <ele>852.24699999999996</ele>
        <time>2026-04-25T11:09:04Z</time>
      </trkpt>
      <trkpt lat="40.665987012907863" lon="-2.585848979651928">
        <ele>852.41099999999994</ele>
        <time>2026-04-25T11:09:06Z</time>
      </trkpt>
      <trkpt lat="40.666010985150933" lon="-2.585863983258605">
        <ele>852.80899999999997</ele>
        <time>2026-04-25T11:09:08Z</time>
      </trkpt>
      <trkpt lat="40.666026994585991" lon="-2.585884016007185">
        <ele>853.05399999999997</ele>
        <time>2026-04-25T11:09:10Z</time>
      </trkpt>
      <trkpt lat="40.666048033162951" lon="-2.585902959108353">
        <ele>853.47799999999995</ele>
        <time>2026-04-25T11:09:12Z</time>
      </trkpt>
      <trkpt lat="40.666065970435739" lon="-2.585925003513694">
        <ele>854.07299999999998</ele>
        <time>2026-04-25T11:09:14Z</time>
      </trkpt>
      <trkpt lat="40.666078040376306" lon="-2.585955010727048">
        <ele>854.45299999999997</ele>
        <time>2026-04-25T11:09:16Z</time>
      </trkpt>
      <trkpt lat="40.666091032326221" lon="-2.585979988798499">
        <ele>854.88900000000001</ele>
        <time>2026-04-25T11:09:18Z</time>
      </trkpt>
      <trkpt lat="40.666108969599009" lon="-2.58600396104157">
        <ele>855.29100000000005</ele>
        <time>2026-04-25T11:09:20Z</time>
      </trkpt>
      <trkpt lat="40.666122967377305" lon="-2.586026005446911">
        <ele>855.83000000000004</ele>
        <time>2026-04-25T11:09:22Z</time>
      </trkpt>
      <trkpt lat="40.666135037317872" lon="-2.586049977689982">
        <ele>856.44100000000003</ele>
        <time>2026-04-25T11:09:24Z</time>
      </trkpt>
      <trkpt lat="40.666147023439407" lon="-2.586076967418194">
        <ele>857.21600000000001</ele>
        <time>2026-04-25T11:09:26Z</time>
      </trkpt>
      <trkpt lat="40.666161021217704" lon="-2.586104962974787">
        <ele>857.45500000000004</ele>
        <time>2026-04-25T11:09:28Z</time>
      </trkpt>
      <trkpt lat="40.666172001510859" lon="-2.586127007380128">
        <ele>857.60699999999997</ele>
        <time>2026-04-25T11:09:29Z</time>
      </trkpt>
      <trkpt lat="40.666188010945916" lon="-2.586150979623199">
        <ele>857.61699999999996</ele>
        <time>2026-04-25T11:09:30Z</time>
      </trkpt>
      <trkpt lat="40.666205026209354" lon="-2.58617696352303">
        <ele>858.00900000000001</ele>
        <time>2026-04-25T11:09:31Z</time>
      </trkpt>
      <trkpt lat="40.666223969310522" lon="-2.586202025413513">
        <ele>858.06700000000001</ele>
        <time>2026-04-25T11:09:32Z</time>
      </trkpt>
      <trkpt lat="40.666242996230721" lon="-2.586227003484964">
        <ele>858.02099999999996</ele>
        <time>2026-04-25T11:09:33Z</time>
      </trkpt>
      <trkpt lat="40.666264034807682" lon="-2.586248964071274">
        <ele>858.06600000000003</ele>
        <time>2026-04-25T11:09:34Z</time>
      </trkpt>
      <trkpt lat="40.666284989565611" lon="-2.586271008476615">
        <ele>858.04600000000005</ele>
        <time>2026-04-25T11:09:35Z</time>
      </trkpt>
      <trkpt lat="40.666308039799333" lon="-2.586289029568434">
        <ele>858.02200000000005</ele>
        <time>2026-04-25T11:09:36Z</time>
      </trkpt>
      <trkpt lat="40.6663269829005" lon="-2.586304033175111">
        <ele>858.04399999999998</ele>
        <time>2026-04-25T11:09:37Z</time>
      </trkpt>
      <trkpt lat="40.666350033134222" lon="-2.586319036781788">
        <ele>857.89300000000003</ele>
        <time>2026-04-25T11:09:38Z</time>
      </trkpt>
      <trkpt lat="40.666376017034054" lon="-2.586334040388465">
        <ele>857.64400000000001</ele>
        <time>2026-04-25T11:09:39Z</time>
      </trkpt>
      <trkpt lat="40.666404012590647" lon="-2.586350971832871">
        <ele>857.65899999999999</ele>
        <time>2026-04-25T11:09:40Z</time>
      </trkpt>
      <trkpt lat="40.666428990662098" lon="-2.586366981267929">
        <ele>857.423</ele>
        <time>2026-04-25T11:09:41Z</time>
      </trkpt>
      <trkpt lat="40.66645204089582" lon="-2.586382990702987">
        <ele>857.28300000000002</ele>
        <time>2026-04-25T11:09:42Z</time>
      </trkpt>
      <trkpt lat="40.666472995653749" lon="-2.586400005966425">
        <ele>857.01099999999997</ele>
        <time>2026-04-25T11:09:43Z</time>
      </trkpt>
      <trkpt lat="40.666496967896819" lon="-2.586416015401483">
        <ele>856.80899999999997</ele>
        <time>2026-04-25T11:09:44Z</time>
      </trkpt>
      <trkpt lat="40.666517000645399" lon="-2.586430013179779">
        <ele>856.89400000000001</ele>
        <time>2026-04-25T11:09:45Z</time>
      </trkpt>
      <trkpt lat="40.66653803922236" lon="-2.586447028443217">
        <ele>856.82799999999997</ele>
        <time>2026-04-25T11:09:46Z</time>
      </trkpt>
      <trkpt lat="40.66656100563705" lon="-2.586466977372766">
        <ele>857.08299999999997</ele>
        <time>2026-04-25T11:09:47Z</time>
      </trkpt>
      <trkpt lat="40.66658497788012" lon="-2.586488015949726">
        <ele>856.673</ele>
        <time>2026-04-25T11:09:48Z</time>
      </trkpt>
      <trkpt lat="40.66660400480032" lon="-2.586511988192797">
        <ele>856.42899999999997</ele>
        <time>2026-04-25T11:09:49Z</time>
      </trkpt>
      <trkpt lat="40.666654966771603" lon="-2.586559010669589">
        <ele>856.27099999999996</ele>
        <time>2026-04-25T11:09:51Z</time>
      </trkpt>
      <trkpt lat="40.666699977591634" lon="-2.586611984297633">
        <ele>855.63</ele>
        <time>2026-04-25T11:09:53Z</time>
      </trkpt>
      <trkpt lat="40.666717998683453" lon="-2.586636962369084">
        <ele>855.42100000000005</ele>
        <time>2026-04-25T11:09:54Z</time>
      </trkpt>
      <trkpt lat="40.666738031432033" lon="-2.586661018431187">
        <ele>855.476</ele>
        <time>2026-04-25T11:09:55Z</time>
      </trkpt>
      <trkpt lat="40.666758986189961" lon="-2.586676022037864">
        <ele>855.23699999999997</ele>
        <time>2026-04-25T11:09:56Z</time>
      </trkpt>
      <trkpt lat="40.6667760014534" lon="-2.586695970967412">
        <ele>854.84900000000005</ele>
        <time>2026-04-25T11:09:57Z</time>
      </trkpt>
      <trkpt lat="40.66679603420198" lon="-2.586716003715992">
        <ele>854.81299999999999</ele>
        <time>2026-04-25T11:09:58Z</time>
      </trkpt>
      <trkpt lat="40.666811959818006" lon="-2.58673301897943">
        <ele>854.40899999999999</ele>
        <time>2026-04-25T11:09:59Z</time>
      </trkpt>
      <trkpt lat="40.666829980909824" lon="-2.586759002879262">
        <ele>853.68499999999995</ele>
        <time>2026-04-25T11:10:01Z</time>
      </trkpt>
      <trkpt lat="40.666844984516501" lon="-2.586777023971081">
        <ele>853.29899999999998</ele>
        <time>2026-04-25T11:10:02Z</time>
      </trkpt>
      <trkpt lat="40.666856970638037" lon="-2.586794961243868">
        <ele>853.07399999999996</ele>
        <time>2026-04-25T11:10:03Z</time>
      </trkpt>
      <trkpt lat="40.666869962587953" lon="-2.58684097789228">
        <ele>852.26400000000001</ele>
        <time>2026-04-25T11:10:05Z</time>
      </trkpt>
      <trkpt lat="40.666875997558236" lon="-2.586869979277253">
        <ele>852.05999999999995</ele>
        <time>2026-04-25T11:10:06Z</time>
      </trkpt>
      <trkpt lat="40.666895024478436" lon="-2.586906021460891">
        <ele>851.01199999999994</ele>
        <time>2026-04-25T11:10:08Z</time>
      </trkpt>
      <trkpt lat="40.666916985064745" lon="-2.586913984268904">
        <ele>850.42100000000005</ele>
        <time>2026-04-25T11:10:10Z</time>
      </trkpt>
      <trkpt lat="40.666945986449718" lon="-2.58690400980413">
        <ele>849.822</ele>
        <time>2026-04-25T11:10:12Z</time>
      </trkpt>
      <trkpt lat="40.666976999491453" lon="-2.586909960955381">
        <ele>849.27700000000004</ele>
        <time>2026-04-25T11:10:14Z</time>
      </trkpt>
      <trkpt lat="40.666996026411653" lon="-2.586908033117652">
        <ele>848.81399999999996</ele>
        <time>2026-04-25T11:10:15Z</time>
      </trkpt>
      <trkpt lat="40.667016981169581" lon="-2.58690400980413">
        <ele>848.45399999999995</ele>
        <time>2026-04-25T11:10:16Z</time>
      </trkpt>
      <trkpt lat="40.667037013918161" lon="-2.586898980662227">
        <ele>847.80899999999997</ele>
        <time>2026-04-25T11:10:17Z</time>
      </trkpt>
      <trkpt lat="40.66705796867609" lon="-2.586891017854214">
        <ele>847.20899999999995</ele>
        <time>2026-04-25T11:10:18Z</time>
      </trkpt>
      <trkpt lat="40.667087975889444" lon="-2.586890012025833">
        <ele>846.08299999999997</ele>
        <time>2026-04-25T11:10:20Z</time>
      </trkpt>
      <trkpt lat="40.667117983102798" lon="-2.586898980662227">
        <ele>844.87699999999995</ele>
        <time>2026-04-25T11:10:22Z</time>
      </trkpt>
      <trkpt lat="40.667134998366237" lon="-2.586912978440523">
        <ele>843.87199999999996</ele>
        <time>2026-04-25T11:10:24Z</time>
      </trkpt>
      <trkpt lat="40.667159976437688" lon="-2.586928987875581">
        <ele>842.85199999999998</ele>
        <time>2026-04-25T11:10:26Z</time>
      </trkpt>
      <trkpt lat="40.667188977822661" lon="-2.586950026452541">
        <ele>841.65800000000002</ele>
        <time>2026-04-25T11:10:28Z</time>
      </trkpt>
      <trkpt lat="40.667214039713144" lon="-2.586971987038851">
        <ele>840.25999999999999</ele>
        <time>2026-04-25T11:10:30Z</time>
      </trkpt>
      <trkpt lat="40.667244968935847" lon="-2.586993025615811">
        <ele>838.88900000000001</ele>
        <time>2026-04-25T11:10:32Z</time>
      </trkpt>
      <trkpt lat="40.667263995856047" lon="-2.587001994252205">
        <ele>838.48000000000002</ele>
        <time>2026-04-25T11:10:33Z</time>
      </trkpt>
      <trkpt lat="40.667283022776246" lon="-2.58701297454536">
        <ele>837.82500000000005</ele>
        <time>2026-04-25T11:10:34Z</time>
      </trkpt>
      <trkpt lat="40.667300038039684" lon="-2.587023032829166">
        <ele>837.08500000000004</ele>
        <time>2026-04-25T11:10:35Z</time>
      </trkpt>
      <trkpt lat="40.667330967262387" lon="-2.587041975930333">
        <ele>835.68899999999996</ele>
        <time>2026-04-25T11:10:37Z</time>
      </trkpt>
      <trkpt lat="40.667347982525826" lon="-2.587052034214139">
        <ele>835.01700000000005</ele>
        <time>2026-04-25T11:10:38Z</time>
      </trkpt>
      <trkpt lat="40.667367009446025" lon="-2.587065026164055">
        <ele>834.40899999999999</ele>
        <time>2026-04-25T11:10:39Z</time>
      </trkpt>
      <trkpt lat="40.667383018881083" lon="-2.587080029770732">
        <ele>834.08000000000004</ele>
        <time>2026-04-25T11:10:40Z</time>
      </trkpt>
      <trkpt lat="40.667411014437675" lon="-2.587101990357041">
        <ele>832.654</ele>
        <time>2026-04-25T11:10:42Z</time>
      </trkpt>
      <trkpt lat="40.667428029701114" lon="-2.587112970650196">
        <ele>832.03899999999999</ele>
        <time>2026-04-25T11:10:43Z</time>
      </trkpt>
      <trkpt lat="40.667461976408958" lon="-2.587133003398776">
        <ele>830.87900000000002</ele>
        <time>2026-04-25T11:10:45Z</time>
      </trkpt>
      <trkpt lat="40.667482009157538" lon="-2.587139960378408">
        <ele>830.03499999999997</ele>
        <time>2026-04-25T11:10:46Z</time>
      </trkpt>
      <trkpt lat="40.667500030249357" lon="-2.587148007005453">
        <ele>829.48699999999997</ele>
        <time>2026-04-25T11:10:47Z</time>
      </trkpt>
      <trkpt lat="40.667516961693764" lon="-2.587151024490595">
        <ele>828.81600000000003</ele>
        <time>2026-04-25T11:10:48Z</time>
      </trkpt>
      <trkpt lat="40.667534982785583" lon="-2.587158987298608">
        <ele>828.27700000000004</ele>
        <time>2026-04-25T11:10:49Z</time>
      </trkpt>
      <trkpt lat="40.66757001914084" lon="-2.587168039754033">
        <ele>827.21199999999999</ele>
        <time>2026-04-25T11:10:51Z</time>
      </trkpt>
      <trkpt lat="40.667588962242007" lon="-2.587177008390427">
        <ele>826.64800000000002</ele>
        <time>2026-04-25T11:10:52Z</time>
      </trkpt>
      <trkpt lat="40.667625004425645" lon="-2.587200980633497">
        <ele>826.06100000000004</ele>
        <time>2026-04-25T11:10:54Z</time>
      </trkpt>
      <trkpt lat="40.667646965011954" lon="-2.587211960926652">
        <ele>825.61699999999996</ele>
        <time>2026-04-25T11:10:55Z</time>
      </trkpt>
      <trkpt lat="40.667663980275393" lon="-2.587225958704948">
        <ele>825.20899999999995</ele>
        <time>2026-04-25T11:10:56Z</time>
      </trkpt>
      <trkpt lat="40.667685018852353" lon="-2.587242973968387">
        <ele>825.07600000000002</ele>
        <time>2026-04-25T11:10:57Z</time>
      </trkpt>
      <trkpt lat="40.667705973610282" lon="-2.587260995060206">
        <ele>824.61000000000001</ele>
        <time>2026-04-25T11:10:58Z</time>
      </trkpt>
      <trkpt lat="40.66772298887372" lon="-2.587274992838502">
        <ele>824.01499999999999</ele>
        <time>2026-04-25T11:10:59Z</time>
      </trkpt>
      <trkpt lat="40.6677430216223" lon="-2.587286978960037">
        <ele>823.85500000000002</ele>
        <time>2026-04-25T11:11:00Z</time>
      </trkpt>
      <trkpt lat="40.667761964723468" lon="-2.587296031415463">
        <ele>823.49099999999999</ele>
        <time>2026-04-25T11:11:01Z</time>
      </trkpt>
      <trkpt lat="40.66778501495719" lon="-2.587308017536998">
        <ele>823.02300000000002</ele>
        <time>2026-04-25T11:11:02Z</time>
      </trkpt>
      <trkpt lat="40.667805969715118" lon="-2.587321009486914">
        <ele>822.86199999999997</ele>
        <time>2026-04-25T11:11:03Z</time>
      </trkpt>
      <trkpt lat="40.667824996635318" lon="-2.587340036407113">
        <ele>822.63300000000004</ele>
        <time>2026-04-25T11:11:04Z</time>
      </trkpt>
      <trkpt lat="40.667847041040659" lon="-2.58735696785152">
        <ele>822.24800000000005</ele>
        <time>2026-04-25T11:11:05Z</time>
      </trkpt>
      <trkpt lat="40.667867995798588" lon="-2.587380018085241">
        <ele>821.86800000000005</ele>
        <time>2026-04-25T11:11:06Z</time>
      </trkpt>
      <trkpt lat="40.667890040203929" lon="-2.58740097284317">
        <ele>821.24199999999996</ele>
        <time>2026-04-25T11:11:07Z</time>
      </trkpt>
      <trkpt lat="40.66791501827538" lon="-2.587423017248511">
        <ele>821.02599999999995</ele>
        <time>2026-04-25T11:11:08Z</time>
      </trkpt>
      <trkpt lat="40.667935973033309" lon="-2.587444977834821">
        <ele>820.80899999999997</ele>
        <time>2026-04-25T11:11:09Z</time>
      </trkpt>
      <trkpt lat="40.667959023267031" lon="-2.587467022240162">
        <ele>820.46799999999996</ele>
        <time>2026-04-25T11:11:10Z</time>
      </trkpt>
      <trkpt lat="40.667978972196579" lon="-2.587494011968374">
        <ele>820.26199999999994</ele>
        <time>2026-04-25T11:11:11Z</time>
      </trkpt>
      <trkpt lat="40.66800001077354" lon="-2.587517984211445">
        <ele>820.08699999999999</ele>
        <time>2026-04-25T11:11:12Z</time>
      </trkpt>
      <trkpt lat="40.668019037693739" lon="-2.587539022788405">
        <ele>820.02700000000004</ele>
        <time>2026-04-25T11:11:13Z</time>
      </trkpt>
      <trkpt lat="40.668036974966526" lon="-2.587561989203095">
        <ele>819.85299999999995</ele>
        <time>2026-04-25T11:11:14Z</time>
      </trkpt>
      <trkpt lat="40.668054996058345" lon="-2.587594008073211">
        <ele>819.44500000000005</ele>
        <time>2026-04-25T11:11:16Z</time>
      </trkpt>
      <trkpt lat="40.668083997443318" lon="-2.587624015286565">
        <ele>819.23400000000004</ele>
        <time>2026-04-25T11:11:18Z</time>
      </trkpt>
      <trkpt lat="40.668102018535137" lon="-2.587642958387733">
        <ele>819.22500000000002</ele>
        <time>2026-04-25T11:11:19Z</time>
      </trkpt>
      <trkpt lat="40.668120039626956" lon="-2.587660979479551">
        <ele>819.03999999999996</ele>
        <time>2026-04-25T11:11:20Z</time>
      </trkpt>
      <trkpt lat="40.668138982728124" lon="-2.587673971429467">
        <ele>819.09500000000003</ele>
        <time>2026-04-25T11:11:21Z</time>
      </trkpt>
      <trkpt lat="40.668160021305084" lon="-2.587684029713273">
        <ele>818.84900000000005</ele>
        <time>2026-04-25T11:11:22Z</time>
      </trkpt>
      <trkpt lat="40.668181981891394" lon="-2.587686041370034">
        <ele>818.423</ele>
        <time>2026-04-25T11:11:23Z</time>
      </trkpt>
      <trkpt lat="40.668204026296735" lon="-2.587675983086228">
        <ele>818.40899999999999</ele>
        <time>2026-04-25T11:11:24Z</time>
      </trkpt>
      <trkpt lat="40.668225986883044" lon="-2.587661985307932">
        <ele>818.26099999999997</ele>
        <time>2026-04-25T11:11:25Z</time>
      </trkpt>
      <trkpt lat="40.668249037116766" lon="-2.587652010843158">
        <ele>817.88499999999999</ele>
        <time>2026-04-25T11:11:26Z</time>
      </trkpt>
      <trkpt lat="40.668266974389553" lon="-2.587645975872874">
        <ele>817.69000000000005</ele>
        <time>2026-04-25T11:11:27Z</time>
      </trkpt>
      <trkpt lat="40.668298993259668" lon="-2.587648993358016">
        <ele>816.87</ele>
        <time>2026-04-25T11:11:29Z</time>
      </trkpt>
      <trkpt lat="40.6683249771595" lon="-2.587668020278215">
        <ele>816.07600000000002</ele>
        <time>2026-04-25T11:11:31Z</time>
      </trkpt>
      <trkpt lat="40.668349033221602" lon="-2.587697021663189">
        <ele>815.47799999999995</ele>
        <time>2026-04-25T11:11:33Z</time>
      </trkpt>
      <trkpt lat="40.668365964666009" lon="-2.587727028876543">
        <ele>813.81700000000001</ele>
        <time>2026-04-25T11:11:37Z</time>
      </trkpt>
      <trkpt lat="40.668380968272686" lon="-2.58776399306953">
        <ele>813.21799999999996</ele>
        <time>2026-04-25T11:11:39Z</time>
      </trkpt>
      <trkpt lat="40.668394966050982" lon="-2.5878069922328">
        <ele>812.63300000000004</ele>
        <time>2026-04-25T11:11:41Z</time>
      </trkpt>
      <trkpt lat="40.668395971879363" lon="-2.587832976132631">
        <ele>812.25400000000002</ele>
        <time>2026-04-25T11:11:42Z</time>
      </trkpt>
      <trkpt lat="40.668397983536124" lon="-2.587860971689224">
        <ele>811.85599999999999</ele>
        <time>2026-04-25T11:11:43Z</time>
      </trkpt>
      <trkpt lat="40.668401001021266" lon="-2.587886033579707">
        <ele>811.41099999999994</ele>
        <time>2026-04-25T11:11:44Z</time>
      </trkpt>
      <trkpt lat="40.668404018506408" lon="-2.58791302330792">
        <ele>811.00900000000001</ele>
        <time>2026-04-25T11:11:45Z</time>
      </trkpt>
      <trkpt lat="40.66840996965766" lon="-2.587945964187384">
        <ele>810.66700000000003</ele>
        <time>2026-04-25T11:11:46Z</time>
      </trkpt>
      <trkpt lat="40.668413992971182" lon="-2.587975971400738">
        <ele>810.48099999999999</ele>
        <time>2026-04-25T11:11:47Z</time>
      </trkpt>
      <trkpt lat="40.668422961607575" lon="-2.588002039119601">
        <ele>809.86599999999999</ele>
        <time>2026-04-25T11:11:48Z</time>
      </trkpt>
      <trkpt lat="40.668433019891381" lon="-2.588025005534291">
        <ele>809.69600000000003</ele>
        <time>2026-04-25T11:11:49Z</time>
      </trkpt>
      <trkpt lat="40.668439976871014" lon="-2.588048977777362">
        <ele>809.452</ele>
        <time>2026-04-25T11:11:50Z</time>
      </trkpt>
      <trkpt lat="40.668447017669678" lon="-2.588075967505574">
        <ele>809.03399999999999</ele>
        <time>2026-04-25T11:11:51Z</time>
      </trkpt>
      <trkpt lat="40.668450035154819" lon="-2.588102035224438">
        <ele>808.61300000000006</ele>
        <time>2026-04-25T11:11:52Z</time>
      </trkpt>
      <trkpt lat="40.668451962992549" lon="-2.588137993589044">
        <ele>807.87400000000002</ele>
        <time>2026-04-25T11:11:54Z</time>
      </trkpt>
      <trkpt lat="40.668462021276355" lon="-2.58817101828754">
        <ele>806.82899999999995</ele>
        <time>2026-04-25T11:11:58Z</time>
      </trkpt>
      <trkpt lat="40.668464032933116" lon="-2.588199013844132">
        <ele>806.89200000000005</ele>
        <time>2026-04-25T11:11:59Z</time>
      </trkpt>
      <trkpt lat="40.668465960770845" lon="-2.588222986087203">
        <ele>806.47299999999996</ele>
        <time>2026-04-25T11:12:00Z</time>
      </trkpt>
      <trkpt lat="40.668465960770845" lon="-2.588261039927602">
        <ele>806.01999999999998</ele>
        <time>2026-04-25T11:12:02Z</time>
      </trkpt>
      <trkpt lat="40.668464032933116" lon="-2.588302027434111">
        <ele>805.80899999999997</ele>
        <time>2026-04-25T11:12:04Z</time>
      </trkpt>
      <trkpt lat="40.668455986306071" lon="-2.588332034647465">
        <ele>805.86099999999999</ele>
        <time>2026-04-25T11:12:06Z</time>
      </trkpt>
      <trkpt lat="40.668441988527775" lon="-2.588350977748632">
        <ele>805.83500000000004</ele>
        <time>2026-04-25T11:12:08Z</time>
      </trkpt>
      <trkpt lat="40.668433019891381" lon="-2.588376961648464">
        <ele>805.45000000000005</ele>
        <time>2026-04-25T11:12:10Z</time>
      </trkpt>
      <trkpt lat="40.668426984921098" lon="-2.588400011882186">
        <ele>805.44000000000005</ele>
        <time>2026-04-25T11:12:13Z</time>
      </trkpt>
      <trkpt lat="40.668425979092717" lon="-2.588431024923921">
        <ele>805.27599999999995</ele>
        <time>2026-04-25T11:12:18Z</time>
      </trkpt>
      <trkpt lat="40.668419022113085" lon="-2.58845298551023">
        <ele>805.03800000000001</ele>
        <time>2026-04-25T11:12:21Z</time>
      </trkpt>
      <trkpt lat="40.668417010456324" lon="-2.588483998551965">
        <ele>804.41700000000003</ele>
        <time>2026-04-25T11:12:28Z</time>
      </trkpt>
      <trkpt lat="40.668426984921098" lon="-2.588510988280177">
        <ele>804.89800000000002</ele>
        <time>2026-04-25T11:12:30Z</time>
      </trkpt>
      <trkpt lat="40.668445006012917" lon="-2.588551975786686">
        <ele>804.47299999999996</ele>
        <time>2026-04-25T11:12:32Z</time>
      </trkpt>
      <trkpt lat="40.66845397464931" lon="-2.588592041283846">
        <ele>803.66200000000003</ele>
        <time>2026-04-25T11:12:34Z</time>
      </trkpt>
      <trkpt lat="40.668459003791213" lon="-2.588618025183678">
        <ele>803.08299999999997</ele>
        <time>2026-04-25T11:12:36Z</time>
      </trkpt>
      <trkpt lat="40.668467972427607" lon="-2.588652977719903">
        <ele>802.21100000000001</ele>
        <time>2026-04-25T11:12:39Z</time>
      </trkpt>
      <trkpt lat="40.668469984084368" lon="-2.588690025731921">
        <ele>801.80899999999997</ele>
        <time>2026-04-25T11:12:41Z</time>
      </trkpt>
      <trkpt lat="40.668465960770845" lon="-2.588732019066811">
        <ele>801.66800000000001</ele>
        <time>2026-04-25T11:12:43Z</time>
      </trkpt>
      <trkpt lat="40.668459003791213" lon="-2.588755991309881">
        <ele>801.46199999999999</ele>
        <time>2026-04-25T11:12:44Z</time>
      </trkpt>
      <trkpt lat="40.668457997962832" lon="-2.588780969381332">
        <ele>801.27700000000004</ele>
        <time>2026-04-25T11:12:45Z</time>
      </trkpt>
      <trkpt lat="40.668457997962832" lon="-2.588806031271815">
        <ele>801.25699999999995</ele>
        <time>2026-04-25T11:12:46Z</time>
      </trkpt>
      <trkpt lat="40.668464032933116" lon="-2.588850036263466">
        <ele>800.88300000000004</ele>
        <time>2026-04-25T11:12:48Z</time>
      </trkpt>
      <trkpt lat="40.668475013226271" lon="-2.588885994628072">
        <ele>800.44500000000005</ele>
        <time>2026-04-25T11:12:50Z</time>
      </trkpt>
      <trkpt lat="40.668497979640961" lon="-2.588918013498187">
        <ele>800.07399999999996</ele>
        <time>2026-04-25T11:12:52Z</time>
      </trkpt>
      <trkpt lat="40.668520024046302" lon="-2.588937962427735">
        <ele>799.82500000000005</ele>
        <time>2026-04-25T11:12:54Z</time>
      </trkpt>
      <trkpt lat="40.668552964925766" lon="-2.588955983519554">
        <ele>799.44000000000005</ele>
        <time>2026-04-25T11:12:56Z</time>
      </trkpt>
      <trkpt lat="40.668584983795881" lon="-2.588965035974979">
        <ele>799.66499999999996</ele>
        <time>2026-04-25T11:12:58Z</time>
      </trkpt>
      <trkpt lat="40.668617002665997" lon="-2.58896604180336">
        <ele>799.86800000000005</ele>
        <time>2026-04-25T11:13:00Z</time>
      </trkpt>
      <trkpt lat="40.668644998222589" lon="-2.588961012661457">
        <ele>799.81399999999996</ele>
        <time>2026-04-25T11:13:02Z</time>
      </trkpt>
      <trkpt lat="40.668671987950802" lon="-2.588959001004696">
        <ele>799.80899999999997</ele>
        <time>2026-04-25T11:13:04Z</time>
      </trkpt>
      <trkpt lat="40.668697971850634" lon="-2.588945003226399">
        <ele>799.87800000000004</ele>
        <time>2026-04-25T11:13:06Z</time>
      </trkpt>
      <trkpt lat="40.668716998770833" lon="-2.588937962427735">
        <ele>800.05200000000002</ele>
        <time>2026-04-25T11:13:08Z</time>
      </trkpt>
      <trkpt lat="40.668738037347794" lon="-2.588929999619722">
        <ele>800.26700000000005</ele>
        <time>2026-04-25T11:13:10Z</time>
      </trkpt>
      <trkpt lat="40.668758992105722" lon="-2.588922036811709">
        <ele>800.48699999999997</ele>
        <time>2026-04-25T11:13:12Z</time>
      </trkpt>
      <trkpt lat="40.668778019025922" lon="-2.588921030983329">
        <ele>800.49300000000005</ele>
        <time>2026-04-25T11:13:14Z</time>
      </trkpt>
      <trkpt lat="40.668798973783851" lon="-2.588922958821058">
        <ele>801.05499999999995</ele>
        <time>2026-04-25T11:13:16Z</time>
      </trkpt>
      <trkpt lat="40.668816994875669" lon="-2.588924970477819">
        <ele>801.024</ele>
        <time>2026-04-25T11:13:18Z</time>
      </trkpt>
      <trkpt lat="40.668839039281011" lon="-2.588912984356284">
        <ele>801.27499999999998</ele>
        <time>2026-04-25T11:13:20Z</time>
      </trkpt>
      <trkpt lat="40.668857982382178" lon="-2.588897980749607">
        <ele>801.63</ele>
        <time>2026-04-25T11:13:22Z</time>
      </trkpt>
      <trkpt lat="40.668879020959139" lon="-2.588881971314549">
        <ele>802.255</ele>
        <time>2026-04-25T11:13:25Z</time>
      </trkpt>
      <trkpt lat="40.668893018737435" lon="-2.588859004899859">
        <ele>802.60699999999997</ele>
        <time>2026-04-25T11:13:28Z</time>
      </trkpt>
      <trkpt lat="40.668910034000874" lon="-2.588833021000028">
        <ele>803.01700000000005</ele>
        <time>2026-04-25T11:13:30Z</time>
      </trkpt>
      <trkpt lat="40.668935012072325" lon="-2.588810976594687">
        <ele>803.60900000000004</ele>
        <time>2026-04-25T11:13:32Z</time>
      </trkpt>
      <trkpt lat="40.668952027335763" lon="-2.58879597298801">
        <ele>804.27700000000004</ele>
        <time>2026-04-25T11:13:34Z</time>
      </trkpt>
      <trkpt lat="40.668973987922072" lon="-2.588785998523235">
        <ele>805.27099999999996</ele>
        <time>2026-04-25T11:13:36Z</time>
      </trkpt>
      <trkpt lat="40.668995026499033" lon="-2.588767977431417">
        <ele>805.86599999999999</ele>
        <time>2026-04-25T11:13:38Z</time>
      </trkpt>
      <trkpt lat="40.669015981256962" lon="-2.588736964389682">
        <ele>806.41600000000005</ele>
        <time>2026-04-25T11:13:40Z</time>
      </trkpt>
      <trkpt lat="40.669035008177161" lon="-2.588712992146611">
        <ele>807.21199999999999</ele>
        <time>2026-04-25T11:13:42Z</time>
      </trkpt>
      <trkpt lat="40.669054035097361" lon="-2.58868801407516">
        <ele>807.64400000000001</ele>
        <time>2026-04-25T11:13:44Z</time>
      </trkpt>
      <trkpt lat="40.669068032875657" lon="-2.588664963841438">
        <ele>808.07299999999998</ele>
        <time>2026-04-25T11:13:46Z</time>
      </trkpt>
      <trkpt lat="40.669086975976825" lon="-2.588650966063142">
        <ele>808.63400000000001</ele>
        <time>2026-04-25T11:13:48Z</time>
      </trkpt>
      <trkpt lat="40.669103991240263" lon="-2.588639985769987">
        <ele>809.08900000000006</ele>
        <time>2026-04-25T11:13:50Z</time>
      </trkpt>
      <trkpt lat="40.669126035645604" lon="-2.588633028790355">
        <ele>810.03700000000003</ele>
        <time>2026-04-25T11:13:53Z</time>
      </trkpt>
      <trkpt lat="40.669144978746772" lon="-2.588621964678168">
        <ele>810.44899999999996</ele>
        <time>2026-04-25T11:13:57Z</time>
      </trkpt>
      <trkpt lat="40.669169034808874" lon="-2.588618025183678">
        <ele>811.21299999999997</ele>
        <time>2026-04-25T11:14:00Z</time>
      </trkpt>
      <trkpt lat="40.669188983738422" lon="-2.588596986606717">
        <ele>811.60900000000004</ele>
        <time>2026-04-25T11:14:02Z</time>
      </trkpt>
      <trkpt lat="40.669210022315383" lon="-2.588563039898872">
        <ele>812.06500000000005</ele>
        <time>2026-04-25T11:14:04Z</time>
      </trkpt>
      <trkpt lat="40.669214967638254" lon="-2.588521968573332">
        <ele>812.42899999999997</ele>
        <time>2026-04-25T11:14:06Z</time>
      </trkpt>
      <trkpt lat="40.669221002608538" lon="-2.588485004380345">
        <ele>812.63400000000001</ele>
        <time>2026-04-25T11:14:08Z</time>
      </trkpt>
      <trkpt lat="40.669232988730073" lon="-2.588462037965655">
        <ele>813.07399999999996</ele>
        <time>2026-04-25T11:14:10Z</time>
      </trkpt>
      <trkpt lat="40.669253021478653" lon="-2.588471006602049">
        <ele>813.69000000000005</ele>
        <time>2026-04-25T11:14:15Z</time>
      </trkpt>
      <trkpt lat="40.669262995943427" lon="-2.588505037128925">
        <ele>814.21199999999999</ele>
        <time>2026-04-25T11:14:18Z</time>
      </trkpt>
      <trkpt lat="40.669260984286666" lon="-2.588531021028757">
        <ele>814.68100000000004</ele>
        <time>2026-04-25T11:14:20Z</time>
      </trkpt>
      <trkpt lat="40.669255033135414" lon="-2.58855901658535">
        <ele>815.01199999999994</ele>
        <time>2026-04-25T11:14:22Z</time>
      </trkpt>
      <trkpt lat="40.669246986508369" lon="-2.588589023798704">
        <ele>815.447</ele>
        <time>2026-04-25T11:14:24Z</time>
      </trkpt>
      <trkpt lat="40.669245980679989" lon="-2.588614001870155">
        <ele>815.87099999999998</ele>
        <time>2026-04-25T11:14:26Z</time>
      </trkpt>
      <trkpt lat="40.669244974851608" lon="-2.588644009083509">
        <ele>816.24099999999999</ele>
        <time>2026-04-25T11:14:29Z</time>
      </trkpt>
      <trkpt lat="40.669235000386834" lon="-2.588665969669819">
        <ele>816.21500000000003</ele>
        <time>2026-04-25T11:14:31Z</time>
      </trkpt>
      <trkpt lat="40.669230977073312" lon="-2.588694971054792">
        <ele>816.60900000000004</ele>
        <time>2026-04-25T11:14:34Z</time>
      </trkpt>
      <trkpt lat="40.669218990951777" lon="-2.588721960783005">
        <ele>817.23900000000003</ele>
        <time>2026-04-25T11:14:37Z</time>
      </trkpt>
      <trkpt lat="40.669210022315383" lon="-2.588745011016727">
        <ele>817.44299999999998</ele>
        <time>2026-04-25T11:14:39Z</time>
      </trkpt>
      <trkpt lat="40.669207004830241" lon="-2.588767977431417">
        <ele>817.63800000000003</ele>
        <time>2026-04-25T11:14:42Z</time>
      </trkpt>
      <trkpt lat="40.669195018708706" lon="-2.588805025443435">
        <ele>817.47799999999995</ele>
        <time>2026-04-25T11:14:45Z</time>
      </trkpt>
      <trkpt lat="40.669185966253281" lon="-2.588849030435085">
        <ele>817.25400000000002</ele>
        <time>2026-04-25T11:14:47Z</time>
      </trkpt>
      <trkpt lat="40.66918202675879" lon="-2.588877025991678">
        <ele>817.25599999999997</ele>
        <time>2026-04-25T11:14:48Z</time>
      </trkpt>
      <trkpt lat="40.669179009273648" lon="-2.588906027376652">
        <ele>817.26499999999999</ele>
        <time>2026-04-25T11:14:49Z</time>
      </trkpt>
      <trkpt lat="40.669180015102029" lon="-2.588937040418387">
        <ele>816.88599999999997</ele>
        <time>2026-04-25T11:14:50Z</time>
      </trkpt>
      <trkpt lat="40.66918202675879" lon="-2.58896897546947">
        <ele>816.65099999999995</ele>
        <time>2026-04-25T11:14:51Z</time>
      </trkpt>
      <trkpt lat="40.66918202675879" lon="-2.588994959369302">
        <ele>816.44899999999996</ele>
        <time>2026-04-25T11:14:52Z</time>
      </trkpt>
      <trkpt lat="40.669174985960126" lon="-2.589023038744927">
        <ele>816.202</ele>
        <time>2026-04-25T11:14:53Z</time>
      </trkpt>
      <trkpt lat="40.669166017323732" lon="-2.589052962139249">
        <ele>815.822</ele>
        <time>2026-04-25T11:14:54Z</time>
      </trkpt>
      <trkpt lat="40.669159982353449" lon="-2.589084981009364">
        <ele>815.60900000000004</ele>
        <time>2026-04-25T11:14:55Z</time>
      </trkpt>
      <trkpt lat="40.669157970696688" lon="-2.589124040678144">
        <ele>815.49599999999998</ele>
        <time>2026-04-25T11:14:56Z</time>
      </trkpt>
      <trkpt lat="40.669162999838591" lon="-2.589159999042749">
        <ele>815.08000000000004</ele>
        <time>2026-04-25T11:14:57Z</time>
      </trkpt>
      <trkpt lat="40.669170962646604" lon="-2.589195035398006">
        <ele>814.65499999999997</ele>
        <time>2026-04-25T11:14:58Z</time>
      </trkpt>
      <trkpt lat="40.669180015102029" lon="-2.589234011247754">
        <ele>814.68499999999995</ele>
        <time>2026-04-25T11:14:59Z</time>
      </trkpt>
      <trkpt lat="40.669186972081661" lon="-2.589272987097502">
        <ele>814.42100000000005</ele>
        <time>2026-04-25T11:15:00Z</time>
      </trkpt>
      <trkpt lat="40.669197030365467" lon="-2.58931296877563">
        <ele>814.28300000000002</ele>
        <time>2026-04-25T11:15:01Z</time>
      </trkpt>
      <trkpt lat="40.669205999001861" lon="-2.589339958503842">
        <ele>814.04200000000003</ele>
        <time>2026-04-25T11:15:02Z</time>
      </trkpt>
      <trkpt lat="40.669210022315383" lon="-2.589371977373958">
        <ele>813.82299999999998</ele>
        <time>2026-04-25T11:15:04Z</time>
      </trkpt>
      <trkpt lat="40.669215973466635" lon="-2.589405002072454">
        <ele>813.86800000000005</ele>
        <time>2026-04-25T11:15:06Z</time>
      </trkpt>
      <trkpt lat="40.669215973466635" lon="-2.589443977922201">
        <ele>814.01199999999994</ele>
        <time>2026-04-25T11:15:08Z</time>
      </trkpt>
      <trkpt lat="40.669214967638254" lon="-2.589485971257091">
        <ele>814.03200000000004</ele>
        <time>2026-04-25T11:15:10Z</time>
      </trkpt>
      <trkpt lat="40.669232988730073" lon="-2.589523019269109">
        <ele>813.80499999999995</ele>
        <time>2026-04-25T11:15:12Z</time>
      </trkpt>
      <trkpt lat="40.669252015650272" lon="-2.589536011219025">
        <ele>813.80899999999997</ele>
        <time>2026-04-25T11:15:13Z</time>
      </trkpt>
      <trkpt lat="40.669274982064962" lon="-2.589543974027038">
        <ele>813.85299999999995</ele>
        <time>2026-04-25T11:15:14Z</time>
      </trkpt>
      <trkpt lat="40.669297026470304" lon="-2.589541040360928">
        <ele>813.85699999999997</ele>
        <time>2026-04-25T11:15:15Z</time>
      </trkpt>
      <trkpt lat="40.669326027855277" lon="-2.589530982077122">
        <ele>813.86199999999997</ele>
        <time>2026-04-25T11:15:17Z</time>
      </trkpt>
      <trkpt lat="40.669352011755109" lon="-2.589512960985303">
        <ele>814.08199999999999</ele>
        <time>2026-04-25T11:15:19Z</time>
      </trkpt>
      <trkpt lat="40.669381013140082" lon="-2.589488988742232">
        <ele>814.45799999999997</ele>
        <time>2026-04-25T11:15:21Z</time>
      </trkpt>
      <trkpt lat="40.669405991211534" lon="-2.589464010670781">
        <ele>814.61000000000001</ele>
        <time>2026-04-25T11:15:23Z</time>
      </trkpt>
      <trkpt lat="40.669431975111365" lon="-2.589443977922201">
        <ele>815.01900000000001</ele>
        <time>2026-04-25T11:15:25Z</time>
      </trkpt>
      <trkpt lat="40.669457037001848" lon="-2.589417994022369">
        <ele>815.23000000000002</ele>
        <time>2026-04-25T11:15:27Z</time>
      </trkpt>
      <trkpt lat="40.669481009244919" lon="-2.589394021779299">
        <ele>815.625</ele>
        <time>2026-04-25T11:15:29Z</time>
      </trkpt>
      <trkpt lat="40.669501964002848" lon="-2.589369965717197">
        <ele>816.06700000000001</ele>
        <time>2026-04-25T11:15:31Z</time>
      </trkpt>
      <trkpt lat="40.669520990923047" lon="-2.589346999302506">
        <ele>816.48099999999999</ele>
        <time>2026-04-25T11:15:33Z</time>
      </trkpt>
      <trkpt lat="40.669540017843246" lon="-2.589327972382307">
        <ele>816.81899999999996</ele>
        <time>2026-04-25T11:15:35Z</time>
      </trkpt>
      <trkpt lat="40.669564995914698" lon="-2.589313974604011">
        <ele>817.60900000000004</ele>
        <time>2026-04-25T11:15:37Z</time>
      </trkpt>
      <trkpt lat="40.66959198564291" lon="-2.589300982654095">
        <ele>817.84799999999996</ele>
        <time>2026-04-25T11:15:39Z</time>
      </trkpt>
      <trkpt lat="40.669619981199503" lon="-2.589292014017701">
        <ele>818.22199999999998</ele>
        <time>2026-04-25T11:15:41Z</time>
      </trkpt>
      <trkpt lat="40.669650994241238" lon="-2.589282039552927">
        <ele>818.48699999999997</ele>
        <time>2026-04-25T11:15:43Z</time>
      </trkpt>
      <trkpt lat="40.669679995626211" lon="-2.589276004582644">
        <ele>818.85699999999997</ele>
        <time>2026-04-25T11:15:45Z</time>
      </trkpt>
      <trkpt lat="40.669707991182804" lon="-2.58926703594625">
        <ele>819.28300000000002</ele>
        <time>2026-04-25T11:15:47Z</time>
      </trkpt>
      <trkpt lat="40.669732969254255" lon="-2.589256977662444">
        <ele>819.66499999999996</ele>
        <time>2026-04-25T11:15:49Z</time>
      </trkpt>
      <trkpt lat="40.669759958982468" lon="-2.589243985712528">
        <ele>820.024</ele>
        <time>2026-04-25T11:15:51Z</time>
      </trkpt>
      <trkpt lat="40.669787032529712" lon="-2.589229987934232">
        <ele>820.245</ele>
        <time>2026-04-25T11:15:53Z</time>
      </trkpt>
      <trkpt lat="40.669808993116021" lon="-2.589223030954599">
        <ele>820.42999999999995</ele>
        <time>2026-04-25T11:15:55Z</time>
      </trkpt>
      <trkpt lat="40.669831959530711" lon="-2.589214984327555">
        <ele>820.41499999999996</ele>
        <time>2026-04-25T11:15:57Z</time>
      </trkpt>
      <trkpt lat="40.669861966744065" lon="-2.589212972670794">
        <ele>820.46500000000003</ele>
        <time>2026-04-25T11:15:59Z</time>
      </trkpt>
      <trkpt lat="40.6698929797858" lon="-2.589212972670794">
        <ele>820.41099999999994</ele>
        <time>2026-04-25T11:16:01Z</time>
      </trkpt>
      <trkpt lat="40.669921981170774" lon="-2.589220013469458">
        <ele>820.20899999999995</ele>
        <time>2026-04-25T11:16:03Z</time>
      </trkpt>
      <trkpt lat="40.669951988384128" lon="-2.589234011247754">
        <ele>819.81299999999999</ele>
        <time>2026-04-25T11:16:05Z</time>
      </trkpt>
      <trkpt lat="40.669986018911004" lon="-2.589243985712528">
        <ele>819.22699999999998</ele>
        <time>2026-04-25T11:16:07Z</time>
      </trkpt>
      <trkpt lat="40.670017031952739" lon="-2.589265024289489">
        <ele>818.05200000000002</ele>
        <time>2026-04-25T11:16:09Z</time>
      </trkpt>
      <trkpt lat="40.670034969225526" lon="-2.589272987097502">
        <ele>817.63199999999995</ele>
        <time>2026-04-25T11:16:10Z</time>
      </trkpt>
      <trkpt lat="40.670052990317345" lon="-2.589278016239405">
        <ele>817.03800000000001</ele>
        <time>2026-04-25T11:16:11Z</time>
      </trkpt>
      <trkpt lat="40.670074028894305" lon="-2.589278016239405">
        <ele>816.66999999999996</ele>
        <time>2026-04-25T11:16:12Z</time>
      </trkpt>
      <trkpt lat="40.670092971995473" lon="-2.589270975440741">
        <ele>816.03899999999999</ele>
        <time>2026-04-25T11:16:13Z</time>
      </trkpt>
      <trkpt lat="40.670110993087292" lon="-2.589255971834064">
        <ele>815.80999999999995</ele>
        <time>2026-04-25T11:16:14Z</time>
      </trkpt>
      <trkpt lat="40.670125996693969" lon="-2.589240968227387">
        <ele>815.43499999999995</ele>
        <time>2026-04-25T11:16:15Z</time>
      </trkpt>
      <trkpt lat="40.670146029442549" lon="-2.589231999590993">
        <ele>815.26700000000005</ele>
        <time>2026-04-25T11:16:16Z</time>
      </trkpt>
      <trkpt lat="40.670178970322013" lon="-2.589228982105851">
        <ele>814.68100000000004</ele>
        <time>2026-04-25T11:16:18Z</time>
      </trkpt>
      <trkpt lat="40.670196991413832" lon="-2.589229987934232">
        <ele>814.01900000000001</ele>
        <time>2026-04-25T11:16:19Z</time>
      </trkpt>
      <trkpt lat="40.670233033597469" lon="-2.589239962399006">
        <ele>813.20899999999995</ele>
        <time>2026-04-25T11:16:21Z</time>
      </trkpt>
      <trkpt lat="40.670253988355398" lon="-2.589239040389657">
        <ele>812.81799999999998</ele>
        <time>2026-04-25T11:16:22Z</time>
      </trkpt>
      <trkpt lat="40.670277960598469" lon="-2.589242979884148">
        <ele>812.822</ele>
        <time>2026-04-25T11:16:23Z</time>
      </trkpt>
      <trkpt lat="40.670306039974093" lon="-2.589243985712528">
        <ele>812.83699999999999</ele>
        <time>2026-04-25T11:16:24Z</time>
      </trkpt>
      <trkpt lat="40.670331018045545" lon="-2.589250020682812">
        <ele>812.62699999999995</ele>
        <time>2026-04-25T11:16:25Z</time>
      </trkpt>
      <trkpt lat="40.670352978631854" lon="-2.589256977662444">
        <ele>812.46299999999997</ele>
        <time>2026-04-25T11:16:26Z</time>
      </trkpt>
      <trkpt lat="40.670372005552053" lon="-2.589264018461108">
        <ele>812.45500000000004</ele>
        <time>2026-04-25T11:16:27Z</time>
      </trkpt>
      <trkpt lat="40.670401006937027" lon="-2.589276004582644">
        <ele>812.48400000000004</ele>
        <time>2026-04-25T11:16:29Z</time>
      </trkpt>
      <trkpt lat="40.670423973351717" lon="-2.589285979047418">
        <ele>812.43499999999995</ele>
        <time>2026-04-25T11:16:31Z</time>
      </trkpt>
      <trkpt lat="40.670450963079929" lon="-2.589286984875798">
        <ele>813.00999999999999</ele>
        <time>2026-04-25T11:16:33Z</time>
      </trkpt>
      <trkpt lat="40.67047200165689" lon="-2.589282961562276">
        <ele>813.82899999999995</ele>
        <time>2026-04-25T11:16:35Z</time>
      </trkpt>
      <trkpt lat="40.67049304023385" lon="-2.58926703594625">
        <ele>814.20000000000005</ele>
        <time>2026-04-25T11:16:37Z</time>
      </trkpt>
      <trkpt lat="40.67051600664854" lon="-2.589268963783979">
        <ele>814.82000000000005</ele>
        <time>2026-04-25T11:16:39Z</time>
      </trkpt>
      <trkpt lat="40.670539978891611" lon="-2.589277010411024">
        <ele>815.40899999999999</ele>
        <time>2026-04-25T11:16:41Z</time>
      </trkpt>
      <trkpt lat="40.670568980276585" lon="-2.589277010411024">
        <ele>815.83399999999995</ele>
        <time>2026-04-25T11:16:43Z</time>
      </trkpt>
      <trkpt lat="40.670599993318319" lon="-2.589274998754263">
        <ele>816.41800000000001</ele>
        <time>2026-04-25T11:16:45Z</time>
      </trkpt>
      <trkpt lat="40.670624971389771" lon="-2.589274998754263">
        <ele>816.68299999999999</ele>
        <time>2026-04-25T11:16:46Z</time>
      </trkpt>
      <trkpt lat="40.670650033280253" lon="-2.589271981269121">
        <ele>817.02300000000002</ele>
        <time>2026-04-25T11:16:47Z</time>
      </trkpt>
      <trkpt lat="40.670676017180085" lon="-2.589265024289489">
        <ele>817.09900000000005</ele>
        <time>2026-04-25T11:16:48Z</time>
      </trkpt>
      <trkpt lat="40.670702001079917" lon="-2.589255971834064">
        <ele>817.221</ele>
        <time>2026-04-25T11:16:49Z</time>
      </trkpt>
      <trkpt lat="40.670728990808129" lon="-2.589250020682812">
        <ele>817.49000000000001</ele>
        <time>2026-04-25T11:16:50Z</time>
      </trkpt>
      <trkpt lat="40.67075396887958" lon="-2.589244991540909">
        <ele>817.68100000000004</ele>
        <time>2026-04-25T11:16:51Z</time>
      </trkpt>
      <trkpt lat="40.67077400162816" lon="-2.589243985712528">
        <ele>817.85599999999999</ele>
        <time>2026-04-25T11:16:52Z</time>
      </trkpt>
      <trkpt lat="40.670805014669895" lon="-2.589245997369289">
        <ele>818.24400000000003</ele>
        <time>2026-04-25T11:16:54Z</time>
      </trkpt>
      <trkpt lat="40.670827981084585" lon="-2.589257983490825">
        <ele>818.40499999999997</ele>
        <time>2026-04-25T11:16:56Z</time>
      </trkpt>
      <trkpt lat="40.670855976641178" lon="-2.589273992925882">
        <ele>818.81500000000005</ele>
        <time>2026-04-25T11:16:58Z</time>
      </trkpt>
      <trkpt lat="40.670881038531661" lon="-2.589292014017701">
        <ele>819.00900000000001</ele>
        <time>2026-04-25T11:17:00Z</time>
      </trkpt>
      <trkpt lat="40.670911967754364" lon="-2.589309029281139">
        <ele>819.25599999999997</ele>
        <time>2026-04-25T11:17:02Z</time>
      </trkpt>
      <trkpt lat="40.670941974967718" lon="-2.589325038716197">
        <ele>819.42999999999995</ele>
        <time>2026-04-25T11:17:04Z</time>
      </trkpt>
      <trkpt lat="40.67096896469593" lon="-2.589339036494494">
        <ele>819.28499999999997</ele>
        <time>2026-04-25T11:17:06Z</time>
      </trkpt>
      <trkpt lat="40.67100903019309" lon="-2.589348005130887">
        <ele>819.07500000000005</ele>
        <time>2026-04-25T11:17:08Z</time>
      </trkpt>
      <trkpt lat="40.67103199660778" lon="-2.589346999302506">
        <ele>819.27099999999996</ele>
        <time>2026-04-25T11:17:09Z</time>
      </trkpt>
      <trkpt lat="40.67105496302247" lon="-2.589344987645745">
        <ele>819.423</ele>
        <time>2026-04-25T11:17:10Z</time>
      </trkpt>
      <trkpt lat="40.67107398994267" lon="-2.589335013180971">
        <ele>819.22199999999998</ele>
        <time>2026-04-25T11:17:11Z</time>
      </trkpt>
      <trkpt lat="40.67109402269125" lon="-2.589328978210688">
        <ele>819.423</ele>
        <time>2026-04-25T11:17:12Z</time>
      </trkpt>
      <trkpt lat="40.671113971620798" lon="-2.589326966553927">
        <ele>819.65800000000002</ele>
        <time>2026-04-25T11:17:13Z</time>
      </trkpt>
      <trkpt lat="40.671135010197759" lon="-2.589325960725546">
        <ele>819.68100000000004</ele>
        <time>2026-04-25T11:17:14Z</time>
      </trkpt>
      <trkpt lat="40.671154959127307" lon="-2.589325960725546">
        <ele>819.86099999999999</ele>
        <time>2026-04-25T11:17:15Z</time>
      </trkpt>
      <trkpt lat="40.671177003532648" lon="-2.589326966553927">
        <ele>819.81700000000001</ele>
        <time>2026-04-25T11:17:16Z</time>
      </trkpt>
      <trkpt lat="40.671212039887905" lon="-2.589339036494494">
        <ele>819.80899999999997</ele>
        <time>2026-04-25T11:17:18Z</time>
      </trkpt>
      <trkpt lat="40.671228971332312" lon="-2.589348005130887">
        <ele>819.88999999999999</ele>
        <time>2026-04-25T11:17:19Z</time>
      </trkpt>
      <trkpt lat="40.671242969110608" lon="-2.589368959888816">
        <ele>819.89400000000001</ele>
        <time>2026-04-25T11:17:20Z</time>
      </trkpt>
      <trkpt lat="40.671260990202427" lon="-2.589388992637396">
        <ele>819.85900000000004</ele>
        <time>2026-04-25T11:17:21Z</time>
      </trkpt>
      <trkpt lat="40.671284962445498" lon="-2.589411037042737">
        <ele>820.03899999999999</ele>
        <time>2026-04-25T11:17:22Z</time>
      </trkpt>
      <trkpt lat="40.671314969658852" lon="-2.589429980143905">
        <ele>820.04499999999996</ele>
        <time>2026-04-25T11:17:23Z</time>
      </trkpt>
      <trkpt lat="40.671341037377715" lon="-2.58943903259933">
        <ele>820.02700000000004</ele>
        <time>2026-04-25T11:17:24Z</time>
      </trkpt>
      <trkpt lat="40.671368027105927" lon="-2.589440960437059">
        <ele>820.07600000000002</ele>
        <time>2026-04-25T11:17:25Z</time>
      </trkpt>
      <trkpt lat="40.671390993520617" lon="-2.589430985972285">
        <ele>819.86699999999996</ele>
        <time>2026-04-25T11:17:26Z</time>
      </trkpt>
      <trkpt lat="40.671410020440817" lon="-2.589420005679131">
        <ele>819.88199999999995</ele>
        <time>2026-04-25T11:17:27Z</time>
      </trkpt>
      <trkpt lat="40.671436004340649" lon="-2.589424028992653">
        <ele>820.06899999999996</ele>
        <time>2026-04-25T11:17:29Z</time>
      </trkpt>
      <trkpt lat="40.671459976583719" lon="-2.58943903259933">
        <ele>820.20399999999995</ele>
        <time>2026-04-25T11:17:31Z</time>
      </trkpt>
      <trkpt lat="40.671487972140312" lon="-2.589454036206007">
        <ele>820.22400000000005</ele>
        <time>2026-04-25T11:17:33Z</time>
      </trkpt>
      <trkpt lat="40.671514039859176" lon="-2.589469039812684">
        <ele>820.40899999999999</ele>
        <time>2026-04-25T11:17:35Z</time>
      </trkpt>
      <trkpt lat="40.671539017930627" lon="-2.589485971257091">
        <ele>820.63800000000003</ele>
        <time>2026-04-25T11:17:37Z</time>
      </trkpt>
      <trkpt lat="40.671565001830459" lon="-2.589512960985303">
        <ele>820.65200000000004</ele>
        <time>2026-04-25T11:17:39Z</time>
      </trkpt>
      <trkpt lat="40.671584028750658" lon="-2.589528970420361">
        <ele>820.68700000000001</ele>
        <time>2026-04-25T11:17:40Z</time>
      </trkpt>
      <trkpt lat="40.671603977680206" lon="-2.589545985683799">
        <ele>820.83699999999999</ele>
        <time>2026-04-25T11:17:41Z</time>
      </trkpt>
      <trkpt lat="40.671626022085547" lon="-2.589560989290476">
        <ele>820.83299999999997</ele>
        <time>2026-04-25T11:17:42Z</time>
      </trkpt>
      <trkpt lat="40.671647982671857" lon="-2.589578004553914">
        <ele>821.01499999999999</ele>
        <time>2026-04-25T11:17:43Z</time>
      </trkpt>
      <trkpt lat="40.671669021248817" lon="-2.589586973190308">
        <ele>821.04399999999998</ele>
        <time>2026-04-25T11:17:44Z</time>
      </trkpt>
      <trkpt lat="40.671687964349985" lon="-2.589598959311843">
        <ele>821.27499999999998</ele>
        <time>2026-04-25T11:17:45Z</time>
      </trkpt>
      <trkpt lat="40.671706991270185" lon="-2.589614968746901">
        <ele>821.23000000000002</ele>
        <time>2026-04-25T11:17:46Z</time>
      </trkpt>
      <trkpt lat="40.671724006533623" lon="-2.589629972353578">
        <ele>821.23800000000006</ele>
        <time>2026-04-25T11:17:47Z</time>
      </trkpt>
      <trkpt lat="40.671738004311919" lon="-2.589646987617016">
        <ele>821.26999999999998</ele>
        <time>2026-04-25T11:17:48Z</time>
      </trkpt>
      <trkpt lat="40.671760970726609" lon="-2.589683029800654">
        <ele>821.61699999999996</ele>
        <time>2026-04-25T11:17:50Z</time>
      </trkpt>
      <trkpt lat="40.671784020960331" lon="-2.58969996124506">
        <ele>822.00900000000001</ele>
        <time>2026-04-25T11:17:52Z</time>
      </trkpt>
      <trkpt lat="40.671801958233118" lon="-2.589709013700485">
        <ele>822.84500000000003</ele>
        <time>2026-04-25T11:17:54Z</time>
      </trkpt>
      <trkpt lat="40.671824002638459" lon="-2.589714964851737">
        <ele>823.22900000000004</ele>
        <time>2026-04-25T11:17:57Z</time>
      </trkpt>
      <trkpt lat="40.671849986538291" lon="-2.589722005650401">
        <ele>823.42399999999998</ele>
        <time>2026-04-25T11:17:59Z</time>
      </trkpt>
      <trkpt lat="40.67186901345849" lon="-2.589727034792304">
        <ele>823.46400000000006</ele>
        <time>2026-04-25T11:18:01Z</time>
      </trkpt>
      <trkpt lat="40.671887034550309" lon="-2.58974296040833">
        <ele>823.83000000000004</ele>
        <time>2026-04-25T11:18:03Z</time>
      </trkpt>
      <trkpt lat="40.671902038156986" lon="-2.589766010642052">
        <ele>824.48199999999997</ele>
        <time>2026-04-25T11:18:05Z</time>
      </trkpt>
      <trkpt lat="40.671917041763663" lon="-2.589785037562251">
        <ele>824.86099999999999</ele>
        <time>2026-04-25T11:18:07Z</time>
      </trkpt>
      <trkpt lat="40.671941014006734" lon="-2.589808003976941">
        <ele>825.43200000000002</ele>
        <time>2026-04-25T11:18:10Z</time>
      </trkpt>
      <trkpt lat="40.671974960714579" lon="-2.589822001755238">
        <ele>825.81700000000001</ele>
        <time>2026-04-25T11:18:12Z</time>
      </trkpt>
      <trkpt lat="40.671994993463159" lon="-2.589831976220012">
        <ele>826.25900000000001</ele>
        <time>2026-04-25T11:18:13Z</time>
      </trkpt>
      <trkpt lat="40.672015026211739" lon="-2.589841028675437">
        <ele>826.20299999999997</ele>
        <time>2026-04-25T11:18:14Z</time>
      </trkpt>
      <trkpt lat="40.672033969312906" lon="-2.589847985655069">
        <ele>826.22299999999996</ele>
        <time>2026-04-25T11:18:15Z</time>
      </trkpt>
      <trkpt lat="40.672051990404725" lon="-2.589857038110495">
        <ele>826.40899999999999</ele>
        <time>2026-04-25T11:18:16Z</time>
      </trkpt>
      <trkpt lat="40.672069005668163" lon="-2.58986902423203">
        <ele>826.24699999999996</ele>
        <time>2026-04-25T11:18:17Z</time>
      </trkpt>
      <trkpt lat="40.672078980132937" lon="-2.589887967333198">
        <ele>825.43100000000004</ele>
        <time>2026-04-25T11:18:22Z</time>
      </trkpt>
      <trkpt lat="40.672101024538279" lon="-2.589888973161578">
        <ele>825.68600000000004</ele>
        <time>2026-04-25T11:18:25Z</time>
      </trkpt>
      <trkpt lat="40.672118961811066" lon="-2.589890984818339">
        <ele>825.62599999999998</ele>
        <time>2026-04-25T11:18:27Z</time>
      </trkpt>
      <trkpt lat="40.672142012044787" lon="-2.589898025617003">
        <ele>825.43200000000002</ele>
        <time>2026-04-25T11:18:29Z</time>
      </trkpt>
      <trkpt lat="40.672161038964987" lon="-2.589908000081778">
        <ele>825.24400000000003</ele>
        <time>2026-04-25T11:18:30Z</time>
      </trkpt>
      <trkpt lat="40.672179982066154" lon="-2.589920992031694">
        <ele>825.43299999999999</ele>
        <time>2026-04-25T11:18:31Z</time>
      </trkpt>
      <trkpt lat="40.672214012593031" lon="-2.589940018951893">
        <ele>824.82399999999996</ele>
        <time>2026-04-25T11:18:33Z</time>
      </trkpt>
      <trkpt lat="40.672233961522579" lon="-2.589944964274764">
        <ele>824.66899999999998</ele>
        <time>2026-04-25T11:18:34Z</time>
      </trkpt>
      <trkpt lat="40.672252988442779" lon="-2.589946975931525">
        <ele>824.25300000000004</ele>
        <time>2026-04-25T11:18:35Z</time>
      </trkpt>
      <trkpt lat="40.672289030626416" lon="-2.589949993416667">
        <ele>823.60400000000004</ele>
        <time>2026-04-25T11:18:37Z</time>
      </trkpt>
      <trkpt lat="40.672307973727584" lon="-2.589953010901809">
        <ele>823.21400000000006</ele>
        <time>2026-04-25T11:18:38Z</time>
      </trkpt>
      <trkpt lat="40.672334041446447" lon="-2.589974971488118">
        <ele>822.80899999999997</ele>
        <time>2026-04-25T11:18:40Z</time>
      </trkpt>
      <trkpt lat="40.672347033396363" lon="-2.589991986751556">
        <ele>822.27700000000004</ele>
        <time>2026-04-25T11:18:41Z</time>
      </trkpt>
      <trkpt lat="40.672357007861137" lon="-2.590017970651388">
        <ele>822.08100000000002</ele>
        <time>2026-04-25T11:18:42Z</time>
      </trkpt>
      <trkpt lat="40.672374023124576" lon="-2.590039009228349">
        <ele>821.69600000000003</ele>
        <time>2026-04-25T11:18:43Z</time>
      </trkpt>
      <trkpt lat="40.672394977882504" lon="-2.590057030320168">
        <ele>821.46600000000001</ele>
        <time>2026-04-25T11:18:44Z</time>
      </trkpt>
      <trkpt lat="40.672419033944607" lon="-2.590072033926845">
        <ele>821.072</ele>
        <time>2026-04-25T11:18:45Z</time>
      </trkpt>
      <trkpt lat="40.672439988702536" lon="-2.590079996734858">
        <ele>820.83399999999995</ele>
        <time>2026-04-25T11:18:46Z</time>
      </trkpt>
      <trkpt lat="40.672420039772987" lon="-2.590077985078096">
        <ele>819.28300000000002</ele>
        <time>2026-04-25T11:18:52Z</time>
      </trkpt>
      <trkpt lat="40.672437977045774" lon="-2.590079996734858">
        <ele>819.89400000000001</ele>
        <time>2026-04-25T11:19:01Z</time>
      </trkpt>
      <trkpt lat="40.672431020066142" lon="-2.590056024491787">
        <ele>818.899</ele>
        <time>2026-04-25T11:19:17Z</time>
      </trkpt>
      <trkpt lat="40.67244803532958" lon="-2.590070022270083">
        <ele>819.21699999999998</ele>
        <time>2026-04-25T11:19:25Z</time>
      </trkpt>
      <trkpt lat="40.67246999591589" lon="-2.590076979249716">
        <ele>819.08699999999999</ele>
        <time>2026-04-25T11:19:27Z</time>
      </trkpt>
      <trkpt lat="40.67249396815896" lon="-2.590085025876761">
        <ele>819.01499999999999</ele>
        <time>2026-04-25T11:19:29Z</time>
      </trkpt>
      <trkpt lat="40.672517018392682" lon="-2.590087037533522">
        <ele>818.80899999999997</ele>
        <time>2026-04-25T11:19:31Z</time>
      </trkpt>
      <trkpt lat="40.672495979815722" lon="-2.590076979249716">
        <ele>818.053</ele>
        <time>2026-04-25T11:19:43Z</time>
      </trkpt>
      <trkpt lat="40.672474019229412" lon="-2.590062981471419">
        <ele>818.42700000000002</ele>
        <time>2026-04-25T11:19:46Z</time>
      </trkpt>
      <trkpt lat="40.672457003965974" lon="-2.590056024491787">
        <ele>818.42200000000003</ele>
        <time>2026-04-25T11:19:49Z</time>
      </trkpt>
      <trkpt lat="40.672473013401031" lon="-2.590073039755225">
        <ele>818.67200000000003</ele>
        <time>2026-04-25T11:19:56Z</time>
      </trkpt>
      <trkpt lat="40.672495979815722" lon="-2.590082008391619">
        <ele>818.52800000000002</ele>
        <time>2026-04-25T11:19:58Z</time>
      </trkpt>
      <trkpt lat="40.672519030049443" lon="-2.590088965371251">
        <ele>818.46000000000004</ele>
        <time>2026-04-25T11:20:00Z</time>
      </trkpt>
      <trkpt lat="40.672541996464133" lon="-2.590100029483438">
        <ele>818.35900000000004</ele>
        <time>2026-04-25T11:20:02Z</time>
      </trkpt>
      <trkpt lat="40.672562029212713" lon="-2.590105980634689">
        <ele>818.21000000000004</ele>
        <time>2026-04-25T11:20:04Z</time>
      </trkpt>
      <trkpt lat="40.672594970092177" lon="-2.590112015604973">
        <ele>817.28499999999997</ele>
        <time>2026-04-25T11:20:07Z</time>
      </trkpt>
      <trkpt lat="40.672611985355616" lon="-2.590116960927844">
        <ele>817.01700000000005</ele>
        <time>2026-04-25T11:20:08Z</time>
      </trkpt>
      <trkpt lat="40.67264299839735" lon="-2.590130958706141">
        <ele>816.48699999999997</ele>
        <time>2026-04-25T11:20:10Z</time>
      </trkpt>
      <trkpt lat="40.67266202531755" lon="-2.590137999504805">
        <ele>815.61500000000001</ele>
        <time>2026-04-25T11:20:11Z</time>
      </trkpt>
      <trkpt lat="40.672680968418717" lon="-2.590142022818327">
        <ele>815.40899999999999</ele>
        <time>2026-04-25T11:20:12Z</time>
      </trkpt>
      <trkpt lat="40.672718016430736" lon="-2.59014998562634">
        <ele>814.84299999999996</ele>
        <time>2026-04-25T11:20:14Z</time>
      </trkpt>
      <trkpt lat="40.672738971188664" lon="-2.590150991454721">
        <ele>814.21699999999998</ele>
        <time>2026-04-25T11:20:15Z</time>
      </trkpt>
      <trkpt lat="40.672761015594006" lon="-2.590155014768243">
        <ele>813.88199999999995</ele>
        <time>2026-04-25T11:20:16Z</time>
      </trkpt>
      <trkpt lat="40.672780964523554" lon="-2.590162977576256">
        <ele>813.46199999999999</ele>
        <time>2026-04-25T11:20:17Z</time>
      </trkpt>
      <trkpt lat="40.672799991443753" lon="-2.59017001837492">
        <ele>813.09799999999996</ele>
        <time>2026-04-25T11:20:18Z</time>
      </trkpt>
      <trkpt lat="40.672821030020714" lon="-2.590171024203301">
        <ele>812.80999999999995</ele>
        <time>2026-04-25T11:20:19Z</time>
      </trkpt>
      <trkpt lat="40.672841984778643" lon="-2.590174041688442">
        <ele>812.21900000000005</ele>
        <time>2026-04-25T11:20:20Z</time>
      </trkpt>
      <trkpt lat="40.672865035012364" lon="-2.590182004496455">
        <ele>811.63999999999999</ele>
        <time>2026-04-25T11:20:21Z</time>
      </trkpt>
      <trkpt lat="40.672891018912196" lon="-2.590184016153216">
        <ele>811.63499999999999</ele>
        <time>2026-04-25T11:20:22Z</time>
      </trkpt>
      <trkpt lat="40.672913985326886" lon="-2.590188039466739">
        <ele>811.08500000000004</ele>
        <time>2026-04-25T11:20:23Z</time>
      </trkpt>
      <trkpt lat="40.672939969226718" lon="-2.590191978961229">
        <ele>810.68899999999996</ele>
        <time>2026-04-25T11:20:24Z</time>
      </trkpt>
      <trkpt lat="40.672965031117201" lon="-2.590194996446371">
        <ele>810.21699999999998</ele>
        <time>2026-04-25T11:20:25Z</time>
      </trkpt>
      <trkpt lat="40.672983974218369" lon="-2.590198013931513">
        <ele>809.80899999999997</ele>
        <time>2026-04-25T11:20:26Z</time>
      </trkpt>
      <trkpt lat="40.673003001138568" lon="-2.590202959254384">
        <ele>809.22000000000003</ele>
        <time>2026-04-25T11:20:27Z</time>
      </trkpt>
      <trkpt lat="40.673038037493825" lon="-2.590217962861061">
        <ele>808.45399999999995</ele>
        <time>2026-04-25T11:20:29Z</time>
      </trkpt>
      <trkpt lat="40.673055974766612" lon="-2.590228021144867">
        <ele>807.899</ele>
        <time>2026-04-25T11:20:30Z</time>
      </trkpt>
      <trkpt lat="40.673075001686811" lon="-2.590243024751544">
        <ele>807.46900000000005</ele>
        <time>2026-04-25T11:20:31Z</time>
      </trkpt>
      <trkpt lat="40.673096040263772" lon="-2.590259034186602">
        <ele>807.08500000000004</ele>
        <time>2026-04-25T11:20:32Z</time>
      </trkpt>
      <trkpt lat="40.673116995021701" lon="-2.590269008651376">
        <ele>806.64700000000005</ele>
        <time>2026-04-25T11:20:33Z</time>
      </trkpt>
      <trkpt lat="40.67313501611352" lon="-2.590277977287769">
        <ele>806.25599999999997</ele>
        <time>2026-04-25T11:20:34Z</time>
      </trkpt>
      <trkpt lat="40.673167034983635" lon="-2.590290969237685">
        <ele>805.47699999999998</ele>
        <time>2026-04-25T11:20:36Z</time>
      </trkpt>
      <trkpt lat="40.673187989741564" lon="-2.590298010036349">
        <ele>804.83199999999999</ele>
        <time>2026-04-25T11:20:37Z</time>
      </trkpt>
      <trkpt lat="40.67322101444006" lon="-2.590315025299788">
        <ele>803.875</ele>
        <time>2026-04-25T11:20:39Z</time>
      </trkpt>
      <trkpt lat="40.673253033310175" lon="-2.590328017249703">
        <ele>803.22799999999995</ele>
        <time>2026-04-25T11:20:41Z</time>
      </trkpt>
      <trkpt lat="40.673270970582962" lon="-2.590332962572575">
        <ele>803.01999999999998</ele>
        <time>2026-04-25T11:20:42Z</time>
      </trkpt>
      <trkpt lat="40.673300977796316" lon="-2.590324999764562">
        <ele>802.60900000000004</ele>
        <time>2026-04-25T11:20:44Z</time>
      </trkpt>
      <trkpt lat="40.673322016373277" lon="-2.590317958965898">
        <ele>802.26900000000001</ele>
        <time>2026-04-25T11:20:46Z</time>
      </trkpt>
      <trkpt lat="40.673343976959586" lon="-2.590320976451039">
        <ele>802.22299999999996</ele>
        <time>2026-04-25T11:20:48Z</time>
      </trkpt>
      <trkpt lat="40.673365015536547" lon="-2.590328017249703">
        <ele>802.24800000000005</ele>
        <time>2026-04-25T11:20:50Z</time>
      </trkpt>
      <trkpt lat="40.673389993607998" lon="-2.590331034734845">
        <ele>802.01800000000003</ele>
        <time>2026-04-25T11:20:52Z</time>
      </trkpt>
      <trkpt lat="40.673413965851068" lon="-2.590334974229336">
        <ele>801.86400000000003</ele>
        <time>2026-04-25T11:20:54Z</time>
      </trkpt>
      <trkpt lat="40.673441039398313" lon="-2.590340003371239">
        <ele>801.86599999999999</ele>
        <time>2026-04-25T11:20:56Z</time>
      </trkpt>
      <trkpt lat="40.673464005813003" lon="-2.590354001149535">
        <ele>801.88499999999999</ele>
        <time>2026-04-25T11:20:58Z</time>
      </trkpt>
      <trkpt lat="40.673484038561583" lon="-2.590376967564225">
        <ele>801.86599999999999</ele>
        <time>2026-04-25T11:21:00Z</time>
      </trkpt>
      <trkpt lat="40.673504993319511" lon="-2.590393982827663">
        <ele>801.41099999999994</ele>
        <time>2026-04-25T11:21:02Z</time>
      </trkpt>
      <trkpt lat="40.67352200858295" lon="-2.590409992262721">
        <ele>801.29499999999996</ele>
        <time>2026-04-25T11:21:04Z</time>
      </trkpt>
      <trkpt lat="40.673541035503149" lon="-2.590431030839682">
        <ele>800.84900000000005</ele>
        <time>2026-04-25T11:21:07Z</time>
      </trkpt>
      <trkpt lat="40.673550004139543" lon="-2.590452991425991">
        <ele>800.22299999999996</ele>
        <time>2026-04-25T11:21:16Z</time>
      </trkpt>
      <trkpt lat="40.673564001917839" lon="-2.590472018346191">
        <ele>800.40899999999999</ele>
        <time>2026-04-25T11:21:20Z</time>
      </trkpt>
      <trkpt lat="40.673582023009658" lon="-2.590448968112469">
        <ele>799.84100000000001</ele>
        <time>2026-04-25T11:21:25Z</time>
      </trkpt>
      <trkpt lat="40.673601971939206" lon="-2.590429019182921">
        <ele>800.23500000000001</ele>
        <time>2026-04-25T11:21:28Z</time>
      </trkpt>
      <trkpt lat="40.673624016344547" lon="-2.59040798060596">
        <ele>800.05999999999995</ele>
        <time>2026-04-25T11:21:30Z</time>
      </trkpt>
      <trkpt lat="40.673642037436366" lon="-2.59038501419127">
        <ele>800.41999999999996</ele>
        <time>2026-04-25T11:21:32Z</time>
      </trkpt>
      <trkpt lat="40.673663998022676" lon="-2.590366993099451">
        <ele>800.62599999999998</ele>
        <time>2026-04-25T11:21:34Z</time>
      </trkpt>
      <trkpt lat="40.673692999407649" lon="-2.590354001149535">
        <ele>801.298</ele>
        <time>2026-04-25T11:21:36Z</time>
      </trkpt>
      <trkpt lat="40.673720994964242" lon="-2.590348972007632">
        <ele>801.43700000000001</ele>
        <time>2026-04-25T11:21:38Z</time>
      </trkpt>
      <trkpt lat="40.673743961378932" lon="-2.590342015028">
        <ele>801.48800000000006</ele>
        <time>2026-04-25T11:21:40Z</time>
      </trkpt>
      <trkpt lat="40.673752008005977" lon="-2.590318964794278">
        <ele>801.44299999999998</ele>
        <time>2026-04-25T11:21:42Z</time>
      </trkpt>
      <trkpt lat="40.673757959157228" lon="-2.590277977287769">
        <ele>801.62199999999996</ele>
        <time>2026-04-25T11:21:44Z</time>
      </trkpt>
      <trkpt lat="40.673770029097795" lon="-2.590246964246035">
        <ele>801.86199999999997</ele>
        <time>2026-04-25T11:21:46Z</time>
      </trkpt>
      <trkpt lat="40.673778997734189" lon="-2.590212011709809">
        <ele>801.80799999999999</ele>
        <time>2026-04-25T11:21:48Z</time>
      </trkpt>
      <trkpt lat="40.673786960542202" lon="-2.590174963697791">
        <ele>802.00900000000001</ele>
        <time>2026-04-25T11:21:50Z</time>
      </trkpt>
      <trkpt lat="40.673795007169247" lon="-2.590135987848043">
        <ele>802.41399999999999</ele>
        <time>2026-04-25T11:21:52Z</time>
      </trkpt>
      <trkpt lat="40.67380296997726" lon="-2.590101035311818">
        <ele>802.428</ele>
        <time>2026-04-25T11:21:54Z</time>
      </trkpt>
      <trkpt lat="40.673816967755556" lon="-2.590069016441703">
        <ele>802.65300000000002</ele>
        <time>2026-04-25T11:21:56Z</time>
      </trkpt>
      <trkpt lat="40.673826020210981" lon="-2.590043032541871">
        <ele>802.84299999999996</ele>
        <time>2026-04-25T11:21:58Z</time>
      </trkpt>
      <trkpt lat="40.673827026039362" lon="-2.590011013671756">
        <ele>802.87900000000002</ele>
        <time>2026-04-25T11:22:00Z</time>
      </trkpt>
      <trkpt lat="40.673830965533853" lon="-2.589972037822008">
        <ele>803.02099999999996</ele>
        <time>2026-04-25T11:22:02Z</time>
      </trkpt>
      <trkpt lat="40.673832977190614" lon="-2.589947981759906">
        <ele>803.24000000000001</ele>
        <time>2026-04-25T11:22:03Z</time>
      </trkpt>
      <trkpt lat="40.673833983018994" lon="-2.589906994253397">
        <ele>803.61099999999999</ele>
        <time>2026-04-25T11:22:05Z</time>
      </trkpt>
      <trkpt lat="40.673833983018994" lon="-2.589868018403649">
        <ele>804.05600000000004</ele>
        <time>2026-04-25T11:22:07Z</time>
      </trkpt>
      <trkpt lat="40.673837000504136" lon="-2.589832982048392">
        <ele>804.42399999999998</ele>
        <time>2026-04-25T11:22:09Z</time>
      </trkpt>
      <trkpt lat="40.673840017989278" lon="-2.589800963178277">
        <ele>804.60400000000004</ele>
        <time>2026-04-25T11:22:11Z</time>
      </trkpt>
      <trkpt lat="40.673841023817658" lon="-2.589773973450065">
        <ele>805.21400000000006</ele>
        <time>2026-04-25T11:22:13Z</time>
      </trkpt>
      <trkpt lat="40.673842029646039" lon="-2.589742038398981">
        <ele>805.60900000000004</ele>
        <time>2026-04-25T11:22:15Z</time>
      </trkpt>
      <trkpt lat="40.67384697496891" lon="-2.589709013700485">
        <ele>805.81399999999996</ele>
        <time>2026-04-25T11:22:17Z</time>
      </trkpt>
      <trkpt lat="40.673848986625671" lon="-2.589673977345228">
        <ele>806.41800000000001</ele>
        <time>2026-04-25T11:22:19Z</time>
      </trkpt>
      <trkpt lat="40.673847980797291" lon="-2.589640030637384">
        <ele>806.65300000000002</ele>
        <time>2026-04-25T11:22:21Z</time>
      </trkpt>
      <trkpt lat="40.67384697496891" lon="-2.589604994282126">
        <ele>806.85299999999995</ele>
        <time>2026-04-25T11:22:23Z</time>
      </trkpt>
      <trkpt lat="40.673847980797291" lon="-2.589570041745901">
        <ele>807.21900000000005</ele>
        <time>2026-04-25T11:22:25Z</time>
      </trkpt>
      <trkpt lat="40.673853009939194" lon="-2.589533999562264">
        <ele>807.65099999999995</ele>
        <time>2026-04-25T11:22:27Z</time>
      </trkpt>
      <trkpt lat="40.673855021595955" lon="-2.589508015662432">
        <ele>807.66999999999996</ele>
        <time>2026-04-25T11:22:28Z</time>
      </trkpt>
      <trkpt lat="40.673854015767574" lon="-2.589478008449078">
        <ele>808.09100000000001</ele>
        <time>2026-04-25T11:22:29Z</time>
      </trkpt>
      <trkpt lat="40.673849992454052" lon="-2.589444983750582">
        <ele>808.25599999999997</ele>
        <time>2026-04-25T11:22:30Z</time>
      </trkpt>
      <trkpt lat="40.673849992454052" lon="-2.589411037042737">
        <ele>808.48199999999997</ele>
        <time>2026-04-25T11:22:31Z</time>
      </trkpt>
      <trkpt lat="40.673852004110813" lon="-2.589374994859099">
        <ele>808.64300000000003</ele>
        <time>2026-04-25T11:22:32Z</time>
      </trkpt>
      <trkpt lat="40.673855021595955" lon="-2.589339036494494">
        <ele>808.81700000000001</ele>
        <time>2026-04-25T11:22:33Z</time>
      </trkpt>
      <trkpt lat="40.673859966918826" lon="-2.589302994310856">
        <ele>808.80899999999997</ele>
        <time>2026-04-25T11:22:34Z</time>
      </trkpt>
      <trkpt lat="40.67386600188911" lon="-2.589270975440741">
        <ele>808.80999999999995</ele>
        <time>2026-04-25T11:22:35Z</time>
      </trkpt>
      <trkpt lat="40.673869019374251" lon="-2.589240968227387">
        <ele>808.83399999999995</ele>
        <time>2026-04-25T11:22:36Z</time>
      </trkpt>
      <trkpt lat="40.67386700771749" lon="-2.589196963235736">
        <ele>808.48900000000003</ele>
        <time>2026-04-25T11:22:38Z</time>
      </trkpt>
      <trkpt lat="40.673863990232348" lon="-2.589168967679143">
        <ele>808.29899999999998</ele>
        <time>2026-04-25T11:22:39Z</time>
      </trkpt>
      <trkpt lat="40.673862984403968" lon="-2.589135020971298">
        <ele>808.27499999999998</ele>
        <time>2026-04-25T11:22:40Z</time>
      </trkpt>
      <trkpt lat="40.673864996060729" lon="-2.589101996272802">
        <ele>807.85699999999997</ele>
        <time>2026-04-25T11:22:41Z</time>
      </trkpt>
      <trkpt lat="40.673868013545871" lon="-2.589070983231068">
        <ele>807.65599999999995</ele>
        <time>2026-04-25T11:22:42Z</time>
      </trkpt>
      <trkpt lat="40.673884022980928" lon="-2.589056985452771">
        <ele>807.49699999999996</ele>
        <time>2026-04-25T11:22:43Z</time>
      </trkpt>
      <trkpt lat="40.673902966082096" lon="-2.589061008766294">
        <ele>807.05200000000002</ele>
        <time>2026-04-25T11:22:44Z</time>
      </trkpt>
      <trkpt lat="40.673924004659057" lon="-2.58907500654459">
        <ele>806.67700000000002</ele>
        <time>2026-04-25T11:22:45Z</time>
      </trkpt>
      <trkpt lat="40.673945965245366" lon="-2.589094033464789">
        <ele>806.26099999999997</ele>
        <time>2026-04-25T11:22:46Z</time>
      </trkpt>
      <trkpt lat="40.673965997993946" lon="-2.589116999879479">
        <ele>805.827</ele>
        <time>2026-04-25T11:22:47Z</time>
      </trkpt>
      <trkpt lat="40.673983013257384" lon="-2.589141977950931">
        <ele>805.40899999999999</ele>
        <time>2026-04-25T11:22:48Z</time>
      </trkpt>
      <trkpt lat="40.674006985500455" lon="-2.589177014306188">
        <ele>804.86900000000003</ele>
        <time>2026-04-25T11:22:49Z</time>
      </trkpt>
      <trkpt lat="40.674027018249035" lon="-2.589207021519542">
        <ele>804.45299999999997</ele>
        <time>2026-04-25T11:22:50Z</time>
      </trkpt>
      <trkpt lat="40.674048978835344" lon="-2.589236022904515">
        <ele>803.88800000000003</ele>
        <time>2026-04-25T11:22:51Z</time>
      </trkpt>
      <trkpt lat="40.674070017412305" lon="-2.58926703594625">
        <ele>803.28800000000001</ele>
        <time>2026-04-25T11:22:52Z</time>
      </trkpt>
      <trkpt lat="40.674086026847363" lon="-2.589295031502843">
        <ele>802.86400000000003</ele>
        <time>2026-04-25T11:22:53Z</time>
      </trkpt>
      <trkpt lat="40.674099018797278" lon="-2.589322021231055">
        <ele>802.21600000000001</ele>
        <time>2026-04-25T11:22:54Z</time>
      </trkpt>
      <trkpt lat="40.674107987433672" lon="-2.589346999302506">
        <ele>802.02499999999998</ele>
        <time>2026-04-25T11:22:55Z</time>
      </trkpt>
      <trkpt lat="40.674117039889097" lon="-2.589373989030719">
        <ele>801.83600000000001</ele>
        <time>2026-04-25T11:22:56Z</time>
      </trkpt>
      <trkpt lat="40.674127014353871" lon="-2.589401984587312">
        <ele>801.42100000000005</ele>
        <time>2026-04-25T11:22:57Z</time>
      </trkpt>
      <trkpt lat="40.674142017960548" lon="-2.589434003457427">
        <ele>801.23400000000004</ele>
        <time>2026-04-25T11:22:58Z</time>
      </trkpt>
      <trkpt lat="40.674157021567225" lon="-2.589464010670781">
        <ele>801.255</ele>
        <time>2026-04-25T11:22:59Z</time>
      </trkpt>
      <trkpt lat="40.674169007688761" lon="-2.589494017884135">
        <ele>801.00999999999999</ele>
        <time>2026-04-25T11:23:00Z</time>
      </trkpt>
      <trkpt lat="40.674179987981915" lon="-2.589521007612348">
        <ele>800.80899999999997</ele>
        <time>2026-04-25T11:23:01Z</time>
      </trkpt>
      <trkpt lat="40.674193985760212" lon="-2.589546991512179">
        <ele>800.42499999999995</ele>
        <time>2026-04-25T11:23:02Z</time>
      </trkpt>
      <trkpt lat="40.674204966053367" lon="-2.589572975412011">
        <ele>800.03899999999999</ele>
        <time>2026-04-25T11:23:03Z</time>
      </trkpt>
      <trkpt lat="40.674212006852031" lon="-2.589602982625365">
        <ele>799.67399999999998</ele>
        <time>2026-04-25T11:23:04Z</time>
      </trkpt>
      <trkpt lat="40.674219969660044" lon="-2.5896339956671">
        <ele>799.28399999999999</ele>
        <time>2026-04-25T11:23:05Z</time>
      </trkpt>
      <trkpt lat="40.674226004630327" lon="-2.589667020365596">
        <ele>798.83000000000004</ele>
        <time>2026-04-25T11:23:06Z</time>
      </trkpt>
      <trkpt lat="40.67423002794385" lon="-2.58969996124506">
        <ele>798.49199999999996</ele>
        <time>2026-04-25T11:23:07Z</time>
      </trkpt>
      <trkpt lat="40.674228016287088" lon="-2.589730974286795">
        <ele>797.86099999999999</ele>
        <time>2026-04-25T11:23:08Z</time>
      </trkpt>
      <trkpt lat="40.674224998801947" lon="-2.589761987328529">
        <ele>797.41200000000003</ele>
        <time>2026-04-25T11:23:09Z</time>
      </trkpt>
      <trkpt lat="40.674226004630327" lon="-2.589793000370264">
        <ele>796.827</ele>
        <time>2026-04-25T11:23:10Z</time>
      </trkpt>
      <trkpt lat="40.674224998801947" lon="-2.58982602506876">
        <ele>796.44100000000003</ele>
        <time>2026-04-25T11:23:11Z</time>
      </trkpt>
      <trkpt lat="40.674224998801947" lon="-2.589854020625353">
        <ele>796.28099999999995</ele>
        <time>2026-04-25T11:23:12Z</time>
      </trkpt>
      <trkpt lat="40.674223992973566" lon="-2.589881010353565">
        <ele>795.40899999999999</ele>
        <time>2026-04-25T11:23:13Z</time>
      </trkpt>
      <trkpt lat="40.674223992973566" lon="-2.589911017566919">
        <ele>795.00900000000001</ele>
        <time>2026-04-25T11:23:14Z</time>
      </trkpt>
      <trkpt lat="40.674216030165553" lon="-2.589935995638371">
        <ele>794.61599999999999</ele>
        <time>2026-04-25T11:23:15Z</time>
      </trkpt>
      <trkpt lat="40.674214018508792" lon="-2.589963991194964">
        <ele>794.08000000000004</ele>
        <time>2026-04-25T11:23:16Z</time>
      </trkpt>
      <trkpt lat="40.67421100102365" lon="-2.589990980923176">
        <ele>793.48500000000001</ele>
        <time>2026-04-25T11:23:17Z</time>
      </trkpt>
      <trkpt lat="40.674207983538508" lon="-2.590016964823008">
        <ele>792.84500000000003</ele>
        <time>2026-04-25T11:23:18Z</time>
      </trkpt>
      <trkpt lat="40.674206977710128" lon="-2.590058036148548">
        <ele>791.41099999999994</ele>
        <time>2026-04-25T11:23:20Z</time>
      </trkpt>
      <trkpt lat="40.674205971881747" lon="-2.590095000341535">
        <ele>790.02300000000002</ele>
        <time>2026-04-25T11:23:22Z</time>
      </trkpt>
      <trkpt lat="40.674203960224986" lon="-2.590130036696792">
        <ele>788.88199999999995</ele>
        <time>2026-04-25T11:23:24Z</time>
      </trkpt>
      <trkpt lat="40.674204966053367" lon="-2.590168006718159">
        <ele>787.83299999999997</ele>
        <time>2026-04-25T11:23:26Z</time>
      </trkpt>
      <trkpt lat="40.67421100102365" lon="-2.590198013931513">
        <ele>786.61800000000005</ele>
        <time>2026-04-25T11:23:28Z</time>
      </trkpt>
      <trkpt lat="40.674218963831663" lon="-2.590228021144867">
        <ele>785.87900000000002</ele>
        <time>2026-04-25T11:23:30Z</time>
      </trkpt>
      <trkpt lat="40.674226004630327" lon="-2.590263979509473">
        <ele>784.80499999999995</ele>
        <time>2026-04-25T11:23:32Z</time>
      </trkpt>
      <trkpt lat="40.674234973266721" lon="-2.590297004207969">
        <ele>784.02499999999998</ele>
        <time>2026-04-25T11:23:34Z</time>
      </trkpt>
      <trkpt lat="40.674246959388256" lon="-2.590326005592942">
        <ele>783.00900000000001</ele>
        <time>2026-04-25T11:23:36Z</time>
      </trkpt>
      <trkpt lat="40.67425299435854" lon="-2.590348972007632">
        <ele>782.29899999999998</ele>
        <time>2026-04-25T11:23:38Z</time>
      </trkpt>
      <trkpt lat="40.674256011843681" lon="-2.590376967564225">
        <ele>781.66300000000001</ele>
        <time>2026-04-25T11:23:40Z</time>
      </trkpt>
      <trkpt lat="40.674262968823314" lon="-2.590412003919482">
        <ele>781.03800000000001</ele>
        <time>2026-04-25T11:23:42Z</time>
      </trkpt>
      <trkpt lat="40.674272021278739" lon="-2.590448968112469">
        <ele>780.43799999999999</ele>
        <time>2026-04-25T11:23:44Z</time>
      </trkpt>
      <trkpt lat="40.674281995743513" lon="-2.590486016124487">
        <ele>779.82399999999996</ele>
        <time>2026-04-25T11:23:46Z</time>
      </trkpt>
      <trkpt lat="40.674288030713797" lon="-2.590516023337841">
        <ele>779.24599999999998</ele>
        <time>2026-04-25T11:23:48Z</time>
      </trkpt>
      <trkpt lat="40.674300016835332" lon="-2.590535972267389">
        <ele>778.85500000000002</ele>
        <time>2026-04-25T11:23:50Z</time>
      </trkpt>
      <trkpt lat="40.67431602627039" lon="-2.590548964217305">
        <ele>778.25599999999997</ele>
        <time>2026-04-25T11:23:53Z</time>
      </trkpt>
      <trkpt lat="40.674328012391925" lon="-2.590565979480743">
        <ele>777.66099999999994</ele>
        <time>2026-04-25T11:23:57Z</time>
      </trkpt>
      <trkpt lat="40.674346033483744" lon="-2.590596992522478">
        <ele>777.23299999999995</ele>
        <time>2026-04-25T11:23:59Z</time>
      </trkpt>
      <trkpt lat="40.674350978806615" lon="-2.590638985857368">
        <ele>777.62300000000005</ele>
        <time>2026-04-25T11:24:02Z</time>
      </trkpt>
      <trkpt lat="40.674352990463376" lon="-2.590662958100438">
        <ele>777.81500000000005</ele>
        <time>2026-04-25T11:24:04Z</time>
      </trkpt>
      <trkpt lat="40.67436195909977" lon="-2.590697994455695">
        <ele>777.80899999999997</ele>
        <time>2026-04-25T11:24:06Z</time>
      </trkpt>
      <trkpt lat="40.674374029040337" lon="-2.590741999447346">
        <ele>778.05499999999995</ele>
        <time>2026-04-25T11:24:08Z</time>
      </trkpt>
      <trkpt lat="40.674387020990252" lon="-2.590779969468713">
        <ele>778.24900000000002</ele>
        <time>2026-04-25T11:24:10Z</time>
      </trkpt>
      <trkpt lat="40.67440596409142" lon="-2.590810982510448">
        <ele>778.42399999999998</ele>
        <time>2026-04-25T11:24:12Z</time>
      </trkpt>
      <trkpt lat="40.674422979354858" lon="-2.59083897806704">
        <ele>778.69399999999996</ele>
        <time>2026-04-25T11:24:14Z</time>
      </trkpt>
      <trkpt lat="40.674434965476394" lon="-2.590870996937156">
        <ele>778.64999999999998</ele>
        <time>2026-04-25T11:24:16Z</time>
      </trkpt>
      <trkpt lat="40.674453992396593" lon="-2.59090200997889">
        <ele>779.04200000000003</ele>
        <time>2026-04-25T11:24:18Z</time>
      </trkpt>
      <trkpt lat="40.674476036801934" lon="-2.590933023020625">
        <ele>779.21100000000001</ele>
        <time>2026-04-25T11:24:20Z</time>
      </trkpt>
      <trkpt lat="40.674497997388244" lon="-2.590965963900089">
        <ele>779.24199999999996</ele>
        <time>2026-04-25T11:24:22Z</time>
      </trkpt>
      <trkpt lat="40.674518030136824" lon="-2.590995971113443">
        <ele>779.43700000000001</ele>
        <time>2026-04-25T11:24:24Z</time>
      </trkpt>
      <trkpt lat="40.67453496158123" lon="-2.591032013297081">
        <ele>779.48299999999995</ele>
        <time>2026-04-25T11:24:26Z</time>
      </trkpt>
      <trkpt lat="40.674552982673049" lon="-2.591064032167196">
        <ele>780.02499999999998</ele>
        <time>2026-04-25T11:24:28Z</time>
      </trkpt>
      <trkpt lat="40.674571003764868" lon="-2.591094961389899">
        <ele>780.41700000000003</ele>
        <time>2026-04-25T11:24:30Z</time>
      </trkpt>
      <trkpt lat="40.674586007371545" lon="-2.591125974431634">
        <ele>781.00900000000001</ele>
        <time>2026-04-25T11:24:32Z</time>
      </trkpt>
      <trkpt lat="40.674602016806602" lon="-2.591154975816608">
        <ele>781.41999999999996</ele>
        <time>2026-04-25T11:24:34Z</time>
      </trkpt>
      <trkpt lat="40.674620037898421" lon="-2.591178026050329">
        <ele>781.43399999999997</ele>
        <time>2026-04-25T11:24:36Z</time>
      </trkpt>
      <trkpt lat="40.674636969342828" lon="-2.591198980808258">
        <ele>782.05899999999997</ele>
        <time>2026-04-25T11:24:38Z</time>
      </trkpt>
      <trkpt lat="40.674649039283395" lon="-2.59122203104198">
        <ele>782.63900000000001</ele>
        <time>2026-04-25T11:24:40Z</time>
      </trkpt>
      <trkpt lat="40.674658007919788" lon="-2.59124499745667">
        <ele>783.06500000000005</ele>
        <time>2026-04-25T11:24:42Z</time>
      </trkpt>
      <trkpt lat="40.674669994041324" lon="-2.591275004670024">
        <ele>783.63699999999994</ele>
        <time>2026-04-25T11:24:44Z</time>
      </trkpt>
      <trkpt lat="40.674673011526465" lon="-2.591297971084714">
        <ele>784.25599999999997</ele>
        <time>2026-04-25T11:24:46Z</time>
      </trkpt>
      <trkpt lat="40.674678040668368" lon="-2.591328984126449">
        <ele>784.63699999999994</ele>
        <time>2026-04-25T11:24:48Z</time>
      </trkpt>
      <trkpt lat="40.674677034839988" lon="-2.591355973854661">
        <ele>785.452</ele>
        <time>2026-04-25T11:24:50Z</time>
      </trkpt>
      <trkpt lat="40.674673011526465" lon="-2.591379024088383">
        <ele>785.82399999999996</ele>
        <time>2026-04-25T11:24:52Z</time>
      </trkpt>
      <trkpt lat="40.674668988212943" lon="-2.591408025473356">
        <ele>786.20399999999995</ele>
        <time>2026-04-25T11:24:54Z</time>
      </trkpt>
      <trkpt lat="40.674670999869704" lon="-2.591434009373188">
        <ele>786.41399999999999</ele>
        <time>2026-04-25T11:24:56Z</time>
      </trkpt>
      <trkpt lat="40.674672005698085" lon="-2.591467034071684">
        <ele>787.40899999999999</ele>
        <time>2026-04-25T11:24:59Z</time>
      </trkpt>
      <trkpt lat="40.674676029011607" lon="-2.591505004093051">
        <ele>788.274</ele>
        <time>2026-04-25T11:25:01Z</time>
      </trkpt>
      <trkpt lat="40.674678040668368" lon="-2.591541968286037">
        <ele>788.89800000000002</ele>
        <time>2026-04-25T11:25:03Z</time>
      </trkpt>
      <trkpt lat="40.674686003476381" lon="-2.591574992984533">
        <ele>789.01300000000003</ele>
        <time>2026-04-25T11:25:05Z</time>
      </trkpt>
      <trkpt lat="40.674696983769536" lon="-2.591608017683029">
        <ele>789.62300000000005</ele>
        <time>2026-04-25T11:25:07Z</time>
      </trkpt>
      <trkpt lat="40.674707964062691" lon="-2.591639030724764">
        <ele>790.06899999999996</ele>
        <time>2026-04-25T11:25:09Z</time>
      </trkpt>
      <trkpt lat="40.674719028174877" lon="-2.591669037938118">
        <ele>790.66099999999994</ele>
        <time>2026-04-25T11:25:11Z</time>
      </trkpt>
      <trkpt lat="40.674729002639651" lon="-2.591697033494711">
        <ele>791.03999999999996</ele>
        <time>2026-04-25T11:25:13Z</time>
      </trkpt>
      <trkpt lat="40.674744006246328" lon="-2.591728968545795">
        <ele>791.45100000000002</ele>
        <time>2026-04-25T11:25:15Z</time>
      </trkpt>
      <trkpt lat="40.674760015681386" lon="-2.591758975759149">
        <ele>792.01599999999996</ele>
        <time>2026-04-25T11:25:17Z</time>
      </trkpt>
      <trkpt lat="40.674782982096076" lon="-2.591785965487361">
        <ele>792.02599999999995</ele>
        <time>2026-04-25T11:25:19Z</time>
      </trkpt>
      <trkpt lat="40.674810977652669" lon="-2.591814966872335">
        <ele>792.447</ele>
        <time>2026-04-25T11:25:21Z</time>
      </trkpt>
      <trkpt lat="40.674836039543152" lon="-2.591841034591198">
        <ele>792.61099999999999</ele>
        <time>2026-04-25T11:25:23Z</time>
      </trkpt>
      <trkpt lat="40.674862023442984" lon="-2.591865006834269">
        <ele>792.40899999999999</ele>
        <time>2026-04-25T11:25:25Z</time>
      </trkpt>
      <trkpt lat="40.674884989857674" lon="-2.591888979077339">
        <ele>792.63400000000001</ele>
        <time>2026-04-25T11:25:27Z</time>
      </trkpt>
      <trkpt lat="40.674908962100744" lon="-2.591904988512397">
        <ele>793.01800000000003</ele>
        <time>2026-04-25T11:25:29Z</time>
      </trkpt>
      <trkpt lat="40.674930000677705" lon="-2.591927032917738">
        <ele>793.26300000000003</ele>
        <time>2026-04-25T11:25:31Z</time>
      </trkpt>
      <trkpt lat="40.674949027597904" lon="-2.591949999332428">
        <ele>793.44299999999998</ele>
        <time>2026-04-25T11:25:33Z</time>
      </trkpt>
      <trkpt lat="40.674963025376201" lon="-2.591973971575499">
        <ele>793.85900000000004</ele>
        <time>2026-04-25T11:25:35Z</time>
      </trkpt>
      <trkpt lat="40.674976017326117" lon="-2.592004984617233">
        <ele>793.84100000000001</ele>
        <time>2026-04-25T11:25:37Z</time>
      </trkpt>
      <trkpt lat="40.674994960427284" lon="-2.592031974345446">
        <ele>793.88999999999999</ele>
        <time>2026-04-25T11:25:39Z</time>
      </trkpt>
      <trkpt lat="40.675009964033961" lon="-2.592055024579167">
        <ele>794.01099999999997</ele>
        <time>2026-04-25T11:25:41Z</time>
      </trkpt>
      <trkpt lat="40.675023961812258" lon="-2.592073967680335">
        <ele>794.04600000000005</ele>
        <time>2026-04-25T11:25:43Z</time>
      </trkpt>
      <trkpt lat="40.675049023702741" lon="-2.592096012085676">
        <ele>794.26499999999999</ele>
        <time>2026-04-25T11:25:45Z</time>
      </trkpt>
      <trkpt lat="40.675076013430953" lon="-2.592114033177495">
        <ele>794.46799999999996</ele>
        <time>2026-04-25T11:25:47Z</time>
      </trkpt>
      <trkpt lat="40.675099985674024" lon="-2.592132976278663">
        <ele>794.41399999999999</ele>
        <time>2026-04-25T11:25:49Z</time>
      </trkpt>
      <trkpt lat="40.675124041736126" lon="-2.592153009027243">
        <ele>794.40899999999999</ele>
        <time>2026-04-25T11:25:51Z</time>
      </trkpt>
      <trkpt lat="40.675151031464338" lon="-2.592164995148778">
        <ele>794.66800000000001</ele>
        <time>2026-04-25T11:25:53Z</time>
      </trkpt>
      <trkpt lat="40.675173997879028" lon="-2.592178992927074">
        <ele>794.65200000000004</ele>
        <time>2026-04-25T11:25:55Z</time>
      </trkpt>
      <trkpt lat="40.675194030627608" lon="-2.592198019847274">
        <ele>795.08699999999999</ele>
        <time>2026-04-25T11:25:57Z</time>
      </trkpt>
      <trkpt lat="40.675219008699059" lon="-2.592217968776822">
        <ele>795.24699999999996</ele>
        <time>2026-04-25T11:25:59Z</time>
      </trkpt>
      <trkpt lat="40.675245998427272" lon="-2.592229032889009">
        <ele>795.43299999999999</ele>
        <time>2026-04-25T11:26:01Z</time>
      </trkpt>
      <trkpt lat="40.675270976498723" lon="-2.592226015403867">
        <ele>795.41499999999996</ele>
        <time>2026-04-25T11:26:03Z</time>
      </trkpt>
      <trkpt lat="40.675296038389206" lon="-2.592229032889009">
        <ele>795.66399999999999</ele>
        <time>2026-04-25T11:26:05Z</time>
      </trkpt>
      <trkpt lat="40.675313975661993" lon="-2.592239007353783">
        <ele>795.85500000000002</ele>
        <time>2026-04-25T11:26:07Z</time>
      </trkpt>
      <trkpt lat="40.675327973440289" lon="-2.592262979596853">
        <ele>796.03999999999996</ele>
        <time>2026-04-25T11:26:09Z</time>
      </trkpt>
      <trkpt lat="40.675339959561825" lon="-2.592291980981827">
        <ele>796.01599999999996</ele>
        <time>2026-04-25T11:26:11Z</time>
      </trkpt>
      <trkpt lat="40.675359992310405" lon="-2.592292986810207">
        <ele>796.053</ele>
        <time>2026-04-25T11:26:20Z</time>
      </trkpt>
      <trkpt lat="40.675374995917082" lon="-2.592270020395517">
        <ele>795.88699999999994</ele>
        <time>2026-04-25T11:26:22Z</time>
      </trkpt>
      <trkpt lat="40.675394022837281" lon="-2.59225401096046">
        <ele>795.86199999999997</ele>
        <time>2026-04-25T11:26:24Z</time>
      </trkpt>
      <trkpt lat="40.675412965938449" lon="-2.59223397821188">
        <ele>796.072</ele>
        <time>2026-04-25T11:26:26Z</time>
      </trkpt>
      <trkpt lat="40.67543501034379" lon="-2.592213023453951">
        <ele>796.01800000000003</ele>
        <time>2026-04-25T11:26:28Z</time>
      </trkpt>
      <trkpt lat="40.675455965101719" lon="-2.592187039554119">
        <ele>796.07000000000005</ele>
        <time>2026-04-25T11:26:30Z</time>
      </trkpt>
      <trkpt lat="40.67547800950706" lon="-2.592163989320397">
        <ele>796.25900000000001</ele>
        <time>2026-04-25T11:26:32Z</time>
      </trkpt>
      <trkpt lat="40.675501981750131" lon="-2.592127025127411">
        <ele>796.25999999999999</ele>
        <time>2026-04-25T11:26:34Z</time>
      </trkpt>
      <trkpt lat="40.675513967871666" lon="-2.59210598655045">
        <ele>796.27499999999998</ele>
        <time>2026-04-25T11:26:35Z</time>
      </trkpt>
      <trkpt lat="40.675527965649962" lon="-2.592072961851955">
        <ele>796.23699999999997</ele>
        <time>2026-04-25T11:26:36Z</time>
      </trkpt>
      <trkpt lat="40.675539029762149" lon="-2.592044966295362">
        <ele>796.24900000000002</ele>
        <time>2026-04-25T11:26:37Z</time>
      </trkpt>
      <trkpt lat="40.675544980913401" lon="-2.592021999880672">
        <ele>796.21299999999997</ele>
        <time>2026-04-25T11:26:38Z</time>
      </trkpt>
      <trkpt lat="40.675556967034936" lon="-2.591985035687685">
        <ele>795.60900000000004</ele>
        <time>2026-04-25T11:26:40Z</time>
      </trkpt>
      <trkpt lat="40.675560990348458" lon="-2.591959973797202">
        <ele>795.28499999999997</ele>
        <time>2026-04-25T11:26:41Z</time>
      </trkpt>
      <trkpt lat="40.675567025318742" lon="-2.591930972412229">
        <ele>795.01900000000001</ele>
        <time>2026-04-25T11:26:42Z</time>
      </trkpt>
      <trkpt lat="40.675570964813232" lon="-2.591895014047623">
        <ele>794.61400000000003</ele>
        <time>2026-04-25T11:26:43Z</time>
      </trkpt>
      <trkpt lat="40.675570964813232" lon="-2.591858971863985">
        <ele>794.26400000000001</ele>
        <time>2026-04-25T11:26:44Z</time>
      </trkpt>
      <trkpt lat="40.675567025318742" lon="-2.591822007670999">
        <ele>794.02999999999997</ele>
        <time>2026-04-25T11:26:45Z</time>
      </trkpt>
      <trkpt lat="40.675560990348458" lon="-2.591787977144122">
        <ele>793.86199999999997</ele>
        <time>2026-04-25T11:26:46Z</time>
      </trkpt>
      <trkpt lat="40.675555961206555" lon="-2.591752018779516">
        <ele>793.43100000000004</ele>
        <time>2026-04-25T11:26:47Z</time>
      </trkpt>
      <trkpt lat="40.675553027540445" lon="-2.59171798825264">
        <ele>792.86199999999997</ele>
        <time>2026-04-25T11:26:48Z</time>
      </trkpt>
      <trkpt lat="40.675550010055304" lon="-2.591683035716415">
        <ele>792.61699999999996</ele>
        <time>2026-04-25T11:26:49Z</time>
      </trkpt>
      <trkpt lat="40.675547998398542" lon="-2.591651016846299">
        <ele>792.26400000000001</ele>
        <time>2026-04-25T11:26:50Z</time>
      </trkpt>
      <trkpt lat="40.675545986741781" lon="-2.591615980491042">
        <ele>792.00599999999997</ele>
        <time>2026-04-25T11:26:51Z</time>
      </trkpt>
      <trkpt lat="40.675546992570162" lon="-2.591585973277688">
        <ele>791.81600000000003</ele>
        <time>2026-04-25T11:26:52Z</time>
      </trkpt>
      <trkpt lat="40.675550010055304" lon="-2.59154599159956">
        <ele>791.20899999999995</ele>
        <time>2026-04-25T11:26:54Z</time>
      </trkpt>
      <trkpt lat="40.675555961206555" lon="-2.591508021578193">
        <ele>790.87800000000004</ele>
        <time>2026-04-25T11:26:56Z</time>
      </trkpt>
      <trkpt lat="40.675560990348458" lon="-2.591469967737794">
        <ele>790.69200000000001</ele>
        <time>2026-04-25T11:26:58Z</time>
      </trkpt>
      <trkpt lat="40.675567025318742" lon="-2.591433003544807">
        <ele>790.41700000000003</ele>
        <time>2026-04-25T11:27:00Z</time>
      </trkpt>
      <trkpt lat="40.675569958984852" lon="-2.59139402769506">
        <ele>790.42700000000002</ele>
        <time>2026-04-25T11:27:02Z</time>
      </trkpt>
      <trkpt lat="40.675569958984852" lon="-2.59135496802628">
        <ele>790.423</ele>
        <time>2026-04-25T11:27:04Z</time>
      </trkpt>
      <trkpt lat="40.675569036975503" lon="-2.591318003833294">
        <ele>790.29499999999996</ele>
        <time>2026-04-25T11:27:06Z</time>
      </trkpt>
      <trkpt lat="40.675573982298374" lon="-2.591285984963179">
        <ele>790.08399999999995</ele>
        <time>2026-04-25T11:27:08Z</time>
      </trkpt>
      <trkpt lat="40.675574988126755" lon="-2.591251032426953">
        <ele>789.61500000000001</ele>
        <time>2026-04-25T11:27:10Z</time>
      </trkpt>
      <trkpt lat="40.675578005611897" lon="-2.591214990243316">
        <ele>789.48000000000002</ele>
        <time>2026-04-25T11:27:12Z</time>
      </trkpt>
      <trkpt lat="40.675578005611897" lon="-2.59118003770709">
        <ele>789.46199999999999</ele>
        <time>2026-04-25T11:27:14Z</time>
      </trkpt>
      <trkpt lat="40.675579011440277" lon="-2.591142989695072">
        <ele>789.48299999999995</ele>
        <time>2026-04-25T11:27:16Z</time>
      </trkpt>
      <trkpt lat="40.67558404058218" lon="-2.591108037158847">
        <ele>789.21100000000001</ele>
        <time>2026-04-25T11:27:18Z</time>
      </trkpt>
      <trkpt lat="40.675582028925419" lon="-2.591071994975209">
        <ele>788.80899999999997</ele>
        <time>2026-04-25T11:27:20Z</time>
      </trkpt>
      <trkpt lat="40.675610024482012" lon="-2.591064032167196">
        <ele>787.83799999999997</ele>
        <time>2026-04-25T11:28:13Z</time>
      </trkpt>
      <trkpt lat="40.675630979239941" lon="-2.591065960004926">
        <ele>786.65200000000004</ele>
        <time>2026-04-25T11:28:35Z</time>
      </trkpt>
      <trkpt lat="40.675652017816901" lon="-2.591070989146829">
        <ele>786.21699999999998</ele>
        <time>2026-04-25T11:28:38Z</time>
      </trkpt>
      <trkpt lat="40.675660986453295" lon="-2.591094961389899">
        <ele>785.45699999999999</ele>
        <time>2026-04-25T11:28:42Z</time>
      </trkpt>
      <trkpt lat="40.67567297257483" lon="-2.591126980260015">
        <ele>784.66300000000001</ele>
        <time>2026-04-25T11:28:45Z</time>
      </trkpt>
      <trkpt lat="40.675674984231591" lon="-2.591154975816608">
        <ele>783.61500000000001</ele>
        <time>2026-04-25T11:28:51Z</time>
      </trkpt>
      <trkpt lat="40.675674984231591" lon="-2.591193029657006">
        <ele>783.67399999999998</ele>
        <time>2026-04-25T11:28:54Z</time>
      </trkpt>
      <trkpt lat="40.675674984231591" lon="-2.591219013556838">
        <ele>783.46500000000003</ele>
        <time>2026-04-25T11:28:56Z</time>
      </trkpt>
      <trkpt lat="40.675684958696365" lon="-2.591252038255334">
        <ele>783.21000000000004</ele>
        <time>2026-04-25T11:28:58Z</time>
      </trkpt>
      <trkpt lat="40.675697028636932" lon="-2.59128900244832">
        <ele>783.08299999999997</ele>
        <time>2026-04-25T11:29:00Z</time>
      </trkpt>
      <trkpt lat="40.675704991444945" lon="-2.591324038803577">
        <ele>783.02499999999998</ele>
        <time>2026-04-25T11:29:02Z</time>
      </trkpt>
      <trkpt lat="40.675707003101707" lon="-2.591353040188551">
        <ele>782.81700000000001</ele>
        <time>2026-04-25T11:29:04Z</time>
      </trkpt>
      <trkpt lat="40.675713960081339" lon="-2.591390004381537">
        <ele>782.40899999999999</ele>
        <time>2026-04-25T11:29:06Z</time>
      </trkpt>
      <trkpt lat="40.675721000880003" lon="-2.591424034908414">
        <ele>782.21000000000004</ele>
        <time>2026-04-25T11:29:08Z</time>
      </trkpt>
      <trkpt lat="40.675718989223242" lon="-2.591462004929781">
        <ele>782.06399999999996</ele>
        <time>2026-04-25T11:29:10Z</time>
      </trkpt>
      <trkpt lat="40.675719995051622" lon="-2.591508021578193">
        <ele>781.87900000000002</ele>
        <time>2026-04-25T11:29:12Z</time>
      </trkpt>
      <trkpt lat="40.675724018365145" lon="-2.59154699742794">
        <ele>781.43899999999996</ele>
        <time>2026-04-25T11:29:14Z</time>
      </trkpt>
      <trkpt lat="40.675727035850286" lon="-2.591669959947467">
        <ele>780.48500000000001</ele>
        <time>2026-04-25T11:29:20Z</time>
      </trkpt>
      <trkpt lat="40.67573600448668" lon="-2.591692004352808">
        <ele>780.48699999999997</ele>
        <time>2026-04-25T11:29:21Z</time>
      </trkpt>
      <trkpt lat="40.675743967294693" lon="-2.591714970767498">
        <ele>780.42600000000004</ele>
        <time>2026-04-25T11:29:22Z</time>
      </trkpt>
      <trkpt lat="40.675753019750118" lon="-2.591736009344459">
        <ele>780.45699999999999</ele>
        <time>2026-04-25T11:29:23Z</time>
      </trkpt>
      <trkpt lat="40.675765005871654" lon="-2.591764004901052">
        <ele>780.41200000000003</ele>
        <time>2026-04-25T11:29:25Z</time>
      </trkpt>
      <trkpt lat="40.675773974508047" lon="-2.591792000457645">
        <ele>780.029</ele>
        <time>2026-04-25T11:29:27Z</time>
      </trkpt>
      <trkpt lat="40.675816973671317" lon="-2.591875987127423">
        <ele>780</ele>
        <time>2026-04-25T11:29:31Z</time>
      </trkpt>
      <trkpt lat="40.675833988934755" lon="-2.591899037361145">
        <ele>780.01999999999998</ele>
        <time>2026-04-25T11:29:32Z</time>
      </trkpt>
      <trkpt lat="40.675848992541432" lon="-2.591920997947455">
        <ele>779.80899999999997</ele>
        <time>2026-04-25T11:29:33Z</time>
      </trkpt>
      <trkpt lat="40.675863996148109" lon="-2.591943964362145">
        <ele>779.67399999999998</ele>
        <time>2026-04-25T11:29:34Z</time>
      </trkpt>
      <trkpt lat="40.675882017239928" lon="-2.591966008767486">
        <ele>779.65800000000002</ele>
        <time>2026-04-25T11:29:35Z</time>
      </trkpt>
      <trkpt lat="40.675896015018225" lon="-2.591986963525415">
        <ele>779.63300000000004</ele>
        <time>2026-04-25T11:29:36Z</time>
      </trkpt>
      <trkpt lat="40.675906995311379" lon="-2.592010013759136">
        <ele>779.41300000000001</ele>
        <time>2026-04-25T11:29:37Z</time>
      </trkpt>
      <trkpt lat="40.675943037495017" lon="-2.592044966295362">
        <ele>778.83900000000006</ele>
        <time>2026-04-25T11:29:39Z</time>
      </trkpt>
      <trkpt lat="40.675956029444933" lon="-2.592064999043942">
        <ele>778.66099999999994</ele>
        <time>2026-04-25T11:29:40Z</time>
      </trkpt>
      <trkpt lat="40.675972960889339" lon="-2.59208201430738">
        <ele>778.03999999999996</ele>
        <time>2026-04-25T11:29:41Z</time>
      </trkpt>
      <trkpt lat="40.676007997244596" lon="-2.592110009863973">
        <ele>777.66099999999994</ele>
        <time>2026-04-25T11:29:43Z</time>
      </trkpt>
      <trkpt lat="40.676029035821557" lon="-2.592144040390849">
        <ele>777.62599999999998</ele>
        <time>2026-04-25T11:29:45Z</time>
      </trkpt>
      <trkpt lat="40.676046973094344" lon="-2.592164995148778">
        <ele>777.64099999999996</ele>
        <time>2026-04-25T11:29:46Z</time>
      </trkpt>
      <trkpt lat="40.676064994186163" lon="-2.59219198487699">
        <ele>777.68100000000004</ele>
        <time>2026-04-25T11:29:47Z</time>
      </trkpt>
      <trkpt lat="40.676077986136079" lon="-2.592215035110712">
        <ele>777.60900000000004</ele>
        <time>2026-04-25T11:29:48Z</time>
      </trkpt>
      <trkpt lat="40.676095001399517" lon="-2.592236995697022">
        <ele>777.60900000000004</ele>
        <time>2026-04-25T11:29:49Z</time>
      </trkpt>
      <trkpt lat="40.676113022491336" lon="-2.592256022617221">
        <ele>777.45600000000002</ele>
        <time>2026-04-25T11:29:50Z</time>
      </trkpt>
      <trkpt lat="40.676125008612871" lon="-2.592275971546769">
        <ele>777.23000000000002</ele>
        <time>2026-04-25T11:29:51Z</time>
      </trkpt>
      <trkpt lat="40.676138000562787" lon="-2.592300027608872">
        <ele>777.03499999999997</ele>
        <time>2026-04-25T11:29:53Z</time>
      </trkpt>
      <trkpt lat="40.676163984462619" lon="-2.592329028993845">
        <ele>776.64499999999998</ele>
        <time>2026-04-25T11:29:55Z</time>
      </trkpt>
      <trkpt lat="40.676179993897676" lon="-2.592345960438252">
        <ele>776.68100000000004</ele>
        <time>2026-04-25T11:29:56Z</time>
      </trkpt>
      <trkpt lat="40.676211006939411" lon="-2.592365993186832">
        <ele>776.28300000000002</ele>
        <time>2026-04-25T11:29:58Z</time>
      </trkpt>
      <trkpt lat="40.67623196169734" lon="-2.592396000400186">
        <ele>775.99199999999996</ele>
        <time>2026-04-25T11:30:00Z</time>
      </trkpt>
      <trkpt lat="40.676248976960778" lon="-2.592430030927062">
        <ele>775.59299999999996</ele>
        <time>2026-04-25T11:30:02Z</time>
      </trkpt>
      <trkpt lat="40.6762720271945" lon="-2.592450985684991">
        <ele>775.22799999999995</ele>
        <time>2026-04-25T11:30:04Z</time>
      </trkpt>
      <trkpt lat="40.676295999437571" lon="-2.592459032312036">
        <ele>775.23599999999999</ele>
        <time>2026-04-25T11:30:06Z</time>
      </trkpt>
      <trkpt lat="40.676328018307686" lon="-2.592473030090332">
        <ele>774.41700000000003</ele>
        <time>2026-04-25T11:30:08Z</time>
      </trkpt>
      <trkpt lat="40.676349978893995" lon="-2.592483004555106">
        <ele>774.21799999999996</ele>
        <time>2026-04-25T11:30:09Z</time>
      </trkpt>
      <trkpt lat="40.676374034956098" lon="-2.592499013990164">
        <ele>773.60900000000004</ele>
        <time>2026-04-25T11:30:11Z</time>
      </trkpt>
      <trkpt lat="40.676395995542407" lon="-2.592515023425221">
        <ele>773.46500000000003</ele>
        <time>2026-04-25T11:30:13Z</time>
      </trkpt>
      <trkpt lat="40.676419967785478" lon="-2.59253597818315">
        <ele>773.21900000000005</ele>
        <time>2026-04-25T11:30:15Z</time>
      </trkpt>
      <trkpt lat="40.67644402384758" lon="-2.592546958476305">
        <ele>772.85400000000004</ele>
        <time>2026-04-25T11:30:16Z</time>
      </trkpt>
      <trkpt lat="40.676464978605509" lon="-2.592552993446589">
        <ele>772.68399999999997</ele>
        <time>2026-04-25T11:30:17Z</time>
      </trkpt>
      <trkpt lat="40.676550976932049" lon="-2.592571014538407">
        <ele>772.28999999999996</ele>
        <time>2026-04-25T11:30:21Z</time>
      </trkpt>
      <trkpt lat="40.676576038822532" lon="-2.59257797151804">
        <ele>771.88199999999995</ele>
        <time>2026-04-25T11:30:22Z</time>
      </trkpt>
      <trkpt lat="40.676605962216854" lon="-2.592581994831562">
        <ele>771.86099999999999</ele>
        <time>2026-04-25T11:30:23Z</time>
      </trkpt>
      <trkpt lat="40.676694978028536" lon="-2.592546958476305">
        <ele>771.23199999999997</ele>
        <time>2026-04-25T11:30:27Z</time>
      </trkpt>
      <trkpt lat="40.676757004112005" lon="-2.592503037303686">
        <ele>771.08699999999999</ele>
        <time>2026-04-25T11:30:33Z</time>
      </trkpt>
      <trkpt lat="40.676781982183456" lon="-2.592508988454938">
        <ele>771.27300000000002</ele>
        <time>2026-04-25T11:30:38Z</time>
      </trkpt>
      <trkpt lat="40.676806960254908" lon="-2.592532960698009">
        <ele>771.68499999999995</ele>
        <time>2026-04-25T11:30:41Z</time>
      </trkpt>
      <trkpt lat="40.676861023530364" lon="-2.592548970133066">
        <ele>771.81299999999999</ele>
        <time>2026-04-25T11:30:44Z</time>
      </trkpt>
      <trkpt lat="40.676888013258576" lon="-2.592561962082982">
        <ele>772.20899999999995</ele>
        <time>2026-04-25T11:30:46Z</time>
      </trkpt>
      <trkpt lat="40.676923971623182" lon="-2.592591969296336">
        <ele>772.48900000000003</ele>
        <time>2026-04-25T11:30:48Z</time>
      </trkpt>
      <trkpt lat="40.676940986886621" lon="-2.592613007873297">
        <ele>772.64300000000003</ele>
        <time>2026-04-25T11:30:49Z</time>
      </trkpt>
      <trkpt lat="40.676954984664917" lon="-2.592633962631226">
        <ele>772.65800000000002</ele>
        <time>2026-04-25T11:30:50Z</time>
      </trkpt>
      <trkpt lat="40.676964959129691" lon="-2.592662964016199">
        <ele>772.61800000000005</ele>
        <time>2026-04-25T11:30:52Z</time>
      </trkpt>
      <trkpt lat="40.676983986049891" lon="-2.592701017856598">
        <ele>772.69399999999996</ele>
        <time>2026-04-25T11:30:54Z</time>
      </trkpt>
      <trkpt lat="40.676996977999806" lon="-2.592721972614527">
        <ele>772.48599999999999</ele>
        <time>2026-04-25T11:30:55Z</time>
      </trkpt>
      <trkpt lat="40.677008964121342" lon="-2.592745022848249">
        <ele>772.28499999999997</ele>
        <time>2026-04-25T11:30:56Z</time>
      </trkpt>
      <trkpt lat="40.677019022405148" lon="-2.592767989262939">
        <ele>772.28599999999994</ele>
        <time>2026-04-25T11:30:57Z</time>
      </trkpt>
      <trkpt lat="40.677030002698302" lon="-2.592795984819531">
        <ele>772.221</ele>
        <time>2026-04-25T11:30:58Z</time>
      </trkpt>
      <trkpt lat="40.677041988819838" lon="-2.592823980376124">
        <ele>771.87900000000002</ele>
        <time>2026-04-25T11:30:59Z</time>
      </trkpt>
      <trkpt lat="40.677055986598134" lon="-2.592850970104337">
        <ele>771.80499999999995</ele>
        <time>2026-04-25T11:31:00Z</time>
      </trkpt>
      <trkpt lat="40.677071996033192" lon="-2.592875026166439">
        <ele>772.02499999999998</ele>
        <time>2026-04-25T11:31:01Z</time>
      </trkpt>
      <trkpt lat="40.67709001712501" lon="-2.592895980924368">
        <ele>771.80899999999997</ele>
        <time>2026-04-25T11:31:02Z</time>
      </trkpt>
      <trkpt lat="40.677107032388449" lon="-2.592920958995819">
        <ele>771.66899999999998</ele>
        <time>2026-04-25T11:31:03Z</time>
      </trkpt>
      <trkpt lat="40.677123963832855" lon="-2.59294300340116">
        <ele>771.22299999999996</ele>
        <time>2026-04-25T11:31:04Z</time>
      </trkpt>
      <trkpt lat="40.677145002409816" lon="-2.592966975644231">
        <ele>771.26800000000003</ele>
        <time>2026-04-25T11:31:05Z</time>
      </trkpt>
      <trkpt lat="40.677164029330015" lon="-2.592990025877953">
        <ele>771.07799999999997</ele>
        <time>2026-04-25T11:31:06Z</time>
      </trkpt>
      <trkpt lat="40.677180038765073" lon="-2.593010980635881">
        <ele>771.024</ele>
        <time>2026-04-25T11:31:07Z</time>
      </trkpt>
      <trkpt lat="40.677192024886608" lon="-2.593033025041223">
        <ele>770.88599999999997</ele>
        <time>2026-04-25T11:31:08Z</time>
      </trkpt>
      <trkpt lat="40.677213985472918" lon="-2.59305196814239">
        <ele>770.85500000000002</ele>
        <time>2026-04-25T11:31:10Z</time>
      </trkpt>
      <trkpt lat="40.677231000736356" lon="-2.593073006719351">
        <ele>770.66600000000005</ele>
        <time>2026-04-25T11:31:12Z</time>
      </trkpt>
      <trkpt lat="40.677253967151046" lon="-2.593110976740718">
        <ele>770.64099999999996</ele>
        <time>2026-04-25T11:31:14Z</time>
      </trkpt>
      <trkpt lat="40.677266959100962" lon="-2.59313402697444">
        <ele>770.45799999999997</ele>
        <time>2026-04-25T11:31:15Z</time>
      </trkpt>
      <trkpt lat="40.677277017384768" lon="-2.593153975903988">
        <ele>770.452</ele>
        <time>2026-04-25T11:31:16Z</time>
      </trkpt>
      <trkpt lat="40.677285986021161" lon="-2.59317803196609">
        <ele>770.21699999999998</ele>
        <time>2026-04-25T11:31:17Z</time>
      </trkpt>
      <trkpt lat="40.677295038476586" lon="-2.593205021694303">
        <ele>770.20899999999995</ele>
        <time>2026-04-25T11:31:18Z</time>
      </trkpt>
      <trkpt lat="40.677312975749373" lon="-2.593232011422515">
        <ele>769.85699999999997</ele>
        <time>2026-04-25T11:31:19Z</time>
      </trkpt>
      <trkpt lat="40.677329991012812" lon="-2.593256989493966">
        <ele>769.23099999999999</ele>
        <time>2026-04-25T11:31:20Z</time>
      </trkpt>
      <trkpt lat="40.67734801210463" lon="-2.593283979222179">
        <ele>769.06600000000003</ele>
        <time>2026-04-25T11:31:21Z</time>
      </trkpt>
      <trkpt lat="40.677363015711308" lon="-2.593310968950391">
        <ele>768.85599999999999</ele>
        <time>2026-04-25T11:31:22Z</time>
      </trkpt>
      <trkpt lat="40.677377013489604" lon="-2.593333013355732">
        <ele>768.63199999999995</ele>
        <time>2026-04-25T11:31:23Z</time>
      </trkpt>
      <trkpt lat="40.677397968247533" lon="-2.593360003083944">
        <ele>767.82399999999996</ele>
        <time>2026-04-25T11:31:25Z</time>
      </trkpt>
      <trkpt lat="40.677401991561055" lon="-2.593382969498634">
        <ele>766.61300000000006</ele>
        <time>2026-04-25T11:31:28Z</time>
      </trkpt>
      <trkpt lat="40.677404003217816" lon="-2.593409959226847">
        <ele>765.88400000000001</ele>
        <time>2026-04-25T11:31:31Z</time>
      </trkpt>
      <trkpt lat="40.677409032359719" lon="-2.593441978096962">
        <ele>765.029</ele>
        <time>2026-04-25T11:31:33Z</time>
      </trkpt>
      <trkpt lat="40.67741297185421" lon="-2.59348195977509">
        <ele>764.26800000000003</ele>
        <time>2026-04-25T11:31:35Z</time>
      </trkpt>
      <trkpt lat="40.677427975460887" lon="-2.593518001958728">
        <ele>763.24199999999996</ele>
        <time>2026-04-25T11:31:37Z</time>
      </trkpt>
      <trkpt lat="40.677447002381086" lon="-2.593550020828843">
        <ele>762.226</ele>
        <time>2026-04-25T11:31:39Z</time>
      </trkpt>
      <trkpt lat="40.677465023472905" lon="-2.593579022213817">
        <ele>761.00900000000001</ele>
        <time>2026-04-25T11:31:41Z</time>
      </trkpt>
      <trkpt lat="40.677482960745692" lon="-2.593606011942029">
        <ele>760.05799999999999</ele>
        <time>2026-04-25T11:31:43Z</time>
      </trkpt>
      <trkpt lat="40.677501987665892" lon="-2.593637024983764">
        <ele>759.28200000000004</ele>
        <time>2026-04-25T11:31:45Z</time>
      </trkpt>
      <trkpt lat="40.677521014586091" lon="-2.593668038025498">
        <ele>758.47699999999998</ele>
        <time>2026-04-25T11:31:47Z</time>
      </trkpt>
      <trkpt lat="40.677534006536007" lon="-2.59369402192533">
        <ele>757.447</ele>
        <time>2026-04-25T11:31:49Z</time>
      </trkpt>
      <trkpt lat="40.677551021799445" lon="-2.593724029138684">
        <ele>756.02300000000002</ele>
        <time>2026-04-25T11:31:52Z</time>
      </trkpt>
      <trkpt lat="40.677566025406122" lon="-2.593744983896613">
        <ele>755.06500000000005</ele>
        <time>2026-04-25T11:31:54Z</time>
      </trkpt>
      <trkpt lat="40.677592009305954" lon="-2.593775996938348">
        <ele>754.26400000000001</ele>
        <time>2026-04-25T11:31:56Z</time>
      </trkpt>
      <trkpt lat="40.677608018741012" lon="-2.593795023858547">
        <ele>753.84500000000003</ele>
        <time>2026-04-25T11:31:57Z</time>
      </trkpt>
      <trkpt lat="40.677626961842179" lon="-2.593810027465224">
        <ele>753.67999999999995</ele>
        <time>2026-04-25T11:31:58Z</time>
      </trkpt>
      <trkpt lat="40.677642971277237" lon="-2.593826036900282">
        <ele>753.24099999999999</ele>
        <time>2026-04-25T11:31:59Z</time>
      </trkpt>
      <trkpt lat="40.677659986540675" lon="-2.593839028850198">
        <ele>752.88099999999997</ele>
        <time>2026-04-25T11:32:00Z</time>
      </trkpt>
      <trkpt lat="40.677677001804113" lon="-2.593854032456875">
        <ele>752.60900000000004</ele>
        <time>2026-04-25T11:32:01Z</time>
      </trkpt>
      <trkpt lat="40.677698040381074" lon="-2.59386601857841">
        <ele>752.20899999999995</ele>
        <time>2026-04-25T11:32:02Z</time>
      </trkpt>
      <trkpt lat="40.677716983482242" lon="-2.593882028013468">
        <ele>752.096</ele>
        <time>2026-04-25T11:32:03Z</time>
      </trkpt>
      <trkpt lat="40.677744979038835" lon="-2.593893008306623">
        <ele>751.42999999999995</ele>
        <time>2026-04-25T11:32:05Z</time>
      </trkpt>
      <trkpt lat="40.677765011787415" lon="-2.593913041055203">
        <ele>750.86500000000001</ele>
        <time>2026-04-25T11:32:07Z</time>
      </trkpt>
      <trkpt lat="40.677793007344007" lon="-2.593943970277906">
        <ele>750.23500000000001</ele>
        <time>2026-04-25T11:32:09Z</time>
      </trkpt>
      <trkpt lat="40.677809016779065" lon="-2.593956040218473">
        <ele>749.851</ele>
        <time>2026-04-25T11:32:10Z</time>
      </trkpt>
      <trkpt lat="40.677824020385742" lon="-2.593970037996769">
        <ele>749.43299999999999</ele>
        <time>2026-04-25T11:32:11Z</time>
      </trkpt>
      <trkpt lat="40.677838018164039" lon="-2.593986969441176">
        <ele>749.22199999999998</ele>
        <time>2026-04-25T11:32:12Z</time>
      </trkpt>
      <trkpt lat="40.677854027599096" lon="-2.594013959169388">
        <ele>748.61300000000006</ele>
        <time>2026-04-25T11:32:14Z</time>
      </trkpt>
      <trkpt lat="40.67786299623549" lon="-2.594034997746348">
        <ele>747.43799999999999</ele>
        <time>2026-04-25T11:32:17Z</time>
      </trkpt>
      <trkpt lat="40.677889985963702" lon="-2.594054024666548">
        <ele>746.89099999999996</ele>
        <time>2026-04-25T11:32:19Z</time>
      </trkpt>
      <trkpt lat="40.677912030369043" lon="-2.594071039929986">
        <ele>746.28099999999995</ele>
        <time>2026-04-25T11:32:21Z</time>
      </trkpt>
      <trkpt lat="40.677943965420127" lon="-2.594085037708283">
        <ele>745.41899999999998</ele>
        <time>2026-04-25T11:32:23Z</time>
      </trkpt>
      <trkpt lat="40.677976990118623" lon="-2.594098029658198">
        <ele>744.20899999999995</ele>
        <time>2026-04-25T11:32:25Z</time>
      </trkpt>
      <trkpt lat="40.67801202647388" lon="-2.59410004131496">
        <ele>743.471</ele>
        <time>2026-04-25T11:32:27Z</time>
      </trkpt>
      <trkpt lat="40.678032981231809" lon="-2.594095012173057">
        <ele>743.05499999999995</ele>
        <time>2026-04-25T11:32:28Z</time>
      </trkpt>
      <trkpt lat="40.67805603146553" lon="-2.594088977202773">
        <ele>742.65999999999997</ele>
        <time>2026-04-25T11:32:29Z</time>
      </trkpt>
      <trkpt lat="40.67807799205184" lon="-2.594082020223141">
        <ele>742.42999999999995</ele>
        <time>2026-04-25T11:32:30Z</time>
      </trkpt>
      <trkpt lat="40.67810095846653" lon="-2.594071961939335">
        <ele>742.06600000000003</ele>
        <time>2026-04-25T11:32:31Z</time>
      </trkpt>
      <trkpt lat="40.67812199704349" lon="-2.594071961939335">
        <ele>741.84799999999996</ele>
        <time>2026-04-25T11:32:32Z</time>
      </trkpt>
      <trkpt lat="40.67814202979207" lon="-2.594072967767716">
        <ele>741.42700000000002</ele>
        <time>2026-04-25T11:32:33Z</time>
      </trkpt>
      <trkpt lat="40.678176982328296" lon="-2.594071961939335">
        <ele>741.08799999999997</ele>
        <time>2026-04-25T11:32:35Z</time>
      </trkpt>
      <trkpt lat="40.678195003420115" lon="-2.594068022444844">
        <ele>740.68299999999999</ele>
        <time>2026-04-25T11:32:36Z</time>
      </trkpt>
      <trkpt lat="40.678214030340314" lon="-2.594056036323309">
        <ele>740.25099999999998</ele>
        <time>2026-04-25T11:32:37Z</time>
      </trkpt>
      <trkpt lat="40.678232973441482" lon="-2.594042038545013">
        <ele>739.80100000000004</ele>
        <time>2026-04-25T11:32:39Z</time>
      </trkpt>
      <trkpt lat="40.678248982876539" lon="-2.594027034938335">
        <ele>739.41099999999994</ele>
        <time>2026-04-25T11:32:41Z</time>
      </trkpt>
      <trkpt lat="40.67827102728188" lon="-2.594025023281574">
        <ele>739.20899999999995</ele>
        <time>2026-04-25T11:32:43Z</time>
      </trkpt>
      <trkpt lat="40.678287958726287" lon="-2.594029968604446">
        <ele>738.86699999999996</ele>
        <time>2026-04-25T11:32:44Z</time>
      </trkpt>
      <trkpt lat="40.678305979818106" lon="-2.59403801523149">
        <ele>738.42100000000005</ele>
        <time>2026-04-25T11:32:45Z</time>
      </trkpt>
      <trkpt lat="40.67833699285984" lon="-2.594051007181406">
        <ele>737.63599999999997</ele>
        <time>2026-04-25T11:32:47Z</time>
      </trkpt>
      <trkpt lat="40.678368005901575" lon="-2.594057964161038">
        <ele>736.81600000000003</ele>
        <time>2026-04-25T11:32:49Z</time>
      </trkpt>
      <trkpt lat="40.678385021165013" lon="-2.594070034101605">
        <ele>736.46199999999999</ele>
        <time>2026-04-25T11:32:50Z</time>
      </trkpt>
      <trkpt lat="40.678406981751323" lon="-2.594089983031154">
        <ele>735.69399999999996</ele>
        <time>2026-04-25T11:32:52Z</time>
      </trkpt>
      <trkpt lat="40.678431037813425" lon="-2.594094006344676">
        <ele>735.25300000000004</ele>
        <time>2026-04-25T11:32:54Z</time>
      </trkpt>
      <trkpt lat="40.678454004228115" lon="-2.594074979424477">
        <ele>734.61400000000003</ele>
        <time>2026-04-25T11:32:56Z</time>
      </trkpt>
      <trkpt lat="40.678475964814425" lon="-2.594058969989419">
        <ele>734.279</ele>
        <time>2026-04-25T11:32:59Z</time>
      </trkpt>
      <trkpt lat="40.678495997563004" lon="-2.594055030494928">
        <ele>733.851</ele>
        <time>2026-04-25T11:33:03Z</time>
      </trkpt>
      <trkpt lat="40.678515024483204" lon="-2.594042960554361">
        <ele>733.601</ele>
        <time>2026-04-25T11:33:14Z</time>
      </trkpt>
      <trkpt lat="40.678536985069513" lon="-2.594028040766716">
        <ele>733.41099999999994</ele>
        <time>2026-04-25T11:33:23Z</time>
      </trkpt>
      <trkpt lat="40.678556011989713" lon="-2.594036003574729">
        <ele>733.00900000000001</ele>
        <time>2026-04-25T11:33:27Z</time>
      </trkpt>
      <trkpt lat="40.678574033081532" lon="-2.594023011624813">
        <ele>733.09699999999998</ele>
        <time>2026-04-25T11:33:30Z</time>
      </trkpt>
      <trkpt lat="40.678583001717925" lon="-2.593997027724981">
        <ele>733.29100000000005</ele>
        <time>2026-04-25T11:33:36Z</time>
      </trkpt>
      <trkpt lat="40.678587025031447" lon="-2.593969032168388">
        <ele>733.01599999999996</ele>
        <time>2026-04-25T11:34:02Z</time>
      </trkpt>
      <trkpt lat="40.67859398201108" lon="-2.593925027176738">
        <ele>729.22699999999998</ele>
        <time>2026-04-25T11:39:38Z</time>
      </trkpt>
      <trkpt lat="40.678633041679859" lon="-2.593924021348357">
        <ele>729.22199999999998</ele>
        <time>2026-04-25T11:39:42Z</time>
      </trkpt>
      <trkpt lat="40.678663970902562" lon="-2.593904994428158">
        <ele>728.69200000000001</ele>
        <time>2026-04-25T11:39:44Z</time>
      </trkpt>
      <trkpt lat="40.678677968680859" lon="-2.593889990821481">
        <ele>728.83799999999997</ele>
        <time>2026-04-25T11:39:45Z</time>
      </trkpt>
      <trkpt lat="40.678690960630774" lon="-2.593871969729662">
        <ele>728.88999999999999</ele>
        <time>2026-04-25T11:39:46Z</time>
      </trkpt>
      <trkpt lat="40.678706970065832" lon="-2.593854032456875">
        <ele>728.899</ele>
        <time>2026-04-25T11:39:47Z</time>
      </trkpt>
      <trkpt lat="40.678773019462824" lon="-2.593757975846529">
        <ele>729.28999999999996</ele>
        <time>2026-04-25T11:39:52Z</time>
      </trkpt>
      <trkpt lat="40.678847031667829" lon="-2.593648005276918">
        <ele>729.15499999999997</ele>
        <time>2026-04-25T11:39:56Z</time>
      </trkpt>
      <trkpt lat="40.678911991417408" lon="-2.593551026657224">
        <ele>729.17100000000005</ele>
        <time>2026-04-25T11:40:00Z</time>
      </trkpt>
      <trkpt lat="40.67900100722909" lon="-2.593454970046878">
        <ele>729.04100000000005</ele>
        <time>2026-04-25T11:40:04Z</time>
      </trkpt>
      <trkpt lat="40.679078958928585" lon="-2.593368971720338">
        <ele>729.01499999999999</ele>
        <time>2026-04-25T11:40:07Z</time>
      </trkpt>
      <trkpt lat="40.679136039689183" lon="-2.593368971720338">
        <ele>728.40899999999999</ele>
        <time>2026-04-25T11:40:11Z</time>
      </trkpt>
      <trkpt lat="40.679223965853453" lon="-2.59332899004221">
        <ele>728.85900000000004</ele>
        <time>2026-04-25T11:40:15Z</time>
      </trkpt>
      <trkpt lat="40.679243998602033" lon="-2.593312980607152">
        <ele>728.65300000000002</ele>
        <time>2026-04-25T11:40:16Z</time>
      </trkpt>
      <trkpt lat="40.679352041333914" lon="-2.593261012807488">
        <ele>729.048</ele>
        <time>2026-04-25T11:40:19Z</time>
      </trkpt>
      <trkpt lat="40.679464023560286" lon="-2.593219019472599">
        <ele>728.89800000000002</ele>
        <time>2026-04-25T11:40:22Z</time>
      </trkpt>
      <trkpt lat="40.679557984694839" lon="-2.59317803196609">
        <ele>728.68399999999997</ele>
        <time>2026-04-25T11:40:25Z</time>
      </trkpt>
      <trkpt lat="40.679651023820043" lon="-2.593128997832537">
        <ele>729.01599999999996</ele>
        <time>2026-04-25T11:40:28Z</time>
      </trkpt>
      <trkpt lat="40.67975202575326" lon="-2.593068983405829">
        <ele>729.41499999999996</ele>
        <time>2026-04-25T11:40:32Z</time>
      </trkpt>
      <trkpt lat="40.6798189971596" lon="-2.593044005334377">
        <ele>729.45600000000002</ele>
        <time>2026-04-25T11:40:35Z</time>
      </trkpt>
      <trkpt lat="40.67983902990818" lon="-2.593026990070939">
        <ele>729.48099999999999</ele>
        <time>2026-04-25T11:40:36Z</time>
      </trkpt>
      <trkpt lat="40.679855039343238" lon="-2.593012992292643">
        <ele>729.59400000000005</ele>
        <time>2026-04-25T11:40:37Z</time>
      </trkpt>
      <trkpt lat="40.679889991879463" lon="-2.592983990907669">
        <ele>729.65700000000004</ele>
        <time>2026-04-25T11:40:39Z</time>
      </trkpt>
      <trkpt lat="40.679912958294153" lon="-2.592974016442895">
        <ele>729.62199999999996</ele>
        <time>2026-04-25T11:40:40Z</time>
      </trkpt>
      <trkpt lat="40.679942965507507" lon="-2.592957001179457">
        <ele>729.60900000000004</ele>
        <time>2026-04-25T11:40:41Z</time>
      </trkpt>
      <trkpt lat="40.679981019347906" lon="-2.592937974259257">
        <ele>729.851</ele>
        <time>2026-04-25T11:40:42Z</time>
      </trkpt>
      <trkpt lat="40.680009014904499" lon="-2.59292003698647">
        <ele>730.02499999999998</ele>
        <time>2026-04-25T11:40:43Z</time>
      </trkpt>
      <trkpt lat="40.68003298714757" lon="-2.592905033379793">
        <ele>730.03999999999996</ele>
        <time>2026-04-25T11:40:44Z</time>
      </trkpt>
      <trkpt lat="40.680060982704163" lon="-2.592889023944736">
        <ele>730.04999999999995</ele>
        <time>2026-04-25T11:40:45Z</time>
      </trkpt>
      <trkpt lat="40.680090989917517" lon="-2.592874020338059">
        <ele>730.04600000000005</ele>
        <time>2026-04-25T11:40:46Z</time>
      </trkpt>
      <trkpt lat="40.680116973817348" lon="-2.592861028388143">
        <ele>729.83799999999997</ele>
        <time>2026-04-25T11:40:47Z</time>
      </trkpt>
      <trkpt lat="40.680147986859083" lon="-2.592846024781466">
        <ele>730.09699999999998</ele>
        <time>2026-04-25T11:40:48Z</time>
      </trkpt>
      <trkpt lat="40.680176988244057" lon="-2.592831021174789">
        <ele>730.09799999999996</ele>
        <time>2026-04-25T11:40:49Z</time>
      </trkpt>
      <trkpt lat="40.68020498380065" lon="-2.592816017568111">
        <ele>730.06299999999999</ele>
        <time>2026-04-25T11:40:50Z</time>
      </trkpt>
      <trkpt lat="40.680232979357243" lon="-2.592797996476293">
        <ele>730.24300000000005</ele>
        <time>2026-04-25T11:40:51Z</time>
      </trkpt>
      <trkpt lat="40.680263992398977" lon="-2.592783998697996">
        <ele>730.26400000000001</ele>
        <time>2026-04-25T11:40:52Z</time>
      </trkpt>
      <trkpt lat="40.68029198795557" lon="-2.59277100674808">
        <ele>730.21000000000004</ele>
        <time>2026-04-25T11:40:53Z</time>
      </trkpt>
      <trkpt lat="40.680317971855402" lon="-2.592760026454926">
        <ele>730.20899999999995</ele>
        <time>2026-04-25T11:40:54Z</time>
      </trkpt>
      <trkpt lat="40.680344961583614" lon="-2.592746028676629">
        <ele>730.21600000000001</ele>
        <time>2026-04-25T11:40:55Z</time>
      </trkpt>
      <trkpt lat="40.680372035130858" lon="-2.592737982049584">
        <ele>730.28999999999996</ele>
        <time>2026-04-25T11:40:56Z</time>
      </trkpt>
      <trkpt lat="40.680400030687451" lon="-2.592729013413191">
        <ele>730.29499999999996</ele>
        <time>2026-04-25T11:40:57Z</time>
      </trkpt>
      <trkpt lat="40.680422997102141" lon="-2.592718033120036">
        <ele>730.29499999999996</ele>
        <time>2026-04-25T11:40:58Z</time>
      </trkpt>
      <trkpt lat="40.680449986830354" lon="-2.592710992321372">
        <ele>730.221</ele>
        <time>2026-04-25T11:40:59Z</time>
      </trkpt>
      <trkpt lat="40.680475970730186" lon="-2.59270504117012">
        <ele>730.25300000000004</ele>
        <time>2026-04-25T11:41:00Z</time>
      </trkpt>
      <trkpt lat="40.680501032620668" lon="-2.592699006199837">
        <ele>730.26199999999994</ele>
        <time>2026-04-25T11:41:01Z</time>
      </trkpt>
      <trkpt lat="40.6805270165205" lon="-2.592693977057934">
        <ele>730.03300000000002</ele>
        <time>2026-04-25T11:41:02Z</time>
      </trkpt>
      <trkpt lat="40.680555012077093" lon="-2.592688025906682">
        <ele>730.25800000000004</ele>
        <time>2026-04-25T11:41:03Z</time>
      </trkpt>
      <trkpt lat="40.680584013462067" lon="-2.592681990936399">
        <ele>730.03599999999994</ele>
        <time>2026-04-25T11:41:04Z</time>
      </trkpt>
      <trkpt lat="40.680617960169911" lon="-2.592675033956766">
        <ele>730.21699999999998</ele>
        <time>2026-04-25T11:41:05Z</time>
      </trkpt>
      <trkpt lat="40.680681997910142" lon="-2.592667993158102">
        <ele>730.21799999999996</ele>
        <time>2026-04-25T11:41:07Z</time>
      </trkpt>
      <trkpt lat="40.680710999295115" lon="-2.592667993158102">
        <ele>730.40899999999999</ele>
        <time>2026-04-25T11:41:08Z</time>
      </trkpt>
      <trkpt lat="40.680736983194947" lon="-2.592671010643244">
        <ele>730.255</ele>
        <time>2026-04-25T11:41:09Z</time>
      </trkpt>
      <trkpt lat="40.68076397292316" lon="-2.592668998986483">
        <ele>730.22900000000004</ele>
        <time>2026-04-25T11:41:10Z</time>
      </trkpt>
      <trkpt lat="40.680791968479753" lon="-2.592662964016199">
        <ele>730.26400000000001</ele>
        <time>2026-04-25T11:41:11Z</time>
      </trkpt>
      <trkpt lat="40.680814012885094" lon="-2.592661958187819">
        <ele>730.47400000000005</ele>
        <time>2026-04-25T11:41:12Z</time>
      </trkpt>
      <trkpt lat="40.680842008441687" lon="-2.592658018693328">
        <ele>730.42999999999995</ele>
        <time>2026-04-25T11:41:13Z</time>
      </trkpt>
      <trkpt lat="40.68087000399828" lon="-2.592657012864947">
        <ele>730.21199999999999</ele>
        <time>2026-04-25T11:41:14Z</time>
      </trkpt>
      <trkpt lat="40.680902022868395" lon="-2.592650977894664">
        <ele>730.43100000000004</ele>
        <time>2026-04-25T11:41:15Z</time>
      </trkpt>
      <trkpt lat="40.680931024253368" lon="-2.592644020915031">
        <ele>730.23199999999997</ele>
        <time>2026-04-25T11:41:16Z</time>
      </trkpt>
      <trkpt lat="40.680960025638342" lon="-2.59264100342989">
        <ele>730.29700000000003</ele>
        <time>2026-04-25T11:41:17Z</time>
      </trkpt>
      <trkpt lat="40.680989027023315" lon="-2.592636980116367">
        <ele>730.21600000000001</ele>
        <time>2026-04-25T11:41:18Z</time>
      </trkpt>
      <trkpt lat="40.68102004006505" lon="-2.592631028965116">
        <ele>730.27599999999995</ele>
        <time>2026-04-25T11:41:19Z</time>
      </trkpt>
      <trkpt lat="40.681050969287753" lon="-2.592628011479974">
        <ele>730.21299999999997</ele>
        <time>2026-04-25T11:41:20Z</time>
      </trkpt>
      <trkpt lat="40.681080976501107" lon="-2.592625999823213">
        <ele>730.20899999999995</ele>
        <time>2026-04-25T11:41:21Z</time>
      </trkpt>
      <trkpt lat="40.6811089720577" lon="-2.592619964852929">
        <ele>730.24300000000005</ele>
        <time>2026-04-25T11:41:22Z</time>
      </trkpt>
      <trkpt lat="40.681136967614293" lon="-2.592618959024549">
        <ele>730.06700000000001</ele>
        <time>2026-04-25T11:41:23Z</time>
      </trkpt>
      <trkpt lat="40.681164041161537" lon="-2.592617031186819">
        <ele>730.072</ele>
        <time>2026-04-25T11:41:24Z</time>
      </trkpt>
      <trkpt lat="40.681192958727479" lon="-2.592613007873297">
        <ele>730.04200000000003</ele>
        <time>2026-04-25T11:41:25Z</time>
      </trkpt>
      <trkpt lat="40.681212991476059" lon="-2.592612002044916">
        <ele>730.23800000000006</ele>
        <time>2026-04-25T11:41:26Z</time>
      </trkpt>
      <trkpt lat="40.681267976760864" lon="-2.5926180370152">
        <ele>730.07000000000005</ele>
        <time>2026-04-25T11:41:28Z</time>
      </trkpt>
      <trkpt lat="40.681290021166205" lon="-2.5926180370152">
        <ele>729.84900000000005</ele>
        <time>2026-04-25T11:41:29Z</time>
      </trkpt>
      <trkpt lat="40.681337965652347" lon="-2.592639997601509">
        <ele>729.80999999999995</ele>
        <time>2026-04-25T11:41:31Z</time>
      </trkpt>
      <trkpt lat="40.681368978694081" lon="-2.592650977894664">
        <ele>729.85500000000002</ele>
        <time>2026-04-25T11:41:32Z</time>
      </trkpt>
      <trkpt lat="40.681400997564197" lon="-2.59266103617847">
        <ele>729.85799999999995</ele>
        <time>2026-04-25T11:41:33Z</time>
      </trkpt>
      <trkpt lat="40.681424969807267" lon="-2.592668998986483">
        <ele>729.85199999999998</ele>
        <time>2026-04-25T11:41:34Z</time>
      </trkpt>
      <trkpt lat="40.681443996727467" lon="-2.592679979279637">
        <ele>729.61699999999996</ele>
        <time>2026-04-25T11:41:35Z</time>
      </trkpt>
      <trkpt lat="40.681466041132808" lon="-2.59266497567296">
        <ele>729.60900000000004</ele>
        <time>2026-04-25T11:41:38Z</time>
      </trkpt>
      <trkpt lat="40.681467968970537" lon="-2.592635974287987">
        <ele>729.89700000000005</ele>
        <time>2026-04-25T11:41:40Z</time>
      </trkpt>
      <trkpt lat="40.681466963142157" lon="-2.592623988166452">
        <ele>729.68600000000004</ele>
        <time>2026-04-25T11:41:56Z</time>
      </trkpt>
      <trkpt lat="40.681497976183891" lon="-2.592633040621877">
        <ele>729.63199999999995</ele>
        <time>2026-04-25T11:41:57Z</time>
      </trkpt>
      <trkpt lat="40.681537035852671" lon="-2.592645026743412">
        <ele>729.69399999999996</ele>
        <time>2026-04-25T11:41:58Z</time>
      </trkpt>
      <trkpt lat="40.681580035015941" lon="-2.592661958187819">
        <ele>729.65300000000002</ele>
        <time>2026-04-25T11:41:59Z</time>
      </trkpt>
      <trkpt lat="40.681625967845321" lon="-2.592688025906682">
        <ele>729.88400000000001</ele>
        <time>2026-04-25T11:42:00Z</time>
      </trkpt>
      <trkpt lat="40.681678019464016" lon="-2.592720966786146">
        <ele>730.08900000000006</ele>
        <time>2026-04-25T11:42:01Z</time>
      </trkpt>
      <trkpt lat="40.68172998726368" lon="-2.592762960121036">
        <ele>730.077</ele>
        <time>2026-04-25T11:42:02Z</time>
      </trkpt>
      <trkpt lat="40.681781033053994" lon="-2.592807970941067">
        <ele>730.26099999999997</ele>
        <time>2026-04-25T11:42:03Z</time>
      </trkpt>
      <trkpt lat="40.681831995025277" lon="-2.592854993417859">
        <ele>730.22699999999998</ele>
        <time>2026-04-25T11:42:04Z</time>
      </trkpt>
      <trkpt lat="40.681883040815592" lon="-2.592905033379793">
        <ele>730.40899999999999</ele>
        <time>2026-04-25T11:42:05Z</time>
      </trkpt>
      <trkpt lat="40.681932996958494" lon="-2.592952977865934">
        <ele>730.47900000000004</ele>
        <time>2026-04-25T11:42:06Z</time>
      </trkpt>
      <trkpt lat="40.681983958929777" lon="-2.592998994514346">
        <ele>730.64300000000003</ele>
        <time>2026-04-25T11:42:07Z</time>
      </trkpt>
      <trkpt lat="40.682032993063331" lon="-2.593041993677616">
        <ele>730.62800000000004</ele>
        <time>2026-04-25T11:42:08Z</time>
      </trkpt>
      <trkpt lat="40.682084960862994" lon="-2.593080969527364">
        <ele>730.88800000000003</ele>
        <time>2026-04-25T11:42:09Z</time>
      </trkpt>
      <trkpt lat="40.682135000824928" lon="-2.593118017539382">
        <ele>730.85400000000004</ele>
        <time>2026-04-25T11:42:10Z</time>
      </trkpt>
      <trkpt lat="40.682183029130101" lon="-2.593152970075607">
        <ele>731.02599999999995</ele>
        <time>2026-04-25T11:42:11Z</time>
      </trkpt>
      <trkpt lat="40.682225022464991" lon="-2.593183983117342">
        <ele>731.23500000000001</ele>
        <time>2026-04-25T11:42:12Z</time>
      </trkpt>
      <trkpt lat="40.682261986657977" lon="-2.593208961188793">
        <ele>731.24599999999998</ele>
        <time>2026-04-25T11:42:13Z</time>
      </trkpt>
      <trkpt lat="40.682288976386189" lon="-2.593228993937373">
        <ele>731.23099999999999</ele>
        <time>2026-04-25T11:42:14Z</time>
      </trkpt>
      <trkpt lat="40.682304985821247" lon="-2.593241985887289">
        <ele>731.24900000000002</ele>
        <time>2026-04-25T11:42:15Z</time>
      </trkpt>
      <trkpt lat="40.682320995256305" lon="-2.593253972008824">
        <ele>730.60199999999998</ele>
        <time>2026-04-25T11:42:21Z</time>
      </trkpt>
      <trkpt lat="40.682341028004885" lon="-2.59326403029263">
        <ele>730.822</ele>
        <time>2026-04-25T11:42:22Z</time>
      </trkpt>
      <trkpt lat="40.682369023561478" lon="-2.593280961737037">
        <ele>730.80899999999997</ele>
        <time>2026-04-25T11:42:23Z</time>
      </trkpt>
      <trkpt lat="40.682401964440942" lon="-2.59330602362752">
        <ele>730.85599999999999</ele>
        <time>2026-04-25T11:42:24Z</time>
      </trkpt>
      <trkpt lat="40.682440018281341" lon="-2.593339970335364">
        <ele>731.08000000000004</ele>
        <time>2026-04-25T11:42:25Z</time>
      </trkpt>
      <trkpt lat="40.682477988302708" lon="-2.593386992812157">
        <ele>731.23500000000001</ele>
        <time>2026-04-25T11:42:26Z</time>
      </trkpt>
      <trkpt lat="40.682515958324075" lon="-2.593444995582104">
        <ele>731.255</ele>
        <time>2026-04-25T11:42:27Z</time>
      </trkpt>
      <trkpt lat="40.682553006336093" lon="-2.593509033322334">
        <ele>731.44100000000003</ele>
        <time>2026-04-25T11:42:28Z</time>
      </trkpt>
      <trkpt lat="40.682587036862969" lon="-2.593578016385436">
        <ele>731.86300000000006</ele>
        <time>2026-04-25T11:42:29Z</time>
      </trkpt>
      <trkpt lat="40.682620983570814" lon="-2.593648005276918">
        <ele>732.01199999999994</ele>
        <time>2026-04-25T11:42:30Z</time>
      </trkpt>
      <trkpt lat="40.682657025754452" lon="-2.593726962804794">
        <ele>732.01300000000003</ele>
        <time>2026-04-25T11:42:31Z</time>
      </trkpt>
      <trkpt lat="40.682696001604199" lon="-2.593806004151702">
        <ele>732.05799999999999</ele>
        <time>2026-04-25T11:42:32Z</time>
      </trkpt>
      <trkpt lat="40.682734977453947" lon="-2.593884961679578">
        <ele>732.05100000000004</ele>
        <time>2026-04-25T11:42:33Z</time>
      </trkpt>
      <trkpt lat="40.682771019637585" lon="-2.593966014683247">
        <ele>732.00099999999998</ele>
        <time>2026-04-25T11:42:34Z</time>
      </trkpt>
      <trkpt lat="40.682804966345429" lon="-2.594048995524645">
        <ele>732.01099999999997</ele>
        <time>2026-04-25T11:42:35Z</time>
      </trkpt>
      <trkpt lat="40.682835979387164" lon="-2.594131976366043">
        <ele>732.00900000000001</ele>
        <time>2026-04-25T11:42:36Z</time>
      </trkpt>
      <trkpt lat="40.682861963286996" lon="-2.594216968864203">
        <ele>732.01700000000005</ele>
        <time>2026-04-25T11:42:37Z</time>
      </trkpt>
      <trkpt lat="40.682885013520718" lon="-2.59429500438273">
        <ele>731.87099999999998</ele>
        <time>2026-04-25T11:42:38Z</time>
      </trkpt>
      <trkpt lat="40.682901022955775" lon="-2.59436096996069">
        <ele>731.62599999999998</ele>
        <time>2026-04-25T11:42:39Z</time>
      </trkpt>
      <trkpt lat="40.68291200324893" lon="-2.594413021579385">
        <ele>731.096</ele>
        <time>2026-04-25T11:42:40Z</time>
      </trkpt>
      <trkpt lat="40.682918038219213" lon="-2.594450991600752">
        <ele>730.822</ele>
        <time>2026-04-25T11:42:41Z</time>
      </trkpt>
      <trkpt lat="40.682922983542085" lon="-2.594477981328964">
        <ele>730.24400000000003</ele>
        <time>2026-04-25T11:42:43Z</time>
      </trkpt>
      <trkpt lat="40.682920971885324" lon="-2.594515029340982">
        <ele>729.22299999999996</ele>
        <time>2026-04-25T11:42:49Z</time>
      </trkpt>
      <trkpt lat="40.682922983542085" lon="-2.59455299936235">
        <ele>729.26400000000001</ele>
        <time>2026-04-25T11:42:50Z</time>
      </trkpt>
      <trkpt lat="40.682928012683988" lon="-2.594600021839142">
        <ele>729.279</ele>
        <time>2026-04-25T11:42:51Z</time>
      </trkpt>
      <trkpt lat="40.682933041825891" lon="-2.594648972153664">
        <ele>729.49900000000002</ele>
        <time>2026-04-25T11:42:52Z</time>
      </trkpt>
      <trkpt lat="40.682938992977142" lon="-2.594695994630456">
        <ele>729.40700000000004</ele>
        <time>2026-04-25T11:42:53Z</time>
      </trkpt>
      <trkpt lat="40.682942010462284" lon="-2.594738993793726">
        <ele>729.42700000000002</ele>
        <time>2026-04-25T11:42:54Z</time>
      </trkpt>
      <trkpt lat="40.682943016290665" lon="-2.594766989350319">
        <ele>729.20899999999995</ele>
        <time>2026-04-25T11:42:55Z</time>
      </trkpt>
      <trkpt lat="40.682950979098678" lon="-2.594794984906912">
        <ele>728.86099999999999</ele>
        <time>2026-04-25T11:43:00Z</time>
      </trkpt>
      <trkpt lat="40.682957014068961" lon="-2.594819962978363">
        <ele>728.84500000000003</ele>
        <time>2026-04-25T11:43:01Z</time>
      </trkpt>
      <trkpt lat="40.682965982705355" lon="-2.594856005162001">
        <ele>728.83000000000004</ele>
        <time>2026-04-25T11:43:02Z</time>
      </trkpt>
      <trkpt lat="40.68297796882689" lon="-2.594905039295554">
        <ele>728.83000000000004</ele>
        <time>2026-04-25T11:43:03Z</time>
      </trkpt>
      <trkpt lat="40.682988027110696" lon="-2.594959018751979">
        <ele>728.846</ele>
        <time>2026-04-25T11:43:04Z</time>
      </trkpt>
      <trkpt lat="40.682993978261948" lon="-2.595022972673178">
        <ele>728.86800000000005</ele>
        <time>2026-04-25T11:43:05Z</time>
      </trkpt>
      <trkpt lat="40.683002024888992" lon="-2.595094973221421">
        <ele>728.88699999999994</ele>
        <time>2026-04-25T11:43:06Z</time>
      </trkpt>
      <trkpt lat="40.683017028495669" lon="-2.595177032053471">
        <ele>729.298</ele>
        <time>2026-04-25T11:43:07Z</time>
      </trkpt>
      <trkpt lat="40.683033037930727" lon="-2.595266969874501">
        <ele>729.23299999999995</ele>
        <time>2026-04-25T11:43:08Z</time>
      </trkpt>
      <trkpt lat="40.683046029880643" lon="-2.595357997342944">
        <ele>729.47500000000002</ele>
        <time>2026-04-25T11:43:09Z</time>
      </trkpt>
      <trkpt lat="40.683060027658939" lon="-2.595451958477497">
        <ele>729.82799999999997</ele>
        <time>2026-04-25T11:43:10Z</time>
      </trkpt>
      <trkpt lat="40.683076037093997" lon="-2.595548015087843">
        <ele>729.62</ele>
        <time>2026-04-25T11:43:11Z</time>
      </trkpt>
      <trkpt lat="40.683094980195165" lon="-2.595641976222396">
        <ele>729.80899999999997</ele>
        <time>2026-04-25T11:43:12Z</time>
      </trkpt>
      <trkpt lat="40.683114007115364" lon="-2.595729986205697">
        <ele>729.67899999999997</ele>
        <time>2026-04-25T11:43:13Z</time>
      </trkpt>
      <trkpt lat="40.683133034035563" lon="-2.595809027552605">
        <ele>729.43299999999999</ele>
        <time>2026-04-25T11:43:14Z</time>
      </trkpt>
      <trkpt lat="40.683151977136731" lon="-2.595889996737242">
        <ele>729.28800000000001</ele>
        <time>2026-04-25T11:43:15Z</time>
      </trkpt>
      <trkpt lat="40.683168992400169" lon="-2.595970965921879">
        <ele>729.08799999999997</ele>
        <time>2026-04-25T11:43:16Z</time>
      </trkpt>
      <trkpt lat="40.683181984350085" lon="-2.596041038632393">
        <ele>728.61400000000003</ele>
        <time>2026-04-25T11:43:17Z</time>
      </trkpt>
      <trkpt lat="40.683196987956762" lon="-2.596103986725211">
        <ele>728.28599999999994</ele>
        <time>2026-04-25T11:43:18Z</time>
      </trkpt>
      <trkpt lat="40.683215009048581" lon="-2.596160983666778">
        <ele>727.85500000000002</ele>
        <time>2026-04-25T11:43:19Z</time>
      </trkpt>
      <trkpt lat="40.683226995170116" lon="-2.596205994486809">
        <ele>727.48599999999999</ele>
        <time>2026-04-25T11:43:20Z</time>
      </trkpt>
      <trkpt lat="40.683249039575458" lon="-2.596310013905168">
        <ele>726.44100000000003</ele>
        <time>2026-04-25T11:43:27Z</time>
      </trkpt>
      <trkpt lat="40.683254990726709" lon="-2.596332980319858">
        <ele>726.46199999999999</ele>
        <time>2026-04-25T11:43:28Z</time>
      </trkpt>
      <trkpt lat="40.683258008211851" lon="-2.596361981704831">
        <ele>726.28300000000002</ele>
        <time>2026-04-25T11:43:30Z</time>
      </trkpt>
      <trkpt lat="40.683271000161767" lon="-2.596386959776282">
        <ele>726.01099999999997</ele>
        <time>2026-04-25T11:43:35Z</time>
      </trkpt>
      <trkpt lat="40.683287009596825" lon="-2.596426019445062">
        <ele>726.00900000000001</ele>
        <time>2026-04-25T11:43:36Z</time>
      </trkpt>
      <trkpt lat="40.683305030688643" lon="-2.596472036093473">
        <ele>726.22799999999995</ele>
        <time>2026-04-25T11:43:37Z</time>
      </trkpt>
      <trkpt lat="40.683324979618192" lon="-2.596525009721518">
        <ele>726.44200000000001</ele>
        <time>2026-04-25T11:43:38Z</time>
      </trkpt>
      <trkpt lat="40.683348029851913" lon="-2.596584018319845">
        <ele>726.45699999999999</ele>
        <time>2026-04-25T11:43:39Z</time>
      </trkpt>
      <trkpt lat="40.683374013751745" lon="-2.596654007211328">
        <ele>726.49699999999996</ele>
        <time>2026-04-25T11:43:40Z</time>
      </trkpt>
      <trkpt lat="40.683398991823196" lon="-2.59672399610281">
        <ele>726.84299999999996</ele>
        <time>2026-04-25T11:43:41Z</time>
      </trkpt>
      <trkpt lat="40.683422964066267" lon="-2.596800019964576">
        <ele>726.86500000000001</ele>
        <time>2026-04-25T11:43:42Z</time>
      </trkpt>
      <trkpt lat="40.683434028178453" lon="-2.596878977492452">
        <ele>726.66399999999999</ele>
        <time>2026-04-25T11:43:43Z</time>
      </trkpt>
      <trkpt lat="40.683446014299989" lon="-2.596951983869076">
        <ele>726.625</ele>
        <time>2026-04-25T11:43:44Z</time>
      </trkpt>
      <trkpt lat="40.683458000421524" lon="-2.597013004124165">
        <ele>726.21000000000004</ele>
        <time>2026-04-25T11:43:45Z</time>
      </trkpt>
      <trkpt lat="40.683466969057918" lon="-2.597063966095448">
        <ele>726.03800000000001</ele>
        <time>2026-04-25T11:43:46Z</time>
      </trkpt>
      <trkpt lat="40.683477027341723" lon="-2.597106965258718">
        <ele>726.07000000000005</ele>
        <time>2026-04-25T11:43:47Z</time>
      </trkpt>
      <trkpt lat="40.683484990149736" lon="-2.597139989957213">
        <ele>725.81700000000001</ele>
        <time>2026-04-25T11:43:48Z</time>
      </trkpt>
      <trkpt lat="40.683499993756413" lon="-2.597152981907129">
        <ele>725.80899999999997</ele>
        <time>2026-04-25T11:43:50Z</time>
      </trkpt>
      <trkpt lat="40.683509968221188" lon="-2.597191035747528">
        <ele>725.65499999999997</ele>
        <time>2026-04-25T11:43:54Z</time>
      </trkpt>
      <trkpt lat="40.683522038161755" lon="-2.597230011597276">
        <ele>725.899</ele>
        <time>2026-04-25T11:43:55Z</time>
      </trkpt>
      <trkpt lat="40.683530000969768" lon="-2.597274016588926">
        <ele>725.84400000000005</ele>
        <time>2026-04-25T11:43:56Z</time>
      </trkpt>
      <trkpt lat="40.683541987091303" lon="-2.597320033237338">
        <ele>725.87400000000002</ele>
        <time>2026-04-25T11:43:57Z</time>
      </trkpt>
      <trkpt lat="40.68355699069798" lon="-2.597374012693763">
        <ele>726.00999999999999</ele>
        <time>2026-04-25T11:43:58Z</time>
      </trkpt>
      <trkpt lat="40.683574005961418" lon="-2.59743201546371">
        <ele>726.25199999999995</ele>
        <time>2026-04-25T11:43:59Z</time>
      </trkpt>
      <trkpt lat="40.683584986254573" lon="-2.597500998526812">
        <ele>726.43100000000004</ele>
        <time>2026-04-25T11:44:00Z</time>
      </trkpt>
      <trkpt lat="40.683597978204489" lon="-2.597565958276391">
        <ele>726.41200000000003</ele>
        <time>2026-04-25T11:44:01Z</time>
      </trkpt>
      <trkpt lat="40.683610970154405" lon="-2.597629996016622">
        <ele>726.63699999999994</ele>
        <time>2026-04-25T11:44:02Z</time>
      </trkpt>
      <trkpt lat="40.683638965710998" lon="-2.597772991284728">
        <ele>727.029</ele>
        <time>2026-04-25T11:44:04Z</time>
      </trkpt>
      <trkpt lat="40.683678025379777" lon="-2.597920009866357">
        <ele>727.39999999999998</ele>
        <time>2026-04-25T11:44:06Z</time>
      </trkpt>
      <trkpt lat="40.683727981522679" lon="-2.598092006519437">
        <ele>727.41999999999996</ele>
        <time>2026-04-25T11:44:08Z</time>
      </trkpt>
      <trkpt lat="40.68379302509129" lon="-2.598285041749477">
        <ele>727.60900000000004</ele>
        <time>2026-04-25T11:44:10Z</time>
      </trkpt>
      <trkpt lat="40.683841975405812" lon="-2.598418984562159">
        <ele>727.82399999999996</ele>
        <time>2026-04-25T11:44:12Z</time>
      </trkpt>
      <trkpt lat="40.683905007317662" lon="-2.598520992323756">
        <ele>727.298</ele>
        <time>2026-04-25T11:44:17Z</time>
      </trkpt>
      <trkpt lat="40.683939037844539" lon="-2.598641021177173">
        <ele>727.69299999999998</ele>
        <time>2026-04-25T11:44:24Z</time>
      </trkpt>
      <trkpt lat="40.683982037007809" lon="-2.598812012001872">
        <ele>728.08299999999997</ele>
        <time>2026-04-25T11:44:27Z</time>
      </trkpt>
      <trkpt lat="40.684021012857556" lon="-2.598951989784837">
        <ele>728.029</ele>
        <time>2026-04-25T11:44:29Z</time>
      </trkpt>
      <trkpt lat="40.684063006192446" lon="-2.599094985052943">
        <ele>728.05100000000004</ele>
        <time>2026-04-25T11:44:31Z</time>
      </trkpt>
      <trkpt lat="40.684111034497619" lon="-2.599235968664289">
        <ele>728.03999999999996</ele>
        <time>2026-04-25T11:44:33Z</time>
      </trkpt>
      <trkpt lat="40.684155039489269" lon="-2.599357003346086">
        <ele>728.05100000000004</ele>
        <time>2026-04-25T11:44:35Z</time>
      </trkpt>
      <trkpt lat="40.684194015339017" lon="-2.599445013329387">
        <ele>727.24599999999998</ele>
        <time>2026-04-25T11:44:41Z</time>
      </trkpt>
      <trkpt lat="40.684214970096946" lon="-2.599483989179134">
        <ele>727.06399999999996</ele>
        <time>2026-04-25T11:44:43Z</time>
      </trkpt>
      <trkpt lat="40.684230979532003" lon="-2.599521959200501">
        <ele>727.00599999999997</ele>
        <time>2026-04-25T11:44:44Z</time>
      </trkpt>
      <trkpt lat="40.68424598313868" lon="-2.599554983898997">
        <ele>727.21600000000001</ele>
        <time>2026-04-25T11:44:45Z</time>
      </trkpt>
      <trkpt lat="40.684257969260216" lon="-2.599575016647577">
        <ele>727.00900000000001</ele>
        <time>2026-04-25T11:44:46Z</time>
      </trkpt>
      <trkpt lat="40.684280013665557" lon="-2.599599994719029">
        <ele>727.08799999999997</ele>
        <time>2026-04-25T11:44:49Z</time>
      </trkpt>
      <trkpt lat="40.684297028928995" lon="-2.59962203912437">
        <ele>727.06200000000001</ele>
        <time>2026-04-25T11:44:50Z</time>
      </trkpt>
      <trkpt lat="40.684322007000446" lon="-2.599651040509343">
        <ele>727.06700000000001</ele>
        <time>2026-04-25T11:44:51Z</time>
      </trkpt>
      <trkpt lat="40.684354025870562" lon="-2.599693033844233">
        <ele>727.27700000000004</ele>
        <time>2026-04-25T11:44:52Z</time>
      </trkpt>
      <trkpt lat="40.684411022812128" lon="-2.599734021350741">
        <ele>727.22299999999996</ele>
        <time>2026-04-25T11:44:53Z</time>
      </trkpt>
      <trkpt lat="40.684466008096933" lon="-2.599771991372109">
        <ele>727.08500000000004</ele>
        <time>2026-04-25T11:44:54Z</time>
      </trkpt>
      <trkpt lat="40.684520993381739" lon="-2.599799986928701">
        <ele>727.21400000000006</ele>
        <time>2026-04-25T11:44:55Z</time>
      </trkpt>
      <trkpt lat="40.684576984494925" lon="-2.599821025505662">
        <ele>727.245</ele>
        <time>2026-04-25T11:44:56Z</time>
      </trkpt>
      <trkpt lat="40.68463196977973" lon="-2.599835023283958">
        <ele>727.01999999999998</ele>
        <time>2026-04-25T11:44:57Z</time>
      </trkpt>
      <trkpt lat="40.684682009741664" lon="-2.599841980263591">
        <ele>727.072</ele>
        <time>2026-04-25T11:44:58Z</time>
      </trkpt>
      <trkpt lat="40.684732971712947" lon="-2.599842986091971">
        <ele>727.01300000000003</ele>
        <time>2026-04-25T11:44:59Z</time>
      </trkpt>
      <trkpt lat="40.6847820058465" lon="-2.599843991920352">
        <ele>727.01400000000001</ele>
        <time>2026-04-25T11:45:00Z</time>
      </trkpt>
      <trkpt lat="40.684837996959686" lon="-2.59983703494072">
        <ele>727.20899999999995</ele>
        <time>2026-04-25T11:45:01Z</time>
      </trkpt>
      <trkpt lat="40.684892982244492" lon="-2.599828988313675">
        <ele>727.22900000000004</ele>
        <time>2026-04-25T11:45:02Z</time>
      </trkpt>
      <trkpt lat="40.684948973357677" lon="-2.599814990535379">
        <ele>727.21299999999997</ele>
        <time>2026-04-25T11:45:03Z</time>
      </trkpt>
      <trkpt lat="40.685002030804753" lon="-2.59979403577745">
        <ele>727.48800000000006</ele>
        <time>2026-04-25T11:45:04Z</time>
      </trkpt>
      <trkpt lat="40.685053998604417" lon="-2.599772997200489">
        <ele>727.41800000000001</ele>
        <time>2026-04-25T11:45:05Z</time>
      </trkpt>
      <trkpt lat="40.685155000537634" lon="-2.599725974723697">
        <ele>727.24400000000003</ele>
        <time>2026-04-25T11:45:07Z</time>
      </trkpt>
      <trkpt lat="40.685266982764006" lon="-2.599661014974117">
        <ele>726.82600000000002</ele>
        <time>2026-04-25T11:45:10Z</time>
      </trkpt>
      <trkpt lat="40.685291960835457" lon="-2.599642993882299">
        <ele>726.42499999999995</ele>
        <time>2026-04-25T11:45:16Z</time>
      </trkpt>
      <trkpt lat="40.685316016897559" lon="-2.599613992497325">
        <ele>726.476</ele>
        <time>2026-04-25T11:45:17Z</time>
      </trkpt>
      <trkpt lat="40.685362033545971" lon="-2.599569987505674">
        <ele>726.49099999999999</ele>
        <time>2026-04-25T11:45:18Z</time>
      </trkpt>
      <trkpt lat="40.685402015224099" lon="-2.599527994170785">
        <ele>726.62900000000002</ele>
        <time>2026-04-25T11:45:19Z</time>
      </trkpt>
      <trkpt lat="40.685439985245466" lon="-2.599486000835896">
        <ele>727</ele>
        <time>2026-04-25T11:45:20Z</time>
      </trkpt>
      <trkpt lat="40.685488013550639" lon="-2.599440990015864">
        <ele>727.22000000000003</ele>
        <time>2026-04-25T11:45:21Z</time>
      </trkpt>
      <trkpt lat="40.685549033805728" lon="-2.59938701055944">
        <ele>727.60900000000004</ele>
        <time>2026-04-25T11:45:22Z</time>
      </trkpt>
      <trkpt lat="40.685603013262153" lon="-2.599334958940744">
        <ele>728.08399999999995</ele>
        <time>2026-04-25T11:45:23Z</time>
      </trkpt>
      <trkpt lat="40.685656992718577" lon="-2.599286008626223">
        <ele>728.22799999999995</ele>
        <time>2026-04-25T11:45:24Z</time>
      </trkpt>
      <trkpt lat="40.685711978003383" lon="-2.599234962835908">
        <ele>728.46299999999997</ele>
        <time>2026-04-25T11:45:25Z</time>
      </trkpt>
      <trkpt lat="40.685767969116569" lon="-2.599186012521386">
        <ele>728.48299999999995</ele>
        <time>2026-04-25T11:45:26Z</time>
      </trkpt>
      <trkpt lat="40.685824966058135" lon="-2.599136978387833">
        <ele>728.45899999999995</ele>
        <time>2026-04-25T11:45:27Z</time>
      </trkpt>
      <trkpt lat="40.685881962999701" lon="-2.599088028073311">
        <ele>728.86099999999999</ele>
        <time>2026-04-25T11:45:28Z</time>
      </trkpt>
      <trkpt lat="40.685940971598029" lon="-2.599038993939757">
        <ele>729.09000000000003</ele>
        <time>2026-04-25T11:45:29Z</time>
      </trkpt>
      <trkpt lat="40.685997968539596" lon="-2.598989959806204">
        <ele>729.221</ele>
        <time>2026-04-25T11:45:30Z</time>
      </trkpt>
      <trkpt lat="40.686054965481162" lon="-2.598941009491682">
        <ele>729.21600000000001</ele>
        <time>2026-04-25T11:45:31Z</time>
      </trkpt>
      <trkpt lat="40.686106011271477" lon="-2.598895998671651">
        <ele>729.06700000000001</ele>
        <time>2026-04-25T11:45:32Z</time>
      </trkpt>
      <trkpt lat="40.686149010434747" lon="-2.598855011165142">
        <ele>728.88099999999997</ele>
        <time>2026-04-25T11:45:33Z</time>
      </trkpt>
      <trkpt lat="40.686187986284494" lon="-2.598817041143775">
        <ele>728.61900000000003</ele>
        <time>2026-04-25T11:45:34Z</time>
      </trkpt>
      <trkpt lat="40.686222016811371" lon="-2.598779993131757">
        <ele>728.40899999999999</ele>
        <time>2026-04-25T11:45:35Z</time>
      </trkpt>
      <trkpt lat="40.686249006539583" lon="-2.598749985918403">
        <ele>728.21799999999996</ele>
        <time>2026-04-25T11:45:36Z</time>
      </trkpt>
      <trkpt lat="40.686265015974641" lon="-2.598730958998203">
        <ele>728.08199999999999</ele>
        <time>2026-04-25T11:45:37Z</time>
      </trkpt>
      <trkpt lat="40.686282031238079" lon="-2.598697012290359">
        <ele>727.63699999999994</ele>
        <time>2026-04-25T11:45:43Z</time>
      </trkpt>
      <trkpt lat="40.686303991824389" lon="-2.59865895844996">
        <ele>727.62699999999995</ele>
        <time>2026-04-25T11:45:44Z</time>
      </trkpt>
      <trkpt lat="40.686330981552601" lon="-2.598611013963819">
        <ele>727.68299999999999</ele>
        <time>2026-04-25T11:45:45Z</time>
      </trkpt>
      <trkpt lat="40.686360988765955" lon="-2.598555022850633">
        <ele>727.89499999999998</ele>
        <time>2026-04-25T11:45:46Z</time>
      </trkpt>
      <trkpt lat="40.686410022899508" lon="-2.598500959575176">
        <ele>728.07399999999996</ele>
        <time>2026-04-25T11:45:47Z</time>
      </trkpt>
      <trkpt lat="40.68645897321403" lon="-2.5984410289675">
        <ele>728.29499999999996</ele>
        <time>2026-04-25T11:45:48Z</time>
      </trkpt>
      <trkpt lat="40.686513958498836" lon="-2.59837799705565">
        <ele>728.25999999999999</ele>
        <time>2026-04-25T11:45:49Z</time>
      </trkpt>
      <trkpt lat="40.686572967097163" lon="-2.59831203147769">
        <ele>728.41800000000001</ele>
        <time>2026-04-25T11:45:50Z</time>
      </trkpt>
      <trkpt lat="40.68663096986711" lon="-2.598247993737459">
        <ele>728.89800000000002</ele>
        <time>2026-04-25T11:45:51Z</time>
      </trkpt>
      <trkpt lat="40.68669299595058" lon="-2.59818596765399">
        <ele>729.21699999999998</ele>
        <time>2026-04-25T11:45:52Z</time>
      </trkpt>
      <trkpt lat="40.686753010377288" lon="-2.598123019561172">
        <ele>729.40899999999999</ele>
        <time>2026-04-25T11:45:53Z</time>
      </trkpt>
      <trkpt lat="40.686811013147235" lon="-2.598060993477702">
        <ele>729.65300000000002</ele>
        <time>2026-04-25T11:45:54Z</time>
      </trkpt>
      <trkpt lat="40.68686499260366" lon="-2.597999973222613">
        <ele>729.86699999999996</ele>
        <time>2026-04-25T11:45:55Z</time>
      </trkpt>
      <trkpt lat="40.686917966231704" lon="-2.597938030958176">
        <ele>729.85199999999998</ele>
        <time>2026-04-25T11:45:56Z</time>
      </trkpt>
      <trkpt lat="40.686969012022018" lon="-2.597876004874706">
        <ele>730.29200000000003</ele>
        <time>2026-04-25T11:45:57Z</time>
      </trkpt>
      <trkpt lat="40.687017040327191" lon="-2.597816996276379">
        <ele>730.43799999999999</ele>
        <time>2026-04-25T11:45:58Z</time>
      </trkpt>
      <trkpt lat="40.687064984813333" lon="-2.597762010991573">
        <ele>730.64999999999998</ele>
        <time>2026-04-25T11:45:59Z</time>
      </trkpt>
      <trkpt lat="40.687113013118505" lon="-2.597709037363529">
        <ele>730.87900000000002</ele>
        <time>2026-04-25T11:46:00Z</time>
      </trkpt>
      <trkpt lat="40.687161041423678" lon="-2.597658997401595">
        <ele>731.26999999999998</ele>
        <time>2026-04-25T11:46:01Z</time>
      </trkpt>
      <trkpt lat="40.687207980081439" lon="-2.597610969096422">
        <ele>731.44500000000005</ele>
        <time>2026-04-25T11:46:02Z</time>
      </trkpt>
      <trkpt lat="40.68725198507309" lon="-2.597566964104772">
        <ele>731.62400000000002</ele>
        <time>2026-04-25T11:46:03Z</time>
      </trkpt>
      <trkpt lat="40.687290038913488" lon="-2.597531005740166">
        <ele>731.60400000000004</ele>
        <time>2026-04-25T11:46:04Z</time>
      </trkpt>
      <trkpt lat="40.687319962307811" lon="-2.597502004355192">
        <ele>731.61400000000003</ele>
        <time>2026-04-25T11:46:05Z</time>
      </trkpt>
      <trkpt lat="40.687341000884771" lon="-2.597483983263373">
        <ele>731.80899999999997</ele>
        <time>2026-04-25T11:46:06Z</time>
      </trkpt>
      <trkpt lat="40.687363967299461" lon="-2.597465040162206">
        <ele>731.48400000000004</ele>
        <time>2026-04-25T11:46:12Z</time>
      </trkpt>
      <trkpt lat="40.687388023361564" lon="-2.597442995756865">
        <ele>731.44799999999998</ele>
        <time>2026-04-25T11:46:13Z</time>
      </trkpt>
      <trkpt lat="40.687416018918157" lon="-2.59741298854351">
        <ele>731.423</ele>
        <time>2026-04-25T11:46:14Z</time>
      </trkpt>
      <trkpt lat="40.68744502030313" lon="-2.597379041835666">
        <ele>731.64300000000003</ele>
        <time>2026-04-25T11:46:15Z</time>
      </trkpt>
      <trkpt lat="40.687479972839355" lon="-2.597342999652028">
        <ele>731.84900000000005</ele>
        <time>2026-04-25T11:46:16Z</time>
      </trkpt>
      <trkpt lat="40.687519032508135" lon="-2.597307963296771">
        <ele>732.09100000000001</ele>
        <time>2026-04-25T11:46:17Z</time>
      </trkpt>
      <trkpt lat="40.687562031671405" lon="-2.597269993275404">
        <ele>732.02999999999997</ele>
        <time>2026-04-25T11:46:18Z</time>
      </trkpt>
      <trkpt lat="40.687611987814307" lon="-2.597233029082418">
        <ele>732.26099999999997</ele>
        <time>2026-04-25T11:46:19Z</time>
      </trkpt>
      <trkpt lat="40.687664039433002" lon="-2.597194975242019">
        <ele>732.24599999999998</ele>
        <time>2026-04-25T11:46:20Z</time>
      </trkpt>
      <trkpt lat="40.687727993354201" lon="-2.597155999392271">
        <ele>732.43600000000004</ele>
        <time>2026-04-25T11:46:21Z</time>
      </trkpt>
      <trkpt lat="40.687783984467387" lon="-2.597117023542523">
        <ele>732.41700000000003</ele>
        <time>2026-04-25T11:46:22Z</time>
      </trkpt>
      <trkpt lat="40.687850033864379" lon="-2.597073018550873">
        <ele>732.41800000000001</ele>
        <time>2026-04-25T11:46:23Z</time>
      </trkpt>
      <trkpt lat="40.687915999442339" lon="-2.597031025215983">
        <ele>732.40899999999999</ele>
        <time>2026-04-25T11:46:24Z</time>
      </trkpt>
      <trkpt lat="40.68798003718257" lon="-2.596990037709475">
        <ele>732.45500000000004</ele>
        <time>2026-04-25T11:46:25Z</time>
      </trkpt>
      <trkpt lat="40.688044996932149" lon="-2.596948966383934">
        <ele>732.47900000000004</ele>
        <time>2026-04-25T11:46:26Z</time>
      </trkpt>
      <trkpt lat="40.688108028843999" lon="-2.596905967220664">
        <ele>732.274</ele>
        <time>2026-04-25T11:46:27Z</time>
      </trkpt>
      <trkpt lat="40.688170976936817" lon="-2.596860034391284">
        <ele>732.25400000000002</ele>
        <time>2026-04-25T11:46:28Z</time>
      </trkpt>
      <trkpt lat="40.688235014677048" lon="-2.596814017742872">
        <ele>732.26999999999998</ele>
        <time>2026-04-25T11:46:29Z</time>
      </trkpt>
      <trkpt lat="40.688301986083388" lon="-2.596776969730854">
        <ele>732.25199999999995</ele>
        <time>2026-04-25T11:46:30Z</time>
      </trkpt>
      <trkpt lat="40.68836803548038" lon="-2.5967469625175">
        <ele>732.27099999999996</ele>
        <time>2026-04-25T11:46:31Z</time>
      </trkpt>
      <trkpt lat="40.688430983573198" lon="-2.596722990274429">
        <ele>732.23199999999997</ele>
        <time>2026-04-25T11:46:32Z</time>
      </trkpt>
      <trkpt lat="40.688493009656668" lon="-2.59670396335423">
        <ele>732.08699999999999</ele>
        <time>2026-04-25T11:46:33Z</time>
      </trkpt>
      <trkpt lat="40.688546989113092" lon="-2.596693988889456">
        <ele>731.66899999999998</ele>
        <time>2026-04-25T11:46:34Z</time>
      </trkpt>
      <trkpt lat="40.688591999933124" lon="-2.596688959747553">
        <ele>731.60400000000004</ele>
        <time>2026-04-25T11:46:35Z</time>
      </trkpt>
      <trkpt lat="40.68862896412611" lon="-2.596687031909823">
        <ele>731.22400000000005</ele>
        <time>2026-04-25T11:46:36Z</time>
      </trkpt>
      <trkpt lat="40.688654026016593" lon="-2.596685020253062">
        <ele>731.20899999999995</ele>
        <time>2026-04-25T11:46:37Z</time>
      </trkpt>
      <trkpt lat="40.688676992431283" lon="-2.596683008596301">
        <ele>730.88800000000003</ele>
        <time>2026-04-25T11:46:39Z</time>
      </trkpt>
      <trkpt lat="40.688702976331115" lon="-2.596677979454398">
        <ele>730.44200000000001</ele>
        <time>2026-04-25T11:46:41Z</time>
      </trkpt>
      <trkpt lat="40.688726026564837" lon="-2.596675967797637">
        <ele>730.27700000000004</ele>
        <time>2026-04-25T11:46:42Z</time>
      </trkpt>
      <trkpt lat="40.688759973272681" lon="-2.596674039959908">
        <ele>730.29700000000003</ele>
        <time>2026-04-25T11:46:43Z</time>
      </trkpt>
      <trkpt lat="40.688801966607571" lon="-2.596671022474766">
        <ele>730.21299999999997</ele>
        <time>2026-04-25T11:46:44Z</time>
      </trkpt>
      <trkpt lat="40.688849994912744" lon="-2.596665993332863">
        <ele>730.495</ele>
        <time>2026-04-25T11:46:45Z</time>
      </trkpt>
      <trkpt lat="40.688901040703058" lon="-2.59665803052485">
        <ele>730.22400000000005</ele>
        <time>2026-04-25T11:46:46Z</time>
      </trkpt>
      <trkpt lat="40.68894999101758" lon="-2.596649983897805">
        <ele>730.67499999999995</ele>
        <time>2026-04-25T11:46:47Z</time>
      </trkpt>
      <trkpt lat="40.688999025151134" lon="-2.596643026918173">
        <ele>730.66999999999996</ele>
        <time>2026-04-25T11:46:48Z</time>
      </trkpt>
      <trkpt lat="40.689048981294036" lon="-2.596634980291128">
        <ele>730.82299999999998</ele>
        <time>2026-04-25T11:46:49Z</time>
      </trkpt>
      <trkpt lat="40.689102960750461" lon="-2.596627017483115">
        <ele>730.88300000000004</ele>
        <time>2026-04-25T11:46:50Z</time>
      </trkpt>
      <trkpt lat="40.689160041511059" lon="-2.596619976684451">
        <ele>730.81100000000004</ele>
        <time>2026-04-25T11:46:51Z</time>
      </trkpt>
      <trkpt lat="40.689302030950785" lon="-2.596620982512832">
        <ele>730.80899999999997</ele>
        <time>2026-04-25T11:46:53Z</time>
      </trkpt>
      <trkpt lat="40.689371014013886" lon="-2.596622994169593">
        <ele>730.654</ele>
        <time>2026-04-25T11:46:54Z</time>
      </trkpt>
      <trkpt lat="40.689433962106705" lon="-2.596625005826354">
        <ele>730.69799999999998</ele>
        <time>2026-04-25T11:46:55Z</time>
      </trkpt>
      <trkpt lat="40.689492970705032" lon="-2.596625005826354">
        <ele>730.62300000000005</ele>
        <time>2026-04-25T11:46:56Z</time>
      </trkpt>
      <trkpt lat="40.689548961818218" lon="-2.596623999997973">
        <ele>730.61300000000006</ele>
        <time>2026-04-25T11:46:57Z</time>
      </trkpt>
      <trkpt lat="40.689599001780152" lon="-2.596625005826354">
        <ele>730.62900000000002</ele>
        <time>2026-04-25T11:46:58Z</time>
      </trkpt>
      <trkpt lat="40.689647030085325" lon="-2.596631040796638">
        <ele>730.44100000000003</ele>
        <time>2026-04-25T11:46:59Z</time>
      </trkpt>
      <trkpt lat="40.689690029248595" lon="-2.596647972241044">
        <ele>730.21000000000004</ele>
        <time>2026-04-25T11:47:00Z</time>
      </trkpt>
      <trkpt lat="40.689724981784821" lon="-2.596675967797637">
        <ele>730.24099999999999</ele>
        <time>2026-04-25T11:47:01Z</time>
      </trkpt>
      <trkpt lat="40.689751971513033" lon="-2.596704969182611">
        <ele>730.08600000000001</ele>
        <time>2026-04-25T11:47:02Z</time>
      </trkpt>
      <trkpt lat="40.689781978726387" lon="-2.596728019416332">
        <ele>730.01800000000003</ele>
        <time>2026-04-25T11:47:03Z</time>
      </trkpt>
      <trkpt lat="40.689805028960109" lon="-2.596743023023009">
        <ele>729.89800000000002</ele>
        <time>2026-04-25T11:47:04Z</time>
      </trkpt>
      <trkpt lat="40.689827995374799" lon="-2.596747968345881">
        <ele>729.81700000000001</ele>
        <time>2026-04-25T11:47:08Z</time>
      </trkpt>
      <trkpt lat="40.689844004809856" lon="-2.596760960295796">
        <ele>729.60900000000004</ele>
        <time>2026-04-25T11:47:12Z</time>
      </trkpt>
      <trkpt lat="40.689882980659604" lon="-2.596783004701138">
        <ele>729.47299999999996</ele>
        <time>2026-04-25T11:47:14Z</time>
      </trkpt>
      <trkpt lat="40.689905025064945" lon="-2.596793984994292">
        <ele>729.64700000000005</ele>
        <time>2026-04-25T11:47:15Z</time>
      </trkpt>
      <trkpt lat="40.689934026449919" lon="-2.596801025792956">
        <ele>729.67200000000003</ele>
        <time>2026-04-25T11:47:17Z</time>
      </trkpt>
      <trkpt lat="40.689960010349751" lon="-2.596805971115828">
        <ele>729.68200000000002</ele>
        <time>2026-04-25T11:47:19Z</time>
      </trkpt>
      <trkpt lat="40.689982976764441" lon="-2.596808988600969">
        <ele>729.06799999999998</ele>
        <time>2026-04-25T11:47:46Z</time>
      </trkpt>
      <trkpt lat="40.689999992027879" lon="-2.596819968894124">
        <ele>729.05999999999995</ele>
        <time>2026-04-25T11:47:47Z</time>
      </trkpt>
      <trkpt lat="40.69002203643322" lon="-2.596823992207646">
        <ele>729.029</ele>
        <time>2026-04-25T11:47:48Z</time>
      </trkpt>
      <trkpt lat="40.690043997019529" lon="-2.596834972500801">
        <ele>729.47000000000003</ele>
        <time>2026-04-25T11:47:49Z</time>
      </trkpt>
      <trkpt lat="40.690166037529707" lon="-2.596845030784607">
        <ele>729.88499999999999</ele>
        <time>2026-04-25T11:47:53Z</time>
      </trkpt>
      <trkpt lat="40.690267961472273" lon="-2.596860034391284">
        <ele>730.29100000000005</ele>
        <time>2026-04-25T11:47:56Z</time>
      </trkpt>
      <trkpt lat="40.690379021689296" lon="-2.596896998584271">
        <ele>730.88099999999997</ele>
        <time>2026-04-25T11:47:59Z</time>
      </trkpt>
      <trkpt lat="40.690482035279274" lon="-2.596936980262399">
        <ele>731.41899999999998</ele>
        <time>2026-04-25T11:48:02Z</time>
      </trkpt>
      <trkpt lat="40.690586976706982" lon="-2.596976039931178">
        <ele>732.00900000000001</ele>
        <time>2026-04-25T11:48:06Z</time>
      </trkpt>
      <trkpt lat="40.690672975033522" lon="-2.59700202383101">
        <ele>732.08100000000002</ele>
        <time>2026-04-25T11:48:09Z</time>
      </trkpt>
      <trkpt lat="40.690700970590115" lon="-2.597014009952545">
        <ele>732.09500000000003</ele>
        <time>2026-04-25T11:48:10Z</time>
      </trkpt>
      <trkpt lat="40.690729971975088" lon="-2.597023984417319">
        <ele>732.21000000000004</ele>
        <time>2026-04-25T11:48:11Z</time>
      </trkpt>
      <trkpt lat="40.690758973360062" lon="-2.597034964710474">
        <ele>732.23000000000002</ele>
        <time>2026-04-25T11:48:12Z</time>
      </trkpt>
      <trkpt lat="40.690793003886938" lon="-2.59704602882266">
        <ele>732.69600000000003</ele>
        <time>2026-04-25T11:48:13Z</time>
      </trkpt>
      <trkpt lat="40.690827034413815" lon="-2.597056003287435">
        <ele>732.66800000000001</ele>
        <time>2026-04-25T11:48:14Z</time>
      </trkpt>
      <trkpt lat="40.69086198695004" lon="-2.597063966095448">
        <ele>732.81700000000001</ele>
        <time>2026-04-25T11:48:15Z</time>
      </trkpt>
      <trkpt lat="40.690898029133677" lon="-2.597068995237351">
        <ele>732.85799999999995</ele>
        <time>2026-04-25T11:48:16Z</time>
      </trkpt>
      <trkpt lat="40.690932981669903" lon="-2.597074024379253">
        <ele>733.04300000000001</ele>
        <time>2026-04-25T11:48:17Z</time>
      </trkpt>
      <trkpt lat="40.690971035510302" lon="-2.597078969702125">
        <ele>732.82600000000002</ele>
        <time>2026-04-25T11:48:18Z</time>
      </trkpt>
      <trkpt lat="40.691009005531669" lon="-2.597083998844028">
        <ele>733.04700000000003</ele>
        <time>2026-04-25T11:48:19Z</time>
      </trkpt>
      <trkpt lat="40.691042030230165" lon="-2.597096990793943">
        <ele>732.81100000000004</ele>
        <time>2026-04-25T11:48:20Z</time>
      </trkpt>
      <trkpt lat="40.691078994423151" lon="-2.597105959430337">
        <ele>733.00900000000001</ele>
        <time>2026-04-25T11:48:21Z</time>
      </trkpt>
      <trkpt lat="40.691115036606789" lon="-2.597113000229001">
        <ele>732.654</ele>
        <time>2026-04-25T11:48:22Z</time>
      </trkpt>
      <trkpt lat="40.691150994971395" lon="-2.597126998007298">
        <ele>732.69799999999998</ele>
        <time>2026-04-25T11:48:23Z</time>
      </trkpt>
      <trkpt lat="40.691187037155032" lon="-2.597139989957213">
        <ele>732.29300000000001</ele>
        <time>2026-04-25T11:48:24Z</time>
      </trkpt>
      <trkpt lat="40.691222995519638" lon="-2.597154993563891">
        <ele>732.28300000000002</ele>
        <time>2026-04-25T11:48:25Z</time>
      </trkpt>
      <trkpt lat="40.691251996904612" lon="-2.59717502631247">
        <ele>732.26900000000001</ele>
        <time>2026-04-25T11:48:26Z</time>
      </trkpt>
      <trkpt lat="40.691282004117966" lon="-2.597194975242019">
        <ele>732.02099999999996</ele>
        <time>2026-04-25T11:48:27Z</time>
      </trkpt>
      <trkpt lat="40.691307988017797" lon="-2.597215007990599">
        <ele>732.23000000000002</ele>
        <time>2026-04-25T11:48:28Z</time>
      </trkpt>
      <trkpt lat="40.691337995231152" lon="-2.597235040739179">
        <ele>732.29100000000005</ele>
        <time>2026-04-25T11:48:29Z</time>
      </trkpt>
      <trkpt lat="40.691426005214453" lon="-2.597315004095435">
        <ele>732.66600000000005</ele>
        <time>2026-04-25T11:48:32Z</time>
      </trkpt>
      <trkpt lat="40.691517032682896" lon="-2.597393039613962">
        <ele>732.48699999999997</ele>
        <time>2026-04-25T11:48:35Z</time>
      </trkpt>
      <trkpt lat="40.691601019352674" lon="-2.597484989091754">
        <ele>732.84199999999998</ele>
        <time>2026-04-25T11:48:38Z</time>
      </trkpt>
      <trkpt lat="40.691666984930634" lon="-2.597590014338493">
        <ele>732.42600000000004</ele>
        <time>2026-04-25T11:48:41Z</time>
      </trkpt>
      <trkpt lat="40.691707972437143" lon="-2.597717000171542">
        <ele>731.80899999999997</ele>
        <time>2026-04-25T11:48:46Z</time>
      </trkpt>
      <trkpt lat="40.691760024055839" lon="-2.597815990447998">
        <ele>732.28999999999996</ele>
        <time>2026-04-25T11:48:49Z</time>
      </trkpt>
      <trkpt lat="40.691815009340644" lon="-2.597964014858007">
        <ele>732.05399999999997</ele>
        <time>2026-04-25T11:48:53Z</time>
      </trkpt>
      <trkpt lat="40.691843004897237" lon="-2.598081026226282">
        <ele>731.87900000000002</ele>
        <time>2026-04-25T11:48:56Z</time>
      </trkpt>
      <trkpt lat="40.691889021545649" lon="-2.598217986524105">
        <ele>731.65899999999999</ele>
        <time>2026-04-25T11:49:00Z</time>
      </trkpt>
      <trkpt lat="40.691906036809087" lon="-2.598353018984199">
        <ele>731.495</ele>
        <time>2026-04-25T11:49:04Z</time>
      </trkpt>
      <trkpt lat="40.691911987960339" lon="-2.598509006202221">
        <ele>731.25699999999995</ele>
        <time>2026-04-25T11:49:08Z</time>
      </trkpt>
      <trkpt lat="40.691921962425113" lon="-2.59863699786365">
        <ele>731.25599999999997</ele>
        <time>2026-04-25T11:49:11Z</time>
      </trkpt>
      <trkpt lat="40.691916011273861" lon="-2.598769012838602">
        <ele>730.85699999999997</ele>
        <time>2026-04-25T11:49:14Z</time>
      </trkpt>
      <trkpt lat="40.691909976303577" lon="-2.598922988399863">
        <ele>730.61199999999997</ele>
        <time>2026-04-25T11:49:18Z</time>
      </trkpt>
      <trkpt lat="40.69189103320241" lon="-2.599070006981492">
        <ele>730.89599999999996</ele>
        <time>2026-04-25T11:49:22Z</time>
      </trkpt>
      <trkpt lat="40.691890027374029" lon="-2.599201016128063">
        <ele>730.23099999999999</ele>
        <time>2026-04-25T11:49:25Z</time>
      </trkpt>
      <trkpt lat="40.69189203903079" lon="-2.599320039153099">
        <ele>729.82399999999996</ele>
        <time>2026-04-25T11:49:28Z</time>
      </trkpt>
      <trkpt lat="40.691892961040139" lon="-2.599462028592825">
        <ele>730.00900000000001</ele>
        <time>2026-04-25T11:49:32Z</time>
      </trkpt>
      <trkpt lat="40.691881980746984" lon="-2.59960200637579">
        <ele>729.83100000000002</ele>
        <time>2026-04-25T11:49:36Z</time>
      </trkpt>
      <trkpt lat="40.691844010725617" lon="-2.599750030785799">
        <ele>729.64499999999998</ele>
        <time>2026-04-25T11:49:40Z</time>
      </trkpt>
      <trkpt lat="40.691818026825786" lon="-2.599899983033538">
        <ele>729.63999999999999</ele>
        <time>2026-04-25T11:49:44Z</time>
      </trkpt>
      <trkpt lat="40.691792964935303" lon="-2.600029986351728">
        <ele>729.84000000000003</ele>
        <time>2026-04-25T11:49:49Z</time>
      </trkpt>
      <trkpt lat="40.691766981035471" lon="-2.600173987448216">
        <ele>730.27599999999995</ele>
        <time>2026-04-25T11:49:53Z</time>
      </trkpt>
      <trkpt lat="40.691758012399077" lon="-2.600214974954724">
        <ele>730.24800000000005</ele>
        <time>2026-04-25T11:49:54Z</time>
      </trkpt>
      <trkpt lat="40.691751977428794" lon="-2.600253028795123">
        <ele>730.46699999999998</ele>
        <time>2026-04-25T11:49:55Z</time>
      </trkpt>
      <trkpt lat="40.691748959943652" lon="-2.600285969674587">
        <ele>730.48800000000006</ele>
        <time>2026-04-25T11:49:56Z</time>
      </trkpt>
      <trkpt lat="40.691737979650497" lon="-2.600318994373083">
        <ele>730.28300000000002</ele>
        <time>2026-04-25T11:49:57Z</time>
      </trkpt>
      <trkpt lat="40.691726999357343" lon="-2.600351013243198">
        <ele>730.476</ele>
        <time>2026-04-25T11:49:58Z</time>
      </trkpt>
      <trkpt lat="40.69172297604382" lon="-2.600383032113314">
        <ele>730.28999999999996</ele>
        <time>2026-04-25T11:49:59Z</time>
      </trkpt>
      <trkpt lat="40.691703027114272" lon="-2.600479004904628">
        <ele>730.41899999999998</ele>
        <time>2026-04-25T11:50:02Z</time>
      </trkpt>
      <trkpt lat="40.69169900380075" lon="-2.600511023774743">
        <ele>730.60900000000004</ele>
        <time>2026-04-25T11:50:04Z</time>
      </trkpt>
      <trkpt lat="40.691693974658847" lon="-2.600534996017814">
        <ele>730.85900000000004</ele>
        <time>2026-04-25T11:50:07Z</time>
      </trkpt>
      <trkpt lat="40.691730016842484" lon="-2.60065401904285">
        <ele>731.24300000000005</ele>
        <time>2026-04-25T11:50:15Z</time>
      </trkpt>
      <trkpt lat="40.6917620357126" lon="-2.600770024582744">
        <ele>733.89800000000002</ele>
        <time>2026-04-25T11:50:26Z</time>
      </trkpt>
      <trkpt lat="40.691766981035471" lon="-2.600796008482575">
        <ele>734.24800000000005</ele>
        <time>2026-04-25T11:50:28Z</time>
      </trkpt>
      <trkpt lat="40.691776033490896" lon="-2.60082601569593">
        <ele>734.44399999999996</ele>
        <time>2026-04-25T11:50:30Z</time>
      </trkpt>
      <trkpt lat="40.691782990470529" lon="-2.600859040394425">
        <ele>734.65599999999995</ele>
        <time>2026-04-25T11:50:32Z</time>
      </trkpt>
      <trkpt lat="40.691790031269193" lon="-2.600883012637496">
        <ele>735.07500000000005</ele>
        <time>2026-04-25T11:50:34Z</time>
      </trkpt>
      <trkpt lat="40.69180503487587" lon="-2.600915031507611">
        <ele>735.21600000000001</ele>
        <time>2026-04-25T11:50:37Z</time>
      </trkpt>
      <trkpt lat="40.691818026825786" lon="-2.600931040942669">
        <ele>736.02099999999996</ele>
        <time>2026-04-25T11:50:39Z</time>
      </trkpt>
      <trkpt lat="40.691832024604082" lon="-2.600947972387075">
        <ele>736.29600000000005</ele>
        <time>2026-04-25T11:50:41Z</time>
      </trkpt>
      <trkpt lat="40.69185096770525" lon="-2.600970016792417">
        <ele>736.63099999999997</ele>
        <time>2026-04-25T11:50:43Z</time>
      </trkpt>
      <trkpt lat="40.691865971311927" lon="-2.600990971550345">
        <ele>737.22400000000005</ele>
        <time>2026-04-25T11:50:46Z</time>
      </trkpt>
      <trkpt lat="40.691888015717268" lon="-2.601007986813784">
        <ele>737.60900000000004</ele>
        <time>2026-04-25T11:50:49Z</time>
      </trkpt>
      <trkpt lat="40.691911987960339" lon="-2.6010209787637">
        <ele>738.42100000000005</ele>
        <time>2026-04-25T11:50:52Z</time>
      </trkpt>
      <trkpt lat="40.691923974081874" lon="-2.601043023169041">
        <ele>739.03499999999997</ele>
        <time>2026-04-25T11:50:54Z</time>
      </trkpt>
      <trkpt lat="40.691945012658834" lon="-2.601068001240492">
        <ele>739.49000000000001</ele>
        <time>2026-04-25T11:50:57Z</time>
      </trkpt>
      <trkpt lat="40.69195699878037" lon="-2.601091973483563">
        <ele>739.83000000000004</ele>
        <time>2026-04-25T11:51:00Z</time>
      </trkpt>
      <trkpt lat="40.691964039579034" lon="-2.601118041202426">
        <ele>740.42600000000004</ele>
        <time>2026-04-25T11:51:03Z</time>
      </trkpt>
      <trkpt lat="40.69198097102344" lon="-2.601136984303594">
        <ele>741.03800000000001</ele>
        <time>2026-04-25T11:51:06Z</time>
      </trkpt>
      <trkpt lat="40.692005027085543" lon="-2.601143019273877">
        <ele>741.45699999999999</ele>
        <time>2026-04-25T11:51:08Z</time>
      </trkpt>
      <trkpt lat="40.692027993500233" lon="-2.601157017052174">
        <ele>742.03800000000001</ele>
        <time>2026-04-25T11:51:11Z</time>
      </trkpt>
      <trkpt lat="40.692051965743303" lon="-2.601173026487231">
        <ele>743.04300000000001</ele>
        <time>2026-04-25T11:51:14Z</time>
      </trkpt>
      <trkpt lat="40.692076021805406" lon="-2.601187024265528">
        <ele>743.68799999999999</ele>
        <time>2026-04-25T11:51:17Z</time>
      </trkpt>
      <trkpt lat="40.692097982391715" lon="-2.601209990680218">
        <ele>744.22400000000005</ele>
        <time>2026-04-25T11:51:20Z</time>
      </trkpt>
      <trkpt lat="40.692123966291547" lon="-2.601218959316611">
        <ele>745.02599999999995</ele>
        <time>2026-04-25T11:51:23Z</time>
      </trkpt>
      <trkpt lat="40.692139975726604" lon="-2.601242009550333">
        <ele>745.60900000000004</ele>
        <time>2026-04-25T11:51:26Z</time>
      </trkpt>
      <trkpt lat="40.69215003401041" lon="-2.601263970136643">
        <ele>746.05999999999995</ele>
        <time>2026-04-25T11:51:28Z</time>
      </trkpt>
      <trkpt lat="40.692156990990043" lon="-2.601286014541984">
        <ele>746.68399999999997</ele>
        <time>2026-04-25T11:51:31Z</time>
      </trkpt>
      <trkpt lat="40.692166965454817" lon="-2.601306969299913">
        <ele>747.06899999999996</ele>
        <time>2026-04-25T11:51:33Z</time>
      </trkpt>
      <trkpt lat="40.692188004031777" lon="-2.60131903924048">
        <ele>747.279</ele>
        <time>2026-04-25T11:51:36Z</time>
      </trkpt>
      <trkpt lat="40.692213987931609" lon="-2.601332031190395">
        <ele>747.66499999999996</ele>
        <time>2026-04-25T11:51:39Z</time>
      </trkpt>
      <trkpt lat="40.692220022901893" lon="-2.601354997605085">
        <ele>748.21699999999998</ele>
        <time>2026-04-25T11:51:42Z</time>
      </trkpt>
      <trkpt lat="40.692207030951977" lon="-2.601374024525285">
        <ele>748.88599999999997</ele>
        <time>2026-04-25T11:51:45Z</time>
      </trkpt>
      <trkpt lat="40.692210970446467" lon="-2.601401014253497">
        <ele>749.077</ele>
        <time>2026-04-25T11:51:47Z</time>
      </trkpt>
      <trkpt lat="40.692227985709906" lon="-2.601414006203413">
        <ele>749.62199999999996</ele>
        <time>2026-04-25T11:51:49Z</time>
      </trkpt>
      <trkpt lat="40.692252963781357" lon="-2.601423980668187">
        <ele>750.49400000000003</ele>
        <time>2026-04-25T11:51:52Z</time>
      </trkpt>
      <trkpt lat="40.692275008186698" lon="-2.601430015638471">
        <ele>750.85699999999997</ele>
        <time>2026-04-25T11:51:55Z</time>
      </trkpt>
      <trkpt lat="40.692297974601388" lon="-2.601443007588387">
        <ele>751.822</ele>
        <time>2026-04-25T11:51:58Z</time>
      </trkpt>
      <trkpt lat="40.692319013178349" lon="-2.601458011195064">
        <ele>752.00900000000001</ele>
        <time>2026-04-25T11:52:00Z</time>
      </trkpt>
      <trkpt lat="40.6923439912498" lon="-2.601464968174696">
        <ele>752.23099999999999</ele>
        <time>2026-04-25T11:52:02Z</time>
      </trkpt>
      <trkpt lat="40.692366035655141" lon="-2.601474020630121">
        <ele>752.27499999999998</ele>
        <time>2026-04-25T11:52:04Z</time>
      </trkpt>
      <trkpt lat="40.692382967099547" lon="-2.601490030065179">
        <ele>752.65999999999997</ele>
        <time>2026-04-25T11:52:06Z</time>
      </trkpt>
      <trkpt lat="40.692405011504889" lon="-2.601506039500237">
        <ele>752.85000000000002</ele>
        <time>2026-04-25T11:52:08Z</time>
      </trkpt>
      <trkpt lat="40.692427977919579" lon="-2.601516013965011">
        <ele>753.21600000000001</ele>
        <time>2026-04-25T11:52:10Z</time>
      </trkpt>
      <trkpt lat="40.692449016496539" lon="-2.601528000086546">
        <ele>753.49800000000005</ele>
        <time>2026-04-25T11:52:12Z</time>
      </trkpt>
      <trkpt lat="40.692467959597707" lon="-2.601538980379701">
        <ele>754.01700000000005</ele>
        <time>2026-04-25T11:52:14Z</time>
      </trkpt>
      <trkpt lat="40.692478017881513" lon="-2.601561024785042">
        <ele>754.02800000000002</ele>
        <time>2026-04-25T11:52:16Z</time>
      </trkpt>
      <trkpt lat="40.692499978467822" lon="-2.601563958451152">
        <ele>755.23299999999995</ele>
        <time>2026-04-25T11:52:19Z</time>
      </trkpt>
      <trkpt lat="40.692521017044783" lon="-2.601565970107913">
        <ele>755.49800000000005</ele>
        <time>2026-04-25T11:52:21Z</time>
      </trkpt>
      <trkpt lat="40.692545995116234" lon="-2.601575022563338">
        <ele>755.81500000000005</ele>
        <time>2026-04-25T11:52:24Z</time>
      </trkpt>
      <trkpt lat="40.692567033693194" lon="-2.601577034220099">
        <ele>756.226</ele>
        <time>2026-04-25T11:52:26Z</time>
      </trkpt>
      <trkpt lat="40.692581031471491" lon="-2.601602012291551">
        <ele>756.80899999999997</ele>
        <time>2026-04-25T11:52:29Z</time>
      </trkpt>
      <trkpt lat="40.692600980401039" lon="-2.601629002019763">
        <ele>756.41099999999994</ele>
        <time>2026-04-25T11:52:31Z</time>
      </trkpt>
      <trkpt lat="40.692612966522574" lon="-2.601648028939962">
        <ele>755.88499999999999</ele>
        <time>2026-04-25T11:52:33Z</time>
      </trkpt>
      <trkpt lat="40.692628975957632" lon="-2.601678036153317">
        <ele>755.27999999999997</ele>
        <time>2026-04-25T11:52:35Z</time>
      </trkpt>
      <trkpt lat="40.692652026191354" lon="-2.601694967597723">
        <ele>754.24000000000001</ele>
        <time>2026-04-25T11:52:37Z</time>
      </trkpt>
      <trkpt lat="40.692675998434424" lon="-2.601693961769342">
        <ele>753.64599999999996</ele>
        <time>2026-04-25T11:52:39Z</time>
      </trkpt>
      <trkpt lat="40.692707011476159" lon="-2.601680969819427">
        <ele>753.02800000000002</ele>
        <time>2026-04-25T11:52:42Z</time>
      </trkpt>
      <trkpt lat="40.692726038396358" lon="-2.601678036153317">
        <ele>752.077</ele>
        <time>2026-04-25T11:52:47Z</time>
      </trkpt>
      <trkpt lat="40.692754033952951" lon="-2.601670995354652">
        <ele>752.28800000000001</ele>
        <time>2026-04-25T11:52:49Z</time>
      </trkpt>
      <trkpt lat="40.692768031731248" lon="-2.601653980091214">
        <ele>752.84299999999996</ele>
        <time>2026-04-25T11:52:51Z</time>
      </trkpt>
      <trkpt lat="40.692787980660796" lon="-2.601636964827776">
        <ele>752.88900000000001</ele>
        <time>2026-04-25T11:52:54Z</time>
      </trkpt>
      <trkpt lat="40.692812958732247" lon="-2.601616010069847">
        <ele>752.40599999999995</ele>
        <time>2026-04-25T11:52:56Z</time>
      </trkpt>
      <trkpt lat="40.69283802062273" lon="-2.601589020341635">
        <ele>752.226</ele>
        <time>2026-04-25T11:52:58Z</time>
      </trkpt>
      <trkpt lat="40.692857969552279" lon="-2.601562030613422">
        <ele>752.00900000000001</ele>
        <time>2026-04-25T11:53:00Z</time>
      </trkpt>
      <trkpt lat="40.692878002300858" lon="-2.601541997864842">
        <ele>752.28999999999996</ele>
        <time>2026-04-25T11:53:02Z</time>
      </trkpt>
      <trkpt lat="40.692895017564297" lon="-2.601511990651488">
        <ele>752.06399999999996</ele>
        <time>2026-04-25T11:53:04Z</time>
      </trkpt>
      <trkpt lat="40.692915972322226" lon="-2.601495981216431">
        <ele>752.03899999999999</ele>
        <time>2026-04-25T11:53:06Z</time>
      </trkpt>
      <trkpt lat="40.69294698536396" lon="-2.601483995094895">
        <ele>751.49900000000002</ele>
        <time>2026-04-25T11:53:08Z</time>
      </trkpt>
      <trkpt lat="40.692980010062456" lon="-2.601466979831457">
        <ele>750.84500000000003</ele>
        <time>2026-04-25T11:53:10Z</time>
      </trkpt>
      <trkpt lat="40.693008005619049" lon="-2.601443007588387">
        <ele>750.697</ele>
        <time>2026-04-25T11:53:12Z</time>
      </trkpt>
      <trkpt lat="40.693034995347261" lon="-2.601413000375032">
        <ele>750.44600000000003</ele>
        <time>2026-04-25T11:53:14Z</time>
      </trkpt>
      <trkpt lat="40.693047987297177" lon="-2.601395985111594">
        <ele>750.49699999999996</ele>
        <time>2026-04-25T11:53:15Z</time>
      </trkpt>
      <trkpt lat="40.693063996732235" lon="-2.601376958191395">
        <ele>750.22199999999998</ele>
        <time>2026-04-25T11:53:16Z</time>
      </trkpt>
      <trkpt lat="40.693077994510531" lon="-2.601361032575369">
        <ele>750.21500000000003</ele>
        <time>2026-04-25T11:53:17Z</time>
      </trkpt>
      <trkpt lat="40.69309500977397" lon="-2.601347034797072">
        <ele>750.06500000000005</ele>
        <time>2026-04-25T11:53:18Z</time>
      </trkpt>
      <trkpt lat="40.693112025037408" lon="-2.601333959028125">
        <ele>750.01099999999997</ele>
        <time>2026-04-25T11:53:19Z</time>
      </trkpt>
      <trkpt lat="40.69313800893724" lon="-2.601316021755338">
        <ele>749.80899999999997</ele>
        <time>2026-04-25T11:53:21Z</time>
      </trkpt>
      <trkpt lat="40.69316198118031" lon="-2.601304035633802">
        <ele>750.09299999999996</ele>
        <time>2026-04-25T11:53:22Z</time>
      </trkpt>
      <trkpt lat="40.693189976736903" lon="-2.601290959864855">
        <ele>749.84699999999998</ele>
        <time>2026-04-25T11:53:23Z</time>
      </trkpt>
      <trkpt lat="40.693215038627386" lon="-2.601280985400081">
        <ele>750.01199999999994</ele>
        <time>2026-04-25T11:53:24Z</time>
      </trkpt>
      <trkpt lat="40.693239010870457" lon="-2.601275034248829">
        <ele>750.06200000000001</ele>
        <time>2026-04-25T11:53:25Z</time>
      </trkpt>
      <trkpt lat="40.693262983113527" lon="-2.601274028420448">
        <ele>749.62800000000004</ele>
        <time>2026-04-25T11:53:26Z</time>
      </trkpt>
      <trkpt lat="40.693287961184978" lon="-2.601267993450165">
        <ele>749.42999999999995</ele>
        <time>2026-04-25T11:53:27Z</time>
      </trkpt>
      <trkpt lat="40.693383011966944" lon="-2.601231029257178">
        <ele>748.22900000000004</ele>
        <time>2026-04-25T11:53:31Z</time>
      </trkpt>
      <trkpt lat="40.693476973101497" lon="-2.601228011772037">
        <ele>747.25</ele>
        <time>2026-04-25T11:53:35Z</time>
      </trkpt>
      <trkpt lat="40.693589961156249" lon="-2.601219965144992">
        <ele>746.06500000000005</ele>
        <time>2026-04-25T11:53:39Z</time>
      </trkpt>
      <trkpt lat="40.693646958097816" lon="-2.601224994286895">
        <ele>745.65499999999997</ele>
        <time>2026-04-25T11:53:41Z</time>
      </trkpt>
      <trkpt lat="40.69367503747344" lon="-2.601224994286895">
        <ele>745.40700000000004</ele>
        <time>2026-04-25T11:53:42Z</time>
      </trkpt>
      <trkpt lat="40.693704960867763" lon="-2.601223988458514">
        <ele>745.41700000000003</ele>
        <time>2026-04-25T11:53:43Z</time>
      </trkpt>
      <trkpt lat="40.6937600299716" lon="-2.601204961538315">
        <ele>744.80899999999997</ele>
        <time>2026-04-25T11:53:45Z</time>
      </trkpt>
      <trkpt lat="40.693788025528193" lon="-2.601194987073541">
        <ele>744.67700000000002</ele>
        <time>2026-04-25T11:53:46Z</time>
      </trkpt>
      <trkpt lat="40.693818032741547" lon="-2.60119004175067">
        <ele>744.42100000000005</ele>
        <time>2026-04-25T11:53:47Z</time>
      </trkpt>
      <trkpt lat="40.69384703412652" lon="-2.601185012608767">
        <ele>744.29600000000005</ele>
        <time>2026-04-25T11:53:48Z</time>
      </trkpt>
      <trkpt lat="40.693877041339874" lon="-2.601183000952005">
        <ele>744.01599999999996</ele>
        <time>2026-04-25T11:53:49Z</time>
      </trkpt>
      <trkpt lat="40.693906964734197" lon="-2.601178977638483">
        <ele>743.49199999999996</ele>
        <time>2026-04-25T11:53:50Z</time>
      </trkpt>
      <trkpt lat="40.693936971947551" lon="-2.601177971810103">
        <ele>743.26400000000001</ele>
        <time>2026-04-25T11:53:51Z</time>
      </trkpt>
      <trkpt lat="40.693966979160905" lon="-2.601169003173709">
        <ele>743.03300000000002</ele>
        <time>2026-04-25T11:53:52Z</time>
      </trkpt>
      <trkpt lat="40.693994974717498" lon="-2.601157017052174">
        <ele>742.88400000000001</ele>
        <time>2026-04-25T11:53:53Z</time>
      </trkpt>
      <trkpt lat="40.694022970274091" lon="-2.601145030930638">
        <ele>742.86900000000003</ele>
        <time>2026-04-25T11:53:54Z</time>
      </trkpt>
      <trkpt lat="40.694043003022671" lon="-2.60112700983882">
        <ele>742.66600000000005</ele>
        <time>2026-04-25T11:53:55Z</time>
      </trkpt>
      <trkpt lat="40.694137969985604" lon="-2.601066995412111">
        <ele>742.029</ele>
        <time>2026-04-25T11:54:00Z</time>
      </trkpt>
      <trkpt lat="40.694188009947538" lon="-2.601031037047505">
        <ele>742.42100000000005</ele>
        <time>2026-04-25T11:54:02Z</time>
      </trkpt>
      <trkpt lat="40.694210976362228" lon="-2.601019972935319">
        <ele>742.40899999999999</ele>
        <time>2026-04-25T11:54:03Z</time>
      </trkpt>
      <trkpt lat="40.69423402659595" lon="-2.601016033440828">
        <ele>742.678</ele>
        <time>2026-04-25T11:54:04Z</time>
      </trkpt>
      <trkpt lat="40.694257998839021" lon="-2.601007986813784">
        <ele>742.65200000000004</ele>
        <time>2026-04-25T11:54:05Z</time>
      </trkpt>
      <trkpt lat="40.694283982738853" lon="-2.600992983207107">
        <ele>742.697</ele>
        <time>2026-04-25T11:54:06Z</time>
      </trkpt>
      <trkpt lat="40.694312984123826" lon="-2.60097898542881">
        <ele>742.87699999999995</ele>
        <time>2026-04-25T11:54:07Z</time>
      </trkpt>
      <trkpt lat="40.694340979680419" lon="-2.600971022620797">
        <ele>742.85299999999995</ele>
        <time>2026-04-25T11:54:08Z</time>
      </trkpt>
      <trkpt lat="40.694366041570902" lon="-2.600962975993753">
        <ele>742.86500000000001</ele>
        <time>2026-04-25T11:54:09Z</time>
      </trkpt>
      <trkpt lat="40.694388002157211" lon="-2.600965993478894">
        <ele>742.67399999999998</ele>
        <time>2026-04-25T11:54:10Z</time>
      </trkpt>
      <trkpt lat="40.694414991885424" lon="-2.600979991257191">
        <ele>742.65499999999997</ele>
        <time>2026-04-25T11:54:11Z</time>
      </trkpt>
      <trkpt lat="40.694447010755539" lon="-2.600989965721965">
        <ele>742.26999999999998</ele>
        <time>2026-04-25T11:54:12Z</time>
      </trkpt>
      <trkpt lat="40.69447198882699" lon="-2.600986026227474">
        <ele>742.25099999999998</ele>
        <time>2026-04-25T11:54:13Z</time>
      </trkpt>
      <trkpt lat="40.694493027403951" lon="-2.600976973772049">
        <ele>741.40099999999995</ele>
        <time>2026-04-25T11:54:14Z</time>
      </trkpt>
      <trkpt lat="40.694515993818641" lon="-2.600974040105939">
        <ele>741.21100000000001</ele>
        <time>2026-04-25T11:54:15Z</time>
      </trkpt>
      <trkpt lat="40.694537032395601" lon="-2.600970016792417">
        <ele>741.00900000000001</ele>
        <time>2026-04-25T11:54:16Z</time>
      </trkpt>
      <trkpt lat="40.694635016843677" lon="-2.600916959345341">
        <ele>741.24699999999996</ele>
        <time>2026-04-25T11:54:21Z</time>
      </trkpt>
      <trkpt lat="40.694702994078398" lon="-2.600863985717297">
        <ele>741.25099999999998</ele>
        <time>2026-04-25T11:54:24Z</time>
      </trkpt>
      <trkpt lat="40.694725960493088" lon="-2.600844958797097">
        <ele>741.08600000000001</ele>
        <time>2026-04-25T11:54:25Z</time>
      </trkpt>
      <trkpt lat="40.69481598213315" lon="-2.600777987390757">
        <ele>741.69600000000003</ele>
        <time>2026-04-25T11:54:29Z</time>
      </trkpt>
      <trkpt lat="40.694899968802929" lon="-2.600723002105951">
        <ele>741.822</ele>
        <time>2026-04-25T11:54:33Z</time>
      </trkpt>
      <trkpt lat="40.694979010149837" lon="-2.600644966587424">
        <ele>742.85400000000004</ele>
        <time>2026-04-25T11:54:40Z</time>
      </trkpt>
      <trkpt lat="40.695052016526461" lon="-2.600566009059548">
        <ele>743.26300000000003</ele>
        <time>2026-04-25T11:54:46Z</time>
      </trkpt>
      <trkpt lat="40.695138014853001" lon="-2.600493002682924">
        <ele>743.654</ele>
        <time>2026-04-25T11:54:50Z</time>
      </trkpt>
      <trkpt lat="40.695239016786218" lon="-2.600426031276584">
        <ele>743.81899999999996</ele>
        <time>2026-04-25T11:54:55Z</time>
      </trkpt>
      <trkpt lat="40.695340018719435" lon="-2.600366016849876">
        <ele>744.02099999999996</ele>
        <time>2026-04-25T11:54:59Z</time>
      </trkpt>
      <trkpt lat="40.695430962368846" lon="-2.600300973281264">
        <ele>744.44100000000003</ele>
        <time>2026-04-25T11:55:04Z</time>
      </trkpt>
      <trkpt lat="40.695529030635953" lon="-2.600237019360066">
        <ele>744.40499999999997</ele>
        <time>2026-04-25T11:55:09Z</time>
      </trkpt>
      <trkpt lat="40.695614023134112" lon="-2.600175999104977">
        <ele>744.60900000000004</ele>
        <time>2026-04-25T11:55:13Z</time>
      </trkpt>
      <trkpt lat="40.695709995925426" lon="-2.600113973021507">
        <ele>744.69399999999996</ele>
        <time>2026-04-25T11:55:17Z</time>
      </trkpt>
      <trkpt lat="40.695822983980179" lon="-2.600081032142043">
        <ele>744.428</ele>
        <time>2026-04-25T11:55:21Z</time>
      </trkpt>
      <trkpt lat="40.695853997021914" lon="-2.600082037970424">
        <ele>744.24300000000005</ele>
        <time>2026-04-25T11:55:22Z</time>
      </trkpt>
      <trkpt lat="40.695962039753795" lon="-2.600082959979773">
        <ele>743.47299999999996</ele>
        <time>2026-04-25T11:55:26Z</time>
      </trkpt>
      <trkpt lat="40.696068992838264" lon="-2.600079020485282">
        <ele>742.69899999999996</ele>
        <time>2026-04-25T11:55:30Z</time>
      </trkpt>
      <trkpt lat="40.69610302336514" lon="-2.600081032142043">
        <ele>742.43100000000004</ele>
        <time>2026-04-25T11:55:31Z</time>
      </trkpt>
      <trkpt lat="40.696137975901365" lon="-2.600082037970424">
        <ele>742.26999999999998</ele>
        <time>2026-04-25T11:55:32Z</time>
      </trkpt>
      <trkpt lat="40.696163959801197" lon="-2.600079020485282">
        <ele>741.88099999999997</ele>
        <time>2026-04-25T11:55:33Z</time>
      </trkpt>
      <trkpt lat="40.696184998378158" lon="-2.600069968029857">
        <ele>741.64599999999996</ele>
        <time>2026-04-25T11:55:34Z</time>
      </trkpt>
      <trkpt lat="40.696249958127737" lon="-2.600029986351728">
        <ele>741.28899999999999</ele>
        <time>2026-04-25T11:55:37Z</time>
      </trkpt>
      <trkpt lat="40.696307038888335" lon="-2.600026968866587">
        <ele>740.40599999999995</ele>
        <time>2026-04-25T11:55:39Z</time>
      </trkpt>
      <trkpt lat="40.696339979767799" lon="-2.600025963038206">
        <ele>740.226</ele>
        <time>2026-04-25T11:55:40Z</time>
      </trkpt>
      <trkpt lat="40.696363030001521" lon="-2.600025041028857">
        <ele>740.00900000000001</ele>
        <time>2026-04-25T11:55:41Z</time>
      </trkpt>
      <trkpt lat="40.696395970880985" lon="-2.600023029372096">
        <ele>739.85000000000002</ele>
        <time>2026-04-25T11:55:42Z</time>
      </trkpt>
      <trkpt lat="40.696430001407862" lon="-2.60001003742218">
        <ele>739.28399999999999</ele>
        <time>2026-04-25T11:55:43Z</time>
      </trkpt>
      <trkpt lat="40.696528991684318" lon="-2.599996961653233">
        <ele>738.46900000000005</ele>
        <time>2026-04-25T11:55:46Z</time>
      </trkpt>
      <trkpt lat="40.696561010554433" lon="-2.599993022158742">
        <ele>738.23900000000003</ele>
        <time>2026-04-25T11:55:47Z</time>
      </trkpt>
      <trkpt lat="40.696585988625884" lon="-2.599992016330361">
        <ele>737.82500000000005</ele>
        <time>2026-04-25T11:55:48Z</time>
      </trkpt>
      <trkpt lat="40.696690008044243" lon="-2.599986987188458">
        <ele>736.85699999999997</ele>
        <time>2026-04-25T11:55:52Z</time>
      </trkpt>
      <trkpt lat="40.696799978613853" lon="-2.599980030208826">
        <ele>735.86599999999999</ele>
        <time>2026-04-25T11:55:56Z</time>
      </trkpt>
      <trkpt lat="40.69689704105258" lon="-2.599955974146724">
        <ele>735.24699999999996</ele>
        <time>2026-04-25T11:55:59Z</time>
      </trkpt>
      <trkpt lat="40.69698697887361" lon="-2.599927978590131">
        <ele>734.89200000000005</ele>
        <time>2026-04-25T11:56:03Z</time>
      </trkpt>
      <trkpt lat="40.697078006342053" lon="-2.599865030497313">
        <ele>734.23599999999999</ele>
        <time>2026-04-25T11:56:09Z</time>
      </trkpt>
      <trkpt lat="40.697154030203819" lon="-2.599781965836883">
        <ele>734.01700000000005</ele>
        <time>2026-04-25T11:56:13Z</time>
      </trkpt>
      <trkpt lat="40.697230976074934" lon="-2.599716000258923">
        <ele>733.61800000000005</ele>
        <time>2026-04-25T11:56:17Z</time>
      </trkpt>
      <trkpt lat="40.697299037128687" lon="-2.599622961133719">
        <ele>733.60900000000004</ele>
        <time>2026-04-25T11:56:22Z</time>
      </trkpt>
      <trkpt lat="40.697367014363408" lon="-2.599520031362772">
        <ele>733.48500000000001</ele>
        <time>2026-04-25T11:56:27Z</time>
      </trkpt>
      <trkpt lat="40.697444966062903" lon="-2.599421041086316">
        <ele>733.44899999999996</ele>
        <time>2026-04-25T11:56:32Z</time>
      </trkpt>
      <trkpt lat="40.69752199575305" lon="-2.599317021667957">
        <ele>733.654</ele>
        <time>2026-04-25T11:56:37Z</time>
      </trkpt>
      <trkpt lat="40.697573963552713" lon="-2.599203027784824">
        <ele>733.26400000000001</ele>
        <time>2026-04-25T11:56:42Z</time>
      </trkpt>
      <trkpt lat="40.697616040706635" lon="-2.599145025014877">
        <ele>733.25999999999999</ele>
        <time>2026-04-25T11:56:44Z</time>
      </trkpt>
      <trkpt lat="40.697636995464563" lon="-2.599113006144762">
        <ele>733.27200000000005</ele>
        <time>2026-04-25T11:56:45Z</time>
      </trkpt>
      <trkpt lat="40.697654010728002" lon="-2.59908702224493">
        <ele>733.02099999999996</ele>
        <time>2026-04-25T11:56:46Z</time>
      </trkpt>
      <trkpt lat="40.697691980749369" lon="-2.599007980898023">
        <ele>733.03200000000004</ele>
        <time>2026-04-25T11:56:49Z</time>
      </trkpt>
      <trkpt lat="40.697703966870904" lon="-2.598988031968474">
        <ele>733.24699999999996</ele>
        <time>2026-04-25T11:56:50Z</time>
      </trkpt>
      <trkpt lat="40.69771695882082" lon="-2.598966993391514">
        <ele>733.23800000000006</ele>
        <time>2026-04-25T11:56:51Z</time>
      </trkpt>
      <trkpt lat="40.697730034589767" lon="-2.598942015320063">
        <ele>733.26999999999998</ele>
        <time>2026-04-25T11:56:52Z</time>
      </trkpt>
      <trkpt lat="40.697742020711303" lon="-2.598919970914722">
        <ele>733.41700000000003</ele>
        <time>2026-04-25T11:56:53Z</time>
      </trkpt>
      <trkpt lat="40.697756018489599" lon="-2.598899016156793">
        <ele>733.20899999999995</ele>
        <time>2026-04-25T11:56:54Z</time>
      </trkpt>
      <trkpt lat="40.697809997946024" lon="-2.598797008395195">
        <ele>733.22500000000002</ele>
        <time>2026-04-25T11:56:58Z</time>
      </trkpt>
      <trkpt lat="40.69786598905921" lon="-2.598682008683682">
        <ele>733.279</ele>
        <time>2026-04-25T11:57:02Z</time>
      </trkpt>
      <trkpt lat="40.697924997657537" lon="-2.59857103228569">
        <ele>733.45399999999995</ele>
        <time>2026-04-25T11:57:06Z</time>
      </trkpt>
      <trkpt lat="40.697933966293931" lon="-2.598543036729097">
        <ele>733.49400000000003</ele>
        <time>2026-04-25T11:57:07Z</time>
      </trkpt>
      <trkpt lat="40.697986017912626" lon="-2.598440023139119">
        <ele>733.28999999999996</ele>
        <time>2026-04-25T11:57:11Z</time>
      </trkpt>
      <trkpt lat="40.698047038167715" lon="-2.598302979022265">
        <ele>733.072</ele>
        <time>2026-04-25T11:57:17Z</time>
      </trkpt>
      <trkpt lat="40.698105040937662" lon="-2.598197031766176">
        <ele>733.64099999999996</ele>
        <time>2026-04-25T11:57:21Z</time>
      </trkpt>
      <trkpt lat="40.698142005130649" lon="-2.598073985427618">
        <ele>734.08199999999999</ele>
        <time>2026-04-25T11:57:25Z</time>
      </trkpt>
      <trkpt lat="40.698186010122299" lon="-2.597962003201246">
        <ele>733.86699999999996</ele>
        <time>2026-04-25T11:57:29Z</time>
      </trkpt>
      <trkpt lat="40.698249964043498" lon="-2.597857983782888">
        <ele>734.08699999999999</ele>
        <time>2026-04-25T11:57:33Z</time>
      </trkpt>
      <trkpt lat="40.698325987905264" lon="-2.597749019041657">
        <ele>734.04200000000003</ele>
        <time>2026-04-25T11:57:37Z</time>
      </trkpt>
      <trkpt lat="40.698390025645494" lon="-2.597633013501763">
        <ele>733.42600000000004</ele>
        <time>2026-04-25T11:57:42Z</time>
      </trkpt>
      <trkpt lat="40.698447022587061" lon="-2.597524970769882">
        <ele>733.00900000000001</ele>
        <time>2026-04-25T11:57:46Z</time>
      </trkpt>
      <trkpt lat="40.698481975123286" lon="-2.597479037940502">
        <ele>733.02999999999997</ele>
        <time>2026-04-25T11:57:48Z</time>
      </trkpt>
      <trkpt lat="40.698495972901583" lon="-2.597451964393258">
        <ele>732.82399999999996</ele>
        <time>2026-04-25T11:57:49Z</time>
      </trkpt>
      <trkpt lat="40.698508964851499" lon="-2.597421035170555">
        <ele>732.69899999999996</ele>
        <time>2026-04-25T11:57:50Z</time>
      </trkpt>
      <trkpt lat="40.698522040620446" lon="-2.597393961623311">
        <ele>732.42899999999997</ele>
        <time>2026-04-25T11:57:51Z</time>
      </trkpt>
      <trkpt lat="40.698536038398743" lon="-2.597372001037002">
        <ele>732.64499999999998</ele>
        <time>2026-04-25T11:57:52Z</time>
      </trkpt>
      <trkpt lat="40.698568979278207" lon="-2.597312992438674">
        <ele>732.47699999999998</ele>
        <time>2026-04-25T11:57:56Z</time>
      </trkpt>
      <trkpt lat="40.698641985654831" lon="-2.597219031304121">
        <ele>732.65599999999995</ele>
        <time>2026-04-25T11:58:03Z</time>
      </trkpt>
      <trkpt lat="40.698729995638132" lon="-2.597130015492439">
        <ele>732.48699999999997</ele>
        <time>2026-04-25T11:58:07Z</time>
      </trkpt>
      <trkpt lat="40.698805013671517" lon="-2.597038988023996">
        <ele>732.25199999999995</ele>
        <time>2026-04-25T11:58:13Z</time>
      </trkpt>
      <trkpt lat="40.698872990906239" lon="-2.596943015232682">
        <ele>732.07100000000003</ele>
        <time>2026-04-25T11:58:17Z</time>
      </trkpt>
      <trkpt lat="40.698922025039792" lon="-2.596836984157562">
        <ele>731.64099999999996</ele>
        <time>2026-04-25T11:58:20Z</time>
      </trkpt>
      <trkpt lat="40.698978016152978" lon="-2.596720978617668">
        <ele>731.21500000000003</ele>
        <time>2026-04-25T11:58:24Z</time>
      </trkpt>
      <trkpt lat="40.699025960639119" lon="-2.596613019704819">
        <ele>731.20899999999995</ele>
        <time>2026-04-25T11:58:29Z</time>
      </trkpt>
      <trkpt lat="40.699078012257814" lon="-2.596502965316176">
        <ele>731.09900000000005</ele>
        <time>2026-04-25T11:58:36Z</time>
      </trkpt>
      <trkpt lat="40.699135009199381" lon="-2.596401041373611">
        <ele>731.04300000000001</ele>
        <time>2026-04-25T11:58:40Z</time>
      </trkpt>
      <trkpt lat="40.699212038889527" lon="-2.596339015290141">
        <ele>730.87800000000004</ele>
        <time>2026-04-25T11:58:46Z</time>
      </trkpt>
      <trkpt lat="40.699293008074164" lon="-2.59627103805542">
        <ele>730.85799999999995</ele>
        <time>2026-04-25T11:58:50Z</time>
      </trkpt>
      <trkpt lat="40.699362996965647" lon="-2.5961650069803">
        <ele>730.84400000000005</ele>
        <time>2026-04-25T11:58:54Z</time>
      </trkpt>
      <trkpt lat="40.699420999735594" lon="-2.596071967855096">
        <ele>731.02599999999995</ele>
        <time>2026-04-25T11:58:57Z</time>
      </trkpt>
      <trkpt lat="40.699485959485173" lon="-2.595967026427388">
        <ele>730.67499999999995</ele>
        <time>2026-04-25T11:59:01Z</time>
      </trkpt>
      <trkpt lat="40.699559971690178" lon="-2.595862001180649">
        <ele>730.476</ele>
        <time>2026-04-25T11:59:04Z</time>
      </trkpt>
      <trkpt lat="40.699640018865466" lon="-2.595768040046096">
        <ele>730.24099999999999</ele>
        <time>2026-04-25T11:59:09Z</time>
      </trkpt>
      <trkpt lat="40.6997349858284" lon="-2.595650022849441">
        <ele>730.69799999999998</ele>
        <time>2026-04-25T11:59:13Z</time>
      </trkpt>
      <trkpt lat="40.699791982769966" lon="-2.595544997602701">
        <ele>730.41499999999996</ele>
        <time>2026-04-25T11:59:16Z</time>
      </trkpt>
      <trkpt lat="40.699829030781984" lon="-2.595524964854121">
        <ele>730.42600000000004</ele>
        <time>2026-04-25T11:59:19Z</time>
      </trkpt>
      <trkpt lat="40.699853003025055" lon="-2.595491018146277">
        <ele>730.40899999999999</ele>
        <time>2026-04-25T11:59:20Z</time>
      </trkpt>
      <trkpt lat="40.699874041602015" lon="-2.595464028418064">
        <ele>730.45100000000002</ele>
        <time>2026-04-25T11:59:21Z</time>
      </trkpt>
      <trkpt lat="40.699888039380312" lon="-2.595437960699201">
        <ele>730.63499999999999</ele>
        <time>2026-04-25T11:59:22Z</time>
      </trkpt>
      <trkpt lat="40.69994998164475" lon="-2.595317009836435">
        <ele>730.65999999999997</ele>
        <time>2026-04-25T11:59:26Z</time>
      </trkpt>
      <trkpt lat="40.7000130135566" lon="-2.595194969326258">
        <ele>730.48000000000002</ele>
        <time>2026-04-25T11:59:29Z</time>
      </trkpt>
      <trkpt lat="40.700066993013024" lon="-2.595077035948634">
        <ele>730.69600000000003</ele>
        <time>2026-04-25T11:59:32Z</time>
      </trkpt>
      <trkpt lat="40.700116027146578" lon="-2.594954995438457">
        <ele>730.678</ele>
        <time>2026-04-25T11:59:36Z</time>
      </trkpt>
      <trkpt lat="40.700137987732887" lon="-2.594814011827111">
        <ele>730.63699999999994</ele>
        <time>2026-04-25T11:59:40Z</time>
      </trkpt>
      <trkpt lat="40.70016598328948" lon="-2.594675961881876">
        <ele>730.65800000000002</ele>
        <time>2026-04-25T11:59:44Z</time>
      </trkpt>
      <trkpt lat="40.700174029916525" lon="-2.594612007960677">
        <ele>730.66300000000001</ele>
        <time>2026-04-25T11:59:46Z</time>
      </trkpt>
      <trkpt lat="40.700193978846073" lon="-2.594502959400415">
        <ele>730.45699999999999</ele>
        <time>2026-04-25T11:59:52Z</time>
      </trkpt>
      <trkpt lat="40.700203031301498" lon="-2.594459960237145">
        <ele>730.20000000000005</ele>
        <time>2026-04-25T11:59:54Z</time>
      </trkpt>
      <trkpt lat="40.70020898245275" lon="-2.594434982165694">
        <ele>730.22000000000003</ele>
        <time>2026-04-25T11:59:55Z</time>
      </trkpt>
      <trkpt lat="40.700217029079795" lon="-2.594410004094243">
        <ele>730.20899999999995</ele>
        <time>2026-04-25T11:59:56Z</time>
      </trkpt>
      <trkpt lat="40.700223986059427" lon="-2.594384020194411">
        <ele>730.23699999999997</ele>
        <time>2026-04-25T11:59:57Z</time>
      </trkpt>
      <trkpt lat="40.700234966352582" lon="-2.59436096996069">
        <ele>730.25099999999998</ele>
        <time>2026-04-25T11:59:58Z</time>
      </trkpt>
      <trkpt lat="40.700247036293149" lon="-2.594322999939323">
        <ele>730.24599999999998</ele>
        <time>2026-04-25T12:00:00Z</time>
      </trkpt>
      <trkpt lat="40.700305039063096" lon="-2.594206994399428">
        <ele>730.21600000000001</ele>
        <time>2026-04-25T12:00:05Z</time>
      </trkpt>
      <trkpt lat="40.700363041833043" lon="-2.594099035486579">
        <ele>730.23199999999997</ele>
        <time>2026-04-25T12:00:10Z</time>
      </trkpt>
      <trkpt lat="40.70040101185441" lon="-2.59397498331964">
        <ele>730.23400000000004</ele>
        <time>2026-04-25T12:00:15Z</time>
      </trkpt>
      <trkpt lat="40.700458008795977" lon="-2.593839028850198">
        <ele>730.07299999999998</ele>
        <time>2026-04-25T12:00:19Z</time>
      </trkpt>
      <trkpt lat="40.700502013787627" lon="-2.593729980289936">
        <ele>730.29399999999998</ele>
        <time>2026-04-25T12:00:22Z</time>
      </trkpt>
      <trkpt lat="40.70057300850749" lon="-2.593649011105299">
        <ele>730.03899999999999</ele>
        <time>2026-04-25T12:00:30Z</time>
      </trkpt>
      <trkpt lat="40.700627993792295" lon="-2.593571981415153">
        <ele>730.48199999999997</ele>
        <time>2026-04-25T12:00:37Z</time>
      </trkpt>
      <trkpt lat="40.700636962428689" lon="-2.593541974201798">
        <ele>731.24300000000005</ele>
        <time>2026-04-25T12:00:41Z</time>
      </trkpt>
      <trkpt lat="40.700621036812663" lon="-2.593529988080263">
        <ele>731.61699999999996</ele>
        <time>2026-04-25T12:00:44Z</time>
      </trkpt>
      <trkpt lat="40.700621958822012" lon="-2.593495035544038">
        <ele>732.20899999999995</ele>
        <time>2026-04-25T12:00:49Z</time>
      </trkpt>
      <trkpt lat="40.700617013499141" lon="-2.593459999188781">
        <ele>732.82000000000005</ele>
        <time>2026-04-25T12:00:51Z</time>
      </trkpt>
      <trkpt lat="40.700623970478773" lon="-2.593425968661904">
        <ele>733.09400000000005</ele>
        <time>2026-04-25T12:00:53Z</time>
      </trkpt>
      <trkpt lat="40.70063604041934" lon="-2.593391016125679">
        <ele>733.04899999999998</ele>
        <time>2026-04-25T12:00:55Z</time>
      </trkpt>
      <trkpt lat="40.700644003227353" lon="-2.593352040275931">
        <ele>732.88900000000001</ele>
        <time>2026-04-25T12:00:57Z</time>
      </trkpt>
      <trkpt lat="40.70063503459096" lon="-2.593312980607152">
        <ele>733.09500000000003</ele>
        <time>2026-04-25T12:00:59Z</time>
      </trkpt>
      <trkpt lat="40.700627993792295" lon="-2.593280961737037">
        <ele>733.22699999999998</ele>
        <time>2026-04-25T12:01:01Z</time>
      </trkpt>
      <trkpt lat="40.700630005449057" lon="-2.593247015029192">
        <ele>733.27599999999995</ele>
        <time>2026-04-25T12:01:03Z</time>
      </trkpt>
      <trkpt lat="40.700636962428689" lon="-2.593214996159077">
        <ele>733.26700000000005</ele>
        <time>2026-04-25T12:01:05Z</time>
      </trkpt>
      <trkpt lat="40.700649032369256" lon="-2.59317702613771">
        <ele>733.47199999999998</ele>
        <time>2026-04-25T12:01:07Z</time>
      </trkpt>
      <trkpt lat="40.700654983520508" lon="-2.593153975903988">
        <ele>733.22699999999998</ele>
        <time>2026-04-25T12:01:08Z</time>
      </trkpt>
      <trkpt lat="40.700665041804314" lon="-2.593110976740718">
        <ele>733.26800000000003</ele>
        <time>2026-04-25T12:01:10Z</time>
      </trkpt>
    </trkseg>
  </trk>

</gpx>
